<?xml version='1.0' encoding='UTF-8'?><gpx version="1.1" creator="JPX - https://github.com/jenetics/jpx" xmlns="http://www.topografix.com/GPX/1/1"><trk><trkseg><trkpt lat="44.27646504385876" lon="11.737971990558076"><ele>88.0</ele><time>2026-05-02T09:02:45Z</time></trkpt><trkpt lat="44.276491390553694" lon="11.738147380804772"><ele>88.0</ele><time>2026-05-02T09:02:47Z</time></trkpt><trkpt lat="44.27650064382223" lon="11.738262861209353"><ele>88.0</ele><time>2026-05-02T09:02:48Z</time></trkpt><trkpt lat="44.27650384817441" lon="11.738376833361661"><ele>88.0</ele><time>2026-05-02T09:02:49Z</time></trkpt><trkpt lat="44.276512071323104" lon="11.738508948141051"><ele>88.0</ele><time>2026-05-02T09:02:50Z</time></trkpt><trkpt lat="44.276521783433004" lon="11.73864556381588"><ele>87.4</ele><time>2026-05-02T09:02:51Z</time></trkpt><trkpt lat="44.276531864811304" lon="11.738798663891785"><ele>86.80000000000001</ele><time>2026-05-02T09:02:52Z</time></trkpt><trkpt lat="44.2765458630269" lon="11.738947665141577"><ele>86.2</ele><time>2026-05-02T09:02:53Z</time></trkpt><trkpt lat="44.27655616414273" lon="11.73909206284084"><ele>85.6</ele><time>2026-05-02T09:02:54Z</time></trkpt><trkpt lat="44.27656894255522" lon="11.739237572903106"><ele>85.0</ele><time>2026-05-02T09:02:55Z</time></trkpt><trkpt lat="44.27658275618869" lon="11.739398768715008"><ele>84.75</ele><time>2026-05-02T09:02:56Z</time></trkpt><trkpt lat="44.27659706482476" lon="11.739552327169584"><ele>84.5</ele><time>2026-05-02T09:02:57Z</time></trkpt><trkpt lat="44.27660434506118" lon="11.739715790159194"><ele>84.25</ele><time>2026-05-02T09:02:58Z</time></trkpt><trkpt lat="44.27661221964613" lon="11.739871907135006"><ele>84.0</ele><time>2026-05-02T09:02:59Z</time></trkpt><trkpt lat="44.27662493051271" lon="11.740028162791539"><ele>84.0</ele><time>2026-05-02T09:03:00Z</time></trkpt><trkpt lat="44.27663650269704" lon="11.740182423787571"><ele>84.0</ele><time>2026-05-02T09:03:01Z</time></trkpt><trkpt lat="44.27664807270603" lon="11.740337232007196"><ele>84.0</ele><time>2026-05-02T09:03:02Z</time></trkpt><trkpt lat="44.27666449515237" lon="11.74047744766523"><ele>84.0</ele><time>2026-05-02T09:03:03Z</time></trkpt><trkpt lat="44.27667673116088" lon="11.74061440737208"><ele>84.0</ele><time>2026-05-02T09:03:04Z</time></trkpt><trkpt lat="44.27667739843679" lon="11.74072317090946"><ele>84.0</ele><time>2026-05-02T09:03:04.998Z</time></trkpt><trkpt lat="44.27667654709443" lon="11.740842275515778"><ele>84.0</ele><time>2026-05-02T09:03:05.998Z</time></trkpt><trkpt lat="44.27667114430656" lon="11.740957961122126"><ele>84.0</ele><time>2026-05-02T09:03:06.998Z</time></trkpt><trkpt lat="44.27667186886533" lon="11.741059259323567"><ele>84.0</ele><time>2026-05-02T09:03:07.998Z</time></trkpt><trkpt lat="44.27668923743068" lon="11.741146406634243"><ele>84.0</ele><time>2026-05-02T09:03:08.998Z</time></trkpt><trkpt lat="44.27677273200624" lon="11.741248551687441"><ele>84.0</ele><time>2026-05-02T09:03:10.998Z</time></trkpt><trkpt lat="44.27689775284532" lon="11.741180171409303"><ele>84.0</ele><time>2026-05-02T09:03:12.998Z</time></trkpt><trkpt lat="44.276926984518525" lon="11.741092555603833"><ele>84.0</ele><time>2026-05-02T09:03:13.998Z</time></trkpt><trkpt lat="44.27691890990838" lon="11.740987140441346"><ele>84.0</ele><time>2026-05-02T09:03:14.999Z</time></trkpt><trkpt lat="44.276880114162566" lon="11.740892135139813"><ele>84.0</ele><time>2026-05-02T09:03:15.999Z</time></trkpt><trkpt lat="44.27682144281765" lon="11.740813452252583"><ele>84.0</ele><time>2026-05-02T09:03:16.999Z</time></trkpt><trkpt lat="44.27676311808834" lon="11.74071621134015"><ele>84.0</ele><time>2026-05-02T09:03:17.999Z</time></trkpt><trkpt lat="44.276715644018196" lon="11.74058630234392"><ele>84.0</ele><time>2026-05-02T09:03:18.999Z</time></trkpt><trkpt lat="44.27669306873641" lon="11.740426401718928"><ele>84.0</ele><time>2026-05-02T09:03:19.999Z</time></trkpt><trkpt lat="44.27668364604389" lon="11.740248430868725"><ele>84.0</ele><time>2026-05-02T09:03:20.999Z</time></trkpt><trkpt lat="44.27668047860464" lon="11.740061538524396"><ele>84.0</ele><time>2026-05-02T09:03:21.999Z</time></trkpt><trkpt lat="44.27666629114382" lon="11.739877963645425"><ele>84.0</ele><time>2026-05-02T09:03:22.999Z</time></trkpt><trkpt lat="44.276649240985655" lon="11.739681487681114"><ele>84.0</ele><time>2026-05-02T09:03:23.999Z</time></trkpt><trkpt lat="44.27662708897172" lon="11.739475700652717"><ele>84.0</ele><time>2026-05-02T09:03:24.999Z</time></trkpt><trkpt lat="44.27660728096151" lon="11.73926216405413"><ele>84.0</ele><time>2026-05-02T09:03:25.999Z</time></trkpt><trkpt lat="44.276589220163125" lon="11.739045029325892"><ele>84.25</ele><time>2026-05-02T09:03:26.999Z</time></trkpt><trkpt lat="44.276575829008166" lon="11.738832817054867"><ele>84.5</ele><time>2026-05-02T09:03:27.999Z</time></trkpt><trkpt lat="44.27656434434387" lon="11.738626951259002"><ele>84.75</ele><time>2026-05-02T09:03:28.999Z</time></trkpt><trkpt lat="44.27654591168405" lon="11.738420256448576"><ele>85.0</ele><time>2026-05-02T09:03:29.999Z</time></trkpt><trkpt lat="44.276532213726455" lon="11.738213533363526"><ele>85.75</ele><time>2026-05-02T09:03:30.999Z</time></trkpt><trkpt lat="44.27651257835153" lon="11.738010266707265"><ele>86.5</ele><time>2026-05-02T09:03:31.999Z</time></trkpt><trkpt lat="44.27649938764786" lon="11.737803020924499"><ele>87.25</ele><time>2026-05-02T09:03:32.999Z</time></trkpt><trkpt lat="44.27649496404013" lon="11.737599930321812"><ele>88.0</ele><time>2026-05-02T09:03:33.999Z</time></trkpt><trkpt lat="44.27649291271079" lon="11.737409975281972"><ele>88.0</ele><time>2026-05-02T09:03:34.999Z</time></trkpt><trkpt lat="44.27649002898372" lon="11.73723586804924"><ele>88.0</ele><time>2026-05-02T09:03:35.999Z</time></trkpt><trkpt lat="44.27648676065997" lon="11.73707225772018"><ele>88.0</ele><time>2026-05-02T09:03:36.999Z</time></trkpt><trkpt lat="44.27648385236538" lon="11.736918476763295"><ele>88.0</ele><time>2026-05-02T09:03:37.999Z</time></trkpt><trkpt lat="44.27647917115185" lon="11.736776243475425"><ele>87.60000000000001</ele><time>2026-05-02T09:03:38.999Z</time></trkpt><trkpt lat="44.2764730671465" lon="11.736637497226988"><ele>87.2</ele><time>2026-05-02T09:03:40Z</time></trkpt><trkpt lat="44.27646859914993" lon="11.736496912939181"><ele>86.8</ele><time>2026-05-02T09:03:41Z</time></trkpt><trkpt lat="44.27645686026165" lon="11.736351659146845"><ele>86.4</ele><time>2026-05-02T09:03:42Z</time></trkpt><trkpt lat="44.27645244494288" lon="11.736203197730863"><ele>86.0</ele><time>2026-05-02T09:03:43Z</time></trkpt><trkpt lat="44.27645388845169" lon="11.736046246292645"><ele>86.0</ele><time>2026-05-02T09:03:44Z</time></trkpt><trkpt lat="44.27644829388203" lon="11.735884430390309"><ele>86.0</ele><time>2026-05-02T09:03:45Z</time></trkpt><trkpt lat="44.276445248511024" lon="11.735722230065468"><ele>86.0</ele><time>2026-05-02T09:03:46Z</time></trkpt><trkpt lat="44.27644332757983" lon="11.735555999400306"><ele>86.0</ele><time>2026-05-02T09:03:47Z</time></trkpt><trkpt lat="44.27644031574617" lon="11.735389416785827"><ele>85.75</ele><time>2026-05-02T09:03:48Z</time></trkpt><trkpt lat="44.27643316194453" lon="11.735218644128981"><ele>85.5</ele><time>2026-05-02T09:03:49Z</time></trkpt><trkpt lat="44.27642807649065" lon="11.735044288246867"><ele>85.25</ele><time>2026-05-02T09:03:50Z</time></trkpt><trkpt lat="44.27642189419976" lon="11.734869104261128"><ele>85.0</ele><time>2026-05-02T09:03:51Z</time></trkpt><trkpt lat="44.27641976843782" lon="11.734691590327476"><ele>85.0</ele><time>2026-05-02T09:03:52Z</time></trkpt><trkpt lat="44.27641269531321" lon="11.734516973105915"><ele>85.0</ele><time>2026-05-02T09:03:53Z</time></trkpt><trkpt lat="44.27640806764573" lon="11.734335348094062"><ele>85.0</ele><time>2026-05-02T09:03:54Z</time></trkpt><trkpt lat="44.27640361846074" lon="11.734154912189299"><ele>85.0</ele><time>2026-05-02T09:03:55Z</time></trkpt><trkpt lat="44.276395303745616" lon="11.733974649355375"><ele>85.25</ele><time>2026-05-02T09:03:56Z</time></trkpt><trkpt lat="44.276389322856936" lon="11.733791914993551"><ele>85.5</ele><time>2026-05-02T09:03:57Z</time></trkpt><trkpt lat="44.27638453202291" lon="11.733606002050541"><ele>85.75</ele><time>2026-05-02T09:03:58Z</time></trkpt><trkpt lat="44.27637791960166" lon="11.733418067418976"><ele>86.0</ele><time>2026-05-02T09:03:59Z</time></trkpt><trkpt lat="44.27637527547952" lon="11.733231341894015"><ele>86.25</ele><time>2026-05-02T09:04:00Z</time></trkpt><trkpt lat="44.276370258324086" lon="11.733042709283694"><ele>86.5</ele><time>2026-05-02T09:04:01Z</time></trkpt><trkpt lat="44.27636842494611" lon="11.732855938756355"><ele>86.75</ele><time>2026-05-02T09:04:02Z</time></trkpt><trkpt lat="44.27636539778362" lon="11.732672621079825"><ele>87.0</ele><time>2026-05-02T09:04:03Z</time></trkpt><trkpt lat="44.27636302491511" lon="11.732497419900199"><ele>87.25</ele><time>2026-05-02T09:04:04Z</time></trkpt><trkpt lat="44.27636578047708" lon="11.732331592731315"><ele>87.5</ele><time>2026-05-02T09:04:05Z</time></trkpt><trkpt lat="44.27636040729251" lon="11.732175620560845"><ele>87.75</ele><time>2026-05-02T09:04:06Z</time></trkpt><trkpt lat="44.276358808646606" lon="11.73202294130199"><ele>88.0</ele><time>2026-05-02T09:04:07Z</time></trkpt><trkpt lat="44.276357384853654" lon="11.73186786602633"><ele>88.0</ele><time>2026-05-02T09:04:08Z</time></trkpt><trkpt lat="44.27635308782626" lon="11.731706984567891"><ele>88.0</ele><time>2026-05-02T09:04:09Z</time></trkpt><trkpt lat="44.27635357222357" lon="11.731541705470487"><ele>88.0</ele><time>2026-05-02T09:04:10Z</time></trkpt><trkpt lat="44.27635227642166" lon="11.731367727426624"><ele>88.0</ele><time>2026-05-02T09:04:11Z</time></trkpt><trkpt lat="44.27635155956926" lon="11.731198922952249"><ele>88.25</ele><time>2026-05-02T09:04:12Z</time></trkpt><trkpt lat="44.27634741392954" lon="11.731022512702232"><ele>88.5</ele><time>2026-05-02T09:04:13Z</time></trkpt><trkpt lat="44.276343599082225" lon="11.730845956439241"><ele>88.75</ele><time>2026-05-02T09:04:14Z</time></trkpt><trkpt lat="44.27634431693294" lon="11.73066531434931"><ele>89.0</ele><time>2026-05-02T09:04:15Z</time></trkpt><trkpt lat="44.27634233125633" lon="11.730483080010048"><ele>89.0</ele><time>2026-05-02T09:04:16Z</time></trkpt><trkpt lat="44.27633669689089" lon="11.73029095936739"><ele>89.0</ele><time>2026-05-02T09:04:17Z</time></trkpt><trkpt lat="44.276333289159545" lon="11.730102450063452"><ele>89.0</ele><time>2026-05-02T09:04:18Z</time></trkpt><trkpt lat="44.27633195873625" lon="11.729918759324807"><ele>89.0</ele><time>2026-05-02T09:04:19Z</time></trkpt><trkpt lat="44.27633000805699" lon="11.729730033640923"><ele>89.25</ele><time>2026-05-02T09:04:20Z</time></trkpt><trkpt lat="44.27632902838023" lon="11.729554476737494"><ele>89.5</ele><time>2026-05-02T09:04:21Z</time></trkpt><trkpt lat="44.2763316568485" lon="11.729386793730102"><ele>89.75</ele><time>2026-05-02T09:04:22Z</time></trkpt><trkpt lat="44.27632958550308" lon="11.729233710819546"><ele>90.0</ele><time>2026-05-02T09:04:23Z</time></trkpt><trkpt lat="44.27632558509287" lon="11.729083458506114"><ele>90.4</ele><time>2026-05-02T09:04:24Z</time></trkpt><trkpt lat="44.27632216326468" lon="11.72894311799749"><ele>90.8</ele><time>2026-05-02T09:04:25Z</time></trkpt><trkpt lat="44.27631591900369" lon="11.728798334710877"><ele>91.19999999999999</ele><time>2026-05-02T09:04:26Z</time></trkpt><trkpt lat="44.276316640512" lon="11.728653750731922"><ele>91.6</ele><time>2026-05-02T09:04:27Z</time></trkpt><trkpt lat="44.276318318808" lon="11.728506826296629"><ele>92.0</ele><time>2026-05-02T09:04:28Z</time></trkpt><trkpt lat="44.276316341874626" lon="11.728354093236721"><ele>92.19999999999999</ele><time>2026-05-02T09:04:29Z</time></trkpt><trkpt lat="44.276314546934174" lon="11.728204898086885"><ele>92.4</ele><time>2026-05-02T09:04:30Z</time></trkpt><trkpt lat="44.27631158631197" lon="11.728055007566313"><ele>92.6</ele><time>2026-05-02T09:04:31Z</time></trkpt><trkpt lat="44.27631517907863" lon="11.727910336954572"><ele>92.80000000000001</ele><time>2026-05-02T09:04:32Z</time></trkpt><trkpt lat="44.27632121772554" lon="11.727776053104817"><ele>93.0</ele><time>2026-05-02T09:04:33Z</time></trkpt><trkpt lat="44.27632161650327" lon="11.72766869363117"><ele>93.0</ele><time>2026-05-02T09:04:34Z</time></trkpt><trkpt lat="44.27630943991128" lon="11.727493678487953"><ele>93.0</ele><time>2026-05-02T09:04:36Z</time></trkpt><trkpt lat="44.27632112692199" lon="11.72734874286966"><ele>93.0</ele><time>2026-05-02T09:04:38Z</time></trkpt><trkpt lat="44.27632962036527" lon="11.727205126847284"><ele>93.0</ele><time>2026-05-02T09:04:40Z</time></trkpt><trkpt lat="44.276329058046926" lon="11.72708476583992"><ele>93.0</ele><time>2026-05-02T09:04:42Z</time></trkpt><trkpt lat="44.27627025421514" lon="11.727034110710827"><ele>93.0</ele><time>2026-05-02T09:04:46Z</time></trkpt><trkpt lat="44.276164808890826" lon="11.727008751919467"><ele>93.0</ele><time>2026-05-02T09:04:53Z</time></trkpt><trkpt lat="44.276068521912876" lon="11.727020914220567"><ele>93.0</ele><time>2026-05-02T09:04:55Z</time></trkpt><trkpt lat="44.27595997809176" lon="11.727007255945098"><ele>93.0</ele><time>2026-05-02T09:04:57Z</time></trkpt><trkpt lat="44.27584602171886" lon="11.726964019906303"><ele>93.0</ele><time>2026-05-02T09:04:59Z</time></trkpt><trkpt lat="44.275788268740044" lon="11.726926784188409"><ele>93.4</ele><time>2026-05-02T09:05:00Z</time></trkpt><trkpt lat="44.27565949013284" lon="11.726886004002253"><ele>93.80000000000001</ele><time>2026-05-02T09:05:02Z</time></trkpt><trkpt lat="44.27558664824476" lon="11.726846698712547"><ele>94.2</ele><time>2026-05-02T09:05:03Z</time></trkpt><trkpt lat="44.27550319617774" lon="11.726813822077485"><ele>94.6</ele><time>2026-05-02T09:05:04Z</time></trkpt><trkpt lat="44.275412123180395" lon="11.726778475458023"><ele>95.0</ele><time>2026-05-02T09:05:05Z</time></trkpt><trkpt lat="44.2753117679728" lon="11.726759733590363"><ele>95.0</ele><time>2026-05-02T09:05:06Z</time></trkpt><trkpt lat="44.27521150974561" lon="11.72670870512471"><ele>95.0</ele><time>2026-05-02T09:05:07Z</time></trkpt><trkpt lat="44.27511352860021" lon="11.726674095142782"><ele>95.0</ele><time>2026-05-02T09:05:08Z</time></trkpt><trkpt lat="44.27501677523433" lon="11.726640031265307"><ele>95.0</ele><time>2026-05-02T09:05:09Z</time></trkpt><trkpt lat="44.27492139271646" lon="11.726604679586892"><ele>95.0</ele><time>2026-05-02T09:05:10Z</time></trkpt><trkpt lat="44.27482592754439" lon="11.726574147113512"><ele>94.33333333333334</ele><time>2026-05-02T09:05:10.998Z</time></trkpt><trkpt lat="44.2747384261789" lon="11.726525523091606"><ele>93.66666666666667</ele><time>2026-05-02T09:05:11.998Z</time></trkpt><trkpt lat="44.27465194088382" lon="11.726502196974167"><ele>93.0</ele><time>2026-05-02T09:05:12.998Z</time></trkpt><trkpt lat="44.27457409709359" lon="11.726464706603902"><ele>92.33333333333333</ele><time>2026-05-02T09:05:13.998Z</time></trkpt><trkpt lat="44.274492281111954" lon="11.726433668389994"><ele>91.66666666666666</ele><time>2026-05-02T09:05:14.998Z</time></trkpt><trkpt lat="44.274417790109354" lon="11.726408017962688"><ele>91.0</ele><time>2026-05-02T09:05:15.998Z</time></trkpt><trkpt lat="44.27433500532368" lon="11.72637079940567"><ele>91.0</ele><time>2026-05-02T09:05:16.998Z</time></trkpt><trkpt lat="44.274261147379484" lon="11.726307882970122"><ele>91.0</ele><time>2026-05-02T09:05:17.998Z</time></trkpt><trkpt lat="44.27418142029275" lon="11.726243353953606"><ele>91.0</ele><time>2026-05-02T09:05:18.998Z</time></trkpt><trkpt lat="44.2741201899488" lon="11.726152081801843"><ele>91.0</ele><time>2026-05-02T09:05:19.998Z</time></trkpt><trkpt lat="44.27407134858421" lon="11.726042152932688"><ele>91.0</ele><time>2026-05-02T09:05:20.998Z</time></trkpt><trkpt lat="44.274035517426235" lon="11.72592684424092"><ele>90.4</ele><time>2026-05-02T09:05:21.998Z</time></trkpt><trkpt lat="44.274025994695066" lon="11.725808698883066"><ele>89.8</ele><time>2026-05-02T09:05:22.998Z</time></trkpt><trkpt lat="44.274024484164855" lon="11.7256799950072"><ele>89.2</ele><time>2026-05-02T09:05:23.998Z</time></trkpt><trkpt lat="44.27403301056055" lon="11.725546594037443"><ele>88.60000000000001</ele><time>2026-05-02T09:05:24.998Z</time></trkpt><trkpt lat="44.274056479507166" lon="11.725411259261108"><ele>88.0</ele><time>2026-05-02T09:05:25.998Z</time></trkpt><trkpt lat="44.27408624834422" lon="11.725276075902315"><ele>87.4</ele><time>2026-05-02T09:05:26.998Z</time></trkpt><trkpt lat="44.274129121821794" lon="11.725145479417684"><ele>86.80000000000001</ele><time>2026-05-02T09:05:27.998Z</time></trkpt><trkpt lat="44.274179511900634" lon="11.725015707655794"><ele>86.2</ele><time>2026-05-02T09:05:28.999Z</time></trkpt><trkpt lat="44.274228304091224" lon="11.724887728486408"><ele>85.6</ele><time>2026-05-02T09:05:29.999Z</time></trkpt><trkpt lat="44.27427693573986" lon="11.724764798493247"><ele>85.0</ele><time>2026-05-02T09:05:30.999Z</time></trkpt><trkpt lat="44.274328299730655" lon="11.724645949264994"><ele>85.0</ele><time>2026-05-02T09:05:31.999Z</time></trkpt><trkpt lat="44.27437243331286" lon="11.724533667271498"><ele>85.0</ele><time>2026-05-02T09:05:32.999Z</time></trkpt><trkpt lat="44.27442008528154" lon="11.724417352781886"><ele>85.0</ele><time>2026-05-02T09:05:33.999Z</time></trkpt><trkpt lat="44.274463352385794" lon="11.72430678479833"><ele>85.0</ele><time>2026-05-02T09:05:34.999Z</time></trkpt><trkpt lat="44.27449755344251" lon="11.724192426665743"><ele>85.0</ele><time>2026-05-02T09:05:35.999Z</time></trkpt><trkpt lat="44.274523957041716" lon="11.724073855575819"><ele>83.8</ele><time>2026-05-02T09:05:36.999Z</time></trkpt><trkpt lat="44.27453387307932" lon="11.723944046636516"><ele>82.6</ele><time>2026-05-02T09:05:37.999Z</time></trkpt><trkpt lat="44.274531847842034" lon="11.72380586324724"><ele>81.4</ele><time>2026-05-02T09:05:38.999Z</time></trkpt><trkpt lat="44.274520974277294" lon="11.723658580200523"><ele>80.2</ele><time>2026-05-02T09:05:39.999Z</time></trkpt><trkpt lat="44.27450034696988" lon="11.7235091390763"><ele>79.0</ele><time>2026-05-02T09:05:40.999Z</time></trkpt><trkpt lat="44.27446803241897" lon="11.723360527059079"><ele>78.5</ele><time>2026-05-02T09:05:41.999Z</time></trkpt><trkpt lat="44.274436853801895" lon="11.723208530996626"><ele>78.0</ele><time>2026-05-02T09:05:42.999Z</time></trkpt><trkpt lat="44.27438920368645" lon="11.723066043529736"><ele>77.5</ele><time>2026-05-02T09:05:43.999Z</time></trkpt><trkpt lat="44.27433356608122" lon="11.722927552060272"><ele>77.0</ele><time>2026-05-02T09:05:44.999Z</time></trkpt><trkpt lat="44.274267676319255" lon="11.722799736967923"><ele>77.6</ele><time>2026-05-02T09:05:45.999Z</time></trkpt><trkpt lat="44.274193322708946" lon="11.722683058895404"><ele>78.2</ele><time>2026-05-02T09:05:46.999Z</time></trkpt><trkpt lat="44.27411261267702" lon="11.722579403541467"><ele>78.8</ele><time>2026-05-02T09:05:47.999Z</time></trkpt><trkpt lat="44.27403044828237" lon="11.72248331287218"><ele>79.4</ele><time>2026-05-02T09:05:48.999Z</time></trkpt><trkpt lat="44.27392825582778" lon="11.722431961008523"><ele>80.0</ele><time>2026-05-02T09:05:49.999Z</time></trkpt><trkpt lat="44.2738402704291" lon="11.722340589756682"><ele>77.8</ele><time>2026-05-02T09:05:51Z</time></trkpt><trkpt lat="44.27373159310206" lon="11.722262719766002"><ele>75.6</ele><time>2026-05-02T09:05:52Z</time></trkpt><trkpt lat="44.273631435831284" lon="11.7221923996413"><ele>73.4</ele><time>2026-05-02T09:05:53Z</time></trkpt><trkpt lat="44.27353434526473" lon="11.72212590373259"><ele>71.2</ele><time>2026-05-02T09:05:54Z</time></trkpt><trkpt lat="44.27344147026689" lon="11.72206129012593"><ele>69.0</ele><time>2026-05-02T09:05:55Z</time></trkpt><trkpt lat="44.27334978135443" lon="11.721997461315336"><ele>69.0</ele><time>2026-05-02T09:05:56Z</time></trkpt><trkpt lat="44.27325801900251" lon="11.721933370989202"><ele>69.0</ele><time>2026-05-02T09:05:57Z</time></trkpt><trkpt lat="44.27316763504101" lon="11.721870243383771"><ele>69.0</ele><time>2026-05-02T09:05:58Z</time></trkpt><trkpt lat="44.273078651817684" lon="11.721806790665335"><ele>69.0</ele><time>2026-05-02T09:05:59Z</time></trkpt><trkpt lat="44.272990597245396" lon="11.721742133959626"><ele>69.0</ele><time>2026-05-02T09:06:00Z</time></trkpt><trkpt lat="44.27291060342967" lon="11.721678822521499"><ele>69.5</ele><time>2026-05-02T09:06:01Z</time></trkpt><trkpt lat="44.272834353380006" lon="11.721613468773183"><ele>70.0</ele><time>2026-05-02T09:06:02Z</time></trkpt><trkpt lat="44.272765901353786" lon="11.72155073607121"><ele>70.5</ele><time>2026-05-02T09:06:03Z</time></trkpt><trkpt lat="44.27269232491115" lon="11.721479168540295"><ele>71.0</ele><time>2026-05-02T09:06:04Z</time></trkpt><trkpt lat="44.27262472578343" lon="11.721413415064054"><ele>71.5</ele><time>2026-05-02T09:06:05Z</time></trkpt><trkpt lat="44.27255491003841" lon="11.721341980139686"><ele>72.0</ele><time>2026-05-02T09:06:06Z</time></trkpt><trkpt lat="44.272488839589904" lon="11.72127543592572"><ele>72.0</ele><time>2026-05-02T09:06:07Z</time></trkpt><trkpt lat="44.272431003333345" lon="11.72121540037016"><ele>72.0</ele><time>2026-05-02T09:06:08Z</time></trkpt><trkpt lat="44.27237873596859" lon="11.721161146734449"><ele>72.0</ele><time>2026-05-02T09:06:09Z</time></trkpt><trkpt lat="44.27229726805177" lon="11.721076581193435"><ele>72.0</ele><time>2026-05-02T09:06:11Z</time></trkpt><trkpt lat="44.27214383483997" lon="11.721237213159588"><ele>72.0</ele><time>2026-05-02T09:06:13Z</time></trkpt><trkpt lat="44.272057923717114" lon="11.721380652302873"><ele>72.0</ele><time>2026-05-02T09:06:15Z</time></trkpt><trkpt lat="44.272004088543824" lon="11.721471572212486"><ele>72.0</ele><time>2026-05-02T09:06:16Z</time></trkpt><trkpt lat="44.27194613861416" lon="11.721569441513749"><ele>72.0</ele><time>2026-05-02T09:06:17Z</time></trkpt><trkpt lat="44.271890089868705" lon="11.721665566402073"><ele>72.0</ele><time>2026-05-02T09:06:18Z</time></trkpt><trkpt lat="44.27183168772461" lon="11.721768351242027"><ele>72.0</ele><time>2026-05-02T09:06:19Z</time></trkpt><trkpt lat="44.271772456657246" lon="11.721871807612143"><ele>71.6</ele><time>2026-05-02T09:06:20Z</time></trkpt><trkpt lat="44.27171698073228" lon="11.721968980566706"><ele>71.2</ele><time>2026-05-02T09:06:21Z</time></trkpt><trkpt lat="44.27166063147454" lon="11.722067695827185"><ele>70.8</ele><time>2026-05-02T09:06:22Z</time></trkpt><trkpt lat="44.27160246703996" lon="11.72216959101284"><ele>70.4</ele><time>2026-05-02T09:06:23Z</time></trkpt><trkpt lat="44.271542503869114" lon="11.722274637307757"><ele>70.0</ele><time>2026-05-02T09:06:24Z</time></trkpt><trkpt lat="44.271481759222645" lon="11.722381052629219"><ele>70.0</ele><time>2026-05-02T09:06:25Z</time></trkpt><trkpt lat="44.27142056617639" lon="11.722495291662954"><ele>70.0</ele><time>2026-05-02T09:06:26Z</time></trkpt><trkpt lat="44.27135529350305" lon="11.722617691487224"><ele>70.0</ele><time>2026-05-02T09:06:27Z</time></trkpt><trkpt lat="44.271285760334294" lon="11.722750775192077"><ele>70.0</ele><time>2026-05-02T09:06:28Z</time></trkpt><trkpt lat="44.27121531644725" lon="11.72290349171003"><ele>70.0</ele><time>2026-05-02T09:06:29Z</time></trkpt><trkpt lat="44.27114936235622" lon="11.72307828005703"><ele>70.0</ele><time>2026-05-02T09:06:30Z</time></trkpt><trkpt lat="44.271088361204" lon="11.723249862452377"><ele>70.0</ele><time>2026-05-02T09:06:31Z</time></trkpt><trkpt lat="44.27103019710412" lon="11.723416102749075"><ele>70.0</ele><time>2026-05-02T09:06:32Z</time></trkpt><trkpt lat="44.27099068201412" lon="11.723580518548776"><ele>69.5</ele><time>2026-05-02T09:06:33Z</time></trkpt><trkpt lat="44.270925035041515" lon="11.723716669147091"><ele>69.0</ele><time>2026-05-02T09:06:34Z</time></trkpt><trkpt lat="44.27087178855725" lon="11.723868854285799"><ele>68.5</ele><time>2026-05-02T09:06:35Z</time></trkpt><trkpt lat="44.27081679224409" lon="11.724026040648722"><ele>68.0</ele><time>2026-05-02T09:06:36Z</time></trkpt><trkpt lat="44.27075683029249" lon="11.724197419471787"><ele>68.0</ele><time>2026-05-02T09:06:37Z</time></trkpt><trkpt lat="44.27069043004571" lon="11.724387199705859"><ele>68.0</ele><time>2026-05-02T09:06:38Z</time></trkpt><trkpt lat="44.27061823717891" lon="11.724593536005704"><ele>68.0</ele><time>2026-05-02T09:06:39Z</time></trkpt><trkpt lat="44.27054133866286" lon="11.724816696212498"><ele>68.66666666666667</ele><time>2026-05-02T09:06:40.001Z</time></trkpt><trkpt lat="44.2704592977701" lon="11.725049371205449"><ele>69.33333333333333</ele><time>2026-05-02T09:06:41.001Z</time></trkpt><trkpt lat="44.27037557888213" lon="11.72528811961686"><ele>70.0</ele><time>2026-05-02T09:06:42.001Z</time></trkpt><trkpt lat="44.27029411678617" lon="11.72552043278066"><ele>70.0</ele><time>2026-05-02T09:06:43.001Z</time></trkpt><trkpt lat="44.27021145055412" lon="11.725756543963959"><ele>70.0</ele><time>2026-05-02T09:06:44.001Z</time></trkpt><trkpt lat="44.270142389891056" lon="11.725993590506125"><ele>70.0</ele><time>2026-05-02T09:06:45.001Z</time></trkpt><trkpt lat="44.27006050418568" lon="11.726222640201442"><ele>69.66666666666666</ele><time>2026-05-02T09:06:46.001Z</time></trkpt><trkpt lat="44.26998364365791" lon="11.726449715006279"><ele>69.33333333333333</ele><time>2026-05-02T09:06:47.001Z</time></trkpt><trkpt lat="44.26990778675731" lon="11.726672619221162"><ele>69.0</ele><time>2026-05-02T09:06:48.001Z</time></trkpt><trkpt lat="44.26981560335192" lon="11.726886632283962"><ele>68.66666666666667</ele><time>2026-05-02T09:06:49.001Z</time></trkpt><trkpt lat="44.26973820737168" lon="11.72710758695989"><ele>68.33333333333334</ele><time>2026-05-02T09:06:50.001Z</time></trkpt><trkpt lat="44.26966176113331" lon="11.72732472276054"><ele>68.0</ele><time>2026-05-02T09:06:51.001Z</time></trkpt><trkpt lat="44.269600329499326" lon="11.7275473255117"><ele>67.0</ele><time>2026-05-02T09:06:52.001Z</time></trkpt><trkpt lat="44.26952361006835" lon="11.727765271951823"><ele>66.0</ele><time>2026-05-02T09:06:53.001Z</time></trkpt><trkpt lat="44.26945016895003" lon="11.727975691828398"><ele>65.0</ele><time>2026-05-02T09:06:54.001Z</time></trkpt><trkpt lat="44.269373445347796" lon="11.7281893372675"><ele>65.0</ele><time>2026-05-02T09:06:55.001Z</time></trkpt><trkpt lat="44.26929655376068" lon="11.728396593648352"><ele>65.0</ele><time>2026-05-02T09:06:56.001Z</time></trkpt><trkpt lat="44.269221946269916" lon="11.7286048623381"><ele>65.0</ele><time>2026-05-02T09:06:57.001Z</time></trkpt><trkpt lat="44.26915442400086" lon="11.728802320442147"><ele>66.25</ele><time>2026-05-02T09:06:58.001Z</time></trkpt><trkpt lat="44.26909067363135" lon="11.728993858315883"><ele>67.5</ele><time>2026-05-02T09:06:59.001Z</time></trkpt><trkpt lat="44.26904041784144" lon="11.729182882216154"><ele>68.75</ele><time>2026-05-02T09:07:00.001Z</time></trkpt><trkpt lat="44.26900801630193" lon="11.729361470970938"><ele>70.0</ele><time>2026-05-02T09:07:01.001Z</time></trkpt><trkpt lat="44.268991692607656" lon="11.729529947937095"><ele>71.0</ele><time>2026-05-02T09:07:02.001Z</time></trkpt><trkpt lat="44.26898597436132" lon="11.729684466531689"><ele>72.0</ele><time>2026-05-02T09:07:03.001Z</time></trkpt><trkpt lat="44.26898277713233" lon="11.729828227611844"><ele>73.0</ele><time>2026-05-02T09:07:04.001Z</time></trkpt><trkpt lat="44.26898183363227" lon="11.72996018706178"><ele>74.0</ele><time>2026-05-02T09:07:05.001Z</time></trkpt><trkpt lat="44.26898067273559" lon="11.73007623861685"><ele>75.0</ele><time>2026-05-02T09:07:06.001Z</time></trkpt><trkpt lat="44.2689736922177" lon="11.730189750273103"><ele>76.0</ele><time>2026-05-02T09:07:07.001Z</time></trkpt><trkpt lat="44.26894182523308" lon="11.730295381497081"><ele>77.0</ele><time>2026-05-02T09:07:08.001Z</time></trkpt><trkpt lat="44.268882375254044" lon="11.730371383852727"><ele>78.0</ele><time>2026-05-02T09:07:09.001Z</time></trkpt><trkpt lat="44.26880212982785" lon="11.730407333732959"><ele>79.0</ele><time>2026-05-02T09:07:10.001Z</time></trkpt><trkpt lat="44.2687267553099" lon="11.730383619290956"><ele>80.0</ele><time>2026-05-02T09:07:11.001Z</time></trkpt><trkpt lat="44.268664581927794" lon="11.730305645548981"><ele>81.0</ele><time>2026-05-02T09:07:12.001Z</time></trkpt><trkpt lat="44.26864277930957" lon="11.730174650997151"><ele>81.75</ele><time>2026-05-02T09:07:13.001Z</time></trkpt><trkpt lat="44.26860771690898" lon="11.730041748073386"><ele>82.5</ele><time>2026-05-02T09:07:14.001Z</time></trkpt><trkpt lat="44.26856788238301" lon="11.729894178323372"><ele>83.25</ele><time>2026-05-02T09:07:15.001Z</time></trkpt><trkpt lat="44.268526145463596" lon="11.7297376964326"><ele>84.0</ele><time>2026-05-02T09:07:16.001Z</time></trkpt><trkpt lat="44.26848295797011" lon="11.729574905770543"><ele>84.0</ele><time>2026-05-02T09:07:16.997Z</time></trkpt><trkpt lat="44.26842623095791" lon="11.729417567147426"><ele>84.0</ele><time>2026-05-02T09:07:17.997Z</time></trkpt><trkpt lat="44.26839209167373" lon="11.729257317673003"><ele>84.0</ele><time>2026-05-02T09:07:18.997Z</time></trkpt><trkpt lat="44.26834909477771" lon="11.729113017344861"><ele>84.0</ele><time>2026-05-02T09:07:19.997Z</time></trkpt><trkpt lat="44.268283759849034" lon="11.72898888143114"><ele>83.5</ele><time>2026-05-02T09:07:20.997Z</time></trkpt><trkpt lat="44.268188349643125" lon="11.728889997957806"><ele>83.0</ele><time>2026-05-02T09:07:21.997Z</time></trkpt><trkpt lat="44.26807480192537" lon="11.728816504573103"><ele>82.5</ele><time>2026-05-02T09:07:22.997Z</time></trkpt><trkpt lat="44.26796927314436" lon="11.728726459463374"><ele>82.0</ele><time>2026-05-02T09:07:23.997Z</time></trkpt><trkpt lat="44.26786429695356" lon="11.728657786835418"><ele>84.5</ele><time>2026-05-02T09:07:24.997Z</time></trkpt><trkpt lat="44.26775266985585" lon="11.728599594063775"><ele>87.0</ele><time>2026-05-02T09:07:25.997Z</time></trkpt><trkpt lat="44.26762695190854" lon="11.728582915952972"><ele>89.5</ele><time>2026-05-02T09:07:26.997Z</time></trkpt><trkpt lat="44.26749702020298" lon="11.728623965236446"><ele>92.0</ele><time>2026-05-02T09:07:27.998Z</time></trkpt><trkpt lat="44.267364115052466" lon="11.72866816420339"><ele>93.75</ele><time>2026-05-02T09:07:28.998Z</time></trkpt><trkpt lat="44.26722683789774" lon="11.728726704965872"><ele>95.5</ele><time>2026-05-02T09:07:29.998Z</time></trkpt><trkpt lat="44.26708595188272" lon="11.728782672964336"><ele>97.25</ele><time>2026-05-02T09:07:30.998Z</time></trkpt><trkpt lat="44.266943990972734" lon="11.728821406825036"><ele>99.0</ele><time>2026-05-02T09:07:31.998Z</time></trkpt><trkpt lat="44.266812290688165" lon="11.72885888721671"><ele>99.0</ele><time>2026-05-02T09:07:32.998Z</time></trkpt><trkpt lat="44.26668253446939" lon="11.728840417921859"><ele>99.0</ele><time>2026-05-02T09:07:33.998Z</time></trkpt><trkpt lat="44.26655202956135" lon="11.728786940233974"><ele>99.0</ele><time>2026-05-02T09:07:34.998Z</time></trkpt><trkpt lat="44.26641896396918" lon="11.728725711022001"><ele>99.0</ele><time>2026-05-02T09:07:35.998Z</time></trkpt><trkpt lat="44.26628772614515" lon="11.728667225351186"><ele>100.25</ele><time>2026-05-02T09:07:36.998Z</time></trkpt><trkpt lat="44.266162239439424" lon="11.72862359341717"><ele>101.5</ele><time>2026-05-02T09:07:37.998Z</time></trkpt><trkpt lat="44.266040677703245" lon="11.728595346374316"><ele>102.75</ele><time>2026-05-02T09:07:38.998Z</time></trkpt><trkpt lat="44.26591511295347" lon="11.728584384523643"><ele>104.0</ele><time>2026-05-02T09:07:39.999Z</time></trkpt><trkpt lat="44.2657927945521" lon="11.728610051898924"><ele>104.0</ele><time>2026-05-02T09:07:40.999Z</time></trkpt><trkpt lat="44.26567653661783" lon="11.728682091449464"><ele>104.0</ele><time>2026-05-02T09:07:41.999Z</time></trkpt><trkpt lat="44.26557126312121" lon="11.728797928431339"><ele>104.0</ele><time>2026-05-02T09:07:42.999Z</time></trkpt><trkpt lat="44.26547625063216" lon="11.728940514121055"><ele>104.0</ele><time>2026-05-02T09:07:43.999Z</time></trkpt><trkpt lat="44.26540447039446" lon="11.72910635270758"><ele>104.0</ele><time>2026-05-02T09:07:44.999Z</time></trkpt><trkpt lat="44.26533510252765" lon="11.729297126691284"><ele>104.0</ele><time>2026-05-02T09:07:45.999Z</time></trkpt><trkpt lat="44.26527844797213" lon="11.729492622815286"><ele>104.0</ele><time>2026-05-02T09:07:46.999Z</time></trkpt><trkpt lat="44.265224766492466" lon="11.729687073000862"><ele>103.66666666666666</ele><time>2026-05-02T09:07:47.999Z</time></trkpt><trkpt lat="44.26517558942199" lon="11.729894012483012"><ele>103.33333333333334</ele><time>2026-05-02T09:07:48.999Z</time></trkpt><trkpt lat="44.26513860946554" lon="11.730108852022074"><ele>103.0</ele><time>2026-05-02T09:07:49.999Z</time></trkpt><trkpt lat="44.26510688557902" lon="11.730321779612993"><ele>102.66666666666667</ele><time>2026-05-02T09:07:50.999Z</time></trkpt><trkpt lat="44.26508248757764" lon="11.730539918605603"><ele>102.33333333333334</ele><time>2026-05-02T09:07:51.999Z</time></trkpt><trkpt lat="44.265074533229914" lon="11.730752034294307"><ele>102.0</ele><time>2026-05-02T09:07:52.999Z</time></trkpt><trkpt lat="44.26508305249811" lon="11.730957190467446"><ele>102.33333333333334</ele><time>2026-05-02T09:07:53.999Z</time></trkpt><trkpt lat="44.26510175675946" lon="11.731165491378228"><ele>102.66666666666667</ele><time>2026-05-02T09:07:54.999Z</time></trkpt><trkpt lat="44.26512718485968" lon="11.7313730002156"><ele>103.0</ele><time>2026-05-02T09:07:55.999Z</time></trkpt><trkpt lat="44.26515332552614" lon="11.731579423822016"><ele>103.0</ele><time>2026-05-02T09:07:56.999Z</time></trkpt><trkpt lat="44.2651774675883" lon="11.73178559673008"><ele>103.0</ele><time>2026-05-02T09:07:57.999Z</time></trkpt><trkpt lat="44.265198851377015" lon="11.731993797887156"><ele>103.0</ele><time>2026-05-02T09:07:59Z</time></trkpt><trkpt lat="44.26521776094486" lon="11.732205930412116"><ele>102.33333333333334</ele><time>2026-05-02T09:08:00Z</time></trkpt><trkpt lat="44.26523833713421" lon="11.732417609646008"><ele>101.66666666666666</ele><time>2026-05-02T09:08:01Z</time></trkpt><trkpt lat="44.265251588022906" lon="11.732631651066672"><ele>101.0</ele><time>2026-05-02T09:08:02Z</time></trkpt><trkpt lat="44.26523011070079" lon="11.732844179616983"><ele>100.33333333333333</ele><time>2026-05-02T09:08:03Z</time></trkpt><trkpt lat="44.265204934204505" lon="11.733061439289921"><ele>99.66666666666666</ele><time>2026-05-02T09:08:04Z</time></trkpt><trkpt lat="44.2651780683832" lon="11.733277858442415"><ele>99.0</ele><time>2026-05-02T09:08:05Z</time></trkpt><trkpt lat="44.26515966980304" lon="11.733494856426294"><ele>99.33333333333334</ele><time>2026-05-02T09:08:06Z</time></trkpt><trkpt lat="44.26513226902478" lon="11.733708046321256"><ele>99.66666666666667</ele><time>2026-05-02T09:08:07Z</time></trkpt><trkpt lat="44.26510779269469" lon="11.733915965472661"><ele>100.0</ele><time>2026-05-02T09:08:08Z</time></trkpt><trkpt lat="44.26508773707654" lon="11.734123187870017"><ele>100.0</ele><time>2026-05-02T09:08:09Z</time></trkpt><trkpt lat="44.26506181631992" lon="11.734328964481609"><ele>100.0</ele><time>2026-05-02T09:08:10Z</time></trkpt><trkpt lat="44.265032334864124" lon="11.734530125608947"><ele>100.0</ele><time>2026-05-02T09:08:11Z</time></trkpt><trkpt lat="44.26500936014279" lon="11.734733337433273"><ele>100.0</ele><time>2026-05-02T09:08:12Z</time></trkpt><trkpt lat="44.26498627257026" lon="11.734934528677837"><ele>99.66666666666667</ele><time>2026-05-02T09:08:13Z</time></trkpt><trkpt lat="44.26496046930622" lon="11.735142865867802"><ele>99.33333333333334</ele><time>2026-05-02T09:08:14Z</time></trkpt><trkpt lat="44.26492399493455" lon="11.735350315427528"><ele>99.0</ele><time>2026-05-02T09:08:15Z</time></trkpt><trkpt lat="44.264873920109025" lon="11.7355454724389"><ele>98.0</ele><time>2026-05-02T09:08:16Z</time></trkpt><trkpt lat="44.26480355866798" lon="11.735725832374763"><ele>97.0</ele><time>2026-05-02T09:08:17Z</time></trkpt><trkpt lat="44.26471403027836" lon="11.735899565581756"><ele>96.0</ele><time>2026-05-02T09:08:18Z</time></trkpt><trkpt lat="44.26461514619278" lon="11.736065916213603"><ele>95.33333333333333</ele><time>2026-05-02T09:08:19Z</time></trkpt><trkpt lat="44.26451167907221" lon="11.736236737073856"><ele>94.66666666666666</ele><time>2026-05-02T09:08:20Z</time></trkpt><trkpt lat="44.26440685817701" lon="11.736414282050442"><ele>94.0</ele><time>2026-05-02T09:08:21Z</time></trkpt><trkpt lat="44.26430389314058" lon="11.73660031076379"><ele>94.0</ele><time>2026-05-02T09:08:22Z</time></trkpt><trkpt lat="44.26419792990291" lon="11.736792790337795"><ele>94.0</ele><time>2026-05-02T09:08:23Z</time></trkpt><trkpt lat="44.26409045789673" lon="11.736982359482441"><ele>94.0</ele><time>2026-05-02T09:08:24Z</time></trkpt><trkpt lat="44.26398136216481" lon="11.737171782877965"><ele>94.66666666666666</ele><time>2026-05-02T09:08:25Z</time></trkpt><trkpt lat="44.2638784371736" lon="11.737352278515827"><ele>95.33333333333333</ele><time>2026-05-02T09:08:26Z</time></trkpt><trkpt lat="44.263772728888604" lon="11.737539913333439"><ele>96.0</ele><time>2026-05-02T09:08:27Z</time></trkpt><trkpt lat="44.26367543685185" lon="11.737736597513157"><ele>97.33333333333334</ele><time>2026-05-02T09:08:28Z</time></trkpt><trkpt lat="44.26358905065833" lon="11.737946975390967"><ele>98.66666666666667</ele><time>2026-05-02T09:08:29Z</time></trkpt><trkpt lat="44.26351061660855" lon="11.738162979416218"><ele>100.0</ele><time>2026-05-02T09:08:30.001Z</time></trkpt><trkpt lat="44.26343195899225" lon="11.738378640800963"><ele>100.33333333333334</ele><time>2026-05-02T09:08:31.001Z</time></trkpt><trkpt lat="44.26335068062445" lon="11.738581950520723"><ele>100.66666666666666</ele><time>2026-05-02T09:08:32.001Z</time></trkpt><trkpt lat="44.26327364220374" lon="11.738781047815554"><ele>101.0</ele><time>2026-05-02T09:08:33.001Z</time></trkpt><trkpt lat="44.26319631642004" lon="11.738980992645185"><ele>101.0</ele><time>2026-05-02T09:08:34.001Z</time></trkpt><trkpt lat="44.263116798848955" lon="11.73918198349112"><ele>101.0</ele><time>2026-05-02T09:08:35.001Z</time></trkpt><trkpt lat="44.26303747360361" lon="11.739377600969334"><ele>101.0</ele><time>2026-05-02T09:08:36.001Z</time></trkpt><trkpt lat="44.2629669738871" lon="11.739562330448855"><ele>100.25</ele><time>2026-05-02T09:08:37.001Z</time></trkpt><trkpt lat="44.26290689119818" lon="11.73974782026188"><ele>99.5</ele><time>2026-05-02T09:08:38.001Z</time></trkpt><trkpt lat="44.26286595676262" lon="11.739940453048884"><ele>98.75</ele><time>2026-05-02T09:08:39.001Z</time></trkpt><trkpt lat="44.262843059276555" lon="11.740137695831812"><ele>98.0</ele><time>2026-05-02T09:08:40.001Z</time></trkpt><trkpt lat="44.26283210056556" lon="11.740343239522238"><ele>97.66666666666666</ele><time>2026-05-02T09:08:41.001Z</time></trkpt><trkpt lat="44.26282530447445" lon="11.74055382889917"><ele>97.33333333333334</ele><time>2026-05-02T09:08:42.001Z</time></trkpt><trkpt lat="44.262814135525126" lon="11.74076923262805"><ele>97.0</ele><time>2026-05-02T09:08:43.001Z</time></trkpt><trkpt lat="44.26279462906831" lon="11.740986001911642"><ele>97.0</ele><time>2026-05-02T09:08:44.001Z</time></trkpt><trkpt lat="44.26276602924349" lon="11.741204757007036"><ele>97.0</ele><time>2026-05-02T09:08:45.001Z</time></trkpt><trkpt lat="44.262724874764764" lon="11.741426368819859"><ele>97.0</ele><time>2026-05-02T09:08:46.001Z</time></trkpt><trkpt lat="44.262670665084165" lon="11.741650289441752"><ele>97.0</ele><time>2026-05-02T09:08:47.001Z</time></trkpt><trkpt lat="44.2626039669847" lon="11.741870484981849"><ele>97.0</ele><time>2026-05-02T09:08:48.001Z</time></trkpt><trkpt lat="44.26250918738029" lon="11.74207542262677"><ele>97.0</ele><time>2026-05-02T09:08:49.001Z</time></trkpt><trkpt lat="44.262424225897774" lon="11.742291340307787"><ele>96.33333333333334</ele><time>2026-05-02T09:08:50.001Z</time></trkpt><trkpt lat="44.262352403090915" lon="11.742521429858959"><ele>95.66666666666667</ele><time>2026-05-02T09:08:51.001Z</time></trkpt><trkpt lat="44.26226043660402" lon="11.742744294798129"><ele>95.0</ele><time>2026-05-02T09:08:52.001Z</time></trkpt><trkpt lat="44.26217097642423" lon="11.74297127776738"><ele>95.0</ele><time>2026-05-02T09:08:53.001Z</time></trkpt><trkpt lat="44.262083862117066" lon="11.743201165185889"><ele>95.0</ele><time>2026-05-02T09:08:54.001Z</time></trkpt><trkpt lat="44.26198097676457" lon="11.74341779463889"><ele>95.0</ele><time>2026-05-02T09:08:55.001Z</time></trkpt><trkpt lat="44.26189488946779" lon="11.743644806024195"><ele>95.0</ele><time>2026-05-02T09:08:56.001Z</time></trkpt><trkpt lat="44.26181276625453" lon="11.743862661947468"><ele>95.0</ele><time>2026-05-02T09:08:57.001Z</time></trkpt><trkpt lat="44.261732762620454" lon="11.744076849445669"><ele>95.0</ele><time>2026-05-02T09:08:58.001Z</time></trkpt><trkpt lat="44.261656722024995" lon="11.74428042721499"><ele>95.0</ele><time>2026-05-02T09:08:59.001Z</time></trkpt><trkpt lat="44.2616002395275" lon="11.744480380905621"><ele>95.0</ele><time>2026-05-02T09:09:00.001Z</time></trkpt><trkpt lat="44.26153442590296" lon="11.74465357789238"><ele>95.0</ele><time>2026-05-02T09:09:01.001Z</time></trkpt><trkpt lat="44.261470163780515" lon="11.744820956779856"><ele>95.0</ele><time>2026-05-02T09:09:02.001Z</time></trkpt><trkpt lat="44.26141161373757" lon="11.744969177611422"><ele>95.2</ele><time>2026-05-02T09:09:03.001Z</time></trkpt><trkpt lat="44.261347660852515" lon="11.745101674730414"><ele>95.4</ele><time>2026-05-02T09:09:04.001Z</time></trkpt><trkpt lat="44.26126893788462" lon="11.745200473356919"><ele>95.6</ele><time>2026-05-02T09:09:05.001Z</time></trkpt><trkpt lat="44.261177325161036" lon="11.745266415125457"><ele>95.8</ele><time>2026-05-02T09:09:06.001Z</time></trkpt><trkpt lat="44.26107682756596" lon="11.745289419035489"><ele>96.0</ele><time>2026-05-02T09:09:07.001Z</time></trkpt><trkpt lat="44.26097304560886" lon="11.74523468996509"><ele>96.0</ele><time>2026-05-02T09:09:08.002Z</time></trkpt><trkpt lat="44.26086195953311" lon="11.745166403918269"><ele>96.0</ele><time>2026-05-02T09:09:09.002Z</time></trkpt><trkpt lat="44.26073405943273" lon="11.74509019097349"><ele>96.0</ele><time>2026-05-02T09:09:10.002Z</time></trkpt><trkpt lat="44.26059661814695" lon="11.745008292605966"><ele>96.0</ele><time>2026-05-02T09:09:11.002Z</time></trkpt><trkpt lat="44.260449390631344" lon="11.744920562748485"><ele>96.33333333333334</ele><time>2026-05-02T09:09:12.002Z</time></trkpt><trkpt lat="44.260295101723024" lon="11.744828625257323"><ele>96.66666666666667</ele><time>2026-05-02T09:09:13.002Z</time></trkpt><trkpt lat="44.26014254401655" lon="11.7447377193364"><ele>97.0</ele><time>2026-05-02T09:09:14.002Z</time></trkpt><trkpt lat="44.25999286736097" lon="11.74464924452468"><ele>97.0</ele><time>2026-05-02T09:09:15.002Z</time></trkpt><trkpt lat="44.259838919963066" lon="11.744558498072273"><ele>97.0</ele><time>2026-05-02T09:09:16.002Z</time></trkpt><trkpt lat="44.25968917094691" lon="11.744470118284081"><ele>97.0</ele><time>2026-05-02T09:09:17.002Z</time></trkpt><trkpt lat="44.25954527623292" lon="11.744385132515161"><ele>97.0</ele><time>2026-05-02T09:09:18.002Z</time></trkpt><trkpt lat="44.25941292481285" lon="11.744306490343153"><ele>97.0</ele><time>2026-05-02T09:09:19.002Z</time></trkpt><trkpt lat="44.259287535154336" lon="11.744229631911633"><ele>97.0</ele><time>2026-05-02T09:09:20.002Z</time></trkpt><trkpt lat="44.25917193129021" lon="11.744138016879374"><ele>97.0</ele><time>2026-05-02T09:09:21.002Z</time></trkpt><trkpt lat="44.259056877293126" lon="11.744049234642736"><ele>97.0</ele><time>2026-05-02T09:09:22.002Z</time></trkpt><trkpt lat="44.25896185609593" lon="11.743918419431647"><ele>97.0</ele><time>2026-05-02T09:09:22.998Z</time></trkpt><trkpt lat="44.25886829832072" lon="11.743777602136078"><ele>97.0</ele><time>2026-05-02T09:09:23.998Z</time></trkpt><trkpt lat="44.258779110060026" lon="11.743624297645326"><ele>97.0</ele><time>2026-05-02T09:09:24.998Z</time></trkpt><trkpt lat="44.25871917265908" lon="11.743445668880314"><ele>93.75</ele><time>2026-05-02T09:09:25.998Z</time></trkpt><trkpt lat="44.25863765272041" lon="11.743279962695926"><ele>90.5</ele><time>2026-05-02T09:09:26.998Z</time></trkpt><trkpt lat="44.258595843294934" lon="11.743084557124119"><ele>87.25</ele><time>2026-05-02T09:09:27.998Z</time></trkpt><trkpt lat="44.25855255367003" lon="11.742899263706809"><ele>84.0</ele><time>2026-05-02T09:09:28.998Z</time></trkpt><trkpt lat="44.25849734528108" lon="11.742725182377347"><ele>84.25</ele><time>2026-05-02T09:09:29.998Z</time></trkpt><trkpt lat="44.25846115609527" lon="11.742547918730057"><ele>84.5</ele><time>2026-05-02T09:09:30.998Z</time></trkpt><trkpt lat="44.258425279899924" lon="11.742375052643117"><ele>84.75</ele><time>2026-05-02T09:09:31.998Z</time></trkpt><trkpt lat="44.25839082344376" lon="11.742199145122642"><ele>85.0</ele><time>2026-05-02T09:09:32.998Z</time></trkpt><trkpt lat="44.25835449622059" lon="11.74202068698324"><ele>85.75</ele><time>2026-05-02T09:09:33.998Z</time></trkpt><trkpt lat="44.25832158403402" lon="11.741841138110663"><ele>86.5</ele><time>2026-05-02T09:09:34.998Z</time></trkpt><trkpt lat="44.258287066873926" lon="11.741670050326094"><ele>87.25</ele><time>2026-05-02T09:09:35.998Z</time></trkpt><trkpt lat="44.258252210163526" lon="11.74151259713777"><ele>88.0</ele><time>2026-05-02T09:09:36.998Z</time></trkpt><trkpt lat="44.25821129217423" lon="11.741381114046556"><ele>88.0</ele><time>2026-05-02T09:09:37.998Z</time></trkpt><trkpt lat="44.25815630605158" lon="11.741282298192703"><ele>88.0</ele><time>2026-05-02T09:09:38.998Z</time></trkpt><trkpt lat="44.25809258670574" lon="11.741206679317168"><ele>88.0</ele><time>2026-05-02T09:09:39.998Z</time></trkpt><trkpt lat="44.25799805290465" lon="11.741202829338016"><ele>88.0</ele><time>2026-05-02T09:09:40.999Z</time></trkpt><trkpt lat="44.25792050620672" lon="11.741237786656885"><ele>88.0</ele><time>2026-05-02T09:09:41.999Z</time></trkpt><trkpt lat="44.25787289301397" lon="11.74134672290129"><ele>88.0</ele><time>2026-05-02T09:09:42.999Z</time></trkpt><trkpt lat="44.257822816388305" lon="11.741423089400504"><ele>88.0</ele><time>2026-05-02T09:09:43.999Z</time></trkpt><trkpt lat="44.257772706740525" lon="11.741510907774265"><ele>88.0</ele><time>2026-05-02T09:09:44.999Z</time></trkpt><trkpt lat="44.25770629869606" lon="11.74159473448174"><ele>88.0</ele><time>2026-05-02T09:09:45.999Z</time></trkpt><trkpt lat="44.257657836003624" lon="11.741706530547628"><ele>88.0</ele><time>2026-05-02T09:09:46.999Z</time></trkpt><trkpt lat="44.257626573424886" lon="11.74182982078633"><ele>88.0</ele><time>2026-05-02T09:09:47.999Z</time></trkpt><trkpt lat="44.257628490682514" lon="11.7419755738002"><ele>88.0</ele><time>2026-05-02T09:09:48.999Z</time></trkpt><trkpt lat="44.25761621527569" lon="11.742116969093207"><ele>88.0</ele><time>2026-05-02T09:09:49.999Z</time></trkpt><trkpt lat="44.25759967110953" lon="11.742259952609807"><ele>88.0</ele><time>2026-05-02T09:09:50.999Z</time></trkpt><trkpt lat="44.25758338168072" lon="11.742406748263173"><ele>88.0</ele><time>2026-05-02T09:09:51.999Z</time></trkpt><trkpt lat="44.257571838602416" lon="11.742557000584688"><ele>88.0</ele><time>2026-05-02T09:09:52.999Z</time></trkpt><trkpt lat="44.25755529322603" lon="11.742711855955854"><ele>88.5</ele><time>2026-05-02T09:09:53.999Z</time></trkpt><trkpt lat="44.25754141224263" lon="11.742871369746679"><ele>89.0</ele><time>2026-05-02T09:09:54.999Z</time></trkpt><trkpt lat="44.25753250787253" lon="11.743032870900583"><ele>89.5</ele><time>2026-05-02T09:09:55.999Z</time></trkpt><trkpt lat="44.25752340588584" lon="11.743197929702427"><ele>90.0</ele><time>2026-05-02T09:09:56.999Z</time></trkpt><trkpt lat="44.25752049545031" lon="11.743364172957826"><ele>90.0</ele><time>2026-05-02T09:09:58Z</time></trkpt><trkpt lat="44.257503446753184" lon="11.743529541649586"><ele>90.0</ele><time>2026-05-02T09:09:59Z</time></trkpt><trkpt lat="44.25751207257637" lon="11.7436967673786"><ele>90.0</ele><time>2026-05-02T09:10:00Z</time></trkpt><trkpt lat="44.257501523703006" lon="11.743854213254027"><ele>90.0</ele><time>2026-05-02T09:10:01Z</time></trkpt><trkpt lat="44.25748127779997" lon="11.743988428344064"><ele>90.8</ele><time>2026-05-02T09:10:02Z</time></trkpt><trkpt lat="44.257439387284016" lon="11.744116181209877"><ele>91.6</ele><time>2026-05-02T09:10:03Z</time></trkpt><trkpt lat="44.257367832719396" lon="11.744226375409248"><ele>92.4</ele><time>2026-05-02T09:10:04Z</time></trkpt><trkpt lat="44.25728681465789" lon="11.74430052851533"><ele>93.2</ele><time>2026-05-02T09:10:05Z</time></trkpt><trkpt lat="44.25721699407454" lon="11.74433407609499"><ele>94.0</ele><time>2026-05-02T09:10:06Z</time></trkpt><trkpt lat="44.257145775812866" lon="11.744346890459221"><ele>95.0</ele><time>2026-05-02T09:10:07Z</time></trkpt><trkpt lat="44.257072029127045" lon="11.744298546806435"><ele>96.0</ele><time>2026-05-02T09:10:08Z</time></trkpt><trkpt lat="44.25699515130024" lon="11.744263477415634"><ele>97.0</ele><time>2026-05-02T09:10:09Z</time></trkpt><trkpt lat="44.25691473941701" lon="11.744198399485327"><ele>98.0</ele><time>2026-05-02T09:10:10Z</time></trkpt><trkpt lat="44.25682924303358" lon="11.744110221521167"><ele>99.0</ele><time>2026-05-02T09:10:11Z</time></trkpt><trkpt lat="44.256722265694336" lon="11.744008702700745"><ele>99.0</ele><time>2026-05-02T09:10:12Z</time></trkpt><trkpt lat="44.25661875116173" lon="11.743870663680132"><ele>99.0</ele><time>2026-05-02T09:10:13Z</time></trkpt><trkpt lat="44.25650038919674" lon="11.743715906077513"><ele>99.0</ele><time>2026-05-02T09:10:14Z</time></trkpt><trkpt lat="44.25638205737361" lon="11.74354562400495"><ele>97.66666666666667</ele><time>2026-05-02T09:10:15Z</time></trkpt><trkpt lat="44.256251533207276" lon="11.743389057495067"><ele>96.33333333333334</ele><time>2026-05-02T09:10:16Z</time></trkpt><trkpt lat="44.25612752734392" lon="11.743233345119174"><ele>95.0</ele><time>2026-05-02T09:10:17Z</time></trkpt><trkpt lat="44.25600401679624" lon="11.743079873335754"><ele>95.0</ele><time>2026-05-02T09:10:18Z</time></trkpt><trkpt lat="44.25588071821833" lon="11.742922359241797"><ele>95.0</ele><time>2026-05-02T09:10:19Z</time></trkpt><trkpt lat="44.25575791035612" lon="11.742763224176512"><ele>95.0</ele><time>2026-05-02T09:10:20Z</time></trkpt><trkpt lat="44.255635061400895" lon="11.742602314219143"><ele>94.0</ele><time>2026-05-02T09:10:21Z</time></trkpt><trkpt lat="44.25551022653161" lon="11.742439145476292"><ele>93.0</ele><time>2026-05-02T09:10:22Z</time></trkpt><trkpt lat="44.25538175414236" lon="11.742278135955015"><ele>92.0</ele><time>2026-05-02T09:10:23Z</time></trkpt><trkpt lat="44.25526640431687" lon="11.742102628600762"><ele>92.0</ele><time>2026-05-02T09:10:24.001Z</time></trkpt><trkpt lat="44.25514335729644" lon="11.741943859969325"><ele>92.0</ele><time>2026-05-02T09:10:25.001Z</time></trkpt><trkpt lat="44.25500841900777" lon="11.741798581048135"><ele>92.0</ele><time>2026-05-02T09:10:26.001Z</time></trkpt><trkpt lat="44.25488432675102" lon="11.741635841052059"><ele>93.0</ele><time>2026-05-02T09:10:27.001Z</time></trkpt><trkpt lat="44.254758427108584" lon="11.74147618344631"><ele>94.0</ele><time>2026-05-02T09:10:28.001Z</time></trkpt><trkpt lat="44.254643960822236" lon="11.741298412232561"><ele>95.0</ele><time>2026-05-02T09:10:29.001Z</time></trkpt><trkpt lat="44.25451964055087" lon="11.741137217024358"><ele>98.0</ele><time>2026-05-02T09:10:30.001Z</time></trkpt><trkpt lat="44.254395576374726" lon="11.740975996061"><ele>101.0</ele><time>2026-05-02T09:10:31.001Z</time></trkpt><trkpt lat="44.25427623435468" lon="11.740820484777341"><ele>104.0</ele><time>2026-05-02T09:10:32.001Z</time></trkpt><trkpt lat="44.254161003828045" lon="11.740670331092502"><ele>104.0</ele><time>2026-05-02T09:10:33.001Z</time></trkpt><trkpt lat="44.25404452545446" lon="11.74051916446953"><ele>104.0</ele><time>2026-05-02T09:10:34.001Z</time></trkpt><trkpt lat="44.253927840086206" lon="11.74036870047886"><ele>104.0</ele><time>2026-05-02T09:10:35.001Z</time></trkpt><trkpt lat="44.253812411218185" lon="11.740219856728915"><ele>105.66666666666666</ele><time>2026-05-02T09:10:36.001Z</time></trkpt><trkpt lat="44.253696815944245" lon="11.740070798387743"><ele>107.33333333333334</ele><time>2026-05-02T09:10:37.001Z</time></trkpt><trkpt lat="44.253582162925504" lon="11.739922954188758"><ele>109.0</ele><time>2026-05-02T09:10:38.001Z</time></trkpt><trkpt lat="44.25346778595641" lon="11.739777202326861"><ele>109.0</ele><time>2026-05-02T09:10:39.001Z</time></trkpt><trkpt lat="44.25335313261013" lon="11.739630735809826"><ele>109.0</ele><time>2026-05-02T09:10:40.001Z</time></trkpt><trkpt lat="44.25322740510003" lon="11.73950406599692"><ele>109.0</ele><time>2026-05-02T09:10:41.001Z</time></trkpt><trkpt lat="44.25311057771285" lon="11.739360894089764"><ele>110.0</ele><time>2026-05-02T09:10:42.001Z</time></trkpt><trkpt lat="44.252989824415764" lon="11.73922541261407"><ele>111.0</ele><time>2026-05-02T09:10:43.001Z</time></trkpt><trkpt lat="44.25286648779691" lon="11.739095182728954"><ele>112.0</ele><time>2026-05-02T09:10:44.001Z</time></trkpt><trkpt lat="44.25273902274996" lon="11.738969545049072"><ele>112.0</ele><time>2026-05-02T09:10:45.001Z</time></trkpt><trkpt lat="44.25261004669304" lon="11.738848739123016"><ele>112.0</ele><time>2026-05-02T09:10:46.001Z</time></trkpt><trkpt lat="44.252479020417525" lon="11.738734565978392"><ele>112.0</ele><time>2026-05-02T09:10:47.001Z</time></trkpt><trkpt lat="44.25234758181568" lon="11.738622894331893"><ele>112.66666666666667</ele><time>2026-05-02T09:10:48.001Z</time></trkpt><trkpt lat="44.25221460223289" lon="11.738513025494026"><ele>113.33333333333334</ele><time>2026-05-02T09:10:49.001Z</time></trkpt><trkpt lat="44.252079931170734" lon="11.738402369914558"><ele>114.0</ele><time>2026-05-02T09:10:50.001Z</time></trkpt><trkpt lat="44.25194339354763" lon="11.738295570598464"><ele>114.0</ele><time>2026-05-02T09:10:51.001Z</time></trkpt><trkpt lat="44.251805313909436" lon="11.738186826806247"><ele>114.0</ele><time>2026-05-02T09:10:52.001Z</time></trkpt><trkpt lat="44.251670028227615" lon="11.738075949894407"><ele>114.0</ele><time>2026-05-02T09:10:53.001Z</time></trkpt><trkpt lat="44.25153110731345" lon="11.737966058112779"><ele>115.0</ele><time>2026-05-02T09:10:54.001Z</time></trkpt><trkpt lat="44.25139022699521" lon="11.73785206870743"><ele>116.0</ele><time>2026-05-02T09:10:55.001Z</time></trkpt><trkpt lat="44.251254167173755" lon="11.737722960032642"><ele>117.0</ele><time>2026-05-02T09:10:56.002Z</time></trkpt><trkpt lat="44.251108282920725" lon="11.737607699123116"><ele>118.33333333333334</ele><time>2026-05-02T09:10:57.002Z</time></trkpt><trkpt lat="44.25096204614394" lon="11.737490746952368"><ele>119.66666666666667</ele><time>2026-05-02T09:10:58.002Z</time></trkpt><trkpt lat="44.25081398802444" lon="11.737374815647275"><ele>121.0</ele><time>2026-05-02T09:10:59.002Z</time></trkpt><trkpt lat="44.250664490326976" lon="11.73725434767861"><ele>120.0</ele><time>2026-05-02T09:11:00.002Z</time></trkpt><trkpt lat="44.25051461247913" lon="11.73713338617443"><ele>119.0</ele><time>2026-05-02T09:11:01.002Z</time></trkpt><trkpt lat="44.25036421316693" lon="11.737008925105611"><ele>118.0</ele><time>2026-05-02T09:11:02.002Z</time></trkpt><trkpt lat="44.250213833555435" lon="11.736887236739683"><ele>119.0</ele><time>2026-05-02T09:11:03.002Z</time></trkpt><trkpt lat="44.25006418122294" lon="11.736765618718703"><ele>120.0</ele><time>2026-05-02T09:11:04.002Z</time></trkpt><trkpt lat="44.24991983654354" lon="11.736644083450757"><ele>121.0</ele><time>2026-05-02T09:11:05.002Z</time></trkpt><trkpt lat="44.24977246697486" lon="11.736520972567186"><ele>117.66666666666667</ele><time>2026-05-02T09:11:06.002Z</time></trkpt><trkpt lat="44.24962884485155" lon="11.736398367961801"><ele>114.33333333333334</ele><time>2026-05-02T09:11:07.002Z</time></trkpt><trkpt lat="44.249486010552175" lon="11.736275652928876"><ele>111.0</ele><time>2026-05-02T09:11:08.002Z</time></trkpt><trkpt lat="44.24934391247213" lon="11.736152462064181"><ele>113.0</ele><time>2026-05-02T09:11:09.002Z</time></trkpt><trkpt lat="44.24920531827785" lon="11.736031040240093"><ele>115.0</ele><time>2026-05-02T09:11:10.002Z</time></trkpt><trkpt lat="44.249064580753384" lon="11.735908827493898"><ele>117.0</ele><time>2026-05-02T09:11:11.002Z</time></trkpt><trkpt lat="44.24892661757059" lon="11.735780557262965"><ele>117.0</ele><time>2026-05-02T09:11:12.002Z</time></trkpt><trkpt lat="44.24879214468536" lon="11.735656407649003"><ele>117.0</ele><time>2026-05-02T09:11:13.002Z</time></trkpt><trkpt lat="44.24865690166627" lon="11.735516265900692"><ele>117.0</ele><time>2026-05-02T09:11:14.002Z</time></trkpt><trkpt lat="44.24852944084577" lon="11.735373635481576"><ele>117.0</ele><time>2026-05-02T09:11:15.002Z</time></trkpt><trkpt lat="44.24840482419068" lon="11.735221184280336"><ele>117.0</ele><time>2026-05-02T09:11:16.002Z</time></trkpt><trkpt lat="44.248286576796914" lon="11.735068501699507"><ele>117.0</ele><time>2026-05-02T09:11:17.002Z</time></trkpt><trkpt lat="44.248168134120554" lon="11.734912320375297"><ele>116.66666666666666</ele><time>2026-05-02T09:11:18.002Z</time></trkpt><trkpt lat="44.24805369451558" lon="11.734748182942647"><ele>116.33333333333333</ele><time>2026-05-02T09:11:19.002Z</time></trkpt><trkpt lat="44.24794601653879" lon="11.734582225335657"><ele>116.0</ele><time>2026-05-02T09:11:20.002Z</time></trkpt><trkpt lat="44.24784428646079" lon="11.734416324707174"><ele>116.25</ele><time>2026-05-02T09:11:21.002Z</time></trkpt><trkpt lat="44.24774271178138" lon="11.734257353909037"><ele>116.5</ele><time>2026-05-02T09:11:22.002Z</time></trkpt><trkpt lat="44.247642849788825" lon="11.734106513085454"><ele>116.75</ele><time>2026-05-02T09:11:23.002Z</time></trkpt><trkpt lat="44.247561476344636" lon="11.733950185104627"><ele>117.0</ele><time>2026-05-02T09:11:24.002Z</time></trkpt><trkpt lat="44.247478227974824" lon="11.733816636051479"><ele>117.0</ele><time>2026-05-02T09:11:25.002Z</time></trkpt><trkpt lat="44.24740152158129" lon="11.733695225772367"><ele>117.0</ele><time>2026-05-02T09:11:26.002Z</time></trkpt><trkpt lat="44.24730276423155" lon="11.733558453466006"><ele>117.0</ele><time>2026-05-02T09:11:27.002Z</time></trkpt><trkpt lat="44.24723080599095" lon="11.733488890156469"><ele>117.0</ele><time>2026-05-02T09:11:28.002Z</time></trkpt><trkpt lat="44.247120326778436" lon="11.733438687062575"><ele>117.8</ele><time>2026-05-02T09:11:28.998Z</time></trkpt><trkpt lat="44.24700919196947" lon="11.733439638208354"><ele>118.6</ele><time>2026-05-02T09:11:29.998Z</time></trkpt><trkpt lat="44.24690095530024" lon="11.733470905666248"><ele>119.39999999999999</ele><time>2026-05-02T09:11:30.998Z</time></trkpt><trkpt lat="44.24680538868938" lon="11.733554730257884"><ele>120.19999999999999</ele><time>2026-05-02T09:11:31.998Z</time></trkpt><trkpt lat="44.24671395247811" lon="11.733645517772151"><ele>121.0</ele><time>2026-05-02T09:11:32.998Z</time></trkpt><trkpt lat="44.24662515196963" lon="11.733747186061667"><ele>118.4</ele><time>2026-05-02T09:11:33.998Z</time></trkpt><trkpt lat="44.24652462094697" lon="11.733822282001038"><ele>115.8</ele><time>2026-05-02T09:11:34.999Z</time></trkpt><trkpt lat="44.246446235585985" lon="11.733929714212962"><ele>113.20000000000002</ele><time>2026-05-02T09:11:35.999Z</time></trkpt><trkpt lat="44.246358116487436" lon="11.73400657065713"><ele>110.60000000000001</ele><time>2026-05-02T09:11:36.999Z</time></trkpt><trkpt lat="44.246276208970556" lon="11.734075838557226"><ele>108.0</ele><time>2026-05-02T09:11:37.999Z</time></trkpt><trkpt lat="44.246195146910885" lon="11.73412266131989"><ele>105.83333333333333</ele><time>2026-05-02T09:11:38.999Z</time></trkpt><trkpt lat="44.2461107888356" lon="11.734128152221368"><ele>103.66666666666667</ele><time>2026-05-02T09:11:39.999Z</time></trkpt><trkpt lat="44.24603010353773" lon="11.73408948700447"><ele>101.5</ele><time>2026-05-02T09:11:40.999Z</time></trkpt><trkpt lat="44.245965740353974" lon="11.734014989298485"><ele>99.33333333333334</ele><time>2026-05-02T09:11:41.999Z</time></trkpt><trkpt lat="44.24592261242677" lon="11.733912993598768"><ele>97.16666666666667</ele><time>2026-05-02T09:11:42.999Z</time></trkpt><trkpt lat="44.245887147799166" lon="11.733788219112482"><ele>95.0</ele><time>2026-05-02T09:11:43.999Z</time></trkpt><trkpt lat="44.24583897111927" lon="11.73365974873574"><ele>93.0</ele><time>2026-05-02T09:11:44.999Z</time></trkpt><trkpt lat="44.24578308018909" lon="11.733522192613552"><ele>91.0</ele><time>2026-05-02T09:11:45.999Z</time></trkpt><trkpt lat="44.24572098877502" lon="11.733378133964589"><ele>89.0</ele><time>2026-05-02T09:11:46.999Z</time></trkpt><trkpt lat="44.24566203779811" lon="11.733238123309429"><ele>87.0</ele><time>2026-05-02T09:11:47.999Z</time></trkpt><trkpt lat="44.2456070267209" lon="11.733094496440081"><ele>87.0</ele><time>2026-05-02T09:11:49Z</time></trkpt><trkpt lat="44.245551846302384" lon="11.732955856246598"><ele>87.0</ele><time>2026-05-02T09:11:50Z</time></trkpt><trkpt lat="44.24550234169575" lon="11.732815503871544"><ele>87.0</ele><time>2026-05-02T09:11:51Z</time></trkpt><trkpt lat="44.245456130829034" lon="11.732683262899908"><ele>87.0</ele><time>2026-05-02T09:11:52Z</time></trkpt><trkpt lat="44.24539358138159" lon="11.732585148561808"><ele>87.0</ele><time>2026-05-02T09:11:53Z</time></trkpt><trkpt lat="44.24530818976202" lon="11.732518150004042"><ele>87.0</ele><time>2026-05-02T09:11:54Z</time></trkpt><trkpt lat="44.24520874402508" lon="11.732492891798891"><ele>87.0</ele><time>2026-05-02T09:11:55Z</time></trkpt><trkpt lat="44.245102780778254" lon="11.732512123054745"><ele>87.0</ele><time>2026-05-02T09:11:56Z</time></trkpt><trkpt lat="44.24499708290736" lon="11.73257739901034"><ele>87.0</ele><time>2026-05-02T09:11:57Z</time></trkpt><trkpt lat="44.244902021366194" lon="11.732669746362866"><ele>87.0</ele><time>2026-05-02T09:11:58Z</time></trkpt><trkpt lat="44.244805850474535" lon="11.73277204332772"><ele>87.75</ele><time>2026-05-02T09:11:59Z</time></trkpt><trkpt lat="44.24470715206245" lon="11.732872603725234"><ele>88.5</ele><time>2026-05-02T09:12:00Z</time></trkpt><trkpt lat="44.24460336963635" lon="11.732966936794282"><ele>89.25</ele><time>2026-05-02T09:12:01Z</time></trkpt><trkpt lat="44.24449941145412" lon="11.733068221171829"><ele>90.0</ele><time>2026-05-02T09:12:02Z</time></trkpt><trkpt lat="44.24440332998586" lon="11.733170498442304"><ele>90.0</ele><time>2026-05-02T09:12:03Z</time></trkpt><trkpt lat="44.24430929011753" lon="11.733271195700262"><ele>90.0</ele><time>2026-05-02T09:12:04Z</time></trkpt><trkpt lat="44.244214206677135" lon="11.733374237579802"><ele>90.0</ele><time>2026-05-02T09:12:05Z</time></trkpt><trkpt lat="44.24412397613789" lon="11.733502234581778"><ele>90.0</ele><time>2026-05-02T09:12:06Z</time></trkpt><trkpt lat="44.24404976747419" lon="11.733661571027287"><ele>90.33333333333333</ele><time>2026-05-02T09:12:07Z</time></trkpt><trkpt lat="44.24398696173402" lon="11.733849487767726"><ele>90.66666666666666</ele><time>2026-05-02T09:12:08.001Z</time></trkpt><trkpt lat="44.24392963233292" lon="11.734059905180429"><ele>91.0</ele><time>2026-05-02T09:12:09.001Z</time></trkpt><trkpt lat="44.24387571118398" lon="11.734276800315467"><ele>96.33333333333333</ele><time>2026-05-02T09:12:10.001Z</time></trkpt><trkpt lat="44.24382320939237" lon="11.734483818631388"><ele>101.66666666666666</ele><time>2026-05-02T09:12:11.001Z</time></trkpt><trkpt lat="44.24377091944106" lon="11.734679133115907"><ele>107.0</ele><time>2026-05-02T09:12:12.001Z</time></trkpt><trkpt lat="44.24372547582625" lon="11.73487264701268"><ele>107.0</ele><time>2026-05-02T09:12:13.001Z</time></trkpt><trkpt lat="44.24369875411664" lon="11.73506153855054"><ele>107.0</ele><time>2026-05-02T09:12:14.001Z</time></trkpt><trkpt lat="44.243697240638376" lon="11.735257755605577"><ele>107.0</ele><time>2026-05-02T09:12:15.001Z</time></trkpt><trkpt lat="44.24372429919055" lon="11.735451035521514"><ele>107.0</ele><time>2026-05-02T09:12:16.001Z</time></trkpt><trkpt lat="44.243780857960964" lon="11.735637970886694"><ele>105.66666666666666</ele><time>2026-05-02T09:12:17.001Z</time></trkpt><trkpt lat="44.243865875947535" lon="11.735810675999629"><ele>104.33333333333334</ele><time>2026-05-02T09:12:18.001Z</time></trkpt><trkpt lat="44.24396666110244" lon="11.735974291746544"><ele>103.0</ele><time>2026-05-02T09:12:19.001Z</time></trkpt><trkpt lat="44.244068761124225" lon="11.736131203896466"><ele>105.75</ele><time>2026-05-02T09:12:20.001Z</time></trkpt><trkpt lat="44.244156513624034" lon="11.736274285319274"><ele>108.5</ele><time>2026-05-02T09:12:21.001Z</time></trkpt><trkpt lat="44.24423303492319" lon="11.73640324882025"><ele>111.25</ele><time>2026-05-02T09:12:22.001Z</time></trkpt><trkpt lat="44.24429537585539" lon="11.736527487056405"><ele>114.0</ele><time>2026-05-02T09:12:23.001Z</time></trkpt><trkpt lat="44.24433311329792" lon="11.736645961817775"><ele>114.0</ele><time>2026-05-02T09:12:24.001Z</time></trkpt><trkpt lat="44.2443440476758" lon="11.736768966110679"><ele>114.0</ele><time>2026-05-02T09:12:25.001Z</time></trkpt><trkpt lat="44.24432753476388" lon="11.736900036583744"><ele>114.0</ele><time>2026-05-02T09:12:26.001Z</time></trkpt><trkpt lat="44.24428157128605" lon="11.73703642177143"><ele>114.0</ele><time>2026-05-02T09:12:27.001Z</time></trkpt><trkpt lat="44.24422561845931" lon="11.737169052286497"><ele>114.0</ele><time>2026-05-02T09:12:28.001Z</time></trkpt><trkpt lat="44.244170111171435" lon="11.737312882028013"><ele>114.0</ele><time>2026-05-02T09:12:29.001Z</time></trkpt><trkpt lat="44.24412558811399" lon="11.7374740990051"><ele>114.0</ele><time>2026-05-02T09:12:30.001Z</time></trkpt><trkpt lat="44.24409528228351" lon="11.73765586744843"><ele>114.0</ele><time>2026-05-02T09:12:31.001Z</time></trkpt><trkpt lat="44.24407906636541" lon="11.737845293865986"><ele>114.0</ele><time>2026-05-02T09:12:32.001Z</time></trkpt><trkpt lat="44.244075948778395" lon="11.738034855289595"><ele>114.25</ele><time>2026-05-02T09:12:33.001Z</time></trkpt><trkpt lat="44.24409864401955" lon="11.738225223825312"><ele>114.5</ele><time>2026-05-02T09:12:34.001Z</time></trkpt><trkpt lat="44.244150454309285" lon="11.738399992917286"><ele>114.75</ele><time>2026-05-02T09:12:35.001Z</time></trkpt><trkpt lat="44.24423277375929" lon="11.738559603536913"><ele>115.0</ele><time>2026-05-02T09:12:36.002Z</time></trkpt><trkpt lat="44.244333077120686" lon="11.738704901373056"><ele>117.25</ele><time>2026-05-02T09:12:37.002Z</time></trkpt><trkpt lat="44.244442549323075" lon="11.738844309010414"><ele>119.5</ele><time>2026-05-02T09:12:38.002Z</time></trkpt><trkpt lat="44.24453724211439" lon="11.738979774996825"><ele>121.75</ele><time>2026-05-02T09:12:39.002Z</time></trkpt><trkpt lat="44.24461680452824" lon="11.739100633433724"><ele>124.0</ele><time>2026-05-02T09:12:40.002Z</time></trkpt><trkpt lat="44.244669269362646" lon="11.739204120646207"><ele>124.00000000000001</ele><time>2026-05-02T09:12:41.002Z</time></trkpt><trkpt lat="44.244693515747144" lon="11.739307096921483"><ele>124.0</ele><time>2026-05-02T09:12:42.002Z</time></trkpt><trkpt lat="44.24468739157731" lon="11.73940763295394"><ele>124.0</ele><time>2026-05-02T09:12:43.002Z</time></trkpt><trkpt lat="44.24465059085519" lon="11.739496804111566"><ele>124.0</ele><time>2026-05-02T09:12:44.002Z</time></trkpt><trkpt lat="44.244586306005424" lon="11.739558095253848"><ele>124.00000000000001</ele><time>2026-05-02T09:12:45.002Z</time></trkpt><trkpt lat="44.244504492608975" lon="11.73957907730216"><ele>124.0</ele><time>2026-05-02T09:12:46.002Z</time></trkpt><trkpt lat="44.2444191909876" lon="11.73955162701079"><ele>124.0</ele><time>2026-05-02T09:12:47.002Z</time></trkpt><trkpt lat="44.24433459153362" lon="11.739493131823613"><ele>124.0</ele><time>2026-05-02T09:12:48.002Z</time></trkpt><trkpt lat="44.24424509211129" lon="11.739419016849507"><ele>124.0</ele><time>2026-05-02T09:12:49.002Z</time></trkpt><trkpt lat="44.24414634247116" lon="11.739344747425971"><ele>124.0</ele><time>2026-05-02T09:12:50.002Z</time></trkpt><trkpt lat="44.244039723345594" lon="11.739266136961945"><ele>124.0</ele><time>2026-05-02T09:12:51.002Z</time></trkpt><trkpt lat="44.243932071047574" lon="11.739166499470045"><ele>129.5</ele><time>2026-05-02T09:12:52.002Z</time></trkpt><trkpt lat="44.24382386205847" lon="11.739043868317081"><ele>135.0</ele><time>2026-05-02T09:12:53.002Z</time></trkpt><trkpt lat="44.24371717720489" lon="11.738911271301577"><ele>140.5</ele><time>2026-05-02T09:12:54.002Z</time></trkpt><trkpt lat="44.243615180707984" lon="11.73877172559319"><ele>146.0</ele><time>2026-05-02T09:12:55.002Z</time></trkpt><trkpt lat="44.243516152357344" lon="11.738625953086496"><ele>143.75</ele><time>2026-05-02T09:12:56.002Z</time></trkpt><trkpt lat="44.24342075793189" lon="11.738477577148787"><ele>141.5</ele><time>2026-05-02T09:12:57.002Z</time></trkpt><trkpt lat="44.24332899519412" lon="11.738337952111081"><ele>139.25</ele><time>2026-05-02T09:12:58.002Z</time></trkpt><trkpt lat="44.24324762226656" lon="11.738200904033553"><ele>137.0</ele><time>2026-05-02T09:12:59.002Z</time></trkpt><trkpt lat="44.243179825179865" lon="11.738087132333531"><ele>139.16666666666666</ele><time>2026-05-02T09:13:00.002Z</time></trkpt><trkpt lat="44.243107635111436" lon="11.738015995558786"><ele>141.33333333333331</ele><time>2026-05-02T09:13:01.002Z</time></trkpt><trkpt lat="44.243030035782745" lon="11.737994768474652"><ele>143.5</ele><time>2026-05-02T09:13:02.002Z</time></trkpt><trkpt lat="44.242944561113234" lon="11.738024870090625"><ele>145.66666666666666</ele><time>2026-05-02T09:13:03.002Z</time></trkpt><trkpt lat="44.24288589841394" lon="11.738095357606351"><ele>147.83333333333334</ele><time>2026-05-02T09:13:04.002Z</time></trkpt><trkpt lat="44.24285881516201" lon="11.738196258678633"><ele>150.0</ele><time>2026-05-02T09:13:05.002Z</time></trkpt><trkpt lat="44.24286963781954" lon="11.738320577214473"><ele>150.0</ele><time>2026-05-02T09:13:06.002Z</time></trkpt><trkpt lat="44.24291594990673" lon="11.738450596078412"><ele>150.0</ele><time>2026-05-02T09:13:07.002Z</time></trkpt><trkpt lat="44.242994943546876" lon="11.738575034005674"><ele>150.0</ele><time>2026-05-02T09:13:08.002Z</time></trkpt><trkpt lat="44.243081322872825" lon="11.738701803212207"><ele>150.0</ele><time>2026-05-02T09:13:09.003Z</time></trkpt><trkpt lat="44.24315861041443" lon="11.738853008673567"><ele>149.0</ele><time>2026-05-02T09:13:10.003Z</time></trkpt><trkpt lat="44.24321682109728" lon="11.739023603246318"><ele>148.0</ele><time>2026-05-02T09:13:11.003Z</time></trkpt><trkpt lat="44.243259980379996" lon="11.739186895215546"><ele>147.0</ele><time>2026-05-02T09:13:12.003Z</time></trkpt><trkpt lat="44.24329146781746" lon="11.73932907612825"><ele>146.0</ele><time>2026-05-02T09:13:13.003Z</time></trkpt><trkpt lat="44.2433038327835" lon="11.7394543839299"><ele>146.33333333333331</ele><time>2026-05-02T09:13:14.003Z</time></trkpt><trkpt lat="44.243290129726546" lon="11.739571027396181"><ele>146.66666666666666</ele><time>2026-05-02T09:13:15.003Z</time></trkpt><trkpt lat="44.2432415218647" lon="11.739660704187267"><ele>147.0</ele><time>2026-05-02T09:13:16.003Z</time></trkpt><trkpt lat="44.2431632817653" lon="11.739714029375056"><ele>147.33333333333334</ele><time>2026-05-02T09:13:17.003Z</time></trkpt><trkpt lat="44.2430762142941" lon="11.739723351020784"><ele>147.66666666666669</ele><time>2026-05-02T09:13:18.003Z</time></trkpt><trkpt lat="44.24297309569298" lon="11.739693905381898"><ele>148.0</ele><time>2026-05-02T09:13:19.003Z</time></trkpt><trkpt lat="44.242860745789365" lon="11.739656384647512"><ele>148.0</ele><time>2026-05-02T09:13:20.003Z</time></trkpt><trkpt lat="44.242733603192654" lon="11.73962747345812"><ele>148.0</ele><time>2026-05-02T09:13:21.003Z</time></trkpt><trkpt lat="44.242600537772404" lon="11.739605170311336"><ele>148.0</ele><time>2026-05-02T09:13:22.003Z</time></trkpt><trkpt lat="44.242457164798886" lon="11.739588155943771"><ele>148.0</ele><time>2026-05-02T09:13:23.003Z</time></trkpt><trkpt lat="44.24231248843249" lon="11.739553030101478"><ele>150.25</ele><time>2026-05-02T09:13:24.003Z</time></trkpt><trkpt lat="44.242172809887585" lon="11.739493675943509"><ele>152.5</ele><time>2026-05-02T09:13:25.003Z</time></trkpt><trkpt lat="44.24204630156796" lon="11.739394427368508"><ele>154.75</ele><time>2026-05-02T09:13:26.003Z</time></trkpt><trkpt lat="44.241918306960436" lon="11.739285292595342"><ele>157.0</ele><time>2026-05-02T09:13:27.003Z</time></trkpt><trkpt lat="44.2418062511457" lon="11.739151141057675"><ele>160.33333333333334</ele><time>2026-05-02T09:13:28.003Z</time></trkpt><trkpt lat="44.24170308529131" lon="11.739002390182813"><ele>163.66666666666666</ele><time>2026-05-02T09:13:29.003Z</time></trkpt><trkpt lat="44.241601608607326" lon="11.738848650015822"><ele>167.0</ele><time>2026-05-02T09:13:30.003Z</time></trkpt><trkpt lat="44.24149712912712" lon="11.738693550423514"><ele>169.0</ele><time>2026-05-02T09:13:31.003Z</time></trkpt><trkpt lat="44.24138722224705" lon="11.738551397450548"><ele>171.0</ele><time>2026-05-02T09:13:32.003Z</time></trkpt><trkpt lat="44.24129761601254" lon="11.738424549030974"><ele>173.0</ele><time>2026-05-02T09:13:33.003Z</time></trkpt><trkpt lat="44.24122121845584" lon="11.738310693861287"><ele>175.0</ele><time>2026-05-02T09:13:34.003Z</time></trkpt><trkpt lat="44.24115242051046" lon="11.738216148848302"><ele>175.0</ele><time>2026-05-02T09:13:34.998Z</time></trkpt><trkpt lat="44.24108001444673" lon="11.738153583210005"><ele>175.0</ele><time>2026-05-02T09:13:35.998Z</time></trkpt><trkpt lat="44.24100392309272" lon="11.738145598301752"><ele>175.0</ele><time>2026-05-02T09:13:36.998Z</time></trkpt><trkpt lat="44.24092821095469" lon="11.738193687515569"><ele>175.0</ele><time>2026-05-02T09:13:37.998Z</time></trkpt><trkpt lat="44.24087681083123" lon="11.738292580666247"><ele>175.0</ele><time>2026-05-02T09:13:38.998Z</time></trkpt><trkpt lat="44.24086615525331" lon="11.738421808257504"><ele>175.0</ele><time>2026-05-02T09:13:39.999Z</time></trkpt><trkpt lat="44.24089699515787" lon="11.73854780151934"><ele>175.6</ele><time>2026-05-02T09:13:40.999Z</time></trkpt><trkpt lat="44.24094873159399" lon="11.738665417402842"><ele>176.2</ele><time>2026-05-02T09:13:41.999Z</time></trkpt><trkpt lat="44.24099671640285" lon="11.738783815746393"><ele>176.8</ele><time>2026-05-02T09:13:42.999Z</time></trkpt><trkpt lat="44.24101352585505" lon="11.738918627440817"><ele>177.4</ele><time>2026-05-02T09:13:43.999Z</time></trkpt><trkpt lat="44.24098969466184" lon="11.739057494246198"><ele>178.0</ele><time>2026-05-02T09:13:44.999Z</time></trkpt><trkpt lat="44.240942842551576" lon="11.739195391435413"><ele>178.0</ele><time>2026-05-02T09:13:45.999Z</time></trkpt><trkpt lat="44.240893184857924" lon="11.73932134873559"><ele>178.0</ele><time>2026-05-02T09:13:46.999Z</time></trkpt><trkpt lat="44.24083436488024" lon="11.7394169547408"><ele>178.0</ele><time>2026-05-02T09:13:47.999Z</time></trkpt><trkpt lat="44.240759521362705" lon="11.739451105969847"><ele>178.0</ele><time>2026-05-02T09:13:48.999Z</time></trkpt><trkpt lat="44.24068064396652" lon="11.73942927849066"><ele>178.0</ele><time>2026-05-02T09:13:49.999Z</time></trkpt><trkpt lat="44.24061473417757" lon="11.739358344076264"><ele>178.0</ele><time>2026-05-02T09:13:50.999Z</time></trkpt><trkpt lat="44.240573578565005" lon="11.73924636365902"><ele>180.4</ele><time>2026-05-02T09:13:51.999Z</time></trkpt><trkpt lat="44.24055448241538" lon="11.739114615672554"><ele>182.8</ele><time>2026-05-02T09:13:52.999Z</time></trkpt><trkpt lat="44.24051280338975" lon="11.738987325617755"><ele>185.2</ele><time>2026-05-02T09:13:54Z</time></trkpt><trkpt lat="44.2404359278652" lon="11.73887931706618"><ele>187.6</ele><time>2026-05-02T09:13:55Z</time></trkpt><trkpt lat="44.24033350584757" lon="11.738813682650921"><ele>190.0</ele><time>2026-05-02T09:13:56Z</time></trkpt><trkpt lat="44.24021038259117" lon="11.738784382429456"><ele>190.0</ele><time>2026-05-02T09:13:57Z</time></trkpt><trkpt lat="44.240075945894304" lon="11.738762782773707"><ele>190.0</ele><time>2026-05-02T09:13:58Z</time></trkpt><trkpt lat="44.239943529203025" lon="11.73873462528935"><ele>190.0</ele><time>2026-05-02T09:13:59Z</time></trkpt><trkpt lat="44.239834635674626" lon="11.738680657720934"><ele>190.0</ele><time>2026-05-02T09:14:00Z</time></trkpt><trkpt lat="44.23975465461613" lon="11.738587742372868"><ele>193.0</ele><time>2026-05-02T09:14:01Z</time></trkpt><trkpt lat="44.23969962007755" lon="11.738465056198798"><ele>196.0</ele><time>2026-05-02T09:14:02Z</time></trkpt><trkpt lat="44.239661681623524" lon="11.738323231378478"><ele>199.0</ele><time>2026-05-02T09:14:03Z</time></trkpt><trkpt lat="44.23960909174279" lon="11.738188439966528"><ele>202.0</ele><time>2026-05-02T09:14:04Z</time></trkpt><trkpt lat="44.23951920506572" lon="11.738077494671003"><ele>205.0</ele><time>2026-05-02T09:14:05Z</time></trkpt><trkpt lat="44.23941940375296" lon="11.737976763552835"><ele>205.0</ele><time>2026-05-02T09:14:06Z</time></trkpt><trkpt lat="44.23930056630851" lon="11.73789820769186"><ele>205.0</ele><time>2026-05-02T09:14:07Z</time></trkpt><trkpt lat="44.239184390908434" lon="11.737800260905312"><ele>205.0</ele><time>2026-05-02T09:14:08Z</time></trkpt><trkpt lat="44.23910778576642" lon="11.737713654169516"><ele>205.0</ele><time>2026-05-02T09:14:09Z</time></trkpt><trkpt lat="44.23903317281568" lon="11.737648620525826"><ele>204.49999999999997</ele><time>2026-05-02T09:14:10Z</time></trkpt><trkpt lat="44.23895835660754" lon="11.737633326858713"><ele>204.0</ele><time>2026-05-02T09:14:11Z</time></trkpt><trkpt lat="44.238884590534454" lon="11.737679846167067"><ele>203.5</ele><time>2026-05-02T09:14:12Z</time></trkpt><trkpt lat="44.23883621444933" lon="11.737772991282888"><ele>203.0</ele><time>2026-05-02T09:14:13.001Z</time></trkpt><trkpt lat="44.23882503363863" lon="11.737888120038113"><ele>202.49999999999997</ele><time>2026-05-02T09:14:14.001Z</time></trkpt><trkpt lat="44.238849255905144" lon="11.737997206272608"><ele>202.0</ele><time>2026-05-02T09:14:15.001Z</time></trkpt><trkpt lat="44.238903313140156" lon="11.738084141214912"><ele>202.6</ele><time>2026-05-02T09:14:16.001Z</time></trkpt><trkpt lat="44.23897673793176" lon="11.738144426227572"><ele>203.2</ele><time>2026-05-02T09:14:17.001Z</time></trkpt><trkpt lat="44.239050415798204" lon="11.738208755001892"><ele>203.8</ele><time>2026-05-02T09:14:18.001Z</time></trkpt><trkpt lat="44.23911047068775" lon="11.73830817955927"><ele>204.4</ele><time>2026-05-02T09:14:19.001Z</time></trkpt><trkpt lat="44.239153111405756" lon="11.738431980341614"><ele>205.0</ele><time>2026-05-02T09:14:20.001Z</time></trkpt><trkpt lat="44.23918037170578" lon="11.738574774472017"><ele>205.49999999999997</ele><time>2026-05-02T09:14:21.001Z</time></trkpt><trkpt lat="44.23920374410337" lon="11.738724261481305"><ele>206.0</ele><time>2026-05-02T09:14:22.001Z</time></trkpt><trkpt lat="44.23922869425188" lon="11.73885777537404"><ele>206.5</ele><time>2026-05-02T09:14:23.001Z</time></trkpt><trkpt lat="44.23924578711387" lon="11.73897677150688"><ele>207.0</ele><time>2026-05-02T09:14:24.001Z</time></trkpt><trkpt lat="44.23923709015526" lon="11.739087420171945"><ele>207.49999999999997</ele><time>2026-05-02T09:14:25.001Z</time></trkpt><trkpt lat="44.239194666021085" lon="11.739171817259077"><ele>208.0</ele><time>2026-05-02T09:14:26.001Z</time></trkpt><trkpt lat="44.23912657445773" lon="11.739221665584012"><ele>208.0</ele><time>2026-05-02T09:14:27.001Z</time></trkpt><trkpt lat="44.239040166216746" lon="11.739202314925407"><ele>208.0</ele><time>2026-05-02T09:14:28.001Z</time></trkpt><trkpt lat="44.23897354562074" lon="11.73910012192479"><ele>208.0</ele><time>2026-05-02T09:14:29.001Z</time></trkpt><trkpt lat="44.23893524571745" lon="11.738997616448795"><ele>208.0</ele><time>2026-05-02T09:14:30.001Z</time></trkpt><trkpt lat="44.238918137280486" lon="11.738859009154888"><ele>208.0</ele><time>2026-05-02T09:14:31.001Z</time></trkpt><trkpt lat="44.23889422775173" lon="11.738710634768204"><ele>207.25</ele><time>2026-05-02T09:14:32.001Z</time></trkpt><trkpt lat="44.23883103960364" lon="11.738567126917788"><ele>206.5</ele><time>2026-05-02T09:14:33.001Z</time></trkpt><trkpt lat="44.23873145734384" lon="11.738451408761051"><ele>205.75</ele><time>2026-05-02T09:14:34.001Z</time></trkpt><trkpt lat="44.23861059943172" lon="11.738366723261446"><ele>205.0</ele><time>2026-05-02T09:14:35.001Z</time></trkpt><trkpt lat="44.23847921512206" lon="11.738302453746812"><ele>207.25</ele><time>2026-05-02T09:14:36.001Z</time></trkpt><trkpt lat="44.23834863701779" lon="11.73824541592172"><ele>209.5</ele><time>2026-05-02T09:14:37.001Z</time></trkpt><trkpt lat="44.238217987023845" lon="11.738179138505272"><ele>211.75</ele><time>2026-05-02T09:14:38.001Z</time></trkpt><trkpt lat="44.23808975966207" lon="11.738111531213882"><ele>214.0</ele><time>2026-05-02T09:14:39.001Z</time></trkpt><trkpt lat="44.237963705897094" lon="11.738046505202366"><ele>214.25</ele><time>2026-05-02T09:14:40.002Z</time></trkpt><trkpt lat="44.237842418254566" lon="11.737971653982148"><ele>214.5</ele><time>2026-05-02T09:14:41.002Z</time></trkpt><trkpt lat="44.23773507097371" lon="11.737871643314232"><ele>214.75</ele><time>2026-05-02T09:14:42.002Z</time></trkpt><trkpt lat="44.237648007499665" lon="11.737746889572437"><ele>215.0</ele><time>2026-05-02T09:14:43.002Z</time></trkpt><trkpt lat="44.23756770170787" lon="11.737595296674662"><ele>215.75</ele><time>2026-05-02T09:14:44.002Z</time></trkpt><trkpt lat="44.23749554358815" lon="11.737443902693627"><ele>216.5</ele><time>2026-05-02T09:14:45.002Z</time></trkpt><trkpt lat="44.23743208718256" lon="11.737301780067849"><ele>217.25</ele><time>2026-05-02T09:14:46.002Z</time></trkpt><trkpt lat="44.23736376895947" lon="11.737173862708975"><ele>218.0</ele><time>2026-05-02T09:14:47.002Z</time></trkpt><trkpt lat="44.23728614422146" lon="11.73707297218704"><ele>218.8</ele><time>2026-05-02T09:14:48.002Z</time></trkpt><trkpt lat="44.2371946350826" lon="11.737015994669711"><ele>219.60000000000002</ele><time>2026-05-02T09:14:49.002Z</time></trkpt><trkpt lat="44.23709479244095" lon="11.7370045815135"><ele>220.39999999999998</ele><time>2026-05-02T09:14:50.002Z</time></trkpt><trkpt lat="44.23698621103005" lon="11.737012207178084"><ele>221.2</ele><time>2026-05-02T09:14:51.002Z</time></trkpt><trkpt lat="44.236877100732755" lon="11.737034503343008"><ele>222.0</ele><time>2026-05-02T09:14:52.002Z</time></trkpt><trkpt lat="44.236761124356626" lon="11.737059446424507"><ele>222.0</ele><time>2026-05-02T09:14:53.002Z</time></trkpt><trkpt lat="44.23664030303562" lon="11.7370741421434"><ele>222.0</ele><time>2026-05-02T09:14:54.002Z</time></trkpt><trkpt lat="44.23651399440503" lon="11.737091629555625"><ele>222.0</ele><time>2026-05-02T09:14:55.002Z</time></trkpt><trkpt lat="44.23638813477935" lon="11.737120855068227"><ele>222.0</ele><time>2026-05-02T09:14:56.002Z</time></trkpt><trkpt lat="44.23626520311911" lon="11.737158426737476"><ele>224.25</ele><time>2026-05-02T09:14:57.002Z</time></trkpt><trkpt lat="44.236141554818964" lon="11.737206576949731"><ele>226.5</ele><time>2026-05-02T09:14:58.002Z</time></trkpt><trkpt lat="44.236020588790694" lon="11.737264117247923"><ele>228.75</ele><time>2026-05-02T09:14:59.002Z</time></trkpt><trkpt lat="44.235905712334464" lon="11.737332400176701"><ele>231.0</ele><time>2026-05-02T09:15:00.002Z</time></trkpt><trkpt lat="44.235794089440574" lon="11.737405502828603"><ele>231.0</ele><time>2026-05-02T09:15:01.002Z</time></trkpt><trkpt lat="44.23568689041211" lon="11.73748269662023"><ele>231.0</ele><time>2026-05-02T09:15:02.002Z</time></trkpt><trkpt lat="44.23558440117405" lon="11.737556900832566"><ele>231.0</ele><time>2026-05-02T09:15:03.002Z</time></trkpt><trkpt lat="44.235483535994156" lon="11.737631021355302"><ele>231.0</ele><time>2026-05-02T09:15:04.002Z</time></trkpt><trkpt lat="44.23537750842312" lon="11.737703556437735"><ele>231.25</ele><time>2026-05-02T09:15:05.002Z</time></trkpt><trkpt lat="44.23527274980969" lon="11.737774362688175"><ele>231.5</ele><time>2026-05-02T09:15:06.002Z</time></trkpt><trkpt lat="44.235166775369876" lon="11.737841411585718"><ele>231.75</ele><time>2026-05-02T09:15:07.002Z</time></trkpt><trkpt lat="44.23505790387528" lon="11.737901971894313"><ele>232.0</ele><time>2026-05-02T09:15:08.002Z</time></trkpt><trkpt lat="44.234935987354866" lon="11.737942272229652"><ele>232.0</ele><time>2026-05-02T09:15:09.002Z</time></trkpt><trkpt lat="44.23480740760084" lon="11.73795499574929"><ele>232.0</ele><time>2026-05-02T09:15:10.002Z</time></trkpt><trkpt lat="44.23468067325024" lon="11.737952805599562"><ele>232.0</ele><time>2026-05-02T09:15:11.002Z</time></trkpt><trkpt lat="44.23455735768828" lon="11.737991719359107"><ele>232.0</ele><time>2026-05-02T09:15:12.002Z</time></trkpt><trkpt lat="44.23444044161129" lon="11.738071396764713"><ele>235.25</ele><time>2026-05-02T09:15:13.003Z</time></trkpt><trkpt lat="44.23432206415604" lon="11.738174576387134"><ele>238.5</ele><time>2026-05-02T09:15:14.003Z</time></trkpt><trkpt lat="44.23419627769905" lon="11.738282126341307"><ele>241.75</ele><time>2026-05-02T09:15:15.003Z</time></trkpt><trkpt lat="44.23406051701947" lon="11.738378165639428"><ele>245.0</ele><time>2026-05-02T09:15:16.003Z</time></trkpt><trkpt lat="44.23392354087347" lon="11.738463558119818"><ele>247.25</ele><time>2026-05-02T09:15:17.003Z</time></trkpt><trkpt lat="44.23378696756991" lon="11.738541587163134"><ele>249.5</ele><time>2026-05-02T09:15:18.003Z</time></trkpt><trkpt lat="44.233660900037826" lon="11.738610077472588"><ele>251.75</ele><time>2026-05-02T09:15:19.003Z</time></trkpt><trkpt lat="44.23354086802433" lon="11.738691290126013"><ele>254.0</ele><time>2026-05-02T09:15:20.003Z</time></trkpt><trkpt lat="44.23343065704899" lon="11.738797673876626"><ele>254.0</ele><time>2026-05-02T09:15:21.003Z</time></trkpt><trkpt lat="44.2333328511318" lon="11.738933076144633"><ele>254.0</ele><time>2026-05-02T09:15:22.003Z</time></trkpt><trkpt lat="44.23324858120346" lon="11.739095147768609"><ele>254.0</ele><time>2026-05-02T09:15:23.003Z</time></trkpt><trkpt lat="44.233173017177066" lon="11.739269490558453"><ele>254.0</ele><time>2026-05-02T09:15:24.003Z</time></trkpt><trkpt lat="44.233096984309675" lon="11.73944305667505"><ele>257.0</ele><time>2026-05-02T09:15:25.003Z</time></trkpt><trkpt lat="44.233019865162944" lon="11.739609860999293"><ele>260.0</ele><time>2026-05-02T09:15:26.003Z</time></trkpt><trkpt lat="44.23296793138347" lon="11.73978650743396"><ele>263.0</ele><time>2026-05-02T09:15:27.003Z</time></trkpt><trkpt lat="44.23294532906068" lon="11.739980524077996"><ele>266.0</ele><time>2026-05-02T09:15:28.003Z</time></trkpt><trkpt lat="44.232939780475164" lon="11.740177521009532"><ele>266.75</ele><time>2026-05-02T09:15:29.003Z</time></trkpt><trkpt lat="44.23294733336574" lon="11.740376424149535"><ele>267.5</ele><time>2026-05-02T09:15:30.003Z</time></trkpt><trkpt lat="44.23296698240617" lon="11.740562138542185"><ele>268.25</ele><time>2026-05-02T09:15:31.003Z</time></trkpt><trkpt lat="44.232995316419775" lon="11.740729925127537"><ele>269.0</ele><time>2026-05-02T09:15:32.003Z</time></trkpt><trkpt lat="44.23302858078066" lon="11.740888875163757"><ele>269.0</ele><time>2026-05-02T09:15:33.003Z</time></trkpt><trkpt lat="44.2330614268934" lon="11.741042248819687"><ele>269.0</ele><time>2026-05-02T09:15:34.003Z</time></trkpt><trkpt lat="44.23308307687352" lon="11.741195264234067"><ele>269.0</ele><time>2026-05-02T09:15:35.003Z</time></trkpt><trkpt lat="44.23307643392333" lon="11.741340042733109"><ele>269.0</ele><time>2026-05-02T09:15:36.003Z</time></trkpt><trkpt lat="44.23303642021281" lon="11.741474863307928"><ele>269.0</ele><time>2026-05-02T09:15:37.003Z</time></trkpt><trkpt lat="44.23295984564248" lon="11.741587875417183"><ele>269.0</ele><time>2026-05-02T09:15:38.003Z</time></trkpt><trkpt lat="44.23285232023731" lon="11.741678355717001"><ele>269.0</ele><time>2026-05-02T09:15:39.003Z</time></trkpt><trkpt lat="44.23272648771829" lon="11.741765795577876"><ele>269.0</ele><time>2026-05-02T09:15:40.003Z</time></trkpt><trkpt lat="44.232601843933196" lon="11.741858010983528"><ele>269.0</ele><time>2026-05-02T09:15:40.999Z</time></trkpt><trkpt lat="44.232486405764554" lon="11.741973282570603"><ele>268.0</ele><time>2026-05-02T09:15:41.999Z</time></trkpt><trkpt lat="44.232377753936184" lon="11.742104100825129"><ele>267.0</ele><time>2026-05-02T09:15:42.999Z</time></trkpt><trkpt lat="44.23226189515742" lon="11.742228015286788"><ele>266.0</ele><time>2026-05-02T09:15:43.999Z</time></trkpt><trkpt lat="44.23215016506316" lon="11.742352587014306"><ele>265.0</ele><time>2026-05-02T09:15:44.999Z</time></trkpt><trkpt lat="44.23204281850356" lon="11.742481084926192"><ele>265.0</ele><time>2026-05-02T09:15:46Z</time></trkpt><trkpt lat="44.2319387341935" lon="11.742615852214069"><ele>265.0</ele><time>2026-05-02T09:15:47Z</time></trkpt><trkpt lat="44.23183766958164" lon="11.74275729424153"><ele>265.0</ele><time>2026-05-02T09:15:48Z</time></trkpt><trkpt lat="44.23174042191913" lon="11.742897211884616"><ele>265.0</ele><time>2026-05-02T09:15:49Z</time></trkpt><trkpt lat="44.23165115919219" lon="11.74302637611301"><ele>263.8</ele><time>2026-05-02T09:15:50Z</time></trkpt><trkpt lat="44.23156879768423" lon="11.743154853177018"><ele>262.6</ele><time>2026-05-02T09:15:51Z</time></trkpt><trkpt lat="44.231490667556514" lon="11.74327632096191"><ele>261.4</ele><time>2026-05-02T09:15:52Z</time></trkpt><trkpt lat="44.2314219222471" lon="11.743373945700467"><ele>260.2</ele><time>2026-05-02T09:15:53Z</time></trkpt><trkpt lat="44.23135972685422" lon="11.743455639203184"><ele>259.0</ele><time>2026-05-02T09:15:54Z</time></trkpt><trkpt lat="44.23128393185243" lon="11.743506563285885"><ele>259.0</ele><time>2026-05-02T09:15:55Z</time></trkpt><trkpt lat="44.231197349642144" lon="11.743508683910143"><ele>259.0</ele><time>2026-05-02T09:15:56Z</time></trkpt><trkpt lat="44.23111139615873" lon="11.743465047657002"><ele>259.0</ele><time>2026-05-02T09:15:57Z</time></trkpt><trkpt lat="44.231025653926636" lon="11.7434034334061"><ele>259.0</ele><time>2026-05-02T09:15:58Z</time></trkpt><trkpt lat="44.23092460109359" lon="11.743346215476059"><ele>259.0</ele><time>2026-05-02T09:15:59Z</time></trkpt><trkpt lat="44.230812243953444" lon="11.74328551801097"><ele>259.0</ele><time>2026-05-02T09:16:00Z</time></trkpt><trkpt lat="44.23068800509756" lon="11.743240225043234"><ele>259.0</ele><time>2026-05-02T09:16:01Z</time></trkpt><trkpt lat="44.23055090422297" lon="11.743215353506079"><ele>259.0</ele><time>2026-05-02T09:16:02Z</time></trkpt><trkpt lat="44.23040739416994" lon="11.743219100170775"><ele>259.0</ele><time>2026-05-02T09:16:03Z</time></trkpt><trkpt lat="44.23026426801096" lon="11.743264654911457"><ele>258.0</ele><time>2026-05-02T09:16:04Z</time></trkpt><trkpt lat="44.23012707950137" lon="11.743352206655995"><ele>257.0</ele><time>2026-05-02T09:16:05Z</time></trkpt><trkpt lat="44.22999307713359" lon="11.74346591356583"><ele>256.0</ele><time>2026-05-02T09:16:06Z</time></trkpt><trkpt lat="44.22985647851987" lon="11.743582411000245"><ele>261.3333333333333</ele><time>2026-05-02T09:16:07Z</time></trkpt><trkpt lat="44.229713476881784" lon="11.743693201597486"><ele>266.6666666666667</ele><time>2026-05-02T09:16:08Z</time></trkpt><trkpt lat="44.22956566421161" lon="11.743795397999156"><ele>272.0</ele><time>2026-05-02T09:16:09Z</time></trkpt><trkpt lat="44.229413839193846" lon="11.743888978259001"><ele>272.0</ele><time>2026-05-02T09:16:10Z</time></trkpt><trkpt lat="44.22925833185758" lon="11.743977171560296"><ele>272.0</ele><time>2026-05-02T09:16:11Z</time></trkpt><trkpt lat="44.229104053389854" lon="11.744060624712114"><ele>272.0</ele><time>2026-05-02T09:16:12Z</time></trkpt><trkpt lat="44.22894878967484" lon="11.744146808587177"><ele>271.6666666666667</ele><time>2026-05-02T09:16:13Z</time></trkpt><trkpt lat="44.228795799604164" lon="11.744235769292258"><ele>271.3333333333333</ele><time>2026-05-02T09:16:14.001Z</time></trkpt><trkpt lat="44.22865226373626" lon="11.744315967266234"><ele>271.0</ele><time>2026-05-02T09:16:15.001Z</time></trkpt><trkpt lat="44.22852148003656" lon="11.74439922591674"><ele>271.0</ele><time>2026-05-02T09:16:16.001Z</time></trkpt><trkpt lat="44.22840998044578" lon="11.74449465312777"><ele>271.0</ele><time>2026-05-02T09:16:17.001Z</time></trkpt><trkpt lat="44.228309734259994" lon="11.744607886283056"><ele>271.0</ele><time>2026-05-02T09:16:18.001Z</time></trkpt><trkpt lat="44.22821340583105" lon="11.744736789414647"><ele>271.0</ele><time>2026-05-02T09:16:19.001Z</time></trkpt><trkpt lat="44.22811543472488" lon="11.744870539749902"><ele>275.5</ele><time>2026-05-02T09:16:20.001Z</time></trkpt><trkpt lat="44.22802523690861" lon="11.745013368685665"><ele>280.0</ele><time>2026-05-02T09:16:21.001Z</time></trkpt><trkpt lat="44.227952276633545" lon="11.745168391614023"><ele>284.5</ele><time>2026-05-02T09:16:22.001Z</time></trkpt><trkpt lat="44.22790607026928" lon="11.745348400890581"><ele>289.0</ele><time>2026-05-02T09:16:23.001Z</time></trkpt><trkpt lat="44.22787874552122" lon="11.745548644050853"><ele>289.0</ele><time>2026-05-02T09:16:24.001Z</time></trkpt><trkpt lat="44.22784638237641" lon="11.745756527262243"><ele>289.0</ele><time>2026-05-02T09:16:25.001Z</time></trkpt><trkpt lat="44.22780105382284" lon="11.745970783453577"><ele>289.0</ele><time>2026-05-02T09:16:26.001Z</time></trkpt><trkpt lat="44.22773840449162" lon="11.74619123363147"><ele>288.3333333333333</ele><time>2026-05-02T09:16:27.001Z</time></trkpt><trkpt lat="44.22766025172497" lon="11.746416139323538"><ele>287.6666666666667</ele><time>2026-05-02T09:16:28.001Z</time></trkpt><trkpt lat="44.227564635969166" lon="11.746632034598088"><ele>287.0</ele><time>2026-05-02T09:16:29.001Z</time></trkpt><trkpt lat="44.22746352109748" lon="11.746841865527912"><ele>285.0</ele><time>2026-05-02T09:16:30.001Z</time></trkpt><trkpt lat="44.22737228454432" lon="11.747038824509518"><ele>283.0</ele><time>2026-05-02T09:16:31.001Z</time></trkpt><trkpt lat="44.22730078707554" lon="11.747233841955659"><ele>281.0</ele><time>2026-05-02T09:16:32.001Z</time></trkpt><trkpt lat="44.22725356685566" lon="11.747433674135456"><ele>284.25</ele><time>2026-05-02T09:16:33.001Z</time></trkpt><trkpt lat="44.22723142479658" lon="11.747631575741114"><ele>287.5</ele><time>2026-05-02T09:16:34.001Z</time></trkpt><trkpt lat="44.22722227422601" lon="11.747827679999748"><ele>290.75</ele><time>2026-05-02T09:16:35.001Z</time></trkpt><trkpt lat="44.227214996825026" lon="11.7480229859034"><ele>294.0</ele><time>2026-05-02T09:16:36.001Z</time></trkpt><trkpt lat="44.227194877934295" lon="11.748222175804857"><ele>294.0</ele><time>2026-05-02T09:16:37.001Z</time></trkpt><trkpt lat="44.227158643793736" lon="11.748424978832396"><ele>294.0</ele><time>2026-05-02T09:16:38.001Z</time></trkpt><trkpt lat="44.22710713574751" lon="11.74863167923591"><ele>294.0</ele><time>2026-05-02T09:16:39.001Z</time></trkpt><trkpt lat="44.2270420675463" lon="11.748842489952443"><ele>291.6666666666667</ele><time>2026-05-02T09:16:40.001Z</time></trkpt><trkpt lat="44.22698105959232" lon="11.749061435632779"><ele>289.33333333333337</ele><time>2026-05-02T09:16:41.001Z</time></trkpt><trkpt lat="44.22692381918956" lon="11.749267559540806"><ele>287.0</ele><time>2026-05-02T09:16:42.001Z</time></trkpt><trkpt lat="44.226870881689344" lon="11.749468922800785"><ele>285.6666666666667</ele><time>2026-05-02T09:16:43.001Z</time></trkpt><trkpt lat="44.22681672070141" lon="11.749661219596323"><ele>284.3333333333333</ele><time>2026-05-02T09:16:44.002Z</time></trkpt><trkpt lat="44.226747563564324" lon="11.749848836541926"><ele>283.0</ele><time>2026-05-02T09:16:45.002Z</time></trkpt><trkpt lat="44.22666026007473" lon="11.75003033506778"><ele>283.0</ele><time>2026-05-02T09:16:46.002Z</time></trkpt><trkpt lat="44.22656453912518" lon="11.75019595633035"><ele>283.0</ele><time>2026-05-02T09:16:47.002Z</time></trkpt><trkpt lat="44.22647528058724" lon="11.75035620796964"><ele>283.0</ele><time>2026-05-02T09:16:48.002Z</time></trkpt><trkpt lat="44.2263952378381" lon="11.750514751903786"><ele>283.0</ele><time>2026-05-02T09:16:49.002Z</time></trkpt><trkpt lat="44.2263250714138" lon="11.750666308184178"><ele>285.75</ele><time>2026-05-02T09:16:50.002Z</time></trkpt><trkpt lat="44.22626850474114" lon="11.750822709387508"><ele>288.5</ele><time>2026-05-02T09:16:51.002Z</time></trkpt><trkpt lat="44.22623751698575" lon="11.750982352056"><ele>291.25</ele><time>2026-05-02T09:16:52.002Z</time></trkpt><trkpt lat="44.22622305375023" lon="11.751153097759987"><ele>294.0</ele><time>2026-05-02T09:16:53.002Z</time></trkpt><trkpt lat="44.22622943045039" lon="11.751316474376553"><ele>294.0</ele><time>2026-05-02T09:16:54.002Z</time></trkpt><trkpt lat="44.22626458025269" lon="11.7514775449281"><ele>294.0</ele><time>2026-05-02T09:16:55.002Z</time></trkpt><trkpt lat="44.22633049150785" lon="11.751629819788722"><ele>294.0</ele><time>2026-05-02T09:16:56.002Z</time></trkpt><trkpt lat="44.22641715586467" lon="11.751768602655723"><ele>294.0</ele><time>2026-05-02T09:16:57.002Z</time></trkpt><trkpt lat="44.22651556269779" lon="11.751898025303571"><ele>292.75</ele><time>2026-05-02T09:16:58.002Z</time></trkpt><trkpt lat="44.22661585006376" lon="11.7520239426962"><ele>291.5</ele><time>2026-05-02T09:16:59.002Z</time></trkpt><trkpt lat="44.22671054292445" lon="11.752145858418544"><ele>290.25</ele><time>2026-05-02T09:17:00.002Z</time></trkpt><trkpt lat="44.22681832240983" lon="11.752252471192824"><ele>289.0</ele><time>2026-05-02T09:17:01.002Z</time></trkpt><trkpt lat="44.226937997150884" lon="11.752337146586612"><ele>289.0</ele><time>2026-05-02T09:17:02.002Z</time></trkpt><trkpt lat="44.22707349440754" lon="11.752391623508688"><ele>289.0</ele><time>2026-05-02T09:17:03.002Z</time></trkpt><trkpt lat="44.22721946365833" lon="11.75242063429335"><ele>289.0</ele><time>2026-05-02T09:17:04.002Z</time></trkpt><trkpt lat="44.22736792523545" lon="11.752433757409019"><ele>289.0</ele><time>2026-05-02T09:17:05.002Z</time></trkpt><trkpt lat="44.22751148450189" lon="11.752445943173678"><ele>287.8</ele><time>2026-05-02T09:17:06.002Z</time></trkpt><trkpt lat="44.2276409772272" lon="11.75247749722657"><ele>286.59999999999997</ele><time>2026-05-02T09:17:07.002Z</time></trkpt><trkpt lat="44.22774040505678" lon="11.752520469212918"><ele>285.4</ele><time>2026-05-02T09:17:08.002Z</time></trkpt><trkpt lat="44.227827686305496" lon="11.752602117958771"><ele>284.2</ele><time>2026-05-02T09:17:09.002Z</time></trkpt><trkpt lat="44.22789051421295" lon="11.752711814868212"><ele>283.0</ele><time>2026-05-02T09:17:10.002Z</time></trkpt><trkpt lat="44.22792146813727" lon="11.752838930512816"><ele>283.0</ele><time>2026-05-02T09:17:11.002Z</time></trkpt><trkpt lat="44.22791974123992" lon="11.752971753771291"><ele>283.0</ele><time>2026-05-02T09:17:12.002Z</time></trkpt><trkpt lat="44.22788425977633" lon="11.753121504844282"><ele>283.0</ele><time>2026-05-02T09:17:13.002Z</time></trkpt><trkpt lat="44.22784038555729" lon="11.753265603937924"><ele>283.0</ele><time>2026-05-02T09:17:14.002Z</time></trkpt><trkpt lat="44.227779846848755" lon="11.753386939366571"><ele>283.0</ele><time>2026-05-02T09:17:15.002Z</time></trkpt><trkpt lat="44.22770654157593" lon="11.75350012326721"><ele>279.5</ele><time>2026-05-02T09:17:16.002Z</time></trkpt><trkpt lat="44.22763332856616" lon="11.753617187231711"><ele>276.0</ele><time>2026-05-02T09:17:17.003Z</time></trkpt><trkpt lat="44.22756174088037" lon="11.753735241495383"><ele>272.5</ele><time>2026-05-02T09:17:18.003Z</time></trkpt><trkpt lat="44.22748009455606" lon="11.753846653186674"><ele>269.0</ele><time>2026-05-02T09:17:19.003Z</time></trkpt><trkpt lat="44.227388926897845" lon="11.753947719356407"><ele>272.25</ele><time>2026-05-02T09:17:20.003Z</time></trkpt><trkpt lat="44.227294699200584" lon="11.754039907861507"><ele>275.5</ele><time>2026-05-02T09:17:21.003Z</time></trkpt><trkpt lat="44.22720285913721" lon="11.754144555689464"><ele>278.75</ele><time>2026-05-02T09:17:22.003Z</time></trkpt><trkpt lat="44.22711692778408" lon="11.754259154808258"><ele>282.0</ele><time>2026-05-02T09:17:23.003Z</time></trkpt><trkpt lat="44.227043321417646" lon="11.754395448081542"><ele>282.0</ele><time>2026-05-02T09:17:24.003Z</time></trkpt><trkpt lat="44.22696942599908" lon="11.754526675306312"><ele>282.0</ele><time>2026-05-02T09:17:25.003Z</time></trkpt><trkpt lat="44.22690513626188" lon="11.754672382383625"><ele>282.0</ele><time>2026-05-02T09:17:26.003Z</time></trkpt><trkpt lat="44.22686080379678" lon="11.75483783349289"><ele>282.0</ele><time>2026-05-02T09:17:27.003Z</time></trkpt><trkpt lat="44.2268288694817" lon="11.755007437301156"><ele>282.0</ele><time>2026-05-02T09:17:28.003Z</time></trkpt><trkpt lat="44.22680393016705" lon="11.75517846806991"><ele>282.0</ele><time>2026-05-02T09:17:29.003Z</time></trkpt><trkpt lat="44.22677518584061" lon="11.755348487602216"><ele>282.0</ele><time>2026-05-02T09:17:30.003Z</time></trkpt><trkpt lat="44.22674764584878" lon="11.75552017656995"><ele>282.0</ele><time>2026-05-02T09:17:31.003Z</time></trkpt><trkpt lat="44.226721091822675" lon="11.755698300228048"><ele>280.5</ele><time>2026-05-02T09:17:32.003Z</time></trkpt><trkpt lat="44.22669737912997" lon="11.755875948881462"><ele>279.0</ele><time>2026-05-02T09:17:33.003Z</time></trkpt><trkpt lat="44.22669152684621" lon="11.756056287457216"><ele>277.5</ele><time>2026-05-02T09:17:34.003Z</time></trkpt><trkpt lat="44.226692316435276" lon="11.756236504727546"><ele>276.0</ele><time>2026-05-02T09:17:35.003Z</time></trkpt><trkpt lat="44.22669977582292" lon="11.756418289041724"><ele>275.25</ele><time>2026-05-02T09:17:36.003Z</time></trkpt><trkpt lat="44.226706217505814" lon="11.756595489334515"><ele>274.5</ele><time>2026-05-02T09:17:37.003Z</time></trkpt><trkpt lat="44.22671168772788" lon="11.756772142743587"><ele>273.75</ele><time>2026-05-02T09:17:38.003Z</time></trkpt><trkpt lat="44.22670878748376" lon="11.756945947734037"><ele>273.0</ele><time>2026-05-02T09:17:39.003Z</time></trkpt><trkpt lat="44.226699920124176" lon="11.75712702439228"><ele>273.0</ele><time>2026-05-02T09:17:40.003Z</time></trkpt><trkpt lat="44.226682964219194" lon="11.75731464267327"><ele>273.0</ele><time>2026-05-02T09:17:41.003Z</time></trkpt><trkpt lat="44.22665671707395" lon="11.757504448881395"><ele>273.0</ele><time>2026-05-02T09:17:42.003Z</time></trkpt><trkpt lat="44.22661306800218" lon="11.757700233817426"><ele>273.0</ele><time>2026-05-02T09:17:43.003Z</time></trkpt><trkpt lat="44.2265637036894" lon="11.757889654531665"><ele>271.25</ele><time>2026-05-02T09:17:44.003Z</time></trkpt><trkpt lat="44.226514645887534" lon="11.758078243451276"><ele>269.5</ele><time>2026-05-02T09:17:45.003Z</time></trkpt><trkpt lat="44.22646627183771" lon="11.758271380067516"><ele>267.75</ele><time>2026-05-02T09:17:46.003Z</time></trkpt><trkpt lat="44.226419387802125" lon="11.758473102197902"><ele>266.0</ele><time>2026-05-02T09:17:46.999Z</time></trkpt><trkpt lat="44.2263680653755" lon="11.758674436026554"><ele>272.33333333333337</ele><time>2026-05-02T09:17:47.999Z</time></trkpt><trkpt lat="44.226305756807754" lon="11.758886482691874"><ele>278.6666666666667</ele><time>2026-05-02T09:17:48.999Z</time></trkpt><trkpt lat="44.22624676311583" lon="11.759095658604238"><ele>285.0</ele><time>2026-05-02T09:17:49.999Z</time></trkpt><trkpt lat="44.22618881264447" lon="11.75930763964762"><ele>282.0</ele><time>2026-05-02T09:17:51Z</time></trkpt><trkpt lat="44.22613350012149" lon="11.759517448186038"><ele>279.0</ele><time>2026-05-02T09:17:52Z</time></trkpt><trkpt lat="44.22607849560094" lon="11.75972756934728"><ele>276.0</ele><time>2026-05-02T09:17:53Z</time></trkpt><trkpt lat="44.226022561088556" lon="11.759935297360386"><ele>276.0</ele><time>2026-05-02T09:17:54Z</time></trkpt><trkpt lat="44.225969054390674" lon="11.76013822410072"><ele>276.0</ele><time>2026-05-02T09:17:55Z</time></trkpt><trkpt lat="44.22591754199658" lon="11.7603386874743"><ele>276.0</ele><time>2026-05-02T09:17:56Z</time></trkpt><trkpt lat="44.225864847996995" lon="11.76054057719346"><ele>273.75</ele><time>2026-05-02T09:17:57Z</time></trkpt><trkpt lat="44.22581762286697" lon="11.760724483490709"><ele>271.5</ele><time>2026-05-02T09:17:58Z</time></trkpt><trkpt lat="44.22577561085245" lon="11.760896855650818"><ele>269.25</ele><time>2026-05-02T09:17:59Z</time></trkpt><trkpt lat="44.22574519721052" lon="11.761058026952606"><ele>267.0</ele><time>2026-05-02T09:18:00Z</time></trkpt><trkpt lat="44.22574387790325" lon="11.761214363856865"><ele>266.0</ele><time>2026-05-02T09:18:01Z</time></trkpt><trkpt lat="44.22576291823826" lon="11.761359584107911"><ele>265.0</ele><time>2026-05-02T09:18:02Z</time></trkpt><trkpt lat="44.22580950423331" lon="11.761489084176102"><ele>264.0</ele><time>2026-05-02T09:18:03Z</time></trkpt><trkpt lat="44.225879134870524" lon="11.76160484084748"><ele>263.0</ele><time>2026-05-02T09:18:04Z</time></trkpt><trkpt lat="44.22596331344059" lon="11.761711512479447"><ele>262.0</ele><time>2026-05-02T09:18:05Z</time></trkpt><trkpt lat="44.226055224793846" lon="11.761805067729377"><ele>262.0</ele><time>2026-05-02T09:18:06Z</time></trkpt><trkpt lat="44.22614256915956" lon="11.761898373564701"><ele>262.0</ele><time>2026-05-02T09:18:07Z</time></trkpt><trkpt lat="44.22621755325947" lon="11.76200944622565"><ele>262.0</ele><time>2026-05-02T09:18:08Z</time></trkpt><trkpt lat="44.22626898536815" lon="11.762147459125984"><ele>262.0</ele><time>2026-05-02T09:18:09Z</time></trkpt><trkpt lat="44.22629403443437" lon="11.762309316900266"><ele>262.0</ele><time>2026-05-02T09:18:10Z</time></trkpt><trkpt lat="44.22629277928477" lon="11.76248346056121"><ele>262.0</ele><time>2026-05-02T09:18:11Z</time></trkpt><trkpt lat="44.22626730942946" lon="11.762645264113997"><ele>262.0</ele><time>2026-05-02T09:18:12Z</time></trkpt><trkpt lat="44.22623438014361" lon="11.762796128755015"><ele>262.0</ele><time>2026-05-02T09:18:13Z</time></trkpt><trkpt lat="44.226214609230595" lon="11.762945054889482"><ele>262.0</ele><time>2026-05-02T09:18:14Z</time></trkpt><trkpt lat="44.22622155968643" lon="11.763094773459466"><ele>262.0</ele><time>2026-05-02T09:18:15Z</time></trkpt><trkpt lat="44.22626041349096" lon="11.763235147461357"><ele>261.0</ele><time>2026-05-02T09:18:16Z</time></trkpt><trkpt lat="44.22633357503513" lon="11.763354190880543"><ele>260.0</ele><time>2026-05-02T09:18:17Z</time></trkpt><trkpt lat="44.22642299836274" lon="11.76344325949846"><ele>259.0</ele><time>2026-05-02T09:18:18Z</time></trkpt><trkpt lat="44.226524767652194" lon="11.763514135884312"><ele>258.0</ele><time>2026-05-02T09:18:19Z</time></trkpt><trkpt lat="44.22662685573588" lon="11.763585017547841"><ele>255.25</ele><time>2026-05-02T09:18:20.001Z</time></trkpt><trkpt lat="44.22672956413478" lon="11.763659660448134"><ele>252.5</ele><time>2026-05-02T09:18:21.001Z</time></trkpt><trkpt lat="44.22683179540897" lon="11.763732523478799"><ele>249.75</ele><time>2026-05-02T09:18:22.001Z</time></trkpt><trkpt lat="44.226937235193915" lon="11.763808682885049"><ele>247.0</ele><time>2026-05-02T09:18:23.001Z</time></trkpt><trkpt lat="44.22704254344171" lon="11.763881789665618"><ele>247.0</ele><time>2026-05-02T09:18:24.001Z</time></trkpt><trkpt lat="44.2271467856101" lon="11.763957623450748"><ele>247.0</ele><time>2026-05-02T09:18:25.001Z</time></trkpt><trkpt lat="44.22724868351063" lon="11.764030846191112"><ele>247.0</ele><time>2026-05-02T09:18:26.001Z</time></trkpt><trkpt lat="44.22734359415791" lon="11.764101205842863"><ele>247.0</ele><time>2026-05-02T09:18:27.001Z</time></trkpt><trkpt lat="44.227427420356285" lon="11.76418526777813"><ele>247.0</ele><time>2026-05-02T09:18:28.001Z</time></trkpt><trkpt lat="44.22749686966949" lon="11.764292795000767"><ele>245.75</ele><time>2026-05-02T09:18:29.001Z</time></trkpt><trkpt lat="44.22754687811756" lon="11.764435355912225"><ele>244.5</ele><time>2026-05-02T09:18:30.001Z</time></trkpt><trkpt lat="44.227575576669956" lon="11.764599427735746"><ele>243.25</ele><time>2026-05-02T09:18:31.001Z</time></trkpt><trkpt lat="44.227584956144426" lon="11.76477450829437"><ele>242.0</ele><time>2026-05-02T09:18:32.001Z</time></trkpt><trkpt lat="44.22759276905513" lon="11.764948934543328"><ele>242.0</ele><time>2026-05-02T09:18:33.001Z</time></trkpt><trkpt lat="44.22759619639989" lon="11.765119469012083"><ele>242.0</ele><time>2026-05-02T09:18:34.001Z</time></trkpt><trkpt lat="44.2275931963196" lon="11.765288203428542"><ele>242.0</ele><time>2026-05-02T09:18:35.001Z</time></trkpt><trkpt lat="44.22757173760735" lon="11.765452822108859"><ele>242.0</ele><time>2026-05-02T09:18:36.001Z</time></trkpt><trkpt lat="44.22753265860489" lon="11.765604398035348"><ele>241.0</ele><time>2026-05-02T09:18:37.001Z</time></trkpt><trkpt lat="44.22750133452366" lon="11.76575520282626"><ele>240.0</ele><time>2026-05-02T09:18:38.001Z</time></trkpt><trkpt lat="44.22749446152037" lon="11.765920427926147"><ele>239.0</ele><time>2026-05-02T09:18:39.001Z</time></trkpt><trkpt lat="44.22750795030291" lon="11.766092589814717"><ele>238.0</ele><time>2026-05-02T09:18:40.001Z</time></trkpt><trkpt lat="44.22754139892127" lon="11.766251006135624"><ele>238.0</ele><time>2026-05-02T09:18:41.001Z</time></trkpt><trkpt lat="44.22758444853082" lon="11.766403644417792"><ele>238.0</ele><time>2026-05-02T09:18:42.001Z</time></trkpt><trkpt lat="44.22762964981736" lon="11.76654652293214"><ele>238.0</ele><time>2026-05-02T09:18:43.001Z</time></trkpt><trkpt lat="44.22766145009831" lon="11.766684475301112"><ele>238.0</ele><time>2026-05-02T09:18:44.001Z</time></trkpt><trkpt lat="44.22766059602525" lon="11.76683045221345"><ele>238.0</ele><time>2026-05-02T09:18:45.001Z</time></trkpt><trkpt lat="44.227627965072514" lon="11.766975670860822"><ele>238.25</ele><time>2026-05-02T09:18:46.001Z</time></trkpt><trkpt lat="44.22757033268558" lon="11.7671237546336"><ele>238.5</ele><time>2026-05-02T09:18:47.001Z</time></trkpt><trkpt lat="44.22749513174637" lon="11.767263224931128"><ele>238.75</ele><time>2026-05-02T09:18:48.001Z</time></trkpt><trkpt lat="44.22741222823309" lon="11.767383871868168"><ele>239.0</ele><time>2026-05-02T09:18:49.001Z</time></trkpt><trkpt lat="44.227325216058965" lon="11.767499367691563"><ele>234.75</ele><time>2026-05-02T09:18:50.001Z</time></trkpt><trkpt lat="44.22723690549322" lon="11.767625229699934"><ele>230.5</ele><time>2026-05-02T09:18:51.002Z</time></trkpt><trkpt lat="44.22714701677407" lon="11.767751877994163"><ele>226.25</ele><time>2026-05-02T09:18:52.002Z</time></trkpt><trkpt lat="44.2270557380564" lon="11.76787454516297"><ele>222.0</ele><time>2026-05-02T09:18:53.002Z</time></trkpt><trkpt lat="44.22696632318999" lon="11.767994660632617"><ele>222.0</ele><time>2026-05-02T09:18:54.002Z</time></trkpt><trkpt lat="44.22688442363334" lon="11.76811257851682"><ele>222.0</ele><time>2026-05-02T09:18:55.002Z</time></trkpt><trkpt lat="44.22680831370836" lon="11.768224250950365"><ele>222.0</ele><time>2026-05-02T09:18:56.002Z</time></trkpt><trkpt lat="44.22674277858449" lon="11.768345313755892"><ele>222.0</ele><time>2026-05-02T09:18:57.002Z</time></trkpt><trkpt lat="44.226712959112746" lon="11.768502083938676"><ele>221.39999999999998</ele><time>2026-05-02T09:18:58.002Z</time></trkpt><trkpt lat="44.2267196004533" lon="11.768670986491255"><ele>220.79999999999998</ele><time>2026-05-02T09:18:59.002Z</time></trkpt><trkpt lat="44.226749071353325" lon="11.768833856593439"><ele>220.2</ele><time>2026-05-02T09:19:00.002Z</time></trkpt><trkpt lat="44.22677125264704" lon="11.768992870002222"><ele>219.6</ele><time>2026-05-02T09:19:01.002Z</time></trkpt><trkpt lat="44.22670429953351" lon="11.76906046529079"><ele>219.0</ele><time>2026-05-02T09:19:02.002Z</time></trkpt><trkpt lat="44.22665934901639" lon="11.769182131453778"><ele>219.0</ele><time>2026-05-02T09:19:03.002Z</time></trkpt><trkpt lat="44.22658033794161" lon="11.769281805724757"><ele>218.99999999999997</ele><time>2026-05-02T09:19:04.002Z</time></trkpt><trkpt lat="44.226484450929156" lon="11.769353052918847"><ele>218.99999999999997</ele><time>2026-05-02T09:19:05.002Z</time></trkpt><trkpt lat="44.22638998276474" lon="11.769386527131818"><ele>219.0</ele><time>2026-05-02T09:19:06.002Z</time></trkpt><trkpt lat="44.22629333028127" lon="11.769377817029987"><ele>219.0</ele><time>2026-05-02T09:19:07.002Z</time></trkpt><trkpt lat="44.22620809447152" lon="11.769346196315285"><ele>217.5</ele><time>2026-05-02T09:19:08.002Z</time></trkpt><trkpt lat="44.226148600649076" lon="11.769266789602085"><ele>216.0</ele><time>2026-05-02T09:19:09.002Z</time></trkpt><trkpt lat="44.226118097098954" lon="11.769159184874479"><ele>214.5</ele><time>2026-05-02T09:19:10.002Z</time></trkpt><trkpt lat="44.22612142962667" lon="11.769044213235055"><ele>213.0</ele><time>2026-05-02T09:19:11.002Z</time></trkpt><trkpt lat="44.22616237145628" lon="11.768949320393636"><ele>211.5</ele><time>2026-05-02T09:19:12.002Z</time></trkpt><trkpt lat="44.22623938344497" lon="11.768884343850269"><ele>210.0</ele><time>2026-05-02T09:19:13.002Z</time></trkpt><trkpt lat="44.22632139939574" lon="11.768875190966865"><ele>210.0</ele><time>2026-05-02T09:19:14.002Z</time></trkpt><trkpt lat="44.22640985684897" lon="11.768879382143949"><ele>210.0</ele><time>2026-05-02T09:19:15.002Z</time></trkpt><trkpt lat="44.22648195061614" lon="11.76882779851159"><ele>210.0</ele><time>2026-05-02T09:19:16.002Z</time></trkpt><trkpt lat="44.226532750770836" lon="11.768740092263137"><ele>210.0</ele><time>2026-05-02T09:19:17.002Z</time></trkpt><trkpt lat="44.226542308871565" lon="11.768627356642915"><ele>210.0</ele><time>2026-05-02T09:19:18.002Z</time></trkpt><trkpt lat="44.22650876807127" lon="11.768520819470664"><ele>210.0</ele><time>2026-05-02T09:19:19.002Z</time></trkpt><trkpt lat="44.22644473958346" lon="11.768443345815498"><ele>210.0</ele><time>2026-05-02T09:19:20.002Z</time></trkpt><trkpt lat="44.226356403195155" lon="11.768412570433279"><ele>210.0</ele><time>2026-05-02T09:19:21.002Z</time></trkpt><trkpt lat="44.22626066584475" lon="11.768426476196833"><ele>210.0</ele><time>2026-05-02T09:19:22.002Z</time></trkpt><trkpt lat="44.22616001054186" lon="11.768471176849163"><ele>210.0</ele><time>2026-05-02T09:19:23.002Z</time></trkpt><trkpt lat="44.226051385665976" lon="11.768517490026628"><ele>210.0</ele><time>2026-05-02T09:19:24.003Z</time></trkpt><trkpt lat="44.22592368884679" lon="11.768585590973418"><ele>210.0</ele><time>2026-05-02T09:19:25.003Z</time></trkpt><trkpt lat="44.225815962754396" lon="11.768635244904859"><ele>210.0</ele><time>2026-05-02T09:19:26.003Z</time></trkpt><trkpt lat="44.22571583107547" lon="11.768711143884836"><ele>210.0</ele><time>2026-05-02T09:19:27.003Z</time></trkpt><trkpt lat="44.22563151953783" lon="11.768811617767918"><ele>210.0</ele><time>2026-05-02T09:19:28.003Z</time></trkpt><trkpt lat="44.22555258899782" lon="11.76891180058191"><ele>210.0</ele><time>2026-05-02T09:19:29.003Z</time></trkpt><trkpt lat="44.22548191073506" lon="11.76899375704257"><ele>207.16666666666666</ele><time>2026-05-02T09:19:30.003Z</time></trkpt><trkpt lat="44.22541158380619" lon="11.7690645787303"><ele>204.33333333333331</ele><time>2026-05-02T09:19:31.003Z</time></trkpt><trkpt lat="44.225350242126204" lon="11.769120075371"><ele>201.5</ele><time>2026-05-02T09:19:32.003Z</time></trkpt><trkpt lat="44.2252237585208" lon="11.769099202652859"><ele>198.66666666666666</ele><time>2026-05-02T09:19:34.003Z</time></trkpt><trkpt lat="44.22517227851548" lon="11.769018576444115"><ele>195.83333333333331</ele><time>2026-05-02T09:19:35.003Z</time></trkpt><trkpt lat="44.225148751647595" lon="11.76890804841304"><ele>193.0</ele><time>2026-05-02T09:19:36.003Z</time></trkpt><trkpt lat="44.22514662137488" lon="11.768785897105271"><ele>192.99999999999997</ele><time>2026-05-02T09:19:37.003Z</time></trkpt><trkpt lat="44.22514144671562" lon="11.7686724218143"><ele>193.0</ele><time>2026-05-02T09:19:38.003Z</time></trkpt><trkpt lat="44.22511444092794" lon="11.76857206624819"><ele>193.0</ele><time>2026-05-02T09:19:39.003Z</time></trkpt><trkpt lat="44.22506597213127" lon="11.76849489932364"><ele>193.0</ele><time>2026-05-02T09:19:40.003Z</time></trkpt><trkpt lat="44.22499744004637" lon="11.768458165286694"><ele>192.99999999999997</ele><time>2026-05-02T09:19:41.003Z</time></trkpt><trkpt lat="44.224920489357174" lon="11.768473631329103"><ele>193.0</ele><time>2026-05-02T09:19:42.003Z</time></trkpt><trkpt lat="44.224857756687875" lon="11.768545414623558"><ele>187.49999999999997</ele><time>2026-05-02T09:19:43.003Z</time></trkpt><trkpt lat="44.22480993384041" lon="11.768640034596665"><ele>182.0</ele><time>2026-05-02T09:19:44.003Z</time></trkpt><trkpt lat="44.22475661611013" lon="11.76871879944973"><ele>176.5</ele><time>2026-05-02T09:19:45.003Z</time></trkpt><trkpt lat="44.224696180919224" lon="11.768805388785744"><ele>171.0</ele><time>2026-05-02T09:19:46.003Z</time></trkpt><trkpt lat="44.22463661680842" lon="11.768876275367667"><ele>165.5</ele><time>2026-05-02T09:19:47.003Z</time></trkpt><trkpt lat="44.22459638570403" lon="11.768952149950177"><ele>160.0</ele><time>2026-05-02T09:19:48.003Z</time></trkpt><trkpt lat="44.224576735168654" lon="11.769058967645257"><ele>160.0</ele><time>2026-05-02T09:19:49.003Z</time></trkpt><trkpt lat="44.22458923470612" lon="11.76917069228055"><ele>160.0</ele><time>2026-05-02T09:19:50.003Z</time></trkpt><trkpt lat="44.22460413509052" lon="11.76929521074874"><ele>160.0</ele><time>2026-05-02T09:19:51.003Z</time></trkpt><trkpt lat="44.22460992343408" lon="11.769421670345583"><ele>160.0</ele><time>2026-05-02T09:19:52.003Z</time></trkpt><trkpt lat="44.22460648993033" lon="11.769550806779248"><ele>160.0</ele><time>2026-05-02T09:19:52.999Z</time></trkpt><trkpt lat="44.22460954212378" lon="11.769668507396194"><ele>160.0</ele><time>2026-05-02T09:19:53.999Z</time></trkpt><trkpt lat="44.22461118258084" lon="11.769783906371186"><ele>159.4</ele><time>2026-05-02T09:19:54.999Z</time></trkpt><trkpt lat="44.22463017022147" lon="11.769887962648479"><ele>158.8</ele><time>2026-05-02T09:19:55.999Z</time></trkpt><trkpt lat="44.22467022886591" lon="11.770043777252585"><ele>158.2</ele><time>2026-05-02T09:19:57.999Z</time></trkpt><trkpt lat="44.22463110862383" lon="11.770147430432075"><ele>157.6</ele><time>2026-05-02T09:19:59.999Z</time></trkpt><trkpt lat="44.224519320444486" lon="11.770075653370203"><ele>157.0</ele><time>2026-05-02T09:20:01.999Z</time></trkpt><trkpt lat="44.22449744052915" lon="11.769983904228612"><ele>157.0</ele><time>2026-05-02T09:20:03Z</time></trkpt><trkpt lat="44.22448827993019" lon="11.769871946412357"><ele>157.0</ele><time>2026-05-02T09:20:04Z</time></trkpt><trkpt lat="44.224474822737825" lon="11.769762971750971"><ele>157.0</ele><time>2026-05-02T09:20:05Z</time></trkpt><trkpt lat="44.224465384161036" lon="11.769650836917194"><ele>157.0</ele><time>2026-05-02T09:20:06Z</time></trkpt><trkpt lat="44.22445305959337" lon="11.769543775165582"><ele>157.0</ele><time>2026-05-02T09:20:07Z</time></trkpt><trkpt lat="44.22444143678495" lon="11.769431517138358"><ele>157.0</ele><time>2026-05-02T09:20:08Z</time></trkpt><trkpt lat="44.22442973678528" lon="11.769314473496086"><ele>157.42857142857142</ele><time>2026-05-02T09:20:09Z</time></trkpt><trkpt lat="44.22442997005304" lon="11.76921497724063"><ele>157.85714285714286</ele><time>2026-05-02T09:20:10Z</time></trkpt><trkpt lat="44.224418233645075" lon="11.769111872157044"><ele>158.28571428571428</ele><time>2026-05-02T09:20:11Z</time></trkpt><trkpt lat="44.224395350658625" lon="11.76901752899502"><ele>158.71428571428572</ele><time>2026-05-02T09:20:12Z</time></trkpt><trkpt lat="44.22436149069815" lon="11.768926386957892"><ele>159.14285714285714</ele><time>2026-05-02T09:20:13Z</time></trkpt><trkpt lat="44.22431888019456" lon="11.768850775988266"><ele>159.57142857142856</ele><time>2026-05-02T09:20:14Z</time></trkpt><trkpt lat="44.224281826675075" lon="11.768766040954956"><ele>160.0</ele><time>2026-05-02T09:20:15Z</time></trkpt><trkpt lat="44.224248760348374" lon="11.768680531388595"><ele>160.0</ele><time>2026-05-02T09:20:16Z</time></trkpt><trkpt lat="44.224216944503496" lon="11.768591186335062"><ele>160.0</ele><time>2026-05-02T09:20:17Z</time></trkpt><trkpt lat="44.22418772180544" lon="11.768497735102287"><ele>160.0</ele><time>2026-05-02T09:20:18Z</time></trkpt><trkpt lat="44.224155990749836" lon="11.768402758753975"><ele>160.0</ele><time>2026-05-02T09:20:19Z</time></trkpt><trkpt lat="44.224124148130805" lon="11.768306404759162"><ele>160.0</ele><time>2026-05-02T09:20:20Z</time></trkpt><trkpt lat="44.224079711396115" lon="11.768215307000581"><ele>160.0</ele><time>2026-05-02T09:20:21Z</time></trkpt><trkpt lat="44.22402885466781" lon="11.768125158328122"><ele>156.2</ele><time>2026-05-02T09:20:22Z</time></trkpt><trkpt lat="44.22396380804912" lon="11.768041918427333"><ele>152.4</ele><time>2026-05-02T09:20:23Z</time></trkpt><trkpt lat="44.22388840006523" lon="11.76796594571212"><ele>148.6</ele><time>2026-05-02T09:20:24Z</time></trkpt><trkpt lat="44.223811616139514" lon="11.767893873557021"><ele>144.8</ele><time>2026-05-02T09:20:25Z</time></trkpt><trkpt lat="44.2237366711277" lon="11.767821893429932"><ele>141.0</ele><time>2026-05-02T09:20:26.001Z</time></trkpt><trkpt lat="44.22366742348077" lon="11.76774989026766"><ele>143.66666666666666</ele><time>2026-05-02T09:20:27.001Z</time></trkpt><trkpt lat="44.22359667131703" lon="11.76767747316798"><ele>146.33333333333334</ele><time>2026-05-02T09:20:28.001Z</time></trkpt><trkpt lat="44.223524005077785" lon="11.76760074701456"><ele>149.0</ele><time>2026-05-02T09:20:29.001Z</time></trkpt><trkpt lat="44.22345565998718" lon="11.767530015349779"><ele>151.66666666666669</ele><time>2026-05-02T09:20:30.001Z</time></trkpt><trkpt lat="44.22338554059835" lon="11.7674584417636"><ele>154.33333333333334</ele><time>2026-05-02T09:20:31.001Z</time></trkpt><trkpt lat="44.223312807174445" lon="11.767389447108695"><ele>157.0</ele><time>2026-05-02T09:20:32.001Z</time></trkpt><trkpt lat="44.2232507545245" lon="11.76730811712534"><ele>157.0</ele><time>2026-05-02T09:20:33.001Z</time></trkpt><trkpt lat="44.223201298293276" lon="11.767231029641318"><ele>157.0</ele><time>2026-05-02T09:20:34.001Z</time></trkpt><trkpt lat="44.22315045232793" lon="11.767164781233548"><ele>157.0</ele><time>2026-05-02T09:20:35.001Z</time></trkpt><trkpt lat="44.223054253504515" lon="11.767091743577117"><ele>157.0</ele><time>2026-05-02T09:20:37.001Z</time></trkpt><trkpt lat="44.222969493537065" lon="11.767154642403352"><ele>157.0</ele><time>2026-05-02T09:20:39.001Z</time></trkpt><trkpt lat="44.22300154402152" lon="11.767334932561212"><ele>157.0</ele><time>2026-05-02T09:20:41.001Z</time></trkpt><trkpt lat="44.22308923483064" lon="11.76745287327775"><ele>157.0</ele><time>2026-05-02T09:20:43.001Z</time></trkpt><trkpt lat="44.22315097304459" lon="11.767500026028182"><ele>157.0</ele><time>2026-05-02T09:20:44.001Z</time></trkpt><trkpt lat="44.223204572819846" lon="11.767552886329264"><ele>157.0</ele><time>2026-05-02T09:20:45.001Z</time></trkpt><trkpt lat="44.22325750250262" lon="11.767614690128816"><ele>157.0</ele><time>2026-05-02T09:20:46.001Z</time></trkpt><trkpt lat="44.223319471311285" lon="11.767669536281408"><ele>157.0</ele><time>2026-05-02T09:20:47.001Z</time></trkpt><trkpt lat="44.22337850364781" lon="11.76772629301056"><ele>154.33333333333334</ele><time>2026-05-02T09:20:48.001Z</time></trkpt><trkpt lat="44.223434202173735" lon="11.767792190259124"><ele>151.66666666666669</ele><time>2026-05-02T09:20:49.001Z</time></trkpt><trkpt lat="44.22349378590018" lon="11.767864720431637"><ele>149.0</ele><time>2026-05-02T09:20:50.001Z</time></trkpt><trkpt lat="44.22354618577365" lon="11.767945506830541"><ele>146.33333333333334</ele><time>2026-05-02T09:20:51.001Z</time></trkpt><trkpt lat="44.22358571836354" lon="11.768043980989871"><ele>143.66666666666666</ele><time>2026-05-02T09:20:52.001Z</time></trkpt><trkpt lat="44.22361691877254" lon="11.768144942711418"><ele>141.0</ele><time>2026-05-02T09:20:53.001Z</time></trkpt><trkpt lat="44.2236379084536" lon="11.768256282325098"><ele>141.0</ele><time>2026-05-02T09:20:54.001Z</time></trkpt><trkpt lat="44.22364714361062" lon="11.768371199962123"><ele>141.0</ele><time>2026-05-02T09:20:55.002Z</time></trkpt><trkpt lat="44.22366619630165" lon="11.76848002625573"><ele>141.0</ele><time>2026-05-02T09:20:56.002Z</time></trkpt><trkpt lat="44.22368630796809" lon="11.768591562127154"><ele>141.0</ele><time>2026-05-02T09:20:57.002Z</time></trkpt><trkpt lat="44.22371045194917" lon="11.768700044268522"><ele>141.0</ele><time>2026-05-02T09:20:58.002Z</time></trkpt><trkpt lat="44.22372004423385" lon="11.768815385120407"><ele>141.0</ele><time>2026-05-02T09:20:59.002Z</time></trkpt><trkpt lat="44.223718286859786" lon="11.768932157797463"><ele>139.0</ele><time>2026-05-02T09:21:00.002Z</time></trkpt><trkpt lat="44.22370997360201" lon="11.769045977065616"><ele>137.0</ele><time>2026-05-02T09:21:01.002Z</time></trkpt><trkpt lat="44.22370315736268" lon="11.769151911291308"><ele>135.0</ele><time>2026-05-02T09:21:02.002Z</time></trkpt><trkpt lat="44.223698379955025" lon="11.7692488348325"><ele>133.0</ele><time>2026-05-02T09:21:03.002Z</time></trkpt><trkpt lat="44.22369384283972" lon="11.76933800653629"><ele>131.0</ele><time>2026-05-02T09:21:04.002Z</time></trkpt><trkpt lat="44.22368516805089" lon="11.769493754082657"><ele>129.0</ele><time>2026-05-02T09:21:06.002Z</time></trkpt><trkpt lat="44.22365010447298" lon="11.76958701636876"><ele>129.0</ele><time>2026-05-02T09:21:08.002Z</time></trkpt><trkpt lat="44.22358460499733" lon="11.769577922468264"><ele>129.0</ele><time>2026-05-02T09:21:09.002Z</time></trkpt><trkpt lat="44.223501060933906" lon="11.76944156030952"><ele>129.0</ele><time>2026-05-02T09:21:11.002Z</time></trkpt><trkpt lat="44.22347763901441" lon="11.76935896737018"><ele>129.0</ele><time>2026-05-02T09:21:12.002Z</time></trkpt><trkpt lat="44.223451274892646" lon="11.76926822179748"><ele>129.0</ele><time>2026-05-02T09:21:13.002Z</time></trkpt><trkpt lat="44.223418729986264" lon="11.769184945957736"><ele>129.0</ele><time>2026-05-02T09:21:14.002Z</time></trkpt><trkpt lat="44.223382031503164" lon="11.769107565873325"><ele>129.0</ele><time>2026-05-02T09:21:15.002Z</time></trkpt><trkpt lat="44.22334998258488" lon="11.769025294755396"><ele>129.0</ele><time>2026-05-02T09:21:16.002Z</time></trkpt><trkpt lat="44.22331042281414" lon="11.768946766087215"><ele>129.0</ele><time>2026-05-02T09:21:17.002Z</time></trkpt><trkpt lat="44.22328502266746" lon="11.768864192490865"><ele>129.0</ele><time>2026-05-02T09:21:18.002Z</time></trkpt><trkpt lat="44.22325927069373" lon="11.76877637713138"><ele>129.0</ele><time>2026-05-02T09:21:19.002Z</time></trkpt><trkpt lat="44.22315689128079" lon="11.7686826515869"><ele>129.0</ele><time>2026-05-02T09:21:21.002Z</time></trkpt><trkpt lat="44.223062292323846" lon="11.768766171324097"><ele>129.0</ele><time>2026-05-02T09:21:23.002Z</time></trkpt><trkpt lat="44.22303338723591" lon="11.768846304256579"><ele>129.0</ele><time>2026-05-02T09:21:24.002Z</time></trkpt><trkpt lat="44.223067498789696" lon="11.768992460163574"><ele>129.0</ele><time>2026-05-02T09:21:26.002Z</time></trkpt><trkpt lat="44.2231185310375" lon="11.769046703233782"><ele>129.0</ele><time>2026-05-02T09:21:27.002Z</time></trkpt><trkpt lat="44.223172701201854" lon="11.769194196649485"><ele>129.0</ele><time>2026-05-02T09:21:29.003Z</time></trkpt><trkpt lat="44.22320178136699" lon="11.769277586791869"><ele>129.0</ele><time>2026-05-02T09:21:30.003Z</time></trkpt><trkpt lat="44.22322630649456" lon="11.769372162966407"><ele>128.57142857142856</ele><time>2026-05-02T09:21:31.003Z</time></trkpt><trkpt lat="44.22325906848185" lon="11.769464011229482"><ele>128.14285714285714</ele><time>2026-05-02T09:21:32.003Z</time></trkpt><trkpt lat="44.223294365565884" lon="11.76955005367212"><ele>127.71428571428571</ele><time>2026-05-02T09:21:33.003Z</time></trkpt><trkpt lat="44.22332817932124" lon="11.76963727639932"><ele>127.28571428571428</ele><time>2026-05-02T09:21:34.003Z</time></trkpt><trkpt lat="44.223361315713746" lon="11.769715650879908"><ele>126.85714285714286</ele><time>2026-05-02T09:21:35.003Z</time></trkpt><trkpt lat="44.22336542022623" lon="11.769819066356812"><ele>126.42857142857143</ele><time>2026-05-02T09:21:37.003Z</time></trkpt><trkpt lat="44.223324698465554" lon="11.769925023360416"><ele>126.0</ele><time>2026-05-02T09:21:39.003Z</time></trkpt><trkpt lat="44.22322259653077" lon="11.769874492589032"><ele>126.0</ele><time>2026-05-02T09:21:41.003Z</time></trkpt><trkpt lat="44.2231488774322" lon="11.769749896415412"><ele>126.0</ele><time>2026-05-02T09:21:43.003Z</time></trkpt><trkpt lat="44.22309152430138" lon="11.769676601610941"><ele>126.0</ele><time>2026-05-02T09:21:44.003Z</time></trkpt><trkpt lat="44.22303971986808" lon="11.769605899156376"><ele>126.0</ele><time>2026-05-02T09:21:45.003Z</time></trkpt><trkpt lat="44.222998008888034" lon="11.769510728853417"><ele>126.0</ele><time>2026-05-02T09:21:46.003Z</time></trkpt><trkpt lat="44.2229339833925" lon="11.769438871823754"><ele>126.0</ele><time>2026-05-02T09:21:47.003Z</time></trkpt><trkpt lat="44.222868410258734" lon="11.769367072326544"><ele>124.16666666666667</ele><time>2026-05-02T09:21:48.003Z</time></trkpt><trkpt lat="44.2227962786413" lon="11.769303507922935"><ele>122.33333333333334</ele><time>2026-05-02T09:21:49.003Z</time></trkpt><trkpt lat="44.222720746477" lon="11.769249328835453"><ele>120.5</ele><time>2026-05-02T09:21:50.003Z</time></trkpt><trkpt lat="44.22264691621152" lon="11.769175666026646"><ele>118.66666666666667</ele><time>2026-05-02T09:21:51.003Z</time></trkpt><trkpt lat="44.22258013568227" lon="11.769096663159413"><ele>116.83333333333334</ele><time>2026-05-02T09:21:52.003Z</time></trkpt><trkpt lat="44.22251180006508" lon="11.769030496778626"><ele>115.0</ele><time>2026-05-02T09:21:53.003Z</time></trkpt><trkpt lat="44.22244217055296" lon="11.768974064348935"><ele>115.00000000000001</ele><time>2026-05-02T09:21:54.003Z</time></trkpt><trkpt lat="44.222374361781874" lon="11.76890659741177"><ele>115.0</ele><time>2026-05-02T09:21:55.003Z</time></trkpt><trkpt lat="44.22230453021798" lon="11.768855698283225"><ele>115.0</ele><time>2026-05-02T09:21:56.003Z</time></trkpt><trkpt lat="44.22222397315817" lon="11.76883640547504"><ele>115.0</ele><time>2026-05-02T09:21:57.003Z</time></trkpt><trkpt lat="44.222144632817184" lon="11.768853788620724"><ele>115.00000000000001</ele><time>2026-05-02T09:21:58.003Z</time></trkpt><trkpt lat="44.22207030236279" lon="11.768894713572742"><ele>115.0</ele><time>2026-05-02T09:21:58.999Z</time></trkpt><trkpt lat="44.22200640669116" lon="11.76893731034248"><ele>114.50000000000001</ele><time>2026-05-02T09:21:59.999Z</time></trkpt><trkpt lat="44.22191770745776" lon="11.76898839009589"><ele>114.0</ele><time>2026-05-02T09:22:02Z</time></trkpt><trkpt lat="44.22185093781301" lon="11.769032037261669"><ele>113.5</ele><time>2026-05-02T09:22:10Z</time></trkpt><trkpt lat="44.2217919042536" lon="11.769067979570911"><ele>113.0</ele><time>2026-05-02T09:22:16Z</time></trkpt><trkpt lat="44.22169905801607" lon="11.769067718274842"><ele>112.50000000000001</ele><time>2026-05-02T09:23:00.001Z</time></trkpt><trkpt lat="44.22161674688351" lon="11.769134622521866"><ele>112.0</ele><time>2026-05-02T09:23:02.001Z</time></trkpt><trkpt lat="44.22152515270402" lon="11.769219039309466"><ele>111.50000000000001</ele><time>2026-05-02T09:23:04.002Z</time></trkpt><trkpt lat="44.22143297221182" lon="11.769267354086441"><ele>111.0</ele><time>2026-05-02T09:23:06.002Z</time></trkpt><trkpt lat="44.221370876764475" lon="11.769303993866675"><ele>110.5</ele><time>2026-05-02T09:23:08.002Z</time></trkpt><trkpt lat="44.22130900285674" lon="11.769348746323528"><ele>110.0</ele><time>2026-05-02T09:23:10.002Z</time></trkpt><trkpt lat="44.221220325120214" lon="11.769390409154084"><ele>109.50000000000001</ele><time>2026-05-02T09:23:12.002Z</time></trkpt><trkpt lat="44.22111841634125" lon="11.769454027096836"><ele>109.0</ele><time>2026-05-02T09:23:14.002Z</time></trkpt><trkpt lat="44.22101749280401" lon="11.769500687138125"><ele>109.00000000000001</ele><time>2026-05-02T09:23:16.002Z</time></trkpt><trkpt lat="44.220921847723645" lon="11.769530617518122"><ele>109.0</ele><time>2026-05-02T09:23:18.002Z</time></trkpt><trkpt lat="44.22083375913181" lon="11.769540381256963"><ele>109.0</ele><time>2026-05-02T09:23:20.002Z</time></trkpt><trkpt lat="44.22076672684307" lon="11.769621719875861"><ele>109.0</ele><time>2026-05-02T09:23:22.002Z</time></trkpt><trkpt lat="44.22078208091279" lon="11.76972305548134"><ele>109.00000000000001</ele><time>2026-05-02T09:23:24.002Z</time></trkpt><trkpt lat="44.22084478247589" lon="11.769788702217674"><ele>109.0</ele><time>2026-05-02T09:23:26.002Z</time></trkpt><trkpt lat="44.220911229840084" lon="11.76978097898909"><ele>109.00000000000001</ele><time>2026-05-02T09:23:28.002Z</time></trkpt><trkpt lat="44.22098221361851" lon="11.769698438538871"><ele>109.0</ele><time>2026-05-02T09:23:36.002Z</time></trkpt><trkpt lat="44.22105566931058" lon="11.769574445838881"><ele>109.0</ele><time>2026-05-02T09:23:38.003Z</time></trkpt><trkpt lat="44.221113159816184" lon="11.769504278462792"><ele>109.0</ele><time>2026-05-02T09:23:39.003Z</time></trkpt><trkpt lat="44.22117738429988" lon="11.76945240974285"><ele>109.00000000000001</ele><time>2026-05-02T09:23:40.003Z</time></trkpt><trkpt lat="44.22123982266734" lon="11.769416082354523"><ele>109.0</ele><time>2026-05-02T09:23:41.003Z</time></trkpt><trkpt lat="44.221335424759346" lon="11.76936517219611"><ele>109.0</ele><time>2026-05-02T09:23:43.003Z</time></trkpt><trkpt lat="44.22140885237296" lon="11.769384669085284"><ele>109.0</ele><time>2026-05-02T09:23:45.003Z</time></trkpt><trkpt lat="44.22143260916356" lon="11.76947195683353"><ele>109.0</ele><time>2026-05-02T09:23:47.003Z</time></trkpt><trkpt lat="44.22146343184049" lon="11.769581830959229"><ele>109.0</ele><time>2026-05-02T09:23:50.003Z</time></trkpt><trkpt lat="44.22150386076877" lon="11.769649736616575"><ele>109.0</ele><time>2026-05-02T09:23:52.003Z</time></trkpt><trkpt lat="44.221536105709056" lon="11.769725325124696"><ele>109.0</ele><time>2026-05-02T09:23:54.003Z</time></trkpt><trkpt lat="44.2215761080562" lon="11.769836965828743"><ele>109.0</ele><time>2026-05-02T09:23:57.003Z</time></trkpt><trkpt lat="44.2216308215727" lon="11.769933515158066"><ele>109.33333333333334</ele><time>2026-05-02T09:24:00.003Z</time></trkpt><trkpt lat="44.221670553063056" lon="11.770006803111766"><ele>109.66666666666667</ele><time>2026-05-02T09:24:02.003Z</time></trkpt><trkpt lat="44.22171161821151" lon="11.77012620212132"><ele>110.0</ele><time>2026-05-02T09:24:04.999Z</time></trkpt><trkpt lat="44.22174838654489" lon="11.770221293572172"><ele>110.33333333333334</ele><time>2026-05-02T09:24:06.999Z</time></trkpt><trkpt lat="44.22179285939987" lon="11.7703187863397"><ele>110.66666666666667</ele><time>2026-05-02T09:24:08.999Z</time></trkpt><trkpt lat="44.22182737199855" lon="11.770401176521467"><ele>111.0</ele><time>2026-05-02T09:24:11Z</time></trkpt><trkpt lat="44.22185571077263" lon="11.77048386016735"><ele>111.0</ele><time>2026-05-02T09:24:14Z</time></trkpt><trkpt lat="44.22187654503058" lon="11.770323936066546"><ele>111.0</ele><time>2026-05-02T09:28:50.001Z</time></trkpt><trkpt lat="44.22182226412858" lon="11.77044377170075"><ele>111.0</ele><time>2026-05-02T09:28:53.001Z</time></trkpt><trkpt lat="44.22185161147271" lon="11.770551293404683"><ele>111.0</ele><time>2026-05-02T09:30:13.003Z</time></trkpt><trkpt lat="44.221897867759765" lon="11.770621060155857"><ele>111.0</ele><time>2026-05-02T09:30:19.003Z</time></trkpt><trkpt lat="44.221929695214776" lon="11.77070209372654"><ele>111.0</ele><time>2026-05-02T09:30:25.001Z</time></trkpt></trkseg><trkseg><trkpt lat="44.221825873383644" lon="11.770448849756312"><ele>111.0</ele><time>2026-05-02T10:23:12Z</time></trkpt><trkpt lat="44.22189490066876" lon="11.770498245413084"><ele>111.0</ele><time>2026-05-02T10:25:12Z</time></trkpt><trkpt lat="44.22194175114255" lon="11.770622965856804"><ele>111.0</ele><time>2026-05-02T10:25:14Z</time></trkpt><trkpt lat="44.2219785484228" lon="11.770699560309739"><ele>111.0</ele><time>2026-05-02T10:25:16Z</time></trkpt><trkpt lat="44.22206143306924" lon="11.770688424229686"><ele>111.0</ele><time>2026-05-02T10:25:18Z</time></trkpt><trkpt lat="44.22215095565587" lon="11.770597044157311"><ele>111.0</ele><time>2026-05-02T10:25:20Z</time></trkpt><trkpt lat="44.222210668075185" lon="11.77055120592422"><ele>111.0</ele><time>2026-05-02T10:25:21Z</time></trkpt><trkpt lat="44.222288149219764" lon="11.770502953931636"><ele>111.0</ele><time>2026-05-02T10:25:23Z</time></trkpt><trkpt lat="44.22233507319683" lon="11.770443501371384"><ele>111.0</ele><time>2026-05-02T10:25:26Z</time></trkpt><trkpt lat="44.22230256572464" lon="11.770346779113511"><ele>111.0</ele><time>2026-05-02T10:25:29Z</time></trkpt><trkpt lat="44.222263994900146" lon="11.770267183340001"><ele>111.0</ele><time>2026-05-02T10:25:31Z</time></trkpt><trkpt lat="44.22221594698494" lon="11.770138437553356"><ele>111.0</ele><time>2026-05-02T10:25:34Z</time></trkpt><trkpt lat="44.22215243243553" lon="11.77001048081656"><ele>111.0</ele><time>2026-05-02T10:25:36Z</time></trkpt><trkpt lat="44.222116322205146" lon="11.769923351210762"><ele>111.0</ele><time>2026-05-02T10:25:37Z</time></trkpt><trkpt lat="44.22208028120322" lon="11.769829228680047"><ele>111.0</ele><time>2026-05-02T10:25:38Z</time></trkpt><trkpt lat="44.2220379257268" lon="11.769744236822214"><ele>111.0</ele><time>2026-05-02T10:25:39Z</time></trkpt><trkpt lat="44.22200275386405" lon="11.769662422901431"><ele>111.0</ele><time>2026-05-02T10:25:40Z</time></trkpt><trkpt lat="44.221966947722095" lon="11.769577318081433"><ele>111.0</ele><time>2026-05-02T10:25:41Z</time></trkpt><trkpt lat="44.22193022810734" lon="11.76948702498042"><ele>111.0</ele><time>2026-05-02T10:25:42Z</time></trkpt><trkpt lat="44.22189980558483" lon="11.769409607169122"><ele>111.19999999999999</ele><time>2026-05-02T10:25:43Z</time></trkpt><trkpt lat="44.22184949622326" lon="11.769270709755917"><ele>111.39999999999999</ele><time>2026-05-02T10:25:45Z</time></trkpt><trkpt lat="44.22181170642443" lon="11.769193940648139"><ele>111.6</ele><time>2026-05-02T10:25:47Z</time></trkpt><trkpt lat="44.22177118105111" lon="11.76908633121548"><ele>111.8</ele><time>2026-05-02T10:25:50Z</time></trkpt><trkpt lat="44.22171743593935" lon="11.768950031512988"><ele>112.0</ele><time>2026-05-02T10:25:52Z</time></trkpt><trkpt lat="44.2216818834024" lon="11.768860818826658"><ele>112.0</ele><time>2026-05-02T10:25:53Z</time></trkpt><trkpt lat="44.2216396665123" lon="11.76875657907436"><ele>111.99999999999999</ele><time>2026-05-02T10:25:54Z</time></trkpt><trkpt lat="44.221589217367466" lon="11.76864152680102"><ele>111.99999999999999</ele><time>2026-05-02T10:25:55Z</time></trkpt><trkpt lat="44.22153799578506" lon="11.768512988832862"><ele>112.0</ele><time>2026-05-02T10:25:56Z</time></trkpt><trkpt lat="44.22150406597037" lon="11.768368316258234"><ele>112.0</ele><time>2026-05-02T10:25:57Z</time></trkpt><trkpt lat="44.22146974122196" lon="11.768218146782976"><ele>111.8</ele><time>2026-05-02T10:25:58Z</time></trkpt><trkpt lat="44.22144976980877" lon="11.768057510209225"><ele>111.6</ele><time>2026-05-02T10:25:59Z</time></trkpt><trkpt lat="44.22143558646737" lon="11.76790492570756"><ele>111.39999999999999</ele><time>2026-05-02T10:26:00Z</time></trkpt><trkpt lat="44.22142347879641" lon="11.7677573265983"><ele>111.19999999999999</ele><time>2026-05-02T10:26:01Z</time></trkpt><trkpt lat="44.22139943466273" lon="11.767622120606102"><ele>111.0</ele><time>2026-05-02T10:26:02Z</time></trkpt><trkpt lat="44.221393443823374" lon="11.767478852721903"><ele>111.0</ele><time>2026-05-02T10:26:03Z</time></trkpt><trkpt lat="44.22138871043459" lon="11.767318120672265"><ele>111.0</ele><time>2026-05-02T10:26:04Z</time></trkpt><trkpt lat="44.22138594167342" lon="11.767159207175697"><ele>111.0</ele><time>2026-05-02T10:26:05Z</time></trkpt><trkpt lat="44.2213748597628" lon="11.76699734171458"><ele>111.0</ele><time>2026-05-02T10:26:06Z</time></trkpt><trkpt lat="44.22134723639281" lon="11.766835061690525"><ele>111.25</ele><time>2026-05-02T10:26:07Z</time></trkpt><trkpt lat="44.22130782094848" lon="11.76666885642709"><ele>111.5</ele><time>2026-05-02T10:26:08Z</time></trkpt><trkpt lat="44.22125190349658" lon="11.76650569865635"><ele>111.75</ele><time>2026-05-02T10:26:09Z</time></trkpt><trkpt lat="44.22117051284078" lon="11.766356016484993"><ele>112.0</ele><time>2026-05-02T10:26:10Z</time></trkpt><trkpt lat="44.22109254828119" lon="11.766199215550355"><ele>112.0</ele><time>2026-05-02T10:26:11Z</time></trkpt><trkpt lat="44.221011504847155" lon="11.766042544705478"><ele>112.0</ele><time>2026-05-02T10:26:12Z</time></trkpt><trkpt lat="44.22094045941248" lon="11.765882680081289"><ele>112.0</ele><time>2026-05-02T10:26:13Z</time></trkpt><trkpt lat="44.220869381095035" lon="11.765726178753358"><ele>112.0</ele><time>2026-05-02T10:26:14Z</time></trkpt><trkpt lat="44.22078972710615" lon="11.765566100060292"><ele>112.0</ele><time>2026-05-02T10:26:15Z</time></trkpt><trkpt lat="44.22072065625076" lon="11.765399534944986"><ele>112.0</ele><time>2026-05-02T10:26:16Z</time></trkpt><trkpt lat="44.220647956991186" lon="11.765239125559269"><ele>112.0</ele><time>2026-05-02T10:26:17Z</time></trkpt><trkpt lat="44.22058597034501" lon="11.765072882460311"><ele>112.0</ele><time>2026-05-02T10:26:18Z</time></trkpt><trkpt lat="44.22051973015515" lon="11.76490176926913"><ele>112.75</ele><time>2026-05-02T10:26:19Z</time></trkpt><trkpt lat="44.22045855470408" lon="11.764739189380375"><ele>113.5</ele><time>2026-05-02T10:26:20Z</time></trkpt><trkpt lat="44.220387828283165" lon="11.764573131044848"><ele>114.25</ele><time>2026-05-02T10:26:21Z</time></trkpt><trkpt lat="44.22032030381254" lon="11.764417022019156"><ele>115.0</ele><time>2026-05-02T10:26:22Z</time></trkpt><trkpt lat="44.220254743315714" lon="11.764258464033988"><ele>115.5</ele><time>2026-05-02T10:26:23Z</time></trkpt><trkpt lat="44.22019245771795" lon="11.764097030233751"><ele>116.0</ele><time>2026-05-02T10:26:24Z</time></trkpt><trkpt lat="44.220113931794536" lon="11.76394346094417"><ele>116.5</ele><time>2026-05-02T10:26:25Z</time></trkpt><trkpt lat="44.22004852012437" lon="11.763776818673488"><ele>117.0</ele><time>2026-05-02T10:26:26Z</time></trkpt><trkpt lat="44.21997048388188" lon="11.763615649637728"><ele>117.25</ele><time>2026-05-02T10:26:27Z</time></trkpt><trkpt lat="44.21989377490007" lon="11.7634642438843"><ele>117.5</ele><time>2026-05-02T10:26:28Z</time></trkpt><trkpt lat="44.21981281953287" lon="11.763310908493578"><ele>117.75</ele><time>2026-05-02T10:26:29Z</time></trkpt><trkpt lat="44.21973191035924" lon="11.763158801971766"><ele>118.0</ele><time>2026-05-02T10:26:30Z</time></trkpt><trkpt lat="44.21964894628804" lon="11.763006744120164"><ele>117.5</ele><time>2026-05-02T10:26:31Z</time></trkpt><trkpt lat="44.21955207289865" lon="11.762866657932033"><ele>117.0</ele><time>2026-05-02T10:26:32.001Z</time></trkpt><trkpt lat="44.21947756839821" lon="11.762698931421466"><ele>116.5</ele><time>2026-05-02T10:26:33.001Z</time></trkpt><trkpt lat="44.219379170476955" lon="11.76256228050117"><ele>116.0</ele><time>2026-05-02T10:26:34.001Z</time></trkpt><trkpt lat="44.21930352969881" lon="11.762393708296191"><ele>116.0</ele><time>2026-05-02T10:26:35.001Z</time></trkpt><trkpt lat="44.21921830336355" lon="11.762244241259353"><ele>116.0</ele><time>2026-05-02T10:26:36.001Z</time></trkpt><trkpt lat="44.21912738928367" lon="11.762103889259604"><ele>116.0</ele><time>2026-05-02T10:26:37.001Z</time></trkpt><trkpt lat="44.21904014255147" lon="11.761948187267567"><ele>116.0</ele><time>2026-05-02T10:26:38.001Z</time></trkpt><trkpt lat="44.218936450070316" lon="11.761792358361706"><ele>114.33333333333333</ele><time>2026-05-02T10:26:39.001Z</time></trkpt><trkpt lat="44.218847001865186" lon="11.761620840850556"><ele>112.66666666666666</ele><time>2026-05-02T10:26:40.001Z</time></trkpt><trkpt lat="44.21873528546154" lon="11.76147432078987"><ele>111.0</ele><time>2026-05-02T10:26:41.001Z</time></trkpt><trkpt lat="44.218608322258966" lon="11.76136388444155"><ele>111.0</ele><time>2026-05-02T10:26:42.001Z</time></trkpt><trkpt lat="44.218485671226226" lon="11.761245197209771"><ele>111.0</ele><time>2026-05-02T10:26:43.001Z</time></trkpt><trkpt lat="44.21835304489316" lon="11.761141618576646"><ele>111.0</ele><time>2026-05-02T10:26:44.001Z</time></trkpt><trkpt lat="44.21823227726539" lon="11.761037716062736"><ele>111.0</ele><time>2026-05-02T10:26:45.001Z</time></trkpt><trkpt lat="44.21811500843631" lon="11.760924749508783"><ele>111.25</ele><time>2026-05-02T10:26:46.001Z</time></trkpt><trkpt lat="44.21800897568316" lon="11.760782338805285"><ele>111.5</ele><time>2026-05-02T10:26:47.001Z</time></trkpt><trkpt lat="44.21792030514612" lon="11.760619676981124"><ele>111.75</ele><time>2026-05-02T10:26:48.001Z</time></trkpt><trkpt lat="44.21783808374098" lon="11.760448108980823"><ele>112.0</ele><time>2026-05-02T10:26:49.001Z</time></trkpt><trkpt lat="44.21776840974222" lon="11.76025183627591"><ele>111.66666666666667</ele><time>2026-05-02T10:26:50.001Z</time></trkpt><trkpt lat="44.21771200936971" lon="11.7600511197408"><ele>111.33333333333334</ele><time>2026-05-02T10:26:51.001Z</time></trkpt><trkpt lat="44.21767636829572" lon="11.759832533347483"><ele>111.0</ele><time>2026-05-02T10:26:52.001Z</time></trkpt><trkpt lat="44.21762974571855" lon="11.75961016049925"><ele>111.0</ele><time>2026-05-02T10:26:53.001Z</time></trkpt><trkpt lat="44.217567790081944" lon="11.759396677935074"><ele>111.0</ele><time>2026-05-02T10:26:54.001Z</time></trkpt><trkpt lat="44.217512006195044" lon="11.759171673205278"><ele>111.0</ele><time>2026-05-02T10:26:55.001Z</time></trkpt><trkpt lat="44.217465468118206" lon="11.758959281980488"><ele>110.66666666666666</ele><time>2026-05-02T10:26:56.001Z</time></trkpt><trkpt lat="44.21740107826173" lon="11.758754503384976"><ele>110.33333333333333</ele><time>2026-05-02T10:26:57.001Z</time></trkpt><trkpt lat="44.2173370180027" lon="11.7585525761794"><ele>110.0</ele><time>2026-05-02T10:26:57.999Z</time></trkpt><trkpt lat="44.21727316867856" lon="11.758351284760359"><ele>110.0</ele><time>2026-05-02T10:26:58.999Z</time></trkpt><trkpt lat="44.21719620233914" lon="11.758158106900565"><ele>110.0</ele><time>2026-05-02T10:26:59.999Z</time></trkpt><trkpt lat="44.2171476231394" lon="11.75795675618417"><ele>110.0</ele><time>2026-05-02T10:27:00.999Z</time></trkpt><trkpt lat="44.2170843276223" lon="11.757758986175618"><ele>110.25</ele><time>2026-05-02T10:27:01.999Z</time></trkpt><trkpt lat="44.217023487455" lon="11.757570771629894"><ele>110.5</ele><time>2026-05-02T10:27:02.999Z</time></trkpt><trkpt lat="44.21696396929917" lon="11.757387010675147"><ele>110.75</ele><time>2026-05-02T10:27:03.999Z</time></trkpt><trkpt lat="44.216889836198355" lon="11.757213883764788"><ele>111.0</ele><time>2026-05-02T10:27:04.999Z</time></trkpt><trkpt lat="44.216830686346086" lon="11.757026479212302"><ele>111.75</ele><time>2026-05-02T10:27:05.999Z</time></trkpt><trkpt lat="44.21677447623294" lon="11.756844707775224"><ele>112.5</ele><time>2026-05-02T10:27:06.999Z</time></trkpt><trkpt lat="44.2167223858222" lon="11.756658663331091"><ele>113.25</ele><time>2026-05-02T10:27:07.999Z</time></trkpt><trkpt lat="44.21669107185516" lon="11.756464460175152"><ele>114.0</ele><time>2026-05-02T10:27:08.999Z</time></trkpt><trkpt lat="44.21664984457526" lon="11.7562708039047"><ele>114.0</ele><time>2026-05-02T10:27:09.999Z</time></trkpt><trkpt lat="44.216595726210876" lon="11.756087594104411"><ele>114.0</ele><time>2026-05-02T10:27:10.999Z</time></trkpt><trkpt lat="44.21656350790894" lon="11.755893117560888"><ele>114.0</ele><time>2026-05-02T10:27:11.999Z</time></trkpt><trkpt lat="44.2165284938052" lon="11.75569537338364"><ele>114.0</ele><time>2026-05-02T10:27:12.999Z</time></trkpt><trkpt lat="44.21649479420981" lon="11.755506093145119"><ele>114.0</ele><time>2026-05-02T10:27:13.999Z</time></trkpt><trkpt lat="44.21647561347572" lon="11.75530468291932"><ele>114.0</ele><time>2026-05-02T10:27:14.999Z</time></trkpt><trkpt lat="44.216445006071346" lon="11.755139267876135"><ele>114.0</ele><time>2026-05-02T10:27:15.999Z</time></trkpt><trkpt lat="44.21639420087441" lon="11.75493365432847"><ele>114.0</ele><time>2026-05-02T10:27:16.999Z</time></trkpt><trkpt lat="44.21635125541962" lon="11.754771873517875"><ele>114.0</ele><time>2026-05-02T10:27:17.999Z</time></trkpt><trkpt lat="44.21629669420348" lon="11.75457657814111"><ele>114.0</ele><time>2026-05-02T10:27:18.999Z</time></trkpt><trkpt lat="44.21624518923759" lon="11.754394919440244"><ele>114.0</ele><time>2026-05-02T10:27:19.999Z</time></trkpt><trkpt lat="44.216193218425865" lon="11.754210586803774"><ele>114.0</ele><time>2026-05-02T10:27:20.999Z</time></trkpt><trkpt lat="44.21614231648205" lon="11.754028787134526"><ele>114.5</ele><time>2026-05-02T10:27:21.999Z</time></trkpt><trkpt lat="44.21609027560899" lon="11.75384267187811"><ele>115.0</ele><time>2026-05-02T10:27:22.999Z</time></trkpt><trkpt lat="44.21601923212878" lon="11.753668284266727"><ele>115.5</ele><time>2026-05-02T10:27:23.999Z</time></trkpt><trkpt lat="44.215953629065346" lon="11.753493726301457"><ele>116.0</ele><time>2026-05-02T10:27:24.999Z</time></trkpt><trkpt lat="44.21586769960002" lon="11.75335912388132"><ele>116.66666666666666</ele><time>2026-05-02T10:27:25.999Z</time></trkpt><trkpt lat="44.21572553487324" lon="11.753225426034739"><ele>117.33333333333334</ele><time>2026-05-02T10:27:26.999Z</time></trkpt><trkpt lat="44.215569454017356" lon="11.753036547582525"><ele>118.0</ele><time>2026-05-02T10:27:27.999Z</time></trkpt><trkpt lat="44.21541380457477" lon="11.752869910569022"><ele>118.0</ele><time>2026-05-02T10:27:28.999Z</time></trkpt><trkpt lat="44.21530967099071" lon="11.75275843127883"><ele>118.0</ele><time>2026-05-02T10:27:30Z</time></trkpt><trkpt lat="44.21523613372576" lon="11.75267970661914"><ele>118.0</ele><time>2026-05-02T10:27:31Z</time></trkpt><trkpt lat="44.21512062583375" lon="11.75255605066755"><ele>118.0</ele><time>2026-05-02T10:27:32Z</time></trkpt><trkpt lat="44.21498401000207" lon="11.75240996273884"><ele>118.0</ele><time>2026-05-02T10:27:33Z</time></trkpt><trkpt lat="44.214853914527744" lon="11.752271087258643"><ele>118.0</ele><time>2026-05-02T10:27:34Z</time></trkpt><trkpt lat="44.214711482390484" lon="11.752143702730605"><ele>118.0</ele><time>2026-05-02T10:27:35Z</time></trkpt><trkpt lat="44.21457499218715" lon="11.751998579692872"><ele>117.66666666666667</ele><time>2026-05-02T10:27:36Z</time></trkpt><trkpt lat="44.21444466828947" lon="11.75183380741645"><ele>117.33333333333334</ele><time>2026-05-02T10:27:37Z</time></trkpt><trkpt lat="44.214311470833884" lon="11.751675454567268"><ele>117.0</ele><time>2026-05-02T10:27:38Z</time></trkpt><trkpt lat="44.2141612971886" lon="11.751549725536405"><ele>117.0</ele><time>2026-05-02T10:27:39Z</time></trkpt><trkpt lat="44.21402723712934" lon="11.751395654130306"><ele>117.0</ele><time>2026-05-02T10:27:40Z</time></trkpt><trkpt lat="44.213885304572536" lon="11.751244511773306"><ele>117.0</ele><time>2026-05-02T10:27:41Z</time></trkpt><trkpt lat="44.21374301789084" lon="11.75109487839946"><ele>116.66666666666666</ele><time>2026-05-02T10:27:42Z</time></trkpt><trkpt lat="44.21360565602616" lon="11.750944071734425"><ele>116.33333333333333</ele><time>2026-05-02T10:27:43Z</time></trkpt><trkpt lat="44.21347420854747" lon="11.750810029101542"><ele>116.0</ele><time>2026-05-02T10:27:44Z</time></trkpt><trkpt lat="44.21335038949226" lon="11.750670647556994"><ele>116.0</ele><time>2026-05-02T10:27:45Z</time></trkpt><trkpt lat="44.21323052049509" lon="11.750539906660151"><ele>116.0</ele><time>2026-05-02T10:27:46Z</time></trkpt><trkpt lat="44.21310507778418" lon="11.750439212175811"><ele>116.0</ele><time>2026-05-02T10:27:47Z</time></trkpt><trkpt lat="44.21298232538104" lon="11.750362112525163"><ele>116.0</ele><time>2026-05-02T10:27:48Z</time></trkpt><trkpt lat="44.212854862368594" lon="11.75033812809827"><ele>114.25</ele><time>2026-05-02T10:27:49Z</time></trkpt><trkpt lat="44.21273696814866" lon="11.75033532849883"><ele>112.5</ele><time>2026-05-02T10:27:50Z</time></trkpt><trkpt lat="44.21262034134643" lon="11.750335206454725"><ele>110.75</ele><time>2026-05-02T10:27:51Z</time></trkpt><trkpt lat="44.21249906051944" lon="11.750332931299722"><ele>109.0</ele><time>2026-05-02T10:27:52Z</time></trkpt><trkpt lat="44.2123686541654" lon="11.750326447607511"><ele>106.75</ele><time>2026-05-02T10:27:53Z</time></trkpt><trkpt lat="44.21223239990142" lon="11.750310040616862"><ele>104.5</ele><time>2026-05-02T10:27:54Z</time></trkpt><trkpt lat="44.21208912236531" lon="11.750297960652537"><ele>102.25</ele><time>2026-05-02T10:27:55Z</time></trkpt><trkpt lat="44.21193801472962" lon="11.750283471930114"><ele>100.0</ele><time>2026-05-02T10:27:56Z</time></trkpt><trkpt lat="44.21179273192714" lon="11.7502679472221"><ele>100.0</ele><time>2026-05-02T10:27:57Z</time></trkpt><trkpt lat="44.21165555801859" lon="11.75025232436728"><ele>100.0</ele><time>2026-05-02T10:27:58Z</time></trkpt><trkpt lat="44.21151986939628" lon="11.750241257806781"><ele>100.0</ele><time>2026-05-02T10:27:59Z</time></trkpt><trkpt lat="44.21138883302796" lon="11.750230999931485"><ele>100.0</ele><time>2026-05-02T10:28:00Z</time></trkpt><trkpt lat="44.211261963373296" lon="11.750215731096729"><ele>103.25</ele><time>2026-05-02T10:28:01Z</time></trkpt><trkpt lat="44.211137292333156" lon="11.75019861335725"><ele>106.5</ele><time>2026-05-02T10:28:02Z</time></trkpt><trkpt lat="44.21101586038911" lon="11.75017615213305"><ele>109.75</ele><time>2026-05-02T10:28:03Z</time></trkpt><trkpt lat="44.21089834274098" lon="11.75014522762812"><ele>113.0</ele><time>2026-05-02T10:28:04Z</time></trkpt><trkpt lat="44.21078843118779" lon="11.750100283658705"><ele>113.0</ele><time>2026-05-02T10:28:05Z</time></trkpt><trkpt lat="44.210682606713256" lon="11.75004558445215"><ele>113.00000000000001</ele><time>2026-05-02T10:28:06Z</time></trkpt><trkpt lat="44.210579323371974" lon="11.74998236523837"><ele>113.00000000000001</ele><time>2026-05-02T10:28:07Z</time></trkpt><trkpt lat="44.21048588568264" lon="11.7499048571035"><ele>113.0</ele><time>2026-05-02T10:28:08Z</time></trkpt><trkpt lat="44.21039497218543" lon="11.749816136220183"><ele>113.0</ele><time>2026-05-02T10:28:09Z</time></trkpt><trkpt lat="44.210314568448254" lon="11.749720498315025"><ele>114.2</ele><time>2026-05-02T10:28:10Z</time></trkpt><trkpt lat="44.210245687714576" lon="11.749620576128029"><ele>115.4</ele><time>2026-05-02T10:28:11Z</time></trkpt><trkpt lat="44.21018071659668" lon="11.749524260193475"><ele>116.60000000000001</ele><time>2026-05-02T10:28:12Z</time></trkpt><trkpt lat="44.21012063766091" lon="11.749433860281231"><ele>117.80000000000001</ele><time>2026-05-02T10:28:13Z</time></trkpt><trkpt lat="44.21005654028561" lon="11.749343265545226"><ele>119.0</ele><time>2026-05-02T10:28:14Z</time></trkpt><trkpt lat="44.20999000728795" lon="11.749244388741184"><ele>119.0</ele><time>2026-05-02T10:28:15Z</time></trkpt><trkpt lat="44.209920702962584" lon="11.749140027402367"><ele>119.0</ele><time>2026-05-02T10:28:16Z</time></trkpt><trkpt lat="44.20984991422656" lon="11.749029754302734"><ele>119.0</ele><time>2026-05-02T10:28:17Z</time></trkpt><trkpt lat="44.209777757387364" lon="11.748915056988626"><ele>119.0</ele><time>2026-05-02T10:28:18Z</time></trkpt><trkpt lat="44.2097070815609" lon="11.74880169518491"><ele>119.0</ele><time>2026-05-02T10:28:19Z</time></trkpt><trkpt lat="44.20964010899367" lon="11.748697035471206"><ele>119.2</ele><time>2026-05-02T10:28:20Z</time></trkpt><trkpt lat="44.209570440890296" lon="11.74859338331748"><ele>119.4</ele><time>2026-05-02T10:28:21Z</time></trkpt><trkpt lat="44.20950003070342" lon="11.748489658675371"><ele>119.6</ele><time>2026-05-02T10:28:22Z</time></trkpt><trkpt lat="44.209429218290786" lon="11.748384688035982"><ele>119.8</ele><time>2026-05-02T10:28:23Z</time></trkpt><trkpt lat="44.20936044551961" lon="11.748282388832402"><ele>120.0</ele><time>2026-05-02T10:28:24Z</time></trkpt><trkpt lat="44.20929277989496" lon="11.748180905513077"><ele>120.0</ele><time>2026-05-02T10:28:25Z</time></trkpt><trkpt lat="44.20923041998073" lon="11.748082250293162"><ele>120.0</ele><time>2026-05-02T10:28:26Z</time></trkpt><trkpt lat="44.209175230836244" lon="11.747990016798825"><ele>120.0</ele><time>2026-05-02T10:28:27Z</time></trkpt><trkpt lat="44.209118805594784" lon="11.74789763573778"><ele>120.0</ele><time>2026-05-02T10:28:28Z</time></trkpt><trkpt lat="44.20906272682204" lon="11.74780214965131"><ele>120.0</ele><time>2026-05-02T10:28:29Z</time></trkpt><trkpt lat="44.209005107927254" lon="11.747709231881336"><ele>120.0</ele><time>2026-05-02T10:28:30Z</time></trkpt><trkpt lat="44.20894636216296" lon="11.747614915300122"><ele>120.0</ele><time>2026-05-02T10:28:31Z</time></trkpt><trkpt lat="44.20888542378888" lon="11.747516867261993"><ele>120.0</ele><time>2026-05-02T10:28:32Z</time></trkpt><trkpt lat="44.20881953669395" lon="11.747423360693029"><ele>120.0</ele><time>2026-05-02T10:28:33Z</time></trkpt><trkpt lat="44.208751162324944" lon="11.747328436452596"><ele>120.0</ele><time>2026-05-02T10:28:34Z</time></trkpt><trkpt lat="44.20868265942693" lon="11.747240833306138"><ele>120.0</ele><time>2026-05-02T10:28:35Z</time></trkpt><trkpt lat="44.20861488505239" lon="11.74715246846866"><ele>120.0</ele><time>2026-05-02T10:28:36Z</time></trkpt><trkpt lat="44.20854535047243" lon="11.747068266673892"><ele>120.0</ele><time>2026-05-02T10:28:37Z</time></trkpt><trkpt lat="44.208477214545496" lon="11.746984174207146"><ele>120.0</ele><time>2026-05-02T10:28:38Z</time></trkpt><trkpt lat="44.20840349030193" lon="11.746898730270809"><ele>120.0</ele><time>2026-05-02T10:28:39Z</time></trkpt><trkpt lat="44.208333393368484" lon="11.746809987175446"><ele>120.0</ele><time>2026-05-02T10:28:40Z</time></trkpt><trkpt lat="44.208263519116116" lon="11.746717908049527"><ele>120.4</ele><time>2026-05-02T10:28:41Z</time></trkpt><trkpt lat="44.208190092895" lon="11.746638042885326"><ele>120.8</ele><time>2026-05-02T10:28:42Z</time></trkpt><trkpt lat="44.20812022595924" lon="11.746549981812304"><ele>121.19999999999999</ele><time>2026-05-02T10:28:43Z</time></trkpt><trkpt lat="44.208051017446415" lon="11.746458094736564"><ele>121.6</ele><time>2026-05-02T10:28:44Z</time></trkpt><trkpt lat="44.20797942042052" lon="11.74635992378158"><ele>122.0</ele><time>2026-05-02T10:28:45Z</time></trkpt><trkpt lat="44.207906568314755" lon="11.746261297600343"><ele>122.19999999999999</ele><time>2026-05-02T10:28:46.001Z</time></trkpt><trkpt lat="44.20783364185671" lon="11.746162810623089"><ele>122.39999999999999</ele><time>2026-05-02T10:28:47.001Z</time></trkpt><trkpt lat="44.20776253873257" lon="11.746058399443866"><ele>122.60000000000001</ele><time>2026-05-02T10:28:48.001Z</time></trkpt><trkpt lat="44.20769419868894" lon="11.745945576547818"><ele>122.80000000000001</ele><time>2026-05-02T10:28:49.001Z</time></trkpt><trkpt lat="44.20763030056006" lon="11.74583102154483"><ele>123.0</ele><time>2026-05-02T10:28:50.001Z</time></trkpt><trkpt lat="44.20757145742511" lon="11.745705653918007"><ele>123.5</ele><time>2026-05-02T10:28:51.001Z</time></trkpt><trkpt lat="44.207512614376846" lon="11.74557431618944"><ele>124.0</ele><time>2026-05-02T10:28:52.001Z</time></trkpt><trkpt lat="44.20745388981576" lon="11.745433383245267"><ele>124.5</ele><time>2026-05-02T10:28:53.001Z</time></trkpt><trkpt lat="44.20739632699137" lon="11.745291385476689"><ele>125.0</ele><time>2026-05-02T10:28:54.001Z</time></trkpt><trkpt lat="44.207339720759485" lon="11.745153601254815"><ele>124.8</ele><time>2026-05-02T10:28:55.001Z</time></trkpt><trkpt lat="44.20728329288783" lon="11.74501461397531"><ele>124.6</ele><time>2026-05-02T10:28:56.001Z</time></trkpt><trkpt lat="44.20722788979255" lon="11.744878094931893"><ele>124.4</ele><time>2026-05-02T10:28:57.001Z</time></trkpt><trkpt lat="44.20717272400659" lon="11.744744429616782"><ele>124.2</ele><time>2026-05-02T10:28:58.001Z</time></trkpt><trkpt lat="44.20711861466805" lon="11.74461340543278"><ele>124.0</ele><time>2026-05-02T10:28:59.001Z</time></trkpt><trkpt lat="44.20706246467629" lon="11.744478665976628"><ele>123.5</ele><time>2026-05-02T10:29:00.001Z</time></trkpt><trkpt lat="44.20700715657802" lon="11.744340202724247"><ele>123.0</ele><time>2026-05-02T10:29:01.001Z</time></trkpt><trkpt lat="44.20695103835322" lon="11.744198422397327"><ele>122.5</ele><time>2026-05-02T10:29:02.001Z</time></trkpt><trkpt lat="44.20689610125921" lon="11.74405148630363"><ele>122.0</ele><time>2026-05-02T10:29:03.001Z</time></trkpt><trkpt lat="44.20684174527784" lon="11.743901894615707"><ele>122.0</ele><time>2026-05-02T10:29:03.998Z</time></trkpt><trkpt lat="44.20678864077292" lon="11.743743974396503"><ele>122.0</ele><time>2026-05-02T10:29:04.998Z</time></trkpt><trkpt lat="44.20673350710225" lon="11.743581950459799"><ele>122.0</ele><time>2026-05-02T10:29:05.998Z</time></trkpt><trkpt lat="44.20667642089739" lon="11.743416263175368"><ele>122.0</ele><time>2026-05-02T10:29:06.998Z</time></trkpt><trkpt lat="44.20661851178172" lon="11.743253432992894"><ele>122.5</ele><time>2026-05-02T10:29:07.998Z</time></trkpt><trkpt lat="44.206557785692496" lon="11.743095128278174"><ele>123.0</ele><time>2026-05-02T10:29:08.998Z</time></trkpt><trkpt lat="44.20649691586293" lon="11.74293533864154"><ele>123.5</ele><time>2026-05-02T10:29:09.998Z</time></trkpt><trkpt lat="44.206436089479006" lon="11.742772259925008"><ele>124.0</ele><time>2026-05-02T10:29:10.998Z</time></trkpt><trkpt lat="44.206381615131846" lon="11.74261144073052"><ele>124.0</ele><time>2026-05-02T10:29:11.998Z</time></trkpt><trkpt lat="44.2063248701775" lon="11.742452959926933"><ele>124.0</ele><time>2026-05-02T10:29:12.998Z</time></trkpt><trkpt lat="44.20626785987234" lon="11.742292087392629"><ele>124.0</ele><time>2026-05-02T10:29:13.998Z</time></trkpt><trkpt lat="44.206208830200694" lon="11.74213262935792"><ele>124.0</ele><time>2026-05-02T10:29:14.998Z</time></trkpt><trkpt lat="44.206148506974735" lon="11.741972740361472"><ele>124.0</ele><time>2026-05-02T10:29:15.998Z</time></trkpt><trkpt lat="44.20608714491076" lon="11.74181251201559"><ele>124.0</ele><time>2026-05-02T10:29:16.998Z</time></trkpt><trkpt lat="44.20602686932373" lon="11.741649511978503"><ele>124.0</ele><time>2026-05-02T10:29:17.998Z</time></trkpt><trkpt lat="44.20596704621197" lon="11.741486308174858"><ele>124.0</ele><time>2026-05-02T10:29:18.998Z</time></trkpt><trkpt lat="44.20590659553395" lon="11.741325525483747"><ele>124.0</ele><time>2026-05-02T10:29:19.998Z</time></trkpt><trkpt lat="44.205853226060654" lon="11.741167444957096"><ele>124.0</ele><time>2026-05-02T10:29:20.998Z</time></trkpt><trkpt lat="44.20579768404439" lon="11.74101855818778"><ele>124.0</ele><time>2026-05-02T10:29:21.998Z</time></trkpt><trkpt lat="44.20574330370626" lon="11.740869943671251"><ele>124.0</ele><time>2026-05-02T10:29:22.999Z</time></trkpt><trkpt lat="44.20569539046209" lon="11.740726698723515"><ele>124.0</ele><time>2026-05-02T10:29:23.999Z</time></trkpt><trkpt lat="44.20564077910181" lon="11.740581077594385"><ele>124.0</ele><time>2026-05-02T10:29:24.999Z</time></trkpt><trkpt lat="44.20558323944926" lon="11.740431887302433"><ele>124.0</ele><time>2026-05-02T10:29:25.999Z</time></trkpt><trkpt lat="44.20552687754497" lon="11.740280857942718"><ele>124.0</ele><time>2026-05-02T10:29:26.999Z</time></trkpt><trkpt lat="44.20547464429857" lon="11.74012400487001"><ele>124.25</ele><time>2026-05-02T10:29:27.999Z</time></trkpt><trkpt lat="44.20542707173208" lon="11.739963278606758"><ele>124.5</ele><time>2026-05-02T10:29:28.999Z</time></trkpt><trkpt lat="44.20538501589599" lon="11.739798814145328"><ele>124.75</ele><time>2026-05-02T10:29:29.999Z</time></trkpt><trkpt lat="44.20535182017906" lon="11.73962900813881"><ele>125.0</ele><time>2026-05-02T10:29:30.999Z</time></trkpt><trkpt lat="44.20532526873862" lon="11.73945490654712"><ele>125.25</ele><time>2026-05-02T10:29:31.999Z</time></trkpt><trkpt lat="44.20530149285443" lon="11.739281830624204"><ele>125.5</ele><time>2026-05-02T10:29:32.999Z</time></trkpt><trkpt lat="44.205278941244075" lon="11.7391058046796"><ele>125.75</ele><time>2026-05-02T10:29:33.999Z</time></trkpt><trkpt lat="44.20525789660741" lon="11.73892952267167"><ele>126.0</ele><time>2026-05-02T10:29:34.999Z</time></trkpt><trkpt lat="44.20523772843359" lon="11.73875160668962"><ele>126.0</ele><time>2026-05-02T10:29:35.999Z</time></trkpt><trkpt lat="44.20521987946739" lon="11.738572848824388"><ele>126.0</ele><time>2026-05-02T10:29:36.999Z</time></trkpt><trkpt lat="44.205207850021004" lon="11.738393658399009"><ele>126.0</ele><time>2026-05-02T10:29:37.999Z</time></trkpt><trkpt lat="44.20519692914048" lon="11.738215549754331"><ele>126.0</ele><time>2026-05-02T10:29:38.999Z</time></trkpt><trkpt lat="44.20518833434028" lon="11.738034810681292"><ele>126.5</ele><time>2026-05-02T10:29:39.999Z</time></trkpt><trkpt lat="44.20517580736254" lon="11.73785765062714"><ele>127.0</ele><time>2026-05-02T10:29:40.999Z</time></trkpt><trkpt lat="44.20516364666649" lon="11.73768409814744"><ele>127.5</ele><time>2026-05-02T10:29:41.999Z</time></trkpt><trkpt lat="44.20515175122473" lon="11.73750995343078"><ele>128.0</ele><time>2026-05-02T10:29:42.999Z</time></trkpt><trkpt lat="44.20514165020873" lon="11.737335476004949"><ele>128.0</ele><time>2026-05-02T10:29:43.999Z</time></trkpt><trkpt lat="44.20512573570496" lon="11.737164164699124"><ele>128.0</ele><time>2026-05-02T10:29:44.999Z</time></trkpt><trkpt lat="44.20511545636659" lon="11.736993506672873"><ele>128.0</ele><time>2026-05-02T10:29:45.999Z</time></trkpt><trkpt lat="44.20510801313293" lon="11.736823251462724"><ele>128.0</ele><time>2026-05-02T10:29:46.999Z</time></trkpt><trkpt lat="44.205106119843066" lon="11.73665357097692"><ele>126.5</ele><time>2026-05-02T10:29:48Z</time></trkpt><trkpt lat="44.205118510877014" lon="11.736485711492177"><ele>125.0</ele><time>2026-05-02T10:29:49Z</time></trkpt><trkpt lat="44.20514982332963" lon="11.736316549226489"><ele>123.5</ele><time>2026-05-02T10:29:50Z</time></trkpt><trkpt lat="44.20518712822532" lon="11.736164655963229"><ele>122.0</ele><time>2026-05-02T10:29:51Z</time></trkpt><trkpt lat="44.205225194566665" lon="11.736034730599457"><ele>121.33333333333333</ele><time>2026-05-02T10:29:52Z</time></trkpt><trkpt lat="44.205261446335406" lon="11.735920679370533"><ele>120.66666666666666</ele><time>2026-05-02T10:29:53Z</time></trkpt><trkpt lat="44.20529157764475" lon="11.735825291060127"><ele>120.0</ele><time>2026-05-02T10:29:54Z</time></trkpt><trkpt lat="44.20533335181871" lon="11.735691714572582"><ele>119.33333333333334</ele><time>2026-05-02T10:29:56Z</time></trkpt><trkpt lat="44.20536962601976" lon="11.735590937579094"><ele>118.66666666666667</ele><time>2026-05-02T10:29:59Z</time></trkpt><trkpt lat="44.205397954012305" lon="11.735486509645796"><ele>118.0</ele><time>2026-05-02T10:31:03.001Z</time></trkpt><trkpt lat="44.20542964728488" lon="11.73538587343195"><ele>118.0</ele><time>2026-05-02T10:31:05.001Z</time></trkpt><trkpt lat="44.20547472443587" lon="11.73524340199433"><ele>118.00000000000001</ele><time>2026-05-02T10:31:07.001Z</time></trkpt><trkpt lat="44.20551121823723" lon="11.735080852242634"><ele>118.00000000000001</ele><time>2026-05-02T10:31:09.001Z</time></trkpt><trkpt lat="44.20552266280634" lon="11.734981479070603"><ele>118.0</ele><time>2026-05-02T10:31:09.998Z</time></trkpt><trkpt lat="44.205532378821964" lon="11.73487400984896"><ele>118.0</ele><time>2026-05-02T10:31:10.998Z</time></trkpt><trkpt lat="44.20553789281546" lon="11.734766851381025"><ele>117.66666666666667</ele><time>2026-05-02T10:31:11.998Z</time></trkpt><trkpt lat="44.205535242980204" lon="11.734662695878752"><ele>117.33333333333334</ele><time>2026-05-02T10:31:12.998Z</time></trkpt><trkpt lat="44.205523875991744" lon="11.73456348278682"><ele>117.0</ele><time>2026-05-02T10:31:13.998Z</time></trkpt><trkpt lat="44.20550956476777" lon="11.734471658187383"><ele>116.66666666666666</ele><time>2026-05-02T10:31:14.998Z</time></trkpt><trkpt lat="44.2054819448686" lon="11.734302015145152"><ele>116.33333333333333</ele><time>2026-05-02T10:31:16.998Z</time></trkpt><trkpt lat="44.20546694482839" lon="11.734216721957868"><ele>116.0</ele><time>2026-05-02T10:31:17.998Z</time></trkpt><trkpt lat="44.20543154486406" lon="11.734049105866324"><ele>116.8</ele><time>2026-05-02T10:31:19.998Z</time></trkpt><trkpt lat="44.20539861074116" lon="11.733972485035302"><ele>117.6</ele><time>2026-05-02T10:31:20.998Z</time></trkpt><trkpt lat="44.205316503733336" lon="11.733858214442943"><ele>118.4</ele><time>2026-05-02T10:31:22.998Z</time></trkpt><trkpt lat="44.205245186019816" lon="11.733754407342722"><ele>119.2</ele><time>2026-05-02T10:31:24.998Z</time></trkpt><trkpt lat="44.20517311929641" lon="11.733640953887583"><ele>120.0</ele><time>2026-05-02T10:31:26.999Z</time></trkpt><trkpt lat="44.20507061602752" lon="11.733565280221777"><ele>121.0</ele><time>2026-05-02T10:31:28.999Z</time></trkpt><trkpt lat="44.204993429574124" lon="11.73348269485143"><ele>122.0</ele><time>2026-05-02T10:31:30.999Z</time></trkpt><trkpt lat="44.2049032588892" lon="11.733430056001145"><ele>123.0</ele><time>2026-05-02T10:31:32.999Z</time></trkpt><trkpt lat="44.20483578293086" lon="11.733394740245856"><ele>124.0</ele><time>2026-05-02T10:31:33.999Z</time></trkpt><trkpt lat="44.20476776159626" lon="11.73337858905801"><ele>125.0</ele><time>2026-05-02T10:31:34.999Z</time></trkpt><trkpt lat="44.204698340485734" lon="11.733327535976693"><ele>126.0</ele><time>2026-05-02T10:31:35.999Z</time></trkpt><trkpt lat="44.20463078616" lon="11.733281912200669"><ele>126.0</ele><time>2026-05-02T10:31:36.999Z</time></trkpt><trkpt lat="44.20456143463973" lon="11.733236879458214"><ele>126.0</ele><time>2026-05-02T10:31:37.999Z</time></trkpt><trkpt lat="44.204492332878914" lon="11.733165208755194"><ele>126.0</ele><time>2026-05-02T10:31:38.999Z</time></trkpt><trkpt lat="44.20442949394877" lon="11.73309554990863"><ele>126.0</ele><time>2026-05-02T10:31:39.999Z</time></trkpt><trkpt lat="44.20437708069167" lon="11.733015693959091"><ele>126.0</ele><time>2026-05-02T10:31:40.999Z</time></trkpt><trkpt lat="44.20433500442261" lon="11.732923745909982"><ele>126.0</ele><time>2026-05-02T10:31:41.999Z</time></trkpt><trkpt lat="44.20424584844765" lon="11.732873214100906"><ele>126.0</ele><time>2026-05-02T10:31:42.999Z</time></trkpt><trkpt lat="44.20417765366611" lon="11.732796778531116"><ele>126.0</ele><time>2026-05-02T10:31:43.999Z</time></trkpt><trkpt lat="44.20411742534301" lon="11.732715997262977"><ele>126.0</ele><time>2026-05-02T10:31:44.999Z</time></trkpt><trkpt lat="44.20405844288562" lon="11.732627538904827"><ele>126.0</ele><time>2026-05-02T10:31:45.999Z</time></trkpt><trkpt lat="44.204003133988884" lon="11.73253390200732"><ele>126.0</ele><time>2026-05-02T10:31:46.999Z</time></trkpt><trkpt lat="44.20393861711544" lon="11.732458049726112"><ele>126.0</ele><time>2026-05-02T10:31:48Z</time></trkpt><trkpt lat="44.203878270228095" lon="11.73238196020455"><ele>125.83333333333333</ele><time>2026-05-02T10:31:49Z</time></trkpt><trkpt lat="44.20382759444009" lon="11.732304090547121"><ele>125.66666666666666</ele><time>2026-05-02T10:31:50Z</time></trkpt><trkpt lat="44.203772370866105" lon="11.73224812586982"><ele>125.5</ele><time>2026-05-02T10:31:51Z</time></trkpt><trkpt lat="44.20372023652186" lon="11.732190357809019"><ele>125.33333333333333</ele><time>2026-05-02T10:31:52Z</time></trkpt><trkpt lat="44.20363074050937" lon="11.732097644911743"><ele>125.16666666666666</ele><time>2026-05-02T10:31:54Z</time></trkpt><trkpt lat="44.20359712109885" lon="11.731980808921508"><ele>125.0</ele><time>2026-05-02T10:31:56Z</time></trkpt><trkpt lat="44.20365637190556" lon="11.731853460448212"><ele>124.99999999999999</ele><time>2026-05-02T10:31:58Z</time></trkpt><trkpt lat="44.203704467679955" lon="11.73178690332136"><ele>125.0</ele><time>2026-05-02T10:31:59Z</time></trkpt><trkpt lat="44.20373631375623" lon="11.731706857051382"><ele>125.0</ele><time>2026-05-02T10:32:00Z</time></trkpt><trkpt lat="44.20378155916567" lon="11.731641469445467"><ele>125.0</ele><time>2026-05-02T10:32:01Z</time></trkpt><trkpt lat="44.2038634608592" lon="11.7315350274279"><ele>124.99999999999999</ele><time>2026-05-02T10:32:03Z</time></trkpt><trkpt lat="44.2038909320574" lon="11.7314516951357"><ele>125.0</ele><time>2026-05-02T10:32:04Z</time></trkpt><trkpt lat="44.2039355524149" lon="11.731290692085617"><ele>124.99999999999999</ele><time>2026-05-02T10:32:06Z</time></trkpt><trkpt lat="44.20393663121355" lon="11.731184940951932"><ele>125.0</ele><time>2026-05-02T10:32:07Z</time></trkpt><trkpt lat="44.20394163050331" lon="11.731082421406374"><ele>125.0</ele><time>2026-05-02T10:32:08Z</time></trkpt><trkpt lat="44.203865677870915" lon="11.73097409263445"><ele>125.0</ele><time>2026-05-02T10:32:09Z</time></trkpt><trkpt lat="44.20381267989932" lon="11.730893474171289"><ele>124.99999999999999</ele><time>2026-05-02T10:32:10Z</time></trkpt><trkpt lat="44.203760433935976" lon="11.730819541443829"><ele>125.0</ele><time>2026-05-02T10:32:11Z</time></trkpt><trkpt lat="44.20370690268487" lon="11.730743398858928"><ele>125.66666666666666</ele><time>2026-05-02T10:32:12Z</time></trkpt><trkpt lat="44.20365360490361" lon="11.730667909586243"><ele>126.33333333333333</ele><time>2026-05-02T10:32:13Z</time></trkpt><trkpt lat="44.203597907919495" lon="11.730579949427005"><ele>127.0</ele><time>2026-05-02T10:32:14Z</time></trkpt><trkpt lat="44.20354171975258" lon="11.730485633613261"><ele>127.66666666666666</ele><time>2026-05-02T10:32:15Z</time></trkpt><trkpt lat="44.20348977192804" lon="11.730384688873125"><ele>128.33333333333334</ele><time>2026-05-02T10:32:16Z</time></trkpt><trkpt lat="44.203441482495556" lon="11.730282626604474"><ele>129.0</ele><time>2026-05-02T10:32:17Z</time></trkpt><trkpt lat="44.20339793416077" lon="11.730175825125578"><ele>129.8</ele><time>2026-05-02T10:32:18Z</time></trkpt><trkpt lat="44.203361014870254" lon="11.730067133464347"><ele>130.60000000000002</ele><time>2026-05-02T10:32:19Z</time></trkpt><trkpt lat="44.20332796990375" lon="11.729947750986442"><ele>131.4</ele><time>2026-05-02T10:32:20Z</time></trkpt><trkpt lat="44.20329262594548" lon="11.729816385723412"><ele>132.20000000000002</ele><time>2026-05-02T10:32:21Z</time></trkpt><trkpt lat="44.20324481035785" lon="11.72969381090721"><ele>133.0</ele><time>2026-05-02T10:32:22Z</time></trkpt><trkpt lat="44.20320934097986" lon="11.729572396302176"><ele>133.0</ele><time>2026-05-02T10:32:23Z</time></trkpt><trkpt lat="44.20317844522882" lon="11.729461953315694"><ele>133.0</ele><time>2026-05-02T10:32:24.001Z</time></trkpt><trkpt lat="44.20314149634043" lon="11.729361719278469"><ele>133.0</ele><time>2026-05-02T10:32:25.001Z</time></trkpt><trkpt lat="44.203101257500435" lon="11.729271848864768"><ele>133.0</ele><time>2026-05-02T10:32:26.001Z</time></trkpt><trkpt lat="44.2030430497204" lon="11.72919352262415"><ele>133.0</ele><time>2026-05-02T10:32:27.001Z</time></trkpt><trkpt lat="44.20296650005626" lon="11.72914371537063"><ele>133.0</ele><time>2026-05-02T10:32:28.001Z</time></trkpt><trkpt lat="44.2028859454648" lon="11.72911091572562"><ele>132.33333333333334</ele><time>2026-05-02T10:32:29.001Z</time></trkpt><trkpt lat="44.20280797775798" lon="11.729089773701077"><ele>131.66666666666669</ele><time>2026-05-02T10:32:30.001Z</time></trkpt><trkpt lat="44.20272801242956" lon="11.729073130639316"><ele>131.0</ele><time>2026-05-02T10:32:31.001Z</time></trkpt><trkpt lat="44.20264671338461" lon="11.729060594843236"><ele>130.33333333333334</ele><time>2026-05-02T10:32:32.001Z</time></trkpt><trkpt lat="44.20256580653663" lon="11.729047360975077"><ele>129.66666666666666</ele><time>2026-05-02T10:32:33.001Z</time></trkpt><trkpt lat="44.20248436363006" lon="11.729039492213548"><ele>129.0</ele><time>2026-05-02T10:32:34.001Z</time></trkpt><trkpt lat="44.20240147427084" lon="11.72903353138425"><ele>128.8</ele><time>2026-05-02T10:32:35.001Z</time></trkpt><trkpt lat="44.20232103702289" lon="11.729014446322148"><ele>128.60000000000002</ele><time>2026-05-02T10:32:36.001Z</time></trkpt><trkpt lat="44.202237662272715" lon="11.728999032320889"><ele>128.4</ele><time>2026-05-02T10:32:37.001Z</time></trkpt><trkpt lat="44.20215012920396" lon="11.72897807548232"><ele>128.20000000000002</ele><time>2026-05-02T10:32:38.001Z</time></trkpt><trkpt lat="44.202055801403084" lon="11.728950424693982"><ele>128.0</ele><time>2026-05-02T10:32:39.001Z</time></trkpt><trkpt lat="44.201955397932615" lon="11.728934740439065"><ele>128.0</ele><time>2026-05-02T10:32:40.001Z</time></trkpt><trkpt lat="44.201853425671246" lon="11.72891985306519"><ele>128.0</ele><time>2026-05-02T10:32:41.001Z</time></trkpt><trkpt lat="44.201749990953154" lon="11.728875285739575"><ele>128.0</ele><time>2026-05-02T10:32:42.001Z</time></trkpt><trkpt lat="44.20164279481817" lon="11.728876371560697"><ele>128.0</ele><time>2026-05-02T10:32:43.001Z</time></trkpt><trkpt lat="44.201541153253615" lon="11.728832135412114"><ele>128.0</ele><time>2026-05-02T10:32:44.001Z</time></trkpt><trkpt lat="44.20144480055868" lon="11.728810306556861"><ele>127.2</ele><time>2026-05-02T10:32:45.001Z</time></trkpt><trkpt lat="44.20134772145326" lon="11.728802220318993"><ele>126.4</ele><time>2026-05-02T10:32:46.001Z</time></trkpt><trkpt lat="44.20126449788077" lon="11.72874196171491"><ele>125.60000000000001</ele><time>2026-05-02T10:32:47.001Z</time></trkpt><trkpt lat="44.20118778229113" lon="11.728654222426055"><ele>124.80000000000001</ele><time>2026-05-02T10:32:48.001Z</time></trkpt><trkpt lat="44.20112264425748" lon="11.728548066851399"><ele>124.0</ele><time>2026-05-02T10:32:49.001Z</time></trkpt><trkpt lat="44.20106325347294" lon="11.728434407728749"><ele>125.6</ele><time>2026-05-02T10:32:50.001Z</time></trkpt><trkpt lat="44.20100635643117" lon="11.728324857032728"><ele>127.2</ele><time>2026-05-02T10:32:51.001Z</time></trkpt><trkpt lat="44.20095277057164" lon="11.72821214267266"><ele>128.79999999999998</ele><time>2026-05-02T10:32:52.001Z</time></trkpt><trkpt lat="44.20090775426659" lon="11.728085411153858"><ele>130.4</ele><time>2026-05-02T10:32:53.001Z</time></trkpt><trkpt lat="44.20085255950266" lon="11.727967415717057"><ele>132.0</ele><time>2026-05-02T10:32:54.001Z</time></trkpt><trkpt lat="44.20079591746205" lon="11.727845632926607"><ele>132.4</ele><time>2026-05-02T10:32:55.001Z</time></trkpt><trkpt lat="44.20073758725508" lon="11.727720220476247"><ele>132.79999999999998</ele><time>2026-05-02T10:32:56.001Z</time></trkpt><trkpt lat="44.20067842473307" lon="11.727593018544955"><ele>133.2</ele><time>2026-05-02T10:32:57.001Z</time></trkpt><trkpt lat="44.200615514470506" lon="11.727461493730383"><ele>133.6</ele><time>2026-05-02T10:32:58.001Z</time></trkpt><trkpt lat="44.20054975475008" lon="11.727328547639493"><ele>134.0</ele><time>2026-05-02T10:32:59.001Z</time></trkpt><trkpt lat="44.20048324919682" lon="11.727197030085485"><ele>133.75</ele><time>2026-05-02T10:33:00.001Z</time></trkpt><trkpt lat="44.20040847784243" lon="11.72707893185363"><ele>133.5</ele><time>2026-05-02T10:33:01.001Z</time></trkpt><trkpt lat="44.200343700953745" lon="11.726950940120421"><ele>133.25</ele><time>2026-05-02T10:33:02.001Z</time></trkpt><trkpt lat="44.200276836606065" lon="11.726821560219292"><ele>133.0</ele><time>2026-05-02T10:33:03.001Z</time></trkpt><trkpt lat="44.20021445148285" lon="11.72669305628859"><ele>133.0</ele><time>2026-05-02T10:33:04.001Z</time></trkpt><trkpt lat="44.200149809585895" lon="11.72655846931085"><ele>133.0</ele><time>2026-05-02T10:33:05.001Z</time></trkpt><trkpt lat="44.200085080865776" lon="11.72641835124492"><ele>133.0</ele><time>2026-05-02T10:33:06.002Z</time></trkpt><trkpt lat="44.200021996160885" lon="11.726272188245746"><ele>133.0</ele><time>2026-05-02T10:33:07.002Z</time></trkpt><trkpt lat="44.19997565688094" lon="11.726103694135775"><ele>133.0</ele><time>2026-05-02T10:33:08.002Z</time></trkpt><trkpt lat="44.19991380490244" lon="11.725943907020474"><ele>133.0</ele><time>2026-05-02T10:33:09.002Z</time></trkpt><trkpt lat="44.19983919239595" lon="11.725791480651456"><ele>133.0</ele><time>2026-05-02T10:33:10.002Z</time></trkpt><trkpt lat="44.1997802168256" lon="11.725626314106847"><ele>133.0</ele><time>2026-05-02T10:33:11.002Z</time></trkpt><trkpt lat="44.19971941499341" lon="11.725461449785616"><ele>132.25</ele><time>2026-05-02T10:33:12.002Z</time></trkpt><trkpt lat="44.199649001976" lon="11.72530265010942"><ele>131.5</ele><time>2026-05-02T10:33:13.002Z</time></trkpt><trkpt lat="44.199579584634684" lon="11.725163608539688"><ele>130.75</ele><time>2026-05-02T10:33:14.002Z</time></trkpt><trkpt lat="44.19950608529662" lon="11.725041142165002"><ele>130.0</ele><time>2026-05-02T10:33:15.002Z</time></trkpt><trkpt lat="44.19943007449677" lon="11.724920281903843"><ele>131.5</ele><time>2026-05-02T10:33:15.998Z</time></trkpt><trkpt lat="44.19935235685839" lon="11.724800836353594"><ele>133.0</ele><time>2026-05-02T10:33:16.997Z</time></trkpt><trkpt lat="44.199273625565134" lon="11.724676936474436"><ele>134.5</ele><time>2026-05-02T10:33:17.998Z</time></trkpt><trkpt lat="44.19919430517051" lon="11.724540000880383"><ele>136.0</ele><time>2026-05-02T10:33:18.998Z</time></trkpt><trkpt lat="44.19910817704646" lon="11.724392846259034"><ele>136.33333333333334</ele><time>2026-05-02T10:33:19.998Z</time></trkpt><trkpt lat="44.19902082863195" lon="11.724228679976367"><ele>136.66666666666666</ele><time>2026-05-02T10:33:20.998Z</time></trkpt><trkpt lat="44.198929634407094" lon="11.724056122568465"><ele>137.0</ele><time>2026-05-02T10:33:21.998Z</time></trkpt><trkpt lat="44.19883619866483" lon="11.723876632630763"><ele>136.25</ele><time>2026-05-02T10:33:22.998Z</time></trkpt><trkpt lat="44.19874246714208" lon="11.72370012922339"><ele>135.5</ele><time>2026-05-02T10:33:23.998Z</time></trkpt><trkpt lat="44.19865954053287" lon="11.723534650272121"><ele>134.75</ele><time>2026-05-02T10:33:24.998Z</time></trkpt><trkpt lat="44.198583898190066" lon="11.723376138480118"><ele>134.0</ele><time>2026-05-02T10:33:25.998Z</time></trkpt><trkpt lat="44.1985086805465" lon="11.723224357600463"><ele>134.0</ele><time>2026-05-02T10:33:26.998Z</time></trkpt><trkpt lat="44.1984314188409" lon="11.72307312937274"><ele>134.0</ele><time>2026-05-02T10:33:27.998Z</time></trkpt><trkpt lat="44.198354762993745" lon="11.722929155502799"><ele>134.0</ele><time>2026-05-02T10:33:28.998Z</time></trkpt><trkpt lat="44.19828049917644" lon="11.72278525244276"><ele>134.0</ele><time>2026-05-02T10:33:29.998Z</time></trkpt><trkpt lat="44.198204579647076" lon="11.72263714014573"><ele>134.25</ele><time>2026-05-02T10:33:30.998Z</time></trkpt><trkpt lat="44.19812986781509" lon="11.722490775311359"><ele>134.5</ele><time>2026-05-02T10:33:31.998Z</time></trkpt><trkpt lat="44.19805566400989" lon="11.72234053894972"><ele>134.75</ele><time>2026-05-02T10:33:32.998Z</time></trkpt><trkpt lat="44.19798499834239" lon="11.722197126637957"><ele>135.0</ele><time>2026-05-02T10:33:33.998Z</time></trkpt><trkpt lat="44.1979192498984" lon="11.722043738691532"><ele>136.25</ele><time>2026-05-02T10:33:34.998Z</time></trkpt><trkpt lat="44.19785928166245" lon="11.721886577459571"><ele>137.5</ele><time>2026-05-02T10:33:35.999Z</time></trkpt><trkpt lat="44.19780032620845" lon="11.721724671358253"><ele>138.75</ele><time>2026-05-02T10:33:36.999Z</time></trkpt><trkpt lat="44.19774642464802" lon="11.72155915013377"><ele>140.0</ele><time>2026-05-02T10:33:37.999Z</time></trkpt><trkpt lat="44.19769476792256" lon="11.721388053221759"><ele>140.0</ele><time>2026-05-02T10:33:38.999Z</time></trkpt><trkpt lat="44.197635912426136" lon="11.721201259567954"><ele>140.0</ele><time>2026-05-02T10:33:39.999Z</time></trkpt><trkpt lat="44.19757884388075" lon="11.720988096919042"><ele>140.0</ele><time>2026-05-02T10:33:40.999Z</time></trkpt><trkpt lat="44.19750233751363" lon="11.720763271633624"><ele>140.33333333333331</ele><time>2026-05-02T10:33:41.999Z</time></trkpt><trkpt lat="44.19741818995253" lon="11.720522895866335"><ele>140.66666666666666</ele><time>2026-05-02T10:33:42.999Z</time></trkpt><trkpt lat="44.19733080656407" lon="11.720275286287745"><ele>141.0</ele><time>2026-05-02T10:33:43.999Z</time></trkpt><trkpt lat="44.19723634466497" lon="11.72005253587193"><ele>140.33333333333334</ele><time>2026-05-02T10:33:44.999Z</time></trkpt><trkpt lat="44.1971612430464" lon="11.719821741468804"><ele>139.66666666666669</ele><time>2026-05-02T10:33:45.999Z</time></trkpt><trkpt lat="44.19708923769897" lon="11.71959069988143"><ele>139.0</ele><time>2026-05-02T10:33:46.999Z</time></trkpt><trkpt lat="44.19702201102844" lon="11.719362831102753"><ele>139.0</ele><time>2026-05-02T10:33:47.999Z</time></trkpt><trkpt lat="44.196961577847695" lon="11.719134380406388"><ele>139.0</ele><time>2026-05-02T10:33:48.999Z</time></trkpt><trkpt lat="44.19690876072936" lon="11.718910279774562"><ele>139.0</ele><time>2026-05-02T10:33:49.999Z</time></trkpt><trkpt lat="44.1968538979352" lon="11.718691988964052"><ele>141.66666666666669</ele><time>2026-05-02T10:33:50.999Z</time></trkpt><trkpt lat="44.196811164282266" lon="11.7184718212575"><ele>144.33333333333334</ele><time>2026-05-02T10:33:51.999Z</time></trkpt><trkpt lat="44.19676443257188" lon="11.7182515657892"><ele>147.0</ele><time>2026-05-02T10:33:52.999Z</time></trkpt><trkpt lat="44.1967189237153" lon="11.718038589981031"><ele>147.0</ele><time>2026-05-02T10:33:54Z</time></trkpt><trkpt lat="44.19666925246214" lon="11.717826205076209"><ele>147.0</ele><time>2026-05-02T10:33:55Z</time></trkpt><trkpt lat="44.19661674221714" lon="11.717622286883843"><ele>147.0</ele><time>2026-05-02T10:33:56Z</time></trkpt><trkpt lat="44.19655595345969" lon="11.717426502323313"><ele>146.66666666666666</ele><time>2026-05-02T10:33:57Z</time></trkpt><trkpt lat="44.19647859450209" lon="11.717243435465589"><ele>146.33333333333331</ele><time>2026-05-02T10:33:58Z</time></trkpt><trkpt lat="44.196394614393085" lon="11.717061849897572"><ele>146.0</ele><time>2026-05-02T10:33:59Z</time></trkpt><trkpt lat="44.19630680977644" lon="11.716881601144078"><ele>146.0</ele><time>2026-05-02T10:34:00Z</time></trkpt><trkpt lat="44.196218060580144" lon="11.716713716167668"><ele>146.0</ele><time>2026-05-02T10:34:01Z</time></trkpt><trkpt lat="44.196121664989406" lon="11.716571718437296"><ele>146.0</ele><time>2026-05-02T10:34:02Z</time></trkpt><trkpt lat="44.19602467889472" lon="11.716452169609402"><ele>146.0</ele><time>2026-05-02T10:34:03Z</time></trkpt><trkpt lat="44.19593462190966" lon="11.716337037785076"><ele>146.0</ele><time>2026-05-02T10:34:04Z</time></trkpt><trkpt lat="44.195844927478504" lon="11.716224397050338"><ele>146.0</ele><time>2026-05-02T10:34:05Z</time></trkpt><trkpt lat="44.195758681283706" lon="11.716107066036114"><ele>146.0</ele><time>2026-05-02T10:34:06Z</time></trkpt><trkpt lat="44.195677139441564" lon="11.715992313900855"><ele>146.0</ele><time>2026-05-02T10:34:07Z</time></trkpt><trkpt lat="44.19559724136366" lon="11.715884052026558"><ele>145.8</ele><time>2026-05-02T10:34:08Z</time></trkpt><trkpt lat="44.19552786925917" lon="11.715777235483033"><ele>145.6</ele><time>2026-05-02T10:34:09Z</time></trkpt><trkpt lat="44.19546122406291" lon="11.715675056718165"><ele>145.4</ele><time>2026-05-02T10:34:10Z</time></trkpt><trkpt lat="44.19538502026389" lon="11.715575644562833"><ele>145.2</ele><time>2026-05-02T10:34:11Z</time></trkpt><trkpt lat="44.195297025210024" lon="11.715472974781184"><ele>145.0</ele><time>2026-05-02T10:34:12Z</time></trkpt><trkpt lat="44.19522129701836" lon="11.71532253975195"><ele>146.0</ele><time>2026-05-02T10:34:13Z</time></trkpt><trkpt lat="44.19515181606722" lon="11.715144301920558"><ele>147.0</ele><time>2026-05-02T10:34:14Z</time></trkpt><trkpt lat="44.19504927112599" lon="11.714973440343954"><ele>148.0</ele><time>2026-05-02T10:34:15Z</time></trkpt><trkpt lat="44.19494563292015" lon="11.714789410790392"><ele>148.0</ele><time>2026-05-02T10:34:16Z</time></trkpt><trkpt lat="44.194838282999605" lon="11.714585995271815"><ele>148.0</ele><time>2026-05-02T10:34:17Z</time></trkpt><trkpt lat="44.19472356991588" lon="11.714367214768428"><ele>148.0</ele><time>2026-05-02T10:34:18Z</time></trkpt><trkpt lat="44.19460628146921" lon="11.714150050744081"><ele>147.0</ele><time>2026-05-02T10:34:19Z</time></trkpt><trkpt lat="44.194472538818914" lon="11.713938168728959"><ele>146.0</ele><time>2026-05-02T10:34:20Z</time></trkpt><trkpt lat="44.19436283096389" lon="11.713737043481027"><ele>145.0</ele><time>2026-05-02T10:34:21Z</time></trkpt><trkpt lat="44.194235066467" lon="11.713541204418807"><ele>145.0</ele><time>2026-05-02T10:34:22.001Z</time></trkpt><trkpt lat="44.19410868724403" lon="11.713340895713827"><ele>145.0</ele><time>2026-05-02T10:34:23.001Z</time></trkpt><trkpt lat="44.193995003272356" lon="11.713116816851976"><ele>145.0</ele><time>2026-05-02T10:34:24.001Z</time></trkpt><trkpt lat="44.19385770632782" lon="11.712920621044887"><ele>143.0</ele><time>2026-05-02T10:34:25.001Z</time></trkpt><trkpt lat="44.193733506023165" lon="11.712708233132428"><ele>141.0</ele><time>2026-05-02T10:34:26.001Z</time></trkpt><trkpt lat="44.19361114131667" lon="11.712500036740703"><ele>139.0</ele><time>2026-05-02T10:34:27.001Z</time></trkpt><trkpt lat="44.193485911205514" lon="11.712296093687833"><ele>139.0</ele><time>2026-05-02T10:34:28.001Z</time></trkpt><trkpt lat="44.19335655762261" lon="11.71209600767257"><ele>139.0</ele><time>2026-05-02T10:34:29.001Z</time></trkpt><trkpt lat="44.19323058608368" lon="11.711895934953827"><ele>139.0</ele><time>2026-05-02T10:34:30.001Z</time></trkpt><trkpt lat="44.19310800657601" lon="11.711704414074726"><ele>139.66666666666669</ele><time>2026-05-02T10:34:31.001Z</time></trkpt><trkpt lat="44.192978324951724" lon="11.711523800698439"><ele>140.33333333333334</ele><time>2026-05-02T10:34:32.001Z</time></trkpt><trkpt lat="44.19283325107902" lon="11.711357698038393"><ele>141.0</ele><time>2026-05-02T10:34:33.001Z</time></trkpt><trkpt lat="44.19267782338097" lon="11.711206829035353"><ele>140.33333333333334</ele><time>2026-05-02T10:34:34.001Z</time></trkpt><trkpt lat="44.19251190330644" lon="11.711073083615656"><ele>139.66666666666669</ele><time>2026-05-02T10:34:35.001Z</time></trkpt><trkpt lat="44.192337642871" lon="11.71095107129371"><ele>139.0</ele><time>2026-05-02T10:34:36.001Z</time></trkpt><trkpt lat="44.192157350110755" lon="11.71083845122553"><ele>139.0</ele><time>2026-05-02T10:34:37.001Z</time></trkpt><trkpt lat="44.191974476543386" lon="11.710731164448871"><ele>139.0</ele><time>2026-05-02T10:34:38.001Z</time></trkpt><trkpt lat="44.19179120890553" lon="11.710620725918574"><ele>139.0</ele><time>2026-05-02T10:34:39.001Z</time></trkpt><trkpt lat="44.191616841382235" lon="11.71050421034409"><ele>137.0</ele><time>2026-05-02T10:34:40.001Z</time></trkpt><trkpt lat="44.1914454966111" lon="11.710378632873425"><ele>135.0</ele><time>2026-05-02T10:34:41.001Z</time></trkpt><trkpt lat="44.1912807682254" lon="11.710240423912952"><ele>133.0</ele><time>2026-05-02T10:34:42.001Z</time></trkpt><trkpt lat="44.19112355062022" lon="11.71008420370475"><ele>137.33333333333334</ele><time>2026-05-02T10:34:43.001Z</time></trkpt><trkpt lat="44.19098616566877" lon="11.709903435724272"><ele>141.66666666666666</ele><time>2026-05-02T10:34:44.001Z</time></trkpt><trkpt lat="44.19085547330629" lon="11.709707798615177"><ele>146.0</ele><time>2026-05-02T10:34:45.001Z</time></trkpt><trkpt lat="44.19071394503198" lon="11.709524909255244"><ele>148.0</ele><time>2026-05-02T10:34:46.001Z</time></trkpt><trkpt lat="44.19056507173159" lon="11.709366324303438"><ele>150.0</ele><time>2026-05-02T10:34:47.001Z</time></trkpt><trkpt lat="44.19040511487738" lon="11.709230269080944"><ele>152.0</ele><time>2026-05-02T10:34:48.001Z</time></trkpt><trkpt lat="44.190247634505084" lon="11.709108529358845"><ele>152.0</ele><time>2026-05-02T10:34:49.001Z</time></trkpt><trkpt lat="44.190092824554334" lon="11.70897640460363"><ele>152.0</ele><time>2026-05-02T10:34:50.001Z</time></trkpt><trkpt lat="44.18995056254108" lon="11.708809077358309"><ele>152.0</ele><time>2026-05-02T10:34:51.001Z</time></trkpt><trkpt lat="44.189827135961465" lon="11.708614923087664"><ele>152.66666666666666</ele><time>2026-05-02T10:34:52.001Z</time></trkpt><trkpt lat="44.18971499744633" lon="11.708414784604349"><ele>153.33333333333334</ele><time>2026-05-02T10:34:53.001Z</time></trkpt><trkpt lat="44.189614631007586" lon="11.708219425900806"><ele>154.0</ele><time>2026-05-02T10:34:54.002Z</time></trkpt><trkpt lat="44.189517229915005" lon="11.70802658635139"><ele>154.0</ele><time>2026-05-02T10:34:55.002Z</time></trkpt><trkpt lat="44.189419970343394" lon="11.707839877103089"><ele>154.0</ele><time>2026-05-02T10:34:56.002Z</time></trkpt><trkpt lat="44.189333130191024" lon="11.7076569739879"><ele>154.0</ele><time>2026-05-02T10:34:57.002Z</time></trkpt><trkpt lat="44.189252893357356" lon="11.70748093097209"><ele>154.75</ele><time>2026-05-02T10:34:58.002Z</time></trkpt><trkpt lat="44.18917382213855" lon="11.70731186531882"><ele>155.5</ele><time>2026-05-02T10:34:59.002Z</time></trkpt><trkpt lat="44.18911023550029" lon="11.70713740456092"><ele>156.25</ele><time>2026-05-02T10:35:00.002Z</time></trkpt><trkpt lat="44.18902978106473" lon="11.706963021738163"><ele>157.0</ele><time>2026-05-02T10:35:01.002Z</time></trkpt><trkpt lat="44.18893937991093" lon="11.706794192166315"><ele>155.0</ele><time>2026-05-02T10:35:02.002Z</time></trkpt><trkpt lat="44.188845053243085" lon="11.706622705017114"><ele>153.0</ele><time>2026-05-02T10:35:03.002Z</time></trkpt><trkpt lat="44.188750820429846" lon="11.706453271767627"><ele>151.0</ele><time>2026-05-02T10:35:04.002Z</time></trkpt><trkpt lat="44.18866111908351" lon="11.706276322339152"><ele>151.0</ele><time>2026-05-02T10:35:05.002Z</time></trkpt><trkpt lat="44.18856976733122" lon="11.706098345394686"><ele>151.0</ele><time>2026-05-02T10:35:06.002Z</time></trkpt><trkpt lat="44.18847819678348" lon="11.705928658016617"><ele>151.0</ele><time>2026-05-02T10:35:07.002Z</time></trkpt><trkpt lat="44.188394445982034" lon="11.705766311403671"><ele>152.0</ele><time>2026-05-02T10:35:08.002Z</time></trkpt><trkpt lat="44.18831328695586" lon="11.705593849621744"><ele>153.0</ele><time>2026-05-02T10:35:09.002Z</time></trkpt><trkpt lat="44.18824367709715" lon="11.70541453877252"><ele>154.0</ele><time>2026-05-02T10:35:10.002Z</time></trkpt><trkpt lat="44.18817344414888" lon="11.705226060369146"><ele>155.0</ele><time>2026-05-02T10:35:11.002Z</time></trkpt><trkpt lat="44.188122544479306" lon="11.70500475916645"><ele>155.0</ele><time>2026-05-02T10:35:12.002Z</time></trkpt><trkpt lat="44.18804908808387" lon="11.704798663533719"><ele>155.0</ele><time>2026-05-02T10:35:13.002Z</time></trkpt><trkpt lat="44.187960794203484" lon="11.704588826303555"><ele>155.0</ele><time>2026-05-02T10:35:14.002Z</time></trkpt><trkpt lat="44.187873324647626" lon="11.704377160688058"><ele>154.66666666666666</ele><time>2026-05-02T10:35:15.002Z</time></trkpt><trkpt lat="44.187782079608546" lon="11.704157047777443"><ele>154.33333333333334</ele><time>2026-05-02T10:35:16.002Z</time></trkpt><trkpt lat="44.18768947823999" lon="11.703930082812793"><ele>154.0</ele><time>2026-05-02T10:35:17.002Z</time></trkpt><trkpt lat="44.187597828831706" lon="11.703700893895894"><ele>153.33333333333334</ele><time>2026-05-02T10:35:18.002Z</time></trkpt><trkpt lat="44.187504942807706" lon="11.703469694108078"><ele>152.66666666666666</ele><time>2026-05-02T10:35:19.002Z</time></trkpt><trkpt lat="44.187410824759546" lon="11.703240091235953"><ele>152.0</ele><time>2026-05-02T10:35:20.002Z</time></trkpt><trkpt lat="44.187311601414436" lon="11.703008064758679"><ele>149.33333333333331</ele><time>2026-05-02T10:35:21.002Z</time></trkpt><trkpt lat="44.18721302723071" lon="11.70277342607725"><ele>146.66666666666666</ele><time>2026-05-02T10:35:21.997Z</time></trkpt><trkpt lat="44.18710732320905" lon="11.702544500074364"><ele>144.0</ele><time>2026-05-02T10:35:22.997Z</time></trkpt><trkpt lat="44.186995046995364" lon="11.702319943473201"><ele>144.0</ele><time>2026-05-02T10:35:23.997Z</time></trkpt><trkpt lat="44.186879655249456" lon="11.70210586051761"><ele>144.0</ele><time>2026-05-02T10:35:24.997Z</time></trkpt><trkpt lat="44.186746439503715" lon="11.701906025908357"><ele>144.0</ele><time>2026-05-02T10:35:25.997Z</time></trkpt><trkpt lat="44.18661340118318" lon="11.701739786452105"><ele>143.0</ele><time>2026-05-02T10:35:26.997Z</time></trkpt><trkpt lat="44.186462243039315" lon="11.70158933518382"><ele>142.0</ele><time>2026-05-02T10:35:27.997Z</time></trkpt><trkpt lat="44.18631237593641" lon="11.701450235896159"><ele>141.0</ele><time>2026-05-02T10:35:28.997Z</time></trkpt><trkpt lat="44.18615698085102" lon="11.701323867809679"><ele>141.0</ele><time>2026-05-02T10:35:29.997Z</time></trkpt><trkpt lat="44.186009055664435" lon="11.701212185264616"><ele>141.0</ele><time>2026-05-02T10:35:30.997Z</time></trkpt><trkpt lat="44.18586535055119" lon="11.701107147310148"><ele>141.0</ele><time>2026-05-02T10:35:31.997Z</time></trkpt><trkpt lat="44.18572023097695" lon="11.701008898875228"><ele>144.0</ele><time>2026-05-02T10:35:32.998Z</time></trkpt><trkpt lat="44.18557066596341" lon="11.7009321670571"><ele>147.0</ele><time>2026-05-02T10:35:33.998Z</time></trkpt><trkpt lat="44.18541660950113" lon="11.700890364072846"><ele>150.0</ele><time>2026-05-02T10:35:34.998Z</time></trkpt><trkpt lat="44.18525272900933" lon="11.700885534947835"><ele>150.0</ele><time>2026-05-02T10:35:35.998Z</time></trkpt><trkpt lat="44.18509161189662" lon="11.700908255110779"><ele>150.0</ele><time>2026-05-02T10:35:36.998Z</time></trkpt><trkpt lat="44.18492950912213" lon="11.700936904575308"><ele>150.0</ele><time>2026-05-02T10:35:37.998Z</time></trkpt><trkpt lat="44.18476205723082" lon="11.700952074330525"><ele>151.0</ele><time>2026-05-02T10:35:38.998Z</time></trkpt><trkpt lat="44.18459667174337" lon="11.700947978577748"><ele>152.0</ele><time>2026-05-02T10:35:39.998Z</time></trkpt><trkpt lat="44.18443244808231" lon="11.700917809428768"><ele>153.0</ele><time>2026-05-02T10:35:40.998Z</time></trkpt><trkpt lat="44.18428018208616" lon="11.70085714406058"><ele>153.0</ele><time>2026-05-02T10:35:41.998Z</time></trkpt><trkpt lat="44.18412836089591" lon="11.700776514008142"><ele>153.0</ele><time>2026-05-02T10:35:42.998Z</time></trkpt><trkpt lat="44.18398874120761" lon="11.700670449572703"><ele>153.0</ele><time>2026-05-02T10:35:43.998Z</time></trkpt><trkpt lat="44.183866558218966" lon="11.700556081112895"><ele>154.0</ele><time>2026-05-02T10:35:44.999Z</time></trkpt><trkpt lat="44.18374300820004" lon="11.700444714378245"><ele>155.0</ele><time>2026-05-02T10:35:45.999Z</time></trkpt><trkpt lat="44.183619057947865" lon="11.70033944986336"><ele>156.0</ele><time>2026-05-02T10:35:46.999Z</time></trkpt><trkpt lat="44.18349352023917" lon="11.70023673038036"><ele>157.0</ele><time>2026-05-02T10:35:47.999Z</time></trkpt><trkpt lat="44.18336651620959" lon="11.700131614437563"><ele>157.0</ele><time>2026-05-02T10:35:48.999Z</time></trkpt><trkpt lat="44.183241268131084" lon="11.700026072277222"><ele>157.0</ele><time>2026-05-02T10:35:49.999Z</time></trkpt><trkpt lat="44.18311888072964" lon="11.699920193733893"><ele>157.0</ele><time>2026-05-02T10:35:50.999Z</time></trkpt><trkpt lat="44.18299169926742" lon="11.699815616201077"><ele>157.0</ele><time>2026-05-02T10:35:51.999Z</time></trkpt><trkpt lat="44.18286896334096" lon="11.699712438824564"><ele>156.0</ele><time>2026-05-02T10:35:52.999Z</time></trkpt><trkpt lat="44.18275047456676" lon="11.699605388476398"><ele>155.0</ele><time>2026-05-02T10:35:53.999Z</time></trkpt><trkpt lat="44.182636524193356" lon="11.699495817402747"><ele>154.0</ele><time>2026-05-02T10:35:54.999Z</time></trkpt><trkpt lat="44.182524023737166" lon="11.699386722823753"><ele>153.0</ele><time>2026-05-02T10:35:55.999Z</time></trkpt><trkpt lat="44.18241001269709" lon="11.69927703908414"><ele>155.25</ele><time>2026-05-02T10:35:56.999Z</time></trkpt><trkpt lat="44.18228958631486" lon="11.699167273872545"><ele>157.5</ele><time>2026-05-02T10:35:57.999Z</time></trkpt><trkpt lat="44.18216488988642" lon="11.69906138456302"><ele>159.75</ele><time>2026-05-02T10:35:58.999Z</time></trkpt><trkpt lat="44.18203736429193" lon="11.698958937437183"><ele>162.0</ele><time>2026-05-02T10:35:59.999Z</time></trkpt><trkpt lat="44.18191284096859" lon="11.698847520411768"><ele>162.0</ele><time>2026-05-02T10:36:00.999Z</time></trkpt><trkpt lat="44.18178453304674" lon="11.698737903959634"><ele>162.0</ele><time>2026-05-02T10:36:02Z</time></trkpt><trkpt lat="44.18165405970025" lon="11.698624567484313"><ele>162.0</ele><time>2026-05-02T10:36:03Z</time></trkpt><trkpt lat="44.181530774810405" lon="11.698490735389681"><ele>162.0</ele><time>2026-05-02T10:36:04Z</time></trkpt><trkpt lat="44.181411516560416" lon="11.698347668013025"><ele>162.0</ele><time>2026-05-02T10:36:05Z</time></trkpt><trkpt lat="44.18128998830517" lon="11.69819468304126"><ele>162.0</ele><time>2026-05-02T10:36:06Z</time></trkpt><trkpt lat="44.18117304216583" lon="11.698033306899271"><ele>162.0</ele><time>2026-05-02T10:36:07Z</time></trkpt><trkpt lat="44.181062961978334" lon="11.69786080888207"><ele>162.0</ele><time>2026-05-02T10:36:08Z</time></trkpt><trkpt lat="44.18095805458856" lon="11.697674071864379"><ele>162.0</ele><time>2026-05-02T10:36:09Z</time></trkpt><trkpt lat="44.180856266403715" lon="11.69748203698509"><ele>162.66666666666666</ele><time>2026-05-02T10:36:10Z</time></trkpt><trkpt lat="44.18075636291175" lon="11.697286432612845"><ele>163.33333333333331</ele><time>2026-05-02T10:36:11Z</time></trkpt><trkpt lat="44.180655168473095" lon="11.69708422161237"><ele>164.0</ele><time>2026-05-02T10:36:12Z</time></trkpt><trkpt lat="44.180552069454045" lon="11.696884306235717"><ele>162.0</ele><time>2026-05-02T10:36:13Z</time></trkpt><trkpt lat="44.180447337512135" lon="11.696683973623614"><ele>160.0</ele><time>2026-05-02T10:36:14Z</time></trkpt><trkpt lat="44.180340938856986" lon="11.696484133106859"><ele>158.0</ele><time>2026-05-02T10:36:15Z</time></trkpt><trkpt lat="44.18023308489849" lon="11.696280417236352"><ele>160.66666666666666</ele><time>2026-05-02T10:36:16Z</time></trkpt><trkpt lat="44.18012404407237" lon="11.696069575771638"><ele>163.33333333333334</ele><time>2026-05-02T10:36:17Z</time></trkpt><trkpt lat="44.18001730260642" lon="11.695860249695443"><ele>166.0</ele><time>2026-05-02T10:36:18Z</time></trkpt><trkpt lat="44.17990776979639" lon="11.69564434486626"><ele>165.33333333333334</ele><time>2026-05-02T10:36:19Z</time></trkpt><trkpt lat="44.17979608996674" lon="11.695430130777245"><ele>164.66666666666666</ele><time>2026-05-02T10:36:20Z</time></trkpt><trkpt lat="44.17968594533691" lon="11.695216989336652"><ele>164.0</ele><time>2026-05-02T10:36:21Z</time></trkpt><trkpt lat="44.17957944144262" lon="11.695009090973661"><ele>164.0</ele><time>2026-05-02T10:36:22Z</time></trkpt><trkpt lat="44.179477043473035" lon="11.69480198970248"><ele>164.0</ele><time>2026-05-02T10:36:23Z</time></trkpt><trkpt lat="44.179377419263005" lon="11.694606020260979"><ele>164.0</ele><time>2026-05-02T10:36:24Z</time></trkpt><trkpt lat="44.17927490077641" lon="11.694418481666291"><ele>165.66666666666666</ele><time>2026-05-02T10:36:25Z</time></trkpt><trkpt lat="44.179163171894096" lon="11.694245949288906"><ele>167.33333333333334</ele><time>2026-05-02T10:36:26Z</time></trkpt><trkpt lat="44.17903899205343" lon="11.694085681175181"><ele>169.0</ele><time>2026-05-02T10:36:27Z</time></trkpt><trkpt lat="44.17890512420567" lon="11.693950167884209"><ele>169.0</ele><time>2026-05-02T10:36:28.001Z</time></trkpt><trkpt lat="44.178757037639436" lon="11.693831326681266"><ele>169.0</ele><time>2026-05-02T10:36:29.001Z</time></trkpt><trkpt lat="44.17859914861341" lon="11.693730977488691"><ele>169.0</ele><time>2026-05-02T10:36:30.001Z</time></trkpt><trkpt lat="44.17843048975745" lon="11.69365545193064"><ele>169.0</ele><time>2026-05-02T10:36:31.001Z</time></trkpt><trkpt lat="44.17825551349456" lon="11.693596360273006"><ele>169.0</ele><time>2026-05-02T10:36:32.001Z</time></trkpt><trkpt lat="44.178074620088545" lon="11.69355105593562"><ele>169.0</ele><time>2026-05-02T10:36:33.001Z</time></trkpt><trkpt lat="44.177890944590814" lon="11.693510654819203"><ele>169.66666666666669</ele><time>2026-05-02T10:36:34.001Z</time></trkpt><trkpt lat="44.17770591453538" lon="11.693465583999963"><ele>170.33333333333334</ele><time>2026-05-02T10:36:35.001Z</time></trkpt><trkpt lat="44.17751869509646" lon="11.69341821623638"><ele>171.0</ele><time>2026-05-02T10:36:36.001Z</time></trkpt><trkpt lat="44.17732865511107" lon="11.69336907538091"><ele>171.0</ele><time>2026-05-02T10:36:37.001Z</time></trkpt><trkpt lat="44.177137418022205" lon="11.69331797934455"><ele>171.0</ele><time>2026-05-02T10:36:38.001Z</time></trkpt><trkpt lat="44.176944149373085" lon="11.693270044975867"><ele>171.0</ele><time>2026-05-02T10:36:39.001Z</time></trkpt><trkpt lat="44.176749535014295" lon="11.69322572584087"><ele>171.0</ele><time>2026-05-02T10:36:40.001Z</time></trkpt><trkpt lat="44.17655427185737" lon="11.69318002662763"><ele>171.0</ele><time>2026-05-02T10:36:41.001Z</time></trkpt><trkpt lat="44.17635490990996" lon="11.693132533410473"><ele>171.0</ele><time>2026-05-02T10:36:42.001Z</time></trkpt><trkpt lat="44.17615743981736" lon="11.69307959130556"><ele>171.33333333333334</ele><time>2026-05-02T10:36:43.001Z</time></trkpt><trkpt lat="44.17596116385335" lon="11.693030409837181"><ele>171.66666666666669</ele><time>2026-05-02T10:36:44.001Z</time></trkpt><trkpt lat="44.17576248918916" lon="11.692981624306688"><ele>172.0</ele><time>2026-05-02T10:36:45.001Z</time></trkpt><trkpt lat="44.17556347015362" lon="11.692929884482865"><ele>172.0</ele><time>2026-05-02T10:36:46.001Z</time></trkpt><trkpt lat="44.17536492439635" lon="11.692879830088911"><ele>172.0</ele><time>2026-05-02T10:36:47.001Z</time></trkpt><trkpt lat="44.17516888313052" lon="11.692833406200725"><ele>172.0</ele><time>2026-05-02T10:36:48.001Z</time></trkpt><trkpt lat="44.174971569318174" lon="11.692794692913163"><ele>171.0</ele><time>2026-05-02T10:36:49.001Z</time></trkpt><trkpt lat="44.1747781816663" lon="11.692774643894062"><ele>170.0</ele><time>2026-05-02T10:36:50.001Z</time></trkpt><trkpt lat="44.17459702868537" lon="11.692767184700246"><ele>169.0</ele><time>2026-05-02T10:36:51.001Z</time></trkpt><trkpt lat="44.174416807281396" lon="11.692765527909739"><ele>169.0</ele><time>2026-05-02T10:36:52.001Z</time></trkpt><trkpt lat="44.174236883357395" lon="11.692756680535698"><ele>169.0</ele><time>2026-05-02T10:36:53.001Z</time></trkpt><trkpt lat="44.17405864871186" lon="11.692746894139377"><ele>169.0</ele><time>2026-05-02T10:36:54.001Z</time></trkpt><trkpt lat="44.17387989226351" lon="11.692734739288094"><ele>172.66666666666669</ele><time>2026-05-02T10:36:55.001Z</time></trkpt><trkpt lat="44.17369906496225" lon="11.692726603639015"><ele>176.33333333333334</ele><time>2026-05-02T10:36:56.001Z</time></trkpt><trkpt lat="44.17351835287188" lon="11.692718629303005"><ele>180.0</ele><time>2026-05-02T10:36:57.001Z</time></trkpt><trkpt lat="44.173341741307844" lon="11.692710913081106"><ele>179.0</ele><time>2026-05-02T10:36:58.001Z</time></trkpt><trkpt lat="44.17316365294098" lon="11.692701227535151"><ele>178.0</ele><time>2026-05-02T10:36:59.001Z</time></trkpt><trkpt lat="44.17298490225314" lon="11.692685778792661"><ele>177.0</ele><time>2026-05-02T10:37:00.002Z</time></trkpt><trkpt lat="44.17280610831667" lon="11.692661578568515"><ele>177.0</ele><time>2026-05-02T10:37:01.002Z</time></trkpt><trkpt lat="44.17263077852754" lon="11.69261291468409"><ele>177.0</ele><time>2026-05-02T10:37:02.002Z</time></trkpt><trkpt lat="44.172458707495394" lon="11.692538078079545"><ele>177.0</ele><time>2026-05-02T10:37:03.002Z</time></trkpt><trkpt lat="44.172288609663056" lon="11.692441679329525"><ele>173.33333333333334</ele><time>2026-05-02T10:37:04.002Z</time></trkpt><trkpt lat="44.172123686347526" lon="11.692329225193047"><ele>169.66666666666669</ele><time>2026-05-02T10:37:05.002Z</time></trkpt><trkpt lat="44.17196635474969" lon="11.692196994728423"><ele>166.0</ele><time>2026-05-02T10:37:06.002Z</time></trkpt><trkpt lat="44.171823649216364" lon="11.692042408142587"><ele>166.0</ele><time>2026-05-02T10:37:07.002Z</time></trkpt><trkpt lat="44.171696919172675" lon="11.691864759618086"><ele>166.0</ele><time>2026-05-02T10:37:08.002Z</time></trkpt><trkpt lat="44.17157587834777" lon="11.691675952061802"><ele>166.0</ele><time>2026-05-02T10:37:09.002Z</time></trkpt><trkpt lat="44.1714547036588" lon="11.691494887574361"><ele>166.0</ele><time>2026-05-02T10:37:10.002Z</time></trkpt><trkpt lat="44.17133290001956" lon="11.691323263794066"><ele>166.0</ele><time>2026-05-02T10:37:11.002Z</time></trkpt><trkpt lat="44.17121351530834" lon="11.691166146878585"><ele>166.0</ele><time>2026-05-02T10:37:12.002Z</time></trkpt><trkpt lat="44.17110429155076" lon="11.691027338432345"><ele>169.5</ele><time>2026-05-02T10:37:13.002Z</time></trkpt><trkpt lat="44.17100302645301" lon="11.690893520987474"><ele>173.0</ele><time>2026-05-02T10:37:14.002Z</time></trkpt><trkpt lat="44.17091638515435" lon="11.690760672298513"><ele>176.5</ele><time>2026-05-02T10:37:15.002Z</time></trkpt><trkpt lat="44.170847095393235" lon="11.690621887999058"><ele>180.0</ele><time>2026-05-02T10:37:16.002Z</time></trkpt><trkpt lat="44.17079833793244" lon="11.690468796910043"><ele>180.0</ele><time>2026-05-02T10:37:17.002Z</time></trkpt><trkpt lat="44.170763572409214" lon="11.690306443193847"><ele>180.0</ele><time>2026-05-02T10:37:18.002Z</time></trkpt><trkpt lat="44.170712363117886" lon="11.689995251290181"><ele>180.0</ele><time>2026-05-02T10:37:20.002Z</time></trkpt><trkpt lat="44.17068351275577" lon="11.689842448515844"><ele>179.0</ele><time>2026-05-02T10:37:21.002Z</time></trkpt><trkpt lat="44.17064827294211" lon="11.689675554607772"><ele>178.0</ele><time>2026-05-02T10:37:22.002Z</time></trkpt><trkpt lat="44.170615227560106" lon="11.689501807355391"><ele>177.0</ele><time>2026-05-02T10:37:23.002Z</time></trkpt><trkpt lat="44.17057815262379" lon="11.689318819609401"><ele>176.0</ele><time>2026-05-02T10:37:24.002Z</time></trkpt><trkpt lat="44.170542372614875" lon="11.689136521373532"><ele>176.0</ele><time>2026-05-02T10:37:25.002Z</time></trkpt><trkpt lat="44.17049971816535" lon="11.68895887609902"><ele>176.0</ele><time>2026-05-02T10:37:26.002Z</time></trkpt><trkpt lat="44.170447057728886" lon="11.688794799521798"><ele>176.0</ele><time>2026-05-02T10:37:27.002Z</time></trkpt><trkpt lat="44.17039099646474" lon="11.688635063674042"><ele>176.0</ele><time>2026-05-02T10:37:27.998Z</time></trkpt><trkpt lat="44.170341327456605" lon="11.688463844834121"><ele>176.0</ele><time>2026-05-02T10:37:28.998Z</time></trkpt><trkpt lat="44.17030919561637" lon="11.688280805215976"><ele>176.0</ele><time>2026-05-02T10:37:29.998Z</time></trkpt><trkpt lat="44.17028415840005" lon="11.688080350030692"><ele>176.0</ele><time>2026-05-02T10:37:30.998Z</time></trkpt><trkpt lat="44.170280550681184" lon="11.68788746563209"><ele>176.0</ele><time>2026-05-02T10:37:31.999Z</time></trkpt><trkpt lat="44.170289626636006" lon="11.687704230842062"><ele>176.0</ele><time>2026-05-02T10:37:32.999Z</time></trkpt><trkpt lat="44.1702963940891" lon="11.687533684971363"><ele>176.0</ele><time>2026-05-02T10:37:33.999Z</time></trkpt><trkpt lat="44.170292214892456" lon="11.687370775481321"><ele>176.0</ele><time>2026-05-02T10:37:34.999Z</time></trkpt><trkpt lat="44.170261513616566" lon="11.687224320304004"><ele>176.0</ele><time>2026-05-02T10:37:35.999Z</time></trkpt><trkpt lat="44.17022254756121" lon="11.6870878527636"><ele>176.0</ele><time>2026-05-02T10:37:36.999Z</time></trkpt><trkpt lat="44.17015992516695" lon="11.686973189874246"><ele>176.0</ele><time>2026-05-02T10:37:37.999Z</time></trkpt><trkpt lat="44.17008228831792" lon="11.68687828948042"><ele>176.0</ele><time>2026-05-02T10:37:38.999Z</time></trkpt><trkpt lat="44.16998376805859" lon="11.686838097391266"><ele>176.0</ele><time>2026-05-02T10:37:39.999Z</time></trkpt><trkpt lat="44.16988144591742" lon="11.68681773062378"><ele>176.0</ele><time>2026-05-02T10:37:40.999Z</time></trkpt><trkpt lat="44.169774789909745" lon="11.68680132427343"><ele>176.5</ele><time>2026-05-02T10:37:41.999Z</time></trkpt><trkpt lat="44.16966294597033" lon="11.686782011269644"><ele>177.0</ele><time>2026-05-02T10:37:42.999Z</time></trkpt><trkpt lat="44.169550860722474" lon="11.68675851296355"><ele>177.5</ele><time>2026-05-02T10:37:43.999Z</time></trkpt><trkpt lat="44.169433682490606" lon="11.686733310905591"><ele>178.0</ele><time>2026-05-02T10:37:45Z</time></trkpt><trkpt lat="44.16931347802494" lon="11.68670546258262"><ele>178.0</ele><time>2026-05-02T10:37:46Z</time></trkpt><trkpt lat="44.16919149479781" lon="11.686676600795174"><ele>178.0</ele><time>2026-05-02T10:37:47Z</time></trkpt><trkpt lat="44.1690692120737" lon="11.686639783173057"><ele>178.0</ele><time>2026-05-02T10:37:48Z</time></trkpt><trkpt lat="44.16894310382849" lon="11.686599663077123"><ele>178.0</ele><time>2026-05-02T10:37:49Z</time></trkpt><trkpt lat="44.1688145407043" lon="11.686549814436423"><ele>178.25</ele><time>2026-05-02T10:37:50Z</time></trkpt><trkpt lat="44.168680613228496" lon="11.686485137122848"><ele>178.5</ele><time>2026-05-02T10:37:51Z</time></trkpt><trkpt lat="44.168545946791824" lon="11.686409345613919"><ele>178.75</ele><time>2026-05-02T10:37:52Z</time></trkpt><trkpt lat="44.16841053977826" lon="11.686312475011364"><ele>179.0</ele><time>2026-05-02T10:37:53Z</time></trkpt><trkpt lat="44.168275874520404" lon="11.686196852448228"><ele>181.0</ele><time>2026-05-02T10:37:54Z</time></trkpt><trkpt lat="44.168140579243165" lon="11.686071636835717"><ele>183.0</ele><time>2026-05-02T10:37:55Z</time></trkpt><trkpt lat="44.16800366468788" lon="11.685935403743409"><ele>185.0</ele><time>2026-05-02T10:37:56Z</time></trkpt><trkpt lat="44.16786971224736" lon="11.685793338016436"><ele>185.0</ele><time>2026-05-02T10:37:57Z</time></trkpt><trkpt lat="44.16773074849188" lon="11.685651433685313"><ele>185.0</ele><time>2026-05-02T10:37:58Z</time></trkpt><trkpt lat="44.16759088166745" lon="11.685509238791854"><ele>185.0</ele><time>2026-05-02T10:37:59Z</time></trkpt><trkpt lat="44.1674463872762" lon="11.685362052812508"><ele>182.66666666666666</ele><time>2026-05-02T10:38:00Z</time></trkpt><trkpt lat="44.16730188882174" lon="11.685213295966872"><ele>180.33333333333334</ele><time>2026-05-02T10:38:01Z</time></trkpt><trkpt lat="44.16715548089076" lon="11.685062466130862"><ele>178.0</ele><time>2026-05-02T10:38:02Z</time></trkpt><trkpt lat="44.1670180306447" lon="11.684919153705776"><ele>178.0</ele><time>2026-05-02T10:38:03.001Z</time></trkpt><trkpt lat="44.16688889494001" lon="11.68478692766831"><ele>178.0</ele><time>2026-05-02T10:38:04.001Z</time></trkpt><trkpt lat="44.166765453682935" lon="11.684670585290776"><ele>178.0</ele><time>2026-05-02T10:38:05.001Z</time></trkpt><trkpt lat="44.166646167219284" lon="11.68455013975409"><ele>178.0</ele><time>2026-05-02T10:38:06.001Z</time></trkpt><trkpt lat="44.16653287146896" lon="11.684432515894617"><ele>178.0</ele><time>2026-05-02T10:38:07.001Z</time></trkpt><trkpt lat="44.166423436880834" lon="11.684317414167708"><ele>178.0</ele><time>2026-05-02T10:38:08.001Z</time></trkpt><trkpt lat="44.166320553389184" lon="11.68421521076621"><ele>178.0</ele><time>2026-05-02T10:38:09.001Z</time></trkpt><trkpt lat="44.16621432762594" lon="11.68413564669769"><ele>179.75</ele><time>2026-05-02T10:38:10.001Z</time></trkpt><trkpt lat="44.16609524642609" lon="11.684100409752936"><ele>181.5</ele><time>2026-05-02T10:38:11.001Z</time></trkpt><trkpt lat="44.165957931459054" lon="11.684099003645136"><ele>183.25</ele><time>2026-05-02T10:38:12.001Z</time></trkpt><trkpt lat="44.16581734628072" lon="11.68412553632192"><ele>185.0</ele><time>2026-05-02T10:38:13.001Z</time></trkpt><trkpt lat="44.1656684666188" lon="11.684180060288748"><ele>186.33333333333331</ele><time>2026-05-02T10:38:14.001Z</time></trkpt><trkpt lat="44.16551387266823" lon="11.68424178605131"><ele>187.66666666666666</ele><time>2026-05-02T10:38:15.001Z</time></trkpt><trkpt lat="44.16535101561333" lon="11.684304933259659"><ele>189.0</ele><time>2026-05-02T10:38:16.001Z</time></trkpt><trkpt lat="44.16517863394434" lon="11.684369766412967"><ele>189.0</ele><time>2026-05-02T10:38:17.001Z</time></trkpt><trkpt lat="44.16500218014172" lon="11.68443910470621"><ele>189.0</ele><time>2026-05-02T10:38:18.001Z</time></trkpt><trkpt lat="44.16482015900535" lon="11.684509005699965"><ele>189.0</ele><time>2026-05-02T10:38:19.001Z</time></trkpt><trkpt lat="44.16463296988871" lon="11.684576395186227"><ele>189.0</ele><time>2026-05-02T10:38:20.001Z</time></trkpt><trkpt lat="44.16445623383703" lon="11.684636361981136"><ele>189.0</ele><time>2026-05-02T10:38:21.001Z</time></trkpt><trkpt lat="44.16427664633569" lon="11.684693192409958"><ele>189.0</ele><time>2026-05-02T10:38:22.001Z</time></trkpt><trkpt lat="44.16409469253403" lon="11.68474662001222"><ele>190.33333333333331</ele><time>2026-05-02T10:38:23.001Z</time></trkpt><trkpt lat="44.163913991451956" lon="11.684798100085247"><ele>191.66666666666666</ele><time>2026-05-02T10:38:24.001Z</time></trkpt><trkpt lat="44.163733349400594" lon="11.684853319868571"><ele>193.0</ele><time>2026-05-02T10:38:25.001Z</time></trkpt><trkpt lat="44.163554357355295" lon="11.6849056147393"><ele>193.0</ele><time>2026-05-02T10:38:26.001Z</time></trkpt><trkpt lat="44.16337277232627" lon="11.68495334227031"><ele>193.0</ele><time>2026-05-02T10:38:27.001Z</time></trkpt><trkpt lat="44.163191844623185" lon="11.684993591789805"><ele>193.0</ele><time>2026-05-02T10:38:28.001Z</time></trkpt><trkpt lat="44.16300717878952" lon="11.685028097011067"><ele>194.33333333333331</ele><time>2026-05-02T10:38:29.001Z</time></trkpt><trkpt lat="44.16282278405377" lon="11.68505444049883"><ele>195.66666666666669</ele><time>2026-05-02T10:38:30.001Z</time></trkpt><trkpt lat="44.16263559398468" lon="11.685080190006424"><ele>197.0</ele><time>2026-05-02T10:38:31.002Z</time></trkpt><trkpt lat="44.16244723919768" lon="11.685112072086802"><ele>199.0</ele><time>2026-05-02T10:38:32.002Z</time></trkpt><trkpt lat="44.162259840806506" lon="11.68514532860102"><ele>201.0</ele><time>2026-05-02T10:38:33.002Z</time></trkpt><trkpt lat="44.16207228195252" lon="11.685173718953997"><ele>203.0</ele><time>2026-05-02T10:38:34.002Z</time></trkpt><trkpt lat="44.1618844220683" lon="11.685195680572209"><ele>203.0</ele><time>2026-05-02T10:38:35.002Z</time></trkpt><trkpt lat="44.16170102586082" lon="11.685216907453686"><ele>203.0</ele><time>2026-05-02T10:38:36.002Z</time></trkpt><trkpt lat="44.16151839343567" lon="11.68523526172899"><ele>203.0</ele><time>2026-05-02T10:38:37.002Z</time></trkpt><trkpt lat="44.16133617509874" lon="11.685250663874337"><ele>198.0</ele><time>2026-05-02T10:38:38.002Z</time></trkpt><trkpt lat="44.16115433963274" lon="11.68526291989859"><ele>193.0</ele><time>2026-05-02T10:38:39.002Z</time></trkpt><trkpt lat="44.16097865261948" lon="11.685279257470354"><ele>188.0</ele><time>2026-05-02T10:38:40.002Z</time></trkpt><trkpt lat="44.160816421587754" lon="11.685300178595881"><ele>188.0</ele><time>2026-05-02T10:38:41.002Z</time></trkpt><trkpt lat="44.16067352992734" lon="11.685319675905925"><ele>188.0</ele><time>2026-05-02T10:38:42.002Z</time></trkpt><trkpt lat="44.1605402421417" lon="11.685335880531383"><ele>188.0</ele><time>2026-05-02T10:38:43.002Z</time></trkpt><trkpt lat="44.160422815140045" lon="11.685351615810264"><ele>188.0</ele><time>2026-05-02T10:38:44.002Z</time></trkpt><trkpt lat="44.16031823050225" lon="11.685350433911664"><ele>188.0</ele><time>2026-05-02T10:38:45.002Z</time></trkpt><trkpt lat="44.160217605443634" lon="11.68532464428008"><ele>188.0</ele><time>2026-05-02T10:38:46.002Z</time></trkpt><trkpt lat="44.16012825599787" lon="11.68525993256113"><ele>188.0</ele><time>2026-05-02T10:38:47.002Z</time></trkpt><trkpt lat="44.16004917309096" lon="11.685148873373723"><ele>188.0</ele><time>2026-05-02T10:38:48.002Z</time></trkpt><trkpt lat="44.159972733434074" lon="11.685012588844723"><ele>188.0</ele><time>2026-05-02T10:38:49.002Z</time></trkpt><trkpt lat="44.15988329719426" lon="11.684872181003795"><ele>192.66666666666666</ele><time>2026-05-02T10:38:50.002Z</time></trkpt><trkpt lat="44.15977025853309" lon="11.684745686706528"><ele>197.33333333333331</ele><time>2026-05-02T10:38:51.002Z</time></trkpt><trkpt lat="44.15963406460811" lon="11.684648264011201"><ele>202.0</ele><time>2026-05-02T10:38:52.002Z</time></trkpt><trkpt lat="44.159481583765164" lon="11.684585492112681"><ele>202.0</ele><time>2026-05-02T10:38:53.002Z</time></trkpt><trkpt lat="44.15931975871062" lon="11.684545626216822"><ele>202.0</ele><time>2026-05-02T10:38:54.002Z</time></trkpt><trkpt lat="44.15916089011907" lon="11.684510342929778"><ele>202.0</ele><time>2026-05-02T10:38:55.002Z</time></trkpt><trkpt lat="44.15901073897653" lon="11.684472610871307"><ele>201.5</ele><time>2026-05-02T10:38:56.002Z</time></trkpt><trkpt lat="44.158862995513815" lon="11.684432012641512"><ele>201.0</ele><time>2026-05-02T10:38:57.002Z</time></trkpt><trkpt lat="44.15872083185299" lon="11.684395897676731"><ele>200.5</ele><time>2026-05-02T10:38:58.002Z</time></trkpt><trkpt lat="44.15858561671745" lon="11.684363831592245"><ele>200.0</ele><time>2026-05-02T10:38:59.002Z</time></trkpt><trkpt lat="44.158450706565496" lon="11.684340071949526"><ele>200.75</ele><time>2026-05-02T10:39:00.002Z</time></trkpt><trkpt lat="44.1583134808544" lon="11.684335783452598"><ele>201.5</ele><time>2026-05-02T10:39:01.002Z</time></trkpt><trkpt lat="44.158175235695325" lon="11.684357403056291"><ele>202.25</ele><time>2026-05-02T10:39:02.002Z</time></trkpt><trkpt lat="44.15803581996388" lon="11.684390407546699"><ele>203.0</ele><time>2026-05-02T10:39:03.003Z</time></trkpt><trkpt lat="44.157895121566234" lon="11.684433988499682"><ele>203.0</ele><time>2026-05-02T10:39:04.003Z</time></trkpt><trkpt lat="44.15775356377961" lon="11.68448858611607"><ele>203.0</ele><time>2026-05-02T10:39:05.003Z</time></trkpt><trkpt lat="44.15761067267063" lon="11.684550860440236"><ele>203.0</ele><time>2026-05-02T10:39:06.003Z</time></trkpt><trkpt lat="44.15746469953581" lon="11.684612664556871"><ele>203.0</ele><time>2026-05-02T10:39:07.003Z</time></trkpt><trkpt lat="44.157315808344954" lon="11.684670620557803"><ele>204.66666666666669</ele><time>2026-05-02T10:39:08.003Z</time></trkpt><trkpt lat="44.15716545718895" lon="11.684726254977754"><ele>206.33333333333331</ele><time>2026-05-02T10:39:09.003Z</time></trkpt><trkpt lat="44.15701161226886" lon="11.68478393940956"><ele>208.0</ele><time>2026-05-02T10:39:10.003Z</time></trkpt><trkpt lat="44.15685859201755" lon="11.684848243316885"><ele>208.0</ele><time>2026-05-02T10:39:11.003Z</time></trkpt><trkpt lat="44.15670578313763" lon="11.68490982589519"><ele>208.0</ele><time>2026-05-02T10:39:12.003Z</time></trkpt><trkpt lat="44.156562140054056" lon="11.684965693672321"><ele>208.0</ele><time>2026-05-02T10:39:13.003Z</time></trkpt><trkpt lat="44.156426673997224" lon="11.685019702236588"><ele>208.0</ele><time>2026-05-02T10:39:14.003Z</time></trkpt><trkpt lat="44.15630119678815" lon="11.685069355525146"><ele>210.4</ele><time>2026-05-02T10:39:15.003Z</time></trkpt><trkpt lat="44.156184348334975" lon="11.685114511733431"><ele>212.8</ele><time>2026-05-02T10:39:16.003Z</time></trkpt><trkpt lat="44.156072951168134" lon="11.685160540079542"><ele>215.2</ele><time>2026-05-02T10:39:17.003Z</time></trkpt><trkpt lat="44.15596905220724" lon="11.68520354945801"><ele>217.6</ele><time>2026-05-02T10:39:18.003Z</time></trkpt><trkpt lat="44.155873415947475" lon="11.685247301333277"><ele>220.0</ele><time>2026-05-02T10:39:19.003Z</time></trkpt><trkpt lat="44.15578251921989" lon="11.685282955976517"><ele>217.49999999999997</ele><time>2026-05-02T10:39:20.003Z</time></trkpt><trkpt lat="44.15569013484951" lon="11.68531831975572"><ele>215.0</ele><time>2026-05-02T10:39:21.003Z</time></trkpt><trkpt lat="44.15560249778086" lon="11.685349197986815"><ele>212.5</ele><time>2026-05-02T10:39:22.003Z</time></trkpt><trkpt lat="44.15551890501571" lon="11.685375894442606"><ele>210.0</ele><time>2026-05-02T10:39:23.003Z</time></trkpt><trkpt lat="44.15544387017174" lon="11.685397045371328"><ele>207.49999999999997</ele><time>2026-05-02T10:39:24.003Z</time></trkpt><trkpt lat="44.15536986534027" lon="11.685426820824668"><ele>205.0</ele><time>2026-05-02T10:39:25.003Z</time></trkpt><trkpt lat="44.15530300162247" lon="11.6854572406416"><ele>204.99999999999997</ele><time>2026-05-02T10:39:26.003Z</time></trkpt><trkpt lat="44.155240484119005" lon="11.685487307252526"><ele>205.0</ele><time>2026-05-02T10:39:27.003Z</time></trkpt><trkpt lat="44.155139478924006" lon="11.685522362822885"><ele>205.0</ele><time>2026-05-02T10:39:29.003Z</time></trkpt><trkpt lat="44.15506709992138" lon="11.685536100996307"><ele>205.0</ele><time>2026-05-02T10:39:31.003Z</time></trkpt><trkpt lat="44.154998024979314" lon="11.685577949690439"><ele>204.99999999999997</ele><time>2026-05-02T10:39:53Z</time></trkpt><trkpt lat="44.15491923842498" lon="11.685586638837574"><ele>205.0</ele><time>2026-05-02T10:39:55Z</time></trkpt><trkpt lat="44.154791502796904" lon="11.685626377604104"><ele>207.16666666666666</ele><time>2026-05-02T10:39:57Z</time></trkpt><trkpt lat="44.1547252647771" lon="11.685652740074763"><ele>209.33333333333331</ele><time>2026-05-02T10:39:58Z</time></trkpt><trkpt lat="44.154656107112665" lon="11.685676316618181"><ele>211.5</ele><time>2026-05-02T10:39:59Z</time></trkpt><trkpt lat="44.154572550596136" lon="11.685697935380356"><ele>213.66666666666669</ele><time>2026-05-02T10:40:00Z</time></trkpt><trkpt lat="44.15447492245238" lon="11.685718046498387"><ele>215.83333333333334</ele><time>2026-05-02T10:40:01.001Z</time></trkpt><trkpt lat="44.154367935354344" lon="11.68574237539528"><ele>218.0</ele><time>2026-05-02T10:40:02.001Z</time></trkpt><trkpt lat="44.15426965860755" lon="11.68576636151091"><ele>218.0</ele><time>2026-05-02T10:40:03.001Z</time></trkpt><trkpt lat="44.1541704430402" lon="11.685791655123621"><ele>218.0</ele><time>2026-05-02T10:40:04.001Z</time></trkpt><trkpt lat="44.15407279417894" lon="11.68582595925001"><ele>218.0</ele><time>2026-05-02T10:40:05.001Z</time></trkpt><trkpt lat="44.15397918650216" lon="11.685870260539236"><ele>218.0</ele><time>2026-05-02T10:40:06.001Z</time></trkpt><trkpt lat="44.15388641133766" lon="11.685920973338646"><ele>218.0</ele><time>2026-05-02T10:40:07.001Z</time></trkpt><trkpt lat="44.15379539022766" lon="11.685970643999719"><ele>215.60000000000002</ele><time>2026-05-02T10:40:08.001Z</time></trkpt><trkpt lat="44.15369947806167" lon="11.686028525109148"><ele>213.20000000000002</ele><time>2026-05-02T10:40:09.001Z</time></trkpt><trkpt lat="44.15360285005246" lon="11.68609384469701"><ele>210.8</ele><time>2026-05-02T10:40:10.001Z</time></trkpt><trkpt lat="44.15350433651597" lon="11.686171061914493"><ele>208.4</ele><time>2026-05-02T10:40:11.001Z</time></trkpt><trkpt lat="44.15340322377711" lon="11.686254674622505"><ele>206.0</ele><time>2026-05-02T10:40:12.001Z</time></trkpt><trkpt lat="44.153299090643685" lon="11.686343361754847"><ele>217.0</ele><time>2026-05-02T10:40:13.001Z</time></trkpt><trkpt lat="44.15319590238929" lon="11.686440957769843"><ele>228.0</ele><time>2026-05-02T10:40:14.001Z</time></trkpt><trkpt lat="44.153094121126436" lon="11.686547667270142"><ele>239.0</ele><time>2026-05-02T10:40:15.001Z</time></trkpt><trkpt lat="44.152994102227275" lon="11.686659058520807"><ele>250.0</ele><time>2026-05-02T10:40:16.001Z</time></trkpt><trkpt lat="44.15289294323439" lon="11.686779733791038"><ele>250.0</ele><time>2026-05-02T10:40:17.001Z</time></trkpt><trkpt lat="44.1527895264607" lon="11.686896801804517"><ele>250.0</ele><time>2026-05-02T10:40:18.001Z</time></trkpt><trkpt lat="44.152686312015376" lon="11.687003074221396"><ele>250.0</ele><time>2026-05-02T10:40:19.001Z</time></trkpt><trkpt lat="44.15258160895475" lon="11.687104935404355"><ele>250.0</ele><time>2026-05-02T10:40:20.001Z</time></trkpt><trkpt lat="44.1524777829078" lon="11.68720378117148"><ele>248.75</ele><time>2026-05-02T10:40:21.001Z</time></trkpt><trkpt lat="44.15237421215706" lon="11.68730814474434"><ele>247.5</ele><time>2026-05-02T10:40:22.001Z</time></trkpt><trkpt lat="44.152270522982185" lon="11.687412181650101"><ele>246.25</ele><time>2026-05-02T10:40:23.001Z</time></trkpt><trkpt lat="44.15216407648008" lon="11.68750843728396"><ele>245.0</ele><time>2026-05-02T10:40:24.001Z</time></trkpt><trkpt lat="44.1520537806769" lon="11.687608906992876"><ele>245.0</ele><time>2026-05-02T10:40:25.001Z</time></trkpt><trkpt lat="44.15194309764214" lon="11.687702774888283"><ele>245.0</ele><time>2026-05-02T10:40:26.001Z</time></trkpt><trkpt lat="44.15183667557546" lon="11.687789936801048"><ele>245.0</ele><time>2026-05-02T10:40:27.001Z</time></trkpt><trkpt lat="44.15173717930338" lon="11.687869759219046"><ele>245.0</ele><time>2026-05-02T10:40:28.001Z</time></trkpt><trkpt lat="44.15163912488893" lon="11.687946823841461"><ele>244.6</ele><time>2026-05-02T10:40:29.001Z</time></trkpt><trkpt lat="44.1515416860663" lon="11.688023955165017"><ele>244.2</ele><time>2026-05-02T10:40:30.001Z</time></trkpt><trkpt lat="44.15144521717492" lon="11.688097463512262"><ele>243.8</ele><time>2026-05-02T10:40:31.001Z</time></trkpt><trkpt lat="44.15135217646143" lon="11.688168541855047"><ele>243.4</ele><time>2026-05-02T10:40:32.001Z</time></trkpt><trkpt lat="44.15125798582877" lon="11.688242183081"><ele>243.0</ele><time>2026-05-02T10:40:33.001Z</time></trkpt><trkpt lat="44.1511696060294" lon="11.688311959327157"><ele>243.0</ele><time>2026-05-02T10:40:34.001Z</time></trkpt><trkpt lat="44.151084218797536" lon="11.688383955690155"><ele>243.0</ele><time>2026-05-02T10:40:35.001Z</time></trkpt><trkpt lat="44.15100322360892" lon="11.688453397252783"><ele>243.0</ele><time>2026-05-02T10:40:36.001Z</time></trkpt><trkpt lat="44.150917763499606" lon="11.688529657225683"><ele>243.0</ele><time>2026-05-02T10:40:37.001Z</time></trkpt><trkpt lat="44.15082692317746" lon="11.688601506800943"><ele>243.0</ele><time>2026-05-02T10:40:38.001Z</time></trkpt><trkpt lat="44.15073367966737" lon="11.688670644258885"><ele>241.60000000000002</ele><time>2026-05-02T10:40:39.002Z</time></trkpt><trkpt lat="44.15063856334735" lon="11.688743042427673"><ele>240.20000000000002</ele><time>2026-05-02T10:40:40.002Z</time></trkpt><trkpt lat="44.150542548575295" lon="11.688817936677236"><ele>238.8</ele><time>2026-05-02T10:40:41.002Z</time></trkpt><trkpt lat="44.150447648164445" lon="11.688896190182437"><ele>237.4</ele><time>2026-05-02T10:40:42.002Z</time></trkpt><trkpt lat="44.15035494996552" lon="11.688979556723822"><ele>236.0</ele><time>2026-05-02T10:40:43.002Z</time></trkpt><trkpt lat="44.150262866465276" lon="11.68906773322799"><ele>236.0</ele><time>2026-05-02T10:40:44.002Z</time></trkpt><trkpt lat="44.1501717085655" lon="11.68915875723487"><ele>236.00000000000003</ele><time>2026-05-02T10:40:45.002Z</time></trkpt><trkpt lat="44.150079722083134" lon="11.689248174616242"><ele>236.00000000000003</ele><time>2026-05-02T10:40:46.002Z</time></trkpt><trkpt lat="44.149989924529216" lon="11.689343531184191"><ele>236.0</ele><time>2026-05-02T10:40:47.002Z</time></trkpt><trkpt lat="44.14990528227061" lon="11.689432586606884"><ele>236.0</ele><time>2026-05-02T10:40:48.002Z</time></trkpt><trkpt lat="44.149823741623834" lon="11.68952262082159"><ele>235.4</ele><time>2026-05-02T10:40:49.002Z</time></trkpt><trkpt lat="44.14974548782656" lon="11.68961145656769"><ele>234.8</ele><time>2026-05-02T10:40:50.002Z</time></trkpt><trkpt lat="44.14966970792754" lon="11.689701085223685"><ele>234.20000000000002</ele><time>2026-05-02T10:40:51.002Z</time></trkpt><trkpt lat="44.14960201841131" lon="11.689783591554212"><ele>233.60000000000002</ele><time>2026-05-02T10:40:52.002Z</time></trkpt><trkpt lat="44.149535597716635" lon="11.68986092928136"><ele>233.0</ele><time>2026-05-02T10:40:53.002Z</time></trkpt><trkpt lat="44.14947308568551" lon="11.689942819694808"><ele>233.00000000000003</ele><time>2026-05-02T10:40:54.002Z</time></trkpt><trkpt lat="44.149411484172845" lon="11.69002543290682"><ele>233.0</ele><time>2026-05-02T10:40:55.002Z</time></trkpt><trkpt lat="44.14935403393849" lon="11.69010078217719"><ele>233.0</ele><time>2026-05-02T10:40:56.002Z</time></trkpt><trkpt lat="44.149289138625015" lon="11.69014895986071"><ele>233.0</ele><time>2026-05-02T10:40:57.002Z</time></trkpt><trkpt lat="44.14921679639253" lon="11.690174273668736"><ele>233.00000000000003</ele><time>2026-05-02T10:40:58.002Z</time></trkpt><trkpt lat="44.14913651470219" lon="11.690150387804922"><ele>233.0</ele><time>2026-05-02T10:40:59.002Z</time></trkpt><trkpt lat="44.149054378523985" lon="11.690098491362717"><ele>232.33333333333334</ele><time>2026-05-02T10:41:00.002Z</time></trkpt><trkpt lat="44.14897865819416" lon="11.690037714464415"><ele>231.66666666666669</ele><time>2026-05-02T10:41:01.002Z</time></trkpt><trkpt lat="44.1489149267938" lon="11.689985705510436"><ele>231.0</ele><time>2026-05-02T10:41:02.002Z</time></trkpt><trkpt lat="44.14885451999581" lon="11.68993873674039"><ele>230.33333333333331</ele><time>2026-05-02T10:41:03.002Z</time></trkpt><trkpt lat="44.14879185418918" lon="11.689890421139102"><ele>229.66666666666666</ele><time>2026-05-02T10:41:04.002Z</time></trkpt><trkpt lat="44.14873048055603" lon="11.689838108079"><ele>229.0</ele><time>2026-05-02T10:41:05.002Z</time></trkpt><trkpt lat="44.148672253442626" lon="11.689762420298605"><ele>229.0</ele><time>2026-05-02T10:41:06.002Z</time></trkpt><trkpt lat="44.14861446602268" lon="11.689681651380772"><ele>228.99999999999997</ele><time>2026-05-02T10:41:07.002Z</time></trkpt><trkpt lat="44.14855815764304" lon="11.689582537954136"><ele>228.99999999999997</ele><time>2026-05-02T10:41:08.002Z</time></trkpt><trkpt lat="44.14850434676927" lon="11.689471799995452"><ele>229.0</ele><time>2026-05-02T10:41:09.002Z</time></trkpt><trkpt lat="44.148445857937254" lon="11.689348713210762"><ele>229.0</ele><time>2026-05-02T10:41:10.002Z</time></trkpt><trkpt lat="44.14838736878675" lon="11.689220292529093"><ele>229.0</ele><time>2026-05-02T10:41:11.002Z</time></trkpt><trkpt lat="44.14832814854934" lon="11.689101213373483"><ele>228.99999999999997</ele><time>2026-05-02T10:41:12.002Z</time></trkpt><trkpt lat="44.148267279606905" lon="11.68898822515009"><ele>228.99999999999997</ele><time>2026-05-02T10:41:13.002Z</time></trkpt><trkpt lat="44.148188195040305" lon="11.688894341241383"><ele>229.0</ele><time>2026-05-02T10:41:14.003Z</time></trkpt><trkpt lat="44.14808873626661" lon="11.68883946676833"><ele>229.0</ele><time>2026-05-02T10:41:15.003Z</time></trkpt><trkpt lat="44.14798405381303" lon="11.688813967161767"><ele>228.6</ele><time>2026-05-02T10:41:16.003Z</time></trkpt><trkpt lat="44.14787902196007" lon="11.688793944010952"><ele>228.2</ele><time>2026-05-02T10:41:17.003Z</time></trkpt><trkpt lat="44.14777010056437" lon="11.68875965486268"><ele>227.79999999999998</ele><time>2026-05-02T10:41:18.003Z</time></trkpt><trkpt lat="44.14766163636911" lon="11.688712049319527"><ele>227.39999999999998</ele><time>2026-05-02T10:41:19.003Z</time></trkpt><trkpt lat="44.14756184838003" lon="11.688661902817804"><ele>227.0</ele><time>2026-05-02T10:41:20.003Z</time></trkpt><trkpt lat="44.147466626532484" lon="11.688595111973637"><ele>228.5</ele><time>2026-05-02T10:41:21.003Z</time></trkpt><trkpt lat="44.14737723375282" lon="11.688503650631093"><ele>230.0</ele><time>2026-05-02T10:41:22.003Z</time></trkpt><trkpt lat="44.147296817868416" lon="11.688388011803914"><ele>231.5</ele><time>2026-05-02T10:41:23.003Z</time></trkpt><trkpt lat="44.14721398123957" lon="11.688259760880767"><ele>233.0</ele><time>2026-05-02T10:41:24.003Z</time></trkpt><trkpt lat="44.14712419893892" lon="11.688118415086283"><ele>233.33333333333334</ele><time>2026-05-02T10:41:25.003Z</time></trkpt><trkpt lat="44.14702913477572" lon="11.687967389792174"><ele>233.66666666666669</ele><time>2026-05-02T10:41:26.003Z</time></trkpt><trkpt lat="44.146925128903874" lon="11.687805154171038"><ele>234.0</ele><time>2026-05-02T10:41:27.003Z</time></trkpt><trkpt lat="44.14681759668045" lon="11.687630827510587"><ele>234.0</ele><time>2026-05-02T10:41:28.003Z</time></trkpt><trkpt lat="44.146706331179395" lon="11.687456590242315"><ele>234.0</ele><time>2026-05-02T10:41:29.003Z</time></trkpt><trkpt lat="44.14658555847328" lon="11.687301439577046"><ele>234.0</ele><time>2026-05-02T10:41:30.003Z</time></trkpt><trkpt lat="44.14644552792072" lon="11.687164262383753"><ele>235.66666666666669</ele><time>2026-05-02T10:41:31.003Z</time></trkpt><trkpt lat="44.146288633287256" lon="11.687043509113428"><ele>237.33333333333334</ele><time>2026-05-02T10:41:32.003Z</time></trkpt><trkpt lat="44.14612394165248" lon="11.686928630948174"><ele>239.0</ele><time>2026-05-02T10:41:33.003Z</time></trkpt><trkpt lat="44.14595207216346" lon="11.686817403826167"><ele>239.0</ele><time>2026-05-02T10:41:34.003Z</time></trkpt><trkpt lat="44.1457836079903" lon="11.68670363037487"><ele>239.0</ele><time>2026-05-02T10:41:35.003Z</time></trkpt><trkpt lat="44.14562492561107" lon="11.686596407011153"><ele>239.0</ele><time>2026-05-02T10:41:36.003Z</time></trkpt><trkpt lat="44.145461442795515" lon="11.686487597418509"><ele>235.33333333333334</ele><time>2026-05-02T10:41:37.003Z</time></trkpt><trkpt lat="44.145295162700144" lon="11.686379350330633"><ele>231.66666666666669</ele><time>2026-05-02T10:41:38.003Z</time></trkpt><trkpt lat="44.14513331874028" lon="11.686273670824145"><ele>228.0</ele><time>2026-05-02T10:41:39.003Z</time></trkpt><trkpt lat="44.14497505749659" lon="11.68616739942408"><ele>230.33333333333331</ele><time>2026-05-02T10:41:40Z</time></trkpt><trkpt lat="44.14481885863866" lon="11.68606642482173"><ele>232.66666666666666</ele><time>2026-05-02T10:41:41Z</time></trkpt><trkpt lat="44.14466548645993" lon="11.685966405921022"><ele>235.0</ele><time>2026-05-02T10:41:42Z</time></trkpt><trkpt lat="44.14451519132762" lon="11.68586696365734"><ele>235.0</ele><time>2026-05-02T10:41:43Z</time></trkpt><trkpt lat="44.14437203650856" lon="11.68577533419091"><ele>235.0</ele><time>2026-05-02T10:41:44Z</time></trkpt><trkpt lat="44.14424117898862" lon="11.685687691247013"><ele>235.0</ele><time>2026-05-02T10:41:45Z</time></trkpt><trkpt lat="44.144113088770496" lon="11.685602874804507"><ele>235.0</ele><time>2026-05-02T10:41:46Z</time></trkpt><trkpt lat="44.143981221564964" lon="11.685519914826688"><ele>233.33333333333331</ele><time>2026-05-02T10:41:47Z</time></trkpt><trkpt lat="44.14384727564923" lon="11.68543193619287"><ele>231.66666666666669</ele><time>2026-05-02T10:41:48Z</time></trkpt><trkpt lat="44.14370853956197" lon="11.685344272364704"><ele>230.0</ele><time>2026-05-02T10:41:49Z</time></trkpt><trkpt lat="44.14356102982266" lon="11.685273260811865"><ele>232.66666666666669</ele><time>2026-05-02T10:41:50Z</time></trkpt><trkpt lat="44.14340020846131" lon="11.685221332400735"><ele>235.33333333333331</ele><time>2026-05-02T10:41:51Z</time></trkpt><trkpt lat="44.14322685987171" lon="11.685180822124142"><ele>238.0</ele><time>2026-05-02T10:41:52Z</time></trkpt><trkpt lat="44.14304241183998" lon="11.685150434773679"><ele>238.0</ele><time>2026-05-02T10:41:53Z</time></trkpt><trkpt lat="44.142851707875785" lon="11.685120937068938"><ele>238.0</ele><time>2026-05-02T10:41:54Z</time></trkpt><trkpt lat="44.14265539812223" lon="11.685092432431482"><ele>238.0</ele><time>2026-05-02T10:41:55Z</time></trkpt><trkpt lat="44.14245830103642" lon="11.685061940834784"><ele>238.33333333333331</ele><time>2026-05-02T10:41:56Z</time></trkpt><trkpt lat="44.14226008816719" lon="11.685029787590615"><ele>238.66666666666669</ele><time>2026-05-02T10:41:57Z</time></trkpt><trkpt lat="44.142060893406445" lon="11.685004765301557"><ele>239.0</ele><time>2026-05-02T10:41:58Z</time></trkpt><trkpt lat="44.14186223890749" lon="11.684988408612638"><ele>239.0</ele><time>2026-05-02T10:41:59Z</time></trkpt><trkpt lat="44.141669013999746" lon="11.684973621492693"><ele>239.0</ele><time>2026-05-02T10:42:00Z</time></trkpt><trkpt lat="44.14147785658426" lon="11.684961059022974"><ele>239.0</ele><time>2026-05-02T10:42:01Z</time></trkpt><trkpt lat="44.141285981135084" lon="11.684951650992495"><ele>238.33333333333334</ele><time>2026-05-02T10:42:02Z</time></trkpt><trkpt lat="44.14109402556115" lon="11.684940002344298"><ele>237.66666666666669</ele><time>2026-05-02T10:42:03Z</time></trkpt><trkpt lat="44.140905021139034" lon="11.684925844177545"><ele>237.0</ele><time>2026-05-02T10:42:04Z</time></trkpt><trkpt lat="44.140719756531134" lon="11.684904884437406"><ele>236.66666666666669</ele><time>2026-05-02T10:42:05Z</time></trkpt><trkpt lat="44.14053460456364" lon="11.684873877011887"><ele>236.33333333333334</ele><time>2026-05-02T10:42:06.001Z</time></trkpt><trkpt lat="44.14034928063853" lon="11.684832297504505"><ele>236.0</ele><time>2026-05-02T10:42:07.001Z</time></trkpt><trkpt lat="44.140168794856166" lon="11.684775901585413"><ele>236.0</ele><time>2026-05-02T10:42:08.001Z</time></trkpt><trkpt lat="44.13999145688148" lon="11.684698128359145"><ele>236.0</ele><time>2026-05-02T10:42:09.001Z</time></trkpt><trkpt lat="44.13981824259508" lon="11.684597422273999"><ele>236.0</ele><time>2026-05-02T10:42:10.001Z</time></trkpt><trkpt lat="44.13964800132549" lon="11.684485897612667"><ele>237.66666666666669</ele><time>2026-05-02T10:42:11.001Z</time></trkpt><trkpt lat="44.13947541420773" lon="11.684367770099351"><ele>239.33333333333331</ele><time>2026-05-02T10:42:12.001Z</time></trkpt><trkpt lat="44.13929921908468" lon="11.684247257368977"><ele>241.0</ele><time>2026-05-02T10:42:13.001Z</time></trkpt><trkpt lat="44.139123163648236" lon="11.684132704296328"><ele>240.33333333333331</ele><time>2026-05-02T10:42:14.001Z</time></trkpt><trkpt lat="44.138943038106575" lon="11.684030737427813"><ele>239.66666666666669</ele><time>2026-05-02T10:42:15.001Z</time></trkpt><trkpt lat="44.13875710246683" lon="11.683945606355762"><ele>239.0</ele><time>2026-05-02T10:42:16.001Z</time></trkpt><trkpt lat="44.138570112486505" lon="11.683868336530772"><ele>239.0</ele><time>2026-05-02T10:42:17.001Z</time></trkpt><trkpt lat="44.13838957099253" lon="11.68379465754273"><ele>239.0</ele><time>2026-05-02T10:42:18.001Z</time></trkpt><trkpt lat="44.13821659921762" lon="11.683726471214777"><ele>239.0</ele><time>2026-05-02T10:42:19.001Z</time></trkpt><trkpt lat="44.13804442166466" lon="11.683656285601135"><ele>241.33333333333334</ele><time>2026-05-02T10:42:20.001Z</time></trkpt><trkpt lat="44.137869731985035" lon="11.683585729890881"><ele>243.66666666666669</ele><time>2026-05-02T10:42:21.001Z</time></trkpt><trkpt lat="44.1376954425659" lon="11.683523395626006"><ele>246.0</ele><time>2026-05-02T10:42:22.001Z</time></trkpt><trkpt lat="44.137528724240646" lon="11.683487236845794"><ele>243.66666666666669</ele><time>2026-05-02T10:42:23.001Z</time></trkpt><trkpt lat="44.13736617383459" lon="11.683465688579766"><ele>241.33333333333334</ele><time>2026-05-02T10:42:24.001Z</time></trkpt><trkpt lat="44.13720035956602" lon="11.683437873984365"><ele>239.0</ele><time>2026-05-02T10:42:25.001Z</time></trkpt><trkpt lat="44.13703870323435" lon="11.68337748400628"><ele>239.0</ele><time>2026-05-02T10:42:26.001Z</time></trkpt><trkpt lat="44.136879309279124" lon="11.683289138162662"><ele>239.0</ele><time>2026-05-02T10:42:27.001Z</time></trkpt><trkpt lat="44.136721919130046" lon="11.68318571499918"><ele>239.0</ele><time>2026-05-02T10:42:28.001Z</time></trkpt><trkpt lat="44.13656941557543" lon="11.68307175266797"><ele>240.66666666666669</ele><time>2026-05-02T10:42:29.001Z</time></trkpt><trkpt lat="44.13642049931506" lon="11.682945605318986"><ele>242.33333333333331</ele><time>2026-05-02T10:42:30.001Z</time></trkpt><trkpt lat="44.136273021834924" lon="11.682816117243657"><ele>244.0</ele><time>2026-05-02T10:42:31.001Z</time></trkpt><trkpt lat="44.1361197998122" lon="11.682702865499651"><ele>244.0</ele><time>2026-05-02T10:42:32.001Z</time></trkpt><trkpt lat="44.13596048934519" lon="11.68260792271485"><ele>244.0</ele><time>2026-05-02T10:42:33.001Z</time></trkpt><trkpt lat="44.13579222553354" lon="11.682538986300273"><ele>244.0</ele><time>2026-05-02T10:42:34.001Z</time></trkpt><trkpt lat="44.13561800191517" lon="11.682490929368553"><ele>242.33333333333331</ele><time>2026-05-02T10:42:35.001Z</time></trkpt><trkpt lat="44.13544249944835" lon="11.682447676392083"><ele>240.66666666666669</ele><time>2026-05-02T10:42:36.001Z</time></trkpt><trkpt lat="44.13527182389451" lon="11.68241099591627"><ele>239.0</ele><time>2026-05-02T10:42:37.001Z</time></trkpt><trkpt lat="44.13510944393042" lon="11.682379714676852"><ele>239.0</ele><time>2026-05-02T10:42:38.001Z</time></trkpt><trkpt lat="44.13495299533764" lon="11.682371258634928"><ele>239.0</ele><time>2026-05-02T10:42:39.001Z</time></trkpt><trkpt lat="44.13479570957783" lon="11.682375194819329"><ele>239.0</ele><time>2026-05-02T10:42:40.001Z</time></trkpt><trkpt lat="44.13464883805369" lon="11.68236703060949"><ele>236.75</ele><time>2026-05-02T10:42:41.001Z</time></trkpt><trkpt lat="44.13450905680573" lon="11.682333474673056"><ele>234.5</ele><time>2026-05-02T10:42:42.001Z</time></trkpt><trkpt lat="44.13436958873766" lon="11.682256816549529"><ele>232.25</ele><time>2026-05-02T10:42:43.001Z</time></trkpt><trkpt lat="44.1342401734261" lon="11.682156995717985"><ele>230.0</ele><time>2026-05-02T10:42:44.001Z</time></trkpt><trkpt lat="44.13413005873218" lon="11.682062650874084"><ele>229.8</ele><time>2026-05-02T10:42:45.001Z</time></trkpt><trkpt lat="44.13403149399958" lon="11.68197693682413"><ele>229.6</ele><time>2026-05-02T10:42:46.001Z</time></trkpt><trkpt lat="44.133958501802695" lon="11.681868718278967"><ele>229.39999999999998</ele><time>2026-05-02T10:42:47.002Z</time></trkpt><trkpt lat="44.13391463585249" lon="11.681734539130103"><ele>229.2</ele><time>2026-05-02T10:42:48.002Z</time></trkpt><trkpt lat="44.133883999697204" lon="11.681575902888646"><ele>229.0</ele><time>2026-05-02T10:42:49.002Z</time></trkpt><trkpt lat="44.13384853169059" lon="11.68140418661638"><ele>229.0</ele><time>2026-05-02T10:42:50.002Z</time></trkpt><trkpt lat="44.13379103657386" lon="11.6812347648741"><ele>229.0</ele><time>2026-05-02T10:42:51.002Z</time></trkpt><trkpt lat="44.13370676547699" lon="11.681076005567508"><ele>229.0</ele><time>2026-05-02T10:42:52.002Z</time></trkpt><trkpt lat="44.13359293556276" lon="11.68092881467119"><ele>229.0</ele><time>2026-05-02T10:42:53.002Z</time></trkpt><trkpt lat="44.13346230503218" lon="11.680792853604549"><ele>230.0</ele><time>2026-05-02T10:42:54.002Z</time></trkpt><trkpt lat="44.13333002151411" lon="11.680654458949654"><ele>231.0</ele><time>2026-05-02T10:42:55.002Z</time></trkpt><trkpt lat="44.1332009774002" lon="11.680521413104605"><ele>232.0</ele><time>2026-05-02T10:42:56.002Z</time></trkpt><trkpt lat="44.13307347774665" lon="11.68039467999122"><ele>232.0</ele><time>2026-05-02T10:42:57.002Z</time></trkpt><trkpt lat="44.132942008301775" lon="11.680283818912722"><ele>232.0</ele><time>2026-05-02T10:42:58.002Z</time></trkpt><trkpt lat="44.13279374703214" lon="11.680213642342403"><ele>232.0</ele><time>2026-05-02T10:42:59.002Z</time></trkpt><trkpt lat="44.13263184635789" lon="11.6801793577501"><ele>237.66666666666666</ele><time>2026-05-02T10:43:00.002Z</time></trkpt><trkpt lat="44.13246595971589" lon="11.680172763439657"><ele>243.33333333333331</ele><time>2026-05-02T10:43:01.002Z</time></trkpt><trkpt lat="44.13229598177115" lon="11.680168348675883"><ele>249.0</ele><time>2026-05-02T10:43:02.002Z</time></trkpt><trkpt lat="44.132124907055115" lon="11.680156600967484"><ele>249.66666666666669</ele><time>2026-05-02T10:43:03.002Z</time></trkpt><trkpt lat="44.13195487258305" lon="11.680136578940582"><ele>250.33333333333334</ele><time>2026-05-02T10:43:04.002Z</time></trkpt><trkpt lat="44.13178231092576" lon="11.680117644394418"><ele>251.0</ele><time>2026-05-02T10:43:05.002Z</time></trkpt><trkpt lat="44.13161332175472" lon="11.680123021081027"><ele>248.0</ele><time>2026-05-02T10:43:06.002Z</time></trkpt><trkpt lat="44.13144838586784" lon="11.680179797012828"><ele>245.0</ele><time>2026-05-02T10:43:07.002Z</time></trkpt><trkpt lat="44.131291401906985" lon="11.680276041320864"><ele>242.0</ele><time>2026-05-02T10:43:08.002Z</time></trkpt><trkpt lat="44.13113665143848" lon="11.680389643307949"><ele>242.0</ele><time>2026-05-02T10:43:09.002Z</time></trkpt><trkpt lat="44.13099005835089" lon="11.680512278752634"><ele>242.0</ele><time>2026-05-02T10:43:10.002Z</time></trkpt><trkpt lat="44.13084101828972" lon="11.68063551704412"><ele>242.0</ele><time>2026-05-02T10:43:11.002Z</time></trkpt><trkpt lat="44.13069880633901" lon="11.680752491927006"><ele>245.33333333333334</ele><time>2026-05-02T10:43:12.002Z</time></trkpt><trkpt lat="44.13056596967" lon="11.680866560886388"><ele>248.66666666666669</ele><time>2026-05-02T10:43:13.002Z</time></trkpt><trkpt lat="44.130436805211225" lon="11.680976775236998"><ele>252.0</ele><time>2026-05-02T10:43:14.002Z</time></trkpt><trkpt lat="44.1303042961728" lon="11.681074940718618"><ele>248.33333333333331</ele><time>2026-05-02T10:43:15.002Z</time></trkpt><trkpt lat="44.13016068289977" lon="11.681147606259412"><ele>244.66666666666666</ele><time>2026-05-02T10:43:16.002Z</time></trkpt><trkpt lat="44.1300122398651" lon="11.681194946897737"><ele>241.0</ele><time>2026-05-02T10:43:17.002Z</time></trkpt><trkpt lat="44.129850219541545" lon="11.681196635620203"><ele>238.66666666666666</ele><time>2026-05-02T10:43:18.002Z</time></trkpt><trkpt lat="44.12968123040746" lon="11.681168656939242"><ele>236.33333333333331</ele><time>2026-05-02T10:43:19.002Z</time></trkpt><trkpt lat="44.129513425803694" lon="11.6811340038527"><ele>234.0</ele><time>2026-05-02T10:43:20.002Z</time></trkpt><trkpt lat="44.1293571558593" lon="11.681097770928915"><ele>235.33333333333331</ele><time>2026-05-02T10:43:21.002Z</time></trkpt><trkpt lat="44.12920226726635" lon="11.681050155071928"><ele>236.66666666666666</ele><time>2026-05-02T10:43:22.002Z</time></trkpt><trkpt lat="44.12905641083009" lon="11.680978760083303"><ele>238.0</ele><time>2026-05-02T10:43:23.002Z</time></trkpt><trkpt lat="44.12892611238786" lon="11.680879660220347"><ele>238.0</ele><time>2026-05-02T10:43:24.002Z</time></trkpt><trkpt lat="44.128814754453074" lon="11.680765915257584"><ele>238.0</ele><time>2026-05-02T10:43:25.003Z</time></trkpt><trkpt lat="44.12871706820119" lon="11.680627611425377"><ele>238.0</ele><time>2026-05-02T10:43:26.003Z</time></trkpt><trkpt lat="44.12863645926254" lon="11.680453843592861"><ele>238.0</ele><time>2026-05-02T10:43:27.003Z</time></trkpt><trkpt lat="44.12857492938567" lon="11.680253873896527"><ele>240.33333333333331</ele><time>2026-05-02T10:43:28.003Z</time></trkpt><trkpt lat="44.12852546944469" lon="11.680038135809724"><ele>242.66666666666669</ele><time>2026-05-02T10:43:29.003Z</time></trkpt><trkpt lat="44.128446446456586" lon="11.679854377571997"><ele>245.0</ele><time>2026-05-02T10:43:30.003Z</time></trkpt><trkpt lat="44.128343553634345" lon="11.679689257016467"><ele>243.33333333333334</ele><time>2026-05-02T10:43:31.003Z</time></trkpt><trkpt lat="44.12821730197246" lon="11.679548236785427"><ele>241.66666666666669</ele><time>2026-05-02T10:43:32.003Z</time></trkpt><trkpt lat="44.12807169642249" lon="11.679448053204377"><ele>240.0</ele><time>2026-05-02T10:43:33.003Z</time></trkpt><trkpt lat="44.12792023814705" lon="11.679380025758167"><ele>247.66666666666669</ele><time>2026-05-02T10:43:34.003Z</time></trkpt><trkpt lat="44.12776205734849" lon="11.679331405371018"><ele>255.33333333333334</ele><time>2026-05-02T10:43:35.003Z</time></trkpt><trkpt lat="44.12759677807142" lon="11.679304353684039"><ele>263.0</ele><time>2026-05-02T10:43:36.003Z</time></trkpt><trkpt lat="44.12743662442044" lon="11.679318429370348"><ele>258.33333333333337</ele><time>2026-05-02T10:43:37.003Z</time></trkpt><trkpt lat="44.1272785694389" lon="11.679367811532254"><ele>253.66666666666669</ele><time>2026-05-02T10:43:38.003Z</time></trkpt><trkpt lat="44.1271226640402" lon="11.6794192703249"><ele>249.0</ele><time>2026-05-02T10:43:39.003Z</time></trkpt><trkpt lat="44.12696955035017" lon="11.67943525754072"><ele>249.0</ele><time>2026-05-02T10:43:40.003Z</time></trkpt><trkpt lat="44.126814826888534" lon="11.679408378391658"><ele>249.0</ele><time>2026-05-02T10:43:41.003Z</time></trkpt><trkpt lat="44.12666645490568" lon="11.679351515932229"><ele>249.0</ele><time>2026-05-02T10:43:42.003Z</time></trkpt><trkpt lat="44.12652841065496" lon="11.679292512345143"><ele>248.25</ele><time>2026-05-02T10:43:43.003Z</time></trkpt><trkpt lat="44.12639431573592" lon="11.67924431966796"><ele>247.5</ele><time>2026-05-02T10:43:44.003Z</time></trkpt><trkpt lat="44.12626293137951" lon="11.679217448420896"><ele>246.75</ele><time>2026-05-02T10:43:45.003Z</time></trkpt><trkpt lat="44.12613607756593" lon="11.67921511173039"><ele>246.0</ele><time>2026-05-02T10:43:46Z</time></trkpt><trkpt lat="44.12601591752251" lon="11.679238800530573"><ele>246.0</ele><time>2026-05-02T10:43:47Z</time></trkpt><trkpt lat="44.12590316535471" lon="11.679275826658134"><ele>246.00000000000003</ele><time>2026-05-02T10:43:48Z</time></trkpt><trkpt lat="44.12579843718123" lon="11.67932430853376"><ele>246.00000000000003</ele><time>2026-05-02T10:43:49Z</time></trkpt><trkpt lat="44.125701855358194" lon="11.679382131242438"><ele>246.0</ele><time>2026-05-02T10:43:50Z</time></trkpt><trkpt lat="44.12560891094367" lon="11.679436550872499"><ele>246.0</ele><time>2026-05-02T10:43:51Z</time></trkpt><trkpt lat="44.125511123437576" lon="11.679472123964674"><ele>244.5</ele><time>2026-05-02T10:43:52Z</time></trkpt><trkpt lat="44.12540513545746" lon="11.679485150513777"><ele>243.0</ele><time>2026-05-02T10:43:53Z</time></trkpt><trkpt lat="44.125287803257685" lon="11.67947723948294"><ele>241.5</ele><time>2026-05-02T10:43:54Z</time></trkpt><trkpt lat="44.12516345499694" lon="11.679425091981988"><ele>240.0</ele><time>2026-05-02T10:43:55Z</time></trkpt><trkpt lat="44.12503544615107" lon="11.67935243184197"><ele>240.0</ele><time>2026-05-02T10:43:56Z</time></trkpt><trkpt lat="44.12490497941969" lon="11.679266150457456"><ele>240.0</ele><time>2026-05-02T10:43:57Z</time></trkpt><trkpt lat="44.124779645698986" lon="11.679173168374351"><ele>240.0</ele><time>2026-05-02T10:43:58Z</time></trkpt><trkpt lat="44.12466010814426" lon="11.679076458964849"><ele>240.0</ele><time>2026-05-02T10:43:59Z</time></trkpt><trkpt lat="44.12453771361402" lon="11.678982050235351"><ele>238.25</ele><time>2026-05-02T10:44:00Z</time></trkpt><trkpt lat="44.12441140759519" lon="11.678886734879281"><ele>236.5</ele><time>2026-05-02T10:44:01Z</time></trkpt><trkpt lat="44.12428825956771" lon="11.678790722706704"><ele>234.75</ele><time>2026-05-02T10:44:02Z</time></trkpt><trkpt lat="44.12417139634145" lon="11.678697635240884"><ele>233.0</ele><time>2026-05-02T10:44:03Z</time></trkpt><trkpt lat="44.12406202862257" lon="11.678613297509436"><ele>233.25</ele><time>2026-05-02T10:44:04Z</time></trkpt><trkpt lat="44.123952226191015" lon="11.67853507965303"><ele>233.5</ele><time>2026-05-02T10:44:05Z</time></trkpt><trkpt lat="44.12384552849262" lon="11.678477615569076"><ele>233.75</ele><time>2026-05-02T10:44:06Z</time></trkpt><trkpt lat="44.12373522649537" lon="11.678451011045013"><ele>234.0</ele><time>2026-05-02T10:44:07Z</time></trkpt><trkpt lat="44.12362435163714" lon="11.678463703802521"><ele>234.0</ele><time>2026-05-02T10:44:08Z</time></trkpt><trkpt lat="44.1235141158247" lon="11.678512391541261"><ele>234.0</ele><time>2026-05-02T10:44:09Z</time></trkpt><trkpt lat="44.123410746873006" lon="11.678598940579953"><ele>234.0</ele><time>2026-05-02T10:44:10Z</time></trkpt><trkpt lat="44.12330587323194" lon="11.678706544412158"><ele>234.0</ele><time>2026-05-02T10:44:11.001Z</time></trkpt><trkpt lat="44.123193973012384" lon="11.678808454353334"><ele>234.25</ele><time>2026-05-02T10:44:12.001Z</time></trkpt><trkpt lat="44.12307506130511" lon="11.678912644133352"><ele>234.5</ele><time>2026-05-02T10:44:13.001Z</time></trkpt><trkpt lat="44.12295432244776" lon="11.679020545078206"><ele>234.75</ele><time>2026-05-02T10:44:14.001Z</time></trkpt><trkpt lat="44.12283823501371" lon="11.679121277163201"><ele>235.0</ele><time>2026-05-02T10:44:15.001Z</time></trkpt><trkpt lat="44.122725291988566" lon="11.679204607401944"><ele>235.0</ele><time>2026-05-02T10:44:16.001Z</time></trkpt><trkpt lat="44.122598473110486" lon="11.679266180454421"><ele>235.0</ele><time>2026-05-02T10:44:17.001Z</time></trkpt><trkpt lat="44.12245594187842" lon="11.679298596525422"><ele>235.0</ele><time>2026-05-02T10:44:18.001Z</time></trkpt><trkpt lat="44.122305433553535" lon="11.679312185985118"><ele>235.0</ele><time>2026-05-02T10:44:19.001Z</time></trkpt><trkpt lat="44.12214679957489" lon="11.67931780682591"><ele>235.33333333333331</ele><time>2026-05-02T10:44:20.001Z</time></trkpt><trkpt lat="44.12198364462579" lon="11.679334758622895"><ele>235.66666666666669</ele><time>2026-05-02T10:44:21.001Z</time></trkpt><trkpt lat="44.121818072885176" lon="11.679355536561072"><ele>236.0</ele><time>2026-05-02T10:44:22.001Z</time></trkpt><trkpt lat="44.12164544626514" lon="11.679376777668843"><ele>236.0</ele><time>2026-05-02T10:44:23.001Z</time></trkpt><trkpt lat="44.12147043135063" lon="11.679397369738691"><ele>236.0</ele><time>2026-05-02T10:44:24.001Z</time></trkpt><trkpt lat="44.12130034560304" lon="11.679416806630785"><ele>236.0</ele><time>2026-05-02T10:44:25.001Z</time></trkpt><trkpt lat="44.12113715331379" lon="11.679437742091107"><ele>239.66666666666669</ele><time>2026-05-02T10:44:26.001Z</time></trkpt><trkpt lat="44.12097153524816" lon="11.679458280697277"><ele>243.33333333333331</ele><time>2026-05-02T10:44:27.001Z</time></trkpt><trkpt lat="44.12080807173741" lon="11.679478631307962"><ele>247.0</ele><time>2026-05-02T10:44:28.001Z</time></trkpt><trkpt lat="44.12064639867083" lon="11.679493948050109"><ele>250.33333333333331</ele><time>2026-05-02T10:44:29.001Z</time></trkpt><trkpt lat="44.1204822838953" lon="11.67951136801273"><ele>253.66666666666669</ele><time>2026-05-02T10:44:30.001Z</time></trkpt><trkpt lat="44.12031918348883" lon="11.679529927759605"><ele>257.0</ele><time>2026-05-02T10:44:31.001Z</time></trkpt><trkpt lat="44.120154902777905" lon="11.679548151070003"><ele>257.0</ele><time>2026-05-02T10:44:32.001Z</time></trkpt><trkpt lat="44.119990285877556" lon="11.679568669903928"><ele>257.0</ele><time>2026-05-02T10:44:33.001Z</time></trkpt><trkpt lat="44.119825528709946" lon="11.679590426465637"><ele>257.0</ele><time>2026-05-02T10:44:34.001Z</time></trkpt><trkpt lat="44.11966240338173" lon="11.679606176333444"><ele>261.33333333333337</ele><time>2026-05-02T10:44:35.001Z</time></trkpt><trkpt lat="44.11950627713293" lon="11.679606273318903"><ele>265.6666666666667</ele><time>2026-05-02T10:44:36.001Z</time></trkpt><trkpt lat="44.11935509783764" lon="11.679587321689803"><ele>270.0</ele><time>2026-05-02T10:44:37.001Z</time></trkpt><trkpt lat="44.11920660953344" lon="11.679556805495828"><ele>268.0</ele><time>2026-05-02T10:44:38.001Z</time></trkpt><trkpt lat="44.11906729480101" lon="11.679525448328071"><ele>266.0</ele><time>2026-05-02T10:44:39.001Z</time></trkpt><trkpt lat="44.11894040912803" lon="11.67948579893723"><ele>264.0</ele><time>2026-05-02T10:44:40.001Z</time></trkpt><trkpt lat="44.11882295108994" lon="11.679420865686106"><ele>262.0</ele><time>2026-05-02T10:44:41.001Z</time></trkpt><trkpt lat="44.118714545219284" lon="11.679318819550303"><ele>262.0</ele><time>2026-05-02T10:44:42.001Z</time></trkpt><trkpt lat="44.118619037938466" lon="11.679173989593162"><ele>262.0</ele><time>2026-05-02T10:44:43.001Z</time></trkpt><trkpt lat="44.11852197518129" lon="11.679018142037853"><ele>262.0</ele><time>2026-05-02T10:44:44.001Z</time></trkpt><trkpt lat="44.118419066874104" lon="11.678858597785087"><ele>262.0</ele><time>2026-05-02T10:44:45.001Z</time></trkpt><trkpt lat="44.118305880096834" lon="11.678694238707966"><ele>262.0</ele><time>2026-05-02T10:44:46.001Z</time></trkpt><trkpt lat="44.11818870518611" lon="11.678528245791131"><ele>262.0</ele><time>2026-05-02T10:44:47.001Z</time></trkpt><trkpt lat="44.11807554832133" lon="11.678358643629842"><ele>262.0</ele><time>2026-05-02T10:44:48.001Z</time></trkpt><trkpt lat="44.11796344152573" lon="11.678182002808219"><ele>262.0</ele><time>2026-05-02T10:44:49.001Z</time></trkpt><trkpt lat="44.117852892986726" lon="11.678005807048915"><ele>262.0</ele><time>2026-05-02T10:44:50.001Z</time></trkpt><trkpt lat="44.117745380972835" lon="11.677836000837233"><ele>262.0</ele><time>2026-05-02T10:44:51.001Z</time></trkpt><trkpt lat="44.11763909990888" lon="11.67767702188352"><ele>261.5</ele><time>2026-05-02T10:44:52.002Z</time></trkpt><trkpt lat="44.11753174151925" lon="11.677530067474374"><ele>261.0</ele><time>2026-05-02T10:44:53.002Z</time></trkpt><trkpt lat="44.11742213546324" lon="11.67741053343976"><ele>260.5</ele><time>2026-05-02T10:44:54.002Z</time></trkpt><trkpt lat="44.11730645347257" lon="11.677312551805532"><ele>260.0</ele><time>2026-05-02T10:44:55.002Z</time></trkpt><trkpt lat="44.11719471725618" lon="11.677219771912611"><ele>260.0</ele><time>2026-05-02T10:44:56.002Z</time></trkpt><trkpt lat="44.117084359307555" lon="11.677143963335784"><ele>260.0</ele><time>2026-05-02T10:44:57.002Z</time></trkpt><trkpt lat="44.11696569886335" lon="11.677098813590128"><ele>260.0</ele><time>2026-05-02T10:44:58.002Z</time></trkpt><trkpt lat="44.11683452225935" lon="11.677070074526831"><ele>260.0</ele><time>2026-05-02T10:44:59.002Z</time></trkpt><trkpt lat="44.11669381799549" lon="11.677079463743352"><ele>258.5</ele><time>2026-05-02T10:45:00.002Z</time></trkpt><trkpt lat="44.116546921293306" lon="11.677091173196095"><ele>257.0</ele><time>2026-05-02T10:45:01.002Z</time></trkpt><trkpt lat="44.116402658933325" lon="11.677110059923274"><ele>255.5</ele><time>2026-05-02T10:45:02.002Z</time></trkpt><trkpt lat="44.11625719788623" lon="11.677130341857776"><ele>254.0</ele><time>2026-05-02T10:45:03.002Z</time></trkpt><trkpt lat="44.1161104503981" lon="11.677153649624419"><ele>254.0</ele><time>2026-05-02T10:45:04.002Z</time></trkpt><trkpt lat="44.115959827448286" lon="11.677174005648679"><ele>254.0</ele><time>2026-05-02T10:45:05.002Z</time></trkpt><trkpt lat="44.11580416097489" lon="11.677193061048397"><ele>254.0</ele><time>2026-05-02T10:45:06.002Z</time></trkpt><trkpt lat="44.11564769134609" lon="11.67721153897009"><ele>255.0</ele><time>2026-05-02T10:45:07.002Z</time></trkpt><trkpt lat="44.115495750819726" lon="11.677233533038823"><ele>256.0</ele><time>2026-05-02T10:45:08.002Z</time></trkpt><trkpt lat="44.11534439714433" lon="11.677256110138373"><ele>257.0</ele><time>2026-05-02T10:45:09.002Z</time></trkpt><trkpt lat="44.115190938262614" lon="11.677269479308608"><ele>257.0</ele><time>2026-05-02T10:45:10.002Z</time></trkpt><trkpt lat="44.11503206826324" lon="11.677262975225007"><ele>257.0</ele><time>2026-05-02T10:45:11.002Z</time></trkpt><trkpt lat="44.11487743727946" lon="11.677230255862353"><ele>257.0</ele><time>2026-05-02T10:45:12.002Z</time></trkpt><trkpt lat="44.11472897446129" lon="11.677174732214768"><ele>259.25</ele><time>2026-05-02T10:45:13.002Z</time></trkpt><trkpt lat="44.11458521547263" lon="11.677109810790743"><ele>261.5</ele><time>2026-05-02T10:45:14.002Z</time></trkpt><trkpt lat="44.114445298559325" lon="11.6770363130925"><ele>263.75</ele><time>2026-05-02T10:45:15.002Z</time></trkpt><trkpt lat="44.114305620626645" lon="11.67696567557962"><ele>266.0</ele><time>2026-05-02T10:45:16.002Z</time></trkpt><trkpt lat="44.114165736071925" lon="11.676898699458494"><ele>263.25</ele><time>2026-05-02T10:45:17.002Z</time></trkpt><trkpt lat="44.11402936396749" lon="11.676831895263597"><ele>260.5</ele><time>2026-05-02T10:45:18.002Z</time></trkpt><trkpt lat="44.11390377956553" lon="11.676770699726749"><ele>257.75</ele><time>2026-05-02T10:45:19.002Z</time></trkpt><trkpt lat="44.11378667704364" lon="11.676714454216716"><ele>255.0</ele><time>2026-05-02T10:45:20.002Z</time></trkpt><trkpt lat="44.113687016455266" lon="11.676644420219235"><ele>255.0</ele><time>2026-05-02T10:45:21.002Z</time></trkpt><trkpt lat="44.113603852282914" lon="11.676546729746315"><ele>255.0</ele><time>2026-05-02T10:45:22.002Z</time></trkpt><trkpt lat="44.11353413929392" lon="11.676420245237178"><ele>255.0</ele><time>2026-05-02T10:45:23.002Z</time></trkpt><trkpt lat="44.11346902537139" lon="11.676264540367224"><ele>255.0</ele><time>2026-05-02T10:45:24.002Z</time></trkpt><trkpt lat="44.113395482529285" lon="11.676105613447676"><ele>254.25</ele><time>2026-05-02T10:45:25.002Z</time></trkpt><trkpt lat="44.113322377343145" lon="11.675948855400751"><ele>253.5</ele><time>2026-05-02T10:45:26.002Z</time></trkpt><trkpt lat="44.11324502622427" lon="11.675789478851163"><ele>252.75</ele><time>2026-05-02T10:45:27.002Z</time></trkpt><trkpt lat="44.11316692610149" lon="11.675632675103275"><ele>252.0</ele><time>2026-05-02T10:45:28.002Z</time></trkpt><trkpt lat="44.113091002444776" lon="11.67547437420851"><ele>251.5</ele><time>2026-05-02T10:45:29.002Z</time></trkpt><trkpt lat="44.11302712165228" lon="11.675316940296428"><ele>251.0</ele><time>2026-05-02T10:45:30.002Z</time></trkpt><trkpt lat="44.112974364637125" lon="11.675154609084494"><ele>250.5</ele><time>2026-05-02T10:45:31.002Z</time></trkpt><trkpt lat="44.112923055029604" lon="11.674980128051297"><ele>250.0</ele><time>2026-05-02T10:45:32.003Z</time></trkpt><trkpt lat="44.1128814023524" lon="11.67478781629091"><ele>250.0</ele><time>2026-05-02T10:45:33.003Z</time></trkpt><trkpt lat="44.112849767231666" lon="11.674580108294846"><ele>250.0</ele><time>2026-05-02T10:45:34.003Z</time></trkpt><trkpt lat="44.11282077233442" lon="11.674359823936925"><ele>250.0</ele><time>2026-05-02T10:45:35.003Z</time></trkpt><trkpt lat="44.11278910514715" lon="11.674127812698172"><ele>248.66666666666666</ele><time>2026-05-02T10:45:36.003Z</time></trkpt><trkpt lat="44.112758279856294" lon="11.67388881313412"><ele>247.33333333333331</ele><time>2026-05-02T10:45:37.003Z</time></trkpt><trkpt lat="44.112723038299926" lon="11.673646608598483"><ele>246.0</ele><time>2026-05-02T10:45:38.003Z</time></trkpt><trkpt lat="44.11268346330048" lon="11.673412160876943"><ele>245.33333333333331</ele><time>2026-05-02T10:45:39.003Z</time></trkpt><trkpt lat="44.11263886017816" lon="11.67318681556454"><ele>244.66666666666666</ele><time>2026-05-02T10:45:40.003Z</time></trkpt><trkpt lat="44.11258699893239" lon="11.672975393628642"><ele>244.0</ele><time>2026-05-02T10:45:41.003Z</time></trkpt><trkpt lat="44.11253186887803" lon="11.672783351923604"><ele>243.75</ele><time>2026-05-02T10:45:42.003Z</time></trkpt><trkpt lat="44.11247124648634" lon="11.67259640707307"><ele>243.5</ele><time>2026-05-02T10:45:43.003Z</time></trkpt><trkpt lat="44.112407952735424" lon="11.672408148707794"><ele>243.25</ele><time>2026-05-02T10:45:44.003Z</time></trkpt><trkpt lat="44.1123461021385" lon="11.672218533566928"><ele>243.0</ele><time>2026-05-02T10:45:45.003Z</time></trkpt><trkpt lat="44.1122830528467" lon="11.672026023885616"><ele>244.33333333333331</ele><time>2026-05-02T10:45:46.003Z</time></trkpt><trkpt lat="44.112218158512306" lon="11.671835428440694"><ele>245.66666666666666</ele><time>2026-05-02T10:45:47.003Z</time></trkpt><trkpt lat="44.1121512409831" lon="11.67164081030743"><ele>247.0</ele><time>2026-05-02T10:45:48.003Z</time></trkpt><trkpt lat="44.11208051223572" lon="11.671447318520315"><ele>247.0</ele><time>2026-05-02T10:45:49.003Z</time></trkpt><trkpt lat="44.111995856592515" lon="11.6712589165437"><ele>247.0</ele><time>2026-05-02T10:45:50.003Z</time></trkpt><trkpt lat="44.111899370982435" lon="11.671078696459888"><ele>247.0</ele><time>2026-05-02T10:45:51.003Z</time></trkpt><trkpt lat="44.11179988604465" lon="11.670897588418827"><ele>247.33333333333331</ele><time>2026-05-02T10:45:52Z</time></trkpt><trkpt lat="44.111698973719704" lon="11.670713966331311"><ele>247.66666666666669</ele><time>2026-05-02T10:45:53Z</time></trkpt><trkpt lat="44.11159502636066" lon="11.670527345240206"><ele>248.0</ele><time>2026-05-02T10:45:54Z</time></trkpt><trkpt lat="44.11148948798243" lon="11.670341106585955"><ele>247.66666666666669</ele><time>2026-05-02T10:45:55Z</time></trkpt><trkpt lat="44.111381712386304" lon="11.670150936648621"><ele>247.33333333333331</ele><time>2026-05-02T10:45:56Z</time></trkpt><trkpt lat="44.1112705181999" lon="11.669957967323459"><ele>247.0</ele><time>2026-05-02T10:45:57Z</time></trkpt><trkpt lat="44.111155006902784" lon="11.669764995293443"><ele>247.0</ele><time>2026-05-02T10:45:58Z</time></trkpt><trkpt lat="44.111033264805755" lon="11.669577484032159"><ele>247.0</ele><time>2026-05-02T10:45:59Z</time></trkpt><trkpt lat="44.11090790559322" lon="11.669390966015916"><ele>247.0</ele><time>2026-05-02T10:46:00Z</time></trkpt><trkpt lat="44.110786616853396" lon="11.669203570869138"><ele>246.66666666666666</ele><time>2026-05-02T10:46:01Z</time></trkpt><trkpt lat="44.11066657223228" lon="11.669019022316128"><ele>246.33333333333331</ele><time>2026-05-02T10:46:02Z</time></trkpt><trkpt lat="44.11054788493406" lon="11.668830609794325"><ele>246.0</ele><time>2026-05-02T10:46:03Z</time></trkpt><trkpt lat="44.11042888446959" lon="11.668651625214057"><ele>246.0</ele><time>2026-05-02T10:46:04Z</time></trkpt><trkpt lat="44.1103120853494" lon="11.668480393636717"><ele>246.0</ele><time>2026-05-02T10:46:05Z</time></trkpt><trkpt lat="44.110195082024156" lon="11.668311439425649"><ele>246.0</ele><time>2026-05-02T10:46:06Z</time></trkpt><trkpt lat="44.11008063962064" lon="11.66814420381968"><ele>246.0</ele><time>2026-05-02T10:46:07Z</time></trkpt><trkpt lat="44.10996613499117" lon="11.667980722798989"><ele>246.0</ele><time>2026-05-02T10:46:08Z</time></trkpt><trkpt lat="44.10985346086653" lon="11.667815843087908"><ele>246.0</ele><time>2026-05-02T10:46:09Z</time></trkpt><trkpt lat="44.109740110035055" lon="11.66765251717083"><ele>247.33333333333331</ele><time>2026-05-02T10:46:10Z</time></trkpt><trkpt lat="44.109628022246206" lon="11.667486479447522"><ele>248.66666666666666</ele><time>2026-05-02T10:46:11Z</time></trkpt><trkpt lat="44.10951883918424" lon="11.667326790609927"><ele>250.0</ele><time>2026-05-02T10:46:12Z</time></trkpt><trkpt lat="44.10941169183961" lon="11.667167416779463"><ele>250.0</ele><time>2026-05-02T10:46:13Z</time></trkpt><trkpt lat="44.10929999852317" lon="11.667015695381394"><ele>250.0</ele><time>2026-05-02T10:46:14Z</time></trkpt><trkpt lat="44.10918278381943" lon="11.666879314153688"><ele>250.0</ele><time>2026-05-02T10:46:15Z</time></trkpt><trkpt lat="44.10905448879349" lon="11.666759583551025"><ele>250.66666666666666</ele><time>2026-05-02T10:46:16.001Z</time></trkpt><trkpt lat="44.10892050810009" lon="11.666646115375388"><ele>251.33333333333331</ele><time>2026-05-02T10:46:17.001Z</time></trkpt><trkpt lat="44.10878241727242" lon="11.666533431001522"><ele>252.0</ele><time>2026-05-02T10:46:18.001Z</time></trkpt><trkpt lat="44.10864277477845" lon="11.666421347899629"><ele>252.0</ele><time>2026-05-02T10:46:19.001Z</time></trkpt><trkpt lat="44.10850054585789" lon="11.666308833654831"><ele>252.0</ele><time>2026-05-02T10:46:20.001Z</time></trkpt><trkpt lat="44.1083535516293" lon="11.66619602098883"><ele>252.0</ele><time>2026-05-02T10:46:21.001Z</time></trkpt><trkpt lat="44.10820555363932" lon="11.666083291675834"><ele>252.66666666666669</ele><time>2026-05-02T10:46:22.001Z</time></trkpt><trkpt lat="44.10805803668104" lon="11.665967150297451"><ele>253.33333333333334</ele><time>2026-05-02T10:46:23.001Z</time></trkpt><trkpt lat="44.10790711752628" lon="11.665845123823603"><ele>254.0</ele><time>2026-05-02T10:46:24.001Z</time></trkpt><trkpt lat="44.107755719046196" lon="11.665724128466312"><ele>254.0</ele><time>2026-05-02T10:46:25.001Z</time></trkpt><trkpt lat="44.10760711163981" lon="11.665597380407176"><ele>254.0</ele><time>2026-05-02T10:46:26.001Z</time></trkpt><trkpt lat="44.10746470192525" lon="11.665461945972433"><ele>254.0</ele><time>2026-05-02T10:46:27.001Z</time></trkpt><trkpt lat="44.1073350917245" lon="11.665332815361102"><ele>254.75</ele><time>2026-05-02T10:46:28.001Z</time></trkpt><trkpt lat="44.107212948173505" lon="11.66521342658532"><ele>255.5</ele><time>2026-05-02T10:46:29.001Z</time></trkpt><trkpt lat="44.10709399335313" lon="11.665099679021134"><ele>256.25</ele><time>2026-05-02T10:46:30.001Z</time></trkpt><trkpt lat="44.10697643765592" lon="11.664989711210216"><ele>257.0</ele><time>2026-05-02T10:46:31.001Z</time></trkpt><trkpt lat="44.106857180167964" lon="11.664884888064941"><ele>257.0</ele><time>2026-05-02T10:46:32.001Z</time></trkpt><trkpt lat="44.106739129301886" lon="11.66477944291813"><ele>257.0</ele><time>2026-05-02T10:46:33.001Z</time></trkpt><trkpt lat="44.10661985592189" lon="11.664669025966857"><ele>257.0</ele><time>2026-05-02T10:46:34.001Z</time></trkpt><trkpt lat="44.106499058363035" lon="11.664560932307777"><ele>257.0</ele><time>2026-05-02T10:46:35.001Z</time></trkpt><trkpt lat="44.10637707074407" lon="11.664455140229794"><ele>258.0</ele><time>2026-05-02T10:46:36.001Z</time></trkpt><trkpt lat="44.106255337134435" lon="11.664348750171841"><ele>259.0</ele><time>2026-05-02T10:46:37.001Z</time></trkpt><trkpt lat="44.10613387999854" lon="11.664247067620225"><ele>260.0</ele><time>2026-05-02T10:46:38.001Z</time></trkpt><trkpt lat="44.10601282973545" lon="11.664144657827059"><ele>261.0</ele><time>2026-05-02T10:46:39.001Z</time></trkpt><trkpt lat="44.1058983673934" lon="11.664047813041574"><ele>261.0</ele><time>2026-05-02T10:46:40.001Z</time></trkpt><trkpt lat="44.10579244603278" lon="11.663957206625978"><ele>261.0</ele><time>2026-05-02T10:46:41.001Z</time></trkpt><trkpt lat="44.10569418200937" lon="11.663867703556217"><ele>261.0</ele><time>2026-05-02T10:46:42.001Z</time></trkpt><trkpt lat="44.10559627829817" lon="11.663779880227972"><ele>261.0</ele><time>2026-05-02T10:46:43.001Z</time></trkpt><trkpt lat="44.10549817674474" lon="11.663695104282612"><ele>261.40000000000003</ele><time>2026-05-02T10:46:44.001Z</time></trkpt><trkpt lat="44.105405730516225" lon="11.663606534696635"><ele>261.8</ele><time>2026-05-02T10:46:45.001Z</time></trkpt><trkpt lat="44.10531678931059" lon="11.663520234261549"><ele>262.20000000000005</ele><time>2026-05-02T10:46:46.001Z</time></trkpt><trkpt lat="44.10523288272548" lon="11.663437086581926"><ele>262.6</ele><time>2026-05-02T10:46:47.001Z</time></trkpt><trkpt lat="44.105150511244915" lon="11.663348656228095"><ele>263.0</ele><time>2026-05-02T10:46:48.001Z</time></trkpt><trkpt lat="44.10506888258279" lon="11.663259114766532"><ele>263.0</ele><time>2026-05-02T10:46:49.001Z</time></trkpt><trkpt lat="44.10498460634242" lon="11.663170673279248"><ele>263.0</ele><time>2026-05-02T10:46:50.001Z</time></trkpt><trkpt lat="44.10490033461791" lon="11.663080601745023"><ele>263.0</ele><time>2026-05-02T10:46:51.001Z</time></trkpt><trkpt lat="44.10481711366025" lon="11.662985736559058"><ele>263.0</ele><time>2026-05-02T10:46:52.001Z</time></trkpt><trkpt lat="44.10473412486406" lon="11.662888140022458"><ele>263.0</ele><time>2026-05-02T10:46:53.001Z</time></trkpt><trkpt lat="44.10465308759161" lon="11.662797907529031"><ele>263.2</ele><time>2026-05-02T10:46:54.001Z</time></trkpt><trkpt lat="44.104578246149735" lon="11.662711003865123"><ele>263.4</ele><time>2026-05-02T10:46:55.001Z</time></trkpt><trkpt lat="44.1045098302699" lon="11.66262659203009"><ele>263.59999999999997</ele><time>2026-05-02T10:46:56.001Z</time></trkpt><trkpt lat="44.10443998917221" lon="11.66254140464445"><ele>263.8</ele><time>2026-05-02T10:46:57.001Z</time></trkpt><trkpt lat="44.10437023645241" lon="11.662464748828771"><ele>264.0</ele><time>2026-05-02T10:46:58.002Z</time></trkpt><trkpt lat="44.104294805788626" lon="11.662389744669865"><ele>264.0</ele><time>2026-05-02T10:46:59.002Z</time></trkpt><trkpt lat="44.10421835701702" lon="11.662310384063996"><ele>264.0</ele><time>2026-05-02T10:47:00.002Z</time></trkpt><trkpt lat="44.10413827943064" lon="11.662236279959792"><ele>264.0</ele><time>2026-05-02T10:47:01.002Z</time></trkpt><trkpt lat="44.10406565907789" lon="11.662162116045891"><ele>264.0</ele><time>2026-05-02T10:47:02.002Z</time></trkpt><trkpt lat="44.10399970339248" lon="11.662083564655271"><ele>264.0</ele><time>2026-05-02T10:47:03.002Z</time></trkpt><trkpt lat="44.10394307913418" lon="11.662003116647714"><ele>264.0</ele><time>2026-05-02T10:47:04.002Z</time></trkpt><trkpt lat="44.10389501645845" lon="11.66192539140652"><ele>265.3333333333333</ele><time>2026-05-02T10:47:05.002Z</time></trkpt><trkpt lat="44.103854967569596" lon="11.661852596114716"><ele>266.6666666666667</ele><time>2026-05-02T10:47:06.002Z</time></trkpt><trkpt lat="44.103793186225374" lon="11.661717087974678"><ele>268.0</ele><time>2026-05-02T10:47:08.002Z</time></trkpt><trkpt lat="44.10376049700101" lon="11.66163681443125"><ele>269.33333333333337</ele><time>2026-05-02T10:47:09.002Z</time></trkpt><trkpt lat="44.10372347044662" lon="11.661546250669403"><ele>270.6666666666667</ele><time>2026-05-02T10:47:10.002Z</time></trkpt><trkpt lat="44.10368428181145" lon="11.661444462567914"><ele>272.0</ele><time>2026-05-02T10:47:11.002Z</time></trkpt><trkpt lat="44.10364508157303" lon="11.661328666624902"><ele>272.0</ele><time>2026-05-02T10:47:12.002Z</time></trkpt><trkpt lat="44.10360760233456" lon="11.661199420248243"><ele>272.0</ele><time>2026-05-02T10:47:13.002Z</time></trkpt><trkpt lat="44.1035671548108" lon="11.661063349168911"><ele>272.0</ele><time>2026-05-02T10:47:14.002Z</time></trkpt><trkpt lat="44.10352559876521" lon="11.660935333523765"><ele>272.0</ele><time>2026-05-02T10:47:15.002Z</time></trkpt><trkpt lat="44.10348000790478" lon="11.660817886247026"><ele>272.0</ele><time>2026-05-02T10:47:16.002Z</time></trkpt><trkpt lat="44.103433657348184" lon="11.660696078387852"><ele>271.75</ele><time>2026-05-02T10:47:17.002Z</time></trkpt><trkpt lat="44.10338420061104" lon="11.660567612390304"><ele>271.5</ele><time>2026-05-02T10:47:18.002Z</time></trkpt><trkpt lat="44.103330892621884" lon="11.660420156513714"><ele>271.25</ele><time>2026-05-02T10:47:19.002Z</time></trkpt><trkpt lat="44.10327027949047" lon="11.660257953915105"><ele>271.0</ele><time>2026-05-02T10:47:20.002Z</time></trkpt><trkpt lat="44.103197762552014" lon="11.660077856058946"><ele>270.0</ele><time>2026-05-02T10:47:21.002Z</time></trkpt><trkpt lat="44.10311223247452" lon="11.65988520613793"><ele>269.0</ele><time>2026-05-02T10:47:22.002Z</time></trkpt><trkpt lat="44.10302195868647" lon="11.659678539789056"><ele>268.0</ele><time>2026-05-02T10:47:23.002Z</time></trkpt><trkpt lat="44.1029253410144" lon="11.659457995771023"><ele>267.66666666666663</ele><time>2026-05-02T10:47:24.002Z</time></trkpt><trkpt lat="44.10282036750028" lon="11.659227633139098"><ele>267.3333333333333</ele><time>2026-05-02T10:47:25.002Z</time></trkpt><trkpt lat="44.10271650880848" lon="11.659001483710213"><ele>267.0</ele><time>2026-05-02T10:47:26.002Z</time></trkpt><trkpt lat="44.102606928536964" lon="11.658766932810401"><ele>267.3333333333333</ele><time>2026-05-02T10:47:27.002Z</time></trkpt><trkpt lat="44.10249585935731" lon="11.658528744716202"><ele>267.66666666666663</ele><time>2026-05-02T10:47:28.002Z</time></trkpt><trkpt lat="44.10238437346752" lon="11.658284061728368"><ele>268.0</ele><time>2026-05-02T10:47:29.002Z</time></trkpt><trkpt lat="44.10227138018896" lon="11.658034134634361"><ele>268.0</ele><time>2026-05-02T10:47:30.002Z</time></trkpt><trkpt lat="44.10215418399522" lon="11.657781565263207"><ele>268.0</ele><time>2026-05-02T10:47:31.002Z</time></trkpt><trkpt lat="44.102041328673714" lon="11.657535335075606"><ele>268.0</ele><time>2026-05-02T10:47:32.002Z</time></trkpt><trkpt lat="44.10192753591223" lon="11.657288274147506"><ele>268.0</ele><time>2026-05-02T10:47:33.002Z</time></trkpt><trkpt lat="44.10181509670978" lon="11.657043481340647"><ele>268.0</ele><time>2026-05-02T10:47:34.002Z</time></trkpt><trkpt lat="44.1017053882819" lon="11.656798790220265"><ele>268.0</ele><time>2026-05-02T10:47:35.002Z</time></trkpt><trkpt lat="44.10159853574565" lon="11.656559113265248"><ele>269.3333333333333</ele><time>2026-05-02T10:47:36.002Z</time></trkpt><trkpt lat="44.101492217425076" lon="11.65632139305224"><ele>270.6666666666667</ele><time>2026-05-02T10:47:37.002Z</time></trkpt><trkpt lat="44.10138922370225" lon="11.656091035813587"><ele>272.0</ele><time>2026-05-02T10:47:38.002Z</time></trkpt><trkpt lat="44.10128737618991" lon="11.655857839018745"><ele>272.0</ele><time>2026-05-02T10:47:39.003Z</time></trkpt><trkpt lat="44.10118579086541" lon="11.655626115355869"><ele>272.0</ele><time>2026-05-02T10:47:40.003Z</time></trkpt><trkpt lat="44.101081833138565" lon="11.655392288901714"><ele>272.0</ele><time>2026-05-02T10:47:41.003Z</time></trkpt><trkpt lat="44.10097628167386" lon="11.655155598069733"><ele>272.0</ele><time>2026-05-02T10:47:42.003Z</time></trkpt><trkpt lat="44.1008700834194" lon="11.654918565883364"><ele>272.0</ele><time>2026-05-02T10:47:43.003Z</time></trkpt><trkpt lat="44.10076322974121" lon="11.654678019369532"><ele>272.0</ele><time>2026-05-02T10:47:44.003Z</time></trkpt><trkpt lat="44.10065488460611" lon="11.654434449740721"><ele>274.33333333333337</ele><time>2026-05-02T10:47:45.003Z</time></trkpt><trkpt lat="44.10054406544086" lon="11.654188385916225"><ele>276.6666666666667</ele><time>2026-05-02T10:47:46.003Z</time></trkpt><trkpt lat="44.10043242491164" lon="11.653939244844988"><ele>279.0</ele><time>2026-05-02T10:47:47.003Z</time></trkpt><trkpt lat="44.10032065269504" lon="11.653690328815255"><ele>276.3333333333333</ele><time>2026-05-02T10:47:48.003Z</time></trkpt><trkpt lat="44.10020835162414" lon="11.653441356384624"><ele>273.66666666666663</ele><time>2026-05-02T10:47:49.003Z</time></trkpt><trkpt lat="44.10009718775179" lon="11.65319116704237"><ele>271.0</ele><time>2026-05-02T10:47:50.003Z</time></trkpt><trkpt lat="44.099987114090375" lon="11.65294236831431"><ele>272.66666666666663</ele><time>2026-05-02T10:47:51.003Z</time></trkpt><trkpt lat="44.09987649289588" lon="11.65269508041134"><ele>274.3333333333333</ele><time>2026-05-02T10:47:52.003Z</time></trkpt><trkpt lat="44.09976421549774" lon="11.652446114791097"><ele>276.0</ele><time>2026-05-02T10:47:53.003Z</time></trkpt><trkpt lat="44.09965299130343" lon="11.652197866019435"><ele>274.0</ele><time>2026-05-02T10:47:54.003Z</time></trkpt><trkpt lat="44.09954214333597" lon="11.651949222938528"><ele>272.0</ele><time>2026-05-02T10:47:55.003Z</time></trkpt><trkpt lat="44.099432464438486" lon="11.65170209008982"><ele>270.0</ele><time>2026-05-02T10:47:56.003Z</time></trkpt><trkpt lat="44.09932485277851" lon="11.651454262934527"><ele>270.0</ele><time>2026-05-02T10:47:57.003Z</time></trkpt><trkpt lat="44.09922430067776" lon="11.651204276874669"><ele>270.0</ele><time>2026-05-02T10:47:58Z</time></trkpt><trkpt lat="44.09913286980706" lon="11.650953219831447"><ele>270.0</ele><time>2026-05-02T10:47:59Z</time></trkpt><trkpt lat="44.09905109385792" lon="11.650702041778759"><ele>273.0</ele><time>2026-05-02T10:48:00Z</time></trkpt><trkpt lat="44.09897635593148" lon="11.650447333251492"><ele>276.0</ele><time>2026-05-02T10:48:01Z</time></trkpt><trkpt lat="44.09890107465574" lon="11.650192775995121"><ele>279.0</ele><time>2026-05-02T10:48:02Z</time></trkpt><trkpt lat="44.09882809000191" lon="11.649942927896317"><ele>279.0</ele><time>2026-05-02T10:48:03Z</time></trkpt><trkpt lat="44.098753164736216" lon="11.64969269554462"><ele>279.0</ele><time>2026-05-02T10:48:04Z</time></trkpt><trkpt lat="44.09867933128482" lon="11.649444339464424"><ele>279.0</ele><time>2026-05-02T10:48:05Z</time></trkpt><trkpt lat="44.09860688346095" lon="11.649196477372008"><ele>278.0</ele><time>2026-05-02T10:48:06Z</time></trkpt><trkpt lat="44.09853483148971" lon="11.648952489501083"><ele>277.0</ele><time>2026-05-02T10:48:07Z</time></trkpt><trkpt lat="44.09846354046545" lon="11.648710355159386"><ele>276.0</ele><time>2026-05-02T10:48:08Z</time></trkpt><trkpt lat="44.09839243314373" lon="11.648470788525433"><ele>275.3333333333333</ele><time>2026-05-02T10:48:09Z</time></trkpt><trkpt lat="44.0983272209928" lon="11.64824535743947"><ele>274.66666666666663</ele><time>2026-05-02T10:48:10Z</time></trkpt><trkpt lat="44.098266507246336" lon="11.648027746634206"><ele>274.0</ele><time>2026-05-02T10:48:11Z</time></trkpt><trkpt lat="44.09821213958684" lon="11.64782381543138"><ele>276.66666666666663</ele><time>2026-05-02T10:48:12Z</time></trkpt><trkpt lat="44.09815874066498" lon="11.647627672956476"><ele>279.3333333333333</ele><time>2026-05-02T10:48:13Z</time></trkpt><trkpt lat="44.09809256503054" lon="11.647440667480126"><ele>282.0</ele><time>2026-05-02T10:48:14Z</time></trkpt><trkpt lat="44.09800783556979" lon="11.647261383020183"><ele>282.0</ele><time>2026-05-02T10:48:15Z</time></trkpt><trkpt lat="44.09791052702895" lon="11.647082916781772"><ele>282.0</ele><time>2026-05-02T10:48:16Z</time></trkpt><trkpt lat="44.09780126597996" lon="11.646909908716253"><ele>282.0</ele><time>2026-05-02T10:48:17Z</time></trkpt><trkpt lat="44.097688467768485" lon="11.64673993210842"><ele>281.6666666666667</ele><time>2026-05-02T10:48:18Z</time></trkpt><trkpt lat="44.09756856960013" lon="11.64657217158116"><ele>281.33333333333337</ele><time>2026-05-02T10:48:19Z</time></trkpt><trkpt lat="44.09745311317809" lon="11.646401906428498"><ele>281.0</ele><time>2026-05-02T10:48:20Z</time></trkpt><trkpt lat="44.097341069966035" lon="11.646229212904533"><ele>280.6666666666667</ele><time>2026-05-02T10:48:21Z</time></trkpt><trkpt lat="44.09722730459958" lon="11.646060239183718"><ele>280.3333333333333</ele><time>2026-05-02T10:48:22Z</time></trkpt><trkpt lat="44.097110395445924" lon="11.645896047484621"><ele>280.0</ele><time>2026-05-02T10:48:23Z</time></trkpt><trkpt lat="44.09699783186651" lon="11.645731096641482"><ele>280.0</ele><time>2026-05-02T10:48:24.001Z</time></trkpt><trkpt lat="44.096898437264244" lon="11.645561586007377"><ele>280.0</ele><time>2026-05-02T10:48:25.001Z</time></trkpt><trkpt lat="44.09681533079687" lon="11.645382821908768"><ele>280.0</ele><time>2026-05-02T10:48:26.001Z</time></trkpt><trkpt lat="44.096739529881404" lon="11.645197398301516"><ele>280.0</ele><time>2026-05-02T10:48:27.001Z</time></trkpt><trkpt lat="44.09667120214565" lon="11.645003007885114"><ele>280.0</ele><time>2026-05-02T10:48:28.001Z</time></trkpt><trkpt lat="44.0966146635556" lon="11.644799055241887"><ele>280.0</ele><time>2026-05-02T10:48:29.001Z</time></trkpt><trkpt lat="44.09656750243851" lon="11.644587909290893"><ele>279.3333333333333</ele><time>2026-05-02T10:48:30.001Z</time></trkpt><trkpt lat="44.09651453738193" lon="11.644377555680833"><ele>278.6666666666667</ele><time>2026-05-02T10:48:31.001Z</time></trkpt><trkpt lat="44.09644805543615" lon="11.644173765006503"><ele>278.0</ele><time>2026-05-02T10:48:32.001Z</time></trkpt><trkpt lat="44.09636969252313" lon="11.643970522938396"><ele>278.0</ele><time>2026-05-02T10:48:33.001Z</time></trkpt><trkpt lat="44.09628289941774" lon="11.643772735341669"><ele>278.0</ele><time>2026-05-02T10:48:34.001Z</time></trkpt><trkpt lat="44.09619413897018" lon="11.64357059007514"><ele>278.0</ele><time>2026-05-02T10:48:35.001Z</time></trkpt><trkpt lat="44.09610752843826" lon="11.643368979343256"><ele>278.0</ele><time>2026-05-02T10:48:36.001Z</time></trkpt><trkpt lat="44.096023816973826" lon="11.643169461734786"><ele>278.0</ele><time>2026-05-02T10:48:37.001Z</time></trkpt><trkpt lat="44.09594229476771" lon="11.642975376044468"><ele>278.0</ele><time>2026-05-02T10:48:38.001Z</time></trkpt><trkpt lat="44.09586737065532" lon="11.642789586594226"><ele>277.75</ele><time>2026-05-02T10:48:39.001Z</time></trkpt><trkpt lat="44.09579506771233" lon="11.642605301278635"><ele>277.5</ele><time>2026-05-02T10:48:40.001Z</time></trkpt><trkpt lat="44.09571990067528" lon="11.642426884980386"><ele>277.25</ele><time>2026-05-02T10:48:41.001Z</time></trkpt><trkpt lat="44.095642292987606" lon="11.642253133385084"><ele>277.0</ele><time>2026-05-02T10:48:42.001Z</time></trkpt><trkpt lat="44.09556771066832" lon="11.642076708818983"><ele>278.0</ele><time>2026-05-02T10:48:43.001Z</time></trkpt><trkpt lat="44.09549274276623" lon="11.641899034172848"><ele>279.0</ele><time>2026-05-02T10:48:44.001Z</time></trkpt><trkpt lat="44.09541585984651" lon="11.641723148842184"><ele>280.0</ele><time>2026-05-02T10:48:45.001Z</time></trkpt><trkpt lat="44.09534204386204" lon="11.641551535651432"><ele>281.0</ele><time>2026-05-02T10:48:46.001Z</time></trkpt><trkpt lat="44.095272636023815" lon="11.641386645841507"><ele>281.0</ele><time>2026-05-02T10:48:47.001Z</time></trkpt><trkpt lat="44.09520479896877" lon="11.641220439597674"><ele>281.0</ele><time>2026-05-02T10:48:48.001Z</time></trkpt><trkpt lat="44.09513769581812" lon="11.641052796624352"><ele>281.0</ele><time>2026-05-02T10:48:49.001Z</time></trkpt><trkpt lat="44.09506990150136" lon="11.64088505553636"><ele>281.0</ele><time>2026-05-02T10:48:50.001Z</time></trkpt><trkpt lat="44.095000110780624" lon="11.640718971677222"><ele>280.75</ele><time>2026-05-02T10:48:51.001Z</time></trkpt><trkpt lat="44.09493003137647" lon="11.640551939171758"><ele>280.5</ele><time>2026-05-02T10:48:52.001Z</time></trkpt><trkpt lat="44.09486393920097" lon="11.640394424320977"><ele>280.25</ele><time>2026-05-02T10:48:53.001Z</time></trkpt><trkpt lat="44.09480313714879" lon="11.64023978746003"><ele>280.0</ele><time>2026-05-02T10:48:54.001Z</time></trkpt><trkpt lat="44.09474392145091" lon="11.640084516511624"><ele>280.0</ele><time>2026-05-02T10:48:55.001Z</time></trkpt><trkpt lat="44.09468250962819" lon="11.639921606176824"><ele>280.0</ele><time>2026-05-02T10:48:56.001Z</time></trkpt><trkpt lat="44.094620973341414" lon="11.639754618688405"><ele>280.0</ele><time>2026-05-02T10:48:57.001Z</time></trkpt><trkpt lat="44.09456205590995" lon="11.639578333971121"><ele>280.0</ele><time>2026-05-02T10:48:58.001Z</time></trkpt><trkpt lat="44.094504237540285" lon="11.639397526718055"><ele>278.25</ele><time>2026-05-02T10:48:59.001Z</time></trkpt><trkpt lat="44.09445134698666" lon="11.639209141913023"><ele>276.5</ele><time>2026-05-02T10:49:00.001Z</time></trkpt><trkpt lat="44.094401225352364" lon="11.639029044722143"><ele>274.75</ele><time>2026-05-02T10:49:01.001Z</time></trkpt><trkpt lat="44.09435357020524" lon="11.63886709578314"><ele>273.0</ele><time>2026-05-02T10:49:02.001Z</time></trkpt><trkpt lat="44.09430471122009" lon="11.638713433636243"><ele>273.5</ele><time>2026-05-02T10:49:03.001Z</time></trkpt><trkpt lat="44.09424691221513" lon="11.63857261180964"><ele>274.0</ele><time>2026-05-02T10:49:04.001Z</time></trkpt><trkpt lat="44.094175528671954" lon="11.638442043294338"><ele>274.5</ele><time>2026-05-02T10:49:05.001Z</time></trkpt><trkpt lat="44.0940836586549" lon="11.63834018810579"><ele>275.0</ele><time>2026-05-02T10:49:06.001Z</time></trkpt><trkpt lat="44.093979425501296" lon="11.638258969429017"><ele>275.0</ele><time>2026-05-02T10:49:07.002Z</time></trkpt><trkpt lat="44.09387053564943" lon="11.638197190084712"><ele>275.0</ele><time>2026-05-02T10:49:08.002Z</time></trkpt><trkpt lat="44.09376060361234" lon="11.638140771402883"><ele>275.0</ele><time>2026-05-02T10:49:09.002Z</time></trkpt><trkpt lat="44.09365392618439" lon="11.638080008978712"><ele>275.0</ele><time>2026-05-02T10:49:10.002Z</time></trkpt><trkpt lat="44.09355057007597" lon="11.638012122347396"><ele>275.0</ele><time>2026-05-02T10:49:11.002Z</time></trkpt><trkpt lat="44.09344234629326" lon="11.637948611392117"><ele>275.0</ele><time>2026-05-02T10:49:12.002Z</time></trkpt><trkpt lat="44.09333349587526" lon="11.63787466636133"><ele>275.0</ele><time>2026-05-02T10:49:13.002Z</time></trkpt><trkpt lat="44.0932204977375" lon="11.637789912513602"><ele>275.0</ele><time>2026-05-02T10:49:14.002Z</time></trkpt><trkpt lat="44.09310631465118" lon="11.637692437746809"><ele>276.25</ele><time>2026-05-02T10:49:15.002Z</time></trkpt><trkpt lat="44.09298995011712" lon="11.637585577831688"><ele>277.5</ele><time>2026-05-02T10:49:16.002Z</time></trkpt><trkpt lat="44.09288184771034" lon="11.637479197082232"><ele>278.75</ele><time>2026-05-02T10:49:17.002Z</time></trkpt><trkpt lat="44.0927882734296" lon="11.637373061721476"><ele>280.0</ele><time>2026-05-02T10:49:18.002Z</time></trkpt><trkpt lat="44.09270387061525" lon="11.637259617103654"><ele>280.0</ele><time>2026-05-02T10:49:19.002Z</time></trkpt><trkpt lat="44.09262005864621" lon="11.637141721005863"><ele>280.0</ele><time>2026-05-02T10:49:20.002Z</time></trkpt><trkpt lat="44.0925362254856" lon="11.637026837156691"><ele>280.0</ele><time>2026-05-02T10:49:21.002Z</time></trkpt><trkpt lat="44.09244863831528" lon="11.636919843610286"><ele>280.0</ele><time>2026-05-02T10:49:22.002Z</time></trkpt><trkpt lat="44.09235952005781" lon="11.636818262463406"><ele>281.25</ele><time>2026-05-02T10:49:23.002Z</time></trkpt><trkpt lat="44.09226449907875" lon="11.636706934688208"><ele>282.5</ele><time>2026-05-02T10:49:24.002Z</time></trkpt><trkpt lat="44.09216611862775" lon="11.636586278664526"><ele>283.75</ele><time>2026-05-02T10:49:25.002Z</time></trkpt><trkpt lat="44.092064764407944" lon="11.636460260319874"><ele>285.0</ele><time>2026-05-02T10:49:26.002Z</time></trkpt><trkpt lat="44.09195735856664" lon="11.636326486799405"><ele>285.0</ele><time>2026-05-02T10:49:27.002Z</time></trkpt><trkpt lat="44.09184035277881" lon="11.636195115279818"><ele>285.0</ele><time>2026-05-02T10:49:28.002Z</time></trkpt><trkpt lat="44.091716985738266" lon="11.6360720013449"><ele>285.0</ele><time>2026-05-02T10:49:29.002Z</time></trkpt><trkpt lat="44.09159025838849" lon="11.635955827780226"><ele>285.5</ele><time>2026-05-02T10:49:30.002Z</time></trkpt><trkpt lat="44.09146027881281" lon="11.635846865564387"><ele>286.0</ele><time>2026-05-02T10:49:31.002Z</time></trkpt><trkpt lat="44.0913330994486" lon="11.635748004989708"><ele>286.5</ele><time>2026-05-02T10:49:32.002Z</time></trkpt><trkpt lat="44.09120962258873" lon="11.635649086625028"><ele>287.0</ele><time>2026-05-02T10:49:33.002Z</time></trkpt><trkpt lat="44.09108907919247" lon="11.63555519091326"><ele>287.0</ele><time>2026-05-02T10:49:34.002Z</time></trkpt><trkpt lat="44.09097324359849" lon="11.63546246966077"><ele>287.0</ele><time>2026-05-02T10:49:35.002Z</time></trkpt><trkpt lat="44.09085041395495" lon="11.635361773314548"><ele>287.0</ele><time>2026-05-02T10:49:36.002Z</time></trkpt><trkpt lat="44.09072592789782" lon="11.635269673374465"><ele>287.0</ele><time>2026-05-02T10:49:37.002Z</time></trkpt><trkpt lat="44.090608715999814" lon="11.635173562427134"><ele>287.0</ele><time>2026-05-02T10:49:38.002Z</time></trkpt><trkpt lat="44.09048929880677" lon="11.635078326698164"><ele>287.0</ele><time>2026-05-02T10:49:39.002Z</time></trkpt><trkpt lat="44.090368556677944" lon="11.634981185570233"><ele>287.0</ele><time>2026-05-02T10:49:40.002Z</time></trkpt><trkpt lat="44.09025477668427" lon="11.634892921631439"><ele>287.0</ele><time>2026-05-02T10:49:41.002Z</time></trkpt><trkpt lat="44.09014758628986" lon="11.634812652389334"><ele>287.0</ele><time>2026-05-02T10:49:42.002Z</time></trkpt><trkpt lat="44.090047188587675" lon="11.634734641365108"><ele>287.0</ele><time>2026-05-02T10:49:43.002Z</time></trkpt><trkpt lat="44.08994812985069" lon="11.634652282196216"><ele>287.0</ele><time>2026-05-02T10:49:44.002Z</time></trkpt><trkpt lat="44.089851482903285" lon="11.634565508480291"><ele>287.0</ele><time>2026-05-02T10:49:45.002Z</time></trkpt><trkpt lat="44.08975140690679" lon="11.63446342532062"><ele>287.5</ele><time>2026-05-02T10:49:46.002Z</time></trkpt><trkpt lat="44.08965335958749" lon="11.634350187725975"><ele>288.0</ele><time>2026-05-02T10:49:47.002Z</time></trkpt><trkpt lat="44.08954970030793" lon="11.6342354523553"><ele>288.5</ele><time>2026-05-02T10:49:48.002Z</time></trkpt><trkpt lat="44.08944034841212" lon="11.634110082298353"><ele>289.0</ele><time>2026-05-02T10:49:49.003Z</time></trkpt><trkpt lat="44.08933112066868" lon="11.633975080496901"><ele>289.0</ele><time>2026-05-02T10:49:50.003Z</time></trkpt><trkpt lat="44.089227964703156" lon="11.633818083662888"><ele>289.0</ele><time>2026-05-02T10:49:51.003Z</time></trkpt><trkpt lat="44.089139797700135" lon="11.63364435851279"><ele>289.0</ele><time>2026-05-02T10:49:52.003Z</time></trkpt><trkpt lat="44.08906566445017" lon="11.633455542138963"><ele>288.0</ele><time>2026-05-02T10:49:53.003Z</time></trkpt><trkpt lat="44.088999482880794" lon="11.633267964092855"><ele>287.0</ele><time>2026-05-02T10:49:54.003Z</time></trkpt><trkpt lat="44.08893151392232" lon="11.633079859468731"><ele>286.0</ele><time>2026-05-02T10:49:55.003Z</time></trkpt><trkpt lat="44.0888625217521" lon="11.632894993816153"><ele>286.75</ele><time>2026-05-02T10:49:56.003Z</time></trkpt><trkpt lat="44.08878800317789" lon="11.632711150906381"><ele>287.5</ele><time>2026-05-02T10:49:57.003Z</time></trkpt><trkpt lat="44.08871477587389" lon="11.63253793469093"><ele>288.25</ele><time>2026-05-02T10:49:58.003Z</time></trkpt><trkpt lat="44.0886496136821" lon="11.632349712977007"><ele>289.0</ele><time>2026-05-02T10:49:59.003Z</time></trkpt><trkpt lat="44.088580396970634" lon="11.632171605225931"><ele>289.0</ele><time>2026-05-02T10:50:00.003Z</time></trkpt><trkpt lat="44.08852745029791" lon="11.631992271530933"><ele>289.0</ele><time>2026-05-02T10:50:01.003Z</time></trkpt><trkpt lat="44.08848030654444" lon="11.631818241163474"><ele>289.0</ele><time>2026-05-02T10:50:02.003Z</time></trkpt><trkpt lat="44.08844672942669" lon="11.631649452396616"><ele>289.0</ele><time>2026-05-02T10:50:03.003Z</time></trkpt><trkpt lat="44.08843079543571" lon="11.631487177754822"><ele>289.0</ele><time>2026-05-02T10:50:04Z</time></trkpt><trkpt lat="44.08842995450315" lon="11.631330098573114"><ele>289.0</ele><time>2026-05-02T10:50:05Z</time></trkpt><trkpt lat="44.08844585385393" lon="11.631177523382512"><ele>289.0</ele><time>2026-05-02T10:50:06Z</time></trkpt><trkpt lat="44.08847045934535" lon="11.631021323284719"><ele>289.0</ele><time>2026-05-02T10:50:07Z</time></trkpt><trkpt lat="44.08849484463745" lon="11.63085919004651"><ele>289.5</ele><time>2026-05-02T10:50:08Z</time></trkpt><trkpt lat="44.088518041880434" lon="11.630691749692975"><ele>290.0</ele><time>2026-05-02T10:50:09Z</time></trkpt><trkpt lat="44.08853810832453" lon="11.630518111742091"><ele>290.5</ele><time>2026-05-02T10:50:10Z</time></trkpt><trkpt lat="44.08855127033246" lon="11.630336633366566"><ele>291.0</ele><time>2026-05-02T10:50:11Z</time></trkpt><trkpt lat="44.088553198654274" lon="11.630148011374416"><ele>291.75</ele><time>2026-05-02T10:50:12Z</time></trkpt><trkpt lat="44.08854195159759" lon="11.629955428211021"><ele>292.5</ele><time>2026-05-02T10:50:13Z</time></trkpt><trkpt lat="44.08851840854311" lon="11.629776037547781"><ele>293.25</ele><time>2026-05-02T10:50:14Z</time></trkpt><trkpt lat="44.08847971950294" lon="11.629605209823916"><ele>294.0</ele><time>2026-05-02T10:50:15Z</time></trkpt><trkpt lat="44.088418621015734" lon="11.629455388839284"><ele>292.5</ele><time>2026-05-02T10:50:16Z</time></trkpt><trkpt lat="44.08833871023698" lon="11.629318246380862"><ele>291.0</ele><time>2026-05-02T10:50:17Z</time></trkpt><trkpt lat="44.08824625215553" lon="11.62918773386588"><ele>289.5</ele><time>2026-05-02T10:50:18Z</time></trkpt><trkpt lat="44.0881645769575" lon="11.629022434900529"><ele>288.0</ele><time>2026-05-02T10:50:19Z</time></trkpt><trkpt lat="44.088091766102075" lon="11.628837743422972"><ele>288.0</ele><time>2026-05-02T10:50:20Z</time></trkpt><trkpt lat="44.0880194222207" lon="11.628646419724795"><ele>288.0</ele><time>2026-05-02T10:50:21Z</time></trkpt><trkpt lat="44.08794390696554" lon="11.628452787598398"><ele>288.0</ele><time>2026-05-02T10:50:22Z</time></trkpt><trkpt lat="44.087863956960696" lon="11.628258889210729"><ele>291.75</ele><time>2026-05-02T10:50:23Z</time></trkpt><trkpt lat="44.0877813112051" lon="11.628084752931935"><ele>295.5</ele><time>2026-05-02T10:50:24Z</time></trkpt><trkpt lat="44.08769460858143" lon="11.627930182296168"><ele>299.25</ele><time>2026-05-02T10:50:25Z</time></trkpt><trkpt lat="44.0875998255022" lon="11.627781305733505"><ele>303.0</ele><time>2026-05-02T10:50:26Z</time></trkpt><trkpt lat="44.08749284313505" lon="11.627654904695083"><ele>302.75</ele><time>2026-05-02T10:50:27Z</time></trkpt><trkpt lat="44.087389349870094" lon="11.627517612030289"><ele>302.5</ele><time>2026-05-02T10:50:28Z</time></trkpt><trkpt lat="44.08728407536286" lon="11.627392265561317"><ele>302.25</ele><time>2026-05-02T10:50:29Z</time></trkpt><trkpt lat="44.08717201515843" lon="11.627271897207038"><ele>302.0</ele><time>2026-05-02T10:50:30Z</time></trkpt><trkpt lat="44.087061043787884" lon="11.62715476235334"><ele>302.0</ele><time>2026-05-02T10:50:31Z</time></trkpt><trkpt lat="44.08692919721542" lon="11.627065720132057"><ele>302.0</ele><time>2026-05-02T10:50:32Z</time></trkpt><trkpt lat="44.08680052889309" lon="11.62697771157949"><ele>302.0</ele><time>2026-05-02T10:50:33Z</time></trkpt><trkpt lat="44.086669820145076" lon="11.626880405181083"><ele>302.0</ele><time>2026-05-02T10:50:34Z</time></trkpt><trkpt lat="44.08653290922415" lon="11.626785737662743"><ele>304.0</ele><time>2026-05-02T10:50:35Z</time></trkpt><trkpt lat="44.08639633136008" lon="11.62668636412541"><ele>306.0</ele><time>2026-05-02T10:50:36Z</time></trkpt><trkpt lat="44.08625636997968" lon="11.626585732409024"><ele>308.0</ele><time>2026-05-02T10:50:37Z</time></trkpt><trkpt lat="44.08611299980884" lon="11.626482838989805"><ele>308.0</ele><time>2026-05-02T10:50:38.001Z</time></trkpt><trkpt lat="44.085970786106074" lon="11.626379358300154"><ele>308.0</ele><time>2026-05-02T10:50:39.001Z</time></trkpt><trkpt lat="44.08582626958688" lon="11.626273583097094"><ele>308.0</ele><time>2026-05-02T10:50:40.001Z</time></trkpt><trkpt lat="44.08568026800726" lon="11.626165256969772"><ele>309.33333333333337</ele><time>2026-05-02T10:50:41.001Z</time></trkpt><trkpt lat="44.085533730603515" lon="11.62605480868305"><ele>310.6666666666667</ele><time>2026-05-02T10:50:42.001Z</time></trkpt><trkpt lat="44.085383628028794" lon="11.625945533658152"><ele>312.0</ele><time>2026-05-02T10:50:43.001Z</time></trkpt><trkpt lat="44.0852319848768" lon="11.625839603282499"><ele>312.0</ele><time>2026-05-02T10:50:44.001Z</time></trkpt><trkpt lat="44.08507792367671" lon="11.62573007915441"><ele>312.0</ele><time>2026-05-02T10:50:45.001Z</time></trkpt><trkpt lat="44.084920997211306" lon="11.625619273290553"><ele>312.0</ele><time>2026-05-02T10:50:46.001Z</time></trkpt><trkpt lat="44.08476295821451" lon="11.625506965474445"><ele>313.0</ele><time>2026-05-02T10:50:47.001Z</time></trkpt><trkpt lat="44.08460784609538" lon="11.625392633376585"><ele>314.0</ele><time>2026-05-02T10:50:48.001Z</time></trkpt><trkpt lat="44.084458100796965" lon="11.625279378005935"><ele>315.0</ele><time>2026-05-02T10:50:49.001Z</time></trkpt><trkpt lat="44.0843164239796" lon="11.625162062136093"><ele>315.0</ele><time>2026-05-02T10:50:50.001Z</time></trkpt><trkpt lat="44.084186946017766" lon="11.625034403399418"><ele>315.0</ele><time>2026-05-02T10:50:51.001Z</time></trkpt><trkpt lat="44.084068993137215" lon="11.624895540430966"><ele>315.0</ele><time>2026-05-02T10:50:52.001Z</time></trkpt><trkpt lat="44.08396096634788" lon="11.62474900794819"><ele>313.75</ele><time>2026-05-02T10:50:53.001Z</time></trkpt><trkpt lat="44.08386453240003" lon="11.62459310814896"><ele>312.5</ele><time>2026-05-02T10:50:54.001Z</time></trkpt><trkpt lat="44.08377413669328" lon="11.624433233358303"><ele>311.25</ele><time>2026-05-02T10:50:55.001Z</time></trkpt><trkpt lat="44.08368521670594" lon="11.624278839908726"><ele>310.0</ele><time>2026-05-02T10:50:56.001Z</time></trkpt><trkpt lat="44.08359428566454" lon="11.624127674672044"><ele>310.0</ele><time>2026-05-02T10:50:57.001Z</time></trkpt><trkpt lat="44.0835034335313" lon="11.62397962169076"><ele>310.0</ele><time>2026-05-02T10:50:58.001Z</time></trkpt><trkpt lat="44.083411881674714" lon="11.623831277704658"><ele>310.0</ele><time>2026-05-02T10:50:59.001Z</time></trkpt><trkpt lat="44.08331999356427" lon="11.6236819794985"><ele>310.0</ele><time>2026-05-02T10:51:00.001Z</time></trkpt><trkpt lat="44.083226806579404" lon="11.623531845245287"><ele>308.75</ele><time>2026-05-02T10:51:01.001Z</time></trkpt><trkpt lat="44.08313368473766" lon="11.623382485277642"><ele>307.5</ele><time>2026-05-02T10:51:02.001Z</time></trkpt><trkpt lat="44.083042377817286" lon="11.623233589059927"><ele>306.25</ele><time>2026-05-02T10:51:03.001Z</time></trkpt><trkpt lat="44.08295509805947" lon="11.62308223657229"><ele>305.0</ele><time>2026-05-02T10:51:04.001Z</time></trkpt><trkpt lat="44.08287889097194" lon="11.622936942197484"><ele>308.25</ele><time>2026-05-02T10:51:05.001Z</time></trkpt><trkpt lat="44.082813810068735" lon="11.622788058225119"><ele>311.5</ele><time>2026-05-02T10:51:06.001Z</time></trkpt><trkpt lat="44.08276279438052" lon="11.622637730665193"><ele>314.75</ele><time>2026-05-02T10:51:07.001Z</time></trkpt><trkpt lat="44.082734890455875" lon="11.622486616512342"><ele>318.0</ele><time>2026-05-02T10:51:08.001Z</time></trkpt><trkpt lat="44.08272480302463" lon="11.622340823458003"><ele>318.0</ele><time>2026-05-02T10:51:09.001Z</time></trkpt><trkpt lat="44.082725614171096" lon="11.622201370381294"><ele>318.0</ele><time>2026-05-02T10:51:10.001Z</time></trkpt><trkpt lat="44.08271914339952" lon="11.622068735622008"><ele>318.0</ele><time>2026-05-02T10:51:11.001Z</time></trkpt><trkpt lat="44.082687414237874" lon="11.621947298417192"><ele>318.0</ele><time>2026-05-02T10:51:12.001Z</time></trkpt><trkpt lat="44.082624115782906" lon="11.621835781174633"><ele>318.0</ele><time>2026-05-02T10:51:13.001Z</time></trkpt><trkpt lat="44.08255297976638" lon="11.62174832939013"><ele>318.2</ele><time>2026-05-02T10:51:14.001Z</time></trkpt><trkpt lat="44.082484340172094" lon="11.621668672599002"><ele>318.4</ele><time>2026-05-02T10:51:15.001Z</time></trkpt><trkpt lat="44.08241678793258" lon="11.621580559785379"><ele>318.59999999999997</ele><time>2026-05-02T10:51:16.001Z</time></trkpt><trkpt lat="44.082346723112416" lon="11.62149129914888"><ele>318.8</ele><time>2026-05-02T10:51:17.001Z</time></trkpt><trkpt lat="44.08227409835865" lon="11.62140391818174"><ele>319.0</ele><time>2026-05-02T10:51:18.001Z</time></trkpt><trkpt lat="44.082198905110516" lon="11.621313362106358"><ele>319.0</ele><time>2026-05-02T10:51:19.001Z</time></trkpt><trkpt lat="44.08212399509995" lon="11.621219043878162"><ele>319.0</ele><time>2026-05-02T10:51:20.001Z</time></trkpt><trkpt lat="44.082045153265994" lon="11.621117841956922"><ele>319.0</ele><time>2026-05-02T10:51:21.002Z</time></trkpt><trkpt lat="44.08196696784906" lon="11.621014002975027"><ele>319.0</ele><time>2026-05-02T10:51:22.002Z</time></trkpt><trkpt lat="44.08188587968107" lon="11.620910640448908"><ele>319.0</ele><time>2026-05-02T10:51:23.002Z</time></trkpt><trkpt lat="44.08180251471979" lon="11.620808219740839"><ele>319.0</ele><time>2026-05-02T10:51:24.002Z</time></trkpt><trkpt lat="44.081721448683666" lon="11.620701752489596"><ele>319.0</ele><time>2026-05-02T10:51:25.002Z</time></trkpt><trkpt lat="44.08163521486242" lon="11.62059326135144"><ele>319.0</ele><time>2026-05-02T10:51:26.002Z</time></trkpt><trkpt lat="44.08154898910814" lon="11.620480786730917"><ele>319.0</ele><time>2026-05-02T10:51:27.002Z</time></trkpt><trkpt lat="44.08145987467337" lon="11.620365750242584"><ele>320.25</ele><time>2026-05-02T10:51:28.002Z</time></trkpt><trkpt lat="44.08136557957091" lon="11.620249288947463"><ele>321.5</ele><time>2026-05-02T10:51:29.002Z</time></trkpt><trkpt lat="44.08127134853242" lon="11.620132738973872"><ele>322.75</ele><time>2026-05-02T10:51:30.002Z</time></trkpt><trkpt lat="44.081173550329076" lon="11.620012502408152"><ele>324.0</ele><time>2026-05-02T10:51:31.002Z</time></trkpt><trkpt lat="44.08107177472822" lon="11.61989476064877"><ele>324.0</ele><time>2026-05-02T10:51:32.002Z</time></trkpt><trkpt lat="44.080967892354344" lon="11.619781256864046"><ele>324.0</ele><time>2026-05-02T10:51:33.002Z</time></trkpt><trkpt lat="44.08086006491843" lon="11.619665664960426"><ele>324.0</ele><time>2026-05-02T10:51:34.002Z</time></trkpt><trkpt lat="44.08075293008443" lon="11.619549782396671"><ele>324.0</ele><time>2026-05-02T10:51:35.002Z</time></trkpt><trkpt lat="44.08064715976682" lon="11.619439049286472"><ele>324.0</ele><time>2026-05-02T10:51:36.002Z</time></trkpt><trkpt lat="44.08054060445862" lon="11.619334418860339"><ele>324.0</ele><time>2026-05-02T10:51:37.002Z</time></trkpt><trkpt lat="44.080433031738096" lon="11.619232382773944"><ele>324.0</ele><time>2026-05-02T10:51:38.002Z</time></trkpt><trkpt lat="44.080324599668764" lon="11.619134135888787"><ele>324.0</ele><time>2026-05-02T10:51:39.002Z</time></trkpt><trkpt lat="44.08022123876729" lon="11.619029861594356"><ele>324.0</ele><time>2026-05-02T10:51:40.002Z</time></trkpt><trkpt lat="44.080116737914196" lon="11.618928626621603"><ele>324.0</ele><time>2026-05-02T10:51:41.002Z</time></trkpt><trkpt lat="44.080012001600906" lon="11.618829863066399"><ele>324.0</ele><time>2026-05-02T10:51:42.002Z</time></trkpt><trkpt lat="44.07990971729408" lon="11.618727525710101"><ele>324.0</ele><time>2026-05-02T10:51:43.002Z</time></trkpt><trkpt lat="44.079807250932575" lon="11.61862536797275"><ele>323.5</ele><time>2026-05-02T10:51:44.002Z</time></trkpt><trkpt lat="44.079707567748905" lon="11.618520381942984"><ele>323.0</ele><time>2026-05-02T10:51:45.002Z</time></trkpt><trkpt lat="44.07960761387073" lon="11.618421269961706"><ele>322.5</ele><time>2026-05-02T10:51:46.002Z</time></trkpt><trkpt lat="44.07950794613261" lon="11.618319925482625"><ele>322.0</ele><time>2026-05-02T10:51:47.002Z</time></trkpt><trkpt lat="44.07941104757123" lon="11.618215358373094"><ele>322.0</ele><time>2026-05-02T10:51:48.002Z</time></trkpt><trkpt lat="44.079320736033516" lon="11.61810471524275"><ele>322.0</ele><time>2026-05-02T10:51:49.002Z</time></trkpt><trkpt lat="44.07923197365306" lon="11.617983292093843"><ele>322.0</ele><time>2026-05-02T10:51:50.002Z</time></trkpt><trkpt lat="44.07914974497423" lon="11.617864809541155"><ele>322.0</ele><time>2026-05-02T10:51:51.002Z</time></trkpt><trkpt lat="44.079076361044095" lon="11.617742818446118"><ele>322.25</ele><time>2026-05-02T10:51:52.002Z</time></trkpt><trkpt lat="44.07900721767928" lon="11.617613171325457"><ele>322.5</ele><time>2026-05-02T10:51:53.002Z</time></trkpt><trkpt lat="44.07893855129022" lon="11.617482055888006"><ele>322.75</ele><time>2026-05-02T10:51:54.002Z</time></trkpt><trkpt lat="44.078868559047955" lon="11.617350562891511"><ele>323.0</ele><time>2026-05-02T10:51:55.002Z</time></trkpt><trkpt lat="44.07880240056298" lon="11.617215460359025"><ele>323.0</ele><time>2026-05-02T10:51:56.002Z</time></trkpt><trkpt lat="44.07873476352287" lon="11.6170787706637"><ele>323.0</ele><time>2026-05-02T10:51:57.002Z</time></trkpt><trkpt lat="44.07867419552289" lon="11.616938314088841"><ele>323.0</ele><time>2026-05-02T10:51:58.002Z</time></trkpt><trkpt lat="44.07861802422292" lon="11.616795379312125"><ele>323.0</ele><time>2026-05-02T10:51:59.002Z</time></trkpt><trkpt lat="44.07856364570494" lon="11.616644262235996"><ele>323.0</ele><time>2026-05-02T10:52:00.002Z</time></trkpt><trkpt lat="44.07851099735155" lon="11.616491564486214"><ele>323.0</ele><time>2026-05-02T10:52:01.002Z</time></trkpt><trkpt lat="44.07846223166608" lon="11.61634615795042"><ele>323.0</ele><time>2026-05-02T10:52:02.002Z</time></trkpt><trkpt lat="44.078416499070805" lon="11.616201930992485"><ele>323.0</ele><time>2026-05-02T10:52:03.003Z</time></trkpt><trkpt lat="44.07837329480238" lon="11.616063340137032"><ele>323.25</ele><time>2026-05-02T10:52:04.003Z</time></trkpt><trkpt lat="44.07832881179403" lon="11.61592083051816"><ele>323.5</ele><time>2026-05-02T10:52:05.003Z</time></trkpt><trkpt lat="44.078285615153796" lon="11.615774829652345"><ele>323.75</ele><time>2026-05-02T10:52:06.003Z</time></trkpt><trkpt lat="44.078236097563725" lon="11.615629797456002"><ele>324.0</ele><time>2026-05-02T10:52:07.003Z</time></trkpt><trkpt lat="44.078185823745024" lon="11.615482671088358"><ele>322.59999999999997</ele><time>2026-05-02T10:52:08.003Z</time></trkpt><trkpt lat="44.078127980596506" lon="11.61533689392274"><ele>321.2</ele><time>2026-05-02T10:52:09.003Z</time></trkpt><trkpt lat="44.07806803681443" lon="11.615203296409133"><ele>319.79999999999995</ele><time>2026-05-02T10:52:10Z</time></trkpt><trkpt lat="44.07800493593696" lon="11.615080437234068"><ele>318.4</ele><time>2026-05-02T10:52:11Z</time></trkpt><trkpt lat="44.07796412118852" lon="11.614944994259044"><ele>317.0</ele><time>2026-05-02T10:52:12Z</time></trkpt><trkpt lat="44.077918764931965" lon="11.61482286004781"><ele>317.0</ele><time>2026-05-02T10:52:13Z</time></trkpt><trkpt lat="44.07788441428173" lon="11.61470064313663"><ele>317.0</ele><time>2026-05-02T10:52:14Z</time></trkpt><trkpt lat="44.077849088312504" lon="11.614581603711375"><ele>317.0</ele><time>2026-05-02T10:52:15Z</time></trkpt><trkpt lat="44.077820028139456" lon="11.61447483122595"><ele>317.0</ele><time>2026-05-02T10:52:16Z</time></trkpt><trkpt lat="44.07779607079054" lon="11.614373964469225"><ele>317.0</ele><time>2026-05-02T10:52:17Z</time></trkpt><trkpt lat="44.07777481305202" lon="11.614282538505487"><ele>317.0</ele><time>2026-05-02T10:52:18Z</time></trkpt><trkpt lat="44.077738020556104" lon="11.614125175291427"><ele>316.6</ele><time>2026-05-02T10:52:20Z</time></trkpt><trkpt lat="44.07773247640841" lon="11.613993067399349"><ele>316.2</ele><time>2026-05-02T10:52:22Z</time></trkpt><trkpt lat="44.07780929392343" lon="11.613962857160802"><ele>315.8</ele><time>2026-05-02T10:52:24Z</time></trkpt><trkpt lat="44.07787570123423" lon="11.614114644166946"><ele>315.4</ele><time>2026-05-02T10:52:26Z</time></trkpt><trkpt lat="44.07789431074064" lon="11.614215005309058"><ele>315.0</ele><time>2026-05-02T10:52:27Z</time></trkpt><trkpt lat="44.077927323625424" lon="11.61432314544799"><ele>315.0</ele><time>2026-05-02T10:52:28Z</time></trkpt><trkpt lat="44.07797530482584" lon="11.614425469870632"><ele>315.0</ele><time>2026-05-02T10:52:29Z</time></trkpt><trkpt lat="44.078032255955634" lon="11.614518618950399"><ele>315.0</ele><time>2026-05-02T10:52:30Z</time></trkpt><trkpt lat="44.07808964404721" lon="11.614595293447435"><ele>315.0</ele><time>2026-05-02T10:52:31Z</time></trkpt><trkpt lat="44.07815983332468" lon="11.61466028603091"><ele>315.0</ele><time>2026-05-02T10:52:32Z</time></trkpt><trkpt lat="44.07823255904677" lon="11.614711853691276"><ele>315.0</ele><time>2026-05-02T10:52:33Z</time></trkpt><trkpt lat="44.07831715599953" lon="11.61475377120261"><ele>316.8333333333333</ele><time>2026-05-02T10:52:34Z</time></trkpt><trkpt lat="44.0783992483934" lon="11.614783737548636"><ele>318.6666666666667</ele><time>2026-05-02T10:52:35Z</time></trkpt><trkpt lat="44.078483246910814" lon="11.614804329432038"><ele>320.5</ele><time>2026-05-02T10:52:36Z</time></trkpt><trkpt lat="44.078559704268336" lon="11.614822899766141"><ele>322.33333333333337</ele><time>2026-05-02T10:52:37Z</time></trkpt><trkpt lat="44.07863796850725" lon="11.614825565509515"><ele>324.1666666666667</ele><time>2026-05-02T10:52:38Z</time></trkpt><trkpt lat="44.078717769876526" lon="11.614793149851247"><ele>326.0</ele><time>2026-05-02T10:52:39Z</time></trkpt><trkpt lat="44.07879664365332" lon="11.614740264127043"><ele>326.0</ele><time>2026-05-02T10:52:40Z</time></trkpt><trkpt lat="44.07887551024935" lon="11.614684352773127"><ele>326.0</ele><time>2026-05-02T10:52:41Z</time></trkpt><trkpt lat="44.07895524229635" lon="11.614626891087099"><ele>326.0</ele><time>2026-05-02T10:52:42Z</time></trkpt><trkpt lat="44.07903967544673" lon="11.614572969351164"><ele>326.0</ele><time>2026-05-02T10:52:43Z</time></trkpt><trkpt lat="44.07912537616137" lon="11.614529453804273"><ele>326.0</ele><time>2026-05-02T10:52:44.001Z</time></trkpt><trkpt lat="44.07921459764427" lon="11.614503612767164"><ele>330.20000000000005</ele><time>2026-05-02T10:52:45.001Z</time></trkpt><trkpt lat="44.07931047982849" lon="11.614480981193953"><ele>334.40000000000003</ele><time>2026-05-02T10:52:46.001Z</time></trkpt><trkpt lat="44.07940715257061" lon="11.614457799006985"><ele>338.6</ele><time>2026-05-02T10:52:47.001Z</time></trkpt><trkpt lat="44.079499971889376" lon="11.614436309140274"><ele>342.8</ele><time>2026-05-02T10:52:48.001Z</time></trkpt><trkpt lat="44.07958256968406" lon="11.614407303494792"><ele>347.0</ele><time>2026-05-02T10:52:49.001Z</time></trkpt><trkpt lat="44.079674406369804" lon="11.614365930851823"><ele>347.0</ele><time>2026-05-02T10:52:50.001Z</time></trkpt><trkpt lat="44.07977118791829" lon="11.614313267310765"><ele>347.0</ele><time>2026-05-02T10:52:51.001Z</time></trkpt><trkpt lat="44.07987003674498" lon="11.61425236383729"><ele>347.0</ele><time>2026-05-02T10:52:52.001Z</time></trkpt><trkpt lat="44.079961756591956" lon="11.614196300966618"><ele>347.0</ele><time>2026-05-02T10:52:53.001Z</time></trkpt><trkpt lat="44.08005219223615" lon="11.6141447735764"><ele>347.0</ele><time>2026-05-02T10:52:54.001Z</time></trkpt><trkpt lat="44.08013695186673" lon="11.614096540822626"><ele>346.0</ele><time>2026-05-02T10:52:55.001Z</time></trkpt><trkpt lat="44.080214951531886" lon="11.61403726976257"><ele>345.0</ele><time>2026-05-02T10:52:56.001Z</time></trkpt><trkpt lat="44.08028025684331" lon="11.613958140216273"><ele>344.0</ele><time>2026-05-02T10:52:57.001Z</time></trkpt><trkpt lat="44.08032378963568" lon="11.613858064837556"><ele>343.0</ele><time>2026-05-02T10:52:58.001Z</time></trkpt><trkpt lat="44.0803602825943" lon="11.613740213860698"><ele>342.0</ele><time>2026-05-02T10:52:59.001Z</time></trkpt><trkpt lat="44.0803999735991" lon="11.613614734253492"><ele>345.20000000000005</ele><time>2026-05-02T10:53:00.001Z</time></trkpt><trkpt lat="44.080457239441124" lon="11.613499323772713"><ele>348.4</ele><time>2026-05-02T10:53:01.001Z</time></trkpt><trkpt lat="44.08052969192594" lon="11.613405179134352"><ele>351.6</ele><time>2026-05-02T10:53:02.001Z</time></trkpt><trkpt lat="44.08061109481339" lon="11.61332412432795"><ele>354.79999999999995</ele><time>2026-05-02T10:53:03.001Z</time></trkpt><trkpt lat="44.08068239229435" lon="11.61323043680679"><ele>358.0</ele><time>2026-05-02T10:53:04.001Z</time></trkpt><trkpt lat="44.080723236667986" lon="11.613117215884438"><ele>358.0</ele><time>2026-05-02T10:53:05.001Z</time></trkpt><trkpt lat="44.080736718389524" lon="11.612977110156518"><ele>358.0</ele><time>2026-05-02T10:53:06.001Z</time></trkpt><trkpt lat="44.08073791271203" lon="11.612830164958366"><ele>358.0</ele><time>2026-05-02T10:53:07.001Z</time></trkpt><trkpt lat="44.08074452982621" lon="11.612676281905756"><ele>358.0</ele><time>2026-05-02T10:53:08.001Z</time></trkpt><trkpt lat="44.080763912210756" lon="11.612518862113742"><ele>358.0</ele><time>2026-05-02T10:53:09.001Z</time></trkpt><trkpt lat="44.08079528779732" lon="11.612359860484993"><ele>358.0</ele><time>2026-05-02T10:53:10.001Z</time></trkpt><trkpt lat="44.080824541478094" lon="11.61219325177905"><ele>358.0</ele><time>2026-05-02T10:53:11.001Z</time></trkpt><trkpt lat="44.08085453945346" lon="11.612022480993112"><ele>358.0</ele><time>2026-05-02T10:53:12.001Z</time></trkpt><trkpt lat="44.08089010343787" lon="11.611855785185895"><ele>358.0</ele><time>2026-05-02T10:53:13.001Z</time></trkpt><trkpt lat="44.08093426668496" lon="11.611703459756427"><ele>360.59999999999997</ele><time>2026-05-02T10:53:14.001Z</time></trkpt><trkpt lat="44.08098332207725" lon="11.61157069743209"><ele>363.2</ele><time>2026-05-02T10:53:15.001Z</time></trkpt><trkpt lat="44.08103666564519" lon="11.611457969703569"><ele>365.8</ele><time>2026-05-02T10:53:16.001Z</time></trkpt><trkpt lat="44.08110108328129" lon="11.611363770468035"><ele>368.4</ele><time>2026-05-02T10:53:17.001Z</time></trkpt><trkpt lat="44.08118017791316" lon="11.611295919632127"><ele>371.0</ele><time>2026-05-02T10:53:18.001Z</time></trkpt><trkpt lat="44.08127760223777" lon="11.611256478826494"><ele>371.0</ele><time>2026-05-02T10:53:19.001Z</time></trkpt><trkpt lat="44.0813789940238" lon="11.61124777035464"><ele>371.0</ele><time>2026-05-02T10:53:20.001Z</time></trkpt><trkpt lat="44.081469723550285" lon="11.611246292369952"><ele>371.0</ele><time>2026-05-02T10:53:21.001Z</time></trkpt><trkpt lat="44.081546498103904" lon="11.61122659626472"><ele>371.0</ele><time>2026-05-02T10:53:22.001Z</time></trkpt><trkpt lat="44.081601774321015" lon="11.611177606112589"><ele>371.0</ele><time>2026-05-02T10:53:23.001Z</time></trkpt><trkpt lat="44.08161537650215" lon="11.610995260811315"><ele>374.20000000000005</ele><time>2026-05-02T10:53:25.001Z</time></trkpt><trkpt lat="44.08157086270891" lon="11.610894739185246"><ele>377.40000000000003</ele><time>2026-05-02T10:53:26.002Z</time></trkpt><trkpt lat="44.08153947446825" lon="11.610777127402049"><ele>380.6</ele><time>2026-05-02T10:53:27.002Z</time></trkpt><trkpt lat="44.08151905640251" lon="11.610649461245387"><ele>383.8</ele><time>2026-05-02T10:53:28.002Z</time></trkpt><trkpt lat="44.08152271282126" lon="11.610522093412825"><ele>387.0</ele><time>2026-05-02T10:53:29.002Z</time></trkpt><trkpt lat="44.081541648886386" lon="11.610387861995985"><ele>384.8</ele><time>2026-05-02T10:53:30.002Z</time></trkpt><trkpt lat="44.0815676367882" lon="11.6102503689525"><ele>382.6</ele><time>2026-05-02T10:53:31.002Z</time></trkpt><trkpt lat="44.08159910840044" lon="11.610106789045492"><ele>380.40000000000003</ele><time>2026-05-02T10:53:32.002Z</time></trkpt><trkpt lat="44.081638334689714" lon="11.60995877876442"><ele>378.20000000000005</ele><time>2026-05-02T10:53:33.002Z</time></trkpt><trkpt lat="44.081678895974015" lon="11.60982794495429"><ele>376.0</ele><time>2026-05-02T10:53:34.002Z</time></trkpt><trkpt lat="44.081738451241584" lon="11.60970311390554"><ele>376.0</ele><time>2026-05-02T10:53:35.002Z</time></trkpt><trkpt lat="44.08180869020791" lon="11.609581919361329"><ele>376.0</ele><time>2026-05-02T10:53:36.002Z</time></trkpt><trkpt lat="44.08189918600117" lon="11.609488525426086"><ele>376.0</ele><time>2026-05-02T10:53:37.002Z</time></trkpt><trkpt lat="44.0820059670464" lon="11.609421394836755"><ele>376.0</ele><time>2026-05-02T10:53:38.002Z</time></trkpt><trkpt lat="44.082120255190354" lon="11.609370757075537"><ele>378.0</ele><time>2026-05-02T10:53:39.002Z</time></trkpt><trkpt lat="44.082235250495955" lon="11.609351189066466"><ele>380.0</ele><time>2026-05-02T10:53:40.002Z</time></trkpt><trkpt lat="44.08234455566394" lon="11.609365919709246"><ele>382.0</ele><time>2026-05-02T10:53:41.002Z</time></trkpt><trkpt lat="44.08244297665828" lon="11.609385096336984"><ele>384.0</ele><time>2026-05-02T10:53:42.002Z</time></trkpt><trkpt lat="44.08254211777337" lon="11.609372545635754"><ele>386.0</ele><time>2026-05-02T10:53:43.002Z</time></trkpt><trkpt lat="44.08263557523837" lon="11.609308638273337"><ele>386.0</ele><time>2026-05-02T10:53:44.002Z</time></trkpt><trkpt lat="44.08273027440713" lon="11.609217508143805"><ele>386.0</ele><time>2026-05-02T10:53:45.002Z</time></trkpt><trkpt lat="44.08282573962664" lon="11.609126516414"><ele>386.0</ele><time>2026-05-02T10:53:46.002Z</time></trkpt><trkpt lat="44.08293002693064" lon="11.609049431518422"><ele>386.0</ele><time>2026-05-02T10:53:47.002Z</time></trkpt><trkpt lat="44.083041231168295" lon="11.60898454221771"><ele>386.0</ele><time>2026-05-02T10:53:48.002Z</time></trkpt><trkpt lat="44.08315308881399" lon="11.608921981162412"><ele>386.0</ele><time>2026-05-02T10:53:49.002Z</time></trkpt><trkpt lat="44.08326673384475" lon="11.608866648223268"><ele>386.0</ele><time>2026-05-02T10:53:50.002Z</time></trkpt><trkpt lat="44.08338320125387" lon="11.608806970859726"><ele>386.0</ele><time>2026-05-02T10:53:51.002Z</time></trkpt><trkpt lat="44.08349582076854" lon="11.60874417420103"><ele>385.4</ele><time>2026-05-02T10:53:52.002Z</time></trkpt><trkpt lat="44.08360795098775" lon="11.608687599443765"><ele>384.8</ele><time>2026-05-02T10:53:53.002Z</time></trkpt><trkpt lat="44.08371759943502" lon="11.60865224619257"><ele>384.2</ele><time>2026-05-02T10:53:54.002Z</time></trkpt><trkpt lat="44.08382432004698" lon="11.60865084324013"><ele>383.59999999999997</ele><time>2026-05-02T10:53:55.002Z</time></trkpt><trkpt lat="44.083926578244316" lon="11.608679748661721"><ele>383.0</ele><time>2026-05-02T10:53:56.002Z</time></trkpt><trkpt lat="44.08401782407868" lon="11.608743976694626"><ele>383.0</ele><time>2026-05-02T10:53:57.002Z</time></trkpt><trkpt lat="44.08409318477482" lon="11.608830985264333"><ele>383.0</ele><time>2026-05-02T10:53:58.002Z</time></trkpt><trkpt lat="44.084165575394785" lon="11.608919983473871"><ele>383.0</ele><time>2026-05-02T10:53:59.002Z</time></trkpt><trkpt lat="44.084246283076865" lon="11.608996002623584"><ele>383.0</ele><time>2026-05-02T10:54:00.002Z</time></trkpt><trkpt lat="44.08432922952965" lon="11.60906752251286"><ele>383.0</ele><time>2026-05-02T10:54:01.002Z</time></trkpt><trkpt lat="44.08440946452618" lon="11.609134146345115"><ele>384.79999999999995</ele><time>2026-05-02T10:54:02.002Z</time></trkpt><trkpt lat="44.08449512387337" lon="11.609172406201843"><ele>386.6</ele><time>2026-05-02T10:54:03.002Z</time></trkpt><trkpt lat="44.08459021075774" lon="11.609152581732339"><ele>388.4</ele><time>2026-05-02T10:54:04.002Z</time></trkpt><trkpt lat="44.08468086455477" lon="11.609073468240531"><ele>390.20000000000005</ele><time>2026-05-02T10:54:05.002Z</time></trkpt><trkpt lat="44.08475786485575" lon="11.608956175303591"><ele>392.0</ele><time>2026-05-02T10:54:06.002Z</time></trkpt><trkpt lat="44.08483482024924" lon="11.6088231563722"><ele>392.0</ele><time>2026-05-02T10:54:07.002Z</time></trkpt><trkpt lat="44.08491235636616" lon="11.608689602533314"><ele>392.0</ele><time>2026-05-02T10:54:08.002Z</time></trkpt><trkpt lat="44.084985761641576" lon="11.60854851640145"><ele>392.0</ele><time>2026-05-02T10:54:09.003Z</time></trkpt><trkpt lat="44.08505447757891" lon="11.6084015351102"><ele>392.0</ele><time>2026-05-02T10:54:10.003Z</time></trkpt><trkpt lat="44.085118884661014" lon="11.608259114422179"><ele>395.8</ele><time>2026-05-02T10:54:11.003Z</time></trkpt><trkpt lat="44.08517485738718" lon="11.608126883918084"><ele>399.6</ele><time>2026-05-02T10:54:12.003Z</time></trkpt><trkpt lat="44.08523416391385" lon="11.608006357315992"><ele>403.40000000000003</ele><time>2026-05-02T10:54:13.003Z</time></trkpt><trkpt lat="44.08530361788984" lon="11.60789223063939"><ele>407.20000000000005</ele><time>2026-05-02T10:54:14.003Z</time></trkpt><trkpt lat="44.085388295365746" lon="11.607795439732636"><ele>411.0</ele><time>2026-05-02T10:54:15.003Z</time></trkpt><trkpt lat="44.08548903186387" lon="11.607720908686398"><ele>411.4</ele><time>2026-05-02T10:54:16Z</time></trkpt><trkpt lat="44.085598481538426" lon="11.607675751668884"><ele>411.8</ele><time>2026-05-02T10:54:17Z</time></trkpt><trkpt lat="44.08570871748506" lon="11.607668594241957"><ele>412.2</ele><time>2026-05-02T10:54:18Z</time></trkpt><trkpt lat="44.08581125626976" lon="11.60768382699204"><ele>412.59999999999997</ele><time>2026-05-02T10:54:19Z</time></trkpt><trkpt lat="44.08590119851932" lon="11.607696437202891"><ele>413.0</ele><time>2026-05-02T10:54:20Z</time></trkpt><trkpt lat="44.08598525879631" lon="11.607679021331064"><ele>413.4</ele><time>2026-05-02T10:54:21Z</time></trkpt><trkpt lat="44.08605654385869" lon="11.607604365712227"><ele>413.79999999999995</ele><time>2026-05-02T10:54:22Z</time></trkpt><trkpt lat="44.08610486174126" lon="11.607479185830021"><ele>414.2</ele><time>2026-05-02T10:54:23Z</time></trkpt><trkpt lat="44.08613480788797" lon="11.607328911701082"><ele>414.6</ele><time>2026-05-02T10:54:24Z</time></trkpt><trkpt lat="44.08616587135472" lon="11.607169062585902"><ele>415.0</ele><time>2026-05-02T10:54:25Z</time></trkpt><trkpt lat="44.08620335001806" lon="11.607002484376336"><ele>416.25</ele><time>2026-05-02T10:54:26Z</time></trkpt><trkpt lat="44.08624286541012" lon="11.606825791817323"><ele>417.5</ele><time>2026-05-02T10:54:27Z</time></trkpt><trkpt lat="44.0862790056113" lon="11.606640946599198"><ele>418.75</ele><time>2026-05-02T10:54:28Z</time></trkpt><trkpt lat="44.0863114200142" lon="11.606453134908994"><ele>420.0</ele><time>2026-05-02T10:54:29Z</time></trkpt><trkpt lat="44.08633381222" lon="11.606269758390555"><ele>422.0</ele><time>2026-05-02T10:54:30Z</time></trkpt><trkpt lat="44.08633592910737" lon="11.606097089870755"><ele>424.0</ele><time>2026-05-02T10:54:31Z</time></trkpt><trkpt lat="44.08632131200845" lon="11.6059281714516"><ele>426.0</ele><time>2026-05-02T10:54:32Z</time></trkpt><trkpt lat="44.0862850588826" lon="11.605762240061447"><ele>428.0</ele><time>2026-05-02T10:54:33Z</time></trkpt><trkpt lat="44.08622720375867" lon="11.605603156473792"><ele>428.0</ele><time>2026-05-02T10:54:34Z</time></trkpt><trkpt lat="44.08615663916942" lon="11.605452104660563"><ele>428.0</ele><time>2026-05-02T10:54:35Z</time></trkpt><trkpt lat="44.08607172940807" lon="11.60531428984619"><ele>428.0</ele><time>2026-05-02T10:54:36Z</time></trkpt><trkpt lat="44.085979082914065" lon="11.605189167982825"><ele>428.0</ele><time>2026-05-02T10:54:37Z</time></trkpt><trkpt lat="44.08589153845016" lon="11.605084471394418"><ele>429.79999999999995</ele><time>2026-05-02T10:54:38Z</time></trkpt><trkpt lat="44.08581967566029" lon="11.604989984420719"><ele>431.59999999999997</ele><time>2026-05-02T10:54:39Z</time></trkpt><trkpt lat="44.08577803677399" lon="11.604880937015523"><ele>433.40000000000003</ele><time>2026-05-02T10:54:40Z</time></trkpt><trkpt lat="44.08576513784399" lon="11.604756210831585"><ele>435.20000000000005</ele><time>2026-05-02T10:54:41Z</time></trkpt><trkpt lat="44.08576682808777" lon="11.604610426890087"><ele>437.0</ele><time>2026-05-02T10:54:42Z</time></trkpt><trkpt lat="44.08576059135839" lon="11.604457079578175"><ele>439.5</ele><time>2026-05-02T10:54:43Z</time></trkpt><trkpt lat="44.085750230013744" lon="11.60429348945936"><ele>442.0</ele><time>2026-05-02T10:54:44Z</time></trkpt><trkpt lat="44.08573434753858" lon="11.604128561981925"><ele>444.5</ele><time>2026-05-02T10:54:45Z</time></trkpt><trkpt lat="44.08571162460106" lon="11.603960437060294"><ele>447.0</ele><time>2026-05-02T10:54:46Z</time></trkpt><trkpt lat="44.085673437716636" lon="11.603809749581158"><ele>447.0</ele><time>2026-05-02T10:54:47Z</time></trkpt><trkpt lat="44.085610504754996" lon="11.603700375988572"><ele>447.00000000000006</ele><time>2026-05-02T10:54:48Z</time></trkpt><trkpt lat="44.085525724649145" lon="11.603621474637173"><ele>447.00000000000006</ele><time>2026-05-02T10:54:49Z</time></trkpt><trkpt lat="44.085438592760255" lon="11.603555973076546"><ele>447.0</ele><time>2026-05-02T10:54:50Z</time></trkpt><trkpt lat="44.08537627507054" lon="11.603474840365633"><ele>447.0</ele><time>2026-05-02T10:54:51Z</time></trkpt><trkpt lat="44.08534104432452" lon="11.603362780273908"><ele>446.8</ele><time>2026-05-02T10:54:52Z</time></trkpt><trkpt lat="44.08532298271301" lon="11.603226425696802"><ele>446.6</ele><time>2026-05-02T10:54:53Z</time></trkpt><trkpt lat="44.08531399259042" lon="11.603082369881644"><ele>446.40000000000003</ele><time>2026-05-02T10:54:54.001Z</time></trkpt><trkpt lat="44.08530926378985" lon="11.60293082253911"><ele>446.20000000000005</ele><time>2026-05-02T10:54:55.001Z</time></trkpt><trkpt lat="44.08531336121866" lon="11.602775093683682"><ele>446.0</ele><time>2026-05-02T10:54:56.001Z</time></trkpt><trkpt lat="44.08533518454506" lon="11.602619168580041"><ele>448.25</ele><time>2026-05-02T10:54:57.001Z</time></trkpt><trkpt lat="44.08538382207037" lon="11.602468879007892"><ele>450.5</ele><time>2026-05-02T10:54:58.001Z</time></trkpt><trkpt lat="44.08545279241976" lon="11.602327948622186"><ele>452.75</ele><time>2026-05-02T10:54:59.001Z</time></trkpt><trkpt lat="44.08553431534224" lon="11.602195342621497"><ele>455.0</ele><time>2026-05-02T10:55:00.001Z</time></trkpt><trkpt lat="44.08561273617087" lon="11.602057031659628"><ele>459.25</ele><time>2026-05-02T10:55:01.001Z</time></trkpt><trkpt lat="44.085670519174606" lon="11.601897751904195"><ele>463.5</ele><time>2026-05-02T10:55:02.001Z</time></trkpt><trkpt lat="44.08570132417612" lon="11.60172177146068"><ele>467.75</ele><time>2026-05-02T10:55:03.001Z</time></trkpt><trkpt lat="44.08572220232706" lon="11.60154442462077"><ele>472.0</ele><time>2026-05-02T10:55:04.001Z</time></trkpt><trkpt lat="44.08574248624242" lon="11.601372856527476"><ele>472.0</ele><time>2026-05-02T10:55:05.001Z</time></trkpt><trkpt lat="44.0857449026272" lon="11.601195827407967"><ele>472.0</ele><time>2026-05-02T10:55:06.001Z</time></trkpt><trkpt lat="44.08572031402468" lon="11.601016650300064"><ele>472.0</ele><time>2026-05-02T10:55:07.001Z</time></trkpt><trkpt lat="44.08567710877878" lon="11.6008443164848"><ele>472.0</ele><time>2026-05-02T10:55:08.001Z</time></trkpt><trkpt lat="44.08563528913079" lon="11.600667267986749"><ele>472.0</ele><time>2026-05-02T10:55:09.001Z</time></trkpt><trkpt lat="44.0856081005306" lon="11.600490896865411"><ele>472.0</ele><time>2026-05-02T10:55:10.001Z</time></trkpt><trkpt lat="44.085585864791454" lon="11.600325603323187"><ele>472.0</ele><time>2026-05-02T10:55:11.001Z</time></trkpt><trkpt lat="44.08556373011416" lon="11.600166463798628"><ele>472.0</ele><time>2026-05-02T10:55:12.001Z</time></trkpt><trkpt lat="44.085544246925174" lon="11.600022267266885"><ele>472.0</ele><time>2026-05-02T10:55:13.001Z</time></trkpt><trkpt lat="44.085535901860105" lon="11.599896219282599"><ele>472.00000000000006</ele><time>2026-05-02T10:55:14.001Z</time></trkpt><trkpt lat="44.085553703634865" lon="11.599785006254137"><ele>472.00000000000006</ele><time>2026-05-02T10:55:15.001Z</time></trkpt><trkpt lat="44.0856028449829" lon="11.599687196469532"><ele>472.0</ele><time>2026-05-02T10:55:16.001Z</time></trkpt><trkpt lat="44.0856697756046" lon="11.599597024195834"><ele>472.0</ele><time>2026-05-02T10:55:17.001Z</time></trkpt><trkpt lat="44.08574947152392" lon="11.59950998137003"><ele>471.75</ele><time>2026-05-02T10:55:18.001Z</time></trkpt><trkpt lat="44.08583797562642" lon="11.599418062416975"><ele>471.5</ele><time>2026-05-02T10:55:19.001Z</time></trkpt><trkpt lat="44.08593256162283" lon="11.599330754627942"><ele>471.25</ele><time>2026-05-02T10:55:20.001Z</time></trkpt><trkpt lat="44.08603870168013" lon="11.599262155833863"><ele>471.0</ele><time>2026-05-02T10:55:21.001Z</time></trkpt><trkpt lat="44.086158419970246" lon="11.599222852032696"><ele>471.0</ele><time>2026-05-02T10:55:22.001Z</time></trkpt><trkpt lat="44.086284219855486" lon="11.599191893759238"><ele>471.0</ele><time>2026-05-02T10:55:23.001Z</time></trkpt><trkpt lat="44.08641335482538" lon="11.599155453150452"><ele>471.0</ele><time>2026-05-02T10:55:24.001Z</time></trkpt><trkpt lat="44.08654290784843" lon="11.599098853054613"><ele>471.0</ele><time>2026-05-02T10:55:25.001Z</time></trkpt><trkpt lat="44.086672580634854" lon="11.599017290219729"><ele>475.5</ele><time>2026-05-02T10:55:26.001Z</time></trkpt><trkpt lat="44.08680369284571" lon="11.598931803675866"><ele>480.0</ele><time>2026-05-02T10:55:27.001Z</time></trkpt><trkpt lat="44.08692804893715" lon="11.598840149880077"><ele>484.5</ele><time>2026-05-02T10:55:28.001Z</time></trkpt><trkpt lat="44.08705533154328" lon="11.598740150202614"><ele>489.0</ele><time>2026-05-02T10:55:29.001Z</time></trkpt><trkpt lat="44.08717708835696" lon="11.598644565150346"><ele>489.0</ele><time>2026-05-02T10:55:30.001Z</time></trkpt><trkpt lat="44.087286422750616" lon="11.598547966834795"><ele>489.0</ele><time>2026-05-02T10:55:31.001Z</time></trkpt><trkpt lat="44.08737731403295" lon="11.59844901023827"><ele>489.0</ele><time>2026-05-02T10:55:32.001Z</time></trkpt><trkpt lat="44.08745509057426" lon="11.598333333619118"><ele>489.0</ele><time>2026-05-02T10:55:33.001Z</time></trkpt><trkpt lat="44.08753072487109" lon="11.598209360316702"><ele>489.4</ele><time>2026-05-02T10:55:34.001Z</time></trkpt><trkpt lat="44.08758917530018" lon="11.5980889772069"><ele>489.79999999999995</ele><time>2026-05-02T10:55:35.001Z</time></trkpt><trkpt lat="44.087646032557586" lon="11.598006172523268"><ele>490.20000000000005</ele><time>2026-05-02T10:55:36.002Z</time></trkpt><trkpt lat="44.08770759583337" lon="11.597974214689208"><ele>490.6</ele><time>2026-05-02T10:55:37.002Z</time></trkpt><trkpt lat="44.08782459119996" lon="11.59804712523764"><ele>491.0</ele><time>2026-05-02T10:55:39.002Z</time></trkpt><trkpt lat="44.087872202765034" lon="11.598144282165046"><ele>491.0</ele><time>2026-05-02T10:55:40.002Z</time></trkpt><trkpt lat="44.08793087764919" lon="11.598224360182694"><ele>491.0</ele><time>2026-05-02T10:55:41.002Z</time></trkpt><trkpt lat="44.08800415729568" lon="11.598282561481735"><ele>491.0</ele><time>2026-05-02T10:55:42.002Z</time></trkpt><trkpt lat="44.08809562425948" lon="11.598294927032843"><ele>491.0</ele><time>2026-05-02T10:55:43.002Z</time></trkpt><trkpt lat="44.088197651956776" lon="11.598256460948788"><ele>491.0</ele><time>2026-05-02T10:55:44.002Z</time></trkpt><trkpt lat="44.0883005061543" lon="11.598177169494786"><ele>493.25</ele><time>2026-05-02T10:55:45.002Z</time></trkpt><trkpt lat="44.08839573186179" lon="11.598074372993217"><ele>495.5</ele><time>2026-05-02T10:55:46.002Z</time></trkpt><trkpt lat="44.08848940706956" lon="11.597955122314165"><ele>497.75</ele><time>2026-05-02T10:55:47.002Z</time></trkpt><trkpt lat="44.08857981094096" lon="11.597812835833103"><ele>500.0</ele><time>2026-05-02T10:55:48.002Z</time></trkpt><trkpt lat="44.08865616519737" lon="11.59767088175667"><ele>500.0</ele><time>2026-05-02T10:55:49.002Z</time></trkpt><trkpt lat="44.08872478156396" lon="11.597516434960374"><ele>500.0</ele><time>2026-05-02T10:55:50.002Z</time></trkpt><trkpt lat="44.088799026060734" lon="11.597388653372132"><ele>500.0</ele><time>2026-05-02T10:55:51.002Z</time></trkpt><trkpt lat="44.088875793830134" lon="11.597275903844942"><ele>500.0</ele><time>2026-05-02T10:55:52.002Z</time></trkpt><trkpt lat="44.08895477877265" lon="11.597172797643415"><ele>499.99999999999994</ele><time>2026-05-02T10:55:53.002Z</time></trkpt><trkpt lat="44.08902634529436" lon="11.597082073357253"><ele>500.0</ele><time>2026-05-02T10:55:54.002Z</time></trkpt><trkpt lat="44.08908524733479" lon="11.597002242467141"><ele>500.0</ele><time>2026-05-02T10:55:55.002Z</time></trkpt><trkpt lat="44.08911788117269" lon="11.596916866231597"><ele>500.0</ele><time>2026-05-02T10:55:56.002Z</time></trkpt><trkpt lat="44.089115226393716" lon="11.596826610907971"><ele>499.99999999999994</ele><time>2026-05-02T10:55:57.002Z</time></trkpt><trkpt lat="44.089073111193294" lon="11.596754070526597"><ele>500.0</ele><time>2026-05-02T10:55:58.002Z</time></trkpt><trkpt lat="44.089000811281075" lon="11.59673251713292"><ele>500.0</ele><time>2026-05-02T10:55:59.002Z</time></trkpt><trkpt lat="44.088923063400564" lon="11.59677285764959"><ele>500.0</ele><time>2026-05-02T10:56:00.002Z</time></trkpt><trkpt lat="44.088856501072804" lon="11.59686535122644"><ele>500.0</ele><time>2026-05-02T10:56:01.002Z</time></trkpt><trkpt lat="44.08878669494077" lon="11.596971160286644"><ele>500.0</ele><time>2026-05-02T10:56:02.002Z</time></trkpt><trkpt lat="44.088703616191765" lon="11.597056415710549"><ele>500.0</ele><time>2026-05-02T10:56:03.002Z</time></trkpt><trkpt lat="44.08861746856509" lon="11.597137504353656"><ele>499.99999999999994</ele><time>2026-05-02T10:56:04.002Z</time></trkpt><trkpt lat="44.0885395983183" lon="11.597215375932002"><ele>500.0</ele><time>2026-05-02T10:56:05.002Z</time></trkpt><trkpt lat="44.08847349193889" lon="11.597271950273567"><ele>500.0</ele><time>2026-05-02T10:56:06.002Z</time></trkpt><trkpt lat="44.08840885547541" lon="11.597282041076559"><ele>500.0</ele><time>2026-05-02T10:56:07.002Z</time></trkpt><trkpt lat="44.08834218648231" lon="11.597250988005298"><ele>499.99999999999994</ele><time>2026-05-02T10:56:08.002Z</time></trkpt><trkpt lat="44.08828100026311" lon="11.597174489105656"><ele>500.0</ele><time>2026-05-02T10:56:09.002Z</time></trkpt><trkpt lat="44.08822639210918" lon="11.597074263035028"><ele>507.8</ele><time>2026-05-02T10:56:10.002Z</time></trkpt><trkpt lat="44.08815017698402" lon="11.596987817548111"><ele>515.6</ele><time>2026-05-02T10:56:11.002Z</time></trkpt><trkpt lat="44.08805637707641" lon="11.59691569953427"><ele>523.4</ele><time>2026-05-02T10:56:12.002Z</time></trkpt><trkpt lat="44.08795143376152" lon="11.596859878880577"><ele>531.2</ele><time>2026-05-02T10:56:13.002Z</time></trkpt><trkpt lat="44.087834510781555" lon="11.596821126324905"><ele>539.0</ele><time>2026-05-02T10:56:14.002Z</time></trkpt><trkpt lat="44.08771112757079" lon="11.596798002661915"><ele>539.0</ele><time>2026-05-02T10:56:15.002Z</time></trkpt><trkpt lat="44.087587290880926" lon="11.596806762096461"><ele>539.0</ele><time>2026-05-02T10:56:16.002Z</time></trkpt><trkpt lat="44.08746394715512" lon="11.596847649501015"><ele>539.0</ele><time>2026-05-02T10:56:17.002Z</time></trkpt><trkpt lat="44.0873466962503" lon="11.59691814363509"><ele>539.0</ele><time>2026-05-02T10:56:18.003Z</time></trkpt><trkpt lat="44.08724130827394" lon="11.597008530735986"><ele>536.2</ele><time>2026-05-02T10:56:19.003Z</time></trkpt><trkpt lat="44.087150813748536" lon="11.597114203510497"><ele>533.4</ele><time>2026-05-02T10:56:20.003Z</time></trkpt><trkpt lat="44.08707134575327" lon="11.59720906862487"><ele>530.6</ele><time>2026-05-02T10:56:21.003Z</time></trkpt><trkpt lat="44.08699735027627" lon="11.597301484549387"><ele>527.8</ele><time>2026-05-02T10:56:22Z</time></trkpt><trkpt lat="44.08692586450101" lon="11.597384282499819"><ele>525.0</ele><time>2026-05-02T10:56:23Z</time></trkpt><trkpt lat="44.08685600405581" lon="11.5974576746045"><ele>525.0</ele><time>2026-05-02T10:56:24Z</time></trkpt><trkpt lat="44.0867757673812" lon="11.59749586588843"><ele>525.0</ele><time>2026-05-02T10:56:25Z</time></trkpt><trkpt lat="44.08668356381211" lon="11.597498390878528"><ele>525.0</ele><time>2026-05-02T10:56:26Z</time></trkpt><trkpt lat="44.08658428783418" lon="11.597475603698069"><ele>525.0</ele><time>2026-05-02T10:56:27Z</time></trkpt><trkpt lat="44.0864772877987" lon="11.597463706727247"><ele>525.0</ele><time>2026-05-02T10:56:28Z</time></trkpt><trkpt lat="44.08636650383827" lon="11.597472003442833"><ele>529.4</ele><time>2026-05-02T10:56:29Z</time></trkpt><trkpt lat="44.086252802178045" lon="11.597514315160385"><ele>533.8</ele><time>2026-05-02T10:56:30Z</time></trkpt><trkpt lat="44.08614702038211" lon="11.597587330429441"><ele>538.2</ele><time>2026-05-02T10:56:31Z</time></trkpt><trkpt lat="44.08605083066228" lon="11.597669658313755"><ele>542.6</ele><time>2026-05-02T10:56:32Z</time></trkpt><trkpt lat="44.08596947017132" lon="11.597744518916969"><ele>547.0</ele><time>2026-05-02T10:56:33Z</time></trkpt><trkpt lat="44.08589345109202" lon="11.597811147753262"><ele>544.6</ele><time>2026-05-02T10:56:34Z</time></trkpt><trkpt lat="44.08581635727141" lon="11.597856062958716"><ele>542.2</ele><time>2026-05-02T10:56:35Z</time></trkpt><trkpt lat="44.08573268052198" lon="11.59785366284513"><ele>539.8</ele><time>2026-05-02T10:56:36Z</time></trkpt><trkpt lat="44.08564293240533" lon="11.597810201630747"><ele>537.4</ele><time>2026-05-02T10:56:37Z</time></trkpt><trkpt lat="44.0855510503427" lon="11.59775144424984"><ele>535.0</ele><time>2026-05-02T10:56:38Z</time></trkpt><trkpt lat="44.08545508343682" lon="11.597714704082556"><ele>535.0</ele><time>2026-05-02T10:56:39Z</time></trkpt><trkpt lat="44.08536389026147" lon="11.597707847643036"><ele>535.0</ele><time>2026-05-02T10:56:40Z</time></trkpt><trkpt lat="44.08527680231579" lon="11.597713768068317"><ele>535.0</ele><time>2026-05-02T10:56:41Z</time></trkpt><trkpt lat="44.0852042277025" lon="11.597698012487216"><ele>535.0</ele><time>2026-05-02T10:56:42Z</time></trkpt><trkpt lat="44.08514137712247" lon="11.597635743069333"><ele>535.0</ele><time>2026-05-02T10:56:43Z</time></trkpt><trkpt lat="44.08509138294936" lon="11.59753584036408"><ele>535.0</ele><time>2026-05-02T10:56:44Z</time></trkpt><trkpt lat="44.08505267615604" lon="11.597422005514744"><ele>535.0</ele><time>2026-05-02T10:56:45Z</time></trkpt><trkpt lat="44.08500993630007" lon="11.597306303698458"><ele>535.0</ele><time>2026-05-02T10:56:46Z</time></trkpt><trkpt lat="44.08495595346152" lon="11.597191242276711"><ele>535.0</ele><time>2026-05-02T10:56:47Z</time></trkpt><trkpt lat="44.08489825273228" lon="11.597075054599726"><ele>535.0</ele><time>2026-05-02T10:56:48Z</time></trkpt><trkpt lat="44.08484665894834" lon="11.596953230188674"><ele>535.0</ele><time>2026-05-02T10:56:49Z</time></trkpt><trkpt lat="44.08481156660251" lon="11.596818273006026"><ele>533.2</ele><time>2026-05-02T10:56:50Z</time></trkpt><trkpt lat="44.08479611023238" lon="11.596671698808777"><ele>531.4</ele><time>2026-05-02T10:56:51Z</time></trkpt><trkpt lat="44.08478694733965" lon="11.596521553372103"><ele>529.6</ele><time>2026-05-02T10:56:52Z</time></trkpt><trkpt lat="44.08476694849162" lon="11.596372384069163"><ele>527.8</ele><time>2026-05-02T10:56:53Z</time></trkpt><trkpt lat="44.08472561241542" lon="11.59622937866877"><ele>526.0</ele><time>2026-05-02T10:56:54Z</time></trkpt><trkpt lat="44.08467369099494" lon="11.59609122880293"><ele>526.0</ele><time>2026-05-02T10:56:55Z</time></trkpt><trkpt lat="44.08463794790741" lon="11.595940918897986"><ele>526.0</ele><time>2026-05-02T10:56:56Z</time></trkpt><trkpt lat="44.08463277381273" lon="11.595787349657847"><ele>526.0</ele><time>2026-05-02T10:56:57Z</time></trkpt><trkpt lat="44.0846526544786" lon="11.595634147256886"><ele>526.0</ele><time>2026-05-02T10:56:58Z</time></trkpt><trkpt lat="44.08469367522576" lon="11.595502211591894"><ele>526.0</ele><time>2026-05-02T10:56:59Z</time></trkpt><trkpt lat="44.08472637935298" lon="11.595376692340103"><ele>528.6666666666667</ele><time>2026-05-02T10:57:00.001Z</time></trkpt><trkpt lat="44.08472035373799" lon="11.595251646426826"><ele>531.3333333333334</ele><time>2026-05-02T10:57:01.001Z</time></trkpt><trkpt lat="44.08467313205982" lon="11.595136815758652"><ele>534.0</ele><time>2026-05-02T10:57:02.001Z</time></trkpt><trkpt lat="44.084602922384505" lon="11.59504258351283"><ele>536.6666666666666</ele><time>2026-05-02T10:57:03.001Z</time></trkpt><trkpt lat="44.08453433514031" lon="11.59497777274327"><ele>539.3333333333333</ele><time>2026-05-02T10:57:04.001Z</time></trkpt><trkpt lat="44.08447884272132" lon="11.594935467679228"><ele>542.0</ele><time>2026-05-02T10:57:05.001Z</time></trkpt><trkpt lat="44.08440772019235" lon="11.594897572440598"><ele>542.0</ele><time>2026-05-02T10:57:07.001Z</time></trkpt><trkpt lat="44.08434663800093" lon="11.594938060118531"><ele>542.0</ele><time>2026-05-02T10:58:34Z</time></trkpt><trkpt lat="44.08427259127435" lon="11.594901108318231"><ele>542.0</ele><time>2026-05-02T10:58:36Z</time></trkpt><trkpt lat="44.08418460572101" lon="11.59479127577516"><ele>542.0</ele><time>2026-05-02T10:58:38Z</time></trkpt><trkpt lat="44.08419305247448" lon="11.59461570701983"><ele>542.0</ele><time>2026-05-02T10:58:40Z</time></trkpt><trkpt lat="44.08424122225206" lon="11.594524804973412"><ele>545.1666666666666</ele><time>2026-05-02T10:58:41Z</time></trkpt><trkpt lat="44.08430624142717" lon="11.594450616427254"><ele>548.3333333333333</ele><time>2026-05-02T10:58:42Z</time></trkpt><trkpt lat="44.08436020723181" lon="11.594391756383379"><ele>551.5</ele><time>2026-05-02T10:58:43Z</time></trkpt><trkpt lat="44.084417145873616" lon="11.594323187764713"><ele>554.6666666666666</ele><time>2026-05-02T10:58:44Z</time></trkpt><trkpt lat="44.08446812909155" lon="11.594236882826223"><ele>557.8333333333334</ele><time>2026-05-02T10:58:45Z</time></trkpt><trkpt lat="44.08450664078173" lon="11.594145191898196"><ele>561.0</ele><time>2026-05-02T10:58:46Z</time></trkpt><trkpt lat="44.08448831151642" lon="11.593959985839163"><ele>561.0</ele><time>2026-05-02T10:58:48Z</time></trkpt><trkpt lat="44.08443905167949" lon="11.593874653517211"><ele>561.0</ele><time>2026-05-02T10:58:49Z</time></trkpt><trkpt lat="44.08436733125267" lon="11.593816686010499"><ele>561.0</ele><time>2026-05-02T10:58:50Z</time></trkpt><trkpt lat="44.08427647823239" lon="11.59378556197174"><ele>561.0</ele><time>2026-05-02T10:58:51Z</time></trkpt><trkpt lat="44.084178761873126" lon="11.593761663989245"><ele>561.0</ele><time>2026-05-02T10:58:52Z</time></trkpt><trkpt lat="44.08407679340431" lon="11.593729627266697"><ele>561.5</ele><time>2026-05-02T10:58:53Z</time></trkpt><trkpt lat="44.08397553891148" lon="11.593693798173458"><ele>562.0</ele><time>2026-05-02T10:58:54Z</time></trkpt><trkpt lat="44.08388381745094" lon="11.593662671523756"><ele>562.5</ele><time>2026-05-02T10:58:55Z</time></trkpt><trkpt lat="44.08380147906155" lon="11.593626749613087"><ele>563.0</ele><time>2026-05-02T10:58:56Z</time></trkpt><trkpt lat="44.0837381593543" lon="11.593579224938233"><ele>563.5</ele><time>2026-05-02T10:58:57Z</time></trkpt><trkpt lat="44.083688065993755" lon="11.593503130240014"><ele>564.0</ele><time>2026-05-02T10:58:58Z</time></trkpt><trkpt lat="44.083662070127964" lon="11.593395002548593"><ele>564.0</ele><time>2026-05-02T10:58:59Z</time></trkpt><trkpt lat="44.083654411578934" lon="11.593270049087826"><ele>564.0</ele><time>2026-05-02T10:59:00Z</time></trkpt><trkpt lat="44.08364864894462" lon="11.59314111747732"><ele>564.0</ele><time>2026-05-02T10:59:01Z</time></trkpt><trkpt lat="44.08362222540306" lon="11.593014329343337"><ele>564.0</ele><time>2026-05-02T10:59:02Z</time></trkpt><trkpt lat="44.083567076197106" lon="11.592910825920812"><ele>564.0</ele><time>2026-05-02T10:59:03Z</time></trkpt><trkpt lat="44.08348698624261" lon="11.59284152645995"><ele>564.0</ele><time>2026-05-02T10:59:04.001Z</time></trkpt><trkpt lat="44.08338997852743" lon="11.592814678863123"><ele>564.0</ele><time>2026-05-02T10:59:05.001Z</time></trkpt><trkpt lat="44.08328231137214" lon="11.592836157639255"><ele>564.0</ele><time>2026-05-02T10:59:06.001Z</time></trkpt><trkpt lat="44.08317174078001" lon="11.592860598969047"><ele>564.0</ele><time>2026-05-02T10:59:07.001Z</time></trkpt><trkpt lat="44.08306078769356" lon="11.592849210912574"><ele>564.0</ele><time>2026-05-02T10:59:08.001Z</time></trkpt><trkpt lat="44.082963195241526" lon="11.592804845858113"><ele>564.0</ele><time>2026-05-02T10:59:09.001Z</time></trkpt><trkpt lat="44.08289042552806" lon="11.592728986519088"><ele>564.0</ele><time>2026-05-02T10:59:10.001Z</time></trkpt><trkpt lat="44.08284656084289" lon="11.592623305645459"><ele>564.0</ele><time>2026-05-02T10:59:11.001Z</time></trkpt><trkpt lat="44.082819685073304" lon="11.592504031289348"><ele>564.0</ele><time>2026-05-02T10:59:12.001Z</time></trkpt><trkpt lat="44.08283201652736" lon="11.592379275797892"><ele>564.0</ele><time>2026-05-02T10:59:13.001Z</time></trkpt><trkpt lat="44.0828801116404" lon="11.592271620459668"><ele>564.0</ele><time>2026-05-02T10:59:14.001Z</time></trkpt><trkpt lat="44.08294548482167" lon="11.59217447769648"><ele>564.0</ele><time>2026-05-02T10:59:15.001Z</time></trkpt><trkpt lat="44.08300472960839" lon="11.592066423930264"><ele>564.0</ele><time>2026-05-02T10:59:16.001Z</time></trkpt><trkpt lat="44.08302776486825" lon="11.591927469682906"><ele>564.0</ele><time>2026-05-02T10:59:17.001Z</time></trkpt><trkpt lat="44.08301145986271" lon="11.591774754064824"><ele>564.0</ele><time>2026-05-02T10:59:18.001Z</time></trkpt><trkpt lat="44.08296810885959" lon="11.591621669285338"><ele>565.2</ele><time>2026-05-02T10:59:19.001Z</time></trkpt><trkpt lat="44.08292571608107" lon="11.591470901953734"><ele>566.4</ele><time>2026-05-02T10:59:20.001Z</time></trkpt><trkpt lat="44.08290888315339" lon="11.591323144963972"><ele>567.6</ele><time>2026-05-02T10:59:21.001Z</time></trkpt><trkpt lat="44.08293139343903" lon="11.591188757624156"><ele>568.8</ele><time>2026-05-02T10:59:22.001Z</time></trkpt><trkpt lat="44.0829802429036" lon="11.591073292665865"><ele>570.0</ele><time>2026-05-02T10:59:23.001Z</time></trkpt><trkpt lat="44.08302015876765" lon="11.59095890165771"><ele>571.2</ele><time>2026-05-02T10:59:24.001Z</time></trkpt><trkpt lat="44.08301297545435" lon="11.59083040518601"><ele>572.4</ele><time>2026-05-02T10:59:25.001Z</time></trkpt><trkpt lat="44.08296555609765" lon="11.590716313821531"><ele>573.6</ele><time>2026-05-02T10:59:26.001Z</time></trkpt><trkpt lat="44.082899496184815" lon="11.590608903622174"><ele>574.8</ele><time>2026-05-02T10:59:27.001Z</time></trkpt><trkpt lat="44.08285526544571" lon="11.590499465064703"><ele>576.0</ele><time>2026-05-02T10:59:28.001Z</time></trkpt><trkpt lat="44.0828326800856" lon="11.59038438673449"><ele>577.0</ele><time>2026-05-02T10:59:29.001Z</time></trkpt><trkpt lat="44.08284085961864" lon="11.590259476041776"><ele>578.0</ele><time>2026-05-02T10:59:30.001Z</time></trkpt><trkpt lat="44.08287882022062" lon="11.590136093921172"><ele>579.0</ele><time>2026-05-02T10:59:31.001Z</time></trkpt><trkpt lat="44.08294485295581" lon="11.590025374259328"><ele>580.0</ele><time>2026-05-02T10:59:32.001Z</time></trkpt><trkpt lat="44.08302793486041" lon="11.589922332831287"><ele>581.0</ele><time>2026-05-02T10:59:33.001Z</time></trkpt><trkpt lat="44.083112959484694" lon="11.589814667509755"><ele>581.0</ele><time>2026-05-02T10:59:34.001Z</time></trkpt><trkpt lat="44.08317771440407" lon="11.589694081505039"><ele>581.0</ele><time>2026-05-02T10:59:35.001Z</time></trkpt><trkpt lat="44.08322162747444" lon="11.589561786935112"><ele>581.0</ele><time>2026-05-02T10:59:36.001Z</time></trkpt><trkpt lat="44.08324231191186" lon="11.589417208206246"><ele>581.0</ele><time>2026-05-02T10:59:37.001Z</time></trkpt><trkpt lat="44.08324905673915" lon="11.589268574808342"><ele>581.0</ele><time>2026-05-02T10:59:38.001Z</time></trkpt><trkpt lat="44.08325545509953" lon="11.589117584134547"><ele>583.6666666666666</ele><time>2026-05-02T10:59:39.001Z</time></trkpt><trkpt lat="44.08328016417108" lon="11.58897229430305"><ele>586.3333333333333</ele><time>2026-05-02T10:59:40.001Z</time></trkpt><trkpt lat="44.08332313189268" lon="11.588851153362063"><ele>589.0</ele><time>2026-05-02T10:59:41.001Z</time></trkpt><trkpt lat="44.083383607440076" lon="11.588757715144382"><ele>591.6666666666666</ele><time>2026-05-02T10:59:42.001Z</time></trkpt><trkpt lat="44.08345115165866" lon="11.588703162761336"><ele>594.3333333333334</ele><time>2026-05-02T10:59:43.002Z</time></trkpt><trkpt lat="44.08351684068234" lon="11.588696484667311"><ele>597.0</ele><time>2026-05-02T10:59:44.002Z</time></trkpt><trkpt lat="44.083572675027575" lon="11.588743940592856"><ele>597.0</ele><time>2026-05-02T10:59:45.002Z</time></trkpt><trkpt lat="44.08360389614587" lon="11.588830976101296"><ele>597.0</ele><time>2026-05-02T10:59:46.002Z</time></trkpt><trkpt lat="44.08360623960258" lon="11.58893972712413"><ele>597.0</ele><time>2026-05-02T10:59:47.002Z</time></trkpt><trkpt lat="44.08358306544028" lon="11.589061554174107"><ele>597.0</ele><time>2026-05-02T10:59:48.002Z</time></trkpt><trkpt lat="44.08356083737005" lon="11.589192843280532"><ele>597.0</ele><time>2026-05-02T10:59:49.002Z</time></trkpt><trkpt lat="44.08354873013822" lon="11.589335718913427"><ele>597.0</ele><time>2026-05-02T10:59:50.002Z</time></trkpt><trkpt lat="44.08356214398405" lon="11.589488887941307"><ele>598.0</ele><time>2026-05-02T10:59:51.002Z</time></trkpt><trkpt lat="44.08358805505151" lon="11.589646736267255"><ele>599.0</ele><time>2026-05-02T10:59:52.002Z</time></trkpt><trkpt lat="44.08361532831048" lon="11.589812773521844"><ele>600.0</ele><time>2026-05-02T10:59:53.002Z</time></trkpt><trkpt lat="44.08364589205779" lon="11.58998487567253"><ele>601.0</ele><time>2026-05-02T10:59:54.002Z</time></trkpt><trkpt lat="44.083677276505085" lon="11.59016182568706"><ele>601.0</ele><time>2026-05-02T10:59:55.002Z</time></trkpt><trkpt lat="44.08371213437986" lon="11.590341132482736"><ele>601.0</ele><time>2026-05-02T10:59:56.002Z</time></trkpt><trkpt lat="44.08374565027944" lon="11.590517383272639"><ele>601.0</ele><time>2026-05-02T10:59:57.002Z</time></trkpt><trkpt lat="44.08377456712994" lon="11.590680697664032"><ele>601.0</ele><time>2026-05-02T10:59:58.002Z</time></trkpt><trkpt lat="44.08379305567131" lon="11.590832865624868"><ele>601.0</ele><time>2026-05-02T10:59:59.002Z</time></trkpt><trkpt lat="44.08380613947512" lon="11.590961269542484"><ele>601.0</ele><time>2026-05-02T11:00:00.002Z</time></trkpt><trkpt lat="44.0838332874079" lon="11.591067252000855"><ele>601.0</ele><time>2026-05-02T11:00:01.002Z</time></trkpt><trkpt lat="44.08388345650246" lon="11.591133679017554"><ele>601.0</ele><time>2026-05-02T11:00:02.002Z</time></trkpt><trkpt lat="44.08394754805886" lon="11.59114582999576"><ele>601.0</ele><time>2026-05-02T11:00:03.002Z</time></trkpt><trkpt lat="44.08401591958708" lon="11.591099802345365"><ele>601.0</ele><time>2026-05-02T11:00:04.002Z</time></trkpt><trkpt lat="44.08406437163471" lon="11.591000337370634"><ele>601.0</ele><time>2026-05-02T11:00:05.002Z</time></trkpt><trkpt lat="44.08409275155054" lon="11.590866365110072"><ele>601.0</ele><time>2026-05-02T11:00:06.002Z</time></trkpt><trkpt lat="44.08412320184131" lon="11.590721205258415"><ele>601.0</ele><time>2026-05-02T11:00:07.002Z</time></trkpt><trkpt lat="44.08417599515871" lon="11.59057158003013"><ele>601.0</ele><time>2026-05-02T11:00:08.002Z</time></trkpt><trkpt lat="44.084232327538885" lon="11.590418035027499"><ele>606.25</ele><time>2026-05-02T11:00:09.002Z</time></trkpt><trkpt lat="44.084270161034134" lon="11.590260037598743"><ele>611.5</ele><time>2026-05-02T11:00:10.002Z</time></trkpt><trkpt lat="44.084275855521526" lon="11.590094910915234"><ele>616.75</ele><time>2026-05-02T11:00:11.002Z</time></trkpt><trkpt lat="44.08426143544539" lon="11.589932724860345"><ele>622.0</ele><time>2026-05-02T11:00:12.002Z</time></trkpt><trkpt lat="44.08423210864157" lon="11.589778271034593"><ele>622.0</ele><time>2026-05-02T11:00:13.002Z</time></trkpt><trkpt lat="44.084199965266905" lon="11.589643607782643"><ele>622.0</ele><time>2026-05-02T11:00:14.002Z</time></trkpt><trkpt lat="44.08418881415637" lon="11.589516487022703"><ele>622.0</ele><time>2026-05-02T11:00:15.002Z</time></trkpt><trkpt lat="44.08420817295616" lon="11.589381401118644"><ele>622.0</ele><time>2026-05-02T11:00:16.002Z</time></trkpt><trkpt lat="44.08425336049759" lon="11.58923966111332"><ele>622.0</ele><time>2026-05-02T11:00:17.002Z</time></trkpt><trkpt lat="44.08431332247505" lon="11.58909994718105"><ele>621.75</ele><time>2026-05-02T11:00:18.002Z</time></trkpt><trkpt lat="44.08437385111586" lon="11.588952390227467"><ele>621.5</ele><time>2026-05-02T11:00:19.002Z</time></trkpt><trkpt lat="44.08442765659312" lon="11.588793306454058"><ele>621.25</ele><time>2026-05-02T11:00:20.002Z</time></trkpt><trkpt lat="44.0844755546905" lon="11.588631180918496"><ele>621.0</ele><time>2026-05-02T11:00:21.002Z</time></trkpt><trkpt lat="44.084517771548214" lon="11.588483194454126"><ele>620.0</ele><time>2026-05-02T11:00:22.003Z</time></trkpt><trkpt lat="44.08456352088716" lon="11.58834833911921"><ele>619.0</ele><time>2026-05-02T11:00:23.003Z</time></trkpt><trkpt lat="44.084617098064264" lon="11.588230728181802"><ele>618.0</ele><time>2026-05-02T11:00:24.003Z</time></trkpt><trkpt lat="44.084686973726306" lon="11.588139081139158"><ele>617.0</ele><time>2026-05-02T11:00:25.003Z</time></trkpt><trkpt lat="44.08477720441188" lon="11.588071344278337"><ele>616.0</ele><time>2026-05-02T11:00:26.003Z</time></trkpt><trkpt lat="44.0848789226103" lon="11.588032464294352"><ele>619.5</ele><time>2026-05-02T11:00:27.003Z</time></trkpt><trkpt lat="44.084982624701404" lon="11.588021997360881"><ele>623.0</ele><time>2026-05-02T11:00:28.003Z</time></trkpt><trkpt lat="44.085062162118355" lon="11.588043424837073"><ele>626.5</ele><time>2026-05-02T11:00:29.003Z</time></trkpt><trkpt lat="44.0851157970301" lon="11.588104931635971"><ele>630.0</ele><time>2026-05-02T11:00:30.003Z</time></trkpt><trkpt lat="44.08513925361118" lon="11.588194130624409"><ele>633.5</ele><time>2026-05-02T11:00:31.003Z</time></trkpt><trkpt lat="44.085121146805655" lon="11.588284475341009"><ele>637.0</ele><time>2026-05-02T11:00:32.003Z</time></trkpt><trkpt lat="44.08506966159981" lon="11.588372896457653"><ele>637.0</ele><time>2026-05-02T11:00:33.003Z</time></trkpt><trkpt lat="44.08499822293364" lon="11.588453261530903"><ele>637.0</ele><time>2026-05-02T11:00:34Z</time></trkpt><trkpt lat="44.084929140363165" lon="11.588552374094117"><ele>637.0</ele><time>2026-05-02T11:00:35Z</time></trkpt><trkpt lat="44.08488271934936" lon="11.588693098498618"><ele>637.0</ele><time>2026-05-02T11:00:36Z</time></trkpt><trkpt lat="44.0848538262413" lon="11.588853371193094"><ele>637.0</ele><time>2026-05-02T11:00:37Z</time></trkpt><trkpt lat="44.08485542299368" lon="11.589024084780462"><ele>637.75</ele><time>2026-05-02T11:00:38Z</time></trkpt><trkpt lat="44.08488712003288" lon="11.589198256242002"><ele>638.5</ele><time>2026-05-02T11:00:39Z</time></trkpt><trkpt lat="44.08493943381597" lon="11.58936642510595"><ele>639.25</ele><time>2026-05-02T11:00:40Z</time></trkpt><trkpt lat="44.08501341331755" lon="11.589496320534078"><ele>640.0</ele><time>2026-05-02T11:00:41Z</time></trkpt><trkpt lat="44.08511034855309" lon="11.589600628611771"><ele>640.0</ele><time>2026-05-02T11:00:42Z</time></trkpt><trkpt lat="44.085226809148" lon="11.589673251277713"><ele>640.0</ele><time>2026-05-02T11:00:43Z</time></trkpt><trkpt lat="44.08535118163564" lon="11.589727305649179"><ele>640.0</ele><time>2026-05-02T11:00:44Z</time></trkpt><trkpt lat="44.08546322932925" lon="11.5897851313376"><ele>640.0</ele><time>2026-05-02T11:00:45Z</time></trkpt><trkpt lat="44.08556989619635" lon="11.58985714414979"><ele>640.0</ele><time>2026-05-02T11:00:46Z</time></trkpt><trkpt lat="44.08565756544401" lon="11.58994688291266"><ele>640.0</ele><time>2026-05-02T11:00:47Z</time></trkpt><trkpt lat="44.085725293074375" lon="11.59005580421366"><ele>640.0</ele><time>2026-05-02T11:00:48Z</time></trkpt><trkpt lat="44.08577297876961" lon="11.590181150732404"><ele>640.0</ele><time>2026-05-02T11:00:49Z</time></trkpt><trkpt lat="44.085788220361955" lon="11.59032735873037"><ele>640.0</ele><time>2026-05-02T11:00:50Z</time></trkpt><trkpt lat="44.08577087571747" lon="11.59048113832135"><ele>639.6</ele><time>2026-05-02T11:00:51Z</time></trkpt><trkpt lat="44.0857416705031" lon="11.590633854238892"><ele>639.2</ele><time>2026-05-02T11:00:52Z</time></trkpt><trkpt lat="44.0857216833806" lon="11.590791146225023"><ele>638.8</ele><time>2026-05-02T11:00:53Z</time></trkpt><trkpt lat="44.08572119200959" lon="11.59092761595225"><ele>638.4</ele><time>2026-05-02T11:00:54Z</time></trkpt><trkpt lat="44.08574754655987" lon="11.59105134638615"><ele>638.0</ele><time>2026-05-02T11:00:55Z</time></trkpt><trkpt lat="44.085807702808744" lon="11.591136331948084"><ele>642.2</ele><time>2026-05-02T11:00:56Z</time></trkpt><trkpt lat="44.085889359957676" lon="11.591181440204613"><ele>646.4</ele><time>2026-05-02T11:00:57Z</time></trkpt><trkpt lat="44.08598501523925" lon="11.591159977363775"><ele>650.6</ele><time>2026-05-02T11:00:58Z</time></trkpt><trkpt lat="44.08607545603541" lon="11.591099535546755"><ele>654.8000000000001</ele><time>2026-05-02T11:00:59Z</time></trkpt><trkpt lat="44.086157786495406" lon="11.59100408143462"><ele>659.0</ele><time>2026-05-02T11:01:00Z</time></trkpt><trkpt lat="44.08622791085436" lon="11.590881059846172"><ele>659.0</ele><time>2026-05-02T11:01:01Z</time></trkpt><trkpt lat="44.086276587247575" lon="11.590727503354023"><ele>659.0</ele><time>2026-05-02T11:01:02Z</time></trkpt><trkpt lat="44.08630653062642" lon="11.59055807769466"><ele>659.0</ele><time>2026-05-02T11:01:03Z</time></trkpt><trkpt lat="44.086305866937025" lon="11.590389835914245"><ele>659.0</ele><time>2026-05-02T11:01:04Z</time></trkpt><trkpt lat="44.08627821895339" lon="11.590211653921092"><ele>658.75</ele><time>2026-05-02T11:01:05Z</time></trkpt><trkpt lat="44.086231754420304" lon="11.590031199664399"><ele>658.5</ele><time>2026-05-02T11:01:06Z</time></trkpt><trkpt lat="44.086179848784155" lon="11.589854496710513"><ele>658.25</ele><time>2026-05-02T11:01:07Z</time></trkpt><trkpt lat="44.086131895319454" lon="11.589682970556979"><ele>658.0</ele><time>2026-05-02T11:01:08Z</time></trkpt><trkpt lat="44.08609429288214" lon="11.589510860201319"><ele>658.25</ele><time>2026-05-02T11:01:09Z</time></trkpt><trkpt lat="44.08606842870543" lon="11.589338669631585"><ele>658.5</ele><time>2026-05-02T11:01:10.001Z</time></trkpt><trkpt lat="44.086058576689" lon="11.589165834223703"><ele>658.75</ele><time>2026-05-02T11:01:11.001Z</time></trkpt><trkpt lat="44.086070057803" lon="11.588991506720713"><ele>659.0</ele><time>2026-05-02T11:01:12.001Z</time></trkpt><trkpt lat="44.08610411727471" lon="11.58881871075118"><ele>657.5</ele><time>2026-05-02T11:01:13.001Z</time></trkpt><trkpt lat="44.08615143818822" lon="11.588662982834633"><ele>656.0</ele><time>2026-05-02T11:01:14.001Z</time></trkpt><trkpt lat="44.08620931270382" lon="11.58851236855342"><ele>654.5</ele><time>2026-05-02T11:01:15.001Z</time></trkpt><trkpt lat="44.08628448326961" lon="11.58837183289929"><ele>653.0</ele><time>2026-05-02T11:01:16.001Z</time></trkpt><trkpt lat="44.08637138531949" lon="11.588242427339708"><ele>653.0</ele><time>2026-05-02T11:01:17.001Z</time></trkpt><trkpt lat="44.086458547598056" lon="11.588121325014402"><ele>653.0</ele><time>2026-05-02T11:01:18.001Z</time></trkpt><trkpt lat="44.086539469184174" lon="11.58802092044671"><ele>653.0</ele><time>2026-05-02T11:01:19.001Z</time></trkpt><trkpt lat="44.08662628516823" lon="11.587949256122181"><ele>653.0</ele><time>2026-05-02T11:01:20.001Z</time></trkpt><trkpt lat="44.08672200660514" lon="11.587919265143135"><ele>653.0</ele><time>2026-05-02T11:01:21.001Z</time></trkpt><trkpt lat="44.086823216104946" lon="11.587905944840625"><ele>654.8</ele><time>2026-05-02T11:01:22.001Z</time></trkpt><trkpt lat="44.086913995711186" lon="11.587865927568844"><ele>656.5999999999999</ele><time>2026-05-02T11:01:23.001Z</time></trkpt><trkpt lat="44.08698146323726" lon="11.587773809803421"><ele>658.4000000000001</ele><time>2026-05-02T11:01:24.001Z</time></trkpt><trkpt lat="44.08701847096104" lon="11.587635262591256"><ele>660.2</ele><time>2026-05-02T11:01:25.001Z</time></trkpt><trkpt lat="44.087017840447785" lon="11.587481716766266"><ele>662.0</ele><time>2026-05-02T11:01:26.001Z</time></trkpt><trkpt lat="44.08700061154603" lon="11.587333577441049"><ele>662.0</ele><time>2026-05-02T11:01:27.001Z</time></trkpt><trkpt lat="44.08699271639271" lon="11.587189333805364"><ele>662.0</ele><time>2026-05-02T11:01:28.001Z</time></trkpt><trkpt lat="44.0870151548104" lon="11.58706350179938"><ele>662.0</ele><time>2026-05-02T11:01:29.001Z</time></trkpt><trkpt lat="44.08706941038089" lon="11.586942333204936"><ele>662.0</ele><time>2026-05-02T11:01:30.001Z</time></trkpt><trkpt lat="44.08715192337392" lon="11.586832032322755"><ele>662.0</ele><time>2026-05-02T11:01:31.001Z</time></trkpt><trkpt lat="44.08724720627364" lon="11.586727901890175"><ele>660.0</ele><time>2026-05-02T11:01:32.001Z</time></trkpt><trkpt lat="44.08735416917293" lon="11.586622475688703"><ele>658.0</ele><time>2026-05-02T11:01:33.001Z</time></trkpt><trkpt lat="44.08746822228569" lon="11.586524171229632"><ele>656.0</ele><time>2026-05-02T11:01:34.001Z</time></trkpt><trkpt lat="44.08759056004861" lon="11.586452096414915"><ele>654.0</ele><time>2026-05-02T11:01:35.001Z</time></trkpt><trkpt lat="44.08771800928018" lon="11.586418292223977"><ele>659.5</ele><time>2026-05-02T11:01:36.001Z</time></trkpt><trkpt lat="44.08785088344169" lon="11.58641086778208"><ele>665.0</ele><time>2026-05-02T11:01:37.001Z</time></trkpt><trkpt lat="44.087986131655946" lon="11.586412244720163"><ele>670.5</ele><time>2026-05-02T11:01:38.001Z</time></trkpt><trkpt lat="44.088122534703935" lon="11.586399832892738"><ele>676.0</ele><time>2026-05-02T11:01:39.001Z</time></trkpt><trkpt lat="44.08825757203537" lon="11.586364786009286"><ele>677.0</ele><time>2026-05-02T11:01:40.001Z</time></trkpt><trkpt lat="44.08838725991703" lon="11.586304422724034"><ele>678.0</ele><time>2026-05-02T11:01:41.001Z</time></trkpt><trkpt lat="44.088498154384446" lon="11.586210161645917"><ele>679.0</ele><time>2026-05-02T11:01:42.001Z</time></trkpt><trkpt lat="44.08858310807384" lon="11.586094428196745"><ele>680.0</ele><time>2026-05-02T11:01:43.001Z</time></trkpt><trkpt lat="44.08862763608396" lon="11.58596006237858"><ele>680.0</ele><time>2026-05-02T11:01:44.001Z</time></trkpt><trkpt lat="44.08863453318792" lon="11.58581012871871"><ele>680.0</ele><time>2026-05-02T11:01:45.001Z</time></trkpt><trkpt lat="44.088618483488574" lon="11.585662173977443"><ele>680.0</ele><time>2026-05-02T11:01:46.001Z</time></trkpt><trkpt lat="44.08861528051097" lon="11.585517462179785"><ele>680.0</ele><time>2026-05-02T11:01:47.001Z</time></trkpt><trkpt lat="44.08865404316547" lon="11.585385589710818"><ele>680.0</ele><time>2026-05-02T11:01:48.001Z</time></trkpt><trkpt lat="44.08872024900009" lon="11.585260781553686"><ele>680.0</ele><time>2026-05-02T11:01:49.002Z</time></trkpt><trkpt lat="44.08879373447694" lon="11.585136318138431"><ele>680.0</ele><time>2026-05-02T11:01:50.002Z</time></trkpt><trkpt lat="44.08886112471372" lon="11.584997063096615"><ele>680.0</ele><time>2026-05-02T11:01:51.002Z</time></trkpt><trkpt lat="44.08892200071539" lon="11.584857316546767"><ele>680.0</ele><time>2026-05-02T11:01:52.002Z</time></trkpt><trkpt lat="44.08897656355348" lon="11.584727320331739"><ele>680.0</ele><time>2026-05-02T11:01:53.002Z</time></trkpt><trkpt lat="44.08903330011055" lon="11.584618461179874"><ele>680.0</ele><time>2026-05-02T11:01:54.002Z</time></trkpt><trkpt lat="44.089108414727704" lon="11.584531702402035"><ele>680.0</ele><time>2026-05-02T11:01:55.002Z</time></trkpt><trkpt lat="44.0891973428145" lon="11.58448956147974"><ele>680.0</ele><time>2026-05-02T11:01:56.002Z</time></trkpt><trkpt lat="44.089295445236644" lon="11.58449480467333"><ele>680.0</ele><time>2026-05-02T11:01:57.002Z</time></trkpt><trkpt lat="44.0893926956474" lon="11.584544200151916"><ele>685.25</ele><time>2026-05-02T11:01:58.002Z</time></trkpt><trkpt lat="44.08949553240471" lon="11.58460186087024"><ele>690.5</ele><time>2026-05-02T11:01:59.002Z</time></trkpt><trkpt lat="44.089609042376175" lon="11.584646721693899"><ele>695.75</ele><time>2026-05-02T11:02:00.002Z</time></trkpt><trkpt lat="44.089730967472356" lon="11.584679042578744"><ele>701.0</ele><time>2026-05-02T11:02:01.002Z</time></trkpt><trkpt lat="44.089848382688565" lon="11.584709009490592"><ele>702.0</ele><time>2026-05-02T11:02:02.002Z</time></trkpt><trkpt lat="44.089954095103465" lon="11.584736404033626"><ele>703.0</ele><time>2026-05-02T11:02:03.002Z</time></trkpt><trkpt lat="44.09005703298825" lon="11.584750113577067"><ele>704.0</ele><time>2026-05-02T11:02:04.002Z</time></trkpt><trkpt lat="44.09015617118329" lon="11.584720697472974"><ele>705.0</ele><time>2026-05-02T11:02:05.002Z</time></trkpt><trkpt lat="44.09023815590349" lon="11.584645512430859"><ele>706.0</ele><time>2026-05-02T11:02:06.002Z</time></trkpt><trkpt lat="44.09030053818407" lon="11.584539006471095"><ele>701.8</ele><time>2026-05-02T11:02:07.002Z</time></trkpt><trkpt lat="44.090344222963346" lon="11.584414711167994"><ele>697.5999999999999</ele><time>2026-05-02T11:02:08.002Z</time></trkpt><trkpt lat="44.090384688264066" lon="11.584279101227315"><ele>693.4</ele><time>2026-05-02T11:02:09.002Z</time></trkpt><trkpt lat="44.090438465332966" lon="11.584147595650567"><ele>689.2</ele><time>2026-05-02T11:02:10.002Z</time></trkpt><trkpt lat="44.09051462195197" lon="11.584022223738536"><ele>685.0</ele><time>2026-05-02T11:02:11.002Z</time></trkpt><trkpt lat="44.090612070703166" lon="11.583905173621496"><ele>685.0</ele><time>2026-05-02T11:02:12.002Z</time></trkpt><trkpt lat="44.09071767447265" lon="11.5837870916146"><ele>685.0</ele><time>2026-05-02T11:02:13.002Z</time></trkpt><trkpt lat="44.09082945136643" lon="11.583671128815244"><ele>685.0</ele><time>2026-05-02T11:02:14.002Z</time></trkpt><trkpt lat="44.09094216054284" lon="11.583559112156678"><ele>685.0</ele><time>2026-05-02T11:02:15.002Z</time></trkpt><trkpt lat="44.09105674760373" lon="11.583465688097162"><ele>686.25</ele><time>2026-05-02T11:02:16.002Z</time></trkpt><trkpt lat="44.09117494128036" lon="11.583397996915961"><ele>687.5</ele><time>2026-05-02T11:02:17.002Z</time></trkpt><trkpt lat="44.091297530866456" lon="11.583346212185669"><ele>688.75</ele><time>2026-05-02T11:02:18.002Z</time></trkpt><trkpt lat="44.09140919167282" lon="11.583295086562515"><ele>690.0</ele><time>2026-05-02T11:02:19.002Z</time></trkpt><trkpt lat="44.09150320123509" lon="11.583237765072564"><ele>690.0</ele><time>2026-05-02T11:02:20.002Z</time></trkpt><trkpt lat="44.09159012948828" lon="11.583157339914543"><ele>690.0</ele><time>2026-05-02T11:02:21.002Z</time></trkpt><trkpt lat="44.091650393356865" lon="11.58303800273579"><ele>690.0</ele><time>2026-05-02T11:02:22.002Z</time></trkpt><trkpt lat="44.09168078392545" lon="11.58288704451315"><ele>690.0</ele><time>2026-05-02T11:02:23.002Z</time></trkpt><trkpt lat="44.091686967665254" lon="11.582735077605104"><ele>690.0</ele><time>2026-05-02T11:02:24.002Z</time></trkpt><trkpt lat="44.09169875140121" lon="11.582602723793139"><ele>690.5</ele><time>2026-05-02T11:02:25.002Z</time></trkpt><trkpt lat="44.091739811928996" lon="11.58250414712728"><ele>691.0</ele><time>2026-05-02T11:02:26.002Z</time></trkpt><trkpt lat="44.09180280164734" lon="11.582449817781756"><ele>691.5</ele><time>2026-05-02T11:02:27.002Z</time></trkpt><trkpt lat="44.09187591279771" lon="11.582442931792436"><ele>692.0</ele><time>2026-05-02T11:02:28.003Z</time></trkpt><trkpt lat="44.09195036691206" lon="11.582480053472974"><ele>692.5</ele><time>2026-05-02T11:02:29.003Z</time></trkpt><trkpt lat="44.09202069478901" lon="11.582550808829312"><ele>693.0</ele><time>2026-05-02T11:02:30.003Z</time></trkpt><trkpt lat="44.09208889893671" lon="11.58264352438162"><ele>693.0</ele><time>2026-05-02T11:02:31.003Z</time></trkpt><trkpt lat="44.09216333915925" lon="11.582739326920676"><ele>693.0</ele><time>2026-05-02T11:02:32.003Z</time></trkpt><trkpt lat="44.092254104415574" lon="11.582806011551792"><ele>693.0</ele><time>2026-05-02T11:02:33.003Z</time></trkpt><trkpt lat="44.09236208149463" lon="11.582816717711196"><ele>693.0</ele><time>2026-05-02T11:02:34.003Z</time></trkpt><trkpt lat="44.09246826197993" lon="11.58276362304494"><ele>693.0</ele><time>2026-05-02T11:02:35.003Z</time></trkpt><trkpt lat="44.092567279262965" lon="11.582667389948636"><ele>693.75</ele><time>2026-05-02T11:02:36.003Z</time></trkpt><trkpt lat="44.092661702708035" lon="11.582549120186878"><ele>694.5</ele><time>2026-05-02T11:02:37.003Z</time></trkpt><trkpt lat="44.09276661743004" lon="11.582433649968387"><ele>695.25</ele><time>2026-05-02T11:02:38.003Z</time></trkpt><trkpt lat="44.0928863596934" lon="11.582330328426563"><ele>696.0</ele><time>2026-05-02T11:02:39.003Z</time></trkpt><trkpt lat="44.09301146059535" lon="11.582243514793836"><ele>696.0</ele><time>2026-05-02T11:02:40Z</time></trkpt><trkpt lat="44.09314026976625" lon="11.582161685717017"><ele>696.0</ele><time>2026-05-02T11:02:41Z</time></trkpt><trkpt lat="44.09326486570716" lon="11.582081153799606"><ele>696.0</ele><time>2026-05-02T11:02:42Z</time></trkpt><trkpt lat="44.09338379892223" lon="11.582001565652947"><ele>696.0</ele><time>2026-05-02T11:02:43Z</time></trkpt><trkpt lat="44.09349866102684" lon="11.581921573432327"><ele>693.75</ele><time>2026-05-02T11:02:44Z</time></trkpt><trkpt lat="44.09360903295083" lon="11.581842149515614"><ele>691.5</ele><time>2026-05-02T11:02:45Z</time></trkpt><trkpt lat="44.093716569853065" lon="11.581772545113248"><ele>689.25</ele><time>2026-05-02T11:02:46Z</time></trkpt><trkpt lat="44.093827530906076" lon="11.581730735848566"><ele>687.0</ele><time>2026-05-02T11:02:47Z</time></trkpt><trkpt lat="44.09394161984613" lon="11.581725406578519"><ele>687.0</ele><time>2026-05-02T11:02:48Z</time></trkpt><trkpt lat="44.094045862270086" lon="11.58175469548609"><ele>687.0</ele><time>2026-05-02T11:02:49Z</time></trkpt><trkpt lat="44.09414022503519" lon="11.581786111522051"><ele>687.0</ele><time>2026-05-02T11:02:50Z</time></trkpt><trkpt lat="44.09423441701851" lon="11.581794536515964"><ele>687.0</ele><time>2026-05-02T11:02:51Z</time></trkpt><trkpt lat="44.09432942662317" lon="11.581765483242217"><ele>687.0</ele><time>2026-05-02T11:02:52Z</time></trkpt><trkpt lat="44.09442144790379" lon="11.58169647837243"><ele>686.4000000000001</ele><time>2026-05-02T11:02:53Z</time></trkpt><trkpt lat="44.094502674259914" lon="11.581602063251177"><ele>685.8000000000001</ele><time>2026-05-02T11:02:54Z</time></trkpt><trkpt lat="44.094575798395894" lon="11.581494777672717"><ele>685.2</ele><time>2026-05-02T11:02:55Z</time></trkpt><trkpt lat="44.094624612987964" lon="11.581358548120273"><ele>684.6</ele><time>2026-05-02T11:02:56Z</time></trkpt><trkpt lat="44.09464144956844" lon="11.581197338581962"><ele>684.0</ele><time>2026-05-02T11:02:57Z</time></trkpt><trkpt lat="44.094635118705085" lon="11.58102630506169"><ele>684.0</ele><time>2026-05-02T11:02:58Z</time></trkpt><trkpt lat="44.09462168092352" lon="11.580851189840654"><ele>684.0</ele><time>2026-05-02T11:02:59Z</time></trkpt><trkpt lat="44.094612146451325" lon="11.580676453668522"><ele>684.0</ele><time>2026-05-02T11:03:00Z</time></trkpt><trkpt lat="44.094616221449314" lon="11.580517716239834"><ele>684.0</ele><time>2026-05-02T11:03:01Z</time></trkpt><trkpt lat="44.09464391424625" lon="11.580358348520999"><ele>682.5</ele><time>2026-05-02T11:03:02Z</time></trkpt><trkpt lat="44.094690601293856" lon="11.580205452172065"><ele>681.0</ele><time>2026-05-02T11:03:03Z</time></trkpt><trkpt lat="44.09474435085082" lon="11.580052357182382"><ele>679.5</ele><time>2026-05-02T11:03:04Z</time></trkpt><trkpt lat="44.0947873908757" lon="11.579887339849774"><ele>678.0</ele><time>2026-05-02T11:03:05Z</time></trkpt><trkpt lat="44.094805309122656" lon="11.579705348719928"><ele>678.0</ele><time>2026-05-02T11:03:06Z</time></trkpt><trkpt lat="44.09480530386891" lon="11.579519259344382"><ele>678.0</ele><time>2026-05-02T11:03:07Z</time></trkpt><trkpt lat="44.09480683882466" lon="11.579329678789255"><ele>678.0</ele><time>2026-05-02T11:03:08Z</time></trkpt><trkpt lat="44.09483413271912" lon="11.579143663601883"><ele>678.0</ele><time>2026-05-02T11:03:09Z</time></trkpt><trkpt lat="44.094883716295236" lon="11.57896595741637"><ele>682.75</ele><time>2026-05-02T11:03:10Z</time></trkpt><trkpt lat="44.09493409561535" lon="11.57878870370558"><ele>687.5</ele><time>2026-05-02T11:03:11Z</time></trkpt><trkpt lat="44.09497829685933" lon="11.578616968219176"><ele>692.25</ele><time>2026-05-02T11:03:12Z</time></trkpt><trkpt lat="44.09502055705322" lon="11.578457475337078"><ele>697.0</ele><time>2026-05-02T11:03:13Z</time></trkpt><trkpt lat="44.09506714419771" lon="11.578310890994784"><ele>697.0</ele><time>2026-05-02T11:03:14Z</time></trkpt><trkpt lat="44.09511875319701" lon="11.578180017711494"><ele>697.0</ele><time>2026-05-02T11:03:15Z</time></trkpt><trkpt lat="44.09518310812861" lon="11.57807239717804"><ele>697.0</ele><time>2026-05-02T11:03:16Z</time></trkpt><trkpt lat="44.09526332881409" lon="11.577993559509041"><ele>697.0</ele><time>2026-05-02T11:03:17Z</time></trkpt><trkpt lat="44.09535433265593" lon="11.577956447477334"><ele>697.0</ele><time>2026-05-02T11:03:18Z</time></trkpt><trkpt lat="44.09544632857589" lon="11.577955042143753"><ele>697.0</ele><time>2026-05-02T11:03:19Z</time></trkpt><trkpt lat="44.095543358246296" lon="11.577986218405664"><ele>697.0</ele><time>2026-05-02T11:03:20.001Z</time></trkpt><trkpt lat="44.0956380608899" lon="11.578049139988742"><ele>697.0</ele><time>2026-05-02T11:03:21.001Z</time></trkpt><trkpt lat="44.09572841391593" lon="11.57813232396169"><ele>697.0</ele><time>2026-05-02T11:03:22.001Z</time></trkpt><trkpt lat="44.09582363792317" lon="11.578214710850956"><ele>697.0</ele><time>2026-05-02T11:03:23.001Z</time></trkpt><trkpt lat="44.09592724037705" lon="11.578281882464575"><ele>699.25</ele><time>2026-05-02T11:03:24.001Z</time></trkpt><trkpt lat="44.09604401940941" lon="11.578321209303677"><ele>701.5</ele><time>2026-05-02T11:03:25.001Z</time></trkpt><trkpt lat="44.09616757597014" lon="11.578334626355062"><ele>703.75</ele><time>2026-05-02T11:03:26.001Z</time></trkpt><trkpt lat="44.09628638897549" lon="11.578340135416447"><ele>706.0</ele><time>2026-05-02T11:03:27.001Z</time></trkpt><trkpt lat="44.09640044754051" lon="11.578345577237151"><ele>706.0</ele><time>2026-05-02T11:03:28.001Z</time></trkpt><trkpt lat="44.09651017407298" lon="11.578352866008316"><ele>706.0</ele><time>2026-05-02T11:03:29.001Z</time></trkpt><trkpt lat="44.09661551437749" lon="11.578346476037984"><ele>706.0</ele><time>2026-05-02T11:03:30.001Z</time></trkpt><trkpt lat="44.09671320493465" lon="11.578325715272797"><ele>706.0</ele><time>2026-05-02T11:03:31.001Z</time></trkpt><trkpt lat="44.096806077047276" lon="11.578282722111188"><ele>706.0</ele><time>2026-05-02T11:03:32.001Z</time></trkpt><trkpt lat="44.096880919654346" lon="11.578207530182677"><ele>704.1999999999999</ele><time>2026-05-02T11:03:33.001Z</time></trkpt><trkpt lat="44.09692336428871" lon="11.578093784823135"><ele>702.4</ele><time>2026-05-02T11:03:34.001Z</time></trkpt><trkpt lat="44.09692466533171" lon="11.577962067327146"><ele>700.6</ele><time>2026-05-02T11:03:35.001Z</time></trkpt><trkpt lat="44.09688829418783" lon="11.577825792508799"><ele>698.8</ele><time>2026-05-02T11:03:36.001Z</time></trkpt><trkpt lat="44.09682663198804" lon="11.57769808819039"><ele>697.0</ele><time>2026-05-02T11:03:37.001Z</time></trkpt><trkpt lat="44.096749319015046" lon="11.577567260833192"><ele>695.5</ele><time>2026-05-02T11:03:38.001Z</time></trkpt><trkpt lat="44.09667132104165" lon="11.577423826991483"><ele>694.0</ele><time>2026-05-02T11:03:39.001Z</time></trkpt><trkpt lat="44.09659722554942" lon="11.577270569624936"><ele>692.5</ele><time>2026-05-02T11:03:40.001Z</time></trkpt><trkpt lat="44.096526155310244" lon="11.57711202308332"><ele>691.0</ele><time>2026-05-02T11:03:41.001Z</time></trkpt><trkpt lat="44.096456612430615" lon="11.57695914374133"><ele>686.5999999999999</ele><time>2026-05-02T11:03:42.001Z</time></trkpt><trkpt lat="44.09639445375755" lon="11.57680488548164"><ele>682.2</ele><time>2026-05-02T11:03:43.001Z</time></trkpt><trkpt lat="44.0963492920385" lon="11.576653413749437"><ele>677.8</ele><time>2026-05-02T11:03:44.001Z</time></trkpt><trkpt lat="44.096316003781" lon="11.57652883521734"><ele>673.4000000000001</ele><time>2026-05-02T11:03:45.001Z</time></trkpt><trkpt lat="44.0962874199063" lon="11.576432052851183"><ele>669.0</ele><time>2026-05-02T11:03:46.001Z</time></trkpt><trkpt lat="44.09625523952998" lon="11.576326102249634"><ele>669.0</ele><time>2026-05-02T11:03:47.001Z</time></trkpt><trkpt lat="44.09622183810561" lon="11.576211889149462"><ele>669.0</ele><time>2026-05-02T11:03:48.001Z</time></trkpt><trkpt lat="44.09619305696021" lon="11.57610487022698"><ele>669.0</ele><time>2026-05-02T11:03:49.001Z</time></trkpt><trkpt lat="44.096165809137766" lon="11.57599933259625"><ele>669.0</ele><time>2026-05-02T11:03:50.001Z</time></trkpt><trkpt lat="44.096151547710306" lon="11.575891243599616"><ele>669.0</ele><time>2026-05-02T11:03:51.001Z</time></trkpt><trkpt lat="44.09615877601082" lon="11.575769075283144"><ele>669.0</ele><time>2026-05-02T11:03:52.001Z</time></trkpt><trkpt lat="44.09618234702909" lon="11.57564079138535"><ele>668.2</ele><time>2026-05-02T11:03:53.001Z</time></trkpt><trkpt lat="44.09622433722662" lon="11.575516446817442"><ele>667.4000000000001</ele><time>2026-05-02T11:03:54.001Z</time></trkpt><trkpt lat="44.09628433990958" lon="11.575416523131404"><ele>666.6</ele><time>2026-05-02T11:03:55.001Z</time></trkpt><trkpt lat="44.096361021536104" lon="11.575345405524931"><ele>665.8</ele><time>2026-05-02T11:03:56.001Z</time></trkpt><trkpt lat="44.09645104031782" lon="11.575292296710423"><ele>665.0</ele><time>2026-05-02T11:03:57.002Z</time></trkpt><trkpt lat="44.096554380150465" lon="11.575258167599554"><ele>667.2</ele><time>2026-05-02T11:03:58.002Z</time></trkpt><trkpt lat="44.09664328026627" lon="11.575191645150047"><ele>669.4</ele><time>2026-05-02T11:03:59.002Z</time></trkpt><trkpt lat="44.0967150535385" lon="11.575098045816727"><ele>671.5999999999999</ele><time>2026-05-02T11:04:00.002Z</time></trkpt><trkpt lat="44.096772796716515" lon="11.57498867309008"><ele>673.8</ele><time>2026-05-02T11:04:01.002Z</time></trkpt><trkpt lat="44.09679826309466" lon="11.57484018753554"><ele>676.0</ele><time>2026-05-02T11:04:02.002Z</time></trkpt><trkpt lat="44.09679807719561" lon="11.574679824074304"><ele>676.0</ele><time>2026-05-02T11:04:03.002Z</time></trkpt><trkpt lat="44.09679729790174" lon="11.574523351339533"><ele>676.0</ele><time>2026-05-02T11:04:04.002Z</time></trkpt><trkpt lat="44.0968269856954" lon="11.574370742075672"><ele>676.0</ele><time>2026-05-02T11:04:05.002Z</time></trkpt><trkpt lat="44.09687445249597" lon="11.574221915848447"><ele>676.0</ele><time>2026-05-02T11:04:06.002Z</time></trkpt><trkpt lat="44.09692263896356" lon="11.574076884631985"><ele>673.1999999999999</ele><time>2026-05-02T11:04:07.002Z</time></trkpt><trkpt lat="44.096956288596225" lon="11.573925855890314"><ele>670.4</ele><time>2026-05-02T11:04:08.002Z</time></trkpt><trkpt lat="44.09696679331605" lon="11.573769900441865"><ele>667.6</ele><time>2026-05-02T11:04:09.002Z</time></trkpt><trkpt lat="44.09694418679269" lon="11.573617769930328"><ele>664.8</ele><time>2026-05-02T11:04:10.002Z</time></trkpt><trkpt lat="44.09688494110449" lon="11.573486499356962"><ele>662.0</ele><time>2026-05-02T11:04:11.002Z</time></trkpt><trkpt lat="44.09679794890909" lon="11.573392165557715"><ele>661.6</ele><time>2026-05-02T11:04:12.002Z</time></trkpt><trkpt lat="44.096696083767156" lon="11.57334053308919"><ele>661.2</ele><time>2026-05-02T11:04:13.002Z</time></trkpt><trkpt lat="44.09659524769265" lon="11.57330485683917"><ele>660.8</ele><time>2026-05-02T11:04:14.002Z</time></trkpt><trkpt lat="44.09650695213956" lon="11.573239159860284"><ele>660.4</ele><time>2026-05-02T11:04:15.002Z</time></trkpt><trkpt lat="44.096443481209725" lon="11.57313105959587"><ele>660.0</ele><time>2026-05-02T11:04:16.002Z</time></trkpt><trkpt lat="44.09640957634938" lon="11.573000508943228"><ele>655.8</ele><time>2026-05-02T11:04:17.002Z</time></trkpt><trkpt lat="44.09640047171444" lon="11.57286286193612"><ele>651.6</ele><time>2026-05-02T11:04:18.002Z</time></trkpt><trkpt lat="44.096423955701525" lon="11.572725805627176"><ele>647.4</ele><time>2026-05-02T11:04:19.002Z</time></trkpt><trkpt lat="44.09647204500726" lon="11.572584392790422"><ele>643.2</ele><time>2026-05-02T11:04:20.002Z</time></trkpt><trkpt lat="44.096525565811426" lon="11.572441546765763"><ele>639.0</ele><time>2026-05-02T11:04:21.002Z</time></trkpt><trkpt lat="44.09657131504268" lon="11.572298864528541"><ele>640.6</ele><time>2026-05-02T11:04:22.002Z</time></trkpt><trkpt lat="44.09661194237553" lon="11.572155023173384"><ele>642.2</ele><time>2026-05-02T11:04:23.002Z</time></trkpt><trkpt lat="44.09665452978315" lon="11.572011421370554"><ele>643.8000000000001</ele><time>2026-05-02T11:04:24.002Z</time></trkpt><trkpt lat="44.09669760867712" lon="11.571881174153583"><ele>645.4</ele><time>2026-05-02T11:04:25.002Z</time></trkpt><trkpt lat="44.09674721539636" lon="11.571782649341236"><ele>647.0</ele><time>2026-05-02T11:04:26.002Z</time></trkpt><trkpt lat="44.09681431129797" lon="11.571721019745562"><ele>647.0</ele><time>2026-05-02T11:04:27.002Z</time></trkpt><trkpt lat="44.09689656839721" lon="11.571711859095565"><ele>647.0</ele><time>2026-05-02T11:04:28.002Z</time></trkpt><trkpt lat="44.09698126360245" lon="11.571750323582055"><ele>647.0</ele><time>2026-05-02T11:04:29.002Z</time></trkpt><trkpt lat="44.09705927430009" lon="11.571824881292592"><ele>647.0</ele><time>2026-05-02T11:04:30.002Z</time></trkpt><trkpt lat="44.09714073035419" lon="11.571918357743693"><ele>647.0</ele><time>2026-05-02T11:04:31.002Z</time></trkpt><trkpt lat="44.09721801275295" lon="11.572013547275166"><ele>647.0</ele><time>2026-05-02T11:04:32.002Z</time></trkpt><trkpt lat="44.09730999989154" lon="11.572086647430005"><ele>647.0</ele><time>2026-05-02T11:04:33.002Z</time></trkpt><trkpt lat="44.09741566335406" lon="11.572108284005903"><ele>647.0</ele><time>2026-05-02T11:04:34.002Z</time></trkpt><trkpt lat="44.09752312215119" lon="11.572082793349866"><ele>647.0</ele><time>2026-05-02T11:04:35.003Z</time></trkpt><trkpt lat="44.097618774452805" lon="11.572008025176682"><ele>647.0</ele><time>2026-05-02T11:04:36.003Z</time></trkpt><trkpt lat="44.097697528022344" lon="11.571896314375792"><ele>647.0</ele><time>2026-05-02T11:04:37.003Z</time></trkpt><trkpt lat="44.09775392957788" lon="11.571765086348"><ele>647.0</ele><time>2026-05-02T11:04:38.003Z</time></trkpt><trkpt lat="44.09780530607771" lon="11.57163168114353"><ele>647.0</ele><time>2026-05-02T11:04:39.003Z</time></trkpt><trkpt lat="44.09785365796539" lon="11.571519686235476"><ele>647.0</ele><time>2026-05-02T11:04:40.003Z</time></trkpt><trkpt lat="44.09790628398053" lon="11.571444806622297"><ele>647.0</ele><time>2026-05-02T11:04:41.003Z</time></trkpt><trkpt lat="44.09797199388915" lon="11.571411101971885"><ele>647.0</ele><time>2026-05-02T11:04:42.003Z</time></trkpt><trkpt lat="44.098036346943054" lon="11.57143301818924"><ele>647.0</ele><time>2026-05-02T11:04:43.003Z</time></trkpt><trkpt lat="44.09809396519063" lon="11.571509990010922"><ele>647.0</ele><time>2026-05-02T11:04:44.003Z</time></trkpt><trkpt lat="44.09813937071626" lon="11.571619452288076"><ele>647.0</ele><time>2026-05-02T11:04:45.003Z</time></trkpt><trkpt lat="44.09818670902223" lon="11.57173955292272"><ele>647.0</ele><time>2026-05-02T11:04:45.999Z</time></trkpt><trkpt lat="44.0982498072886" lon="11.57186059182242"><ele>647.0</ele><time>2026-05-02T11:04:46.999Z</time></trkpt><trkpt lat="44.098316810545185" lon="11.571972015773019"><ele>648.0</ele><time>2026-05-02T11:04:47.999Z</time></trkpt><trkpt lat="44.09838178046713" lon="11.572082374761285"><ele>649.0</ele><time>2026-05-02T11:04:48.999Z</time></trkpt><trkpt lat="44.09844371523245" lon="11.572199408230219"><ele>650.0</ele><time>2026-05-02T11:04:49.999Z</time></trkpt><trkpt lat="44.09850710830843" lon="11.572315954397894"><ele>651.0</ele><time>2026-05-02T11:04:50.999Z</time></trkpt><trkpt lat="44.09857503382287" lon="11.572426649552833"><ele>652.0</ele><time>2026-05-02T11:04:51.999Z</time></trkpt><trkpt lat="44.098656585251156" lon="11.572523044221109"><ele>652.0</ele><time>2026-05-02T11:04:52.999Z</time></trkpt><trkpt lat="44.098743087538985" lon="11.572607081381422"><ele>652.0</ele><time>2026-05-02T11:04:53.999Z</time></trkpt><trkpt lat="44.09883510365897" lon="11.57267936003446"><ele>652.0</ele><time>2026-05-02T11:04:54.999Z</time></trkpt><trkpt lat="44.09892646823979" lon="11.572748605470226"><ele>652.0</ele><time>2026-05-02T11:04:55.999Z</time></trkpt><trkpt lat="44.099012921489525" lon="11.572804808997095"><ele>652.0</ele><time>2026-05-02T11:04:56.999Z</time></trkpt><trkpt lat="44.09909688301757" lon="11.572845511242345"><ele>648.0</ele><time>2026-05-02T11:04:57.999Z</time></trkpt><trkpt lat="44.09918304155498" lon="11.57284555902624"><ele>644.0</ele><time>2026-05-02T11:04:58.999Z</time></trkpt><trkpt lat="44.099260491461" lon="11.572784599762592"><ele>640.0</ele><time>2026-05-02T11:04:59.999Z</time></trkpt><trkpt lat="44.09931552309104" lon="11.57268220573913"><ele>636.0</ele><time>2026-05-02T11:05:01Z</time></trkpt><trkpt lat="44.099325005284754" lon="11.57256026008512"><ele>632.0</ele><time>2026-05-02T11:05:02Z</time></trkpt><trkpt lat="44.09930948012912" lon="11.572428522247867"><ele>632.0</ele><time>2026-05-02T11:05:03Z</time></trkpt><trkpt lat="44.09928885928526" lon="11.572284437776894"><ele>632.0</ele><time>2026-05-02T11:05:04Z</time></trkpt><trkpt lat="44.09928567600312" lon="11.572128813494293"><ele>632.0</ele><time>2026-05-02T11:05:05Z</time></trkpt><trkpt lat="44.09931318060646" lon="11.571963995767048"><ele>632.0</ele><time>2026-05-02T11:05:06Z</time></trkpt><trkpt lat="44.099352233329036" lon="11.571801170085653"><ele>628.5</ele><time>2026-05-02T11:05:07Z</time></trkpt><trkpt lat="44.09939047166075" lon="11.571635806394326"><ele>625.0</ele><time>2026-05-02T11:05:08Z</time></trkpt><trkpt lat="44.099426174270036" lon="11.571464226946212"><ele>621.5</ele><time>2026-05-02T11:05:09Z</time></trkpt><trkpt lat="44.09944812526481" lon="11.571284966690442"><ele>618.0</ele><time>2026-05-02T11:05:10Z</time></trkpt><trkpt lat="44.099451310411894" lon="11.571100004767855"><ele>616.0</ele><time>2026-05-02T11:05:11Z</time></trkpt><trkpt lat="44.0994347036859" lon="11.570917850675297"><ele>614.0</ele><time>2026-05-02T11:05:12Z</time></trkpt><trkpt lat="44.09940386277083" lon="11.570737265361144"><ele>612.0</ele><time>2026-05-02T11:05:13Z</time></trkpt><trkpt lat="44.0993665889201" lon="11.57056438535425"><ele>610.0</ele><time>2026-05-02T11:05:14Z</time></trkpt><trkpt lat="44.09932635420054" lon="11.570395140529957"><ele>608.8</ele><time>2026-05-02T11:05:15Z</time></trkpt><trkpt lat="44.09927963261703" lon="11.570244162196506"><ele>607.6</ele><time>2026-05-02T11:05:16Z</time></trkpt><trkpt lat="44.09923881508591" lon="11.570106857314412"><ele>606.4</ele><time>2026-05-02T11:05:17Z</time></trkpt><trkpt lat="44.0992211485142" lon="11.56997251497847"><ele>605.2</ele><time>2026-05-02T11:05:18Z</time></trkpt><trkpt lat="44.099237474663525" lon="11.569837867376018"><ele>604.0</ele><time>2026-05-02T11:05:19Z</time></trkpt><trkpt lat="44.09928321365207" lon="11.569713461187586"><ele>604.0</ele><time>2026-05-02T11:05:20Z</time></trkpt><trkpt lat="44.099346983157986" lon="11.569612171340726"><ele>604.0</ele><time>2026-05-02T11:05:21Z</time></trkpt><trkpt lat="44.099420811996765" lon="11.56954533197698"><ele>604.0</ele><time>2026-05-02T11:05:22Z</time></trkpt><trkpt lat="44.09950803543486" lon="11.569519451379927"><ele>604.0</ele><time>2026-05-02T11:05:23Z</time></trkpt><trkpt lat="44.099604999413074" lon="11.569533378820008"><ele>604.0</ele><time>2026-05-02T11:05:24Z</time></trkpt><trkpt lat="44.09970666269611" lon="11.569579605451079"><ele>604.0</ele><time>2026-05-02T11:05:25Z</time></trkpt><trkpt lat="44.09981350974784" lon="11.569649371583742"><ele>604.0</ele><time>2026-05-02T11:05:26Z</time></trkpt><trkpt lat="44.09990951982409" lon="11.569743309221458"><ele>604.0</ele><time>2026-05-02T11:05:27Z</time></trkpt><trkpt lat="44.099988513435044" lon="11.56986386319924"><ele>604.0</ele><time>2026-05-02T11:05:28.001Z</time></trkpt><trkpt lat="44.100070003485676" lon="11.569981390815721"><ele>604.5</ele><time>2026-05-02T11:05:29.001Z</time></trkpt><trkpt lat="44.10017112289831" lon="11.570061932229434"><ele>605.0</ele><time>2026-05-02T11:05:30.001Z</time></trkpt><trkpt lat="44.1002870020044" lon="11.57011291900428"><ele>605.5</ele><time>2026-05-02T11:05:31.001Z</time></trkpt><trkpt lat="44.10040747803968" lon="11.570135648259484"><ele>606.0</ele><time>2026-05-02T11:05:32.001Z</time></trkpt><trkpt lat="44.10052845186395" lon="11.570138362107723"><ele>606.0</ele><time>2026-05-02T11:05:33.001Z</time></trkpt><trkpt lat="44.10065130729979" lon="11.570119255529145"><ele>606.0</ele><time>2026-05-02T11:05:34.001Z</time></trkpt><trkpt lat="44.10077326065313" lon="11.57008653102608"><ele>606.0</ele><time>2026-05-02T11:05:35.001Z</time></trkpt><trkpt lat="44.100887173964914" lon="11.570057698438019"><ele>606.0</ele><time>2026-05-02T11:05:36.001Z</time></trkpt><trkpt lat="44.10099456605135" lon="11.570053972042945"><ele>602.0</ele><time>2026-05-02T11:05:37.001Z</time></trkpt><trkpt lat="44.1011037247565" lon="11.570093934438995"><ele>598.0</ele><time>2026-05-02T11:05:38.001Z</time></trkpt><trkpt lat="44.101210285117084" lon="11.570166012158642"><ele>594.0</ele><time>2026-05-02T11:05:39.001Z</time></trkpt><trkpt lat="44.10132318573843" lon="11.570222916885932"><ele>590.0</ele><time>2026-05-02T11:05:40.001Z</time></trkpt><trkpt lat="44.10144796827734" lon="11.570236083522339"><ele>590.0</ele><time>2026-05-02T11:05:41.001Z</time></trkpt><trkpt lat="44.10156850506775" lon="11.570242513430868"><ele>590.0</ele><time>2026-05-02T11:05:42.001Z</time></trkpt><trkpt lat="44.10168505920376" lon="11.570295420617258"><ele>590.0</ele><time>2026-05-02T11:05:43.001Z</time></trkpt><trkpt lat="44.101787028922566" lon="11.570383103678283"><ele>590.0</ele><time>2026-05-02T11:05:44.001Z</time></trkpt><trkpt lat="44.10188887184485" lon="11.57046705612922"><ele>594.25</ele><time>2026-05-02T11:05:45.001Z</time></trkpt><trkpt lat="44.101992222910475" lon="11.570546110025075"><ele>598.5</ele><time>2026-05-02T11:05:46.001Z</time></trkpt><trkpt lat="44.10209691683394" lon="11.570617347597667"><ele>602.75</ele><time>2026-05-02T11:05:47.001Z</time></trkpt><trkpt lat="44.10219937744175" lon="11.57068941589862"><ele>607.0</ele><time>2026-05-02T11:05:48.001Z</time></trkpt><trkpt lat="44.102296653813056" lon="11.570771781542605"><ele>607.0</ele><time>2026-05-02T11:05:49.001Z</time></trkpt><trkpt lat="44.10239013600813" lon="11.570866061423807"><ele>607.0</ele><time>2026-05-02T11:05:50.001Z</time></trkpt><trkpt lat="44.10247379251879" lon="11.57097373830721"><ele>607.0</ele><time>2026-05-02T11:05:51.001Z</time></trkpt><trkpt lat="44.10254491021361" lon="11.571086956520954"><ele>607.0</ele><time>2026-05-02T11:05:52.001Z</time></trkpt><trkpt lat="44.102608731887535" lon="11.57117872768298"><ele>607.0</ele><time>2026-05-02T11:05:53.001Z</time></trkpt><trkpt lat="44.10268140776524" lon="11.57123244260273"><ele>606.1666666666667</ele><time>2026-05-02T11:05:54.001Z</time></trkpt><trkpt lat="44.102760555592454" lon="11.57123931542856"><ele>605.3333333333334</ele><time>2026-05-02T11:05:55.001Z</time></trkpt><trkpt lat="44.102832349688754" lon="11.571186789243177"><ele>604.5</ele><time>2026-05-02T11:05:56.001Z</time></trkpt><trkpt lat="44.1028812128124" lon="11.571099805307123"><ele>603.6666666666666</ele><time>2026-05-02T11:05:57.001Z</time></trkpt><trkpt lat="44.10289427178182" lon="11.570981919717145"><ele>602.8333333333333</ele><time>2026-05-02T11:05:58.001Z</time></trkpt><trkpt lat="44.102872846198025" lon="11.570846779111683"><ele>602.0</ele><time>2026-05-02T11:05:59.001Z</time></trkpt><trkpt lat="44.10283136368759" lon="11.570711288720549"><ele>598.25</ele><time>2026-05-02T11:06:00.001Z</time></trkpt><trkpt lat="44.10277045626145" lon="11.570569349284431"><ele>594.5</ele><time>2026-05-02T11:06:01.001Z</time></trkpt><trkpt lat="44.10269061605317" lon="11.570426027685025"><ele>590.75</ele><time>2026-05-02T11:06:02.002Z</time></trkpt><trkpt lat="44.10259251519561" lon="11.57028966514522"><ele>587.0</ele><time>2026-05-02T11:06:03.002Z</time></trkpt><trkpt lat="44.102490035736416" lon="11.570146028267763"><ele>584.3333333333333</ele><time>2026-05-02T11:06:04.002Z</time></trkpt><trkpt lat="44.10240582486888" lon="11.56997382446002"><ele>581.6666666666666</ele><time>2026-05-02T11:06:05.002Z</time></trkpt><trkpt lat="44.10232570487391" lon="11.569791742659229"><ele>579.0</ele><time>2026-05-02T11:06:06.002Z</time></trkpt><trkpt lat="44.10223920013683" lon="11.569623380568425"><ele>576.5</ele><time>2026-05-02T11:06:07.002Z</time></trkpt><trkpt lat="44.10214779338194" lon="11.569469514714818"><ele>574.0</ele><time>2026-05-02T11:06:08.002Z</time></trkpt><trkpt lat="44.102055987372346" lon="11.569320142228726"><ele>571.5</ele><time>2026-05-02T11:06:09.002Z</time></trkpt><trkpt lat="44.1019452430455" lon="11.569193682990619"><ele>569.0</ele><time>2026-05-02T11:06:10.002Z</time></trkpt><trkpt lat="44.10181033520143" lon="11.569087292265849"><ele>569.0</ele><time>2026-05-02T11:06:11.002Z</time></trkpt><trkpt lat="44.10166458934237" lon="11.568985352629221"><ele>569.0</ele><time>2026-05-02T11:06:12.002Z</time></trkpt><trkpt lat="44.10152027221729" lon="11.568871534883403"><ele>569.0</ele><time>2026-05-02T11:06:13.002Z</time></trkpt><trkpt lat="44.101375178093974" lon="11.568749308610753"><ele>566.0</ele><time>2026-05-02T11:06:14.002Z</time></trkpt><trkpt lat="44.101236395738425" lon="11.568619925314776"><ele>563.0</ele><time>2026-05-02T11:06:15.002Z</time></trkpt><trkpt lat="44.10110464840813" lon="11.56848430846296"><ele>560.0</ele><time>2026-05-02T11:06:16.002Z</time></trkpt><trkpt lat="44.100981567631365" lon="11.56834507910075"><ele>560.0</ele><time>2026-05-02T11:06:17.002Z</time></trkpt><trkpt lat="44.10086211542648" lon="11.568206689741658"><ele>560.0</ele><time>2026-05-02T11:06:18.002Z</time></trkpt><trkpt lat="44.100740119746995" lon="11.568081077912677"><ele>560.0</ele><time>2026-05-02T11:06:19.002Z</time></trkpt><trkpt lat="44.10061078548284" lon="11.567973987444633"><ele>558.0</ele><time>2026-05-02T11:06:20.002Z</time></trkpt><trkpt lat="44.10048180657801" lon="11.567877186284425"><ele>556.0</ele><time>2026-05-02T11:06:21.002Z</time></trkpt><trkpt lat="44.100354878863065" lon="11.567782119334828"><ele>554.0</ele><time>2026-05-02T11:06:22.002Z</time></trkpt><trkpt lat="44.10023104407742" lon="11.567689690264078"><ele>552.0</ele><time>2026-05-02T11:06:23.002Z</time></trkpt><trkpt lat="44.10011167333195" lon="11.567597431499586"><ele>552.0</ele><time>2026-05-02T11:06:24.002Z</time></trkpt><trkpt lat="44.10000260910449" lon="11.567512219272674"><ele>552.0</ele><time>2026-05-02T11:06:25.002Z</time></trkpt><trkpt lat="44.099908154601295" lon="11.567426404235073"><ele>552.0</ele><time>2026-05-02T11:06:26.002Z</time></trkpt><trkpt lat="44.09982350410277" lon="11.567326781671232"><ele>552.0</ele><time>2026-05-02T11:06:27.002Z</time></trkpt><trkpt lat="44.09975647846075" lon="11.567202547572837"><ele>552.5</ele><time>2026-05-02T11:06:28.002Z</time></trkpt><trkpt lat="44.09970957325433" lon="11.567051583630322"><ele>553.0</ele><time>2026-05-02T11:06:29.002Z</time></trkpt><trkpt lat="44.0996818712909" lon="11.566874136650474"><ele>553.5</ele><time>2026-05-02T11:06:30.002Z</time></trkpt><trkpt lat="44.09966774098402" lon="11.566686775848561"><ele>554.0</ele><time>2026-05-02T11:06:31.002Z</time></trkpt><trkpt lat="44.09964659729277" lon="11.566491828816577"><ele>551.75</ele><time>2026-05-02T11:06:32.002Z</time></trkpt><trkpt lat="44.099607823897365" lon="11.56629840877445"><ele>549.5</ele><time>2026-05-02T11:06:33.002Z</time></trkpt><trkpt lat="44.0995603584231" lon="11.56611461350438"><ele>547.25</ele><time>2026-05-02T11:06:34.002Z</time></trkpt><trkpt lat="44.09950654946414" lon="11.565937733836591"><ele>545.0</ele><time>2026-05-02T11:06:35.002Z</time></trkpt><trkpt lat="44.09944432798847" lon="11.565770270493246"><ele>543.75</ele><time>2026-05-02T11:06:36.002Z</time></trkpt><trkpt lat="44.09938260778965" lon="11.565606496246952"><ele>542.5</ele><time>2026-05-02T11:06:37.002Z</time></trkpt><trkpt lat="44.09932795861604" lon="11.565454533183198"><ele>541.25</ele><time>2026-05-02T11:06:38.003Z</time></trkpt><trkpt lat="44.099278317186254" lon="11.565314601713949"><ele>540.0</ele><time>2026-05-02T11:06:39.003Z</time></trkpt><trkpt lat="44.09924210705954" lon="11.565184201685003"><ele>538.8</ele><time>2026-05-02T11:06:40.003Z</time></trkpt><trkpt lat="44.099230310461" lon="11.565059281963098"><ele>537.6</ele><time>2026-05-02T11:06:41.003Z</time></trkpt><trkpt lat="44.09925195599384" lon="11.56493377673507"><ele>536.4</ele><time>2026-05-02T11:06:42.003Z</time></trkpt><trkpt lat="44.09930431286552" lon="11.564820901441216"><ele>535.2</ele><time>2026-05-02T11:06:43.003Z</time></trkpt><trkpt lat="44.09937460725707" lon="11.564713806329474"><ele>534.0</ele><time>2026-05-02T11:06:44.003Z</time></trkpt><trkpt lat="44.09944428558606" lon="11.564600145282203"><ele>532.4</ele><time>2026-05-02T11:06:45.003Z</time></trkpt><trkpt lat="44.09950634290681" lon="11.564485348170944"><ele>530.8</ele><time>2026-05-02T11:06:46.003Z</time></trkpt><trkpt lat="44.099567859256815" lon="11.564371692022599"><ele>529.2</ele><time>2026-05-02T11:06:47.003Z</time></trkpt><trkpt lat="44.09963139214482" lon="11.564262677271588"><ele>527.6</ele><time>2026-05-02T11:06:48.003Z</time></trkpt><trkpt lat="44.099695320908594" lon="11.564156959533166"><ele>526.0</ele><time>2026-05-02T11:06:49.003Z</time></trkpt><trkpt lat="44.09975234899742" lon="11.564045447454554"><ele>526.0</ele><time>2026-05-02T11:06:50.003Z</time></trkpt><trkpt lat="44.099795968545884" lon="11.563925896783918"><ele>526.0</ele><time>2026-05-02T11:06:51.003Z</time></trkpt><trkpt lat="44.09982338614502" lon="11.563798984120778"><ele>526.0</ele><time>2026-05-02T11:06:51.999Z</time></trkpt><trkpt lat="44.09984248796531" lon="11.563674222030462"><ele>526.0</ele><time>2026-05-02T11:06:52.999Z</time></trkpt><trkpt lat="44.09985928534136" lon="11.563554559664702"><ele>526.0</ele><time>2026-05-02T11:06:53.999Z</time></trkpt><trkpt lat="44.09987690624174" lon="11.563438123994887"><ele>525.8333333333334</ele><time>2026-05-02T11:06:54.999Z</time></trkpt><trkpt lat="44.099894945389075" lon="11.56332440845499"><ele>525.6666666666667</ele><time>2026-05-02T11:06:55.999Z</time></trkpt><trkpt lat="44.099914525252025" lon="11.56320996622051"><ele>525.5</ele><time>2026-05-02T11:06:56.999Z</time></trkpt><trkpt lat="44.09993288010661" lon="11.563102578153197"><ele>525.3333333333334</ele><time>2026-05-02T11:06:57.999Z</time></trkpt><trkpt lat="44.09995131700311" lon="11.563004867974247"><ele>525.1666666666666</ele><time>2026-05-02T11:06:58.999Z</time></trkpt><trkpt lat="44.09996494715414" lon="11.562917828342307"><ele>525.0</ele><time>2026-05-02T11:07:00Z</time></trkpt><trkpt lat="44.099993208871076" lon="11.562803516732"><ele>525.0</ele><time>2026-05-02T11:07:02Z</time></trkpt><trkpt lat="44.100005519524096" lon="11.562698041945225"><ele>525.0</ele><time>2026-05-02T11:09:12Z</time></trkpt><trkpt lat="44.10005065899291" lon="11.562581299956554"><ele>525.0</ele><time>2026-05-02T11:09:14Z</time></trkpt><trkpt lat="44.10012268471909" lon="11.562439528151748"><ele>525.0</ele><time>2026-05-02T11:09:16Z</time></trkpt><trkpt lat="44.10016830338857" lon="11.562351369207992"><ele>525.0</ele><time>2026-05-02T11:09:17Z</time></trkpt><trkpt lat="44.10021350432469" lon="11.562258739225168"><ele>525.0</ele><time>2026-05-02T11:09:18Z</time></trkpt><trkpt lat="44.10026108519226" lon="11.56215844994806"><ele>525.0</ele><time>2026-05-02T11:09:19Z</time></trkpt><trkpt lat="44.10031479589742" lon="11.562053281014364"><ele>525.0</ele><time>2026-05-02T11:09:20Z</time></trkpt><trkpt lat="44.10037021714175" lon="11.561940226398402"><ele>525.0</ele><time>2026-05-02T11:09:21Z</time></trkpt><trkpt lat="44.10042791340165" lon="11.561824604040796"><ele>525.0</ele><time>2026-05-02T11:09:22Z</time></trkpt><trkpt lat="44.10048865633592" lon="11.561710367962451"><ele>526.0</ele><time>2026-05-02T11:09:23Z</time></trkpt><trkpt lat="44.100554576576144" lon="11.561595405352557"><ele>527.0</ele><time>2026-05-02T11:09:24Z</time></trkpt><trkpt lat="44.10062570978083" lon="11.561485414960352"><ele>528.0</ele><time>2026-05-02T11:09:25Z</time></trkpt><trkpt lat="44.10070192057838" lon="11.56137630665279"><ele>529.0</ele><time>2026-05-02T11:09:26Z</time></trkpt><trkpt lat="44.100780373312716" lon="11.561272634998927"><ele>530.0</ele><time>2026-05-02T11:09:27Z</time></trkpt><trkpt lat="44.10085906668493" lon="11.561164145872915"><ele>526.8</ele><time>2026-05-02T11:09:28Z</time></trkpt><trkpt lat="44.10094015929044" lon="11.561059906388927"><ele>523.6</ele><time>2026-05-02T11:09:29Z</time></trkpt><trkpt lat="44.1010218097277" lon="11.560953624550669"><ele>520.4</ele><time>2026-05-02T11:09:30Z</time></trkpt><trkpt lat="44.10110066699063" lon="11.56084377249073"><ele>517.2</ele><time>2026-05-02T11:09:31Z</time></trkpt><trkpt lat="44.10117664888643" lon="11.560736139023408"><ele>514.0</ele><time>2026-05-02T11:09:32Z</time></trkpt><trkpt lat="44.10125306059241" lon="11.56062832936282"><ele>514.0</ele><time>2026-05-02T11:09:33Z</time></trkpt><trkpt lat="44.10132944800445" lon="11.560530739063058"><ele>514.0</ele><time>2026-05-02T11:09:34Z</time></trkpt><trkpt lat="44.10140952475372" lon="11.560444627456967"><ele>514.0</ele><time>2026-05-02T11:09:35Z</time></trkpt><trkpt lat="44.101494682232726" lon="11.560379658004427"><ele>514.0</ele><time>2026-05-02T11:09:36.001Z</time></trkpt><trkpt lat="44.101590463238" lon="11.560344157375274"><ele>514.0</ele><time>2026-05-02T11:09:37.001Z</time></trkpt><trkpt lat="44.10169914567433" lon="11.56034467630191"><ele>511.6</ele><time>2026-05-02T11:09:38.001Z</time></trkpt><trkpt lat="44.101814294226834" lon="11.560360715180986"><ele>509.2</ele><time>2026-05-02T11:09:39.001Z</time></trkpt><trkpt lat="44.101923833670604" lon="11.56035285772876"><ele>506.80000000000007</ele><time>2026-05-02T11:09:40.001Z</time></trkpt><trkpt lat="44.10203512173094" lon="11.560355343452445"><ele>504.40000000000003</ele><time>2026-05-02T11:09:41.001Z</time></trkpt><trkpt lat="44.102136117375856" lon="11.560351793307767"><ele>502.0</ele><time>2026-05-02T11:09:42.001Z</time></trkpt><trkpt lat="44.102233085879256" lon="11.560316254377305"><ele>502.0</ele><time>2026-05-02T11:09:43.001Z</time></trkpt><trkpt lat="44.10232535006963" lon="11.560244624715262"><ele>502.0</ele><time>2026-05-02T11:09:44.001Z</time></trkpt><trkpt lat="44.10241728880579" lon="11.560142494375341"><ele>502.0</ele><time>2026-05-02T11:09:45.001Z</time></trkpt><trkpt lat="44.102495218441604" lon="11.560001515112283"><ele>502.0</ele><time>2026-05-02T11:09:46.001Z</time></trkpt><trkpt lat="44.10255073515909" lon="11.55983720328482"><ele>501.5</ele><time>2026-05-02T11:09:47.001Z</time></trkpt><trkpt lat="44.10260017968031" lon="11.559654516780727"><ele>501.0</ele><time>2026-05-02T11:09:48.001Z</time></trkpt><trkpt lat="44.1026584251449" lon="11.559469402569672"><ele>500.5</ele><time>2026-05-02T11:09:49.001Z</time></trkpt><trkpt lat="44.10272667543421" lon="11.559299039408552"><ele>500.0</ele><time>2026-05-02T11:09:50.001Z</time></trkpt><trkpt lat="44.10279364585712" lon="11.559139501850101"><ele>500.0</ele><time>2026-05-02T11:09:51.001Z</time></trkpt><trkpt lat="44.102868365215215" lon="11.558988174968954"><ele>500.0</ele><time>2026-05-02T11:09:52.001Z</time></trkpt><trkpt lat="44.10294849595052" lon="11.558853653005501"><ele>500.0</ele><time>2026-05-02T11:09:53.001Z</time></trkpt><trkpt lat="44.103038199097206" lon="11.558740610118658"><ele>500.0</ele><time>2026-05-02T11:09:54.001Z</time></trkpt><trkpt lat="44.1031351558864" lon="11.558635211818096"><ele>499.75</ele><time>2026-05-02T11:09:55.001Z</time></trkpt><trkpt lat="44.10324113466189" lon="11.558532312588499"><ele>499.5</ele><time>2026-05-02T11:09:56.001Z</time></trkpt><trkpt lat="44.10336070572141" lon="11.55843813853293"><ele>499.25</ele><time>2026-05-02T11:09:57.001Z</time></trkpt><trkpt lat="44.103489498114165" lon="11.558351214982874"><ele>499.0</ele><time>2026-05-02T11:09:58.001Z</time></trkpt><trkpt lat="44.10362672402562" lon="11.558275070813478"><ele>499.0</ele><time>2026-05-02T11:09:59.001Z</time></trkpt><trkpt lat="44.10376924072332" lon="11.55819764275333"><ele>499.0</ele><time>2026-05-02T11:10:00.001Z</time></trkpt><trkpt lat="44.103911087332534" lon="11.558110110278468"><ele>499.0</ele><time>2026-05-02T11:10:01.001Z</time></trkpt><trkpt lat="44.10404552388261" lon="11.558010137298892"><ele>497.25</ele><time>2026-05-02T11:10:02.001Z</time></trkpt><trkpt lat="44.10417201769009" lon="11.557901339317288"><ele>495.5</ele><time>2026-05-02T11:10:03.001Z</time></trkpt><trkpt lat="44.10428940369306" lon="11.557786291605987"><ele>493.75</ele><time>2026-05-02T11:10:04.001Z</time></trkpt><trkpt lat="44.10440051421246" lon="11.557671601260784"><ele>492.0</ele><time>2026-05-02T11:10:05.001Z</time></trkpt><trkpt lat="44.10449163183312" lon="11.55754029792403"><ele>492.0</ele><time>2026-05-02T11:10:06.001Z</time></trkpt><trkpt lat="44.10455990781705" lon="11.557388398495148"><ele>492.0</ele><time>2026-05-02T11:10:07.002Z</time></trkpt><trkpt lat="44.10460891117909" lon="11.557226529899513"><ele>492.0</ele><time>2026-05-02T11:10:08.002Z</time></trkpt><trkpt lat="44.1046494608484" lon="11.557068859967835"><ele>492.0</ele><time>2026-05-02T11:10:09.002Z</time></trkpt><trkpt lat="44.104696996753354" lon="11.556930301783328"><ele>491.8</ele><time>2026-05-02T11:10:10.002Z</time></trkpt><trkpt lat="44.10476045324243" lon="11.556817891981337"><ele>491.6</ele><time>2026-05-02T11:10:11.002Z</time></trkpt><trkpt lat="44.10484028611766" lon="11.55673521765875"><ele>491.40000000000003</ele><time>2026-05-02T11:10:12.002Z</time></trkpt><trkpt lat="44.10493958854103" lon="11.556683325767791"><ele>491.20000000000005</ele><time>2026-05-02T11:10:13.002Z</time></trkpt><trkpt lat="44.10505261466847" lon="11.556670531325633"><ele>491.0</ele><time>2026-05-02T11:10:14.002Z</time></trkpt><trkpt lat="44.10517590584484" lon="11.55666967695628"><ele>491.0</ele><time>2026-05-02T11:10:15.002Z</time></trkpt><trkpt lat="44.10529543217054" lon="11.55662446433632"><ele>491.0</ele><time>2026-05-02T11:10:16.002Z</time></trkpt><trkpt lat="44.10539562677828" lon="11.556523566826462"><ele>491.0</ele><time>2026-05-02T11:10:17.002Z</time></trkpt><trkpt lat="44.105493547164436" lon="11.556409393435079"><ele>491.0</ele><time>2026-05-02T11:10:18.002Z</time></trkpt><trkpt lat="44.105607757486375" lon="11.556326705820139"><ele>491.0</ele><time>2026-05-02T11:10:19.002Z</time></trkpt><trkpt lat="44.105742469937354" lon="11.556277511008641"><ele>491.0</ele><time>2026-05-02T11:10:20.002Z</time></trkpt><trkpt lat="44.10588153990322" lon="11.556228128840747"><ele>491.0</ele><time>2026-05-02T11:10:21.002Z</time></trkpt><trkpt lat="44.10602043650331" lon="11.556158424359696"><ele>491.0</ele><time>2026-05-02T11:10:22.002Z</time></trkpt><trkpt lat="44.10615838017993" lon="11.556075867714961"><ele>488.0</ele><time>2026-05-02T11:10:23.002Z</time></trkpt><trkpt lat="44.106292439888676" lon="11.555997559687707"><ele>485.0</ele><time>2026-05-02T11:10:24.002Z</time></trkpt><trkpt lat="44.106426781104375" lon="11.555926006261359"><ele>482.0</ele><time>2026-05-02T11:10:25.002Z</time></trkpt><trkpt lat="44.10656181889716" lon="11.555867274880477"><ele>479.0</ele><time>2026-05-02T11:10:26.002Z</time></trkpt><trkpt lat="44.10669664343583" lon="11.555812613625552"><ele>479.0</ele><time>2026-05-02T11:10:27.002Z</time></trkpt><trkpt lat="44.10682307095657" lon="11.555757203805681"><ele>479.0</ele><time>2026-05-02T11:10:28.002Z</time></trkpt><trkpt lat="44.10693620882235" lon="11.555704659989521"><ele>479.0</ele><time>2026-05-02T11:10:29.002Z</time></trkpt><trkpt lat="44.10704295114018" lon="11.555655368290672"><ele>479.0</ele><time>2026-05-02T11:10:30.002Z</time></trkpt><trkpt lat="44.10714911446297" lon="11.555607758148073"><ele>479.0</ele><time>2026-05-02T11:10:31.002Z</time></trkpt><trkpt lat="44.10724970399996" lon="11.555555611324506"><ele>479.0</ele><time>2026-05-02T11:10:32.002Z</time></trkpt><trkpt lat="44.1073409223834" lon="11.555483242609338"><ele>479.0</ele><time>2026-05-02T11:10:33.002Z</time></trkpt><trkpt lat="44.1074152528998" lon="11.555378494188659"><ele>479.0</ele><time>2026-05-02T11:10:34.002Z</time></trkpt><trkpt lat="44.10746928370208" lon="11.555241053705966"><ele>479.0</ele><time>2026-05-02T11:10:35.002Z</time></trkpt><trkpt lat="44.107484214605925" lon="11.555090989286994"><ele>479.0</ele><time>2026-05-02T11:10:36.002Z</time></trkpt><trkpt lat="44.10746848369166" lon="11.554942323059331"><ele>479.0</ele><time>2026-05-02T11:10:37.002Z</time></trkpt><trkpt lat="44.1074188476806" lon="11.554793643646182"><ele>479.0</ele><time>2026-05-02T11:10:38.002Z</time></trkpt><trkpt lat="44.107355673821516" lon="11.554646650156462"><ele>479.0</ele><time>2026-05-02T11:10:39.002Z</time></trkpt><trkpt lat="44.10728857429737" lon="11.55449165189507"><ele>475.0</ele><time>2026-05-02T11:10:40.003Z</time></trkpt><trkpt lat="44.10722482349808" lon="11.554329647310084"><ele>471.0</ele><time>2026-05-02T11:10:41.003Z</time></trkpt><trkpt lat="44.10716886165568" lon="11.554160075216046"><ele>467.0</ele><time>2026-05-02T11:10:42.003Z</time></trkpt><trkpt lat="44.107121343488906" lon="11.553987087240033"><ele>463.0</ele><time>2026-05-02T11:10:43.003Z</time></trkpt><trkpt lat="44.10708291929746" lon="11.553811251042262"><ele>462.2</ele><time>2026-05-02T11:10:44.003Z</time></trkpt><trkpt lat="44.10705875911139" lon="11.553640702927714"><ele>461.4</ele><time>2026-05-02T11:10:45.003Z</time></trkpt><trkpt lat="44.10705122555136" lon="11.553482617060073"><ele>460.59999999999997</ele><time>2026-05-02T11:10:46.003Z</time></trkpt><trkpt lat="44.10705093843281" lon="11.553339021249498"><ele>459.79999999999995</ele><time>2026-05-02T11:10:47.003Z</time></trkpt><trkpt lat="44.10706324553879" lon="11.553209301384529"><ele>459.0</ele><time>2026-05-02T11:10:48.003Z</time></trkpt><trkpt lat="44.10709666698154" lon="11.553081763183908"><ele>459.0</ele><time>2026-05-02T11:10:49.003Z</time></trkpt><trkpt lat="44.10715670171045" lon="11.552958747312438"><ele>459.0</ele><time>2026-05-02T11:10:50.003Z</time></trkpt><trkpt lat="44.10723096934183" lon="11.552840357100672"><ele>459.0</ele><time>2026-05-02T11:10:51.003Z</time></trkpt><trkpt lat="44.107315694597375" lon="11.552724169955326"><ele>459.0</ele><time>2026-05-02T11:10:52.003Z</time></trkpt><trkpt lat="44.10740525208685" lon="11.552614963134783"><ele>458.5</ele><time>2026-05-02T11:10:53.003Z</time></trkpt><trkpt lat="44.10751200128958" lon="11.552514466432859"><ele>458.0</ele><time>2026-05-02T11:10:54.003Z</time></trkpt><trkpt lat="44.107628287070185" lon="11.552415641303156"><ele>457.5</ele><time>2026-05-02T11:10:55.003Z</time></trkpt><trkpt lat="44.10774802496441" lon="11.552308366846077"><ele>457.0</ele><time>2026-05-02T11:10:56.003Z</time></trkpt><trkpt lat="44.10786333104862" lon="11.552193508161663"><ele>457.0</ele><time>2026-05-02T11:10:57.003Z</time></trkpt><trkpt lat="44.107980150644146" lon="11.552076095198416"><ele>457.0</ele><time>2026-05-02T11:10:58.003Z</time></trkpt><trkpt lat="44.10809681850818" lon="11.551965143024345"><ele>457.0</ele><time>2026-05-02T11:10:59.003Z</time></trkpt><trkpt lat="44.10820903886349" lon="11.551861544080227"><ele>457.0</ele><time>2026-05-02T11:11:00.003Z</time></trkpt><trkpt lat="44.108319409710745" lon="11.551775033328877"><ele>456.0</ele><time>2026-05-02T11:11:01.003Z</time></trkpt><trkpt lat="44.10842656870871" lon="11.551723763242745"><ele>455.0</ele><time>2026-05-02T11:11:02.003Z</time></trkpt><trkpt lat="44.108537610718216" lon="11.551711422588307"><ele>454.0</ele><time>2026-05-02T11:11:03.003Z</time></trkpt><trkpt lat="44.108649719807325" lon="11.551732431578001"><ele>453.0</ele><time>2026-05-02T11:11:03.999Z</time></trkpt><trkpt lat="44.108763928233266" lon="11.55175925924191"><ele>453.0</ele><time>2026-05-02T11:11:04.999Z</time></trkpt><trkpt lat="44.108874658093804" lon="11.551760270293986"><ele>452.99999999999994</ele><time>2026-05-02T11:11:05.999Z</time></trkpt><trkpt lat="44.10897729465102" lon="11.551715084874466"><ele>452.99999999999994</ele><time>2026-05-02T11:11:06.999Z</time></trkpt><trkpt lat="44.10905642086017" lon="11.551618184046012"><ele>453.0</ele><time>2026-05-02T11:11:07.999Z</time></trkpt><trkpt lat="44.109112828369675" lon="11.551489099531858"><ele>453.0</ele><time>2026-05-02T11:11:08.999Z</time></trkpt><trkpt lat="44.1091775141298" lon="11.55135967267623"><ele>451.25</ele><time>2026-05-02T11:11:09.999Z</time></trkpt><trkpt lat="44.10926025685971" lon="11.55125914698454"><ele>449.5</ele><time>2026-05-02T11:11:10.999Z</time></trkpt><trkpt lat="44.1093625240939" lon="11.551188590421017"><ele>447.75</ele><time>2026-05-02T11:11:11.999Z</time></trkpt><trkpt lat="44.109479118669" lon="11.55115130516848"><ele>446.0</ele><time>2026-05-02T11:11:12.999Z</time></trkpt><trkpt lat="44.10960329671887" lon="11.551145401123335"><ele>446.0</ele><time>2026-05-02T11:11:13.999Z</time></trkpt><trkpt lat="44.10972753089801" lon="11.551155048140407"><ele>446.0</ele><time>2026-05-02T11:11:14.999Z</time></trkpt><trkpt lat="44.109848903115456" lon="11.551143505717963"><ele>446.0</ele><time>2026-05-02T11:11:15.999Z</time></trkpt><trkpt lat="44.10996344103729" lon="11.551106582041017"><ele>446.0</ele><time>2026-05-02T11:11:16.999Z</time></trkpt><trkpt lat="44.11007222954259" lon="11.551023939434312"><ele>447.75</ele><time>2026-05-02T11:11:17.999Z</time></trkpt><trkpt lat="44.11017372567022" lon="11.55090548320554"><ele>449.5</ele><time>2026-05-02T11:11:19Z</time></trkpt><trkpt lat="44.11026423157003" lon="11.550777249709805"><ele>451.25</ele><time>2026-05-02T11:11:20Z</time></trkpt><trkpt lat="44.110364714716425" lon="11.550670007927012"><ele>453.0</ele><time>2026-05-02T11:11:21Z</time></trkpt><trkpt lat="44.11047596534484" lon="11.550583588549742"><ele>453.0</ele><time>2026-05-02T11:11:22Z</time></trkpt><trkpt lat="44.11059760002726" lon="11.550515413816951"><ele>453.0</ele><time>2026-05-02T11:11:23Z</time></trkpt><trkpt lat="44.11072254965208" lon="11.550457650427614"><ele>453.0</ele><time>2026-05-02T11:11:24Z</time></trkpt><trkpt lat="44.110855548008026" lon="11.550420132779095"><ele>453.0</ele><time>2026-05-02T11:11:25Z</time></trkpt><trkpt lat="44.11099105089673" lon="11.550398682278828"><ele>454.75</ele><time>2026-05-02T11:11:26Z</time></trkpt><trkpt lat="44.11113237667752" lon="11.550382443570912"><ele>456.5</ele><time>2026-05-02T11:11:27Z</time></trkpt><trkpt lat="44.11126904641787" lon="11.550360564255659"><ele>458.25</ele><time>2026-05-02T11:11:28Z</time></trkpt><trkpt lat="44.11140145540336" lon="11.550342121806597"><ele>460.0</ele><time>2026-05-02T11:11:29Z</time></trkpt><trkpt lat="44.111530102491734" lon="11.550324248511542"><ele>454.25</ele><time>2026-05-02T11:11:30Z</time></trkpt><trkpt lat="44.11165616052994" lon="11.550305063014369"><ele>448.5</ele><time>2026-05-02T11:11:31Z</time></trkpt><trkpt lat="44.11178079946306" lon="11.55029086443138"><ele>442.75</ele><time>2026-05-02T11:11:32Z</time></trkpt><trkpt lat="44.11189820126401" lon="11.550272032689577"><ele>437.0</ele><time>2026-05-02T11:11:33Z</time></trkpt><trkpt lat="44.11200408410714" lon="11.550256003374631"><ele>437.0</ele><time>2026-05-02T11:11:34Z</time></trkpt><trkpt lat="44.11210598020707" lon="11.550228125869587"><ele>437.00000000000006</ele><time>2026-05-02T11:11:35Z</time></trkpt><trkpt lat="44.112199729096616" lon="11.550181977543664"><ele>437.00000000000006</ele><time>2026-05-02T11:11:36Z</time></trkpt><trkpt lat="44.11228492125574" lon="11.550107306547002"><ele>437.0</ele><time>2026-05-02T11:11:37Z</time></trkpt><trkpt lat="44.11234793273575" lon="11.55001380883052"><ele>437.0</ele><time>2026-05-02T11:11:38.001Z</time></trkpt><trkpt lat="44.11239833647097" lon="11.549908334531942"><ele>436.25</ele><time>2026-05-02T11:11:39.001Z</time></trkpt><trkpt lat="44.112427155667376" lon="11.549779607162568"><ele>435.5</ele><time>2026-05-02T11:11:40.001Z</time></trkpt><trkpt lat="44.11244441109995" lon="11.54964536310154"><ele>434.75</ele><time>2026-05-02T11:11:41.001Z</time></trkpt><trkpt lat="44.11248226097793" lon="11.54940045072494"><ele>434.0</ele><time>2026-05-02T11:11:43.001Z</time></trkpt><trkpt lat="44.11250103421633" lon="11.549274146571017"><ele>433.99999999999994</ele><time>2026-05-02T11:11:44.001Z</time></trkpt><trkpt lat="44.112518977131586" lon="11.549151798223068"><ele>434.0</ele><time>2026-05-02T11:11:45.001Z</time></trkpt><trkpt lat="44.112533930155614" lon="11.549035824233915"><ele>434.0</ele><time>2026-05-02T11:11:46.001Z</time></trkpt><trkpt lat="44.11254634258065" lon="11.548929040932801"><ele>434.0</ele><time>2026-05-02T11:11:47.001Z</time></trkpt><trkpt lat="44.11256571081429" lon="11.548841889350992"><ele>433.99999999999994</ele><time>2026-05-02T11:11:48.001Z</time></trkpt><trkpt lat="44.11258410180774" lon="11.548700291766583"><ele>434.0</ele><time>2026-05-02T11:11:50.001Z</time></trkpt><trkpt lat="44.112592258813" lon="11.548578830130293"><ele>433.4</ele><time>2026-05-02T11:11:52.001Z</time></trkpt><trkpt lat="44.11261172938687" lon="11.548459564650571"><ele>432.79999999999995</ele><time>2026-05-02T11:11:54.001Z</time></trkpt><trkpt lat="44.11259478031018" lon="11.548344561187948"><ele>432.20000000000005</ele><time>2026-05-02T11:11:56.001Z</time></trkpt><trkpt lat="44.11250277961196" lon="11.54826591844251"><ele>431.6</ele><time>2026-05-02T11:11:58.001Z</time></trkpt><trkpt lat="44.11249276047088" lon="11.548127974979414"><ele>431.0</ele><time>2026-05-02T11:12:00.001Z</time></trkpt><trkpt lat="44.112521650776756" lon="11.547972633787957"><ele>431.0</ele><time>2026-05-02T11:12:02.001Z</time></trkpt><trkpt lat="44.11254975911568" lon="11.547891865805456"><ele>431.0</ele><time>2026-05-02T11:12:03.001Z</time></trkpt><trkpt lat="44.112611468250506" lon="11.547835536200546"><ele>431.0</ele><time>2026-05-02T11:12:04.001Z</time></trkpt><trkpt lat="44.11268516833108" lon="11.547813522578709"><ele>431.0</ele><time>2026-05-02T11:12:05.001Z</time></trkpt><trkpt lat="44.112766899469115" lon="11.547813640086591"><ele>431.0</ele><time>2026-05-02T11:12:06.001Z</time></trkpt><trkpt lat="44.11284604999655" lon="11.547827701092617"><ele>431.0</ele><time>2026-05-02T11:12:07.002Z</time></trkpt><trkpt lat="44.11291875322893" lon="11.547841258785011"><ele>431.0</ele><time>2026-05-02T11:12:08.002Z</time></trkpt><trkpt lat="44.11299415735985" lon="11.547859380097965"><ele>430.99999999999994</ele><time>2026-05-02T11:12:09.002Z</time></trkpt><trkpt lat="44.11306544736563" lon="11.547891482906401"><ele>431.0</ele><time>2026-05-02T11:12:10.002Z</time></trkpt><trkpt lat="44.11313552651803" lon="11.547925837500566"><ele>431.0</ele><time>2026-05-02T11:12:11.002Z</time></trkpt><trkpt lat="44.11319921048533" lon="11.547950294523451"><ele>431.0</ele><time>2026-05-02T11:12:12.002Z</time></trkpt><trkpt lat="44.11330287480112" lon="11.547997611556472"><ele>430.99999999999994</ele><time>2026-05-02T11:12:14.002Z</time></trkpt><trkpt lat="44.11339355740945" lon="11.548047718523213"><ele>431.0</ele><time>2026-05-02T11:12:16.002Z</time></trkpt><trkpt lat="44.11345646801835" lon="11.547967554432036"><ele>430.4</ele><time>2026-05-02T11:12:18.002Z</time></trkpt><trkpt lat="44.11343120195777" lon="11.547809695171416"><ele>429.8</ele><time>2026-05-02T11:12:20.002Z</time></trkpt><trkpt lat="44.11343061519825" lon="11.547631538794933"><ele>429.19999999999993</ele><time>2026-05-02T11:12:22.002Z</time></trkpt><trkpt lat="44.11344114304026" lon="11.547527992256066"><ele>428.59999999999997</ele><time>2026-05-02T11:12:23.002Z</time></trkpt><trkpt lat="44.113449508324535" lon="11.547415657835815"><ele>428.0</ele><time>2026-05-02T11:12:24.002Z</time></trkpt><trkpt lat="44.113458483990165" lon="11.547300079842227"><ele>427.99999999999994</ele><time>2026-05-02T11:12:25.002Z</time></trkpt><trkpt lat="44.113469279912195" lon="11.547184978206605"><ele>428.0</ele><time>2026-05-02T11:12:26.002Z</time></trkpt><trkpt lat="44.11349699887966" lon="11.547076856699245"><ele>428.0</ele><time>2026-05-02T11:12:27.002Z</time></trkpt><trkpt lat="44.11355201329603" lon="11.546976129206666"><ele>428.0</ele><time>2026-05-02T11:12:28.002Z</time></trkpt><trkpt lat="44.11361209058935" lon="11.546871808479994"><ele>427.99999999999994</ele><time>2026-05-02T11:12:29.002Z</time></trkpt><trkpt lat="44.11368101365177" lon="11.546777719342433"><ele>428.0</ele><time>2026-05-02T11:12:30.002Z</time></trkpt><trkpt lat="44.11374884429313" lon="11.546682991095363"><ele>428.49999999999994</ele><time>2026-05-02T11:12:31.002Z</time></trkpt><trkpt lat="44.113815820959616" lon="11.546602995506085"><ele>429.0</ele><time>2026-05-02T11:12:32.002Z</time></trkpt><trkpt lat="44.113880859979254" lon="11.54652163885855"><ele>429.5</ele><time>2026-05-02T11:12:33.002Z</time></trkpt><trkpt lat="44.11394912324954" lon="11.54643735861034"><ele>430.0</ele><time>2026-05-02T11:12:34.002Z</time></trkpt><trkpt lat="44.11401508305169" lon="11.546347470087582"><ele>430.49999999999994</ele><time>2026-05-02T11:12:35.002Z</time></trkpt><trkpt lat="44.114070048724635" lon="11.546266620203054"><ele>431.0</ele><time>2026-05-02T11:12:36.002Z</time></trkpt><trkpt lat="44.114112715383236" lon="11.546184747775898"><ele>432.49999999999994</ele><time>2026-05-02T11:12:37.002Z</time></trkpt><trkpt lat="44.11415162667274" lon="11.546096233363109"><ele>434.0</ele><time>2026-05-02T11:12:38.002Z</time></trkpt><trkpt lat="44.114188579522825" lon="11.545998986420933"><ele>435.5</ele><time>2026-05-02T11:12:39.003Z</time></trkpt><trkpt lat="44.114218288968935" lon="11.54589351395941"><ele>437.0</ele><time>2026-05-02T11:12:40.003Z</time></trkpt><trkpt lat="44.11424141025304" lon="11.54576447215493"><ele>438.49999999999994</ele><time>2026-05-02T11:12:41.003Z</time></trkpt><trkpt lat="44.1142643269096" lon="11.545613079182376"><ele>440.0</ele><time>2026-05-02T11:12:42.003Z</time></trkpt><trkpt lat="44.114293730320966" lon="11.545454132942368"><ele>439.25</ele><time>2026-05-02T11:12:43.003Z</time></trkpt><trkpt lat="44.114323373601984" lon="11.545283953351989"><ele>438.5</ele><time>2026-05-02T11:12:44.003Z</time></trkpt><trkpt lat="44.114351655489386" lon="11.545105732361762"><ele>437.75</ele><time>2026-05-02T11:12:45.003Z</time></trkpt><trkpt lat="44.114374107178065" lon="11.544932557898276"><ele>437.0</ele><time>2026-05-02T11:12:46.003Z</time></trkpt><trkpt lat="44.11439521308079" lon="11.544769976004238"><ele>437.0</ele><time>2026-05-02T11:12:47.003Z</time></trkpt><trkpt lat="44.11441745712623" lon="11.544620716254173"><ele>437.00000000000006</ele><time>2026-05-02T11:12:48.003Z</time></trkpt><trkpt lat="44.11443962208461" lon="11.544486222014662"><ele>437.00000000000006</ele><time>2026-05-02T11:12:49.003Z</time></trkpt><trkpt lat="44.11446282036841" lon="11.544360185072282"><ele>437.0</ele><time>2026-05-02T11:12:50.003Z</time></trkpt><trkpt lat="44.11449129669252" lon="11.544232184543773"><ele>437.0</ele><time>2026-05-02T11:12:51.003Z</time></trkpt><trkpt lat="44.114531346891305" lon="11.544097583239768"><ele>438.5</ele><time>2026-05-02T11:12:52.003Z</time></trkpt><trkpt lat="44.11458102121039" lon="11.54396006705726"><ele>440.0</ele><time>2026-05-02T11:12:53.003Z</time></trkpt><trkpt lat="44.114645861969" lon="11.543813281196252"><ele>441.5</ele><time>2026-05-02T11:12:54.003Z</time></trkpt><trkpt lat="44.114718815779476" lon="11.543659486353528"><ele>443.0</ele><time>2026-05-02T11:12:55.003Z</time></trkpt><trkpt lat="44.11479299452046" lon="11.543496679103846"><ele>443.75</ele><time>2026-05-02T11:12:56.003Z</time></trkpt><trkpt lat="44.11486390163274" lon="11.543322364829764"><ele>444.5</ele><time>2026-05-02T11:12:57.003Z</time></trkpt><trkpt lat="44.11492820055345" lon="11.543138690789586"><ele>445.25</ele><time>2026-05-02T11:12:58.003Z</time></trkpt><trkpt lat="44.1149825773441" lon="11.542941500811596"><ele>446.0</ele><time>2026-05-02T11:12:59.003Z</time></trkpt><trkpt lat="44.11503044134185" lon="11.542737026806275"><ele>447.0</ele><time>2026-05-02T11:13:00.003Z</time></trkpt><trkpt lat="44.11507071225093" lon="11.542535036809166"><ele>448.0</ele><time>2026-05-02T11:13:01.003Z</time></trkpt><trkpt lat="44.11510047605081" lon="11.542347813836644"><ele>449.0</ele><time>2026-05-02T11:13:02.003Z</time></trkpt><trkpt lat="44.11512913514911" lon="11.54217498133477"><ele>450.0</ele><time>2026-05-02T11:13:03.003Z</time></trkpt><trkpt lat="44.115166017839336" lon="11.542018125810017"><ele>450.75</ele><time>2026-05-02T11:13:04.003Z</time></trkpt><trkpt lat="44.11521759577912" lon="11.541884787777365"><ele>451.5</ele><time>2026-05-02T11:13:05.003Z</time></trkpt><trkpt lat="44.115289491387955" lon="11.541759923181408"><ele>452.25</ele><time>2026-05-02T11:13:06.003Z</time></trkpt><trkpt lat="44.11537525035359" lon="11.541641523692316"><ele>453.0</ele><time>2026-05-02T11:13:07.003Z</time></trkpt><trkpt lat="44.115474439072045" lon="11.541537096917661"><ele>453.0</ele><time>2026-05-02T11:13:08.003Z</time></trkpt><trkpt lat="44.11557912726668" lon="11.541433270837386"><ele>453.0</ele><time>2026-05-02T11:13:08.999Z</time></trkpt><trkpt lat="44.11568423506643" lon="11.541319868096435"><ele>453.0</ele><time>2026-05-02T11:13:09.999Z</time></trkpt><trkpt lat="44.115779229099296" lon="11.541187540147465"><ele>453.0</ele><time>2026-05-02T11:13:10.999Z</time></trkpt><trkpt lat="44.115853400582004" lon="11.541036633594551"><ele>453.75</ele><time>2026-05-02T11:13:11.999Z</time></trkpt><trkpt lat="44.11589793765646" lon="11.540863171535412"><ele>454.5</ele><time>2026-05-02T11:13:12.999Z</time></trkpt><trkpt lat="44.115926362707825" lon="11.540674174258259"><ele>455.25</ele><time>2026-05-02T11:13:13.999Z</time></trkpt><trkpt lat="44.115965074125256" lon="11.540488520545276"><ele>456.0</ele><time>2026-05-02T11:13:14.999Z</time></trkpt><trkpt lat="44.116027834088186" lon="11.540309618993579"><ele>456.0</ele><time>2026-05-02T11:13:15.999Z</time></trkpt><trkpt lat="44.11610576130293" lon="11.540134766990022"><ele>456.0</ele><time>2026-05-02T11:13:16.999Z</time></trkpt><trkpt lat="44.11619130745575" lon="11.539964418456007"><ele>456.0</ele><time>2026-05-02T11:13:17.999Z</time></trkpt><trkpt lat="44.11627339582592" lon="11.5398048573884"><ele>456.0</ele><time>2026-05-02T11:13:18.999Z</time></trkpt><trkpt lat="44.116354801682576" lon="11.539644004070137"><ele>457.75</ele><time>2026-05-02T11:13:19.999Z</time></trkpt><trkpt lat="44.116436327763644" lon="11.539481580129477"><ele>459.5</ele><time>2026-05-02T11:13:20.999Z</time></trkpt><trkpt lat="44.11652063113796" lon="11.539316419435604"><ele>461.25</ele><time>2026-05-02T11:13:21.999Z</time></trkpt><trkpt lat="44.11660679813555" lon="11.539151730175181"><ele>463.0</ele><time>2026-05-02T11:13:23Z</time></trkpt><trkpt lat="44.11669366659725" lon="11.538985213842947"><ele>462.0</ele><time>2026-05-02T11:13:24Z</time></trkpt><trkpt lat="44.116782510317236" lon="11.538817835175577"><ele>461.0</ele><time>2026-05-02T11:13:25Z</time></trkpt><trkpt lat="44.116863731619794" lon="11.538643167262935"><ele>460.0</ele><time>2026-05-02T11:13:26Z</time></trkpt><trkpt lat="44.1169284860879" lon="11.538451237560004"><ele>460.0</ele><time>2026-05-02T11:13:27Z</time></trkpt><trkpt lat="44.1169762651023" lon="11.538248836776539"><ele>460.0</ele><time>2026-05-02T11:13:28Z</time></trkpt><trkpt lat="44.11701415144072" lon="11.538039184784983"><ele>460.0</ele><time>2026-05-02T11:13:29Z</time></trkpt><trkpt lat="44.11705358197236" lon="11.537829214995483"><ele>462.0</ele><time>2026-05-02T11:13:30Z</time></trkpt><trkpt lat="44.11709438890442" lon="11.537617784360178"><ele>464.0</ele><time>2026-05-02T11:13:31Z</time></trkpt><trkpt lat="44.11713323418757" lon="11.537405022459055"><ele>466.0</ele><time>2026-05-02T11:13:32Z</time></trkpt><trkpt lat="44.11716926068021" lon="11.53719198317883"><ele>465.0</ele><time>2026-05-02T11:13:33Z</time></trkpt><trkpt lat="44.11720544222981" lon="11.53697966617044"><ele>464.0</ele><time>2026-05-02T11:13:34Z</time></trkpt><trkpt lat="44.11724045229557" lon="11.536769043155827"><ele>463.0</ele><time>2026-05-02T11:13:35Z</time></trkpt><trkpt lat="44.117268915768605" lon="11.536564719045847"><ele>463.0</ele><time>2026-05-02T11:13:36Z</time></trkpt><trkpt lat="44.1172778527279" lon="11.536351678428804"><ele>463.0</ele><time>2026-05-02T11:13:37Z</time></trkpt><trkpt lat="44.11726544569475" lon="11.536134998827148"><ele>463.0</ele><time>2026-05-02T11:13:38Z</time></trkpt><trkpt lat="44.11723935589493" lon="11.535916420517193"><ele>464.33333333333337</ele><time>2026-05-02T11:13:39Z</time></trkpt><trkpt lat="44.11720862904016" lon="11.535692285725483"><ele>465.66666666666663</ele><time>2026-05-02T11:13:40Z</time></trkpt><trkpt lat="44.11718099517865" lon="11.535468098706568"><ele>467.0</ele><time>2026-05-02T11:13:41Z</time></trkpt><trkpt lat="44.11715423093833" lon="11.535249751371245"><ele>468.5</ele><time>2026-05-02T11:13:42Z</time></trkpt><trkpt lat="44.11712752783882" lon="11.535039761193712"><ele>470.0</ele><time>2026-05-02T11:13:43.001Z</time></trkpt><trkpt lat="44.11709915533926" lon="11.534839849640708"><ele>471.5</ele><time>2026-05-02T11:13:44.001Z</time></trkpt><trkpt lat="44.1170714011213" lon="11.534657682724506"><ele>473.0</ele><time>2026-05-02T11:13:45.001Z</time></trkpt><trkpt lat="44.117051769567674" lon="11.534485925773769"><ele>473.59999999999997</ele><time>2026-05-02T11:13:46.001Z</time></trkpt><trkpt lat="44.117034179827684" lon="11.53431699959965"><ele>474.19999999999993</ele><time>2026-05-02T11:13:47.001Z</time></trkpt><trkpt lat="44.11702747000434" lon="11.534159988459884"><ele>474.8</ele><time>2026-05-02T11:13:48.001Z</time></trkpt><trkpt lat="44.117043440322284" lon="11.534016717507779"><ele>475.4</ele><time>2026-05-02T11:13:49.001Z</time></trkpt><trkpt lat="44.11708872093735" lon="11.533877754710794"><ele>476.0</ele><time>2026-05-02T11:13:50.001Z</time></trkpt><trkpt lat="44.11715718703362" lon="11.53375183903896"><ele>476.3333333333333</ele><time>2026-05-02T11:13:51.001Z</time></trkpt><trkpt lat="44.1172480937952" lon="11.533640380699689"><ele>476.66666666666663</ele><time>2026-05-02T11:13:52.001Z</time></trkpt><trkpt lat="44.11735123576439" lon="11.533529858984716"><ele>477.0</ele><time>2026-05-02T11:13:53.001Z</time></trkpt><trkpt lat="44.11757710137293" lon="11.53328264314999"><ele>478.0</ele><time>2026-05-02T11:13:55.001Z</time></trkpt><trkpt lat="44.117700412717284" lon="11.533145697254875"><ele>479.0</ele><time>2026-05-02T11:13:56.001Z</time></trkpt><trkpt lat="44.11783204289907" lon="11.533007747010565"><ele>480.0</ele><time>2026-05-02T11:13:57.001Z</time></trkpt><trkpt lat="44.11796956028707" lon="11.532867480165493"><ele>480.0</ele><time>2026-05-02T11:13:58.001Z</time></trkpt><trkpt lat="44.11811329929017" lon="11.532728032473928"><ele>480.0</ele><time>2026-05-02T11:13:59.001Z</time></trkpt><trkpt lat="44.118256051283595" lon="11.532575835159129"><ele>480.0</ele><time>2026-05-02T11:14:00.001Z</time></trkpt><trkpt lat="44.11839533112191" lon="11.532425639785318"><ele>486.33333333333337</ele><time>2026-05-02T11:14:01.001Z</time></trkpt><trkpt lat="44.11853446280485" lon="11.532278304696552"><ele>492.6666666666667</ele><time>2026-05-02T11:14:02.001Z</time></trkpt><trkpt lat="44.11866787178717" lon="11.532157215892017"><ele>499.0</ele><time>2026-05-02T11:14:03.001Z</time></trkpt><trkpt lat="44.118803228872736" lon="11.532081309373842"><ele>500.0</ele><time>2026-05-02T11:14:04.001Z</time></trkpt><trkpt lat="44.11893338315067" lon="11.53199526853821"><ele>501.0</ele><time>2026-05-02T11:14:05.001Z</time></trkpt><trkpt lat="44.11905273240125" lon="11.531895206113312"><ele>502.0</ele><time>2026-05-02T11:14:06.001Z</time></trkpt><trkpt lat="44.11915303666278" lon="11.531756063393276"><ele>503.0</ele><time>2026-05-02T11:14:07.001Z</time></trkpt><trkpt lat="44.11923962092303" lon="11.53158809111043"><ele>503.0</ele><time>2026-05-02T11:14:08.001Z</time></trkpt><trkpt lat="44.11931694046288" lon="11.531407199716632"><ele>503.0</ele><time>2026-05-02T11:14:09.001Z</time></trkpt><trkpt lat="44.11940361265028" lon="11.531225976497828"><ele>503.0</ele><time>2026-05-02T11:14:10.001Z</time></trkpt><trkpt lat="44.119501073423606" lon="11.531051143839898"><ele>499.3333333333333</ele><time>2026-05-02T11:14:11.001Z</time></trkpt><trkpt lat="44.11961218700823" lon="11.530880478475687"><ele>495.66666666666663</ele><time>2026-05-02T11:14:12.001Z</time></trkpt><trkpt lat="44.11972541453003" lon="11.530711982820531"><ele>492.0</ele><time>2026-05-02T11:14:13.002Z</time></trkpt><trkpt lat="44.119836431997435" lon="11.530534789645719"><ele>498.66666666666663</ele><time>2026-05-02T11:14:14.002Z</time></trkpt><trkpt lat="44.11993322422442" lon="11.530345679064116"><ele>505.3333333333333</ele><time>2026-05-02T11:14:15.002Z</time></trkpt><trkpt lat="44.12001825606262" lon="11.53014603577001"><ele>512.0</ele><time>2026-05-02T11:14:16.002Z</time></trkpt><trkpt lat="44.12009111898293" lon="11.529929245641776"><ele>512.0</ele><time>2026-05-02T11:14:17.002Z</time></trkpt><trkpt lat="44.120153637489324" lon="11.529709040882686"><ele>512.0</ele><time>2026-05-02T11:14:18.002Z</time></trkpt><trkpt lat="44.12021363540695" lon="11.529499890899451"><ele>512.0</ele><time>2026-05-02T11:14:19.002Z</time></trkpt><trkpt lat="44.12027103430788" lon="11.529306584999157"><ele>511.0</ele><time>2026-05-02T11:14:20.002Z</time></trkpt><trkpt lat="44.12032241978931" lon="11.529130456090455"><ele>510.0</ele><time>2026-05-02T11:14:21.002Z</time></trkpt><trkpt lat="44.12037143684104" lon="11.528965387670851"><ele>509.0</ele><time>2026-05-02T11:14:22.002Z</time></trkpt><trkpt lat="44.12043131693269" lon="11.528806009121189"><ele>508.0</ele><time>2026-05-02T11:14:23.002Z</time></trkpt><trkpt lat="44.12051241886245" lon="11.528657982906335"><ele>505.75</ele><time>2026-05-02T11:14:24.002Z</time></trkpt><trkpt lat="44.120614114625724" lon="11.52852876315757"><ele>503.5</ele><time>2026-05-02T11:14:25.002Z</time></trkpt><trkpt lat="44.12073082397333" lon="11.5284171566416"><ele>501.25</ele><time>2026-05-02T11:14:26.002Z</time></trkpt><trkpt lat="44.120844929428834" lon="11.528313539570926"><ele>499.0</ele><time>2026-05-02T11:14:27.002Z</time></trkpt><trkpt lat="44.12094840817567" lon="11.528230584273281"><ele>503.79999999999995</ele><time>2026-05-02T11:14:28.002Z</time></trkpt><trkpt lat="44.121049641867884" lon="11.528188022626548"><ele>508.59999999999997</ele><time>2026-05-02T11:14:29.002Z</time></trkpt><trkpt lat="44.12114550693539" lon="11.52819122632585"><ele>513.4</ele><time>2026-05-02T11:14:30.002Z</time></trkpt><trkpt lat="44.12123541757609" lon="11.528232431941849"><ele>518.1999999999999</ele><time>2026-05-02T11:14:31.002Z</time></trkpt><trkpt lat="44.12131084950464" lon="11.528311195137023"><ele>523.0</ele><time>2026-05-02T11:14:32.002Z</time></trkpt><trkpt lat="44.121364620786785" lon="11.52842626761482"><ele>523.0</ele><time>2026-05-02T11:14:33.002Z</time></trkpt><trkpt lat="44.121411588261445" lon="11.528557613582379"><ele>523.0</ele><time>2026-05-02T11:14:34.002Z</time></trkpt><trkpt lat="44.121463667093515" lon="11.528693645007513"><ele>523.0</ele><time>2026-05-02T11:14:35.002Z</time></trkpt><trkpt lat="44.121525332761486" lon="11.528833472693092"><ele>523.0</ele><time>2026-05-02T11:14:36.002Z</time></trkpt><trkpt lat="44.12160626252995" lon="11.528967239340293"><ele>528.5</ele><time>2026-05-02T11:14:37.002Z</time></trkpt><trkpt lat="44.12171180268793" lon="11.529083030159805"><ele>534.0</ele><time>2026-05-02T11:14:38.002Z</time></trkpt><trkpt lat="44.12183055256543" lon="11.529182084043825"><ele>539.5</ele><time>2026-05-02T11:14:39.002Z</time></trkpt><trkpt lat="44.121956268846006" lon="11.529277128670135"><ele>545.0</ele><time>2026-05-02T11:14:40.002Z</time></trkpt><trkpt lat="44.12208673594718" lon="11.52936989018695"><ele>545.0</ele><time>2026-05-02T11:14:41.002Z</time></trkpt><trkpt lat="44.12221554188429" lon="11.529470104847013"><ele>545.0</ele><time>2026-05-02T11:14:42.002Z</time></trkpt><trkpt lat="44.12233887269404" lon="11.529567116368053"><ele>545.0</ele><time>2026-05-02T11:14:43.002Z</time></trkpt><trkpt lat="44.12245058721525" lon="11.529644115605286"><ele>545.0</ele><time>2026-05-02T11:14:44.002Z</time></trkpt><trkpt lat="44.12255236388625" lon="11.52969133174438"><ele>547.0</ele><time>2026-05-02T11:14:45.003Z</time></trkpt><trkpt lat="44.12265060199897" lon="11.529736121116054"><ele>549.0</ele><time>2026-05-02T11:14:46.003Z</time></trkpt><trkpt lat="44.122742048007474" lon="11.52977229218712"><ele>551.0</ele><time>2026-05-02T11:14:47.003Z</time></trkpt><trkpt lat="44.12282690978506" lon="11.529783722291175"><ele>553.0</ele><time>2026-05-02T11:14:48.003Z</time></trkpt><trkpt lat="44.12290632750403" lon="11.529746768019075"><ele>555.0</ele><time>2026-05-02T11:14:49.003Z</time></trkpt><trkpt lat="44.12297939459954" lon="11.529663967543023"><ele>550.6</ele><time>2026-05-02T11:14:50.003Z</time></trkpt><trkpt lat="44.12303035051434" lon="11.529543338185977"><ele>546.2</ele><time>2026-05-02T11:14:51.003Z</time></trkpt><trkpt lat="44.12307318273801" lon="11.5294026324145"><ele>541.8</ele><time>2026-05-02T11:14:52.003Z</time></trkpt><trkpt lat="44.12309876655478" lon="11.529242382876507"><ele>537.4</ele><time>2026-05-02T11:14:53.003Z</time></trkpt><trkpt lat="44.123107658764404" lon="11.529080708295504"><ele>533.0</ele><time>2026-05-02T11:14:54.003Z</time></trkpt><trkpt lat="44.12310743266321" lon="11.52894010906322"><ele>533.0</ele><time>2026-05-02T11:14:55.003Z</time></trkpt><trkpt lat="44.12309133729653" lon="11.528815175281878"><ele>533.0</ele><time>2026-05-02T11:14:56.003Z</time></trkpt><trkpt lat="44.1230502515899" lon="11.528698737963149"><ele>533.0</ele><time>2026-05-02T11:14:57.003Z</time></trkpt><trkpt lat="44.12297760746294" lon="11.528608631390545"><ele>533.0</ele><time>2026-05-02T11:14:58.003Z</time></trkpt><trkpt lat="44.12288638701505" lon="11.528553592716897"><ele>533.0</ele><time>2026-05-02T11:14:59.003Z</time></trkpt><trkpt lat="44.12278572792693" lon="11.52851061087162"><ele>534.8</ele><time>2026-05-02T11:15:00.003Z</time></trkpt><trkpt lat="44.122683793483525" lon="11.5284667492886"><ele>536.5999999999999</ele><time>2026-05-02T11:15:01.003Z</time></trkpt><trkpt lat="44.122592964480766" lon="11.528404214580577"><ele>538.4000000000001</ele><time>2026-05-02T11:15:02.003Z</time></trkpt><trkpt lat="44.12252153441339" lon="11.528314368065777"><ele>540.2</ele><time>2026-05-02T11:15:03.003Z</time></trkpt><trkpt lat="44.12247464149787" lon="11.528200790213962"><ele>542.0</ele><time>2026-05-02T11:15:04.003Z</time></trkpt><trkpt lat="44.12246154026624" lon="11.52807406824627"><ele>542.0</ele><time>2026-05-02T11:15:05.003Z</time></trkpt><trkpt lat="44.12248303496019" lon="11.527944375208635"><ele>542.0</ele><time>2026-05-02T11:15:06.003Z</time></trkpt><trkpt lat="44.122524830440746" lon="11.527814649363911"><ele>542.0</ele><time>2026-05-02T11:15:07.003Z</time></trkpt><trkpt lat="44.12258093785237" lon="11.527687550065593"><ele>542.0</ele><time>2026-05-02T11:15:08.003Z</time></trkpt><trkpt lat="44.12265323568733" lon="11.52756363188695"><ele>542.0</ele><time>2026-05-02T11:15:09.003Z</time></trkpt><trkpt lat="44.12274140376469" lon="11.527447092767323"><ele>541.5</ele><time>2026-05-02T11:15:10.003Z</time></trkpt><trkpt lat="44.122838430928155" lon="11.527334087967239"><ele>541.0</ele><time>2026-05-02T11:15:11.003Z</time></trkpt><trkpt lat="44.12294037908236" lon="11.52721587193071"><ele>540.5</ele><time>2026-05-02T11:15:12.003Z</time></trkpt><trkpt lat="44.12304355523361" lon="11.527095061212494"><ele>540.0</ele><time>2026-05-02T11:15:13.003Z</time></trkpt><trkpt lat="44.123139443021095" lon="11.52696406577501"><ele>535.75</ele><time>2026-05-02T11:15:14.003Z</time></trkpt><trkpt lat="44.12321723686214" lon="11.526813583835303"><ele>531.5</ele><time>2026-05-02T11:15:14.999Z</time></trkpt><trkpt lat="44.12326558413968" lon="11.526645603799214"><ele>527.25</ele><time>2026-05-02T11:15:15.999Z</time></trkpt><trkpt lat="44.1232865960358" lon="11.526476688824506"><ele>523.0</ele><time>2026-05-02T11:15:16.999Z</time></trkpt><trkpt lat="44.123304065863906" lon="11.526315332228199"><ele>527.6</ele><time>2026-05-02T11:15:17.999Z</time></trkpt><trkpt lat="44.12334138156655" lon="11.526169509518876"><ele>532.1999999999999</ele><time>2026-05-02T11:15:18.999Z</time></trkpt><trkpt lat="44.12340806136161" lon="11.526051435700657"><ele>536.8</ele><time>2026-05-02T11:15:19.999Z</time></trkpt><trkpt lat="44.12349283620655" lon="11.525974813878413"><ele>541.4</ele><time>2026-05-02T11:15:20.999Z</time></trkpt><trkpt lat="44.123596243806375" lon="11.52593135675775"><ele>546.0</ele><time>2026-05-02T11:15:21.999Z</time></trkpt><trkpt lat="44.123709313284536" lon="11.525909016495339"><ele>546.0</ele><time>2026-05-02T11:15:22.999Z</time></trkpt><trkpt lat="44.1238270652887" lon="11.525884329304635"><ele>546.0</ele><time>2026-05-02T11:15:23.999Z</time></trkpt><trkpt lat="44.12394015811512" lon="11.525850137052783"><ele>546.0</ele><time>2026-05-02T11:15:24.999Z</time></trkpt><trkpt lat="44.12403884124767" lon="11.525792966123708"><ele>546.0</ele><time>2026-05-02T11:15:25.999Z</time></trkpt><trkpt lat="44.12412571401807" lon="11.525694669890585"><ele>549.0</ele><time>2026-05-02T11:15:26.999Z</time></trkpt><trkpt lat="44.12418579422767" lon="11.525557800719174"><ele>552.0</ele><time>2026-05-02T11:15:27.999Z</time></trkpt><trkpt lat="44.12421408864515" lon="11.525410252725397"><ele>555.0</ele><time>2026-05-02T11:15:29Z</time></trkpt><trkpt lat="44.12420578268877" lon="11.52526823663832"><ele>558.0</ele><time>2026-05-02T11:15:30Z</time></trkpt><trkpt lat="44.124159035791344" lon="11.525137725998864"><ele>561.0</ele><time>2026-05-02T11:15:31Z</time></trkpt><trkpt lat="44.12410163997832" lon="11.52502932122964"><ele>561.0</ele><time>2026-05-02T11:15:32Z</time></trkpt><trkpt lat="44.12406152267431" lon="11.524922907264761"><ele>561.0</ele><time>2026-05-02T11:15:33Z</time></trkpt><trkpt lat="44.124060370864385" lon="11.524804242266063"><ele>561.0</ele><time>2026-05-02T11:15:34Z</time></trkpt><trkpt lat="44.12408970758085" lon="11.524676702064447"><ele>561.0</ele><time>2026-05-02T11:15:35Z</time></trkpt><trkpt lat="44.12414617102911" lon="11.524554077398264"><ele>561.0</ele><time>2026-05-02T11:15:36Z</time></trkpt><trkpt lat="44.12421654089301" lon="11.52443761653458"><ele>559.75</ele><time>2026-05-02T11:15:37Z</time></trkpt><trkpt lat="44.12428906994124" lon="11.524310612959354"><ele>558.5</ele><time>2026-05-02T11:15:38Z</time></trkpt><trkpt lat="44.12435339090558" lon="11.524170676281427"><ele>557.25</ele><time>2026-05-02T11:15:39Z</time></trkpt><trkpt lat="44.124403892137146" lon="11.524010632971098"><ele>556.0</ele><time>2026-05-02T11:15:40Z</time></trkpt><trkpt lat="44.12444326214105" lon="11.523837641025573"><ele>553.25</ele><time>2026-05-02T11:15:41Z</time></trkpt><trkpt lat="44.12447692016109" lon="11.523654660896158"><ele>550.5</ele><time>2026-05-02T11:15:42Z</time></trkpt><trkpt lat="44.12450244221346" lon="11.523470365465394"><ele>547.75</ele><time>2026-05-02T11:15:43Z</time></trkpt><trkpt lat="44.12452930349905" lon="11.523299984959763"><ele>545.0</ele><time>2026-05-02T11:15:44Z</time></trkpt><trkpt lat="44.124577200408964" lon="11.523150980347651"><ele>545.0</ele><time>2026-05-02T11:15:45Z</time></trkpt><trkpt lat="44.12465295389252" lon="11.52302886898597"><ele>545.0</ele><time>2026-05-02T11:15:46Z</time></trkpt><trkpt lat="44.124747150452826" lon="11.522931017144293"><ele>545.0</ele><time>2026-05-02T11:15:47Z</time></trkpt><trkpt lat="44.12484726768433" lon="11.522837609147787"><ele>545.0</ele><time>2026-05-02T11:15:48Z</time></trkpt><trkpt lat="44.1249371938809" lon="11.522721202836433"><ele>551.0</ele><time>2026-05-02T11:15:49Z</time></trkpt><trkpt lat="44.12501712329712" lon="11.522585488295977"><ele>557.0</ele><time>2026-05-02T11:15:50Z</time></trkpt><trkpt lat="44.12509390569182" lon="11.522430872008464"><ele>563.0</ele><time>2026-05-02T11:15:51.001Z</time></trkpt><trkpt lat="44.125177364139844" lon="11.522276491012999"><ele>569.0</ele><time>2026-05-02T11:15:52.001Z</time></trkpt><trkpt lat="44.12526553043454" lon="11.522121719541545"><ele>564.25</ele><time>2026-05-02T11:15:53.001Z</time></trkpt><trkpt lat="44.12535435611815" lon="11.521974406485214"><ele>559.5</ele><time>2026-05-02T11:15:54.001Z</time></trkpt><trkpt lat="44.1254522137502" lon="11.521850005605717"><ele>554.75</ele><time>2026-05-02T11:15:55.001Z</time></trkpt><trkpt lat="44.12556668244393" lon="11.521753389668158"><ele>550.0</ele><time>2026-05-02T11:15:56.001Z</time></trkpt><trkpt lat="44.12568185965525" lon="11.521660673988677"><ele>555.5</ele><time>2026-05-02T11:15:57.001Z</time></trkpt><trkpt lat="44.125787719387276" lon="11.521550312029495"><ele>561.0</ele><time>2026-05-02T11:15:58.001Z</time></trkpt><trkpt lat="44.12587571561678" lon="11.52141419051425"><ele>566.5</ele><time>2026-05-02T11:15:59.001Z</time></trkpt><trkpt lat="44.12593946444968" lon="11.521255921681599"><ele>572.0</ele><time>2026-05-02T11:16:00.001Z</time></trkpt><trkpt lat="44.12598077627723" lon="11.521084695468772"><ele>572.0</ele><time>2026-05-02T11:16:01.001Z</time></trkpt><trkpt lat="44.12600056965138" lon="11.520906732773822"><ele>572.0</ele><time>2026-05-02T11:16:02.001Z</time></trkpt><trkpt lat="44.126005099677336" lon="11.520724325640279"><ele>572.0</ele><time>2026-05-02T11:16:03.001Z</time></trkpt><trkpt lat="44.12600505296263" lon="11.520541503351334"><ele>572.0</ele><time>2026-05-02T11:16:04.001Z</time></trkpt><trkpt lat="44.12602895169762" lon="11.520370151366416"><ele>570.0</ele><time>2026-05-02T11:16:05.001Z</time></trkpt><trkpt lat="44.12607983426797" lon="11.520211206955832"><ele>568.0</ele><time>2026-05-02T11:16:06.001Z</time></trkpt><trkpt lat="44.12614529445992" lon="11.520059070451431"><ele>566.0</ele><time>2026-05-02T11:16:07.001Z</time></trkpt><trkpt lat="44.12621910149461" lon="11.519907658010489"><ele>564.0</ele><time>2026-05-02T11:16:08.001Z</time></trkpt><trkpt lat="44.1263000027218" lon="11.519755660135324"><ele>564.0</ele><time>2026-05-02T11:16:09.001Z</time></trkpt><trkpt lat="44.12638932183573" lon="11.519606388595417"><ele>564.0</ele><time>2026-05-02T11:16:10.001Z</time></trkpt><trkpt lat="44.12647323537473" lon="11.519473404028021"><ele>564.0</ele><time>2026-05-02T11:16:11.001Z</time></trkpt><trkpt lat="44.126551594826516" lon="11.519360787465386"><ele>564.0</ele><time>2026-05-02T11:16:12.001Z</time></trkpt><trkpt lat="44.126631988832095" lon="11.519271914399505"><ele>565.6</ele><time>2026-05-02T11:16:13.001Z</time></trkpt><trkpt lat="44.126719702697606" lon="11.519217051516828"><ele>567.2</ele><time>2026-05-02T11:16:14.001Z</time></trkpt><trkpt lat="44.12681749482398" lon="11.519187977801016"><ele>568.8000000000001</ele><time>2026-05-02T11:16:15.001Z</time></trkpt><trkpt lat="44.126929834267905" lon="11.51919640028845"><ele>570.4</ele><time>2026-05-02T11:16:16.001Z</time></trkpt><trkpt lat="44.127051733566944" lon="11.51920608457669"><ele>572.0</ele><time>2026-05-02T11:16:17.001Z</time></trkpt><trkpt lat="44.12717792092478" lon="11.519184225680078"><ele>572.0</ele><time>2026-05-02T11:16:18.001Z</time></trkpt><trkpt lat="44.12730321699947" lon="11.51912332858071"><ele>572.0</ele><time>2026-05-02T11:16:19.001Z</time></trkpt><trkpt lat="44.12742488216291" lon="11.51905859602315"><ele>572.0</ele><time>2026-05-02T11:16:20.001Z</time></trkpt><trkpt lat="44.127543629594996" lon="11.5190155623743"><ele>572.0</ele><time>2026-05-02T11:16:21.002Z</time></trkpt><trkpt lat="44.12765752189156" lon="11.518994608285949"><ele>574.4</ele><time>2026-05-02T11:16:22.002Z</time></trkpt><trkpt lat="44.1277647448415" lon="11.51899215749291"><ele>576.8000000000001</ele><time>2026-05-02T11:16:23.002Z</time></trkpt><trkpt lat="44.12786534155031" lon="11.51902240588213"><ele>579.2</ele><time>2026-05-02T11:16:24.002Z</time></trkpt><trkpt lat="44.12796104945074" lon="11.519091679553522"><ele>581.6</ele><time>2026-05-02T11:16:25.002Z</time></trkpt><trkpt lat="44.128052125131724" lon="11.519186638363164"><ele>584.0</ele><time>2026-05-02T11:16:26.002Z</time></trkpt><trkpt lat="44.12815408845541" lon="11.519267267282334"><ele>584.25</ele><time>2026-05-02T11:16:27.002Z</time></trkpt><trkpt lat="44.12827066890434" lon="11.519296786059945"><ele>584.5</ele><time>2026-05-02T11:16:28.002Z</time></trkpt><trkpt lat="44.128396943090664" lon="11.519284207550886"><ele>584.75</ele><time>2026-05-02T11:16:29.002Z</time></trkpt><trkpt lat="44.12852745902396" lon="11.519256329463945"><ele>585.0</ele><time>2026-05-02T11:16:30.002Z</time></trkpt><trkpt lat="44.128658155175245" lon="11.519215825741355"><ele>585.0</ele><time>2026-05-02T11:16:31.002Z</time></trkpt><trkpt lat="44.12877742250222" lon="11.519146134079616"><ele>585.0</ele><time>2026-05-02T11:16:32.002Z</time></trkpt><trkpt lat="44.128884195358346" lon="11.519054487136078"><ele>585.0</ele><time>2026-05-02T11:16:33.002Z</time></trkpt><trkpt lat="44.12896810639261" lon="11.518941201142791"><ele>585.0</ele><time>2026-05-02T11:16:34.002Z</time></trkpt><trkpt lat="44.12905064719147" lon="11.518848824559772"><ele>586.6</ele><time>2026-05-02T11:16:35.002Z</time></trkpt><trkpt lat="44.12914435172976" lon="11.518804417377284"><ele>588.2</ele><time>2026-05-02T11:16:36.002Z</time></trkpt><trkpt lat="44.12924036967082" lon="11.518809167780198"><ele>589.8</ele><time>2026-05-02T11:16:37.002Z</time></trkpt><trkpt lat="44.12933111266864" lon="11.518850200767641"><ele>591.4</ele><time>2026-05-02T11:16:38.002Z</time></trkpt><trkpt lat="44.12941275034531" lon="11.518894251738285"><ele>593.0</ele><time>2026-05-02T11:16:39.002Z</time></trkpt><trkpt lat="44.129492564452974" lon="11.518913315655261"><ele>593.0</ele><time>2026-05-02T11:16:40.002Z</time></trkpt><trkpt lat="44.129564889294365" lon="11.518873083282967"><ele>593.0</ele><time>2026-05-02T11:16:41.002Z</time></trkpt><trkpt lat="44.12961824551301" lon="11.518784293371946"><ele>593.0</ele><time>2026-05-02T11:16:42.002Z</time></trkpt><trkpt lat="44.12964606549004" lon="11.518673642952761"><ele>593.0</ele><time>2026-05-02T11:16:43.002Z</time></trkpt><trkpt lat="44.12966662555678" lon="11.518542864797721"><ele>593.0</ele><time>2026-05-02T11:16:44.002Z</time></trkpt><trkpt lat="44.12969603333644" lon="11.518411143755173"><ele>593.0</ele><time>2026-05-02T11:16:45.002Z</time></trkpt><trkpt lat="44.12972654371532" lon="11.518291668604917"><ele>591.6666666666666</ele><time>2026-05-02T11:16:46.002Z</time></trkpt><trkpt lat="44.12974219378283" lon="11.518179959461458"><ele>590.3333333333333</ele><time>2026-05-02T11:16:47.002Z</time></trkpt><trkpt lat="44.129722484432875" lon="11.51807931913512"><ele>589.0</ele><time>2026-05-02T11:16:48.002Z</time></trkpt><trkpt lat="44.12966450383876" lon="11.518008996318162"><ele>587.6666666666666</ele><time>2026-05-02T11:16:49.002Z</time></trkpt><trkpt lat="44.1295823692895" lon="11.51798721458779"><ele>586.3333333333334</ele><time>2026-05-02T11:16:50.002Z</time></trkpt><trkpt lat="44.12949568254279" lon="11.517981383692483"><ele>585.0</ele><time>2026-05-02T11:16:51.002Z</time></trkpt><trkpt lat="44.12940238800662" lon="11.517962348142698"><ele>585.0</ele><time>2026-05-02T11:16:52.002Z</time></trkpt><trkpt lat="44.12930559102996" lon="11.517923860083714"><ele>585.0</ele><time>2026-05-02T11:16:53.003Z</time></trkpt><trkpt lat="44.129203870029166" lon="11.51787730637575"><ele>585.0</ele><time>2026-05-02T11:16:54.003Z</time></trkpt><trkpt lat="44.129097337473304" lon="11.51783441915348"><ele>585.0</ele><time>2026-05-02T11:16:55.003Z</time></trkpt><trkpt lat="44.12899107651923" lon="11.51778095661463"><ele>585.0</ele><time>2026-05-02T11:16:56.003Z</time></trkpt><trkpt lat="44.12888643908411" lon="11.517725191254833"><ele>583.1666666666666</ele><time>2026-05-02T11:16:57.003Z</time></trkpt><trkpt lat="44.128796695194325" lon="11.517669703008213"><ele>581.3333333333334</ele><time>2026-05-02T11:16:58.003Z</time></trkpt><trkpt lat="44.12872525873806" lon="11.517606902302038"><ele>579.5</ele><time>2026-05-02T11:16:59.003Z</time></trkpt><trkpt lat="44.12867582054981" lon="11.51753291734744"><ele>577.6666666666667</ele><time>2026-05-02T11:17:00.003Z</time></trkpt><trkpt lat="44.12864787914355" lon="11.517449079084985"><ele>575.8333333333334</ele><time>2026-05-02T11:17:01.003Z</time></trkpt><trkpt lat="44.128648461319045" lon="11.517356443395329"><ele>574.0</ele><time>2026-05-02T11:17:02.003Z</time></trkpt><trkpt lat="44.128684201956034" lon="11.51727426332791"><ele>574.0</ele><time>2026-05-02T11:17:03.003Z</time></trkpt><trkpt lat="44.12875228127053" lon="11.517203431178748"><ele>574.0</ele><time>2026-05-02T11:17:04.003Z</time></trkpt><trkpt lat="44.12882796314486" lon="11.517127225321138"><ele>574.0</ele><time>2026-05-02T11:17:05.003Z</time></trkpt><trkpt lat="44.12890143856776" lon="11.51703175863052"><ele>574.0</ele><time>2026-05-02T11:17:06.003Z</time></trkpt><trkpt lat="44.12897299869539" lon="11.516918437489116"><ele>574.0</ele><time>2026-05-02T11:17:07.003Z</time></trkpt><trkpt lat="44.12904034965984" lon="11.516791391626503"><ele>582.25</ele><time>2026-05-02T11:17:08.003Z</time></trkpt><trkpt lat="44.12909953596222" lon="11.516655273194106"><ele>590.5</ele><time>2026-05-02T11:17:09.003Z</time></trkpt><trkpt lat="44.12914827079845" lon="11.516508658275288"><ele>598.75</ele><time>2026-05-02T11:17:10.003Z</time></trkpt><trkpt lat="44.12917189798577" lon="11.516346567390823"><ele>607.0</ele><time>2026-05-02T11:17:11.003Z</time></trkpt><trkpt lat="44.12917188084466" lon="11.516181095602851"><ele>607.0</ele><time>2026-05-02T11:17:12.003Z</time></trkpt><trkpt lat="44.129162534788314" lon="11.516012184878097"><ele>607.0</ele><time>2026-05-02T11:17:13.003Z</time></trkpt><trkpt lat="44.12915484377809" lon="11.515849571175774"><ele>607.0</ele><time>2026-05-02T11:17:14.003Z</time></trkpt><trkpt lat="44.12915973320195" lon="11.515716311602944"><ele>607.0</ele><time>2026-05-02T11:17:15.003Z</time></trkpt><trkpt lat="44.12918257850502" lon="11.51558656557989"><ele>607.0</ele><time>2026-05-02T11:17:16.003Z</time></trkpt><trkpt lat="44.129231216930734" lon="11.515463577781725"><ele>607.5</ele><time>2026-05-02T11:17:17.003Z</time></trkpt><trkpt lat="44.1292974628007" lon="11.515342459151995"><ele>608.0</ele><time>2026-05-02T11:17:18.003Z</time></trkpt><trkpt lat="44.129364514373556" lon="11.515217888129357"><ele>608.5</ele><time>2026-05-02T11:17:19.003Z</time></trkpt><trkpt lat="44.129429708032184" lon="11.515086729571196"><ele>609.0</ele><time>2026-05-02T11:17:20.003Z</time></trkpt><trkpt lat="44.12948174579995" lon="11.51494286092881"><ele>609.0</ele><time>2026-05-02T11:17:20.999Z</time></trkpt><trkpt lat="44.12949927419846" lon="11.514794918861847"><ele>609.0</ele><time>2026-05-02T11:17:21.999Z</time></trkpt><trkpt lat="44.12948252728133" lon="11.514652729448782"><ele>609.0</ele><time>2026-05-02T11:17:22.999Z</time></trkpt><trkpt lat="44.129440682890596" lon="11.51453610445813"><ele>609.0</ele><time>2026-05-02T11:17:23.999Z</time></trkpt><trkpt lat="44.12937217218257" lon="11.514442922493725"><ele>609.0</ele><time>2026-05-02T11:17:24.999Z</time></trkpt><trkpt lat="44.12927332694169" lon="11.514384386295168"><ele>607.0</ele><time>2026-05-02T11:17:25.999Z</time></trkpt><trkpt lat="44.12916380720581" lon="11.51435632836051"><ele>605.0</ele><time>2026-05-02T11:17:26.999Z</time></trkpt><trkpt lat="44.12905110753313" lon="11.514331449911944"><ele>603.0</ele><time>2026-05-02T11:17:27.999Z</time></trkpt><trkpt lat="44.12894785382081" lon="11.514301303718248"><ele>601.0</ele><time>2026-05-02T11:17:28.999Z</time></trkpt><trkpt lat="44.128861208751005" lon="11.51426187600932"><ele>599.0</ele><time>2026-05-02T11:17:29.999Z</time></trkpt><trkpt lat="44.12878954276007" lon="11.51421084225362"><ele>599.0</ele><time>2026-05-02T11:17:30.999Z</time></trkpt><trkpt lat="44.12874070420387" lon="11.514133786256957"><ele>599.0</ele><time>2026-05-02T11:17:31.999Z</time></trkpt><trkpt lat="44.12872484533054" lon="11.51402880790902"><ele>599.0</ele><time>2026-05-02T11:17:32.999Z</time></trkpt><trkpt lat="44.12874965332785" lon="11.513920861973453"><ele>599.0</ele><time>2026-05-02T11:17:33.999Z</time></trkpt><trkpt lat="44.12880227449322" lon="11.513828382181751"><ele>599.0</ele><time>2026-05-02T11:17:34.999Z</time></trkpt><trkpt lat="44.12883638598651" lon="11.513725473792475"><ele>599.0</ele><time>2026-05-02T11:17:36Z</time></trkpt><trkpt lat="44.1288265592268" lon="11.513611359055664"><ele>599.5</ele><time>2026-05-02T11:17:37Z</time></trkpt><trkpt lat="44.128775441799306" lon="11.513512114491359"><ele>600.0</ele><time>2026-05-02T11:17:38Z</time></trkpt><trkpt lat="44.12872504614147" lon="11.513424387803115"><ele>600.5</ele><time>2026-05-02T11:17:39Z</time></trkpt><trkpt lat="44.12870494999445" lon="11.51331361713191"><ele>601.0</ele><time>2026-05-02T11:17:40Z</time></trkpt><trkpt lat="44.128721670907176" lon="11.513193636627028"><ele>601.5</ele><time>2026-05-02T11:17:41Z</time></trkpt><trkpt lat="44.12876486641017" lon="11.51308296048824"><ele>602.0</ele><time>2026-05-02T11:17:42Z</time></trkpt><trkpt lat="44.1288225159741" lon="11.512981279060153"><ele>600.8000000000001</ele><time>2026-05-02T11:17:43Z</time></trkpt><trkpt lat="44.12888195814625" lon="11.51287624783135"><ele>599.6</ele><time>2026-05-02T11:17:44Z</time></trkpt><trkpt lat="44.12894650010585" lon="11.51277243279285"><ele>598.4000000000001</ele><time>2026-05-02T11:17:45Z</time></trkpt><trkpt lat="44.12901857330904" lon="11.512679804611864"><ele>597.2</ele><time>2026-05-02T11:17:46Z</time></trkpt><trkpt lat="44.12910064178099" lon="11.512604515335784"><ele>596.0</ele><time>2026-05-02T11:17:47Z</time></trkpt><trkpt lat="44.129188297311934" lon="11.512548207413104"><ele>601.6</ele><time>2026-05-02T11:17:48Z</time></trkpt><trkpt lat="44.129269706273824" lon="11.512508332365295"><ele>607.2</ele><time>2026-05-02T11:17:49Z</time></trkpt><trkpt lat="44.129358655675986" lon="11.512470145069287"><ele>612.8</ele><time>2026-05-02T11:17:50Z</time></trkpt><trkpt lat="44.129454427540374" lon="11.512439387436329"><ele>618.4</ele><time>2026-05-02T11:17:51Z</time></trkpt><trkpt lat="44.12955431113635" lon="11.51241157682026"><ele>624.0</ele><time>2026-05-02T11:17:52Z</time></trkpt><trkpt lat="44.12965625837826" lon="11.512367011201425"><ele>624.0</ele><time>2026-05-02T11:17:53Z</time></trkpt><trkpt lat="44.129756849695795" lon="11.512294045208916"><ele>624.0</ele><time>2026-05-02T11:17:54Z</time></trkpt><trkpt lat="44.129851089852046" lon="11.512205189901353"><ele>624.0</ele><time>2026-05-02T11:17:55.001Z</time></trkpt><trkpt lat="44.129944987474836" lon="11.512111075367551"><ele>624.0</ele><time>2026-05-02T11:17:56.001Z</time></trkpt><trkpt lat="44.13004094807564" lon="11.51201492671899"><ele>626.25</ele><time>2026-05-02T11:17:57.001Z</time></trkpt><trkpt lat="44.130135366010244" lon="11.511909926679458"><ele>628.5</ele><time>2026-05-02T11:17:58.001Z</time></trkpt><trkpt lat="44.130225476034255" lon="11.511801993729646"><ele>630.75</ele><time>2026-05-02T11:17:59.001Z</time></trkpt><trkpt lat="44.13031377885335" lon="11.511687073317532"><ele>633.0</ele><time>2026-05-02T11:18:00.001Z</time></trkpt><trkpt lat="44.13039663472453" lon="11.511556790854504"><ele>633.0</ele><time>2026-05-02T11:18:01.001Z</time></trkpt><trkpt lat="44.130472242282636" lon="11.511413262283344"><ele>633.0</ele><time>2026-05-02T11:18:02.001Z</time></trkpt><trkpt lat="44.130536222395534" lon="11.511256990028041"><ele>633.0</ele><time>2026-05-02T11:18:03.001Z</time></trkpt><trkpt lat="44.13060299346771" lon="11.511098459240122"><ele>633.0</ele><time>2026-05-02T11:18:04.001Z</time></trkpt><trkpt lat="44.13068192970391" lon="11.51095015446302"><ele>637.75</ele><time>2026-05-02T11:18:05.001Z</time></trkpt><trkpt lat="44.13076450856624" lon="11.51080361563119"><ele>642.5</ele><time>2026-05-02T11:18:06.001Z</time></trkpt><trkpt lat="44.130843562686636" lon="11.510660051037034"><ele>647.25</ele><time>2026-05-02T11:18:07.001Z</time></trkpt><trkpt lat="44.130915865506175" lon="11.510526348941294"><ele>652.0</ele><time>2026-05-02T11:18:08.001Z</time></trkpt><trkpt lat="44.13097942799889" lon="11.510408979709053"><ele>649.1666666666667</ele><time>2026-05-02T11:18:09.001Z</time></trkpt><trkpt lat="44.13103650518509" lon="11.5103107224271"><ele>646.3333333333334</ele><time>2026-05-02T11:18:10.001Z</time></trkpt><trkpt lat="44.131093006405635" lon="11.510243108369279"><ele>643.5</ele><time>2026-05-02T11:18:11.001Z</time></trkpt><trkpt lat="44.13115727352817" lon="11.51021085507971"><ele>640.6666666666666</ele><time>2026-05-02T11:18:12.001Z</time></trkpt><trkpt lat="44.131236840048956" lon="11.510199775910747"><ele>637.8333333333333</ele><time>2026-05-02T11:18:13.001Z</time></trkpt><trkpt lat="44.13132172180782" lon="11.510202442134945"><ele>635.0</ele><time>2026-05-02T11:18:14.001Z</time></trkpt><trkpt lat="44.13141373184424" lon="11.510220770650685"><ele>635.0</ele><time>2026-05-02T11:18:15.001Z</time></trkpt><trkpt lat="44.131508467547036" lon="11.510213580225644"><ele>635.0</ele><time>2026-05-02T11:18:16.001Z</time></trkpt><trkpt lat="44.13160393967581" lon="11.5101643035978"><ele>635.0</ele><time>2026-05-02T11:18:17.001Z</time></trkpt><trkpt lat="44.131690294404414" lon="11.510067363797408"><ele>635.0</ele><time>2026-05-02T11:18:18.001Z</time></trkpt><trkpt lat="44.13176870832685" lon="11.509954983576348"><ele>635.0</ele><time>2026-05-02T11:18:19.001Z</time></trkpt><trkpt lat="44.13183767907296" lon="11.509832253614498"><ele>639.8</ele><time>2026-05-02T11:18:20.001Z</time></trkpt><trkpt lat="44.1318997495173" lon="11.509723441429223"><ele>644.6</ele><time>2026-05-02T11:18:21.001Z</time></trkpt><trkpt lat="44.13197134359122" lon="11.509639929501526"><ele>649.4000000000001</ele><time>2026-05-02T11:18:22.001Z</time></trkpt><trkpt lat="44.1320580088797" lon="11.509591934211493"><ele>654.2</ele><time>2026-05-02T11:18:23.002Z</time></trkpt><trkpt lat="44.13215331530049" lon="11.509585882335061"><ele>659.0</ele><time>2026-05-02T11:18:24.002Z</time></trkpt><trkpt lat="44.13225123092335" lon="11.509591473533384"><ele>659.0</ele><time>2026-05-02T11:18:25.002Z</time></trkpt><trkpt lat="44.13234904891028" lon="11.509603620912927"><ele>659.0</ele><time>2026-05-02T11:18:26.002Z</time></trkpt><trkpt lat="44.13244386818806" lon="11.509646947776464"><ele>659.0</ele><time>2026-05-02T11:18:27.002Z</time></trkpt><trkpt lat="44.132524362416575" lon="11.509723054368003"><ele>659.0</ele><time>2026-05-02T11:18:28.002Z</time></trkpt><trkpt lat="44.132603272251615" lon="11.509820281136935"><ele>659.0</ele><time>2026-05-02T11:18:29.002Z</time></trkpt><trkpt lat="44.13269422179228" lon="11.509905437980404"><ele>662.0</ele><time>2026-05-02T11:18:30.002Z</time></trkpt><trkpt lat="44.13279026382891" lon="11.509975127972316"><ele>665.0</ele><time>2026-05-02T11:18:31.002Z</time></trkpt><trkpt lat="44.13287557616073" lon="11.510048545121407"><ele>668.0</ele><time>2026-05-02T11:18:32.002Z</time></trkpt><trkpt lat="44.13293956600627" lon="11.510147456770174"><ele>671.0</ele><time>2026-05-02T11:18:33.002Z</time></trkpt><trkpt lat="44.13297937534131" lon="11.510265065087259"><ele>674.0</ele><time>2026-05-02T11:18:34.002Z</time></trkpt><trkpt lat="44.13301828136891" lon="11.510380898238866"><ele>677.4000000000001</ele><time>2026-05-02T11:18:35.002Z</time></trkpt><trkpt lat="44.13307863924903" lon="11.510478625991682"><ele>680.8</ele><time>2026-05-02T11:18:36.002Z</time></trkpt><trkpt lat="44.133160522176674" lon="11.510556550423653"><ele>684.2</ele><time>2026-05-02T11:18:37.002Z</time></trkpt><trkpt lat="44.133262399789125" lon="11.510602143960647"><ele>687.5999999999999</ele><time>2026-05-02T11:18:38.002Z</time></trkpt><trkpt lat="44.133369693213766" lon="11.51064092233935"><ele>691.0</ele><time>2026-05-02T11:18:39.002Z</time></trkpt><trkpt lat="44.13347290197221" lon="11.510703114107699"><ele>691.0</ele><time>2026-05-02T11:18:40.002Z</time></trkpt><trkpt lat="44.13357275228103" lon="11.510796610146617"><ele>691.0</ele><time>2026-05-02T11:18:41.002Z</time></trkpt><trkpt lat="44.133671469161406" lon="11.510889285334114"><ele>691.0</ele><time>2026-05-02T11:18:42.002Z</time></trkpt><trkpt lat="44.1337644755556" lon="11.510979794809307"><ele>691.0</ele><time>2026-05-02T11:18:43.002Z</time></trkpt><trkpt lat="44.133839427825386" lon="11.51105363337898"><ele>691.0</ele><time>2026-05-02T11:18:44.002Z</time></trkpt><trkpt lat="44.13391653357808" lon="11.511097311331529"><ele>691.0</ele><time>2026-05-02T11:18:45.002Z</time></trkpt><trkpt lat="44.13400817521511" lon="11.511096112569904"><ele>691.0</ele><time>2026-05-02T11:18:46.002Z</time></trkpt><trkpt lat="44.13409875954908" lon="11.511032812926603"><ele>691.0</ele><time>2026-05-02T11:18:47.002Z</time></trkpt><trkpt lat="44.13417960247852" lon="11.510938801870555"><ele>691.0</ele><time>2026-05-02T11:18:48.002Z</time></trkpt><trkpt lat="44.134265503665304" lon="11.510843122017052"><ele>691.0</ele><time>2026-05-02T11:18:49.002Z</time></trkpt><trkpt lat="44.13435736606019" lon="11.510740444359934"><ele>690.0</ele><time>2026-05-02T11:18:50.002Z</time></trkpt><trkpt lat="44.13444581690034" lon="11.510620970542483"><ele>689.0</ele><time>2026-05-02T11:18:51.002Z</time></trkpt><trkpt lat="44.13451688266456" lon="11.51048118458896"><ele>688.0</ele><time>2026-05-02T11:18:52.002Z</time></trkpt><trkpt lat="44.13458208288394" lon="11.51033986116375"><ele>687.0</ele><time>2026-05-02T11:18:53.002Z</time></trkpt><trkpt lat="44.13465135843622" lon="11.510216233970219"><ele>687.0</ele><time>2026-05-02T11:18:54.002Z</time></trkpt><trkpt lat="44.13473216704418" lon="11.510114574789048"><ele>687.0</ele><time>2026-05-02T11:18:55.002Z</time></trkpt><trkpt lat="44.13482673728466" lon="11.510029457409745"><ele>687.0</ele><time>2026-05-02T11:18:56.003Z</time></trkpt><trkpt lat="44.13493372429225" lon="11.509956939829515"><ele>687.0</ele><time>2026-05-02T11:18:57.003Z</time></trkpt><trkpt lat="44.13504781486653" lon="11.50988958342156"><ele>687.0</ele><time>2026-05-02T11:18:58.003Z</time></trkpt><trkpt lat="44.135159320182815" lon="11.509814542600786"><ele>687.0</ele><time>2026-05-02T11:18:59.003Z</time></trkpt><trkpt lat="44.13525717715267" lon="11.509737056649925"><ele>687.0</ele><time>2026-05-02T11:19:00.003Z</time></trkpt><trkpt lat="44.135341445697804" lon="11.5096749073642"><ele>687.0</ele><time>2026-05-02T11:19:01.003Z</time></trkpt><trkpt lat="44.135423433741025" lon="11.509632595428426"><ele>687.0</ele><time>2026-05-02T11:19:02.003Z</time></trkpt><trkpt lat="44.135507879525264" lon="11.50961657685268"><ele>687.0</ele><time>2026-05-02T11:19:03.003Z</time></trkpt><trkpt lat="44.135594049959366" lon="11.509636323871206"><ele>687.0</ele><time>2026-05-02T11:19:04.003Z</time></trkpt><trkpt lat="44.13568334367684" lon="11.509688726722377"><ele>687.0</ele><time>2026-05-02T11:19:05.003Z</time></trkpt><trkpt lat="44.135770727325" lon="11.509751324051814"><ele>687.0</ele><time>2026-05-02T11:19:06.003Z</time></trkpt><trkpt lat="44.13585682066661" lon="11.509813504153202"><ele>687.0</ele><time>2026-05-02T11:19:07.003Z</time></trkpt><trkpt lat="44.13593526192611" lon="11.509871292976007"><ele>689.2</ele><time>2026-05-02T11:19:08.003Z</time></trkpt><trkpt lat="44.13599801773214" lon="11.509941396804068"><ele>691.4000000000001</ele><time>2026-05-02T11:19:09.003Z</time></trkpt><trkpt lat="44.136043598074856" lon="11.510040863728006"><ele>693.5999999999999</ele><time>2026-05-02T11:19:10.003Z</time></trkpt><trkpt lat="44.13608516440514" lon="11.51016515485334"><ele>695.8</ele><time>2026-05-02T11:19:11.003Z</time></trkpt><trkpt lat="44.1361420303799" lon="11.51029499860552"><ele>698.0</ele><time>2026-05-02T11:19:12.003Z</time></trkpt><trkpt lat="44.13622402769318" lon="11.510420935330519"><ele>700.0</ele><time>2026-05-02T11:19:13.003Z</time></trkpt><trkpt lat="44.1363217994104" lon="11.51054367302949"><ele>702.0</ele><time>2026-05-02T11:19:14.003Z</time></trkpt><trkpt lat="44.13642470164549" lon="11.51067113422293"><ele>704.0</ele><time>2026-05-02T11:19:15.003Z</time></trkpt><trkpt lat="44.136522351391385" lon="11.510803069580499"><ele>706.0</ele><time>2026-05-02T11:19:16.003Z</time></trkpt><trkpt lat="44.13661759393091" lon="11.510922944147575"><ele>706.0</ele><time>2026-05-02T11:19:17.003Z</time></trkpt><trkpt lat="44.136711533589306" lon="11.511028751053365"><ele>706.0</ele><time>2026-05-02T11:19:18.003Z</time></trkpt><trkpt lat="44.13680357977521" lon="11.51113592669793"><ele>706.0</ele><time>2026-05-02T11:19:19.003Z</time></trkpt><trkpt lat="44.13688770434729" lon="11.51125076857269"><ele>706.0</ele><time>2026-05-02T11:19:20.003Z</time></trkpt><trkpt lat="44.13696141002419" lon="11.511379185336187"><ele>709.8</ele><time>2026-05-02T11:19:21.003Z</time></trkpt><trkpt lat="44.13702157248468" lon="11.511505112945065"><ele>713.5999999999999</ele><time>2026-05-02T11:19:22.003Z</time></trkpt><trkpt lat="44.137082054353776" lon="11.511630211590637"><ele>717.4</ele><time>2026-05-02T11:19:23.003Z</time></trkpt><trkpt lat="44.1371437951618" lon="11.511759646475648"><ele>721.2</ele><time>2026-05-02T11:19:24.003Z</time></trkpt><trkpt lat="44.137198800218584" lon="11.51189446166637"><ele>725.0</ele><time>2026-05-02T11:19:25.003Z</time></trkpt><trkpt lat="44.13724805700467" lon="11.512036150239307"><ele>723.4</ele><time>2026-05-02T11:19:26.003Z</time></trkpt><trkpt lat="44.13729354564199" lon="11.512181094580951"><ele>721.8</ele><time>2026-05-02T11:19:26.999Z</time></trkpt><trkpt lat="44.137342267007355" lon="11.512327342245023"><ele>720.2</ele><time>2026-05-02T11:19:27.999Z</time></trkpt><trkpt lat="44.13739371374604" lon="11.512467207647836"><ele>718.6</ele><time>2026-05-02T11:19:28.999Z</time></trkpt><trkpt lat="44.13744084184587" lon="11.512590840616761"><ele>717.0</ele><time>2026-05-02T11:19:29.999Z</time></trkpt><trkpt lat="44.13748725963415" lon="11.512720958186865"><ele>717.0</ele><time>2026-05-02T11:19:30.999Z</time></trkpt><trkpt lat="44.13752983507658" lon="11.512858427337289"><ele>717.0</ele><time>2026-05-02T11:19:31.999Z</time></trkpt><trkpt lat="44.137574963954904" lon="11.512985456155953"><ele>717.0</ele><time>2026-05-02T11:19:32.999Z</time></trkpt><trkpt lat="44.137637078717326" lon="11.513095136014318"><ele>717.0</ele><time>2026-05-02T11:19:33.999Z</time></trkpt><trkpt lat="44.13771964728531" lon="11.513178325971161"><ele>717.0</ele><time>2026-05-02T11:19:34.999Z</time></trkpt><trkpt lat="44.13782550569254" lon="11.513211275233202"><ele>717.2</ele><time>2026-05-02T11:19:35.999Z</time></trkpt><trkpt lat="44.13793833512659" lon="11.513205996363503"><ele>717.4000000000001</ele><time>2026-05-02T11:19:36.999Z</time></trkpt><trkpt lat="44.13805259340698" lon="11.513206961881965"><ele>717.5999999999999</ele><time>2026-05-02T11:19:37.999Z</time></trkpt><trkpt lat="44.138155833590325" lon="11.513235548842728"><ele>717.8</ele><time>2026-05-02T11:19:38.999Z</time></trkpt><trkpt lat="44.138233116183926" lon="11.513296027241696"><ele>718.0</ele><time>2026-05-02T11:19:39.999Z</time></trkpt><trkpt lat="44.13828165934164" lon="11.513388665838681"><ele>718.0</ele><time>2026-05-02T11:19:41Z</time></trkpt><trkpt lat="44.13831271135786" lon="11.513500579048966"><ele>718.0</ele><time>2026-05-02T11:19:42Z</time></trkpt><trkpt lat="44.13832818203073" lon="11.513641004685939"><ele>718.0</ele><time>2026-05-02T11:19:43Z</time></trkpt><trkpt lat="44.13834535425016" lon="11.513796820199074"><ele>718.0</ele><time>2026-05-02T11:19:44Z</time></trkpt><trkpt lat="44.13836495313741" lon="11.513958699550196"><ele>718.0</ele><time>2026-05-02T11:19:45Z</time></trkpt><trkpt lat="44.13839763277716" lon="11.5141217192823"><ele>722.75</ele><time>2026-05-02T11:19:46Z</time></trkpt><trkpt lat="44.138457989895876" lon="11.514267200539587"><ele>727.5</ele><time>2026-05-02T11:19:47Z</time></trkpt><trkpt lat="44.1385402414021" lon="11.514383931320104"><ele>732.25</ele><time>2026-05-02T11:19:48Z</time></trkpt><trkpt lat="44.13863373061506" lon="11.514485049078278"><ele>737.0</ele><time>2026-05-02T11:19:49Z</time></trkpt><trkpt lat="44.13872595874618" lon="11.514574347998687"><ele>737.0</ele><time>2026-05-02T11:19:50Z</time></trkpt><trkpt lat="44.13882835940768" lon="11.514600849829364"><ele>737.0</ele><time>2026-05-02T11:19:51Z</time></trkpt><trkpt lat="44.13892711985208" lon="11.51459031347309"><ele>737.0</ele><time>2026-05-02T11:19:52Z</time></trkpt><trkpt lat="44.13901640871171" lon="11.514542515177155"><ele>737.0</ele><time>2026-05-02T11:19:53Z</time></trkpt><trkpt lat="44.13908823313691" lon="11.51444711277577"><ele>737.0</ele><time>2026-05-02T11:19:54Z</time></trkpt><trkpt lat="44.13913749118437" lon="11.514319987570353"><ele>737.0</ele><time>2026-05-02T11:19:55Z</time></trkpt><trkpt lat="44.139160451663095" lon="11.514169617690527"><ele>737.0</ele><time>2026-05-02T11:19:56Z</time></trkpt><trkpt lat="44.13915915872736" lon="11.514008540239438"><ele>737.0</ele><time>2026-05-02T11:19:57Z</time></trkpt><trkpt lat="44.139141795073606" lon="11.513840451804663"><ele>737.0</ele><time>2026-05-02T11:19:58Z</time></trkpt><trkpt lat="44.13912496670307" lon="11.513662976087865"><ele>737.0</ele><time>2026-05-02T11:19:59Z</time></trkpt><trkpt lat="44.1390977595728" lon="11.513479474489833"><ele>737.0</ele><time>2026-05-02T11:20:00Z</time></trkpt><trkpt lat="44.13907168544586" lon="11.513292022582759"><ele>737.0</ele><time>2026-05-02T11:20:01Z</time></trkpt><trkpt lat="44.13906416792129" lon="11.513123726366505"><ele>737.0</ele><time>2026-05-02T11:20:02.001Z</time></trkpt><trkpt lat="44.13906279472598" lon="11.512976563158615"><ele>735.8</ele><time>2026-05-02T11:20:03.001Z</time></trkpt><trkpt lat="44.139067706071195" lon="11.512848840535547"><ele>734.6</ele><time>2026-05-02T11:20:04.001Z</time></trkpt><trkpt lat="44.13908817373347" lon="11.512728211567145"><ele>733.4</ele><time>2026-05-02T11:20:05.001Z</time></trkpt><trkpt lat="44.139140038435656" lon="11.512620507096344"><ele>732.1999999999999</ele><time>2026-05-02T11:20:06.001Z</time></trkpt><trkpt lat="44.1392169680953" lon="11.512531468974606"><ele>731.0</ele><time>2026-05-02T11:20:07.001Z</time></trkpt><trkpt lat="44.13930991144933" lon="11.512454773206152"><ele>731.0</ele><time>2026-05-02T11:20:08.001Z</time></trkpt><trkpt lat="44.13940245237622" lon="11.512357499627159"><ele>731.0</ele><time>2026-05-02T11:20:09.001Z</time></trkpt><trkpt lat="44.139489366999754" lon="11.512241491578271"><ele>731.0</ele><time>2026-05-02T11:20:10.001Z</time></trkpt><trkpt lat="44.1395783917936" lon="11.512122963355099"><ele>731.0</ele><time>2026-05-02T11:20:11.001Z</time></trkpt><trkpt lat="44.13967326873123" lon="11.512026723447141"><ele>733.0</ele><time>2026-05-02T11:20:12.001Z</time></trkpt><trkpt lat="44.13977073321269" lon="11.51197295220962"><ele>735.0</ele><time>2026-05-02T11:20:13.001Z</time></trkpt><trkpt lat="44.139860139060694" lon="11.511964465979935"><ele>737.0</ele><time>2026-05-02T11:20:14.001Z</time></trkpt><trkpt lat="44.13993474143331" lon="11.511979481383847"><ele>739.0</ele><time>2026-05-02T11:20:15.001Z</time></trkpt><trkpt lat="44.14000141703988" lon="11.511955785575509"><ele>741.0</ele><time>2026-05-02T11:20:16.001Z</time></trkpt><trkpt lat="44.140046685002915" lon="11.511873929148688"><ele>743.0</ele><time>2026-05-02T11:20:17.001Z</time></trkpt><trkpt lat="44.1400500230909" lon="11.511762328252889"><ele>743.0</ele><time>2026-05-02T11:20:18.001Z</time></trkpt><trkpt lat="44.14000196144448" lon="11.511656697877399"><ele>743.0</ele><time>2026-05-02T11:20:19.001Z</time></trkpt><trkpt lat="44.139935155720444" lon="11.511600140562825"><ele>743.0</ele><time>2026-05-02T11:20:20.001Z</time></trkpt><trkpt lat="44.13984272129107" lon="11.511561087092067"><ele>743.0</ele><time>2026-05-02T11:20:21.001Z</time></trkpt><trkpt lat="44.13973933322372" lon="11.511530493106466"><ele>743.0</ele><time>2026-05-02T11:20:22.001Z</time></trkpt><trkpt lat="44.139626836508576" lon="11.51150259679261"><ele>743.0</ele><time>2026-05-02T11:20:23.001Z</time></trkpt><trkpt lat="44.139506324746506" lon="11.511486914053815"><ele>743.0</ele><time>2026-05-02T11:20:24.001Z</time></trkpt><trkpt lat="44.13938155723712" lon="11.511493705302673"><ele>743.0</ele><time>2026-05-02T11:20:25.001Z</time></trkpt><trkpt lat="44.139256445966076" lon="11.511498081095349"><ele>743.0</ele><time>2026-05-02T11:20:26.001Z</time></trkpt><trkpt lat="44.139149678119175" lon="11.511467327121801"><ele>743.0</ele><time>2026-05-02T11:20:27.001Z</time></trkpt><trkpt lat="44.13906719029857" lon="11.511417838154735"><ele>743.0</ele><time>2026-05-02T11:20:28.001Z</time></trkpt><trkpt lat="44.13900856777834" lon="11.511352801702072"><ele>743.0</ele><time>2026-05-02T11:20:29.001Z</time></trkpt><trkpt lat="44.13897355814619" lon="11.51125526510622"><ele>743.0</ele><time>2026-05-02T11:20:30.001Z</time></trkpt><trkpt lat="44.138958451060844" lon="11.511137750029118"><ele>743.0</ele><time>2026-05-02T11:20:31.001Z</time></trkpt><trkpt lat="44.138935929989486" lon="11.511005176427707"><ele>743.0</ele><time>2026-05-02T11:20:32.002Z</time></trkpt><trkpt lat="44.13890272484078" lon="11.510861392530753"><ele>739.5999999999999</ele><time>2026-05-02T11:20:33.002Z</time></trkpt><trkpt lat="44.13886623258567" lon="11.510723491601185"><ele>736.1999999999999</ele><time>2026-05-02T11:20:34.002Z</time></trkpt><trkpt lat="44.1388380517312" lon="11.510590877361167"><ele>732.8</ele><time>2026-05-02T11:20:35.002Z</time></trkpt><trkpt lat="44.138839486253595" lon="11.510458994607273"><ele>729.4</ele><time>2026-05-02T11:20:36.002Z</time></trkpt><trkpt lat="44.13887603440836" lon="11.510336293694861"><ele>726.0</ele><time>2026-05-02T11:20:37.002Z</time></trkpt><trkpt lat="44.138940698386364" lon="11.510223593487522"><ele>726.0</ele><time>2026-05-02T11:20:38.002Z</time></trkpt><trkpt lat="44.13901884219399" lon="11.510115150320766"><ele>726.0</ele><time>2026-05-02T11:20:39.002Z</time></trkpt><trkpt lat="44.139090234905204" lon="11.509990351657471"><ele>726.0</ele><time>2026-05-02T11:20:40.002Z</time></trkpt><trkpt lat="44.139148573425274" lon="11.509839897180306"><ele>726.0</ele><time>2026-05-02T11:20:41.002Z</time></trkpt><trkpt lat="44.13920216276433" lon="11.509684933493366"><ele>731.4</ele><time>2026-05-02T11:20:42.002Z</time></trkpt><trkpt lat="44.13925014644758" lon="11.509537959752011"><ele>736.8</ele><time>2026-05-02T11:20:43.002Z</time></trkpt><trkpt lat="44.1393006118485" lon="11.509428501668802"><ele>742.1999999999999</ele><time>2026-05-02T11:20:44.002Z</time></trkpt><trkpt lat="44.1393692990808" lon="11.509360880165138"><ele>747.5999999999999</ele><time>2026-05-02T11:20:45.002Z</time></trkpt><trkpt lat="44.13945265321117" lon="11.509298788948517"><ele>753.0</ele><time>2026-05-02T11:20:46.002Z</time></trkpt><trkpt lat="44.13955338242124" lon="11.509263802582382"><ele>753.0</ele><time>2026-05-02T11:20:47.002Z</time></trkpt><trkpt lat="44.13966020218851" lon="11.5092488845789"><ele>753.0</ele><time>2026-05-02T11:20:48.002Z</time></trkpt><trkpt lat="44.13977134267364" lon="11.50923049276664"><ele>753.0</ele><time>2026-05-02T11:20:49.002Z</time></trkpt><trkpt lat="44.13987940480683" lon="11.509197380388276"><ele>753.0</ele><time>2026-05-02T11:20:50.002Z</time></trkpt><trkpt lat="44.139979732496165" lon="11.50912349107463"><ele>753.0</ele><time>2026-05-02T11:20:51.002Z</time></trkpt><trkpt lat="44.14006449306032" lon="11.509006301366925"><ele>753.0</ele><time>2026-05-02T11:20:52.002Z</time></trkpt><trkpt lat="44.14014951758921" lon="11.5088905493592"><ele>753.0</ele><time>2026-05-02T11:20:53.002Z</time></trkpt><trkpt lat="44.14025279417715" lon="11.50880697517947"><ele>753.0</ele><time>2026-05-02T11:20:54.002Z</time></trkpt><trkpt lat="44.1403591628415" lon="11.508750734116935"><ele>753.0</ele><time>2026-05-02T11:20:55.002Z</time></trkpt><trkpt lat="44.140456033436855" lon="11.508732863502923"><ele>757.0</ele><time>2026-05-02T11:20:56.002Z</time></trkpt><trkpt lat="44.14054265312295" lon="11.508747839485467"><ele>761.0</ele><time>2026-05-02T11:20:57.002Z</time></trkpt><trkpt lat="44.14061644008842" lon="11.508797082833166"><ele>765.0</ele><time>2026-05-02T11:20:58.002Z</time></trkpt><trkpt lat="44.14066307591116" lon="11.508874687137595"><ele>769.0</ele><time>2026-05-02T11:20:59.002Z</time></trkpt><trkpt lat="44.140675461371345" lon="11.50896432131689"><ele>773.0</ele><time>2026-05-02T11:21:00.002Z</time></trkpt><trkpt lat="44.14064659777296" lon="11.50905441725756"><ele>777.0</ele><time>2026-05-02T11:21:01.002Z</time></trkpt><trkpt lat="44.14058160101904" lon="11.509123851351145"><ele>777.0</ele><time>2026-05-02T11:21:02.002Z</time></trkpt><trkpt lat="44.140502246180276" lon="11.509167516974681"><ele>777.0</ele><time>2026-05-02T11:21:03.002Z</time></trkpt><trkpt lat="44.14041043128699" lon="11.509171594819735"><ele>777.0</ele><time>2026-05-02T11:21:04.002Z</time></trkpt><trkpt lat="44.14031646946011" lon="11.509159308243284"><ele>777.0</ele><time>2026-05-02T11:21:05.003Z</time></trkpt><trkpt lat="44.140228230886976" lon="11.509185182371391"><ele>777.0</ele><time>2026-05-02T11:21:06.003Z</time></trkpt><trkpt lat="44.14016904117354" lon="11.509262895535482"><ele>777.0</ele><time>2026-05-02T11:21:07.003Z</time></trkpt><trkpt lat="44.1401509120154" lon="11.509370264219946"><ele>777.0</ele><time>2026-05-02T11:21:08.003Z</time></trkpt><trkpt lat="44.14017706403213" lon="11.509473980293974"><ele>777.0</ele><time>2026-05-02T11:21:09.003Z</time></trkpt><trkpt lat="44.14023982229871" lon="11.509546067764992"><ele>777.0</ele><time>2026-05-02T11:21:10.003Z</time></trkpt><trkpt lat="44.14032151727313" lon="11.509566612831705"><ele>777.0</ele><time>2026-05-02T11:21:11.003Z</time></trkpt><trkpt lat="44.14040791702565" lon="11.509527349242655"><ele>777.0</ele><time>2026-05-02T11:21:12.003Z</time></trkpt><trkpt lat="44.140495865814536" lon="11.509458956241744"><ele>777.0</ele><time>2026-05-02T11:21:13.003Z</time></trkpt><trkpt lat="44.14059209215663" lon="11.50937291952417"><ele>777.0</ele><time>2026-05-02T11:21:14.003Z</time></trkpt><trkpt lat="44.14069494317867" lon="11.509288336915754"><ele>777.0</ele><time>2026-05-02T11:21:15.003Z</time></trkpt><trkpt lat="44.14080621344676" lon="11.509201080313794"><ele>777.0</ele><time>2026-05-02T11:21:16.003Z</time></trkpt><trkpt lat="44.14091917462126" lon="11.509109085422699"><ele>777.0</ele><time>2026-05-02T11:21:17.003Z</time></trkpt><trkpt lat="44.14102992406694" lon="11.5090211306278"><ele>780.4000000000001</ele><time>2026-05-02T11:21:18.003Z</time></trkpt><trkpt lat="44.1411338845316" lon="11.50894429221462"><ele>783.8000000000001</ele><time>2026-05-02T11:21:19.003Z</time></trkpt><trkpt lat="44.14123955439145" lon="11.508890716393786"><ele>787.2</ele><time>2026-05-02T11:21:20.003Z</time></trkpt><trkpt lat="44.141338745130355" lon="11.50887330380041"><ele>790.6</ele><time>2026-05-02T11:21:21.003Z</time></trkpt><trkpt lat="44.14142779721662" lon="11.508853718910553"><ele>794.0</ele><time>2026-05-02T11:21:22.003Z</time></trkpt><trkpt lat="44.14149511085318" lon="11.508796380592237"><ele>790.6</ele><time>2026-05-02T11:21:23.003Z</time></trkpt><trkpt lat="44.141542760297945" lon="11.508697655838125"><ele>787.2</ele><time>2026-05-02T11:21:24.003Z</time></trkpt><trkpt lat="44.14155009649519" lon="11.508578973810163"><ele>783.8000000000001</ele><time>2026-05-02T11:21:25.003Z</time></trkpt><trkpt lat="44.141524049200314" lon="11.508454507814822"><ele>780.4000000000001</ele><time>2026-05-02T11:21:26.003Z</time></trkpt><trkpt lat="44.141491724905414" lon="11.508323753511014"><ele>777.0</ele><time>2026-05-02T11:21:27.003Z</time></trkpt><trkpt lat="44.14145895312651" lon="11.508185705775276"><ele>777.0</ele><time>2026-05-02T11:21:28.003Z</time></trkpt><trkpt lat="44.14142388403076" lon="11.508041549692251"><ele>777.0</ele><time>2026-05-02T11:21:29.003Z</time></trkpt><trkpt lat="44.14138475240403" lon="11.507898706098983"><ele>777.0</ele><time>2026-05-02T11:21:30.003Z</time></trkpt><trkpt lat="44.14134443292018" lon="11.50775981876575"><ele>777.0</ele><time>2026-05-02T11:21:31.003Z</time></trkpt><trkpt lat="44.14130535238095" lon="11.507628448578215"><ele>777.0</ele><time>2026-05-02T11:21:32.003Z</time></trkpt><trkpt lat="44.14127630816127" lon="11.507490805445022"><ele>778.0</ele><time>2026-05-02T11:21:32.999Z</time></trkpt><trkpt lat="44.141259790611905" lon="11.507344442536823"><ele>779.0</ele><time>2026-05-02T11:21:33.999Z</time></trkpt><trkpt lat="44.14125317694515" lon="11.507194350590684"><ele>780.0</ele><time>2026-05-02T11:21:34.999Z</time></trkpt><trkpt lat="44.14124805178537" lon="11.507045157887633"><ele>781.0</ele><time>2026-05-02T11:21:35.999Z</time></trkpt><trkpt lat="44.141249007962664" lon="11.506897960327352"><ele>782.0</ele><time>2026-05-02T11:21:36.999Z</time></trkpt><trkpt lat="44.141254850850174" lon="11.506764160392995"><ele>783.4000000000001</ele><time>2026-05-02T11:21:37.999Z</time></trkpt><trkpt lat="44.1412808861424" lon="11.506635627269779"><ele>784.8000000000001</ele><time>2026-05-02T11:21:38.999Z</time></trkpt><trkpt lat="44.14133326228129" lon="11.506515241151785"><ele>786.2</ele><time>2026-05-02T11:21:39.999Z</time></trkpt><trkpt lat="44.141405708565664" lon="11.506408332360056"><ele>787.6</ele><time>2026-05-02T11:21:40.999Z</time></trkpt><trkpt lat="44.14149499561633" lon="11.506318328870728"><ele>789.0</ele><time>2026-05-02T11:21:41.999Z</time></trkpt><trkpt lat="44.141597045780166" lon="11.506245832489265"><ele>793.2</ele><time>2026-05-02T11:21:42.999Z</time></trkpt><trkpt lat="44.141705496111264" lon="11.506193134206613"><ele>797.4000000000001</ele><time>2026-05-02T11:21:43.999Z</time></trkpt><trkpt lat="44.14180426808971" lon="11.50616202775057"><ele>801.6</ele><time>2026-05-02T11:21:44.999Z</time></trkpt><trkpt lat="44.14188621605911" lon="11.506123712408838"><ele>805.8</ele><time>2026-05-02T11:21:45.999Z</time></trkpt><trkpt lat="44.14195168818844" lon="11.506051720992549"><ele>810.0</ele><time>2026-05-02T11:21:47Z</time></trkpt><trkpt lat="44.141985891107055" lon="11.505928183277549"><ele>810.0</ele><time>2026-05-02T11:21:48Z</time></trkpt><trkpt lat="44.14198129259261" lon="11.505780536790498"><ele>810.0</ele><time>2026-05-02T11:21:49Z</time></trkpt><trkpt lat="44.14198393323423" lon="11.505631713101284"><ele>810.0</ele><time>2026-05-02T11:21:50Z</time></trkpt><trkpt lat="44.142012836394564" lon="11.505484949298792"><ele>810.0</ele><time>2026-05-02T11:21:51Z</time></trkpt><trkpt lat="44.14207082997493" lon="11.505366488517012"><ele>810.0</ele><time>2026-05-02T11:21:52Z</time></trkpt><trkpt lat="44.14213028778143" lon="11.505258832882978"><ele>810.0</ele><time>2026-05-02T11:21:53Z</time></trkpt><trkpt lat="44.14215202773248" lon="11.50513135204213"><ele>810.0</ele><time>2026-05-02T11:21:54Z</time></trkpt><trkpt lat="44.142128119165044" lon="11.504999026153813"><ele>810.0</ele><time>2026-05-02T11:21:55Z</time></trkpt><trkpt lat="44.14206409438548" lon="11.50489715006126"><ele>810.0</ele><time>2026-05-02T11:21:56Z</time></trkpt><trkpt lat="44.141987838431575" lon="11.504830421018477"><ele>810.0</ele><time>2026-05-02T11:21:57Z</time></trkpt><trkpt lat="44.14193662709639" lon="11.504752924333522"><ele>810.0</ele><time>2026-05-02T11:21:58Z</time></trkpt><trkpt lat="44.14192725697004" lon="11.504648925632633"><ele>810.0</ele><time>2026-05-02T11:21:59Z</time></trkpt><trkpt lat="44.141956801635956" lon="11.504542810249486"><ele>810.0</ele><time>2026-05-02T11:22:00Z</time></trkpt><trkpt lat="44.142012966856065" lon="11.504437345468988"><ele>810.0</ele><time>2026-05-02T11:22:01Z</time></trkpt><trkpt lat="44.142081073943125" lon="11.504340648480834"><ele>810.0</ele><time>2026-05-02T11:22:02Z</time></trkpt><trkpt lat="44.14216202684075" lon="11.504282782453624"><ele>810.0</ele><time>2026-05-02T11:22:03Z</time></trkpt><trkpt lat="44.14224554354" lon="11.50428178002011"><ele>809.0</ele><time>2026-05-02T11:22:04Z</time></trkpt><trkpt lat="44.14232952383448" lon="11.504325722402912"><ele>808.0</ele><time>2026-05-02T11:22:05Z</time></trkpt><trkpt lat="44.14241019090564" lon="11.504366272550623"><ele>807.0</ele><time>2026-05-02T11:22:06Z</time></trkpt><trkpt lat="44.142490936350505" lon="11.50435054758438"><ele>806.0</ele><time>2026-05-02T11:22:07Z</time></trkpt><trkpt lat="44.14256284158112" lon="11.504272987970218"><ele>805.0</ele><time>2026-05-02T11:22:08.001Z</time></trkpt><trkpt lat="44.14260546740892" lon="11.504167515802713"><ele>804.0</ele><time>2026-05-02T11:22:09.001Z</time></trkpt><trkpt lat="44.142607967460705" lon="11.504032003360265"><ele>812.25</ele><time>2026-05-02T11:22:10.001Z</time></trkpt><trkpt lat="44.1425782596079" lon="11.503875015198982"><ele>820.5</ele><time>2026-05-02T11:22:11.001Z</time></trkpt><trkpt lat="44.14254253466932" lon="11.503715062425863"><ele>828.75</ele><time>2026-05-02T11:22:12.001Z</time></trkpt><trkpt lat="44.14252360444457" lon="11.503553726461512"><ele>837.0</ele><time>2026-05-02T11:22:13.001Z</time></trkpt><trkpt lat="44.14252022384639" lon="11.503392763347314"><ele>838.2</ele><time>2026-05-02T11:22:14.001Z</time></trkpt><trkpt lat="44.14251015327994" lon="11.503255871653218"><ele>839.4000000000001</ele><time>2026-05-02T11:22:15.001Z</time></trkpt><trkpt lat="44.14245780164911" lon="11.503130955583584"><ele>840.5999999999999</ele><time>2026-05-02T11:22:16.001Z</time></trkpt><trkpt lat="44.14237346273286" lon="11.503037825491477"><ele>841.8</ele><time>2026-05-02T11:22:17.001Z</time></trkpt><trkpt lat="44.14229129352683" lon="11.502959672511942"><ele>843.0</ele><time>2026-05-02T11:22:18.001Z</time></trkpt><trkpt lat="44.14223566293395" lon="11.502881266443737"><ele>844.0</ele><time>2026-05-02T11:22:19.001Z</time></trkpt><trkpt lat="44.142224589712455" lon="11.502776019056109"><ele>845.0</ele><time>2026-05-02T11:22:20.001Z</time></trkpt><trkpt lat="44.14225360704272" lon="11.502663864073215"><ele>846.0</ele><time>2026-05-02T11:22:21.001Z</time></trkpt><trkpt lat="44.14231918533084" lon="11.502570612560696"><ele>847.0</ele><time>2026-05-02T11:22:22.001Z</time></trkpt><trkpt lat="44.14241079259414" lon="11.502503571598567"><ele>848.0</ele><time>2026-05-02T11:22:23.001Z</time></trkpt><trkpt lat="44.142504975241536" lon="11.502434145103598"><ele>848.0</ele><time>2026-05-02T11:22:24.001Z</time></trkpt><trkpt lat="44.14257876722454" lon="11.502339423337974"><ele>848.0</ele><time>2026-05-02T11:22:25.001Z</time></trkpt><trkpt lat="44.14260966822456" lon="11.50221648631594"><ele>848.0</ele><time>2026-05-02T11:22:26.001Z</time></trkpt><trkpt lat="44.14259683077677" lon="11.502073512281472"><ele>848.0</ele><time>2026-05-02T11:22:27.001Z</time></trkpt><trkpt lat="44.14255954382693" lon="11.501940186300505"><ele>848.0</ele><time>2026-05-02T11:22:28.001Z</time></trkpt><trkpt lat="44.14248867387269" lon="11.501813493729404"><ele>848.6666666666667</ele><time>2026-05-02T11:22:29.001Z</time></trkpt><trkpt lat="44.142437689886044" lon="11.501686590540618"><ele>849.3333333333334</ele><time>2026-05-02T11:22:30.001Z</time></trkpt><trkpt lat="44.14239901350585" lon="11.501578267650372"><ele>850.0</ele><time>2026-05-02T11:22:31.001Z</time></trkpt><trkpt lat="44.142382826173794" lon="11.501469800288259"><ele>850.6666666666667</ele><time>2026-05-02T11:22:32.001Z</time></trkpt><trkpt lat="44.142398718455844" lon="11.501358441437075"><ele>851.3333333333334</ele><time>2026-05-02T11:22:33.001Z</time></trkpt><trkpt lat="44.1424454910989" lon="11.501257035283137"><ele>852.0</ele><time>2026-05-02T11:22:34.001Z</time></trkpt><trkpt lat="44.142519139707595" lon="11.501174543067151"><ele>852.0</ele><time>2026-05-02T11:22:35.001Z</time></trkpt><trkpt lat="44.14260865712113" lon="11.501115499424415"><ele>852.0</ele><time>2026-05-02T11:22:36.001Z</time></trkpt><trkpt lat="44.14269465784074" lon="11.501031756768976"><ele>852.0</ele><time>2026-05-02T11:22:37.002Z</time></trkpt><trkpt lat="44.14275699067183" lon="11.500932092940623"><ele>852.0</ele><time>2026-05-02T11:22:38.002Z</time></trkpt><trkpt lat="44.142784073760495" lon="11.500813354250234"><ele>852.0</ele><time>2026-05-02T11:22:39.002Z</time></trkpt><trkpt lat="44.14276543177851" lon="11.500681846308657"><ele>852.0</ele><time>2026-05-02T11:22:40.002Z</time></trkpt><trkpt lat="44.14273703014099" lon="11.500559148672082"><ele>852.0</ele><time>2026-05-02T11:22:41.002Z</time></trkpt><trkpt lat="44.14274407970766" lon="11.500425456913165"><ele>852.0</ele><time>2026-05-02T11:22:42.002Z</time></trkpt><trkpt lat="44.14279165527652" lon="11.500295474110679"><ele>852.0</ele><time>2026-05-02T11:22:43.002Z</time></trkpt><trkpt lat="44.14283688586577" lon="11.500154927988019"><ele>852.0</ele><time>2026-05-02T11:22:44.002Z</time></trkpt><trkpt lat="44.14284965195202" lon="11.4999971663149"><ele>852.6</ele><time>2026-05-02T11:22:45.002Z</time></trkpt><trkpt lat="44.142830938209414" lon="11.499848943956538"><ele>853.2</ele><time>2026-05-02T11:22:46.002Z</time></trkpt><trkpt lat="44.142779430078974" lon="11.499722083153497"><ele>853.8</ele><time>2026-05-02T11:22:47.002Z</time></trkpt><trkpt lat="44.142708273396345" lon="11.499627221332702"><ele>854.4</ele><time>2026-05-02T11:22:48.002Z</time></trkpt><trkpt lat="44.14264030973995" lon="11.499536585449688"><ele>855.0</ele><time>2026-05-02T11:22:49.002Z</time></trkpt><trkpt lat="44.14261092284612" lon="11.499436766399814"><ele>858.1666666666666</ele><time>2026-05-02T11:22:50.002Z</time></trkpt><trkpt lat="44.142621103717914" lon="11.499339767011683"><ele>861.3333333333333</ele><time>2026-05-02T11:22:51.002Z</time></trkpt><trkpt lat="44.14266490617725" lon="11.499267288572621"><ele>864.5</ele><time>2026-05-02T11:22:52.002Z</time></trkpt><trkpt lat="44.142732243049664" lon="11.499240502726293"><ele>867.6666666666666</ele><time>2026-05-02T11:22:53.002Z</time></trkpt><trkpt lat="44.142804206207344" lon="11.499271423545844"><ele>870.8333333333333</ele><time>2026-05-02T11:22:54.002Z</time></trkpt><trkpt lat="44.14287049495952" lon="11.499353945179594"><ele>874.0</ele><time>2026-05-02T11:22:55.002Z</time></trkpt><trkpt lat="44.14292138252519" lon="11.499468316241702"><ele>869.25</ele><time>2026-05-02T11:22:56.002Z</time></trkpt><trkpt lat="44.14297106872749" lon="11.499604126733699"><ele>864.5</ele><time>2026-05-02T11:22:57.002Z</time></trkpt><trkpt lat="44.143030000731144" lon="11.499749327011672"><ele>859.75</ele><time>2026-05-02T11:22:58.002Z</time></trkpt><trkpt lat="44.14308500766671" lon="11.499910945509342"><ele>855.0</ele><time>2026-05-02T11:22:59.002Z</time></trkpt><trkpt lat="44.14312028357811" lon="11.500081052429856"><ele>855.0</ele><time>2026-05-02T11:23:00.002Z</time></trkpt><trkpt lat="44.1431336272396" lon="11.500245704928103"><ele>855.0</ele><time>2026-05-02T11:23:01.002Z</time></trkpt><trkpt lat="44.14312992643068" lon="11.500396099417586"><ele>855.0</ele><time>2026-05-02T11:23:02.002Z</time></trkpt><trkpt lat="44.143155792960044" lon="11.500524795765628"><ele>855.0</ele><time>2026-05-02T11:23:03.002Z</time></trkpt><trkpt lat="44.143226947077814" lon="11.500625268909387"><ele>855.0</ele><time>2026-05-02T11:23:04.002Z</time></trkpt><trkpt lat="44.14331880235078" lon="11.500692962364763"><ele>860.8</ele><time>2026-05-02T11:23:05.002Z</time></trkpt><trkpt lat="44.14341841535782" lon="11.500739253327145"><ele>866.6</ele><time>2026-05-02T11:23:06.002Z</time></trkpt><trkpt lat="44.14351515227423" lon="11.50073818178644"><ele>872.4000000000001</ele><time>2026-05-02T11:23:07.002Z</time></trkpt><trkpt lat="44.14360182259411" lon="11.500668996758638"><ele>878.2</ele><time>2026-05-02T11:23:08.002Z</time></trkpt><trkpt lat="44.1436757638378" lon="11.500586902133442"><ele>884.0</ele><time>2026-05-02T11:23:09.002Z</time></trkpt><trkpt lat="44.143730797163734" lon="11.500474756356006"><ele>884.8000000000001</ele><time>2026-05-02T11:23:10.003Z</time></trkpt><trkpt lat="44.14376115774711" lon="11.50033794688295"><ele>885.6000000000001</ele><time>2026-05-02T11:23:11.003Z</time></trkpt><trkpt lat="44.14376382340586" lon="11.500195846182878"><ele>886.4</ele><time>2026-05-02T11:23:12.003Z</time></trkpt><trkpt lat="44.14375745329157" lon="11.500039104408986"><ele>887.2</ele><time>2026-05-02T11:23:13.003Z</time></trkpt><trkpt lat="44.14375472598826" lon="11.49987170720001"><ele>888.0</ele><time>2026-05-02T11:23:14.003Z</time></trkpt><trkpt lat="44.143776972966954" lon="11.49953646612471"><ele>890.5999999999999</ele><time>2026-05-02T11:23:16.003Z</time></trkpt><trkpt lat="44.14379570850359" lon="11.499390399403476"><ele>893.1999999999999</ele><time>2026-05-02T11:23:17.003Z</time></trkpt><trkpt lat="44.143809453345625" lon="11.499245179709265"><ele>895.8</ele><time>2026-05-02T11:23:18.003Z</time></trkpt><trkpt lat="44.14382970111238" lon="11.49910200862257"><ele>898.4</ele><time>2026-05-02T11:23:19.003Z</time></trkpt><trkpt lat="44.143859601013276" lon="11.498953479090746"><ele>901.0</ele><time>2026-05-02T11:23:20.003Z</time></trkpt><trkpt lat="44.14390540788343" lon="11.498808577526924"><ele>899.5999999999999</ele><time>2026-05-02T11:23:21.003Z</time></trkpt><trkpt lat="44.143952544967654" lon="11.498665798350405"><ele>898.1999999999999</ele><time>2026-05-02T11:23:22.003Z</time></trkpt><trkpt lat="44.144009609634566" lon="11.498540173220292"><ele>896.8000000000001</ele><time>2026-05-02T11:23:23.003Z</time></trkpt><trkpt lat="44.144078390365415" lon="11.498422403970814"><ele>895.4000000000001</ele><time>2026-05-02T11:23:24.003Z</time></trkpt><trkpt lat="44.14418058921145" lon="11.498334152193364"><ele>894.0</ele><time>2026-05-02T11:23:25.003Z</time></trkpt><trkpt lat="44.14428452227778" lon="11.49826178655244"><ele>894.0</ele><time>2026-05-02T11:23:26.003Z</time></trkpt><trkpt lat="44.144386747530255" lon="11.498181440166771"><ele>894.0</ele><time>2026-05-02T11:23:27.003Z</time></trkpt><trkpt lat="44.14448870017557" lon="11.498098868363542"><ele>894.0</ele><time>2026-05-02T11:23:28.003Z</time></trkpt><trkpt lat="44.14458993225646" lon="11.498005963946506"><ele>894.0</ele><time>2026-05-02T11:23:29.003Z</time></trkpt><trkpt lat="44.14468512746232" lon="11.49789847445847"><ele>892.0</ele><time>2026-05-02T11:23:30.003Z</time></trkpt><trkpt lat="44.14477679108779" lon="11.497780108229392"><ele>890.0</ele><time>2026-05-02T11:23:31.003Z</time></trkpt><trkpt lat="44.14486435689898" lon="11.49765026289279"><ele>888.0</ele><time>2026-05-02T11:23:32.003Z</time></trkpt><trkpt lat="44.14495402857307" lon="11.497519809322537"><ele>886.0</ele><time>2026-05-02T11:23:33.003Z</time></trkpt><trkpt lat="44.14504581239075" lon="11.497389139997138"><ele>886.0</ele><time>2026-05-02T11:23:34.003Z</time></trkpt><trkpt lat="44.14513521058944" lon="11.49726117395264"><ele>886.0</ele><time>2026-05-02T11:23:35.003Z</time></trkpt><trkpt lat="44.14522111058377" lon="11.497142372365639"><ele>886.0</ele><time>2026-05-02T11:23:36.003Z</time></trkpt><trkpt lat="44.14531020427719" lon="11.49702769109233"><ele>886.0</ele><time>2026-05-02T11:23:37.003Z</time></trkpt><trkpt lat="44.14540667335562" lon="11.49692545745938"><ele>886.75</ele><time>2026-05-02T11:23:38.003Z</time></trkpt><trkpt lat="44.1455146076436" lon="11.496843155173893"><ele>887.5</ele><time>2026-05-02T11:23:38.999Z</time></trkpt><trkpt lat="44.1456331502578" lon="11.496779928867493"><ele>888.25</ele><time>2026-05-02T11:23:39.999Z</time></trkpt><trkpt lat="44.14576267624755" lon="11.496735346609851"><ele>889.0</ele><time>2026-05-02T11:23:41Z</time></trkpt><trkpt lat="44.14588859603293" lon="11.496710827545146"><ele>889.0</ele><time>2026-05-02T11:23:42Z</time></trkpt><trkpt lat="44.14600704421037" lon="11.496682888586008"><ele>889.0</ele><time>2026-05-02T11:23:43Z</time></trkpt><trkpt lat="44.14611216319187" lon="11.49662435955256"><ele>889.0</ele><time>2026-05-02T11:23:44Z</time></trkpt><trkpt lat="44.14620447961933" lon="11.496544446382247"><ele>889.0</ele><time>2026-05-02T11:23:45Z</time></trkpt><trkpt lat="44.14629681301673" lon="11.496466587276283"><ele>889.0</ele><time>2026-05-02T11:23:46Z</time></trkpt><trkpt lat="44.14639154740501" lon="11.496414088702581"><ele>889.0000000000001</ele><time>2026-05-02T11:23:47Z</time></trkpt><trkpt lat="44.14649446268969" lon="11.49640365599702"><ele>889.0000000000001</ele><time>2026-05-02T11:23:48Z</time></trkpt><trkpt lat="44.14660659101888" lon="11.496428417029367"><ele>889.0</ele><time>2026-05-02T11:23:49Z</time></trkpt><trkpt lat="44.1467180319046" lon="11.496474923272032"><ele>889.0</ele><time>2026-05-02T11:23:50Z</time></trkpt><trkpt lat="44.146826578049236" lon="11.496533700414208"><ele>886.6</ele><time>2026-05-02T11:23:51Z</time></trkpt><trkpt lat="44.14691955089236" lon="11.496615278847116"><ele>884.2</ele><time>2026-05-02T11:23:52Z</time></trkpt><trkpt lat="44.14701237606432" lon="11.496688433080053"><ele>881.8000000000001</ele><time>2026-05-02T11:23:53Z</time></trkpt><trkpt lat="44.14712064007454" lon="11.496726087842294"><ele>879.4000000000001</ele><time>2026-05-02T11:23:54Z</time></trkpt><trkpt lat="44.14723010727433" lon="11.496742403535917"><ele>877.0</ele><time>2026-05-02T11:23:55Z</time></trkpt><trkpt lat="44.14733610539416" lon="11.49676980371258"><ele>877.0</ele><time>2026-05-02T11:23:56Z</time></trkpt><trkpt lat="44.14743756816562" lon="11.49682843813896"><ele>877.0</ele><time>2026-05-02T11:23:57Z</time></trkpt><trkpt lat="44.14752218893562" lon="11.496916238943502"><ele>877.0</ele><time>2026-05-02T11:23:58Z</time></trkpt><trkpt lat="44.14759244517164" lon="11.497024198362613"><ele>877.0</ele><time>2026-05-02T11:23:59Z</time></trkpt><trkpt lat="44.14764374498591" lon="11.497152025943002"><ele>877.0</ele><time>2026-05-02T11:24:00Z</time></trkpt><trkpt lat="44.14767348805989" lon="11.497292902185356"><ele>875.2</ele><time>2026-05-02T11:24:01Z</time></trkpt><trkpt lat="44.1476748141867" lon="11.497448276474701"><ele>873.4000000000001</ele><time>2026-05-02T11:24:02Z</time></trkpt><trkpt lat="44.14766142748554" lon="11.497607549745787"><ele>871.5999999999999</ele><time>2026-05-02T11:24:03Z</time></trkpt><trkpt lat="44.147637671024896" lon="11.497756197204987"><ele>869.8</ele><time>2026-05-02T11:24:04Z</time></trkpt><trkpt lat="44.14761206530276" lon="11.497901965529799"><ele>868.0</ele><time>2026-05-02T11:24:05Z</time></trkpt><trkpt lat="44.14759859940579" lon="11.498048580686396"><ele>867.0</ele><time>2026-05-02T11:24:06Z</time></trkpt><trkpt lat="44.14761251826031" lon="11.498186497507263"><ele>866.0</ele><time>2026-05-02T11:24:07Z</time></trkpt><trkpt lat="44.14765542056484" lon="11.498299634263692"><ele>865.0</ele><time>2026-05-02T11:24:08Z</time></trkpt><trkpt lat="44.14773233098071" lon="11.498371316561085"><ele>864.0</ele><time>2026-05-02T11:24:09Z</time></trkpt><trkpt lat="44.147827058680846" lon="11.49839937058516"><ele>863.0</ele><time>2026-05-02T11:24:10Z</time></trkpt><trkpt lat="44.147938597716156" lon="11.498391266822967"><ele>863.0</ele><time>2026-05-02T11:24:11Z</time></trkpt><trkpt lat="44.148057015812476" lon="11.498392339756911"><ele>863.0</ele><time>2026-05-02T11:24:12Z</time></trkpt><trkpt lat="44.148169561412516" lon="11.49844429837512"><ele>863.0</ele><time>2026-05-02T11:24:13Z</time></trkpt><trkpt lat="44.14827287701084" lon="11.498515947868318"><ele>863.0</ele><time>2026-05-02T11:24:14Z</time></trkpt><trkpt lat="44.14837969934019" lon="11.498548942094232"><ele>863.5999999999999</ele><time>2026-05-02T11:24:15Z</time></trkpt><trkpt lat="44.148479526854885" lon="11.498525348727206"><ele>864.1999999999999</ele><time>2026-05-02T11:24:16Z</time></trkpt><trkpt lat="44.14856994771665" lon="11.498447677703357"><ele>864.8</ele><time>2026-05-02T11:24:17Z</time></trkpt><trkpt lat="44.14864988494588" lon="11.498344731468167"><ele>865.4</ele><time>2026-05-02T11:24:18Z</time></trkpt><trkpt lat="44.148736848987426" lon="11.498260270405384"><ele>866.0</ele><time>2026-05-02T11:24:19Z</time></trkpt><trkpt lat="44.14883642385119" lon="11.49821621867138"><ele>866.0</ele><time>2026-05-02T11:24:20Z</time></trkpt><trkpt lat="44.148932572399225" lon="11.498195369399937"><ele>865.9999999999999</ele><time>2026-05-02T11:24:21Z</time></trkpt><trkpt lat="44.14901188404111" lon="11.498133868830537"><ele>865.9999999999999</ele><time>2026-05-02T11:24:22Z</time></trkpt><trkpt lat="44.149070399734114" lon="11.498027179439068"><ele>866.0</ele><time>2026-05-02T11:24:23Z</time></trkpt><trkpt lat="44.149093708703624" lon="11.497893388436914"><ele>866.0</ele><time>2026-05-02T11:24:24Z</time></trkpt><trkpt lat="44.14907714942089" lon="11.497759408327871"><ele>868.6666666666667</ele><time>2026-05-02T11:24:25Z</time></trkpt><trkpt lat="44.149026016744976" lon="11.497632595245513"><ele>871.3333333333333</ele><time>2026-05-02T11:24:26Z</time></trkpt><trkpt lat="44.1488918673477" lon="11.497357310491076"><ele>874.0</ele><time>2026-05-02T11:24:28Z</time></trkpt><trkpt lat="44.14874665304256" lon="11.49704847296516"><ele>869.5</ele><time>2026-05-02T11:24:30Z</time></trkpt><trkpt lat="44.148668393902625" lon="11.496897703168699"><ele>865.0</ele><time>2026-05-02T11:24:31Z</time></trkpt><trkpt lat="44.14858533767931" lon="11.496760735005811"><ele>860.5</ele><time>2026-05-02T11:24:32Z</time></trkpt><trkpt lat="44.14849757993495" lon="11.496628355244843"><ele>856.0</ele><time>2026-05-02T11:24:33Z</time></trkpt><trkpt lat="44.14841393998867" lon="11.496495796293315"><ele>856.0</ele><time>2026-05-02T11:24:34Z</time></trkpt><trkpt lat="44.1483383337124" lon="11.49636720820197"><ele>856.0</ele><time>2026-05-02T11:24:35Z</time></trkpt><trkpt lat="44.1482685871602" lon="11.496236696153659"><ele>856.0</ele><time>2026-05-02T11:24:36Z</time></trkpt><trkpt lat="44.14821285317109" lon="11.496095155220885"><ele>856.0</ele><time>2026-05-02T11:24:37Z</time></trkpt><trkpt lat="44.14817810990698" lon="11.495940030843734"><ele>859.0</ele><time>2026-05-02T11:24:38Z</time></trkpt><trkpt lat="44.1481578525532" lon="11.495780726429967"><ele>862.0</ele><time>2026-05-02T11:24:39Z</time></trkpt><trkpt lat="44.14815036162029" lon="11.495613273953202"><ele>865.0</ele><time>2026-05-02T11:24:40Z</time></trkpt><trkpt lat="44.148148309288885" lon="11.495447119228224"><ele>868.0</ele><time>2026-05-02T11:24:41Z</time></trkpt><trkpt lat="44.1481236353648" lon="11.495109927654934"><ele>868.0</ele><time>2026-05-02T11:24:43Z</time></trkpt><trkpt lat="44.14810947508791" lon="11.494938614351351"><ele>868.0</ele><time>2026-05-02T11:24:44Z</time></trkpt><trkpt lat="44.14809815894595" lon="11.494764592180655"><ele>868.0</ele><time>2026-05-02T11:24:45Z</time></trkpt><trkpt lat="44.14808331421627" lon="11.494587514393606"><ele>868.0</ele><time>2026-05-02T11:24:46Z</time></trkpt><trkpt lat="44.14806360097356" lon="11.494414453030835"><ele>867.25</ele><time>2026-05-02T11:24:47Z</time></trkpt><trkpt lat="44.148035877821584" lon="11.494242794744679"><ele>866.5</ele><time>2026-05-02T11:24:48Z</time></trkpt><trkpt lat="44.14799801966076" lon="11.494071886493547"><ele>865.75</ele><time>2026-05-02T11:24:49Z</time></trkpt><trkpt lat="44.14796223560082" lon="11.493900271883373"><ele>865.0</ele><time>2026-05-02T11:24:50Z</time></trkpt><trkpt lat="44.14792729237272" lon="11.49372865490486"><ele>864.0</ele><time>2026-05-02T11:24:51Z</time></trkpt><trkpt lat="44.14790319540136" lon="11.493558278477883"><ele>863.0</ele><time>2026-05-02T11:24:52Z</time></trkpt><trkpt lat="44.14790403039948" lon="11.49337759182468"><ele>862.0</ele><time>2026-05-02T11:24:53Z</time></trkpt><trkpt lat="44.14792135872052" lon="11.493189195726126"><ele>861.0</ele><time>2026-05-02T11:24:54Z</time></trkpt><trkpt lat="44.14794513118177" lon="11.492997042063289"><ele>858.75</ele><time>2026-05-02T11:24:55Z</time></trkpt><trkpt lat="44.147958825827786" lon="11.492809077546296"><ele>856.5</ele><time>2026-05-02T11:24:56Z</time></trkpt><trkpt lat="44.147964567694636" lon="11.492622790607278"><ele>854.25</ele><time>2026-05-02T11:24:57Z</time></trkpt><trkpt lat="44.147968100943224" lon="11.492438816194726"><ele>852.0</ele><time>2026-05-02T11:24:58Z</time></trkpt><trkpt lat="44.14796979527488" lon="11.492262765345219"><ele>849.0</ele><time>2026-05-02T11:24:59Z</time></trkpt><trkpt lat="44.14797729758364" lon="11.492089581735257"><ele>846.0</ele><time>2026-05-02T11:25:00Z</time></trkpt><trkpt lat="44.14800106018927" lon="11.491923830978996"><ele>843.0</ele><time>2026-05-02T11:25:01Z</time></trkpt><trkpt lat="44.14805474622904" lon="11.491768875550823"><ele>840.0</ele><time>2026-05-02T11:25:02Z</time></trkpt><trkpt lat="44.14813237824472" lon="11.491630895388587"><ele>840.0</ele><time>2026-05-02T11:25:03Z</time></trkpt><trkpt lat="44.148204503735464" lon="11.491478387483557"><ele>840.0</ele><time>2026-05-02T11:25:04Z</time></trkpt><trkpt lat="44.148251290275915" lon="11.491301938090979"><ele>840.0</ele><time>2026-05-02T11:25:05Z</time></trkpt><trkpt lat="44.14828620966653" lon="11.491122772250248"><ele>840.0</ele><time>2026-05-02T11:25:06Z</time></trkpt><trkpt lat="44.14832510437599" lon="11.490948288449134"><ele>833.5</ele><time>2026-05-02T11:25:07Z</time></trkpt><trkpt lat="44.148366498413814" lon="11.490779648965253"><ele>827.0</ele><time>2026-05-02T11:25:08Z</time></trkpt><trkpt lat="44.148408416151504" lon="11.4906187808492"><ele>820.5</ele><time>2026-05-02T11:25:09Z</time></trkpt><trkpt lat="44.14844409639146" lon="11.490466462137475"><ele>814.0</ele><time>2026-05-02T11:25:10Z</time></trkpt><trkpt lat="44.14847134945378" lon="11.490319553767852"><ele>813.0</ele><time>2026-05-02T11:25:11Z</time></trkpt><trkpt lat="44.14848517900322" lon="11.490170093748366"><ele>812.0</ele><time>2026-05-02T11:25:12Z</time></trkpt><trkpt lat="44.14847331801254" lon="11.490026860868623"><ele>811.0</ele><time>2026-05-02T11:25:13Z</time></trkpt><trkpt lat="44.148433187340196" lon="11.489893201918926"><ele>810.0</ele><time>2026-05-02T11:25:14Z</time></trkpt><trkpt lat="44.148373051187306" lon="11.48977874321042"><ele>809.0</ele><time>2026-05-02T11:25:15Z</time></trkpt><trkpt lat="44.148285056136565" lon="11.489676398821555"><ele>806.5</ele><time>2026-05-02T11:25:16Z</time></trkpt><trkpt lat="44.148183554164795" lon="11.489581973620188"><ele>804.0</ele><time>2026-05-02T11:25:17Z</time></trkpt><trkpt lat="44.148075921978496" lon="11.489500947915415"><ele>801.5</ele><time>2026-05-02T11:25:18Z</time></trkpt><trkpt lat="44.14796954352565" lon="11.489435375381793"><ele>799.0</ele><time>2026-05-02T11:25:19Z</time></trkpt><trkpt lat="44.147866641523436" lon="11.4893838199927"><ele>799.0</ele><time>2026-05-02T11:25:20Z</time></trkpt><trkpt lat="44.147671815349945" lon="11.489299040142763"><ele>799.0</ele><time>2026-05-02T11:25:22Z</time></trkpt><trkpt lat="44.147583506482384" lon="11.489255935256852"><ele>799.0</ele><time>2026-05-02T11:25:23Z</time></trkpt><trkpt lat="44.1475068274278" lon="11.489206517323625"><ele>799.0</ele><time>2026-05-02T11:25:24Z</time></trkpt><trkpt lat="44.14744910073636" lon="11.489130614986037"><ele>798.9999999999999</ele><time>2026-05-02T11:25:25Z</time></trkpt><trkpt lat="44.14742384942569" lon="11.48902842620844"><ele>799.0</ele><time>2026-05-02T11:25:26Z</time></trkpt><trkpt lat="44.14743152918064" lon="11.488917476200212"><ele>799.0</ele><time>2026-05-02T11:25:27Z</time></trkpt><trkpt lat="44.147475551736406" lon="11.488826023861245"><ele>799.0</ele><time>2026-05-02T11:25:28Z</time></trkpt><trkpt lat="44.147542059307476" lon="11.488772904946837"><ele>798.9999999999999</ele><time>2026-05-02T11:25:29Z</time></trkpt><trkpt lat="44.14762722853878" lon="11.488755124219784"><ele>799.0</ele><time>2026-05-02T11:25:30Z</time></trkpt><trkpt lat="44.14771815809745" lon="11.488768758729124"><ele>798.9999999999999</ele><time>2026-05-02T11:25:31Z</time></trkpt><trkpt lat="44.147802346930845" lon="11.488804995284546"><ele>799.0</ele><time>2026-05-02T11:25:32Z</time></trkpt><trkpt lat="44.1478840762462" lon="11.488851902476176"><ele>799.0</ele><time>2026-05-02T11:25:33Z</time></trkpt><trkpt lat="44.14796874724891" lon="11.48890013234495"><ele>799.0</ele><time>2026-05-02T11:25:34Z</time></trkpt><trkpt lat="44.148051537091035" lon="11.488941925870535"><ele>798.9999999999999</ele><time>2026-05-02T11:25:35Z</time></trkpt><trkpt lat="44.148134546748516" lon="11.4889591716997"><ele>799.0</ele><time>2026-05-02T11:25:36Z</time></trkpt><trkpt lat="44.14821339120206" lon="11.488939882334812"><ele>798.8333333333333</ele><time>2026-05-02T11:25:37Z</time></trkpt><trkpt lat="44.14827218301847" lon="11.48886369479028"><ele>798.6666666666666</ele><time>2026-05-02T11:25:38Z</time></trkpt><trkpt lat="44.14830319394007" lon="11.48875918033436"><ele>798.5</ele><time>2026-05-02T11:25:39Z</time></trkpt><trkpt lat="44.14828988679338" lon="11.488639914738034"><ele>798.3333333333333</ele><time>2026-05-02T11:25:40Z</time></trkpt><trkpt lat="44.148244020334985" lon="11.488536540672994"><ele>798.1666666666666</ele><time>2026-05-02T11:25:41Z</time></trkpt><trkpt lat="44.14816988203208" lon="11.488453574440902"><ele>798.0</ele><time>2026-05-02T11:25:42Z</time></trkpt><trkpt lat="44.148077564147435" lon="11.488393085692183"><ele>795.4</ele><time>2026-05-02T11:25:43Z</time></trkpt><trkpt lat="44.14797458637156" lon="11.488348384998465"><ele>792.8</ele><time>2026-05-02T11:25:44Z</time></trkpt><trkpt lat="44.1478701465764" lon="11.488304774402431"><ele>790.2</ele><time>2026-05-02T11:25:44.996Z</time></trkpt><trkpt lat="44.147772470013344" lon="11.488254837936871"><ele>787.6</ele><time>2026-05-02T11:25:45.996Z</time></trkpt><trkpt lat="44.14767564531652" lon="11.488209299925066"><ele>785.0</ele><time>2026-05-02T11:25:46.996Z</time></trkpt><trkpt lat="44.14758287267245" lon="11.488173885988477"><ele>785.0000000000001</ele><time>2026-05-02T11:25:47.997Z</time></trkpt><trkpt lat="44.14748839468995" lon="11.4881727026973"><ele>785.0</ele><time>2026-05-02T11:25:48.997Z</time></trkpt><trkpt lat="44.14739831811985" lon="11.488210076212782"><ele>785.0</ele><time>2026-05-02T11:25:49.997Z</time></trkpt><trkpt lat="44.14731047028574" lon="11.488259156194738"><ele>785.0</ele><time>2026-05-02T11:25:50.997Z</time></trkpt><trkpt lat="44.14722866687326" lon="11.488284437031206"><ele>785.0000000000001</ele><time>2026-05-02T11:25:51.997Z</time></trkpt><trkpt lat="44.14715097913165" lon="11.488261922128357"><ele>785.0</ele><time>2026-05-02T11:25:52.998Z</time></trkpt><trkpt lat="44.14709268271715" lon="11.488197930205752"><ele>783.0000000000001</ele><time>2026-05-02T11:25:53.998Z</time></trkpt><trkpt lat="44.14706572130676" lon="11.488107748101354"><ele>781.0</ele><time>2026-05-02T11:25:54.998Z</time></trkpt><trkpt lat="44.14707943207819" lon="11.488002891594203"><ele>779.0</ele><time>2026-05-02T11:25:55.998Z</time></trkpt><trkpt lat="44.147126731807326" lon="11.487918217200821"><ele>777.0</ele><time>2026-05-02T11:25:56.998Z</time></trkpt><trkpt lat="44.14719790198169" lon="11.487860458964615"><ele>775.0000000000001</ele><time>2026-05-02T11:25:57.998Z</time></trkpt><trkpt lat="44.147283265979524" lon="11.487824017462676"><ele>773.0</ele><time>2026-05-02T11:25:58.998Z</time></trkpt><trkpt lat="44.14737951804131" lon="11.487808716278831"><ele>771.5999999999999</ele><time>2026-05-02T11:25:59.998Z</time></trkpt><trkpt lat="44.14748263029435" lon="11.487799505778373"><ele>770.1999999999999</ele><time>2026-05-02T11:26:00.999Z</time></trkpt><trkpt lat="44.14759072954903" lon="11.487790096836932"><ele>768.8</ele><time>2026-05-02T11:26:01.999Z</time></trkpt><trkpt lat="44.147694802615206" lon="11.487754107590016"><ele>767.4</ele><time>2026-05-02T11:26:02.999Z</time></trkpt><trkpt lat="44.14779624242748" lon="11.48769292401411"><ele>766.0</ele><time>2026-05-02T11:26:03.999Z</time></trkpt><trkpt lat="44.14789278245167" lon="11.487625844439863"><ele>766.0</ele><time>2026-05-02T11:26:04.999Z</time></trkpt><trkpt lat="44.147981204152856" lon="11.487545088209503"><ele>766.0</ele><time>2026-05-02T11:26:05.999Z</time></trkpt><trkpt lat="44.148072582351055" lon="11.48748021190499"><ele>766.0</ele><time>2026-05-02T11:26:06.999Z</time></trkpt><trkpt lat="44.14816968771881" lon="11.487462458392733"><ele>766.0</ele><time>2026-05-02T11:26:07.999Z</time></trkpt><trkpt lat="44.148264145271774" lon="11.4874897662824"><ele>766.0</ele><time>2026-05-02T11:26:08.999Z</time></trkpt><trkpt lat="44.14834680952282" lon="11.487558199112868"><ele>766.5999999999999</ele><time>2026-05-02T11:26:10Z</time></trkpt><trkpt lat="44.14841519182939" lon="11.487664233630179"><ele>767.2</ele><time>2026-05-02T11:26:11Z</time></trkpt><trkpt lat="44.14847320831999" lon="11.487792160143961"><ele>767.8</ele><time>2026-05-02T11:26:12Z</time></trkpt><trkpt lat="44.14853033443218" lon="11.487920784323359"><ele>768.4000000000001</ele><time>2026-05-02T11:26:13Z</time></trkpt><trkpt lat="44.14860058691152" lon="11.48802236955501"><ele>769.0</ele><time>2026-05-02T11:26:14Z</time></trkpt><trkpt lat="44.148687685917004" lon="11.488097350823004"><ele>768.5</ele><time>2026-05-02T11:26:15Z</time></trkpt><trkpt lat="44.148790342100725" lon="11.48814686683362"><ele>768.0</ele><time>2026-05-02T11:26:16Z</time></trkpt><trkpt lat="44.14901252997935" lon="11.48820163417685"><ele>767.5</ele><time>2026-05-02T11:26:18Z</time></trkpt><trkpt lat="44.149124839044" lon="11.48822864806324"><ele>767.0</ele><time>2026-05-02T11:26:19Z</time></trkpt><trkpt lat="44.14923249054341" lon="11.488260660872152"><ele>767.0</ele><time>2026-05-02T11:26:20Z</time></trkpt><trkpt lat="44.149338900335984" lon="11.488293671253569"><ele>767.0</ele><time>2026-05-02T11:26:21Z</time></trkpt><trkpt lat="44.14944543650627" lon="11.488327044818897"><ele>767.0</ele><time>2026-05-02T11:26:22Z</time></trkpt><trkpt lat="44.149551870975216" lon="11.488345670501072"><ele>767.0</ele><time>2026-05-02T11:26:23Z</time></trkpt><trkpt lat="44.149659516650914" lon="11.488334640328224"><ele>767.0</ele><time>2026-05-02T11:26:24Z</time></trkpt><trkpt lat="44.14977013820057" lon="11.488300064582651"><ele>762.75</ele><time>2026-05-02T11:26:25.001Z</time></trkpt><trkpt lat="44.149881493441725" lon="11.488252014632183"><ele>758.5</ele><time>2026-05-02T11:26:26.001Z</time></trkpt><trkpt lat="44.149994396068" lon="11.488200640267578"><ele>754.25</ele><time>2026-05-02T11:26:27.001Z</time></trkpt><trkpt lat="44.15010706728252" lon="11.488159690233168"><ele>750.0</ele><time>2026-05-02T11:26:28.001Z</time></trkpt><trkpt lat="44.15021599177194" lon="11.488122613240307"><ele>750.0</ele><time>2026-05-02T11:26:29.001Z</time></trkpt><trkpt lat="44.150313498627014" lon="11.488084335183254"><ele>750.0</ele><time>2026-05-02T11:26:30.001Z</time></trkpt><trkpt lat="44.150401570166665" lon="11.488034124709529"><ele>750.0</ele><time>2026-05-02T11:26:31.001Z</time></trkpt><trkpt lat="44.150473362570395" lon="11.487948468714643"><ele>750.0</ele><time>2026-05-02T11:26:32.001Z</time></trkpt><trkpt lat="44.15052266515249" lon="11.487836574346785"><ele>750.0</ele><time>2026-05-02T11:26:33.001Z</time></trkpt><trkpt lat="44.150538552550884" lon="11.487698309640322"><ele>749.75</ele><time>2026-05-02T11:26:34.001Z</time></trkpt><trkpt lat="44.150531186013026" lon="11.487547297929867"><ele>749.5</ele><time>2026-05-02T11:26:35.001Z</time></trkpt><trkpt lat="44.15049713849271" lon="11.487399594901682"><ele>749.25</ele><time>2026-05-02T11:26:36.001Z</time></trkpt><trkpt lat="44.15043863376221" lon="11.487254483527087"><ele>749.0</ele><time>2026-05-02T11:26:37.001Z</time></trkpt><trkpt lat="44.15036951837623" lon="11.487122279021692"><ele>746.8000000000001</ele><time>2026-05-02T11:26:38.001Z</time></trkpt><trkpt lat="44.150283699242394" lon="11.487012593627377"><ele>744.6</ele><time>2026-05-02T11:26:39.001Z</time></trkpt><trkpt lat="44.15018810399442" lon="11.486934795327894"><ele>742.4</ele><time>2026-05-02T11:26:40.001Z</time></trkpt><trkpt lat="44.15010518121198" lon="11.486847361816476"><ele>740.2</ele><time>2026-05-02T11:26:41.001Z</time></trkpt><trkpt lat="44.15004405067643" lon="11.486726101316831"><ele>738.0</ele><time>2026-05-02T11:26:42.001Z</time></trkpt><trkpt lat="44.15000621320369" lon="11.486594072307842"><ele>738.0</ele><time>2026-05-02T11:26:43.001Z</time></trkpt><trkpt lat="44.14999687870935" lon="11.486461904983129"><ele>738.0</ele><time>2026-05-02T11:26:44.001Z</time></trkpt><trkpt lat="44.15001608370086" lon="11.48632912519869"><ele>738.0</ele><time>2026-05-02T11:26:45.001Z</time></trkpt><trkpt lat="44.150069828553065" lon="11.486213228867456"><ele>738.0</ele><time>2026-05-02T11:26:46.001Z</time></trkpt><trkpt lat="44.15014227588016" lon="11.486125427908762"><ele>738.0</ele><time>2026-05-02T11:26:47.001Z</time></trkpt><trkpt lat="44.150230378104865" lon="11.486068966217035"><ele>736.2</ele><time>2026-05-02T11:26:48.001Z</time></trkpt><trkpt lat="44.15033424158834" lon="11.486054381026184"><ele>734.4</ele><time>2026-05-02T11:26:49.001Z</time></trkpt><trkpt lat="44.15043746568767" lon="11.486063871143449"><ele>732.6</ele><time>2026-05-02T11:26:50.002Z</time></trkpt><trkpt lat="44.15053352390893" lon="11.486098254266517"><ele>730.8000000000001</ele><time>2026-05-02T11:26:51.002Z</time></trkpt><trkpt lat="44.150614965732075" lon="11.48616371605193"><ele>729.0</ele><time>2026-05-02T11:26:52.002Z</time></trkpt><trkpt lat="44.15068965249607" lon="11.48622601324517"><ele>729.6666666666666</ele><time>2026-05-02T11:26:53.002Z</time></trkpt><trkpt lat="44.15077753725684" lon="11.486230067269535"><ele>730.3333333333334</ele><time>2026-05-02T11:26:54.002Z</time></trkpt><trkpt lat="44.15085872325063" lon="11.486176579639608"><ele>731.0</ele><time>2026-05-02T11:26:55.002Z</time></trkpt><trkpt lat="44.15091398130217" lon="11.486079041479728"><ele>731.6666666666667</ele><time>2026-05-02T11:26:56.002Z</time></trkpt><trkpt lat="44.150935053995624" lon="11.485961511658738"><ele>732.3333333333334</ele><time>2026-05-02T11:26:57.002Z</time></trkpt><trkpt lat="44.1509177311285" lon="11.485847623435136"><ele>733.0</ele><time>2026-05-02T11:26:58.002Z</time></trkpt><trkpt lat="44.15086595581191" lon="11.485738096344802"><ele>733.0</ele><time>2026-05-02T11:26:59.002Z</time></trkpt><trkpt lat="44.1508118656474" lon="11.485618228479758"><ele>733.0</ele><time>2026-05-02T11:27:00.002Z</time></trkpt><trkpt lat="44.150756746057255" lon="11.48548999292427"><ele>733.0</ele><time>2026-05-02T11:27:01.002Z</time></trkpt><trkpt lat="44.1506968514782" lon="11.485368821171395"><ele>733.0</ele><time>2026-05-02T11:27:02.002Z</time></trkpt><trkpt lat="44.15062319857499" lon="11.485259595139809"><ele>733.0</ele><time>2026-05-02T11:27:03.002Z</time></trkpt><trkpt lat="44.150536119536206" lon="11.485173276912873"><ele>730.0</ele><time>2026-05-02T11:27:04.002Z</time></trkpt><trkpt lat="44.15043892209666" lon="11.485120429286612"><ele>727.0</ele><time>2026-05-02T11:27:05.002Z</time></trkpt><trkpt lat="44.150341432280165" lon="11.48511472787771"><ele>724.0</ele><time>2026-05-02T11:27:06.002Z</time></trkpt><trkpt lat="44.15024602393206" lon="11.485157200195044"><ele>721.0</ele><time>2026-05-02T11:27:07.002Z</time></trkpt><trkpt lat="44.15016330366367" lon="11.485210371541708"><ele>718.0</ele><time>2026-05-02T11:27:08.002Z</time></trkpt><trkpt lat="44.15008275015988" lon="11.485217398952194"><ele>718.0</ele><time>2026-05-02T11:27:09.002Z</time></trkpt><trkpt lat="44.15000917602252" lon="11.485168722017809"><ele>718.0</ele><time>2026-05-02T11:27:10.002Z</time></trkpt><trkpt lat="44.14996703938495" lon="11.485091552790806"><ele>718.0</ele><time>2026-05-02T11:27:11.002Z</time></trkpt><trkpt lat="44.14994816646915" lon="11.485001374829555"><ele>718.0</ele><time>2026-05-02T11:27:12.002Z</time></trkpt><trkpt lat="44.14996387567957" lon="11.484901291110598"><ele>718.0</ele><time>2026-05-02T11:27:13.002Z</time></trkpt><trkpt lat="44.150005698569224" lon="11.484804041575362"><ele>718.0</ele><time>2026-05-02T11:27:14.002Z</time></trkpt><trkpt lat="44.15006118130137" lon="11.48470846147837"><ele>718.0</ele><time>2026-05-02T11:27:15.002Z</time></trkpt><trkpt lat="44.15013077932339" lon="11.484612705281764"><ele>718.0</ele><time>2026-05-02T11:27:16.002Z</time></trkpt><trkpt lat="44.150213152718926" lon="11.484517182922513"><ele>718.0</ele><time>2026-05-02T11:27:17.002Z</time></trkpt><trkpt lat="44.1502920693795" lon="11.484421163268436"><ele>718.0</ele><time>2026-05-02T11:27:18.002Z</time></trkpt><trkpt lat="44.15036867913383" lon="11.484331435919847"><ele>718.0</ele><time>2026-05-02T11:27:19.002Z</time></trkpt><trkpt lat="44.15044864807296" lon="11.484267211982498"><ele>716.8</ele><time>2026-05-02T11:27:20.002Z</time></trkpt><trkpt lat="44.150540520160426" lon="11.484240245156089"><ele>715.5999999999999</ele><time>2026-05-02T11:27:21.003Z</time></trkpt><trkpt lat="44.150636073631276" lon="11.48425828523938"><ele>714.4000000000001</ele><time>2026-05-02T11:27:22.003Z</time></trkpt><trkpt lat="44.15073550432241" lon="11.484302921689666"><ele>713.2</ele><time>2026-05-02T11:27:23.003Z</time></trkpt><trkpt lat="44.15083823824591" lon="11.484360804223712"><ele>712.0</ele><time>2026-05-02T11:27:24.003Z</time></trkpt><trkpt lat="44.15094685753474" lon="11.484416850141692"><ele>712.0</ele><time>2026-05-02T11:27:25.003Z</time></trkpt><trkpt lat="44.15105813057095" lon="11.484476600669627"><ele>712.0</ele><time>2026-05-02T11:27:26.003Z</time></trkpt><trkpt lat="44.15116586753639" lon="11.484538300059192"><ele>712.0</ele><time>2026-05-02T11:27:27.003Z</time></trkpt><trkpt lat="44.15126696434533" lon="11.48460039796512"><ele>712.0</ele><time>2026-05-02T11:27:28.003Z</time></trkpt><trkpt lat="44.15136132448167" lon="11.484654989204572"><ele>712.0</ele><time>2026-05-02T11:27:29.003Z</time></trkpt><trkpt lat="44.15145145073997" lon="11.48469661320451"><ele>711.4000000000001</ele><time>2026-05-02T11:27:30.003Z</time></trkpt><trkpt lat="44.15153969061562" lon="11.484706927253175"><ele>710.8000000000001</ele><time>2026-05-02T11:27:31.003Z</time></trkpt><trkpt lat="44.15162858810272" lon="11.484667851634274"><ele>710.2</ele><time>2026-05-02T11:27:32.003Z</time></trkpt><trkpt lat="44.151701166751046" lon="11.484584052664074"><ele>709.6</ele><time>2026-05-02T11:27:33.003Z</time></trkpt><trkpt lat="44.15174427174307" lon="11.484476892463091"><ele>709.0</ele><time>2026-05-02T11:27:34.003Z</time></trkpt><trkpt lat="44.15175693893467" lon="11.484350479404233"><ele>709.5</ele><time>2026-05-02T11:27:35.003Z</time></trkpt><trkpt lat="44.151745952686404" lon="11.484226163037157"><ele>710.0</ele><time>2026-05-02T11:27:36.003Z</time></trkpt><trkpt lat="44.15170164499284" lon="11.484121688650518"><ele>710.5</ele><time>2026-05-02T11:27:37.003Z</time></trkpt><trkpt lat="44.15163677545441" lon="11.484041237733127"><ele>711.0</ele><time>2026-05-02T11:27:38.003Z</time></trkpt><trkpt lat="44.15155535172492" lon="11.483995366805297"><ele>711.5</ele><time>2026-05-02T11:27:39.003Z</time></trkpt><trkpt lat="44.151460935486874" lon="11.4839782885462"><ele>712.0</ele><time>2026-05-02T11:27:40.003Z</time></trkpt><trkpt lat="44.15136504086075" lon="11.48396473983689"><ele>712.0</ele><time>2026-05-02T11:27:41.003Z</time></trkpt><trkpt lat="44.151275646829376" lon="11.483920812409995"><ele>712.0</ele><time>2026-05-02T11:27:42.003Z</time></trkpt><trkpt lat="44.151202623684426" lon="11.483850311743248"><ele>712.0</ele><time>2026-05-02T11:27:43.003Z</time></trkpt><trkpt lat="44.151161059343366" lon="11.483755949686525"><ele>712.0</ele><time>2026-05-02T11:27:44.003Z</time></trkpt><trkpt lat="44.15115508374756" lon="11.483641018821615"><ele>712.0</ele><time>2026-05-02T11:27:45.003Z</time></trkpt><trkpt lat="44.15118691445083" lon="11.48352919768353"><ele>712.0</ele><time>2026-05-02T11:27:46.003Z</time></trkpt><trkpt lat="44.15124923568469" lon="11.483427376045078"><ele>708.6</ele><time>2026-05-02T11:27:47.003Z</time></trkpt><trkpt lat="44.151333810592014" lon="11.483343239656909"><ele>705.2</ele><time>2026-05-02T11:27:48.003Z</time></trkpt><trkpt lat="44.15142987124959" lon="11.483265499044277"><ele>701.8</ele><time>2026-05-02T11:27:49.003Z</time></trkpt><trkpt lat="44.15152660783892" lon="11.483187528842576"><ele>698.4</ele><time>2026-05-02T11:27:50.003Z</time></trkpt><trkpt lat="44.15162826947411" lon="11.483119335411981"><ele>695.0</ele><time>2026-05-02T11:27:50.999Z</time></trkpt><trkpt lat="44.15173815743159" lon="11.483062723866285"><ele>695.0</ele><time>2026-05-02T11:27:51.999Z</time></trkpt><trkpt lat="44.15185145705362" lon="11.4830189911159"><ele>695.0</ele><time>2026-05-02T11:27:52.999Z</time></trkpt><trkpt lat="44.151965008050155" lon="11.482985642030808"><ele>695.0</ele><time>2026-05-02T11:27:53.999Z</time></trkpt><trkpt lat="44.15207882028001" lon="11.482950543091516"><ele>695.0</ele><time>2026-05-02T11:27:54.999Z</time></trkpt><trkpt lat="44.15219178821431" lon="11.482911385318152"><ele>692.5</ele><time>2026-05-02T11:27:56Z</time></trkpt><trkpt lat="44.15230423585484" lon="11.482873066604181"><ele>690.0</ele><time>2026-05-02T11:27:57Z</time></trkpt><trkpt lat="44.15241821021887" lon="11.482837530566538"><ele>687.5</ele><time>2026-05-02T11:27:58Z</time></trkpt><trkpt lat="44.152532651228555" lon="11.48280192663373"><ele>685.0</ele><time>2026-05-02T11:27:59Z</time></trkpt><trkpt lat="44.15264611440009" lon="11.482770848392871"><ele>685.0</ele><time>2026-05-02T11:28:00Z</time></trkpt><trkpt lat="44.1527604663283" lon="11.482739295512804"><ele>685.0</ele><time>2026-05-02T11:28:01Z</time></trkpt><trkpt lat="44.1528763721789" lon="11.482702572821475"><ele>685.0</ele><time>2026-05-02T11:28:02Z</time></trkpt><trkpt lat="44.1529924326009" lon="11.482671804834338"><ele>685.0</ele><time>2026-05-02T11:28:03Z</time></trkpt><trkpt lat="44.153107990962404" lon="11.482640031018809"><ele>685.5</ele><time>2026-05-02T11:28:04Z</time></trkpt><trkpt lat="44.15322116339083" lon="11.482610579906844"><ele>686.0</ele><time>2026-05-02T11:28:05Z</time></trkpt><trkpt lat="44.15333717530414" lon="11.482570321854283"><ele>686.5</ele><time>2026-05-02T11:28:06Z</time></trkpt><trkpt lat="44.15345550803288" lon="11.482496754892162"><ele>687.0</ele><time>2026-05-02T11:28:07Z</time></trkpt><trkpt lat="44.1535696029029" lon="11.482403649184207"><ele>687.0</ele><time>2026-05-02T11:28:08Z</time></trkpt><trkpt lat="44.15367723263431" lon="11.48229854616501"><ele>687.0</ele><time>2026-05-02T11:28:09Z</time></trkpt><trkpt lat="44.15378475343658" lon="11.482206936353633"><ele>687.0</ele><time>2026-05-02T11:28:10Z</time></trkpt><trkpt lat="44.15389159627372" lon="11.482122079407116"><ele>687.0</ele><time>2026-05-02T11:28:11Z</time></trkpt><trkpt lat="44.15398991512417" lon="11.482044785016472"><ele>684.2</ele><time>2026-05-02T11:28:12Z</time></trkpt><trkpt lat="44.154082059406974" lon="11.481970199311238"><ele>681.4000000000001</ele><time>2026-05-02T11:28:13Z</time></trkpt><trkpt lat="44.15415535792066" lon="11.481878870784572"><ele>678.5999999999999</ele><time>2026-05-02T11:28:14Z</time></trkpt><trkpt lat="44.15419852710157" lon="11.481766095229315"><ele>675.8</ele><time>2026-05-02T11:28:15Z</time></trkpt><trkpt lat="44.15420397611726" lon="11.481634616026144"><ele>673.0</ele><time>2026-05-02T11:28:16Z</time></trkpt><trkpt lat="44.154168109467406" lon="11.481508147636934"><ele>673.0</ele><time>2026-05-02T11:28:17Z</time></trkpt><trkpt lat="44.15410995415021" lon="11.481401103445087"><ele>673.0</ele><time>2026-05-02T11:28:18Z</time></trkpt><trkpt lat="44.15403280333969" lon="11.481308863098942"><ele>673.0</ele><time>2026-05-02T11:28:19Z</time></trkpt><trkpt lat="44.15395899761698" lon="11.48122340840882"><ele>673.0</ele><time>2026-05-02T11:28:20Z</time></trkpt><trkpt lat="44.15389814732905" lon="11.481136754297012"><ele>673.0</ele><time>2026-05-02T11:28:21Z</time></trkpt><trkpt lat="44.153859189876755" lon="11.481025144510973"><ele>673.8</ele><time>2026-05-02T11:28:22Z</time></trkpt><trkpt lat="44.153846209273986" lon="11.480895662238623"><ele>674.5999999999999</ele><time>2026-05-02T11:28:23Z</time></trkpt><trkpt lat="44.15383443352589" lon="11.480755138539529"><ele>675.4000000000001</ele><time>2026-05-02T11:28:24.001Z</time></trkpt><trkpt lat="44.15380143976054" lon="11.480611923964746"><ele>676.2</ele><time>2026-05-02T11:28:25.001Z</time></trkpt><trkpt lat="44.15373979721515" lon="11.480467978665056"><ele>677.0</ele><time>2026-05-02T11:28:26.001Z</time></trkpt><trkpt lat="44.15368313864824" lon="11.480310492254162"><ele>674.5</ele><time>2026-05-02T11:28:27.001Z</time></trkpt><trkpt lat="44.153627303846704" lon="11.480140997063463"><ele>672.0</ele><time>2026-05-02T11:28:28.001Z</time></trkpt><trkpt lat="44.15356853504371" lon="11.479979771202455"><ele>669.5</ele><time>2026-05-02T11:28:29.001Z</time></trkpt><trkpt lat="44.15351131313505" lon="11.479819486858469"><ele>667.0</ele><time>2026-05-02T11:28:30.001Z</time></trkpt><trkpt lat="44.15345910864239" lon="11.47966388775245"><ele>664.0</ele><time>2026-05-02T11:28:31.001Z</time></trkpt><trkpt lat="44.15340322187954" lon="11.479511351334352"><ele>661.0</ele><time>2026-05-02T11:28:32.001Z</time></trkpt><trkpt lat="44.15335200813925" lon="11.479359233621114"><ele>658.0</ele><time>2026-05-02T11:28:33.001Z</time></trkpt><trkpt lat="44.15331186249227" lon="11.479202791145992"><ele>655.0</ele><time>2026-05-02T11:28:34.001Z</time></trkpt><trkpt lat="44.153285740772795" lon="11.479058775480963"><ele>655.0</ele><time>2026-05-02T11:28:35.001Z</time></trkpt><trkpt lat="44.15328615787939" lon="11.47890978919498"><ele>655.0</ele><time>2026-05-02T11:28:36.001Z</time></trkpt><trkpt lat="44.153301080797604" lon="11.478754919520602"><ele>655.0</ele><time>2026-05-02T11:28:37.001Z</time></trkpt><trkpt lat="44.153334403045314" lon="11.478588334508885"><ele>655.0</ele><time>2026-05-02T11:28:38.001Z</time></trkpt><trkpt lat="44.15337555375736" lon="11.478421553318967"><ele>652.75</ele><time>2026-05-02T11:28:39.001Z</time></trkpt><trkpt lat="44.15340841597128" lon="11.478243871889221"><ele>650.5</ele><time>2026-05-02T11:28:40.001Z</time></trkpt><trkpt lat="44.15341953199356" lon="11.47805712880763"><ele>648.25</ele><time>2026-05-02T11:28:41.001Z</time></trkpt><trkpt lat="44.15341906495218" lon="11.477866546755358"><ele>646.0</ele><time>2026-05-02T11:28:42.001Z</time></trkpt><trkpt lat="44.15342861624939" lon="11.477673235485932"><ele>644.75</ele><time>2026-05-02T11:28:43.001Z</time></trkpt><trkpt lat="44.15343780612663" lon="11.477471650726303"><ele>643.5</ele><time>2026-05-02T11:28:44.001Z</time></trkpt><trkpt lat="44.15344738964438" lon="11.477268481246208"><ele>642.25</ele><time>2026-05-02T11:28:45.001Z</time></trkpt><trkpt lat="44.153456909328966" lon="11.477067338764176"><ele>641.0</ele><time>2026-05-02T11:28:46.001Z</time></trkpt><trkpt lat="44.15346408102877" lon="11.47687153547712"><ele>640.5</ele><time>2026-05-02T11:28:47.001Z</time></trkpt><trkpt lat="44.15347303826904" lon="11.476684588349329"><ele>640.0</ele><time>2026-05-02T11:28:48.001Z</time></trkpt><trkpt lat="44.15348306558431" lon="11.476509040802148"><ele>639.5</ele><time>2026-05-02T11:28:49.001Z</time></trkpt><trkpt lat="44.153490428915084" lon="11.476343159877732"><ele>639.0</ele><time>2026-05-02T11:28:50.001Z</time></trkpt><trkpt lat="44.15349443891184" lon="11.476191771645349"><ele>638.4</ele><time>2026-05-02T11:28:51.001Z</time></trkpt><trkpt lat="44.15348365733361" lon="11.47604692228749"><ele>637.8</ele><time>2026-05-02T11:28:52.001Z</time></trkpt><trkpt lat="44.15344303243252" lon="11.475921340572576"><ele>637.2</ele><time>2026-05-02T11:28:53.001Z</time></trkpt><trkpt lat="44.15337401561089" lon="11.475816097004044"><ele>636.6</ele><time>2026-05-02T11:28:54.002Z</time></trkpt><trkpt lat="44.15329590227504" lon="11.475733508571443"><ele>636.0</ele><time>2026-05-02T11:28:55.002Z</time></trkpt><trkpt lat="44.15321567507875" lon="11.475672191581094"><ele>632.8</ele><time>2026-05-02T11:28:56.002Z</time></trkpt><trkpt lat="44.15312898243683" lon="11.47563759161764"><ele>629.6</ele><time>2026-05-02T11:28:57.002Z</time></trkpt><trkpt lat="44.1530365464218" lon="11.475656485113243"><ele>626.4</ele><time>2026-05-02T11:28:58.002Z</time></trkpt><trkpt lat="44.15294847526466" lon="11.475701589877927"><ele>623.2</ele><time>2026-05-02T11:28:59.002Z</time></trkpt><trkpt lat="44.152861531362" lon="11.475750524678741"><ele>620.0</ele><time>2026-05-02T11:29:00.002Z</time></trkpt><trkpt lat="44.15277564155035" lon="11.475805061418225"><ele>620.0</ele><time>2026-05-02T11:29:01.002Z</time></trkpt><trkpt lat="44.15270950672328" lon="11.475891380668854"><ele>620.0</ele><time>2026-05-02T11:29:02.002Z</time></trkpt><trkpt lat="44.152669180708976" lon="11.476003255099457"><ele>620.0</ele><time>2026-05-02T11:29:03.002Z</time></trkpt><trkpt lat="44.15265316385147" lon="11.476124297969367"><ele>620.0</ele><time>2026-05-02T11:29:04.002Z</time></trkpt><trkpt lat="44.15265889619019" lon="11.476249102798562"><ele>620.0</ele><time>2026-05-02T11:29:05.002Z</time></trkpt><trkpt lat="44.15268576196912" lon="11.476380784782567"><ele>619.6</ele><time>2026-05-02T11:29:06.002Z</time></trkpt><trkpt lat="44.15272533589603" lon="11.476513417315402"><ele>619.2</ele><time>2026-05-02T11:29:07.002Z</time></trkpt><trkpt lat="44.15277169490853" lon="11.476650623194066"><ele>618.8</ele><time>2026-05-02T11:29:08.002Z</time></trkpt><trkpt lat="44.15281978942782" lon="11.476795980500507"><ele>618.4</ele><time>2026-05-02T11:29:09.002Z</time></trkpt><trkpt lat="44.152861994688436" lon="11.476937165677464"><ele>618.0</ele><time>2026-05-02T11:29:10.002Z</time></trkpt><trkpt lat="44.152894905807926" lon="11.477079760698983"><ele>617.1999999999999</ele><time>2026-05-02T11:29:11.002Z</time></trkpt><trkpt lat="44.15292326664987" lon="11.477210752524213"><ele>616.4</ele><time>2026-05-02T11:29:12.002Z</time></trkpt><trkpt lat="44.15292737886367" lon="11.47735042209359"><ele>615.5999999999999</ele><time>2026-05-02T11:29:13.002Z</time></trkpt><trkpt lat="44.1529032966903" lon="11.477491003011297"><ele>614.8</ele><time>2026-05-02T11:29:14.002Z</time></trkpt><trkpt lat="44.15286032501112" lon="11.477633391379293"><ele>614.0</ele><time>2026-05-02T11:29:15.002Z</time></trkpt><trkpt lat="44.15281166904137" lon="11.477780760582093"><ele>614.0</ele><time>2026-05-02T11:29:16.002Z</time></trkpt><trkpt lat="44.15276825922209" lon="11.47793500564504"><ele>614.0</ele><time>2026-05-02T11:29:17.002Z</time></trkpt><trkpt lat="44.152722909421875" lon="11.478093758400279"><ele>614.0</ele><time>2026-05-02T11:29:18.002Z</time></trkpt><trkpt lat="44.15267481843196" lon="11.478254922388244"><ele>614.0</ele><time>2026-05-02T11:29:19.002Z</time></trkpt><trkpt lat="44.15262500742087" lon="11.478425042696005"><ele>615.0</ele><time>2026-05-02T11:29:20.002Z</time></trkpt><trkpt lat="44.15257326724104" lon="11.478587006786254"><ele>616.0</ele><time>2026-05-02T11:29:21.002Z</time></trkpt><trkpt lat="44.152527411909574" lon="11.478743298529317"><ele>617.0</ele><time>2026-05-02T11:29:22.002Z</time></trkpt><trkpt lat="44.15248672054176" lon="11.478892339077259"><ele>618.0</ele><time>2026-05-02T11:29:23.002Z</time></trkpt><trkpt lat="44.15244894848251" lon="11.479031452619623"><ele>617.6</ele><time>2026-05-02T11:29:24.002Z</time></trkpt><trkpt lat="44.15240854145679" lon="11.479155172496457"><ele>617.1999999999999</ele><time>2026-05-02T11:29:25.002Z</time></trkpt><trkpt lat="44.1523544059503" lon="11.479253334640903"><ele>616.8</ele><time>2026-05-02T11:29:26.002Z</time></trkpt><trkpt lat="44.15228429649448" lon="11.479323464114053"><ele>616.4</ele><time>2026-05-02T11:29:27.003Z</time></trkpt><trkpt lat="44.15219992019342" lon="11.479368104169927"><ele>616.0</ele><time>2026-05-02T11:29:28.003Z</time></trkpt><trkpt lat="44.15210620256731" lon="11.479394288480254"><ele>616.0</ele><time>2026-05-02T11:29:29.003Z</time></trkpt><trkpt lat="44.15201334700133" lon="11.479414225384971"><ele>616.0</ele><time>2026-05-02T11:29:30.003Z</time></trkpt><trkpt lat="44.15191876521142" lon="11.479418451423586"><ele>616.0</ele><time>2026-05-02T11:29:31.003Z</time></trkpt><trkpt lat="44.15182979146013" lon="11.47937361338372"><ele>616.0</ele><time>2026-05-02T11:29:32.003Z</time></trkpt><trkpt lat="44.15175003813863" lon="11.479287150992985"><ele>616.0</ele><time>2026-05-02T11:29:33.003Z</time></trkpt><trkpt lat="44.15166552404603" lon="11.479200130656055"><ele>616.0</ele><time>2026-05-02T11:29:34.003Z</time></trkpt><trkpt lat="44.15156612335173" lon="11.479134252738739"><ele>616.0</ele><time>2026-05-02T11:29:35.003Z</time></trkpt><trkpt lat="44.15145185254671" lon="11.479093444831372"><ele>616.0</ele><time>2026-05-02T11:29:36.003Z</time></trkpt><trkpt lat="44.151328741449326" lon="11.479063036750086"><ele>616.0</ele><time>2026-05-02T11:29:37.003Z</time></trkpt><trkpt lat="44.15120434123237" lon="11.47902978344948"><ele>614.75</ele><time>2026-05-02T11:29:38.003Z</time></trkpt><trkpt lat="44.15107959357422" lon="11.478998024314844"><ele>613.5</ele><time>2026-05-02T11:29:39.003Z</time></trkpt><trkpt lat="44.150954696239815" lon="11.478972721972038"><ele>612.25</ele><time>2026-05-02T11:29:40.003Z</time></trkpt><trkpt lat="44.15083121013919" lon="11.478950713838582"><ele>611.0</ele><time>2026-05-02T11:29:41.003Z</time></trkpt><trkpt lat="44.150720607807926" lon="11.478930559422224"><ele>609.2</ele><time>2026-05-02T11:29:42.003Z</time></trkpt><trkpt lat="44.15061480282387" lon="11.478915741281613"><ele>607.4000000000001</ele><time>2026-05-02T11:29:43.003Z</time></trkpt><trkpt lat="44.150508828761545" lon="11.478924717139094"><ele>605.6</ele><time>2026-05-02T11:29:44.003Z</time></trkpt><trkpt lat="44.15040589314506" lon="11.478964279283487"><ele>603.8000000000001</ele><time>2026-05-02T11:29:45.003Z</time></trkpt><trkpt lat="44.15030307337265" lon="11.479040364535775"><ele>602.0</ele><time>2026-05-02T11:29:46.003Z</time></trkpt><trkpt lat="44.150203774024654" lon="11.47912249555613"><ele>602.0</ele><time>2026-05-02T11:29:47.003Z</time></trkpt><trkpt lat="44.150105651150135" lon="11.479210898096412"><ele>602.0</ele><time>2026-05-02T11:29:48.003Z</time></trkpt><trkpt lat="44.15000831075483" lon="11.479305787649437"><ele>602.0</ele><time>2026-05-02T11:29:49.003Z</time></trkpt><trkpt lat="44.14990570083816" lon="11.47940275633836"><ele>602.0</ele><time>2026-05-02T11:29:50.003Z</time></trkpt><trkpt lat="44.149802368637936" lon="11.479499249918426"><ele>602.5</ele><time>2026-05-02T11:29:51.003Z</time></trkpt><trkpt lat="44.149690994439425" lon="11.479576044306564"><ele>603.0</ele><time>2026-05-02T11:29:52.003Z</time></trkpt><trkpt lat="44.14957216338244" lon="11.479635219095437"><ele>603.5</ele><time>2026-05-02T11:29:53.003Z</time></trkpt><trkpt lat="44.14945966993785" lon="11.479691052154184"><ele>604.0</ele><time>2026-05-02T11:29:54.003Z</time></trkpt><trkpt lat="44.14934637987372" lon="11.479747772793921"><ele>604.0</ele><time>2026-05-02T11:29:55.003Z</time></trkpt><trkpt lat="44.14923213598407" lon="11.479791309789743"><ele>604.0</ele><time>2026-05-02T11:29:56.003Z</time></trkpt><trkpt lat="44.149119092908734" lon="11.479822300154627"><ele>604.0</ele><time>2026-05-02T11:29:56.999Z</time></trkpt><trkpt lat="44.14900810268842" lon="11.479848151258878"><ele>604.0</ele><time>2026-05-02T11:29:57.999Z</time></trkpt><trkpt lat="44.14890199145473" lon="11.479884476168756"><ele>600.8</ele><time>2026-05-02T11:29:59Z</time></trkpt><trkpt lat="44.14880063681509" lon="11.479934643651307"><ele>597.5999999999999</ele><time>2026-05-02T11:30:00Z</time></trkpt><trkpt lat="44.14870471297519" lon="11.479998983364336"><ele>594.4</ele><time>2026-05-02T11:30:01Z</time></trkpt><trkpt lat="44.14861864687196" lon="11.480067499816668"><ele>591.1999999999999</ele><time>2026-05-02T11:30:02Z</time></trkpt><trkpt lat="44.148548380745055" lon="11.480129766947364"><ele>588.0</ele><time>2026-05-02T11:30:03Z</time></trkpt><trkpt lat="44.14848837311517" lon="11.480177997956526"><ele>588.0</ele><time>2026-05-02T11:30:04Z</time></trkpt><trkpt lat="44.14842215796945" lon="11.480193656361095"><ele>588.0</ele><time>2026-05-02T11:30:05Z</time></trkpt><trkpt lat="44.14835635881367" lon="11.480155104381446"><ele>588.0</ele><time>2026-05-02T11:30:06Z</time></trkpt><trkpt lat="44.14831117184702" lon="11.48008379366284"><ele>588.0</ele><time>2026-05-02T11:30:07Z</time></trkpt><trkpt lat="44.148298190061645" lon="11.47998741841601"><ele>588.0</ele><time>2026-05-02T11:30:08Z</time></trkpt><trkpt lat="44.14832976610642" lon="11.47988886385212"><ele>588.0</ele><time>2026-05-02T11:30:09Z</time></trkpt><trkpt lat="44.14839423428243" lon="11.479809413774289"><ele>588.0</ele><time>2026-05-02T11:30:10Z</time></trkpt><trkpt lat="44.148474282913725" lon="11.479742122697472"><ele>588.0</ele><time>2026-05-02T11:30:11Z</time></trkpt><trkpt lat="44.14856782905763" lon="11.479670139487556"><ele>588.0</ele><time>2026-05-02T11:30:12Z</time></trkpt><trkpt lat="44.14867080563697" lon="11.47958707224151"><ele>588.0</ele><time>2026-05-02T11:30:13Z</time></trkpt><trkpt lat="44.148782767376645" lon="11.47949039046684"><ele>588.0</ele><time>2026-05-02T11:30:14Z</time></trkpt><trkpt lat="44.14889957475785" lon="11.479376970631998"><ele>588.25</ele><time>2026-05-02T11:30:15Z</time></trkpt><trkpt lat="44.149013832969615" lon="11.479260698089435"><ele>588.5</ele><time>2026-05-02T11:30:16Z</time></trkpt><trkpt lat="44.149124115401435" lon="11.479140181065674"><ele>588.75</ele><time>2026-05-02T11:30:17Z</time></trkpt><trkpt lat="44.14922826236949" lon="11.479010923635586"><ele>589.0</ele><time>2026-05-02T11:30:18Z</time></trkpt><trkpt lat="44.14932496187471" lon="11.478873634708702"><ele>583.5</ele><time>2026-05-02T11:30:19Z</time></trkpt><trkpt lat="44.14941964066498" lon="11.478741445226294"><ele>578.0</ele><time>2026-05-02T11:30:20Z</time></trkpt><trkpt lat="44.14951927849281" lon="11.478621098838458"><ele>572.5</ele><time>2026-05-02T11:30:21Z</time></trkpt><trkpt lat="44.149622738765224" lon="11.478502067023914"><ele>567.0</ele><time>2026-05-02T11:30:22Z</time></trkpt><trkpt lat="44.14972583261275" lon="11.47837620344752"><ele>567.0</ele><time>2026-05-02T11:30:23Z</time></trkpt><trkpt lat="44.149826223869226" lon="11.47823776374996"><ele>567.0</ele><time>2026-05-02T11:30:24Z</time></trkpt><trkpt lat="44.14992771894734" lon="11.47810085965055"><ele>567.0</ele><time>2026-05-02T11:30:25Z</time></trkpt><trkpt lat="44.150030856109915" lon="11.477973150445141"><ele>567.0</ele><time>2026-05-02T11:30:26Z</time></trkpt><trkpt lat="44.15014264374587" lon="11.477860549050638"><ele>566.0</ele><time>2026-05-02T11:30:27Z</time></trkpt><trkpt lat="44.150252772220625" lon="11.477756292022551"><ele>565.0</ele><time>2026-05-02T11:30:28Z</time></trkpt><trkpt lat="44.15035450472301" lon="11.477659944228852"><ele>564.0</ele><time>2026-05-02T11:30:29Z</time></trkpt><trkpt lat="44.15045242550372" lon="11.477573074930191"><ele>563.0</ele><time>2026-05-02T11:30:30Z</time></trkpt><trkpt lat="44.15055849474204" lon="11.477516867434009"><ele>563.0</ele><time>2026-05-02T11:30:31.001Z</time></trkpt><trkpt lat="44.15067208830057" lon="11.477479841361498"><ele>563.0</ele><time>2026-05-02T11:30:32.001Z</time></trkpt><trkpt lat="44.15079562262524" lon="11.47745801177956"><ele>563.0</ele><time>2026-05-02T11:30:33.001Z</time></trkpt><trkpt lat="44.1509159281774" lon="11.477436488147676"><ele>563.0</ele><time>2026-05-02T11:30:34.001Z</time></trkpt><trkpt lat="44.15102606841796" lon="11.477387271447741"><ele>565.75</ele><time>2026-05-02T11:30:35.001Z</time></trkpt><trkpt lat="44.151127838180784" lon="11.477304678748094"><ele>568.5</ele><time>2026-05-02T11:30:36.001Z</time></trkpt><trkpt lat="44.151227121745436" lon="11.477202761046854"><ele>571.25</ele><time>2026-05-02T11:30:37.001Z</time></trkpt><trkpt lat="44.15131170150518" lon="11.477102731376528"><ele>574.0</ele><time>2026-05-02T11:30:38.001Z</time></trkpt><trkpt lat="44.151387479868205" lon="11.47701634963427"><ele>574.8333333333334</ele><time>2026-05-02T11:30:39.001Z</time></trkpt><trkpt lat="44.15144791023334" lon="11.476931281449103"><ele>575.6666666666667</ele><time>2026-05-02T11:30:40.001Z</time></trkpt><trkpt lat="44.15149328438202" lon="11.47686489562064"><ele>576.5</ele><time>2026-05-02T11:30:41.001Z</time></trkpt><trkpt lat="44.15155427963119" lon="11.476763096328591"><ele>577.3333333333334</ele><time>2026-05-02T11:30:43.001Z</time></trkpt><trkpt lat="44.151559918948834" lon="11.47664033125951"><ele>578.1666666666666</ele><time>2026-05-02T11:31:06.002Z</time></trkpt><trkpt lat="44.15157145226742" lon="11.476515384928144"><ele>579.0</ele><time>2026-05-02T11:31:08.002Z</time></trkpt><trkpt lat="44.15157115058557" lon="11.47641480317388"><ele>579.0</ele><time>2026-05-02T11:31:09.002Z</time></trkpt><trkpt lat="44.151566259555175" lon="11.476315837336617"><ele>579.0</ele><time>2026-05-02T11:31:10.002Z</time></trkpt><trkpt lat="44.15155939380596" lon="11.476204394913566"><ele>579.0</ele><time>2026-05-02T11:31:11.002Z</time></trkpt><trkpt lat="44.151550395341694" lon="11.476082861549846"><ele>579.0</ele><time>2026-05-02T11:31:12.002Z</time></trkpt><trkpt lat="44.15154204049413" lon="11.475953237848174"><ele>579.0</ele><time>2026-05-02T11:31:13.002Z</time></trkpt><trkpt lat="44.15153577598672" lon="11.47582348906156"><ele>579.0</ele><time>2026-05-02T11:31:14.002Z</time></trkpt><trkpt lat="44.151529409699535" lon="11.475698924456882"><ele>570.2</ele><time>2026-05-02T11:31:15.002Z</time></trkpt><trkpt lat="44.151521607306584" lon="11.475575953952106"><ele>561.4</ele><time>2026-05-02T11:31:16.002Z</time></trkpt><trkpt lat="44.15151153696704" lon="11.47544722880819"><ele>552.6</ele><time>2026-05-02T11:31:17.002Z</time></trkpt><trkpt lat="44.151500860279114" lon="11.475310812107416"><ele>543.8</ele><time>2026-05-02T11:31:18.002Z</time></trkpt><trkpt lat="44.15149076253561" lon="11.47517311526817"><ele>535.0</ele><time>2026-05-02T11:31:19.002Z</time></trkpt><trkpt lat="44.1514759869953" lon="11.475030857857995"><ele>533.6</ele><time>2026-05-02T11:31:20.002Z</time></trkpt><trkpt lat="44.15146131964832" lon="11.474884522479183"><ele>532.2</ele><time>2026-05-02T11:31:21.002Z</time></trkpt><trkpt lat="44.151444371256595" lon="11.474735290969322"><ele>530.8</ele><time>2026-05-02T11:31:22.002Z</time></trkpt><trkpt lat="44.15142058039634" lon="11.474582664508993"><ele>529.4</ele><time>2026-05-02T11:31:23.002Z</time></trkpt><trkpt lat="44.15138945932868" lon="11.474429945184681"><ele>528.0</ele><time>2026-05-02T11:31:24.002Z</time></trkpt><trkpt lat="44.1513533012247" lon="11.474271065171749"><ele>528.0</ele><time>2026-05-02T11:31:25.002Z</time></trkpt><trkpt lat="44.15132239047481" lon="11.47410441431769"><ele>528.0</ele><time>2026-05-02T11:31:26.002Z</time></trkpt><trkpt lat="44.15129305273464" lon="11.47393249703982"><ele>528.0</ele><time>2026-05-02T11:31:27.002Z</time></trkpt><trkpt lat="44.1512642831303" lon="11.473756814275712"><ele>528.0</ele><time>2026-05-02T11:31:28.002Z</time></trkpt><trkpt lat="44.15123697713496" lon="11.473583895349856"><ele>529.75</ele><time>2026-05-02T11:31:29.002Z</time></trkpt><trkpt lat="44.1512099337327" lon="11.473408934495888"><ele>531.5</ele><time>2026-05-02T11:31:30.002Z</time></trkpt><trkpt lat="44.151182760165675" lon="11.47323516195316"><ele>533.25</ele><time>2026-05-02T11:31:31.002Z</time></trkpt><trkpt lat="44.15115397068129" lon="11.473066985495525"><ele>535.0</ele><time>2026-05-02T11:31:32.002Z</time></trkpt><trkpt lat="44.151120465601096" lon="11.472901120099671"><ele>537.75</ele><time>2026-05-02T11:31:33.002Z</time></trkpt><trkpt lat="44.151084988944724" lon="11.472739806424155"><ele>540.5</ele><time>2026-05-02T11:31:34.002Z</time></trkpt><trkpt lat="44.15104285175907" lon="11.472580146227553"><ele>543.25</ele><time>2026-05-02T11:31:35.003Z</time></trkpt><trkpt lat="44.15099044046973" lon="11.472435061954199"><ele>546.0</ele><time>2026-05-02T11:31:36.003Z</time></trkpt><trkpt lat="44.15093233172197" lon="11.47230314999514"><ele>546.0</ele><time>2026-05-02T11:31:37.003Z</time></trkpt><trkpt lat="44.15086428575038" lon="11.472192756231557"><ele>546.0</ele><time>2026-05-02T11:31:38.003Z</time></trkpt><trkpt lat="44.1507949093852" lon="11.472100987794047"><ele>546.0</ele><time>2026-05-02T11:31:39.003Z</time></trkpt><trkpt lat="44.15073226062562" lon="11.472012513965828"><ele>546.0</ele><time>2026-05-02T11:31:40.003Z</time></trkpt><trkpt lat="44.150678888309514" lon="11.471915389558525"><ele>546.0</ele><time>2026-05-02T11:31:41.003Z</time></trkpt><trkpt lat="44.15064011015558" lon="11.471804961662446"><ele>545.1666666666666</ele><time>2026-05-02T11:31:42.003Z</time></trkpt><trkpt lat="44.150621377377576" lon="11.471689651701038"><ele>544.3333333333334</ele><time>2026-05-02T11:31:43.003Z</time></trkpt><trkpt lat="44.150618062654715" lon="11.471579473078934"><ele>543.5</ele><time>2026-05-02T11:31:44.003Z</time></trkpt><trkpt lat="44.15062657486385" lon="11.471467765420606"><ele>542.6666666666667</ele><time>2026-05-02T11:31:45.003Z</time></trkpt><trkpt lat="44.150661148291924" lon="11.471355611439577"><ele>541.8333333333334</ele><time>2026-05-02T11:31:46.003Z</time></trkpt><trkpt lat="44.15071048899728" lon="11.471240931411206"><ele>541.0</ele><time>2026-05-02T11:31:47.003Z</time></trkpt><trkpt lat="44.15077324985098" lon="11.471125610076678"><ele>541.0</ele><time>2026-05-02T11:31:48.003Z</time></trkpt><trkpt lat="44.150845119782716" lon="11.471004254086091"><ele>541.0</ele><time>2026-05-02T11:31:49.003Z</time></trkpt><trkpt lat="44.150922183256" lon="11.47087318409846"><ele>541.0</ele><time>2026-05-02T11:31:50.003Z</time></trkpt><trkpt lat="44.150998301844" lon="11.470733660128294"><ele>541.0</ele><time>2026-05-02T11:31:51.003Z</time></trkpt><trkpt lat="44.15108211510316" lon="11.470593567703913"><ele>541.0</ele><time>2026-05-02T11:31:52.003Z</time></trkpt><trkpt lat="44.151164640846346" lon="11.47045976454337"><ele>541.0</ele><time>2026-05-02T11:31:53.003Z</time></trkpt><trkpt lat="44.15124140477607" lon="11.47032352396371"><ele>541.0</ele><time>2026-05-02T11:31:54.003Z</time></trkpt><trkpt lat="44.15131342520507" lon="11.470197484457678"><ele>541.0</ele><time>2026-05-02T11:31:55.003Z</time></trkpt><trkpt lat="44.15138719817029" lon="11.470079096350567"><ele>541.6</ele><time>2026-05-02T11:31:56.003Z</time></trkpt><trkpt lat="44.15145519906192" lon="11.46996391917789"><ele>542.2</ele><time>2026-05-02T11:31:57.003Z</time></trkpt><trkpt lat="44.15152246105374" lon="11.469861371928609"><ele>542.8</ele><time>2026-05-02T11:31:58.003Z</time></trkpt><trkpt lat="44.1515995415702" lon="11.4697850216325"><ele>543.4</ele><time>2026-05-02T11:31:59.003Z</time></trkpt><trkpt lat="44.151680340278524" lon="11.469745968614024"><ele>544.0</ele><time>2026-05-02T11:32:00.003Z</time></trkpt><trkpt lat="44.151761730905804" lon="11.469748347142994"><ele>544.0</ele><time>2026-05-02T11:32:01.003Z</time></trkpt><trkpt lat="44.15183748913213" lon="11.469786252514297"><ele>544.0</ele><time>2026-05-02T11:32:02.003Z</time></trkpt><trkpt lat="44.15190500271772" lon="11.469855239877678"><ele>544.0</ele><time>2026-05-02T11:32:02.999Z</time></trkpt><trkpt lat="44.15195102046356" lon="11.469954766209458"><ele>544.0</ele><time>2026-05-02T11:32:03.999Z</time></trkpt><trkpt lat="44.15198371635687" lon="11.470055989846575"><ele>544.0</ele><time>2026-05-02T11:32:05Z</time></trkpt><trkpt lat="44.15201570236169" lon="11.470172377763951"><ele>544.0</ele><time>2026-05-02T11:32:06Z</time></trkpt><trkpt lat="44.15204222534522" lon="11.470293529456992"><ele>544.0</ele><time>2026-05-02T11:32:07Z</time></trkpt><trkpt lat="44.15206193594692" lon="11.470424276025486"><ele>544.0</ele><time>2026-05-02T11:32:08Z</time></trkpt><trkpt lat="44.15208014038258" lon="11.470561502685408"><ele>544.0</ele><time>2026-05-02T11:32:09Z</time></trkpt><trkpt lat="44.15211275382449" lon="11.470699618234123"><ele>544.0</ele><time>2026-05-02T11:32:10Z</time></trkpt><trkpt lat="44.15216673625534" lon="11.470829942122604"><ele>544.0</ele><time>2026-05-02T11:32:11Z</time></trkpt><trkpt lat="44.15224775143425" lon="11.4709512923337"><ele>543.0</ele><time>2026-05-02T11:32:12Z</time></trkpt><trkpt lat="44.152344901812846" lon="11.47104902431229"><ele>542.0</ele><time>2026-05-02T11:32:13Z</time></trkpt><trkpt lat="44.15245808540171" lon="11.47112380853793"><ele>541.0</ele><time>2026-05-02T11:32:14Z</time></trkpt><trkpt lat="44.152584847276586" lon="11.471176677110181"><ele>540.0</ele><time>2026-05-02T11:32:15Z</time></trkpt><trkpt lat="44.152718038077666" lon="11.471219523388346"><ele>540.0</ele><time>2026-05-02T11:32:16Z</time></trkpt><trkpt lat="44.15285011060292" lon="11.471257969325507"><ele>540.0</ele><time>2026-05-02T11:32:17Z</time></trkpt><trkpt lat="44.152973285358705" lon="11.471296462746247"><ele>540.0</ele><time>2026-05-02T11:32:18Z</time></trkpt><trkpt lat="44.15309197061146" lon="11.471338455114244"><ele>540.0</ele><time>2026-05-02T11:32:19Z</time></trkpt><trkpt lat="44.153210702424815" lon="11.471395655217858"><ele>540.5</ele><time>2026-05-02T11:32:20Z</time></trkpt><trkpt lat="44.15333259887448" lon="11.47147008360679"><ele>541.0</ele><time>2026-05-02T11:32:21Z</time></trkpt><trkpt lat="44.153454589897784" lon="11.471558737328175"><ele>541.5</ele><time>2026-05-02T11:32:22Z</time></trkpt><trkpt lat="44.153573739298814" lon="11.471639965973282"><ele>542.0</ele><time>2026-05-02T11:32:23Z</time></trkpt><trkpt lat="44.153691486345295" lon="11.471718554082296"><ele>542.0</ele><time>2026-05-02T11:32:24Z</time></trkpt><trkpt lat="44.15379794758171" lon="11.471806774444563"><ele>542.0</ele><time>2026-05-02T11:32:25Z</time></trkpt><trkpt lat="44.15388810202521" lon="11.471905730996461"><ele>542.0</ele><time>2026-05-02T11:32:26Z</time></trkpt><trkpt lat="44.15396268799887" lon="11.472011769493042"><ele>542.0</ele><time>2026-05-02T11:32:27Z</time></trkpt><trkpt lat="44.154045273199166" lon="11.472104154183365"><ele>543.5</ele><time>2026-05-02T11:32:28Z</time></trkpt><trkpt lat="44.15414791835223" lon="11.472168365171063"><ele>545.0</ele><time>2026-05-02T11:32:29Z</time></trkpt><trkpt lat="44.15427195280196" lon="11.47218300319858"><ele>546.5</ele><time>2026-05-02T11:32:30Z</time></trkpt><trkpt lat="44.154398854720654" lon="11.472182494601036"><ele>548.0</ele><time>2026-05-02T11:32:31Z</time></trkpt><trkpt lat="44.15452829458136" lon="11.472187775180327"><ele>548.0</ele><time>2026-05-02T11:32:32Z</time></trkpt><trkpt lat="44.15465035107922" lon="11.472193947923184"><ele>548.0</ele><time>2026-05-02T11:32:33Z</time></trkpt><trkpt lat="44.15477399161809" lon="11.472175563209046"><ele>548.0</ele><time>2026-05-02T11:32:34Z</time></trkpt><trkpt lat="44.154894754586245" lon="11.472128458945752"><ele>548.0</ele><time>2026-05-02T11:32:35.001Z</time></trkpt><trkpt lat="44.15500336944188" lon="11.472038465369096"><ele>543.0</ele><time>2026-05-02T11:32:36.001Z</time></trkpt><trkpt lat="44.1551043277729" lon="11.471923208360886"><ele>538.0</ele><time>2026-05-02T11:32:37.001Z</time></trkpt><trkpt lat="44.15519143254335" lon="11.471807183886042"><ele>533.0</ele><time>2026-05-02T11:32:38.001Z</time></trkpt><trkpt lat="44.15527311333347" lon="11.471708219103567"><ele>528.0</ele><time>2026-05-02T11:32:39.001Z</time></trkpt><trkpt lat="44.15535294314688" lon="11.471628643763294"><ele>528.0</ele><time>2026-05-02T11:32:40.001Z</time></trkpt><trkpt lat="44.15543695923494" lon="11.471578026037717"><ele>528.0</ele><time>2026-05-02T11:32:41.001Z</time></trkpt><trkpt lat="44.155517471490455" lon="11.4715729976236"><ele>528.0</ele><time>2026-05-02T11:32:42.001Z</time></trkpt><trkpt lat="44.15558806343653" lon="11.47163019939896"><ele>528.0</ele><time>2026-05-02T11:32:43.001Z</time></trkpt><trkpt lat="44.15564377817915" lon="11.471728218171735"><ele>528.0</ele><time>2026-05-02T11:32:44.001Z</time></trkpt><trkpt lat="44.15567593978028" lon="11.471854275755767"><ele>528.0</ele><time>2026-05-02T11:32:45.001Z</time></trkpt><trkpt lat="44.15569933269297" lon="11.471969737877908"><ele>529.1666666666666</ele><time>2026-05-02T11:32:46.001Z</time></trkpt><trkpt lat="44.15572625097495" lon="11.47208035320136"><ele>530.3333333333334</ele><time>2026-05-02T11:32:47.001Z</time></trkpt><trkpt lat="44.15576206749482" lon="11.472180285904674"><ele>531.5</ele><time>2026-05-02T11:32:48.001Z</time></trkpt><trkpt lat="44.15581308354762" lon="11.472265689608694"><ele>532.6666666666667</ele><time>2026-05-02T11:32:49.001Z</time></trkpt><trkpt lat="44.15588443289822" lon="11.472339981358997"><ele>533.8333333333334</ele><time>2026-05-02T11:32:50.001Z</time></trkpt><trkpt lat="44.15597557532864" lon="11.47239846709699"><ele>535.0</ele><time>2026-05-02T11:32:51.001Z</time></trkpt><trkpt lat="44.156075877132984" lon="11.47245683910601"><ele>535.0</ele><time>2026-05-02T11:32:52.001Z</time></trkpt><trkpt lat="44.156168389042385" lon="11.472519363312843"><ele>535.0</ele><time>2026-05-02T11:32:53.001Z</time></trkpt><trkpt lat="44.156254040346546" lon="11.472589802847898"><ele>535.0</ele><time>2026-05-02T11:32:54.001Z</time></trkpt><trkpt lat="44.15633117861929" lon="11.472673536357869"><ele>535.0</ele><time>2026-05-02T11:32:55.001Z</time></trkpt><trkpt lat="44.15639094963225" lon="11.472785855292198"><ele>535.0</ele><time>2026-05-02T11:32:56.001Z</time></trkpt><trkpt lat="44.15642276344857" lon="11.472914814433622"><ele>536.0</ele><time>2026-05-02T11:32:57.001Z</time></trkpt><trkpt lat="44.15642550912376" lon="11.473052309007485"><ele>537.0</ele><time>2026-05-02T11:32:58.001Z</time></trkpt><trkpt lat="44.15640530279568" lon="11.4731898069182"><ele>538.0</ele><time>2026-05-02T11:32:59.001Z</time></trkpt><trkpt lat="44.156379376822706" lon="11.473324342301629"><ele>539.0</ele><time>2026-05-02T11:33:00.001Z</time></trkpt><trkpt lat="44.15635719507264" lon="11.47346082437723"><ele>540.0</ele><time>2026-05-02T11:33:01.001Z</time></trkpt><trkpt lat="44.15634088615064" lon="11.47359360640014"><ele>540.0</ele><time>2026-05-02T11:33:02.001Z</time></trkpt><trkpt lat="44.15634131171542" lon="11.47371085597797"><ele>540.0</ele><time>2026-05-02T11:33:03.001Z</time></trkpt><trkpt lat="44.15635863112917" lon="11.473817316378616"><ele>540.0</ele><time>2026-05-02T11:33:04.001Z</time></trkpt><trkpt lat="44.156374441673755" lon="11.47392027229674"><ele>540.0</ele><time>2026-05-02T11:33:05.002Z</time></trkpt><trkpt lat="44.156390637760296" lon="11.474029999273002"><ele>540.0</ele><time>2026-05-02T11:33:06.002Z</time></trkpt><trkpt lat="44.156400241847" lon="11.474142447127429"><ele>540.0</ele><time>2026-05-02T11:33:07.002Z</time></trkpt><trkpt lat="44.156405527184674" lon="11.47424919472895"><ele>540.0</ele><time>2026-05-02T11:33:08.002Z</time></trkpt><trkpt lat="44.15641816124185" lon="11.474360926408027"><ele>540.0</ele><time>2026-05-02T11:33:09.002Z</time></trkpt><trkpt lat="44.15643977697074" lon="11.474473588235117"><ele>540.0</ele><time>2026-05-02T11:33:10.002Z</time></trkpt><trkpt lat="44.15646808448699" lon="11.47459883921542"><ele>540.0</ele><time>2026-05-02T11:33:11.002Z</time></trkpt><trkpt lat="44.15649854400525" lon="11.474730901409568"><ele>540.0</ele><time>2026-05-02T11:33:12.002Z</time></trkpt><trkpt lat="44.1565323335612" lon="11.474872014884152"><ele>535.4</ele><time>2026-05-02T11:33:13.002Z</time></trkpt><trkpt lat="44.15657279825406" lon="11.475006410310858"><ele>530.8</ele><time>2026-05-02T11:33:14.002Z</time></trkpt><trkpt lat="44.15662351598418" lon="11.475130749667539"><ele>526.2</ele><time>2026-05-02T11:33:15.002Z</time></trkpt><trkpt lat="44.15669190014304" lon="11.475241729010843"><ele>521.6</ele><time>2026-05-02T11:33:16.002Z</time></trkpt><trkpt lat="44.15679501578452" lon="11.475328908398641"><ele>517.0</ele><time>2026-05-02T11:33:17.002Z</time></trkpt><trkpt lat="44.15688937798471" lon="11.475430971864292"><ele>519.75</ele><time>2026-05-02T11:33:18.002Z</time></trkpt><trkpt lat="44.15697932492252" lon="11.475566052377792"><ele>522.5</ele><time>2026-05-02T11:33:19.002Z</time></trkpt><trkpt lat="44.157055673670676" lon="11.475708347310011"><ele>525.25</ele><time>2026-05-02T11:33:20.002Z</time></trkpt><trkpt lat="44.15712579025858" lon="11.47585310833796"><ele>528.0</ele><time>2026-05-02T11:33:21.002Z</time></trkpt><trkpt lat="44.15719999258781" lon="11.475980083218785"><ele>528.0</ele><time>2026-05-02T11:33:22.002Z</time></trkpt><trkpt lat="44.157281986696695" lon="11.476089444621884"><ele>528.0</ele><time>2026-05-02T11:33:23.002Z</time></trkpt><trkpt lat="44.157378943307265" lon="11.47616510449842"><ele>528.0</ele><time>2026-05-02T11:33:24.002Z</time></trkpt><trkpt lat="44.15748159424815" lon="11.476226487977579"><ele>528.0</ele><time>2026-05-02T11:33:25.002Z</time></trkpt><trkpt lat="44.15757541709884" lon="11.476284655786696"><ele>528.0</ele><time>2026-05-02T11:33:26.002Z</time></trkpt><trkpt lat="44.157665014504396" lon="11.476348192958488"><ele>526.3333333333334</ele><time>2026-05-02T11:33:27.002Z</time></trkpt><trkpt lat="44.15774989389019" lon="11.476407759325474"><ele>524.6666666666666</ele><time>2026-05-02T11:33:28.002Z</time></trkpt><trkpt lat="44.157829106419754" lon="11.476462721700006"><ele>523.0</ele><time>2026-05-02T11:33:29.002Z</time></trkpt><trkpt lat="44.15790220104456" lon="11.476505548115865"><ele>521.3333333333333</ele><time>2026-05-02T11:33:30.002Z</time></trkpt><trkpt lat="44.157979650735726" lon="11.4765145556808"><ele>519.6666666666666</ele><time>2026-05-02T11:33:31.002Z</time></trkpt><trkpt lat="44.15804944938212" lon="11.476476570925497"><ele>518.0</ele><time>2026-05-02T11:33:32.002Z</time></trkpt><trkpt lat="44.15809549346845" lon="11.47639985389328"><ele>518.0</ele><time>2026-05-02T11:33:33.002Z</time></trkpt><trkpt lat="44.158125452183945" lon="11.47630184267961"><ele>518.0</ele><time>2026-05-02T11:33:34.002Z</time></trkpt><trkpt lat="44.15812968986989" lon="11.4761888994315"><ele>518.0</ele><time>2026-05-02T11:33:35.002Z</time></trkpt><trkpt lat="44.15810263312328" lon="11.4760788269769"><ele>518.0</ele><time>2026-05-02T11:33:36.002Z</time></trkpt><trkpt lat="44.15803915484399" lon="11.47599172442147"><ele>518.0</ele><time>2026-05-02T11:33:37.002Z</time></trkpt><trkpt lat="44.157965693822014" lon="11.475936715334626"><ele>518.0</ele><time>2026-05-02T11:33:38.003Z</time></trkpt><trkpt lat="44.157876643607494" lon="11.475900516535322"><ele>515.1999999999999</ele><time>2026-05-02T11:33:39.003Z</time></trkpt><trkpt lat="44.1577854314346" lon="11.47585947354929"><ele>512.4</ele><time>2026-05-02T11:33:40.003Z</time></trkpt><trkpt lat="44.15769343756046" lon="11.475808323819678"><ele>509.59999999999997</ele><time>2026-05-02T11:33:41.003Z</time></trkpt><trkpt lat="44.15759942567791" lon="11.475759237239304"><ele>506.79999999999995</ele><time>2026-05-02T11:33:42.003Z</time></trkpt><trkpt lat="44.15750639061558" lon="11.47570890858939"><ele>504.0</ele><time>2026-05-02T11:33:43.003Z</time></trkpt><trkpt lat="44.1574181877072" lon="11.47563938876743"><ele>506.6</ele><time>2026-05-02T11:33:44.003Z</time></trkpt><trkpt lat="44.15734044010856" lon="11.475550705407807"><ele>509.2</ele><time>2026-05-02T11:33:45.003Z</time></trkpt><trkpt lat="44.15727383671512" lon="11.475455127601343"><ele>511.80000000000007</ele><time>2026-05-02T11:33:46.003Z</time></trkpt><trkpt lat="44.15722331397164" lon="11.475347684366543"><ele>514.4</ele><time>2026-05-02T11:33:47.003Z</time></trkpt><trkpt lat="44.15719377676822" lon="11.475214677235385"><ele>517.0</ele><time>2026-05-02T11:33:48.003Z</time></trkpt><trkpt lat="44.157181879686235" lon="11.475059413458883"><ele>517.0</ele><time>2026-05-02T11:33:49.003Z</time></trkpt><trkpt lat="44.157176392263665" lon="11.474896543992223"><ele>517.0</ele><time>2026-05-02T11:33:50.003Z</time></trkpt><trkpt lat="44.15717470073049" lon="11.47473019801292"><ele>517.0</ele><time>2026-05-02T11:33:51.003Z</time></trkpt><trkpt lat="44.157175916770434" lon="11.474567638097191"><ele>517.0</ele><time>2026-05-02T11:33:52.003Z</time></trkpt><trkpt lat="44.157181551707396" lon="11.474407274639221"><ele>515.8000000000001</ele><time>2026-05-02T11:33:53.003Z</time></trkpt><trkpt lat="44.15718979896504" lon="11.474248123914892"><ele>514.6</ele><time>2026-05-02T11:33:54.003Z</time></trkpt><trkpt lat="44.15720046062514" lon="11.474092323447708"><ele>513.4000000000001</ele><time>2026-05-02T11:33:55.003Z</time></trkpt><trkpt lat="44.157214180309104" lon="11.473938453229739"><ele>512.2</ele><time>2026-05-02T11:33:56.003Z</time></trkpt><trkpt lat="44.15722145401641" lon="11.473788392709373"><ele>511.0</ele><time>2026-05-02T11:33:57.003Z</time></trkpt><trkpt lat="44.157210879948884" lon="11.47364177106116"><ele>510.6</ele><time>2026-05-02T11:33:58.003Z</time></trkpt><trkpt lat="44.15716954030329" lon="11.473505559699632"><ele>510.20000000000005</ele><time>2026-05-02T11:33:59.003Z</time></trkpt><trkpt lat="44.15712705587956" lon="11.473380434030476"><ele>509.79999999999995</ele><time>2026-05-02T11:34:00.003Z</time></trkpt><trkpt lat="44.157108761402036" lon="11.47325221570829"><ele>509.4</ele><time>2026-05-02T11:34:01.003Z</time></trkpt><trkpt lat="44.15712677531146" lon="11.473124937544666"><ele>509.0</ele><time>2026-05-02T11:34:02.003Z</time></trkpt><trkpt lat="44.15718111549199" lon="11.473003281824726"><ele>508.4</ele><time>2026-05-02T11:34:03.003Z</time></trkpt><trkpt lat="44.157253283046856" lon="11.472879490323942"><ele>507.79999999999995</ele><time>2026-05-02T11:34:04.003Z</time></trkpt><trkpt lat="44.157318437953265" lon="11.472758453077292"><ele>507.20000000000005</ele><time>2026-05-02T11:34:05.003Z</time></trkpt><trkpt lat="44.157380920480804" lon="11.472637636535826"><ele>506.6</ele><time>2026-05-02T11:34:06.003Z</time></trkpt><trkpt lat="44.15743715536257" lon="11.472513326464325"><ele>506.0</ele><time>2026-05-02T11:34:07.003Z</time></trkpt><trkpt lat="44.15747931735915" lon="11.472381034919303"><ele>499.25</ele><time>2026-05-02T11:34:08.003Z</time></trkpt><trkpt lat="44.15750799500423" lon="11.472222011188276"><ele>492.5</ele><time>2026-05-02T11:34:09Z</time></trkpt><trkpt lat="44.15751964495589" lon="11.472054410897012"><ele>485.75</ele><time>2026-05-02T11:34:10Z</time></trkpt><trkpt lat="44.15752074428572" lon="11.471891644156806"><ele>479.0</ele><time>2026-05-02T11:34:11Z</time></trkpt><trkpt lat="44.1575217692661" lon="11.471736321044371"><ele>477.75</ele><time>2026-05-02T11:34:12Z</time></trkpt><trkpt lat="44.15750530240671" lon="11.47158712484632"><ele>476.5</ele><time>2026-05-02T11:34:13Z</time></trkpt><trkpt lat="44.157453631800735" lon="11.47145339526089"><ele>475.25</ele><time>2026-05-02T11:34:14Z</time></trkpt><trkpt lat="44.15737646461909" lon="11.471338120431293"><ele>474.0</ele><time>2026-05-02T11:34:15Z</time></trkpt><trkpt lat="44.157274290482015" lon="11.471241537908089"><ele>473.25</ele><time>2026-05-02T11:34:16Z</time></trkpt><trkpt lat="44.15716180656379" lon="11.471158090859845"><ele>472.5</ele><time>2026-05-02T11:34:17Z</time></trkpt><trkpt lat="44.157050577019355" lon="11.471077679323058"><ele>471.75</ele><time>2026-05-02T11:34:18Z</time></trkpt><trkpt lat="44.15693800086424" lon="11.470986991255787"><ele>471.0</ele><time>2026-05-02T11:34:19Z</time></trkpt><trkpt lat="44.156823360538496" lon="11.470887668800007"><ele>471.0</ele><time>2026-05-02T11:34:20Z</time></trkpt><trkpt lat="44.15670855039247" lon="11.470788932652818"><ele>471.0</ele><time>2026-05-02T11:34:21Z</time></trkpt><trkpt lat="44.15659480302334" lon="11.470686525638328"><ele>471.0</ele><time>2026-05-02T11:34:22Z</time></trkpt><trkpt lat="44.15648224332513" lon="11.470578876424314"><ele>471.0</ele><time>2026-05-02T11:34:23Z</time></trkpt><trkpt lat="44.15636924852755" lon="11.470470390182987"><ele>471.25</ele><time>2026-05-02T11:34:24Z</time></trkpt><trkpt lat="44.15626113453413" lon="11.470357754954026"><ele>471.5</ele><time>2026-05-02T11:34:25Z</time></trkpt><trkpt lat="44.15616123065574" lon="11.47022436572376"><ele>471.75</ele><time>2026-05-02T11:34:26Z</time></trkpt><trkpt lat="44.15607536982983" lon="11.4700626752591"><ele>472.0</ele><time>2026-05-02T11:34:27Z</time></trkpt><trkpt lat="44.15599605008753" lon="11.469891961767534"><ele>472.0</ele><time>2026-05-02T11:34:28Z</time></trkpt><trkpt lat="44.15591217826064" lon="11.469730401221895"><ele>472.0</ele><time>2026-05-02T11:34:29Z</time></trkpt><trkpt lat="44.15582555531606" lon="11.469573715482099"><ele>472.0</ele><time>2026-05-02T11:34:30Z</time></trkpt><trkpt lat="44.155739580120375" lon="11.469427722289373"><ele>472.0</ele><time>2026-05-02T11:34:31Z</time></trkpt><trkpt lat="44.15565803187782" lon="11.46929129370098"><ele>470.6</ele><time>2026-05-02T11:34:32Z</time></trkpt><trkpt lat="44.155585969735455" lon="11.469167726638437"><ele>469.20000000000005</ele><time>2026-05-02T11:34:33Z</time></trkpt><trkpt lat="44.155525047310384" lon="11.469046886672645"><ele>467.8</ele><time>2026-05-02T11:34:34Z</time></trkpt><trkpt lat="44.15548128309327" lon="11.468926059189744"><ele>466.4</ele><time>2026-05-02T11:34:35Z</time></trkpt><trkpt lat="44.15545910427326" lon="11.468791738779997"><ele>465.0</ele><time>2026-05-02T11:34:36Z</time></trkpt><trkpt lat="44.15547403714578" lon="11.468644603770192"><ele>461.8</ele><time>2026-05-02T11:34:37Z</time></trkpt><trkpt lat="44.15552394488378" lon="11.468514632783743"><ele>458.6</ele><time>2026-05-02T11:34:38Z</time></trkpt><trkpt lat="44.15560832857039" lon="11.468406952461223"><ele>455.4</ele><time>2026-05-02T11:34:39Z</time></trkpt><trkpt lat="44.15570187017715" lon="11.468320883400372"><ele>452.2</ele><time>2026-05-02T11:34:40Z</time></trkpt><trkpt lat="44.155808574429905" lon="11.468256467239257"><ele>449.0</ele><time>2026-05-02T11:34:41.001Z</time></trkpt><trkpt lat="44.15591772096133" lon="11.468234904574462"><ele>447.0</ele><time>2026-05-02T11:34:42.001Z</time></trkpt><trkpt lat="44.15602798090223" lon="11.468257658671824"><ele>445.0</ele><time>2026-05-02T11:34:43.001Z</time></trkpt><trkpt lat="44.156139145820624" lon="11.468312487216547"><ele>443.0</ele><time>2026-05-02T11:34:44.001Z</time></trkpt><trkpt lat="44.15624928155171" lon="11.468399496204938"><ele>441.0</ele><time>2026-05-02T11:34:45.001Z</time></trkpt><trkpt lat="44.15635927143374" lon="11.468512734231828"><ele>441.0</ele><time>2026-05-02T11:34:46.001Z</time></trkpt><trkpt lat="44.156458009798754" lon="11.46862971490433"><ele>441.0</ele><time>2026-05-02T11:34:47.001Z</time></trkpt><trkpt lat="44.15656064306293" lon="11.468740493435503"><ele>441.0</ele><time>2026-05-02T11:34:48.001Z</time></trkpt><trkpt lat="44.15664157231563" lon="11.468862664280678"><ele>441.0</ele><time>2026-05-02T11:34:49.001Z</time></trkpt><trkpt lat="44.15669656095772" lon="11.469006005077798"><ele>440.6</ele><time>2026-05-02T11:34:50.001Z</time></trkpt><trkpt lat="44.15672702269535" lon="11.469154381477273"><ele>440.20000000000005</ele><time>2026-05-02T11:34:51.001Z</time></trkpt><trkpt lat="44.15675055874814" lon="11.469284073327678"><ele>439.79999999999995</ele><time>2026-05-02T11:34:52.001Z</time></trkpt><trkpt lat="44.15678782511883" lon="11.469392945977647"><ele>439.4</ele><time>2026-05-02T11:34:53.001Z</time></trkpt><trkpt lat="44.156843440877054" lon="11.469466126700736"><ele>439.0</ele><time>2026-05-02T11:34:54.001Z</time></trkpt><trkpt lat="44.156922008043395" lon="11.469505494382735"><ele>439.00000000000006</ele><time>2026-05-02T11:34:55.001Z</time></trkpt><trkpt lat="44.15700198910147" lon="11.46950757797193"><ele>439.0</ele><time>2026-05-02T11:34:56.001Z</time></trkpt><trkpt lat="44.157063638456876" lon="11.469448540543635"><ele>439.0</ele><time>2026-05-02T11:34:57.001Z</time></trkpt><trkpt lat="44.15709507358307" lon="11.469353314619937"><ele>439.0</ele><time>2026-05-02T11:34:58.001Z</time></trkpt><trkpt lat="44.1570887873908" lon="11.469244491759087"><ele>439.00000000000006</ele><time>2026-05-02T11:34:59.001Z</time></trkpt><trkpt lat="44.1570558078581" lon="11.469124890607667"><ele>439.0</ele><time>2026-05-02T11:35:00.001Z</time></trkpt><trkpt lat="44.15700458554199" lon="11.469004935027964"><ele>439.0</ele><time>2026-05-02T11:35:01.001Z</time></trkpt><trkpt lat="44.15694133195074" lon="11.468872967733672"><ele>439.0</ele><time>2026-05-02T11:35:02.001Z</time></trkpt><trkpt lat="44.156874507707016" lon="11.46872572684244"><ele>439.0</ele><time>2026-05-02T11:35:03.001Z</time></trkpt><trkpt lat="44.15680923457587" lon="11.468566418316529"><ele>439.0</ele><time>2026-05-02T11:35:04.001Z</time></trkpt><trkpt lat="44.15674545412815" lon="11.468404199099686"><ele>436.25</ele><time>2026-05-02T11:35:05.001Z</time></trkpt><trkpt lat="44.156682253171496" lon="11.468243833800024"><ele>433.5</ele><time>2026-05-02T11:35:06.001Z</time></trkpt><trkpt lat="44.1566165711573" lon="11.468086846714993"><ele>430.75</ele><time>2026-05-02T11:35:07.001Z</time></trkpt><trkpt lat="44.156551178450776" lon="11.46793413191112"><ele>428.0</ele><time>2026-05-02T11:35:08.001Z</time></trkpt><trkpt lat="44.1564846127847" lon="11.46778199519063"><ele>427.75</ele><time>2026-05-02T11:35:09.001Z</time></trkpt><trkpt lat="44.1564144591495" lon="11.467631326483763"><ele>427.5</ele><time>2026-05-02T11:35:10.001Z</time></trkpt><trkpt lat="44.156349054596845" lon="11.467480701646489"><ele>427.25</ele><time>2026-05-02T11:35:11.001Z</time></trkpt><trkpt lat="44.15629144938122" lon="11.467327488211996"><ele>427.0</ele><time>2026-05-02T11:35:12.002Z</time></trkpt><trkpt lat="44.15622777549355" lon="11.467178481664225"><ele>425.0</ele><time>2026-05-02T11:35:13.002Z</time></trkpt><trkpt lat="44.15616833290174" lon="11.46703882059753"><ele>423.00000000000006</ele><time>2026-05-02T11:35:14.002Z</time></trkpt><trkpt lat="44.15611224488461" lon="11.466908321108033"><ele>421.0</ele><time>2026-05-02T11:35:15.002Z</time></trkpt><trkpt lat="44.15606528957125" lon="11.466789492856847"><ele>419.0</ele><time>2026-05-02T11:35:16.002Z</time></trkpt><trkpt lat="44.156033822610354" lon="11.466668199762783"><ele>417.0</ele><time>2026-05-02T11:35:17.002Z</time></trkpt><trkpt lat="44.156026736984316" lon="11.466541139786885"><ele>417.0</ele><time>2026-05-02T11:35:18.002Z</time></trkpt><trkpt lat="44.15605470746588" lon="11.466408373351776"><ele>417.0</ele><time>2026-05-02T11:35:19.002Z</time></trkpt><trkpt lat="44.15610533754211" lon="11.466298340159623"><ele>417.0</ele><time>2026-05-02T11:35:20.002Z</time></trkpt><trkpt lat="44.15617805944738" lon="11.46621885410123"><ele>417.0</ele><time>2026-05-02T11:35:21.002Z</time></trkpt><trkpt lat="44.15626498401609" lon="11.46616286298544"><ele>417.0</ele><time>2026-05-02T11:35:22.002Z</time></trkpt><trkpt lat="44.15635881895931" lon="11.466136244828313"><ele>415.0</ele><time>2026-05-02T11:35:23.002Z</time></trkpt><trkpt lat="44.15645594160209" lon="11.466163247708057"><ele>413.0</ele><time>2026-05-02T11:35:24.002Z</time></trkpt><trkpt lat="44.15654606405195" lon="11.466224349064627"><ele>411.0</ele><time>2026-05-02T11:35:25.002Z</time></trkpt><trkpt lat="44.15662762119348" lon="11.466338554773737"><ele>409.0</ele><time>2026-05-02T11:35:26.002Z</time></trkpt><trkpt lat="44.15670294383767" lon="11.466477035827822"><ele>407.0</ele><time>2026-05-02T11:35:27.002Z</time></trkpt><trkpt lat="44.156778034550705" lon="11.466616133086264"><ele>407.8</ele><time>2026-05-02T11:35:28.002Z</time></trkpt><trkpt lat="44.156856241267796" lon="11.46674828689617"><ele>408.6</ele><time>2026-05-02T11:35:29.002Z</time></trkpt><trkpt lat="44.15692866766155" lon="11.466874510142622"><ele>409.40000000000003</ele><time>2026-05-02T11:35:30.002Z</time></trkpt><trkpt lat="44.15699734199964" lon="11.466990195994674"><ele>410.20000000000005</ele><time>2026-05-02T11:35:31.002Z</time></trkpt><trkpt lat="44.15706708097481" lon="11.467084797565754"><ele>411.0</ele><time>2026-05-02T11:35:32.002Z</time></trkpt><trkpt lat="44.15715114806524" lon="11.467131359249224"><ele>411.0</ele><time>2026-05-02T11:35:33.002Z</time></trkpt><trkpt lat="44.15724170539524" lon="11.467117984976829"><ele>411.0</ele><time>2026-05-02T11:35:34.002Z</time></trkpt><trkpt lat="44.15732676322704" lon="11.467063552544682"><ele>411.0</ele><time>2026-05-02T11:35:35.002Z</time></trkpt><trkpt lat="44.157380129939476" lon="11.466955095450814"><ele>411.0</ele><time>2026-05-02T11:35:36.002Z</time></trkpt><trkpt lat="44.157382208058685" lon="11.466829931047783"><ele>411.0</ele><time>2026-05-02T11:35:37.002Z</time></trkpt><trkpt lat="44.15736455017864" lon="11.466698884965917"><ele>408.5</ele><time>2026-05-02T11:35:38.002Z</time></trkpt><trkpt lat="44.15732117091179" lon="11.466554984848848"><ele>406.0</ele><time>2026-05-02T11:35:39.002Z</time></trkpt><trkpt lat="44.15728025444677" lon="11.466399339327431"><ele>403.5</ele><time>2026-05-02T11:35:40.002Z</time></trkpt><trkpt lat="44.15724999690817" lon="11.466244216013797"><ele>401.0</ele><time>2026-05-02T11:35:41.002Z</time></trkpt><trkpt lat="44.157206947354126" lon="11.466097058074073"><ele>399.6</ele><time>2026-05-02T11:35:42.002Z</time></trkpt><trkpt lat="44.15714396141453" lon="11.465964847065532"><ele>398.20000000000005</ele><time>2026-05-02T11:35:43.002Z</time></trkpt><trkpt lat="44.157064388227965" lon="11.465849768607988"><ele>396.79999999999995</ele><time>2026-05-02T11:35:44.002Z</time></trkpt><trkpt lat="44.15697912132143" lon="11.465746922564243"><ele>395.4</ele><time>2026-05-02T11:35:45.003Z</time></trkpt><trkpt lat="44.15690073670231" lon="11.465649462586015"><ele>394.0</ele><time>2026-05-02T11:35:46.003Z</time></trkpt><trkpt lat="44.15683846533041" lon="11.465549402479759"><ele>394.00000000000006</ele><time>2026-05-02T11:35:47.003Z</time></trkpt><trkpt lat="44.156801248590696" lon="11.465448136600427"><ele>394.0</ele><time>2026-05-02T11:35:48.003Z</time></trkpt><trkpt lat="44.15680713777739" lon="11.465353114912494"><ele>394.0</ele><time>2026-05-02T11:35:49.003Z</time></trkpt><trkpt lat="44.15685197417688" lon="11.465275435772508"><ele>394.0</ele><time>2026-05-02T11:35:50.003Z</time></trkpt><trkpt lat="44.156925144521274" lon="11.465243538791523"><ele>394.00000000000006</ele><time>2026-05-02T11:35:51.003Z</time></trkpt><trkpt lat="44.1570107336862" lon="11.465265327777313"><ele>394.0</ele><time>2026-05-02T11:35:52.003Z</time></trkpt><trkpt lat="44.15710372479297" lon="11.465326994407933"><ele>394.0</ele><time>2026-05-02T11:35:53.003Z</time></trkpt><trkpt lat="44.15720454369961" lon="11.465397379294307"><ele>394.0</ele><time>2026-05-02T11:35:54.003Z</time></trkpt><trkpt lat="44.15732114632985" lon="11.465474289460513"><ele>394.0</ele><time>2026-05-02T11:35:55.003Z</time></trkpt><trkpt lat="44.15744345495821" lon="11.465562521775112"><ele>394.0</ele><time>2026-05-02T11:35:56.003Z</time></trkpt><trkpt lat="44.157557516338585" lon="11.465669355429156"><ele>390.5</ele><time>2026-05-02T11:35:57.003Z</time></trkpt><trkpt lat="44.15765376589367" lon="11.465803539134942"><ele>387.0</ele><time>2026-05-02T11:35:58.003Z</time></trkpt><trkpt lat="44.15773763505744" lon="11.465945901054297"><ele>383.5</ele><time>2026-05-02T11:35:59.003Z</time></trkpt><trkpt lat="44.15781615491377" lon="11.46609031972556"><ele>380.0</ele><time>2026-05-02T11:36:00.003Z</time></trkpt><trkpt lat="44.15789521648876" lon="11.466225020673944"><ele>382.0</ele><time>2026-05-02T11:36:01.003Z</time></trkpt><trkpt lat="44.15799092318252" lon="11.46633103583724"><ele>384.0</ele><time>2026-05-02T11:36:02.003Z</time></trkpt><trkpt lat="44.15810273105308" lon="11.466403126877347"><ele>386.0</ele><time>2026-05-02T11:36:03.003Z</time></trkpt><trkpt lat="44.15821281939681" lon="11.466460850635126"><ele>388.0</ele><time>2026-05-02T11:36:04.003Z</time></trkpt><trkpt lat="44.15830905150275" lon="11.466518996736092"><ele>384.79999999999995</ele><time>2026-05-02T11:36:05.003Z</time></trkpt><trkpt lat="44.15839730401047" lon="11.466553353309779"><ele>381.6</ele><time>2026-05-02T11:36:06.003Z</time></trkpt><trkpt lat="44.15848810965553" lon="11.46653421940595"><ele>378.4</ele><time>2026-05-02T11:36:07.003Z</time></trkpt><trkpt lat="44.158571351766774" lon="11.46645869323942"><ele>375.20000000000005</ele><time>2026-05-02T11:36:08.003Z</time></trkpt><trkpt lat="44.15863640336232" lon="11.46634354657478"><ele>372.0</ele><time>2026-05-02T11:36:09.003Z</time></trkpt><trkpt lat="44.15867386766577" lon="11.466194509212857"><ele>370.75</ele><time>2026-05-02T11:36:10.003Z</time></trkpt><trkpt lat="44.15869074144701" lon="11.466033755809484"><ele>369.5</ele><time>2026-05-02T11:36:11.003Z</time></trkpt><trkpt lat="44.158686223302254" lon="11.465874110046828"><ele>368.25</ele><time>2026-05-02T11:36:12.003Z</time></trkpt><trkpt lat="44.15865493428914" lon="11.465714151070461"><ele>367.0</ele><time>2026-05-02T11:36:13.003Z</time></trkpt><trkpt lat="44.15860118699738" lon="11.465560110906933"><ele>367.0</ele><time>2026-05-02T11:36:14.003Z</time></trkpt><trkpt lat="44.15851853039248" lon="11.465420972638293"><ele>367.0</ele><time>2026-05-02T11:36:15Z</time></trkpt><trkpt lat="44.158417766870166" lon="11.465291588168961"><ele>367.0</ele><time>2026-05-02T11:36:16Z</time></trkpt><trkpt lat="44.15830665671284" lon="11.465168476038592"><ele>367.0</ele><time>2026-05-02T11:36:17Z</time></trkpt><trkpt lat="44.15820005813078" lon="11.465039079824308"><ele>367.0</ele><time>2026-05-02T11:36:18Z</time></trkpt><trkpt lat="44.158097216937236" lon="11.464909545237814"><ele>367.0</ele><time>2026-05-02T11:36:19Z</time></trkpt><trkpt lat="44.15799280013141" lon="11.46478403826042"><ele>367.0</ele><time>2026-05-02T11:36:20Z</time></trkpt><trkpt lat="44.157890749686786" lon="11.464660891972365"><ele>367.0</ele><time>2026-05-02T11:36:21Z</time></trkpt><trkpt lat="44.157788231496674" lon="11.464544994587696"><ele>366.75</ele><time>2026-05-02T11:36:22Z</time></trkpt><trkpt lat="44.15768220942546" lon="11.464437870780559"><ele>366.5</ele><time>2026-05-02T11:36:23Z</time></trkpt><trkpt lat="44.15757524316733" lon="11.46433498091696"><ele>366.25</ele><time>2026-05-02T11:36:24Z</time></trkpt><trkpt lat="44.15746939166601" lon="11.46423567816063"><ele>366.0</ele><time>2026-05-02T11:36:25Z</time></trkpt><trkpt lat="44.15736508142827" lon="11.464138035675962"><ele>366.0</ele><time>2026-05-02T11:36:26Z</time></trkpt><trkpt lat="44.157264025101924" lon="11.464041178149293"><ele>366.0</ele><time>2026-05-02T11:36:27Z</time></trkpt><trkpt lat="44.15716521168466" lon="11.463940609818733"><ele>366.0</ele><time>2026-05-02T11:36:28Z</time></trkpt><trkpt lat="44.157077257942454" lon="11.463828916264607"><ele>366.0</ele><time>2026-05-02T11:36:29Z</time></trkpt><trkpt lat="44.15701346268149" lon="11.463706964003919"><ele>364.6</ele><time>2026-05-02T11:36:30Z</time></trkpt><trkpt lat="44.156969169289916" lon="11.463584601115022"><ele>363.20000000000005</ele><time>2026-05-02T11:36:31Z</time></trkpt><trkpt lat="44.15695335047986" lon="11.463441176048626"><ele>361.79999999999995</ele><time>2026-05-02T11:36:32Z</time></trkpt><trkpt lat="44.15695716518793" lon="11.463281617961599"><ele>360.4</ele><time>2026-05-02T11:36:33Z</time></trkpt><trkpt lat="44.15696775285869" lon="11.463118598167211"><ele>359.0</ele><time>2026-05-02T11:36:34Z</time></trkpt><trkpt lat="44.15697657103473" lon="11.462956540232053"><ele>357.75</ele><time>2026-05-02T11:36:35Z</time></trkpt><trkpt lat="44.15698627649266" lon="11.46278669933981"><ele>356.5</ele><time>2026-05-02T11:36:36Z</time></trkpt><trkpt lat="44.157003255924145" lon="11.462618486600682"><ele>355.25</ele><time>2026-05-02T11:36:37Z</time></trkpt><trkpt lat="44.15702571011593" lon="11.462451093774996"><ele>354.0</ele><time>2026-05-02T11:36:38Z</time></trkpt><trkpt lat="44.15705033769508" lon="11.462294354084618"><ele>354.0</ele><time>2026-05-02T11:36:39Z</time></trkpt><trkpt lat="44.15706676510201" lon="11.462139102619624"><ele>354.0</ele><time>2026-05-02T11:36:40Z</time></trkpt><trkpt lat="44.15706725244851" lon="11.461984211195936"><ele>354.0</ele><time>2026-05-02T11:36:41Z</time></trkpt><trkpt lat="44.1570406486332" lon="11.461845186041597"><ele>354.0</ele><time>2026-05-02T11:36:42Z</time></trkpt><trkpt lat="44.15698505489883" lon="11.461718757561846"><ele>354.0</ele><time>2026-05-02T11:36:43Z</time></trkpt><trkpt lat="44.1569041255199" lon="11.461624152871723"><ele>353.79999999999995</ele><time>2026-05-02T11:36:44Z</time></trkpt><trkpt lat="44.15680433923856" lon="11.461556338638614"><ele>353.59999999999997</ele><time>2026-05-02T11:36:45Z</time></trkpt><trkpt lat="44.15670853010175" lon="11.461502152615923"><ele>353.4</ele><time>2026-05-02T11:36:46Z</time></trkpt><trkpt lat="44.15662704699194" lon="11.46143736323347"><ele>353.2</ele><time>2026-05-02T11:36:47Z</time></trkpt><trkpt lat="44.15656058816376" lon="11.461344010380005"><ele>353.0</ele><time>2026-05-02T11:36:48.001Z</time></trkpt><trkpt lat="44.15652550454165" lon="11.461228212315293"><ele>353.0</ele><time>2026-05-02T11:36:49.001Z</time></trkpt><trkpt lat="44.15652302687415" lon="11.46110921533007"><ele>353.0</ele><time>2026-05-02T11:36:50.001Z</time></trkpt><trkpt lat="44.15655202916406" lon="11.460998791596511"><ele>353.0</ele><time>2026-05-02T11:36:51.001Z</time></trkpt><trkpt lat="44.15659737746095" lon="11.460889426648993"><ele>353.0</ele><time>2026-05-02T11:36:52.001Z</time></trkpt><trkpt lat="44.156626496961145" lon="11.460760466315175"><ele>353.0</ele><time>2026-05-02T11:36:53.001Z</time></trkpt><trkpt lat="44.156614668276916" lon="11.460600459203027"><ele>348.25</ele><time>2026-05-02T11:36:54.001Z</time></trkpt><trkpt lat="44.15659179075919" lon="11.460441631675497"><ele>343.5</ele><time>2026-05-02T11:36:55.001Z</time></trkpt><trkpt lat="44.156558896717414" lon="11.46028963916893"><ele>338.75</ele><time>2026-05-02T11:36:56.001Z</time></trkpt><trkpt lat="44.15651487844267" lon="11.460141668120851"><ele>334.0</ele><time>2026-05-02T11:36:57.001Z</time></trkpt><trkpt lat="44.156444793845274" lon="11.459997944080035"><ele>334.0</ele><time>2026-05-02T11:36:58.001Z</time></trkpt><trkpt lat="44.156359278411074" lon="11.459869826447935"><ele>334.0</ele><time>2026-05-02T11:36:59.001Z</time></trkpt><trkpt lat="44.15627946151611" lon="11.459741618976464"><ele>334.0</ele><time>2026-05-02T11:37:00.001Z</time></trkpt><trkpt lat="44.15619769678738" lon="11.459623604929144"><ele>334.0</ele><time>2026-05-02T11:37:01.001Z</time></trkpt><trkpt lat="44.1560931543341" lon="11.459540882045857"><ele>328.5</ele><time>2026-05-02T11:37:02.001Z</time></trkpt><trkpt lat="44.15596598351097" lon="11.459483948113192"><ele>323.0</ele><time>2026-05-02T11:37:03.001Z</time></trkpt><trkpt lat="44.15583497196835" lon="11.45944024384321"><ele>317.5</ele><time>2026-05-02T11:37:04.001Z</time></trkpt><trkpt lat="44.15570507717817" lon="11.459384587380658"><ele>312.0</ele><time>2026-05-02T11:37:05.001Z</time></trkpt><trkpt lat="44.15557742530069" lon="11.459332534325558"><ele>312.0</ele><time>2026-05-02T11:37:06.001Z</time></trkpt><trkpt lat="44.15545159590734" lon="11.459279912576788"><ele>312.0</ele><time>2026-05-02T11:37:07.001Z</time></trkpt><trkpt lat="44.15532967903542" lon="11.459230343135108"><ele>312.0</ele><time>2026-05-02T11:37:08.001Z</time></trkpt><trkpt lat="44.155207299852854" lon="11.459192448183146"><ele>312.0</ele><time>2026-05-02T11:37:09.001Z</time></trkpt><trkpt lat="44.155078896077974" lon="11.459184927829378"><ele>312.0</ele><time>2026-05-02T11:37:10.001Z</time></trkpt><trkpt lat="44.1549486542902" lon="11.459202308140174"><ele>312.0</ele><time>2026-05-02T11:37:11.001Z</time></trkpt><trkpt lat="44.15481582458531" lon="11.459243206849909"><ele>312.0</ele><time>2026-05-02T11:37:12.001Z</time></trkpt><trkpt lat="44.154685289028" lon="11.459288942855554"><ele>312.0</ele><time>2026-05-02T11:37:13.001Z</time></trkpt><trkpt lat="44.154555660234436" lon="11.459326574779451"><ele>312.25</ele><time>2026-05-02T11:37:14.001Z</time></trkpt><trkpt lat="44.15442767227788" lon="11.459358059231466"><ele>312.5</ele><time>2026-05-02T11:37:15.001Z</time></trkpt><trkpt lat="44.154313056011524" lon="11.459376999837733"><ele>312.75</ele><time>2026-05-02T11:37:16.001Z</time></trkpt><trkpt lat="44.1542014236961" lon="11.459372500867902"><ele>313.0</ele><time>2026-05-02T11:37:17.001Z</time></trkpt><trkpt lat="44.154089562902065" lon="11.4593353653874"><ele>312.8</ele><time>2026-05-02T11:37:18.001Z</time></trkpt><trkpt lat="44.153994039749996" lon="11.459255895115081"><ele>312.6</ele><time>2026-05-02T11:37:19.001Z</time></trkpt><trkpt lat="44.15391520915566" lon="11.459151859831993"><ele>312.4</ele><time>2026-05-02T11:37:20.002Z</time></trkpt><trkpt lat="44.15385901710631" lon="11.45902655197504"><ele>312.2</ele><time>2026-05-02T11:37:21.002Z</time></trkpt><trkpt lat="44.153822461346536" lon="11.458883355789341"><ele>312.0</ele><time>2026-05-02T11:37:22.002Z</time></trkpt><trkpt lat="44.153798819911934" lon="11.458721917251763"><ele>312.0</ele><time>2026-05-02T11:37:23.002Z</time></trkpt><trkpt lat="44.15377760322017" lon="11.458559184524333"><ele>312.0</ele><time>2026-05-02T11:37:24.002Z</time></trkpt><trkpt lat="44.15375109448223" lon="11.458407301040705"><ele>312.0</ele><time>2026-05-02T11:37:25.002Z</time></trkpt><trkpt lat="44.15372586671096" lon="11.458273044976243"><ele>312.0</ele><time>2026-05-02T11:37:26.002Z</time></trkpt><trkpt lat="44.15370229764983" lon="11.458168555740714"><ele>312.0</ele><time>2026-05-02T11:37:27.002Z</time></trkpt><trkpt lat="44.153693105469976" lon="11.458038965295199"><ele>312.0</ele><time>2026-05-02T11:37:29.002Z</time></trkpt><trkpt lat="44.15377932042323" lon="11.457949340038006"><ele>312.0</ele><time>2026-05-02T11:37:31.002Z</time></trkpt><trkpt lat="44.153876428915154" lon="11.45796747886011"><ele>312.0</ele><time>2026-05-02T11:37:33.002Z</time></trkpt><trkpt lat="44.1539881689703" lon="11.457995399255998"><ele>312.0</ele><time>2026-05-02T11:37:35.002Z</time></trkpt><trkpt lat="44.1540654915134" lon="11.458015659371942"><ele>312.0</ele><time>2026-05-02T11:37:36.002Z</time></trkpt><trkpt lat="44.15415591436458" lon="11.458036170451248"><ele>308.5</ele><time>2026-05-02T11:37:37.002Z</time></trkpt><trkpt lat="44.15426554950796" lon="11.458066102351097"><ele>305.0</ele><time>2026-05-02T11:37:38.002Z</time></trkpt><trkpt lat="44.15438954095044" lon="11.458108962346865"><ele>301.5</ele><time>2026-05-02T11:37:39.002Z</time></trkpt><trkpt lat="44.1545244917486" lon="11.458151369860735"><ele>298.0</ele><time>2026-05-02T11:37:40.002Z</time></trkpt><trkpt lat="44.15467198293408" lon="11.458183711074213"><ele>298.0</ele><time>2026-05-02T11:37:41.002Z</time></trkpt><trkpt lat="44.15482603439608" lon="11.458214615130979"><ele>298.0</ele><time>2026-05-02T11:37:42.002Z</time></trkpt><trkpt lat="44.15497332912822" lon="11.458242241173522"><ele>298.0</ele><time>2026-05-02T11:37:43.002Z</time></trkpt><trkpt lat="44.15512202045926" lon="11.458269371874371"><ele>297.5</ele><time>2026-05-02T11:37:44.002Z</time></trkpt><trkpt lat="44.1552716388097" lon="11.458293137809127"><ele>297.0</ele><time>2026-05-02T11:37:45.002Z</time></trkpt><trkpt lat="44.15541552237352" lon="11.458319957703129"><ele>296.5</ele><time>2026-05-02T11:37:46.002Z</time></trkpt><trkpt lat="44.15556004760494" lon="11.45834685081216"><ele>296.0</ele><time>2026-05-02T11:37:47.002Z</time></trkpt><trkpt lat="44.155704185170045" lon="11.45837178804595"><ele>294.75</ele><time>2026-05-02T11:37:48.002Z</time></trkpt><trkpt lat="44.15584748258995" lon="11.458398270494852"><ele>293.5</ele><time>2026-05-02T11:37:49.002Z</time></trkpt><trkpt lat="44.15598669217645" lon="11.458417854669575"><ele>292.25</ele><time>2026-05-02T11:37:50.002Z</time></trkpt><trkpt lat="44.15611813561497" lon="11.458433001181307"><ele>291.0</ele><time>2026-05-02T11:37:51.002Z</time></trkpt><trkpt lat="44.15624401954249" lon="11.458447178371486"><ele>291.0</ele><time>2026-05-02T11:37:52.002Z</time></trkpt><trkpt lat="44.15636400677353" lon="11.458463271694873"><ele>291.0</ele><time>2026-05-02T11:37:53.003Z</time></trkpt><trkpt lat="44.15647712858103" lon="11.458486092899472"><ele>291.0</ele><time>2026-05-02T11:37:54.003Z</time></trkpt><trkpt lat="44.15658348496202" lon="11.458525885969992"><ele>291.0</ele><time>2026-05-02T11:37:55.003Z</time></trkpt><trkpt lat="44.15668646968399" lon="11.458584961994948"><ele>289.25</ele><time>2026-05-02T11:37:56.003Z</time></trkpt><trkpt lat="44.15679589303386" lon="11.45867762431955"><ele>287.5</ele><time>2026-05-02T11:37:57.003Z</time></trkpt><trkpt lat="44.156900052231386" lon="11.45878042000241"><ele>285.75</ele><time>2026-05-02T11:37:58.003Z</time></trkpt><trkpt lat="44.15699871651435" lon="11.458901384399569"><ele>284.0</ele><time>2026-05-02T11:37:59.003Z</time></trkpt><trkpt lat="44.15708391604764" lon="11.459032244643325"><ele>288.25</ele><time>2026-05-02T11:38:00.003Z</time></trkpt><trkpt lat="44.157155675665535" lon="11.4591792280276"><ele>292.5</ele><time>2026-05-02T11:38:01.003Z</time></trkpt><trkpt lat="44.15721100119644" lon="11.459351144412816"><ele>296.75</ele><time>2026-05-02T11:38:02.003Z</time></trkpt><trkpt lat="44.157254504334766" lon="11.459527750616912"><ele>301.0</ele><time>2026-05-02T11:38:03.003Z</time></trkpt><trkpt lat="44.15728792023353" lon="11.459709388756211"><ele>304.5</ele><time>2026-05-02T11:38:04.003Z</time></trkpt><trkpt lat="44.15731971331341" lon="11.459886846593491"><ele>308.0</ele><time>2026-05-02T11:38:05.003Z</time></trkpt><trkpt lat="44.15736530887357" lon="11.460053467180199"><ele>311.5</ele><time>2026-05-02T11:38:06.003Z</time></trkpt><trkpt lat="44.15743332630603" lon="11.460185019555496"><ele>315.0</ele><time>2026-05-02T11:38:07.003Z</time></trkpt><trkpt lat="44.157509539521875" lon="11.46029850941636"><ele>311.6</ele><time>2026-05-02T11:38:08.003Z</time></trkpt><trkpt lat="44.157576802356246" lon="11.46041017579406"><ele>308.2</ele><time>2026-05-02T11:38:09.003Z</time></trkpt><trkpt lat="44.15765281082921" lon="11.460496778089194"><ele>304.8</ele><time>2026-05-02T11:38:10.003Z</time></trkpt><trkpt lat="44.157741230007844" lon="11.460530908796365"><ele>301.4</ele><time>2026-05-02T11:38:11.003Z</time></trkpt><trkpt lat="44.15783741905105" lon="11.460528566838176"><ele>298.0</ele><time>2026-05-02T11:38:12.003Z</time></trkpt><trkpt lat="44.15793912572055" lon="11.460486026035827"><ele>296.4</ele><time>2026-05-02T11:38:13.003Z</time></trkpt><trkpt lat="44.15803776786597" lon="11.460429464249241"><ele>294.8</ele><time>2026-05-02T11:38:14.003Z</time></trkpt><trkpt lat="44.158131803932065" lon="11.460381814490804"><ele>293.2</ele><time>2026-05-02T11:38:15.003Z</time></trkpt><trkpt lat="44.15822263044776" lon="11.460374432890227"><ele>291.6</ele><time>2026-05-02T11:38:16.003Z</time></trkpt><trkpt lat="44.15830940221404" lon="11.460429561996134"><ele>290.0</ele><time>2026-05-02T11:38:17.003Z</time></trkpt><trkpt lat="44.15838472406472" lon="11.460526771732093"><ele>288.0</ele><time>2026-05-02T11:38:18.003Z</time></trkpt><trkpt lat="44.15844642692638" lon="11.460666142927337"><ele>286.0</ele><time>2026-05-02T11:38:19.003Z</time></trkpt><trkpt lat="44.15851116638047" lon="11.460807465008438"><ele>284.0</ele><time>2026-05-02T11:38:20.003Z</time></trkpt><trkpt lat="44.158594381417565" lon="11.460940171635652"><ele>282.0</ele><time>2026-05-02T11:38:20.999Z</time></trkpt><trkpt lat="44.15870646625336" lon="11.461054303892066"><ele>282.0</ele><time>2026-05-02T11:38:21.999Z</time></trkpt><trkpt lat="44.1588295541137" lon="11.461149663511314"><ele>282.0</ele><time>2026-05-02T11:38:23Z</time></trkpt><trkpt lat="44.158944807413114" lon="11.46123853109242"><ele>282.0</ele><time>2026-05-02T11:38:24Z</time></trkpt><trkpt lat="44.159054974194994" lon="11.461325049051625"><ele>282.0</ele><time>2026-05-02T11:38:25Z</time></trkpt><trkpt lat="44.15916523469113" lon="11.461406668027129"><ele>282.5</ele><time>2026-05-02T11:38:26Z</time></trkpt><trkpt lat="44.15927874521607" lon="11.46148281160215"><ele>283.0</ele><time>2026-05-02T11:38:27Z</time></trkpt><trkpt lat="44.15938481138517" lon="11.461565467088079"><ele>283.5</ele><time>2026-05-02T11:38:28Z</time></trkpt><trkpt lat="44.15948879683187" lon="11.461642145730382"><ele>284.0</ele><time>2026-05-02T11:38:29Z</time></trkpt><trkpt lat="44.159585595070155" lon="11.461716116935088"><ele>284.0</ele><time>2026-05-02T11:38:30Z</time></trkpt><trkpt lat="44.15967244402199" lon="11.461783647225166"><ele>284.0</ele><time>2026-05-02T11:38:31Z</time></trkpt><trkpt lat="44.15975074988319" lon="11.46184224663505"><ele>284.0</ele><time>2026-05-02T11:38:32Z</time></trkpt><trkpt lat="44.15982326942995" lon="11.46190115646067"><ele>284.0</ele><time>2026-05-02T11:38:33Z</time></trkpt><trkpt lat="44.159882133024844" lon="11.4619491691157"><ele>284.0</ele><time>2026-05-02T11:38:34Z</time></trkpt><trkpt lat="44.15997534418232" lon="11.462023851987436"><ele>284.0</ele><time>2026-05-02T11:38:36Z</time></trkpt><trkpt lat="44.160041003218296" lon="11.46207238380439"><ele>284.5</ele><time>2026-05-02T11:38:38Z</time></trkpt><trkpt lat="44.16013192643835" lon="11.462110835025994"><ele>285.0</ele><time>2026-05-02T11:39:39.002Z</time></trkpt><trkpt lat="44.16023555284368" lon="11.462161796698213"><ele>285.5</ele><time>2026-05-02T11:39:41.002Z</time></trkpt><trkpt lat="44.1603033514521" lon="11.462183946154585"><ele>286.0</ele><time>2026-05-02T11:39:42.002Z</time></trkpt><trkpt lat="44.160374666144975" lon="11.46220793041936"><ele>286.5</ele><time>2026-05-02T11:39:43.002Z</time></trkpt><trkpt lat="44.16045139958206" lon="11.462232713629565"><ele>287.0</ele><time>2026-05-02T11:39:44.002Z</time></trkpt><trkpt lat="44.1605443858494" lon="11.46226102886187"><ele>287.0</ele><time>2026-05-02T11:39:45.002Z</time></trkpt><trkpt lat="44.16064755672139" lon="11.462294552279358"><ele>287.0</ele><time>2026-05-02T11:39:46.002Z</time></trkpt><trkpt lat="44.16075534957854" lon="11.46233611233793"><ele>287.0</ele><time>2026-05-02T11:39:47.002Z</time></trkpt><trkpt lat="44.16087037321846" lon="11.46238043165849"><ele>287.0</ele><time>2026-05-02T11:39:48.002Z</time></trkpt><trkpt lat="44.16098707477024" lon="11.46242942898466"><ele>287.0</ele><time>2026-05-02T11:39:49.002Z</time></trkpt><trkpt lat="44.16109964809501" lon="11.462471439776348"><ele>287.0</ele><time>2026-05-02T11:39:50.002Z</time></trkpt><trkpt lat="44.161214950063936" lon="11.462520399473163"><ele>287.0</ele><time>2026-05-02T11:39:51.002Z</time></trkpt><trkpt lat="44.16132810355272" lon="11.462578520660497"><ele>287.0</ele><time>2026-05-02T11:39:52.002Z</time></trkpt><trkpt lat="44.161439919523595" lon="11.462643120115986"><ele>285.5</ele><time>2026-05-02T11:39:53.002Z</time></trkpt><trkpt lat="44.16154640978547" lon="11.462709911281987"><ele>284.0</ele><time>2026-05-02T11:39:54.002Z</time></trkpt><trkpt lat="44.161655019234374" lon="11.46277298550677"><ele>282.5</ele><time>2026-05-02T11:39:55.002Z</time></trkpt><trkpt lat="44.1617611964221" lon="11.462844962393236"><ele>281.0</ele><time>2026-05-02T11:39:56.002Z</time></trkpt><trkpt lat="44.16186535885376" lon="11.462921351199633"><ele>279.5</ele><time>2026-05-02T11:39:57.002Z</time></trkpt><trkpt lat="44.16196750760409" lon="11.463000322180855"><ele>278.0</ele><time>2026-05-02T11:39:58.003Z</time></trkpt><trkpt lat="44.16207263615215" lon="11.463085172882911"><ele>276.5</ele><time>2026-05-02T11:39:59.003Z</time></trkpt><trkpt lat="44.16217029538422" lon="11.463165707284318"><ele>275.0</ele><time>2026-05-02T11:40:00.003Z</time></trkpt><trkpt lat="44.16227190236444" lon="11.463244998284868"><ele>276.6</ele><time>2026-05-02T11:40:01.003Z</time></trkpt><trkpt lat="44.16237130033563" lon="11.46332286375213"><ele>278.2</ele><time>2026-05-02T11:40:02.003Z</time></trkpt><trkpt lat="44.16246512053702" lon="11.46340739767797"><ele>279.8</ele><time>2026-05-02T11:40:03.003Z</time></trkpt><trkpt lat="44.16255145434514" lon="11.463501629298435"><ele>281.4</ele><time>2026-05-02T11:40:04.003Z</time></trkpt><trkpt lat="44.16262027612886" lon="11.463616835206889"><ele>283.0</ele><time>2026-05-02T11:40:05.003Z</time></trkpt><trkpt lat="44.16267039768105" lon="11.463757906318763"><ele>282.5</ele><time>2026-05-02T11:40:06.003Z</time></trkpt><trkpt lat="44.162700052147166" lon="11.463915788827245"><ele>282.0</ele><time>2026-05-02T11:40:07.003Z</time></trkpt><trkpt lat="44.16271210123152" lon="11.464078736614615"><ele>281.5</ele><time>2026-05-02T11:40:08.003Z</time></trkpt><trkpt lat="44.16269803720145" lon="11.464250901518508"><ele>281.0</ele><time>2026-05-02T11:40:09.003Z</time></trkpt><trkpt lat="44.162674170445584" lon="11.464414057406023"><ele>281.0</ele><time>2026-05-02T11:40:10.003Z</time></trkpt><trkpt lat="44.162671938098796" lon="11.46458631482299"><ele>281.0</ele><time>2026-05-02T11:40:11.003Z</time></trkpt><trkpt lat="44.1626986492935" lon="11.46476533568695"><ele>281.0</ele><time>2026-05-02T11:40:12.003Z</time></trkpt><trkpt lat="44.162749119783626" lon="11.464946668918335"><ele>281.0</ele><time>2026-05-02T11:40:13.003Z</time></trkpt><trkpt lat="44.16282073347208" lon="11.465124087153965"><ele>277.33333333333337</ele><time>2026-05-02T11:40:14.003Z</time></trkpt><trkpt lat="44.16290633941381" lon="11.465295003744936"><ele>273.6666666666667</ele><time>2026-05-02T11:40:15.003Z</time></trkpt><trkpt lat="44.163006212995825" lon="11.465464751322683"><ele>270.0</ele><time>2026-05-02T11:40:16.003Z</time></trkpt><trkpt lat="44.163108333482" lon="11.465642832845989"><ele>275.0</ele><time>2026-05-02T11:40:17.003Z</time></trkpt><trkpt lat="44.16321433800559" lon="11.465820357883167"><ele>280.0</ele><time>2026-05-02T11:40:18.003Z</time></trkpt><trkpt lat="44.16331629632393" lon="11.465977891981693"><ele>285.0</ele><time>2026-05-02T11:40:19.003Z</time></trkpt><trkpt lat="44.1634109798108" lon="11.466129989291096"><ele>285.0</ele><time>2026-05-02T11:40:20.003Z</time></trkpt><trkpt lat="44.16349954607277" lon="11.466276414280717"><ele>285.0</ele><time>2026-05-02T11:40:21.003Z</time></trkpt><trkpt lat="44.16358127074301" lon="11.466414945191683"><ele>285.0</ele><time>2026-05-02T11:40:22.003Z</time></trkpt><trkpt lat="44.16365771643773" lon="11.466545719889039"><ele>285.0</ele><time>2026-05-02T11:40:23.003Z</time></trkpt><trkpt lat="44.16373904958897" lon="11.466681830747783"><ele>282.25</ele><time>2026-05-02T11:40:24.003Z</time></trkpt><trkpt lat="44.16382269800243" lon="11.466828098091721"><ele>279.5</ele><time>2026-05-02T11:40:25.003Z</time></trkpt><trkpt lat="44.16390800374528" lon="11.46697507899362"><ele>276.75</ele><time>2026-05-02T11:40:26.003Z</time></trkpt><trkpt lat="44.16399783774357" lon="11.467113865051173"><ele>274.0</ele><time>2026-05-02T11:40:27Z</time></trkpt><trkpt lat="44.16408794745975" lon="11.467238015092695"><ele>274.0</ele><time>2026-05-02T11:40:28Z</time></trkpt><trkpt lat="44.16417615672194" lon="11.467350409213088"><ele>274.0</ele><time>2026-05-02T11:40:29Z</time></trkpt><trkpt lat="44.164261428521534" lon="11.467451814719166"><ele>274.0</ele><time>2026-05-02T11:40:30Z</time></trkpt><trkpt lat="44.164345962696004" lon="11.467535530944367"><ele>274.0</ele><time>2026-05-02T11:40:31Z</time></trkpt><trkpt lat="44.16442600879276" lon="11.467609085907247"><ele>274.0</ele><time>2026-05-02T11:40:32Z</time></trkpt><trkpt lat="44.164497344611334" lon="11.467674715621296"><ele>274.0</ele><time>2026-05-02T11:40:33Z</time></trkpt><trkpt lat="44.16455892034925" lon="11.46773321226377"><ele>274.0</ele><time>2026-05-02T11:40:34Z</time></trkpt><trkpt lat="44.16464765005591" lon="11.467836170918666"><ele>274.0</ele><time>2026-05-02T11:40:36Z</time></trkpt><trkpt lat="44.164711807624116" lon="11.467911819893338"><ele>274.0</ele><time>2026-05-02T11:40:38Z</time></trkpt><trkpt lat="44.16478798237831" lon="11.46798231148527"><ele>274.0</ele><time>2026-05-02T11:41:27.001Z</time></trkpt><trkpt lat="44.16488373242105" lon="11.468068707566504"><ele>274.14285714285717</ele><time>2026-05-02T11:41:29.002Z</time></trkpt><trkpt lat="44.164937380448926" lon="11.468126606557558"><ele>274.2857142857143</ele><time>2026-05-02T11:41:30.002Z</time></trkpt><trkpt lat="44.1649930939146" lon="11.468182016693087"><ele>274.42857142857144</ele><time>2026-05-02T11:41:31.002Z</time></trkpt><trkpt lat="44.16504734156118" lon="11.468241385854764"><ele>274.57142857142856</ele><time>2026-05-02T11:41:32.002Z</time></trkpt><trkpt lat="44.16508795596749" lon="11.468316108418666"><ele>274.7142857142857</ele><time>2026-05-02T11:41:33.002Z</time></trkpt><trkpt lat="44.1651138161909" lon="11.468400586123407"><ele>274.8571428571429</ele><time>2026-05-02T11:41:34.002Z</time></trkpt><trkpt lat="44.165115958318054" lon="11.468488423703256"><ele>275.0</ele><time>2026-05-02T11:41:35.002Z</time></trkpt><trkpt lat="44.16509776214043" lon="11.468581628744118"><ele>275.0</ele><time>2026-05-02T11:41:36.002Z</time></trkpt><trkpt lat="44.1650727661371" lon="11.4686823294272"><ele>275.0</ele><time>2026-05-02T11:41:37.002Z</time></trkpt><trkpt lat="44.165039580595106" lon="11.468779378560946"><ele>275.0</ele><time>2026-05-02T11:41:38.002Z</time></trkpt><trkpt lat="44.16500991624869" lon="11.468891955267184"><ele>275.0</ele><time>2026-05-02T11:41:39.002Z</time></trkpt><trkpt lat="44.16497892855038" lon="11.469021855742056"><ele>275.0</ele><time>2026-05-02T11:41:40.002Z</time></trkpt><trkpt lat="44.164945528390234" lon="11.469148931363588"><ele>275.0</ele><time>2026-05-02T11:41:41.002Z</time></trkpt><trkpt lat="44.16490638878975" lon="11.469274777528994"><ele>274.4</ele><time>2026-05-02T11:41:42.002Z</time></trkpt><trkpt lat="44.164874085152526" lon="11.469403215948347"><ele>273.8</ele><time>2026-05-02T11:41:43.002Z</time></trkpt><trkpt lat="44.16484782984724" lon="11.469537160117705"><ele>273.2</ele><time>2026-05-02T11:41:44.002Z</time></trkpt><trkpt lat="44.16482901043203" lon="11.469685200217782"><ele>272.6</ele><time>2026-05-02T11:41:45.002Z</time></trkpt><trkpt lat="44.16481674608489" lon="11.469847877152903"><ele>272.0</ele><time>2026-05-02T11:41:46.002Z</time></trkpt><trkpt lat="44.16479717536886" lon="11.470009836282294"><ele>273.75</ele><time>2026-05-02T11:41:47.002Z</time></trkpt><trkpt lat="44.16477127219236" lon="11.47016192362255"><ele>275.5</ele><time>2026-05-02T11:41:48.002Z</time></trkpt><trkpt lat="44.16473886945738" lon="11.470321257859654"><ele>277.25</ele><time>2026-05-02T11:41:49.002Z</time></trkpt><trkpt lat="44.16470021339973" lon="11.470480496980443"><ele>279.0</ele><time>2026-05-02T11:41:50.002Z</time></trkpt><trkpt lat="44.16465571177147" lon="11.470636133106535"><ele>279.5</ele><time>2026-05-02T11:41:51.002Z</time></trkpt><trkpt lat="44.16460517906467" lon="11.470788227675197"><ele>280.0</ele><time>2026-05-02T11:41:52.002Z</time></trkpt><trkpt lat="44.16455255895299" lon="11.47094780883207"><ele>280.5</ele><time>2026-05-02T11:41:53.002Z</time></trkpt><trkpt lat="44.16449351145258" lon="11.47111314221061"><ele>281.0</ele><time>2026-05-02T11:41:54.002Z</time></trkpt><trkpt lat="44.16443177320588" lon="11.471284863926476"><ele>281.0</ele><time>2026-05-02T11:41:55.002Z</time></trkpt><trkpt lat="44.16437274390812" lon="11.471461041060879"><ele>281.0</ele><time>2026-05-02T11:41:56.002Z</time></trkpt><trkpt lat="44.16431659158333" lon="11.471634057912043"><ele>281.0</ele><time>2026-05-02T11:41:57.002Z</time></trkpt><trkpt lat="44.1642625895036" lon="11.471801838819179"><ele>281.0</ele><time>2026-05-02T11:41:58.002Z</time></trkpt><trkpt lat="44.16421163172949" lon="11.471970808507287"><ele>280.75</ele><time>2026-05-02T11:41:59.002Z</time></trkpt><trkpt lat="44.16416502178953" lon="11.47213652410227"><ele>280.5</ele><time>2026-05-02T11:42:00.002Z</time></trkpt><trkpt lat="44.16412693069054" lon="11.472302879171378"><ele>280.25</ele><time>2026-05-02T11:42:01.002Z</time></trkpt><trkpt lat="44.16409243097186" lon="11.472468758638922"><ele>280.0</ele><time>2026-05-02T11:42:02.003Z</time></trkpt><trkpt lat="44.16406688037039" lon="11.472635296869601"><ele>280.0</ele><time>2026-05-02T11:42:03.003Z</time></trkpt><trkpt lat="44.16406236726987" lon="11.472807096776096"><ele>280.0</ele><time>2026-05-02T11:42:04.003Z</time></trkpt><trkpt lat="44.16407057739282" lon="11.47298447193791"><ele>280.0</ele><time>2026-05-02T11:42:05.003Z</time></trkpt><trkpt lat="44.16408117677242" lon="11.473157136332976"><ele>280.0</ele><time>2026-05-02T11:42:06.003Z</time></trkpt><trkpt lat="44.16409522982877" lon="11.473330843786183"><ele>280.0</ele><time>2026-05-02T11:42:07.003Z</time></trkpt><trkpt lat="44.16411888868945" lon="11.473503711753626"><ele>280.0</ele><time>2026-05-02T11:42:08.003Z</time></trkpt><trkpt lat="44.164148725926815" lon="11.4736741592745"><ele>280.0</ele><time>2026-05-02T11:42:09.003Z</time></trkpt><trkpt lat="44.16418215528917" lon="11.473843799439408"><ele>280.0</ele><time>2026-05-02T11:42:10.003Z</time></trkpt><trkpt lat="44.164221324482" lon="11.474001229678244"><ele>280.0</ele><time>2026-05-02T11:42:11.003Z</time></trkpt><trkpt lat="44.164281124053915" lon="11.474150402575061"><ele>280.0</ele><time>2026-05-02T11:42:12.003Z</time></trkpt><trkpt lat="44.16435632047065" lon="11.474299823534771"><ele>280.0</ele><time>2026-05-02T11:42:13.003Z</time></trkpt><trkpt lat="44.164444782607426" lon="11.474449182957384"><ele>280.0</ele><time>2026-05-02T11:42:14.003Z</time></trkpt><trkpt lat="44.164540122484546" lon="11.474589274484803"><ele>279.5</ele><time>2026-05-02T11:42:15.003Z</time></trkpt><trkpt lat="44.16463966143747" lon="11.474722834829697"><ele>279.0</ele><time>2026-05-02T11:42:16.003Z</time></trkpt><trkpt lat="44.164742435391176" lon="11.474840496379887"><ele>278.5</ele><time>2026-05-02T11:42:17.003Z</time></trkpt><trkpt lat="44.16484982887183" lon="11.474937657006874"><ele>278.0</ele><time>2026-05-02T11:42:18.003Z</time></trkpt><trkpt lat="44.16495983111077" lon="11.475013542649439"><ele>278.0</ele><time>2026-05-02T11:42:19.003Z</time></trkpt><trkpt lat="44.16508360947396" lon="11.475064093427344"><ele>278.0</ele><time>2026-05-02T11:42:20.003Z</time></trkpt><trkpt lat="44.165213484531854" lon="11.475086373552365"><ele>278.0</ele><time>2026-05-02T11:42:21.003Z</time></trkpt><trkpt lat="44.1653416151856" lon="11.475080329512977"><ele>278.0</ele><time>2026-05-02T11:42:22.003Z</time></trkpt><trkpt lat="44.1654602200578" lon="11.475039947761351"><ele>278.0</ele><time>2026-05-02T11:42:23.003Z</time></trkpt><trkpt lat="44.165574985751384" lon="11.47496666871128"><ele>278.0</ele><time>2026-05-02T11:42:24.003Z</time></trkpt><trkpt lat="44.165696434051675" lon="11.4749060668917"><ele>278.0</ele><time>2026-05-02T11:42:25.003Z</time></trkpt><trkpt lat="44.165822631149624" lon="11.474866008030219"><ele>278.0</ele><time>2026-05-02T11:42:26.003Z</time></trkpt><trkpt lat="44.165950156212816" lon="11.474853474547357"><ele>279.75</ele><time>2026-05-02T11:42:27.003Z</time></trkpt><trkpt lat="44.166077550546035" lon="11.474859784613379"><ele>281.5</ele><time>2026-05-02T11:42:28.003Z</time></trkpt><trkpt lat="44.166190316513" lon="11.474836116714208"><ele>283.25</ele><time>2026-05-02T11:42:29.003Z</time></trkpt><trkpt lat="44.16629087278639" lon="11.474759271001973"><ele>285.0</ele><time>2026-05-02T11:42:30.003Z</time></trkpt><trkpt lat="44.166379431110016" lon="11.474654327675946"><ele>284.8</ele><time>2026-05-02T11:42:31.003Z</time></trkpt><trkpt lat="44.16647596517079" lon="11.474561203472847"><ele>284.6</ele><time>2026-05-02T11:42:32.003Z</time></trkpt><trkpt lat="44.16658289115859" lon="11.474505600373321"><ele>284.4</ele><time>2026-05-02T11:42:33Z</time></trkpt><trkpt lat="44.16668232418978" lon="11.474501625166358"><ele>284.2</ele><time>2026-05-02T11:42:34Z</time></trkpt><trkpt lat="44.1667722890623" lon="11.474537084861339"><ele>284.0</ele><time>2026-05-02T11:42:35Z</time></trkpt><trkpt lat="44.16684257475609" lon="11.47462383045559"><ele>284.0</ele><time>2026-05-02T11:42:36Z</time></trkpt><trkpt lat="44.166887980458775" lon="11.474742535574418"><ele>284.0</ele><time>2026-05-02T11:42:37Z</time></trkpt><trkpt lat="44.166912043042785" lon="11.474873824557333"><ele>284.0</ele><time>2026-05-02T11:42:38Z</time></trkpt><trkpt lat="44.1669114812649" lon="11.475019537937092"><ele>284.0</ele><time>2026-05-02T11:42:39Z</time></trkpt><trkpt lat="44.16688762509748" lon="11.475168018972045"><ele>284.0</ele><time>2026-05-02T11:42:40Z</time></trkpt><trkpt lat="44.166842115481295" lon="11.475317201681895"><ele>286.25</ele><time>2026-05-02T11:42:41Z</time></trkpt><trkpt lat="44.166800725358385" lon="11.47547990984276"><ele>288.5</ele><time>2026-05-02T11:42:42Z</time></trkpt><trkpt lat="44.16678351048234" lon="11.475643951010174"><ele>290.75</ele><time>2026-05-02T11:42:43Z</time></trkpt><trkpt lat="44.16680053010842" lon="11.475806644447372"><ele>293.0</ele><time>2026-05-02T11:42:44Z</time></trkpt><trkpt lat="44.16684106926046" lon="11.475973639807345"><ele>293.0</ele><time>2026-05-02T11:42:45Z</time></trkpt><trkpt lat="44.166910573001736" lon="11.476133698922084"><ele>293.0</ele><time>2026-05-02T11:42:46Z</time></trkpt><trkpt lat="44.16699774509368" lon="11.476291397162276"><ele>293.0</ele><time>2026-05-02T11:42:47Z</time></trkpt><trkpt lat="44.167084386585415" lon="11.476459677021323"><ele>293.0</ele><time>2026-05-02T11:42:48Z</time></trkpt><trkpt lat="44.16717919028969" lon="11.476634489718913"><ele>293.0</ele><time>2026-05-02T11:42:49Z</time></trkpt><trkpt lat="44.167278582325004" lon="11.476813432345237"><ele>293.0</ele><time>2026-05-02T11:42:50Z</time></trkpt><trkpt lat="44.16737357332683" lon="11.476997697830626"><ele>293.0</ele><time>2026-05-02T11:42:51Z</time></trkpt><trkpt lat="44.16746107436945" lon="11.477182062099988"><ele>293.0</ele><time>2026-05-02T11:42:52Z</time></trkpt><trkpt lat="44.16754458811782" lon="11.477361839022116"><ele>293.0</ele><time>2026-05-02T11:42:53Z</time></trkpt><trkpt lat="44.16762617116862" lon="11.477528422904287"><ele>293.0</ele><time>2026-05-02T11:42:54Z</time></trkpt><trkpt lat="44.167704238783124" lon="11.47768840343108"><ele>293.0</ele><time>2026-05-02T11:42:55Z</time></trkpt><trkpt lat="44.16777830916969" lon="11.477837895832485"><ele>294.0</ele><time>2026-05-02T11:42:56Z</time></trkpt><trkpt lat="44.167855265939004" lon="11.477966803322667"><ele>295.0</ele><time>2026-05-02T11:42:57Z</time></trkpt><trkpt lat="44.167941274232284" lon="11.478073626011025"><ele>296.0</ele><time>2026-05-02T11:42:58Z</time></trkpt><trkpt lat="44.16803970825937" lon="11.478142421183941"><ele>297.0</ele><time>2026-05-02T11:42:59Z</time></trkpt><trkpt lat="44.168151729071866" lon="11.47817098911558"><ele>295.5</ele><time>2026-05-02T11:43:00Z</time></trkpt><trkpt lat="44.168273266964285" lon="11.478151559941804"><ele>294.0</ele><time>2026-05-02T11:43:01Z</time></trkpt><trkpt lat="44.16838840074416" lon="11.478105088145211"><ele>292.5</ele><time>2026-05-02T11:43:02Z</time></trkpt><trkpt lat="44.16849339808145" lon="11.478061168185205"><ele>291.0</ele><time>2026-05-02T11:43:03Z</time></trkpt><trkpt lat="44.168589752997796" lon="11.478032203852791"><ele>291.0</ele><time>2026-05-02T11:43:04.001Z</time></trkpt><trkpt lat="44.168679705801864" lon="11.478038469251038"><ele>291.0</ele><time>2026-05-02T11:43:05.001Z</time></trkpt><trkpt lat="44.16876073963232" lon="11.47807320012904"><ele>291.0</ele><time>2026-05-02T11:43:06.001Z</time></trkpt><trkpt lat="44.1688157373243" lon="11.47815826630036"><ele>291.0</ele><time>2026-05-02T11:43:07.001Z</time></trkpt><trkpt lat="44.16884679762331" lon="11.47828175630767"><ele>291.0</ele><time>2026-05-02T11:43:08.001Z</time></trkpt><trkpt lat="44.1688559067924" lon="11.47843500088562"><ele>291.0</ele><time>2026-05-02T11:43:09.001Z</time></trkpt><trkpt lat="44.16886299050613" lon="11.478602086471858"><ele>291.0</ele><time>2026-05-02T11:43:10.001Z</time></trkpt><trkpt lat="44.168861311865896" lon="11.478785882159686"><ele>291.0</ele><time>2026-05-02T11:43:11.001Z</time></trkpt><trkpt lat="44.1688519387524" lon="11.478982830947876"><ele>291.0</ele><time>2026-05-02T11:43:12.001Z</time></trkpt><trkpt lat="44.16883344535614" lon="11.479189764949762"><ele>293.6666666666667</ele><time>2026-05-02T11:43:13.001Z</time></trkpt><trkpt lat="44.1688215630402" lon="11.479398973143985"><ele>296.33333333333337</ele><time>2026-05-02T11:43:14.001Z</time></trkpt><trkpt lat="44.16883142421402" lon="11.479611356860378"><ele>299.0</ele><time>2026-05-02T11:43:15.001Z</time></trkpt><trkpt lat="44.168858141726915" lon="11.47982137899331"><ele>303.6666666666667</ele><time>2026-05-02T11:43:16.001Z</time></trkpt><trkpt lat="44.168886987084896" lon="11.480030141122043"><ele>308.3333333333333</ele><time>2026-05-02T11:43:17.001Z</time></trkpt><trkpt lat="44.168924206171674" lon="11.480233785125924"><ele>313.0</ele><time>2026-05-02T11:43:18.001Z</time></trkpt><trkpt lat="44.16897344800084" lon="11.480429914980894"><ele>314.75</ele><time>2026-05-02T11:43:19.001Z</time></trkpt><trkpt lat="44.169019720127665" lon="11.48062265665351"><ele>316.5</ele><time>2026-05-02T11:43:20.001Z</time></trkpt><trkpt lat="44.16905024817067" lon="11.48082281818942"><ele>318.25</ele><time>2026-05-02T11:43:21.001Z</time></trkpt><trkpt lat="44.16906225022146" lon="11.481016533746118"><ele>320.0</ele><time>2026-05-02T11:43:22.001Z</time></trkpt><trkpt lat="44.16907210125088" lon="11.48121076434052"><ele>312.0</ele><time>2026-05-02T11:43:23.001Z</time></trkpt><trkpt lat="44.16909598389932" lon="11.481406064211436"><ele>304.0</ele><time>2026-05-02T11:43:24.001Z</time></trkpt><trkpt lat="44.169141955276146" lon="11.48159211742181"><ele>296.0</ele><time>2026-05-02T11:43:25.001Z</time></trkpt><trkpt lat="44.16928484914763" lon="11.481945545099865"><ele>302.6666666666667</ele><time>2026-05-02T11:43:27.001Z</time></trkpt><trkpt lat="44.16948413425848" lon="11.482236260383486"><ele>309.3333333333333</ele><time>2026-05-02T11:43:29.001Z</time></trkpt><trkpt lat="44.16960623425267" lon="11.482353050090188"><ele>316.0</ele><time>2026-05-02T11:43:30.001Z</time></trkpt><trkpt lat="44.169722967927754" lon="11.482469150951077"><ele>316.0</ele><time>2026-05-02T11:43:31.001Z</time></trkpt><trkpt lat="44.1698285162419" lon="11.48259980715091"><ele>316.0</ele><time>2026-05-02T11:43:32.001Z</time></trkpt><trkpt lat="44.169927012383525" lon="11.482746583545113"><ele>316.0</ele><time>2026-05-02T11:43:33.001Z</time></trkpt><trkpt lat="44.170015980227824" lon="11.482896084494591"><ele>316.0</ele><time>2026-05-02T11:43:34.001Z</time></trkpt><trkpt lat="44.17009646462508" lon="11.483042803031102"><ele>313.2</ele><time>2026-05-02T11:43:35.001Z</time></trkpt><trkpt lat="44.17016425767263" lon="11.483181628498885"><ele>310.40000000000003</ele><time>2026-05-02T11:43:36.001Z</time></trkpt><trkpt lat="44.170219328110875" lon="11.483304677377916"><ele>307.6</ele><time>2026-05-02T11:43:37.002Z</time></trkpt><trkpt lat="44.17026731481585" lon="11.483412486386456"><ele>304.8</ele><time>2026-05-02T11:43:38.002Z</time></trkpt><trkpt lat="44.170308098418474" lon="11.48350987543829"><ele>302.0</ele><time>2026-05-02T11:43:39.002Z</time></trkpt><trkpt lat="44.170339539000494" lon="11.483593579152554"><ele>302.0</ele><time>2026-05-02T11:43:40.002Z</time></trkpt><trkpt lat="44.170386450560024" lon="11.4837115628902"><ele>302.0</ele><time>2026-05-02T11:43:42.002Z</time></trkpt><trkpt lat="44.17042936651137" lon="11.483783287331075"><ele>302.0</ele><time>2026-05-02T11:43:45.002Z</time></trkpt><trkpt lat="44.17050211220845" lon="11.48388374595385"><ele>302.0</ele><time>2026-05-02T11:46:15.003Z</time></trkpt><trkpt lat="44.170538153140406" lon="11.48395683481559"><ele>302.0</ele><time>2026-05-02T11:46:16.003Z</time></trkpt><trkpt lat="44.17057570532312" lon="11.484051422688097"><ele>302.0</ele><time>2026-05-02T11:46:17.003Z</time></trkpt><trkpt lat="44.170606348458904" lon="11.484145453424556"><ele>302.83333333333337</ele><time>2026-05-02T11:46:18.003Z</time></trkpt><trkpt lat="44.17064142874529" lon="11.484252307352056"><ele>303.6666666666667</ele><time>2026-05-02T11:46:19.003Z</time></trkpt><trkpt lat="44.17067302524608" lon="11.484366936110202"><ele>304.5</ele><time>2026-05-02T11:46:20.003Z</time></trkpt><trkpt lat="44.170696661323014" lon="11.484475857281256"><ele>305.3333333333333</ele><time>2026-05-02T11:46:21.003Z</time></trkpt><trkpt lat="44.17072703397236" lon="11.484579995777295"><ele>306.16666666666663</ele><time>2026-05-02T11:46:22.003Z</time></trkpt><trkpt lat="44.17077691165991" lon="11.484673240815175"><ele>307.0</ele><time>2026-05-02T11:46:23.003Z</time></trkpt><trkpt lat="44.17084367446146" lon="11.484754321751584"><ele>307.0</ele><time>2026-05-02T11:46:24.003Z</time></trkpt><trkpt lat="44.170918635090864" lon="11.484813442899018"><ele>307.0</ele><time>2026-05-02T11:46:25.003Z</time></trkpt><trkpt lat="44.171008497770615" lon="11.484843740550845"><ele>307.0</ele><time>2026-05-02T11:46:26.003Z</time></trkpt><trkpt lat="44.17111544047001" lon="11.484849978483775"><ele>307.0</ele><time>2026-05-02T11:46:27.003Z</time></trkpt><trkpt lat="44.17121853153888" lon="11.484853269869376"><ele>307.0</ele><time>2026-05-02T11:46:28.003Z</time></trkpt><trkpt lat="44.17132672045526" lon="11.484864450119824"><ele>307.0</ele><time>2026-05-02T11:46:29.003Z</time></trkpt><trkpt lat="44.17143626359441" lon="11.484899628166731"><ele>307.0</ele><time>2026-05-02T11:46:30.003Z</time></trkpt><trkpt lat="44.17155653367316" lon="11.484959468342156"><ele>307.0</ele><time>2026-05-02T11:46:31.003Z</time></trkpt><trkpt lat="44.17168265047285" lon="11.485032172662924"><ele>307.0</ele><time>2026-05-02T11:46:32.003Z</time></trkpt><trkpt lat="44.17181463224354" lon="11.485109040140253"><ele>301.0</ele><time>2026-05-02T11:46:33.003Z</time></trkpt><trkpt lat="44.171941763098765" lon="11.485191598035808"><ele>295.0</ele><time>2026-05-02T11:46:34.003Z</time></trkpt><trkpt lat="44.172073338039944" lon="11.485265342277003"><ele>289.0</ele><time>2026-05-02T11:46:35.003Z</time></trkpt><trkpt lat="44.17220313070742" lon="11.48533423130081"><ele>283.0</ele><time>2026-05-02T11:46:36.003Z</time></trkpt><trkpt lat="44.172332987006335" lon="11.485400042061594"><ele>289.75</ele><time>2026-05-02T11:46:37.003Z</time></trkpt><trkpt lat="44.17246246025667" lon="11.485459093037692"><ele>296.5</ele><time>2026-05-02T11:46:38.003Z</time></trkpt><trkpt lat="44.1725903715352" lon="11.485512135725811"><ele>303.25</ele><time>2026-05-02T11:46:39.003Z</time></trkpt><trkpt lat="44.17271966025109" lon="11.485555690548049"><ele>310.0</ele><time>2026-05-02T11:46:40.003Z</time></trkpt><trkpt lat="44.17285247313468" lon="11.485590423864352"><ele>310.0</ele><time>2026-05-02T11:46:41.003Z</time></trkpt><trkpt lat="44.172986095203946" lon="11.485614118672745"><ele>310.0</ele><time>2026-05-02T11:46:42.003Z</time></trkpt><trkpt lat="44.17311830559641" lon="11.485639364309717"><ele>310.0</ele><time>2026-05-02T11:46:43.003Z</time></trkpt><trkpt lat="44.173251509874106" lon="11.48565908655995"><ele>310.0</ele><time>2026-05-02T11:46:44.003Z</time></trkpt><trkpt lat="44.17338390660539" lon="11.485673860462954"><ele>306.0</ele><time>2026-05-02T11:46:45Z</time></trkpt><trkpt lat="44.1735195899201" lon="11.485686823056994"><ele>302.0</ele><time>2026-05-02T11:46:46Z</time></trkpt><trkpt lat="44.173650733514826" lon="11.485706063060608"><ele>298.0</ele><time>2026-05-02T11:46:47Z</time></trkpt><trkpt lat="44.173779797151006" lon="11.485727813357016"><ele>294.0</ele><time>2026-05-02T11:46:48Z</time></trkpt><trkpt lat="44.17390968831096" lon="11.485758989032242"><ele>289.75</ele><time>2026-05-02T11:46:49Z</time></trkpt><trkpt lat="44.1740403748217" lon="11.485811117313187"><ele>285.5</ele><time>2026-05-02T11:46:50Z</time></trkpt><trkpt lat="44.17416600537173" lon="11.48586585086329"><ele>281.25</ele><time>2026-05-02T11:46:51Z</time></trkpt><trkpt lat="44.17428335247108" lon="11.48592351709276"><ele>277.0</ele><time>2026-05-02T11:46:52Z</time></trkpt><trkpt lat="44.174394451870626" lon="11.485978669891086"><ele>277.0</ele><time>2026-05-02T11:46:53Z</time></trkpt><trkpt lat="44.174499224371374" lon="11.486042102822484"><ele>277.0</ele><time>2026-05-02T11:46:54Z</time></trkpt><trkpt lat="44.1745958949157" lon="11.486119541200601"><ele>277.0</ele><time>2026-05-02T11:46:55Z</time></trkpt><trkpt lat="44.174688828321486" lon="11.48620896008493"><ele>277.0</ele><time>2026-05-02T11:46:56Z</time></trkpt><trkpt lat="44.17476859300438" lon="11.486311641936451"><ele>277.0</ele><time>2026-05-02T11:46:57Z</time></trkpt><trkpt lat="44.1748259776937" lon="11.486434012449614"><ele>277.25</ele><time>2026-05-02T11:46:58Z</time></trkpt><trkpt lat="44.17486736403395" lon="11.486569440220709"><ele>277.5</ele><time>2026-05-02T11:46:59Z</time></trkpt><trkpt lat="44.174895782676906" lon="11.486727245202491"><ele>277.75</ele><time>2026-05-02T11:47:00Z</time></trkpt><trkpt lat="44.17492339181103" lon="11.486884991942931"><ele>278.0</ele><time>2026-05-02T11:47:01Z</time></trkpt><trkpt lat="44.174962240372665" lon="11.487035454201228"><ele>278.75</ele><time>2026-05-02T11:47:02Z</time></trkpt><trkpt lat="44.17502002502014" lon="11.48716432928092"><ele>279.5</ele><time>2026-05-02T11:47:03Z</time></trkpt><trkpt lat="44.175100659258355" lon="11.487278651341036"><ele>280.25</ele><time>2026-05-02T11:47:04Z</time></trkpt><trkpt lat="44.17519946936875" lon="11.48738107460789"><ele>281.0</ele><time>2026-05-02T11:47:05Z</time></trkpt><trkpt lat="44.175306234443035" lon="11.487465899196096"><ele>281.0</ele><time>2026-05-02T11:47:06Z</time></trkpt><trkpt lat="44.17541657585198" lon="11.487537119295315"><ele>281.0</ele><time>2026-05-02T11:47:07Z</time></trkpt><trkpt lat="44.175522225719206" lon="11.487577740888156"><ele>281.0</ele><time>2026-05-02T11:47:08Z</time></trkpt><trkpt lat="44.17563576045457" lon="11.487592189713853"><ele>281.0</ele><time>2026-05-02T11:47:09Z</time></trkpt><trkpt lat="44.175753939449145" lon="11.487567814728038"><ele>282.0</ele><time>2026-05-02T11:47:10Z</time></trkpt><trkpt lat="44.17586570099991" lon="11.487501076464477"><ele>283.0</ele><time>2026-05-02T11:47:11Z</time></trkpt><trkpt lat="44.17596575444675" lon="11.487390627348836"><ele>284.0</ele><time>2026-05-02T11:47:12Z</time></trkpt><trkpt lat="44.17606219755277" lon="11.487263709929202"><ele>285.0</ele><time>2026-05-02T11:47:13Z</time></trkpt><trkpt lat="44.17613919454663" lon="11.487133418361635"><ele>283.25</ele><time>2026-05-02T11:47:14Z</time></trkpt><trkpt lat="44.176222973746675" lon="11.487035239273336"><ele>281.5</ele><time>2026-05-02T11:47:15.001Z</time></trkpt><trkpt lat="44.17632318688544" lon="11.486967677540413"><ele>279.75</ele><time>2026-05-02T11:47:16.001Z</time></trkpt><trkpt lat="44.176442267989174" lon="11.486939906354872"><ele>278.0</ele><time>2026-05-02T11:47:17.001Z</time></trkpt><trkpt lat="44.17656648473902" lon="11.486950734307136"><ele>278.0</ele><time>2026-05-02T11:47:18.001Z</time></trkpt><trkpt lat="44.176690426502766" lon="11.486999148833565"><ele>278.0</ele><time>2026-05-02T11:47:19.001Z</time></trkpt><trkpt lat="44.17681843417509" lon="11.48704477059076"><ele>278.0</ele><time>2026-05-02T11:47:20.001Z</time></trkpt><trkpt lat="44.176949165344645" lon="11.48713129955549"><ele>278.0</ele><time>2026-05-02T11:47:21.001Z</time></trkpt><trkpt lat="44.17707795830952" lon="11.487217122999485"><ele>278.25</ele><time>2026-05-02T11:47:22.001Z</time></trkpt><trkpt lat="44.177198042538095" lon="11.487306353033587"><ele>278.5</ele><time>2026-05-02T11:47:23.001Z</time></trkpt><trkpt lat="44.17731049005162" lon="11.487406994547179"><ele>278.75</ele><time>2026-05-02T11:47:24.001Z</time></trkpt><trkpt lat="44.17740936234" lon="11.487537489498171"><ele>279.0</ele><time>2026-05-02T11:47:25.001Z</time></trkpt><trkpt lat="44.17749238377171" lon="11.48767998554622"><ele>279.0</ele><time>2026-05-02T11:47:26.001Z</time></trkpt><trkpt lat="44.1775609144482" lon="11.487831108244038"><ele>279.0</ele><time>2026-05-02T11:47:27.001Z</time></trkpt><trkpt lat="44.177616989799525" lon="11.48800166342679"><ele>279.0</ele><time>2026-05-02T11:47:28.001Z</time></trkpt><trkpt lat="44.177654709843466" lon="11.48818618545662"><ele>279.0</ele><time>2026-05-02T11:47:29.001Z</time></trkpt><trkpt lat="44.177683236276486" lon="11.488374456041264"><ele>280.5</ele><time>2026-05-02T11:47:30.001Z</time></trkpt><trkpt lat="44.177720609957085" lon="11.488557116464662"><ele>282.0</ele><time>2026-05-02T11:47:31.001Z</time></trkpt><trkpt lat="44.17775811504086" lon="11.488741897377887"><ele>283.5</ele><time>2026-05-02T11:47:32.001Z</time></trkpt><trkpt lat="44.1777910639253" lon="11.488924057462263"><ele>285.0</ele><time>2026-05-02T11:47:33.001Z</time></trkpt><trkpt lat="44.17782063860645" lon="11.48909449165106"><ele>285.0</ele><time>2026-05-02T11:47:34.001Z</time></trkpt><trkpt lat="44.177846577078924" lon="11.489258866632408"><ele>285.0</ele><time>2026-05-02T11:47:35.001Z</time></trkpt><trkpt lat="44.17785789896415" lon="11.489430106049866"><ele>285.0</ele><time>2026-05-02T11:47:36.001Z</time></trkpt><trkpt lat="44.17784802980588" lon="11.489617013221928"><ele>285.0</ele><time>2026-05-02T11:47:37.001Z</time></trkpt><trkpt lat="44.17782549369117" lon="11.489804520590669"><ele>285.0</ele><time>2026-05-02T11:47:38.001Z</time></trkpt><trkpt lat="44.17780124839494" lon="11.489997331904231"><ele>285.0</ele><time>2026-05-02T11:47:39.001Z</time></trkpt><trkpt lat="44.17777731006309" lon="11.490195678172958"><ele>285.0</ele><time>2026-05-02T11:47:40.001Z</time></trkpt><trkpt lat="44.17774531703062" lon="11.490393796323142"><ele>285.0</ele><time>2026-05-02T11:47:41.001Z</time></trkpt><trkpt lat="44.17771082665244" lon="11.490576100271175"><ele>284.2</ele><time>2026-05-02T11:47:42.001Z</time></trkpt><trkpt lat="44.17767578801569" lon="11.490740892689423"><ele>283.4</ele><time>2026-05-02T11:47:43.001Z</time></trkpt><trkpt lat="44.177630095980525" lon="11.490882098487855"><ele>282.6</ele><time>2026-05-02T11:47:44.001Z</time></trkpt><trkpt lat="44.177567993301594" lon="11.491002860847077"><ele>281.8</ele><time>2026-05-02T11:47:45.001Z</time></trkpt><trkpt lat="44.1774880286963" lon="11.491103302178283"><ele>281.0</ele><time>2026-05-02T11:47:46.001Z</time></trkpt><trkpt lat="44.177388752624815" lon="11.491180771073655"><ele>284.5</ele><time>2026-05-02T11:47:47.001Z</time></trkpt><trkpt lat="44.17728576657653" lon="11.491256496082965"><ele>288.0</ele><time>2026-05-02T11:47:48.001Z</time></trkpt><trkpt lat="44.177195618238834" lon="11.491368098393007"><ele>291.5</ele><time>2026-05-02T11:47:49.001Z</time></trkpt><trkpt lat="44.1771220221201" lon="11.491509127935219"><ele>295.0</ele><time>2026-05-02T11:47:50.002Z</time></trkpt><trkpt lat="44.177067316229575" lon="11.491661299251245"><ele>295.0</ele><time>2026-05-02T11:47:51.002Z</time></trkpt><trkpt lat="44.177006900409886" lon="11.491817226720807"><ele>295.0</ele><time>2026-05-02T11:47:52.002Z</time></trkpt><trkpt lat="44.17693484173155" lon="11.491941605405911"><ele>295.0</ele><time>2026-05-02T11:47:53.002Z</time></trkpt><trkpt lat="44.176840648083136" lon="11.492030663275541"><ele>295.0</ele><time>2026-05-02T11:47:54.002Z</time></trkpt><trkpt lat="44.1767331363998" lon="11.492092142681512"><ele>292.4</ele><time>2026-05-02T11:47:55.002Z</time></trkpt><trkpt lat="44.17662736916917" lon="11.492152903558306"><ele>289.8</ele><time>2026-05-02T11:47:56.002Z</time></trkpt><trkpt lat="44.176544372698835" lon="11.492245386702379"><ele>287.2</ele><time>2026-05-02T11:47:57.002Z</time></trkpt><trkpt lat="44.17648669576718" lon="11.492372519498753"><ele>284.6</ele><time>2026-05-02T11:47:58.002Z</time></trkpt><trkpt lat="44.17646454298035" lon="11.492520810404882"><ele>282.0</ele><time>2026-05-02T11:47:59.002Z</time></trkpt><trkpt lat="44.176482696195066" lon="11.492674916729335"><ele>282.0</ele><time>2026-05-02T11:48:00.002Z</time></trkpt><trkpt lat="44.176526393441755" lon="11.492833250957334"><ele>282.0</ele><time>2026-05-02T11:48:01.002Z</time></trkpt><trkpt lat="44.17658739504917" lon="11.492988149504848"><ele>282.0</ele><time>2026-05-02T11:48:02.002Z</time></trkpt><trkpt lat="44.176656673432355" lon="11.49315312941023"><ele>282.0</ele><time>2026-05-02T11:48:03.002Z</time></trkpt><trkpt lat="44.17669200335535" lon="11.493334200071189"><ele>281.25</ele><time>2026-05-02T11:48:04.002Z</time></trkpt><trkpt lat="44.17669146248366" lon="11.493530710270335"><ele>280.5</ele><time>2026-05-02T11:48:05.002Z</time></trkpt><trkpt lat="44.17667507258939" lon="11.493731584002711"><ele>279.75</ele><time>2026-05-02T11:48:06.002Z</time></trkpt><trkpt lat="44.17668132764996" lon="11.493922772156136"><ele>279.0</ele><time>2026-05-02T11:48:07.002Z</time></trkpt><trkpt lat="44.1767269336648" lon="11.494104009499784"><ele>280.75</ele><time>2026-05-02T11:48:08.002Z</time></trkpt><trkpt lat="44.1768020486944" lon="11.494267286391288"><ele>282.5</ele><time>2026-05-02T11:48:09.002Z</time></trkpt><trkpt lat="44.17689186352889" lon="11.494413771911914"><ele>284.25</ele><time>2026-05-02T11:48:10.002Z</time></trkpt><trkpt lat="44.17695766740389" lon="11.494552966064166"><ele>286.0</ele><time>2026-05-02T11:48:11.002Z</time></trkpt><trkpt lat="44.176986938769936" lon="11.494696389285668"><ele>287.40000000000003</ele><time>2026-05-02T11:48:12.002Z</time></trkpt><trkpt lat="44.176986677007434" lon="11.494833410649191"><ele>288.8</ele><time>2026-05-02T11:48:13.002Z</time></trkpt><trkpt lat="44.17695146794334" lon="11.494956356951818"><ele>290.20000000000005</ele><time>2026-05-02T11:48:14.002Z</time></trkpt><trkpt lat="44.17688460294761" lon="11.495070526864758"><ele>291.6</ele><time>2026-05-02T11:48:15.002Z</time></trkpt><trkpt lat="44.17680361739576" lon="11.495183999456446"><ele>293.0</ele><time>2026-05-02T11:48:16.002Z</time></trkpt><trkpt lat="44.17671515897888" lon="11.495297921436906"><ele>293.0</ele><time>2026-05-02T11:48:17.002Z</time></trkpt><trkpt lat="44.1766352731618" lon="11.495415437074834"><ele>293.0</ele><time>2026-05-02T11:48:18.002Z</time></trkpt><trkpt lat="44.17656018570228" lon="11.495525357654008"><ele>293.0</ele><time>2026-05-02T11:48:19.002Z</time></trkpt><trkpt lat="44.17650630771978" lon="11.495647290138466"><ele>293.0</ele><time>2026-05-02T11:48:20.002Z</time></trkpt><trkpt lat="44.176488408701125" lon="11.49577950177781"><ele>293.0</ele><time>2026-05-02T11:48:21.002Z</time></trkpt><trkpt lat="44.17651065987964" lon="11.495902598125198"><ele>293.0</ele><time>2026-05-02T11:48:22.002Z</time></trkpt><trkpt lat="44.176570213171665" lon="11.495989884408392"><ele>293.0</ele><time>2026-05-02T11:48:23.002Z</time></trkpt><trkpt lat="44.17665409480789" lon="11.496050743308327"><ele>293.0</ele><time>2026-05-02T11:48:24.002Z</time></trkpt><trkpt lat="44.17675760058198" lon="11.496061845823478"><ele>293.0</ele><time>2026-05-02T11:48:25.003Z</time></trkpt><trkpt lat="44.17686250942145" lon="11.496024257153458"><ele>293.0</ele><time>2026-05-02T11:48:26.003Z</time></trkpt><trkpt lat="44.17696873556747" lon="11.49594382262991"><ele>293.0</ele><time>2026-05-02T11:48:27.003Z</time></trkpt><trkpt lat="44.17706880794112" lon="11.495843747583702"><ele>293.0</ele><time>2026-05-02T11:48:28.003Z</time></trkpt><trkpt lat="44.17716564002324" lon="11.495725973565932"><ele>293.0</ele><time>2026-05-02T11:48:29.003Z</time></trkpt><trkpt lat="44.17725688110278" lon="11.495599677459932"><ele>293.0</ele><time>2026-05-02T11:48:30.003Z</time></trkpt><trkpt lat="44.17733392337551" lon="11.495474821828848"><ele>290.8</ele><time>2026-05-02T11:48:31.003Z</time></trkpt><trkpt lat="44.17741188611743" lon="11.495365664695818"><ele>288.6</ele><time>2026-05-02T11:48:32.003Z</time></trkpt><trkpt lat="44.177492112731834" lon="11.495270509563202"><ele>286.4</ele><time>2026-05-02T11:48:33.003Z</time></trkpt><trkpt lat="44.17758034804746" lon="11.495186866222102"><ele>284.2</ele><time>2026-05-02T11:48:34.003Z</time></trkpt><trkpt lat="44.17768164941875" lon="11.495130550273862"><ele>282.0</ele><time>2026-05-02T11:48:35.003Z</time></trkpt><trkpt lat="44.17779421965701" lon="11.495109936105292"><ele>282.0</ele><time>2026-05-02T11:48:36.003Z</time></trkpt><trkpt lat="44.17791373829875" lon="11.495118313784578"><ele>282.0</ele><time>2026-05-02T11:48:37.003Z</time></trkpt><trkpt lat="44.17803513823252" lon="11.495148126302125"><ele>282.0</ele><time>2026-05-02T11:48:38.003Z</time></trkpt><trkpt lat="44.178134045742446" lon="11.495213128958062"><ele>282.0</ele><time>2026-05-02T11:48:39.003Z</time></trkpt><trkpt lat="44.17822015056052" lon="11.495279623826232"><ele>281.0</ele><time>2026-05-02T11:48:40.003Z</time></trkpt><trkpt lat="44.17829343297799" lon="11.495393234617326"><ele>280.0</ele><time>2026-05-02T11:48:41.003Z</time></trkpt><trkpt lat="44.17836029262656" lon="11.495536183147673"><ele>279.0</ele><time>2026-05-02T11:48:42.003Z</time></trkpt><trkpt lat="44.178420732674844" lon="11.495688196143304"><ele>278.0</ele><time>2026-05-02T11:48:43.003Z</time></trkpt><trkpt lat="44.178482296396005" lon="11.49585253247781"><ele>281.75</ele><time>2026-05-02T11:48:44.003Z</time></trkpt><trkpt lat="44.178546267057555" lon="11.496029091898174"><ele>285.5</ele><time>2026-05-02T11:48:45.003Z</time></trkpt><trkpt lat="44.178605409472105" lon="11.496215026739936"><ele>289.25</ele><time>2026-05-02T11:48:46.003Z</time></trkpt><trkpt lat="44.178658981145865" lon="11.496402035894638"><ele>293.0</ele><time>2026-05-02T11:48:47.003Z</time></trkpt><trkpt lat="44.178705211359976" lon="11.496581264204156"><ele>294.6</ele><time>2026-05-02T11:48:48.003Z</time></trkpt><trkpt lat="44.1787384195611" lon="11.496742996174886"><ele>296.20000000000005</ele><time>2026-05-02T11:48:49.003Z</time></trkpt><trkpt lat="44.17875313516693" lon="11.496894848490255"><ele>297.8</ele><time>2026-05-02T11:48:50.003Z</time></trkpt><trkpt lat="44.1787399463614" lon="11.497039483912145"><ele>299.40000000000003</ele><time>2026-05-02T11:48:51Z</time></trkpt><trkpt lat="44.17870289820451" lon="11.497180265483648"><ele>301.0</ele><time>2026-05-02T11:48:51.999Z</time></trkpt><trkpt lat="44.17864194934529" lon="11.49730593750057"><ele>301.0</ele><time>2026-05-02T11:48:52.999Z</time></trkpt><trkpt lat="44.17856021079168" lon="11.497416335530657"><ele>301.0</ele><time>2026-05-02T11:48:53.999Z</time></trkpt><trkpt lat="44.17846003944469" lon="11.497512689535796"><ele>301.0</ele><time>2026-05-02T11:48:54.999Z</time></trkpt><trkpt lat="44.1782158050394" lon="11.497643480638505"><ele>304.75</ele><time>2026-05-02T11:48:56.999Z</time></trkpt><trkpt lat="44.178085717460846" lon="11.497702909712636"><ele>308.5</ele><time>2026-05-02T11:48:57.999Z</time></trkpt><trkpt lat="44.17795693518036" lon="11.497766345661079"><ele>312.25</ele><time>2026-05-02T11:48:59Z</time></trkpt><trkpt lat="44.17784288814103" lon="11.497826004667905"><ele>316.0</ele><time>2026-05-02T11:49:00Z</time></trkpt><trkpt lat="44.177735722869805" lon="11.497886002635981"><ele>315.6</ele><time>2026-05-02T11:49:01Z</time></trkpt><trkpt lat="44.177645969546525" lon="11.497961755086864"><ele>315.20000000000005</ele><time>2026-05-02T11:49:02Z</time></trkpt><trkpt lat="44.17758865378043" lon="11.498065991078196"><ele>314.79999999999995</ele><time>2026-05-02T11:49:03Z</time></trkpt><trkpt lat="44.1775762031047" lon="11.498182720060946"><ele>314.4</ele><time>2026-05-02T11:49:04Z</time></trkpt><trkpt lat="44.17760085935734" lon="11.498298671951673"><ele>314.0</ele><time>2026-05-02T11:49:05Z</time></trkpt><trkpt lat="44.177662093134444" lon="11.49840482037369"><ele>314.0</ele><time>2026-05-02T11:49:06Z</time></trkpt><trkpt lat="44.17775234739566" lon="11.498491255842229"><ele>314.0</ele><time>2026-05-02T11:49:07Z</time></trkpt><trkpt lat="44.177868944352305" lon="11.49854769773444"><ele>314.0</ele><time>2026-05-02T11:49:08Z</time></trkpt><trkpt lat="44.17799635027677" lon="11.498585028446554"><ele>314.0</ele><time>2026-05-02T11:49:09Z</time></trkpt><trkpt lat="44.178132875810405" lon="11.498603482035932"><ele>312.5</ele><time>2026-05-02T11:49:10Z</time></trkpt><trkpt lat="44.178264947646575" lon="11.498633527705529"><ele>311.0</ele><time>2026-05-02T11:49:11Z</time></trkpt><trkpt lat="44.17838634669917" lon="11.498672589499071"><ele>309.5</ele><time>2026-05-02T11:49:12Z</time></trkpt><trkpt lat="44.178503619829485" lon="11.498723782689495"><ele>308.0</ele><time>2026-05-02T11:49:13Z</time></trkpt><trkpt lat="44.17861641612223" lon="11.498817082834465"><ele>311.0</ele><time>2026-05-02T11:49:14Z</time></trkpt><trkpt lat="44.178725477347" lon="11.49893146842353"><ele>314.0</ele><time>2026-05-02T11:49:15Z</time></trkpt><trkpt lat="44.17883731347232" lon="11.499064007587318"><ele>317.0</ele><time>2026-05-02T11:49:16Z</time></trkpt><trkpt lat="44.17895470302122" lon="11.499195500392045"><ele>320.0</ele><time>2026-05-02T11:49:17Z</time></trkpt><trkpt lat="44.179077561018815" lon="11.49933258205198"><ele>320.0</ele><time>2026-05-02T11:49:18Z</time></trkpt><trkpt lat="44.179198972900906" lon="11.499478086894008"><ele>320.0</ele><time>2026-05-02T11:49:19Z</time></trkpt><trkpt lat="44.179313675630276" lon="11.499629127493511"><ele>320.0</ele><time>2026-05-02T11:49:20Z</time></trkpt><trkpt lat="44.179425285987406" lon="11.49978837057408"><ele>322.5</ele><time>2026-05-02T11:49:21Z</time></trkpt><trkpt lat="44.17952996550765" lon="11.49994923875823"><ele>325.0</ele><time>2026-05-02T11:49:22Z</time></trkpt><trkpt lat="44.17962657448012" lon="11.500108884087691"><ele>327.5</ele><time>2026-05-02T11:49:23Z</time></trkpt><trkpt lat="44.179720292433394" lon="11.50025265581877"><ele>330.0</ele><time>2026-05-02T11:49:24Z</time></trkpt><trkpt lat="44.1798173434661" lon="11.500368889039846"><ele>326.0</ele><time>2026-05-02T11:49:25Z</time></trkpt><trkpt lat="44.17991356510912" lon="11.500462762269919"><ele>322.0</ele><time>2026-05-02T11:49:26Z</time></trkpt><trkpt lat="44.17998870651838" lon="11.500568643973278"><ele>318.0</ele><time>2026-05-02T11:49:27.001Z</time></trkpt><trkpt lat="44.18003025052217" lon="11.500736088822785"><ele>314.0</ele><time>2026-05-02T11:49:28.001Z</time></trkpt><trkpt lat="44.180064918472574" lon="11.500916159549968"><ele>314.0</ele><time>2026-05-02T11:49:29.001Z</time></trkpt><trkpt lat="44.180108796299514" lon="11.501104141063339"><ele>314.0</ele><time>2026-05-02T11:49:30.001Z</time></trkpt><trkpt lat="44.180168972252545" lon="11.501298830495974"><ele>314.0</ele><time>2026-05-02T11:49:31.001Z</time></trkpt><trkpt lat="44.18023455137962" lon="11.50147655125095"><ele>314.0</ele><time>2026-05-02T11:49:32.001Z</time></trkpt><trkpt lat="44.18030406202375" lon="11.501642360717087"><ele>316.2</ele><time>2026-05-02T11:49:33.001Z</time></trkpt><trkpt lat="44.180376348654924" lon="11.501793496627513"><ele>318.4</ele><time>2026-05-02T11:49:34.001Z</time></trkpt><trkpt lat="44.180434542835194" lon="11.501927978916077"><ele>320.6</ele><time>2026-05-02T11:49:35.001Z</time></trkpt><trkpt lat="44.18048795294" lon="11.50204614790889"><ele>322.8</ele><time>2026-05-02T11:49:36.001Z</time></trkpt><trkpt lat="44.180558981258976" lon="11.502140841116697"><ele>325.0</ele><time>2026-05-02T11:49:37.001Z</time></trkpt><trkpt lat="44.1806660666223" lon="11.502185118808574"><ele>321.0</ele><time>2026-05-02T11:49:38.001Z</time></trkpt><trkpt lat="44.18077523320982" lon="11.502195393273787"><ele>317.0</ele><time>2026-05-02T11:49:39.001Z</time></trkpt><trkpt lat="44.18090445859163" lon="11.502157208682858"><ele>313.0</ele><time>2026-05-02T11:49:40.001Z</time></trkpt><trkpt lat="44.18103252012827" lon="11.502097640793902"><ele>309.0</ele><time>2026-05-02T11:49:41.001Z</time></trkpt><trkpt lat="44.18117447935551" lon="11.502055776841601"><ele>306.25</ele><time>2026-05-02T11:49:42.001Z</time></trkpt><trkpt lat="44.18131569161859" lon="11.502021733874669"><ele>303.5</ele><time>2026-05-02T11:49:43.001Z</time></trkpt><trkpt lat="44.18144837590559" lon="11.50198616010347"><ele>300.75</ele><time>2026-05-02T11:49:44.001Z</time></trkpt><trkpt lat="44.18157263090721" lon="11.501950590186597"><ele>298.0</ele><time>2026-05-02T11:49:45.001Z</time></trkpt><trkpt lat="44.18169161277913" lon="11.501915379788336"><ele>297.66666666666663</ele><time>2026-05-02T11:49:46.001Z</time></trkpt><trkpt lat="44.18180592573889" lon="11.501895107243291"><ele>297.3333333333333</ele><time>2026-05-02T11:49:47.001Z</time></trkpt><trkpt lat="44.18190009635573" lon="11.50187283964826"><ele>297.0</ele><time>2026-05-02T11:49:48.001Z</time></trkpt><trkpt lat="44.18198124284733" lon="11.50185931749041"><ele>296.6666666666667</ele><time>2026-05-02T11:49:49.001Z</time></trkpt><trkpt lat="44.18205371492314" lon="11.501884451609225"><ele>296.33333333333337</ele><time>2026-05-02T11:49:50.001Z</time></trkpt><trkpt lat="44.18211114714918" lon="11.501963246409987"><ele>296.0</ele><time>2026-05-02T11:49:51.001Z</time></trkpt><trkpt lat="44.18214844404299" lon="11.502086922576778"><ele>297.25</ele><time>2026-05-02T11:49:52.001Z</time></trkpt><trkpt lat="44.18217094827425" lon="11.50222539085066"><ele>298.5</ele><time>2026-05-02T11:49:53.001Z</time></trkpt><trkpt lat="44.182193983405334" lon="11.502377251697974"><ele>299.75</ele><time>2026-05-02T11:49:54.001Z</time></trkpt><trkpt lat="44.182222550788666" lon="11.502541498478015"><ele>301.0</ele><time>2026-05-02T11:49:55.001Z</time></trkpt><trkpt lat="44.18225787055969" lon="11.502726325992302"><ele>301.0</ele><time>2026-05-02T11:49:56.001Z</time></trkpt><trkpt lat="44.182299808319414" lon="11.502906614672122"><ele>301.0</ele><time>2026-05-02T11:49:57.001Z</time></trkpt><trkpt lat="44.1823355971871" lon="11.503101572946623"><ele>301.0</ele><time>2026-05-02T11:49:58.002Z</time></trkpt><trkpt lat="44.182372500396774" lon="11.503286429633498"><ele>301.0</ele><time>2026-05-02T11:49:59.002Z</time></trkpt><trkpt lat="44.18240653831443" lon="11.503456270466483"><ele>301.0</ele><time>2026-05-02T11:50:00.002Z</time></trkpt><trkpt lat="44.18244670745384" lon="11.503610058773054"><ele>301.0</ele><time>2026-05-02T11:50:01.002Z</time></trkpt><trkpt lat="44.18250893269943" lon="11.503747576117238"><ele>301.0</ele><time>2026-05-02T11:50:02.002Z</time></trkpt><trkpt lat="44.18259992410134" lon="11.503861280261507"><ele>301.0</ele><time>2026-05-02T11:50:03.002Z</time></trkpt><trkpt lat="44.182712926006865" lon="11.503945762918448"><ele>301.0</ele><time>2026-05-02T11:50:04.002Z</time></trkpt><trkpt lat="44.182837886482965" lon="11.503996068869732"><ele>301.0</ele><time>2026-05-02T11:50:05.002Z</time></trkpt><trkpt lat="44.182976117529684" lon="11.50401305607756"><ele>301.0</ele><time>2026-05-02T11:50:06.002Z</time></trkpt><trkpt lat="44.183103378136984" lon="11.504020353549466"><ele>301.0</ele><time>2026-05-02T11:50:07.002Z</time></trkpt><trkpt lat="44.18322193077203" lon="11.504025379994863"><ele>300.5</ele><time>2026-05-02T11:50:08.002Z</time></trkpt><trkpt lat="44.18333949855368" lon="11.504006934611867"><ele>300.0</ele><time>2026-05-02T11:50:09.002Z</time></trkpt><trkpt lat="44.183450363257506" lon="11.503943288141048"><ele>299.5</ele><time>2026-05-02T11:50:10.002Z</time></trkpt><trkpt lat="44.18354669930542" lon="11.503829322983188"><ele>299.0</ele><time>2026-05-02T11:50:11.002Z</time></trkpt><trkpt lat="44.18363393062968" lon="11.50368935753542"><ele>294.0</ele><time>2026-05-02T11:50:12.002Z</time></trkpt><trkpt lat="44.183727419156206" lon="11.503562718456019"><ele>289.0</ele><time>2026-05-02T11:50:13.002Z</time></trkpt><trkpt lat="44.183829250897475" lon="11.503462287123643"><ele>284.0</ele><time>2026-05-02T11:50:14.002Z</time></trkpt><trkpt lat="44.183936881924616" lon="11.503398499013725"><ele>279.0</ele><time>2026-05-02T11:50:15.002Z</time></trkpt><trkpt lat="44.18405913890956" lon="11.503368426753086"><ele>277.25</ele><time>2026-05-02T11:50:16.002Z</time></trkpt><trkpt lat="44.18419072514353" lon="11.50338312608292"><ele>275.5</ele><time>2026-05-02T11:50:17.002Z</time></trkpt><trkpt lat="44.18432102865209" lon="11.50340255131109"><ele>273.75</ele><time>2026-05-02T11:50:18.002Z</time></trkpt><trkpt lat="44.184446448644714" lon="11.503384969515148"><ele>272.0</ele><time>2026-05-02T11:50:19.002Z</time></trkpt><trkpt lat="44.18456958403163" lon="11.503344218742445"><ele>272.0</ele><time>2026-05-02T11:50:20.002Z</time></trkpt><trkpt lat="44.18468572708839" lon="11.503304780830412"><ele>272.0</ele><time>2026-05-02T11:50:21.002Z</time></trkpt><trkpt lat="44.18479211275235" lon="11.503275375946258"><ele>272.0</ele><time>2026-05-02T11:50:22.002Z</time></trkpt><trkpt lat="44.18489480801867" lon="11.503282308804813"><ele>272.0</ele><time>2026-05-02T11:50:23.002Z</time></trkpt><trkpt lat="44.18499141071626" lon="11.503328573504604"><ele>272.0</ele><time>2026-05-02T11:50:24.002Z</time></trkpt><trkpt lat="44.185075912985035" lon="11.503406605970216"><ele>271.0</ele><time>2026-05-02T11:50:25.002Z</time></trkpt><trkpt lat="44.18515224410209" lon="11.503521921419514"><ele>270.0</ele><time>2026-05-02T11:50:26.002Z</time></trkpt><trkpt lat="44.18522207667649" lon="11.503648396337685"><ele>269.0</ele><time>2026-05-02T11:50:27.002Z</time></trkpt><trkpt lat="44.18537344652189" lon="11.503827208816636"><ele>268.0</ele><time>2026-05-02T11:50:29.002Z</time></trkpt><trkpt lat="44.185463319175796" lon="11.503851547304574"><ele>268.0</ele><time>2026-05-02T11:50:30.002Z</time></trkpt><trkpt lat="44.18554954179931" lon="11.503833426186937"><ele>268.0</ele><time>2026-05-02T11:50:31.003Z</time></trkpt><trkpt lat="44.18561550652736" lon="11.503774810119818"><ele>268.0</ele><time>2026-05-02T11:50:32.003Z</time></trkpt><trkpt lat="44.18565256456545" lon="11.503666556875991"><ele>268.0</ele><time>2026-05-02T11:50:33.003Z</time></trkpt><trkpt lat="44.18565617134997" lon="11.503528479497366"><ele>268.0</ele><time>2026-05-02T11:50:34.003Z</time></trkpt><trkpt lat="44.185642210263474" lon="11.503378334143973"><ele>268.0</ele><time>2026-05-02T11:50:35.003Z</time></trkpt><trkpt lat="44.18562056449046" lon="11.503219005085086"><ele>268.0</ele><time>2026-05-02T11:50:36.003Z</time></trkpt><trkpt lat="44.18558900454087" lon="11.503062646807525"><ele>268.0</ele><time>2026-05-02T11:50:37.003Z</time></trkpt><trkpt lat="44.1855273986255" lon="11.502937858288421"><ele>268.0</ele><time>2026-05-02T11:50:38.003Z</time></trkpt><trkpt lat="44.18545401816831" lon="11.502830555909458"><ele>268.0</ele><time>2026-05-02T11:50:39.003Z</time></trkpt><trkpt lat="44.18540300191565" lon="11.502711280617355"><ele>263.75</ele><time>2026-05-02T11:50:40.003Z</time></trkpt><trkpt lat="44.185391389499465" lon="11.502557071972394"><ele>259.5</ele><time>2026-05-02T11:50:41.003Z</time></trkpt><trkpt lat="44.18539544284776" lon="11.502385037433168"><ele>255.25</ele><time>2026-05-02T11:50:42.003Z</time></trkpt><trkpt lat="44.185404883472806" lon="11.502209805890406"><ele>251.0</ele><time>2026-05-02T11:50:43.003Z</time></trkpt><trkpt lat="44.18542174553088" lon="11.50204256886163"><ele>250.75</ele><time>2026-05-02T11:50:44.003Z</time></trkpt><trkpt lat="44.185450818548006" lon="11.501886469411524"><ele>250.5</ele><time>2026-05-02T11:50:45.003Z</time></trkpt><trkpt lat="44.18550838610662" lon="11.50173989835501"><ele>250.25</ele><time>2026-05-02T11:50:46.003Z</time></trkpt><trkpt lat="44.18558819788652" lon="11.501595551202357"><ele>250.0</ele><time>2026-05-02T11:50:47.003Z</time></trkpt><trkpt lat="44.18568123357322" lon="11.501452213509099"><ele>250.0</ele><time>2026-05-02T11:50:48.003Z</time></trkpt><trkpt lat="44.18575285059628" lon="11.5012867014905"><ele>250.0</ele><time>2026-05-02T11:50:49.003Z</time></trkpt><trkpt lat="44.18578921514596" lon="11.501110418018525"><ele>250.0</ele><time>2026-05-02T11:50:50.003Z</time></trkpt><trkpt lat="44.18580721349054" lon="11.500936907577612"><ele>250.0</ele><time>2026-05-02T11:50:51.003Z</time></trkpt><trkpt lat="44.185832141005385" lon="11.500778879973673"><ele>247.25</ele><time>2026-05-02T11:50:52.003Z</time></trkpt><trkpt lat="44.1858642650726" lon="11.500632609186328"><ele>244.5</ele><time>2026-05-02T11:50:53.003Z</time></trkpt><trkpt lat="44.18591182749243" lon="11.50049719493614"><ele>241.75</ele><time>2026-05-02T11:50:54.003Z</time></trkpt><trkpt lat="44.18598382478355" lon="11.500381339357887"><ele>239.0</ele><time>2026-05-02T11:50:55.003Z</time></trkpt><trkpt lat="44.186162059095786" lon="11.50021216841272"><ele>236.66666666666669</ele><time>2026-05-02T11:50:56.999Z</time></trkpt><trkpt lat="44.18624392358245" lon="11.500153631633625"><ele>234.33333333333334</ele><time>2026-05-02T11:50:57.999Z</time></trkpt><trkpt lat="44.186303736343454" lon="11.500114882547251"><ele>232.0</ele><time>2026-05-02T11:50:58.999Z</time></trkpt><trkpt lat="44.1863733072601" lon="11.500077994823284"><ele>229.66666666666669</ele><time>2026-05-02T11:51:01.999Z</time></trkpt><trkpt lat="44.186436609520705" lon="11.500011557793023"><ele>227.33333333333334</ele><time>2026-05-02T11:52:15.002Z</time></trkpt><trkpt lat="44.18654801463783" lon="11.499989065164286"><ele>225.0</ele><time>2026-05-02T11:52:17.002Z</time></trkpt><trkpt lat="44.18661560671772" lon="11.49999185236602"><ele>225.00000000000003</ele><time>2026-05-02T11:52:18.002Z</time></trkpt><trkpt lat="44.186684930016185" lon="11.500002617542199"><ele>225.0</ele><time>2026-05-02T11:52:19.002Z</time></trkpt><trkpt lat="44.18675717187479" lon="11.500024091599629"><ele>225.00000000000003</ele><time>2026-05-02T11:52:20.002Z</time></trkpt><trkpt lat="44.186826412740764" lon="11.500059258319538"><ele>225.00000000000003</ele><time>2026-05-02T11:52:21.002Z</time></trkpt><trkpt lat="44.186888276282225" lon="11.500119246718343"><ele>225.0</ele><time>2026-05-02T11:52:22.002Z</time></trkpt><trkpt lat="44.18693765739039" lon="11.50019283095093"><ele>225.00000000000003</ele><time>2026-05-02T11:52:23.002Z</time></trkpt><trkpt lat="44.186971822812225" lon="11.500277977529672"><ele>225.00000000000003</ele><time>2026-05-02T11:52:24.002Z</time></trkpt><trkpt lat="44.186984410456866" lon="11.500367965865587"><ele>226.4</ele><time>2026-05-02T11:52:25.002Z</time></trkpt><trkpt lat="44.18696543234705" lon="11.500470544184989"><ele>227.8</ele><time>2026-05-02T11:52:26.002Z</time></trkpt><trkpt lat="44.186915425333595" lon="11.500573029797383"><ele>229.2</ele><time>2026-05-02T11:52:27.002Z</time></trkpt><trkpt lat="44.18685950168424" lon="11.500680166272435"><ele>230.6</ele><time>2026-05-02T11:52:28.002Z</time></trkpt><trkpt lat="44.18681473138649" lon="11.500808892490939"><ele>232.0</ele><time>2026-05-02T11:52:29.002Z</time></trkpt><trkpt lat="44.186792092559855" lon="11.500953894526267"><ele>232.0</ele><time>2026-05-02T11:52:30.002Z</time></trkpt><trkpt lat="44.18676982331182" lon="11.501108808725043"><ele>232.0</ele><time>2026-05-02T11:52:31.002Z</time></trkpt><trkpt lat="44.18675255884992" lon="11.501248320194552"><ele>232.0</ele><time>2026-05-02T11:52:32.002Z</time></trkpt><trkpt lat="44.18675830936098" lon="11.501365278641915"><ele>232.0</ele><time>2026-05-02T11:52:33.002Z</time></trkpt><trkpt lat="44.186784282330464" lon="11.501466009401407"><ele>232.0</ele><time>2026-05-02T11:52:34.002Z</time></trkpt><trkpt lat="44.18683842724848" lon="11.501545744622602"><ele>232.39999999999998</ele><time>2026-05-02T11:52:35.003Z</time></trkpt><trkpt lat="44.18691703262385" lon="11.501584030183514"><ele>232.79999999999998</ele><time>2026-05-02T11:52:36.003Z</time></trkpt><trkpt lat="44.18701005837963" lon="11.501589403283347"><ele>233.2</ele><time>2026-05-02T11:52:37.003Z</time></trkpt><trkpt lat="44.18710553048543" lon="11.501570335291209"><ele>233.6</ele><time>2026-05-02T11:52:38.003Z</time></trkpt><trkpt lat="44.1872003183609" lon="11.501562704410066"><ele>234.0</ele><time>2026-05-02T11:52:39.003Z</time></trkpt><trkpt lat="44.18729984229201" lon="11.501570319077034"><ele>227.79999999999998</ele><time>2026-05-02T11:52:40.003Z</time></trkpt><trkpt lat="44.18740302408448" lon="11.501572832128566"><ele>221.59999999999997</ele><time>2026-05-02T11:52:41.003Z</time></trkpt><trkpt lat="44.187509106571476" lon="11.501569759168602"><ele>215.4</ele><time>2026-05-02T11:52:42.003Z</time></trkpt><trkpt lat="44.18761993711614" lon="11.50156824997405"><ele>209.2</ele><time>2026-05-02T11:52:43.003Z</time></trkpt><trkpt lat="44.18772896245892" lon="11.501567313288673"><ele>203.0</ele><time>2026-05-02T11:52:44.003Z</time></trkpt><trkpt lat="44.18784347012985" lon="11.501565624884652"><ele>203.0</ele><time>2026-05-02T11:52:45.003Z</time></trkpt><trkpt lat="44.187956611154476" lon="11.501568781040447"><ele>203.0</ele><time>2026-05-02T11:52:46.003Z</time></trkpt><trkpt lat="44.1880638944542" lon="11.501572065543247"><ele>203.0</ele><time>2026-05-02T11:52:47.003Z</time></trkpt><trkpt lat="44.188163506178576" lon="11.501573366545149"><ele>203.0</ele><time>2026-05-02T11:52:48.003Z</time></trkpt><trkpt lat="44.18825523349113" lon="11.501568723963208"><ele>203.0</ele><time>2026-05-02T11:52:49.003Z</time></trkpt><trkpt lat="44.188343717321956" lon="11.501525351754324"><ele>204.0</ele><time>2026-05-02T11:52:50.003Z</time></trkpt><trkpt lat="44.1884224555814" lon="11.501431984321659"><ele>205.0</ele><time>2026-05-02T11:52:51.003Z</time></trkpt><trkpt lat="44.18848340298137" lon="11.501295045998605"><ele>206.0</ele><time>2026-05-02T11:52:52.003Z</time></trkpt><trkpt lat="44.18853574159954" lon="11.501137496351905"><ele>207.0</ele><time>2026-05-02T11:52:53.003Z</time></trkpt><trkpt lat="44.1885893237218" lon="11.500962749103358"><ele>211.0</ele><time>2026-05-02T11:52:54.003Z</time></trkpt><trkpt lat="44.18865280855419" lon="11.500780550758613"><ele>215.0</ele><time>2026-05-02T11:52:55.003Z</time></trkpt><trkpt lat="44.18872645241756" lon="11.500592108979884"><ele>219.0</ele><time>2026-05-02T11:52:56.003Z</time></trkpt><trkpt lat="44.18881115653996" lon="11.500413834634207"><ele>221.25</ele><time>2026-05-02T11:52:57.003Z</time></trkpt><trkpt lat="44.18889508059334" lon="11.500260769507367"><ele>223.5</ele><time>2026-05-02T11:52:58.003Z</time></trkpt><trkpt lat="44.18898220867319" lon="11.500111537375322"><ele>225.75</ele><time>2026-05-02T11:52:59.003Z</time></trkpt><trkpt lat="44.18907969452726" lon="11.499970607830955"><ele>228.0</ele><time>2026-05-02T11:53:00.003Z</time></trkpt><trkpt lat="44.18918341747435" lon="11.49984793539168"><ele>228.0</ele><time>2026-05-02T11:53:01.003Z</time></trkpt><trkpt lat="44.18930056507862" lon="11.499747569763825"><ele>228.0</ele><time>2026-05-02T11:53:02.003Z</time></trkpt><trkpt lat="44.189406486448334" lon="11.499665064751499"><ele>228.0</ele><time>2026-05-02T11:53:02.999Z</time></trkpt><trkpt lat="44.189600172601935" lon="11.499535444014626"><ele>231.75</ele><time>2026-05-02T11:53:04.999Z</time></trkpt><trkpt lat="44.18969569044282" lon="11.499491180798369"><ele>235.5</ele><time>2026-05-02T11:53:05.999Z</time></trkpt><trkpt lat="44.18980349169487" lon="11.499468692731034"><ele>239.25</ele><time>2026-05-02T11:53:06.999Z</time></trkpt><trkpt lat="44.189929525137664" lon="11.499484882821415"><ele>243.0</ele><time>2026-05-02T11:53:07.999Z</time></trkpt><trkpt lat="44.190064304940464" lon="11.499523758631303"><ele>233.0</ele><time>2026-05-02T11:53:08.999Z</time></trkpt><trkpt lat="44.19020293552557" lon="11.499586340635407"><ele>223.0</ele><time>2026-05-02T11:53:09.999Z</time></trkpt><trkpt lat="44.19034296149432" lon="11.499666913115446"><ele>213.0</ele><time>2026-05-02T11:53:10.999Z</time></trkpt><trkpt lat="44.1904867418902" lon="11.49976491552013"><ele>213.0</ele><time>2026-05-02T11:53:11.999Z</time></trkpt><trkpt lat="44.19063006423766" lon="11.49987286841657"><ele>213.0</ele><time>2026-05-02T11:53:12.999Z</time></trkpt><trkpt lat="44.1907730776209" lon="11.499995919781668"><ele>213.0</ele><time>2026-05-02T11:53:13.999Z</time></trkpt><trkpt lat="44.19091025765759" lon="11.500118759332272"><ele>209.66666666666669</ele><time>2026-05-02T11:53:14.999Z</time></trkpt><trkpt lat="44.19103998248694" lon="11.50023547981152"><ele>206.33333333333334</ele><time>2026-05-02T11:53:15.999Z</time></trkpt><trkpt lat="44.191166310228056" lon="11.500345100465337"><ele>203.0</ele><time>2026-05-02T11:53:16.999Z</time></trkpt><trkpt lat="44.19129952309662" lon="11.50043542459823"><ele>203.0</ele><time>2026-05-02T11:53:18Z</time></trkpt><trkpt lat="44.19143060695022" lon="11.500499052842923"><ele>203.0</ele><time>2026-05-02T11:53:19Z</time></trkpt><trkpt lat="44.19156622806364" lon="11.500528551365154"><ele>203.0</ele><time>2026-05-02T11:53:20Z</time></trkpt><trkpt lat="44.191699732742784" lon="11.500529678849412"><ele>203.0</ele><time>2026-05-02T11:53:21Z</time></trkpt><trkpt lat="44.191824864622596" lon="11.500486170044027"><ele>207.5</ele><time>2026-05-02T11:53:22Z</time></trkpt><trkpt lat="44.191934214473655" lon="11.500421122645514"><ele>212.0</ele><time>2026-05-02T11:53:23Z</time></trkpt><trkpt lat="44.19202399739659" lon="11.500320781337447"><ele>216.5</ele><time>2026-05-02T11:53:24Z</time></trkpt><trkpt lat="44.19210256705625" lon="11.500201983688486"><ele>221.0</ele><time>2026-05-02T11:53:25Z</time></trkpt><trkpt lat="44.19218636620138" lon="11.500115066408252"><ele>226.4</ele><time>2026-05-02T11:53:26Z</time></trkpt><trkpt lat="44.19228134001834" lon="11.50008072083976"><ele>231.8</ele><time>2026-05-02T11:53:27Z</time></trkpt><trkpt lat="44.19237970578774" lon="11.500100999454697"><ele>237.20000000000002</ele><time>2026-05-02T11:53:28Z</time></trkpt><trkpt lat="44.19248397914459" lon="11.500163369351837"><ele>242.60000000000002</ele><time>2026-05-02T11:53:29Z</time></trkpt><trkpt lat="44.19258578924082" lon="11.500246521402667"><ele>248.0</ele><time>2026-05-02T11:53:30Z</time></trkpt><trkpt lat="44.1926987201775" lon="11.50031777764303"><ele>248.0</ele><time>2026-05-02T11:53:31Z</time></trkpt><trkpt lat="44.19282758817277" lon="11.500355911073786"><ele>248.0</ele><time>2026-05-02T11:53:32Z</time></trkpt><trkpt lat="44.19296879657622" lon="11.500369175044318"><ele>248.0</ele><time>2026-05-02T11:53:33Z</time></trkpt><trkpt lat="44.19311978595919" lon="11.500356337123549"><ele>248.0</ele><time>2026-05-02T11:53:34Z</time></trkpt><trkpt lat="44.19327671077534" lon="11.500346736667316"><ele>251.0</ele><time>2026-05-02T11:53:35Z</time></trkpt><trkpt lat="44.193424160124636" lon="11.50036485071052"><ele>254.0</ele><time>2026-05-02T11:53:36Z</time></trkpt><trkpt lat="44.193562982009766" lon="11.500405975208023"><ele>257.0</ele><time>2026-05-02T11:53:37Z</time></trkpt><trkpt lat="44.193693056457555" lon="11.500422017324917"><ele>260.0</ele><time>2026-05-02T11:53:38.001Z</time></trkpt><trkpt lat="44.19383121302404" lon="11.50038611574566"><ele>260.0</ele><time>2026-05-02T11:53:39.001Z</time></trkpt><trkpt lat="44.19397229920378" lon="11.50032248998666"><ele>260.0</ele><time>2026-05-02T11:53:40.001Z</time></trkpt><trkpt lat="44.194116457276145" lon="11.500248837346346"><ele>260.0</ele><time>2026-05-02T11:53:41.001Z</time></trkpt><trkpt lat="44.19425636327947" lon="11.500179356998784"><ele>259.25</ele><time>2026-05-02T11:53:42.001Z</time></trkpt><trkpt lat="44.19439279548552" lon="11.50013739078579"><ele>258.5</ele><time>2026-05-02T11:53:43.001Z</time></trkpt><trkpt lat="44.19452123104207" lon="11.500126057398772"><ele>257.75</ele><time>2026-05-02T11:53:44.001Z</time></trkpt><trkpt lat="44.194641162903174" lon="11.500134761218339"><ele>257.0</ele><time>2026-05-02T11:53:45.001Z</time></trkpt><trkpt lat="44.194746052174104" lon="11.500178438759423"><ele>257.0</ele><time>2026-05-02T11:53:46.001Z</time></trkpt><trkpt lat="44.19483226410938" lon="11.500266610320454"><ele>257.0</ele><time>2026-05-02T11:53:47.001Z</time></trkpt><trkpt lat="44.194891133005385" lon="11.500375919611626"><ele>257.0</ele><time>2026-05-02T11:53:48.001Z</time></trkpt><trkpt lat="44.19495696616399" lon="11.50046911102753"><ele>257.0</ele><time>2026-05-02T11:53:49.001Z</time></trkpt><trkpt lat="44.19504275690057" lon="11.500521968012329"><ele>257.0</ele><time>2026-05-02T11:53:50.001Z</time></trkpt><trkpt lat="44.19514246470307" lon="11.50053348388612"><ele>255.39999999999998</ele><time>2026-05-02T11:53:51.001Z</time></trkpt><trkpt lat="44.19524488993296" lon="11.500492129973686"><ele>253.79999999999998</ele><time>2026-05-02T11:53:52.001Z</time></trkpt><trkpt lat="44.19533765891258" lon="11.500414371381765"><ele>252.2</ele><time>2026-05-02T11:53:53.001Z</time></trkpt><trkpt lat="44.195425175568616" lon="11.500348834595046"><ele>250.6</ele><time>2026-05-02T11:53:54.001Z</time></trkpt><trkpt lat="44.19550920850529" lon="11.500327415307316"><ele>249.0</ele><time>2026-05-02T11:53:55.001Z</time></trkpt><trkpt lat="44.19558117210698" lon="11.500374978044698"><ele>251.2</ele><time>2026-05-02T11:53:56.001Z</time></trkpt><trkpt lat="44.195636966964145" lon="11.50047455452442"><ele>253.39999999999998</ele><time>2026-05-02T11:53:57.001Z</time></trkpt><trkpt lat="44.19567228504275" lon="11.500609893818947"><ele>255.6</ele><time>2026-05-02T11:53:58.001Z</time></trkpt><trkpt lat="44.19569363665118" lon="11.500771292676712"><ele>257.8</ele><time>2026-05-02T11:53:59.001Z</time></trkpt><trkpt lat="44.195702898111776" lon="11.500953678015799"><ele>260.0</ele><time>2026-05-02T11:54:00.001Z</time></trkpt><trkpt lat="44.19570466402795" lon="11.501142819948718"><ele>255.5</ele><time>2026-05-02T11:54:01.001Z</time></trkpt><trkpt lat="44.19570620505836" lon="11.50133777840752"><ele>251.0</ele><time>2026-05-02T11:54:02.001Z</time></trkpt><trkpt lat="44.195712328098864" lon="11.501523247546798"><ele>246.5</ele><time>2026-05-02T11:54:03.001Z</time></trkpt><trkpt lat="44.1957393117322" lon="11.501682148575128"><ele>242.0</ele><time>2026-05-02T11:54:04.001Z</time></trkpt><trkpt lat="44.195792065148005" lon="11.501815902517672"><ele>242.0</ele><time>2026-05-02T11:54:05.001Z</time></trkpt><trkpt lat="44.1958829255212" lon="11.50192656141971"><ele>242.0</ele><time>2026-05-02T11:54:06.001Z</time></trkpt><trkpt lat="44.1959928021134" lon="11.502023174398627"><ele>242.0</ele><time>2026-05-02T11:54:07.002Z</time></trkpt><trkpt lat="44.1961195881087" lon="11.502109049215651"><ele>242.0</ele><time>2026-05-02T11:54:08.002Z</time></trkpt><trkpt lat="44.19624770634979" lon="11.502205785779962"><ele>242.5</ele><time>2026-05-02T11:54:09.002Z</time></trkpt><trkpt lat="44.19638202496837" lon="11.50229881519041"><ele>243.0</ele><time>2026-05-02T11:54:10.002Z</time></trkpt><trkpt lat="44.19651853043857" lon="11.502372216639095"><ele>243.5</ele><time>2026-05-02T11:54:11.002Z</time></trkpt><trkpt lat="44.19665934131485" lon="11.502421644038822"><ele>244.0</ele><time>2026-05-02T11:54:12.002Z</time></trkpt><trkpt lat="44.196802752883094" lon="11.502428121925163"><ele>244.0</ele><time>2026-05-02T11:54:13.002Z</time></trkpt><trkpt lat="44.1969418875594" lon="11.502397646576567"><ele>244.0</ele><time>2026-05-02T11:54:14.002Z</time></trkpt><trkpt lat="44.19706470783547" lon="11.502328365481755"><ele>244.0</ele><time>2026-05-02T11:54:15.002Z</time></trkpt><trkpt lat="44.19717532988366" lon="11.502224024327747"><ele>244.0</ele><time>2026-05-02T11:54:16.002Z</time></trkpt><trkpt lat="44.197277299072454" lon="11.502113567925472"><ele>249.6</ele><time>2026-05-02T11:54:17.002Z</time></trkpt><trkpt lat="44.19736822396384" lon="11.502010448768841"><ele>255.2</ele><time>2026-05-02T11:54:18.002Z</time></trkpt><trkpt lat="44.197459614333596" lon="11.501926081048497"><ele>260.79999999999995</ele><time>2026-05-02T11:54:19.002Z</time></trkpt><trkpt lat="44.197550930032186" lon="11.501879141023505"><ele>266.4</ele><time>2026-05-02T11:54:20.002Z</time></trkpt><trkpt lat="44.197649192624326" lon="11.501882169500568"><ele>272.0</ele><time>2026-05-02T11:54:21.002Z</time></trkpt><trkpt lat="44.19775349726773" lon="11.501939087722516"><ele>272.0</ele><time>2026-05-02T11:54:22.002Z</time></trkpt><trkpt lat="44.19786222517908" lon="11.502028377868701"><ele>272.0</ele><time>2026-05-02T11:54:23.002Z</time></trkpt><trkpt lat="44.19797992942102" lon="11.502131711614068"><ele>272.0</ele><time>2026-05-02T11:54:24.002Z</time></trkpt><trkpt lat="44.1981048221565" lon="11.50224228854714"><ele>272.0</ele><time>2026-05-02T11:54:25.002Z</time></trkpt><trkpt lat="44.19822835583772" lon="11.502369207349586"><ele>266.75</ele><time>2026-05-02T11:54:26.002Z</time></trkpt><trkpt lat="44.198347672608854" lon="11.50249009291589"><ele>261.5</ele><time>2026-05-02T11:54:27.002Z</time></trkpt><trkpt lat="44.198474032290235" lon="11.50258158755207"><ele>256.25</ele><time>2026-05-02T11:54:28.002Z</time></trkpt><trkpt lat="44.19861481667613" lon="11.502630444251084"><ele>251.0</ele><time>2026-05-02T11:54:29.002Z</time></trkpt><trkpt lat="44.1987675581011" lon="11.502655845766188"><ele>251.0</ele><time>2026-05-02T11:54:30.002Z</time></trkpt><trkpt lat="44.19891500922562" lon="11.50269478476951"><ele>251.0</ele><time>2026-05-02T11:54:31.002Z</time></trkpt><trkpt lat="44.199050311895384" lon="11.502720564511897"><ele>251.0</ele><time>2026-05-02T11:54:32.002Z</time></trkpt><trkpt lat="44.199174592028925" lon="11.502695243448633"><ele>251.0</ele><time>2026-05-02T11:54:33.002Z</time></trkpt><trkpt lat="44.19927643482182" lon="11.502612198995658"><ele>254.75</ele><time>2026-05-02T11:54:34.002Z</time></trkpt><trkpt lat="44.19936844378747" lon="11.502505528901407"><ele>258.5</ele><time>2026-05-02T11:54:35.002Z</time></trkpt><trkpt lat="44.19946496145094" lon="11.50243377514023"><ele>262.25</ele><time>2026-05-02T11:54:36.002Z</time></trkpt><trkpt lat="44.19956972035365" lon="11.502414974996793"><ele>266.0</ele><time>2026-05-02T11:54:37.002Z</time></trkpt><trkpt lat="44.199684940255295" lon="11.502448774181145"><ele>266.0</ele><time>2026-05-02T11:54:38.002Z</time></trkpt><trkpt lat="44.19978649346793" lon="11.502497789162337"><ele>266.0</ele><time>2026-05-02T11:54:39.002Z</time></trkpt><trkpt lat="44.19987045063966" lon="11.502563628058612"><ele>266.0</ele><time>2026-05-02T11:54:40.003Z</time></trkpt><trkpt lat="44.1999394078768" lon="11.502682305278949"><ele>266.0</ele><time>2026-05-02T11:54:41.003Z</time></trkpt><trkpt lat="44.19998896738969" lon="11.502831238365982"><ele>266.0</ele><time>2026-05-02T11:54:42.003Z</time></trkpt><trkpt lat="44.200057613155714" lon="11.5029566381961"><ele>263.0</ele><time>2026-05-02T11:54:43.003Z</time></trkpt><trkpt lat="44.20016535420332" lon="11.503029155243395"><ele>260.0</ele><time>2026-05-02T11:54:44.003Z</time></trkpt><trkpt lat="44.20030771422688" lon="11.503042701678476"><ele>257.0</ele><time>2026-05-02T11:54:45.003Z</time></trkpt><trkpt lat="44.20045371255483" lon="11.503066287969993"><ele>254.0</ele><time>2026-05-02T11:54:46.003Z</time></trkpt><trkpt lat="44.200782773759414" lon="11.503101692595507"><ele>254.0</ele><time>2026-05-02T11:54:48.003Z</time></trkpt><trkpt lat="44.20094254737028" lon="11.50312280285117"><ele>254.0</ele><time>2026-05-02T11:54:49.003Z</time></trkpt><trkpt lat="44.20111389299183" lon="11.503139670680238"><ele>254.0</ele><time>2026-05-02T11:54:50.003Z</time></trkpt><trkpt lat="44.20128891379453" lon="11.50315844455501"><ele>254.0</ele><time>2026-05-02T11:54:51.003Z</time></trkpt><trkpt lat="44.201461626125486" lon="11.503173260144377"><ele>254.0</ele><time>2026-05-02T11:54:52.003Z</time></trkpt><trkpt lat="44.20163330371589" lon="11.503191189802063"><ele>254.0</ele><time>2026-05-02T11:54:53.003Z</time></trkpt><trkpt lat="44.20179564929886" lon="11.503213886458676"><ele>253.75</ele><time>2026-05-02T11:54:54.003Z</time></trkpt><trkpt lat="44.20194863722686" lon="11.503251595046576"><ele>253.5</ele><time>2026-05-02T11:54:55.003Z</time></trkpt><trkpt lat="44.202086252505254" lon="11.503298026611223"><ele>253.25</ele><time>2026-05-02T11:54:56.003Z</time></trkpt><trkpt lat="44.202218334501005" lon="11.503320078424618"><ele>253.0</ele><time>2026-05-02T11:54:57.003Z</time></trkpt><trkpt lat="44.202344531096706" lon="11.503315398723808"><ele>252.5</ele><time>2026-05-02T11:54:58.003Z</time></trkpt><trkpt lat="44.202465445207004" lon="11.503283978389778"><ele>252.0</ele><time>2026-05-02T11:54:59.003Z</time></trkpt><trkpt lat="44.20257524756621" lon="11.503217270332025"><ele>251.5</ele><time>2026-05-02T11:55:00.003Z</time></trkpt><trkpt lat="44.20267644330083" lon="11.50311799938751"><ele>251.0</ele><time>2026-05-02T11:55:01.003Z</time></trkpt><trkpt lat="44.20275923746557" lon="11.503024967278629"><ele>251.0</ele><time>2026-05-02T11:55:02.003Z</time></trkpt><trkpt lat="44.20285037486466" lon="11.5029793081758"><ele>251.00000000000003</ele><time>2026-05-02T11:55:03.003Z</time></trkpt><trkpt lat="44.202955917435254" lon="11.502996989231631"><ele>251.00000000000003</ele><time>2026-05-02T11:55:04.003Z</time></trkpt><trkpt lat="44.203063152370234" lon="11.503053445358079"><ele>251.0</ele><time>2026-05-02T11:55:05.003Z</time></trkpt><trkpt lat="44.203175569830506" lon="11.503120884587869"><ele>251.0</ele><time>2026-05-02T11:55:06.003Z</time></trkpt><trkpt lat="44.203312521737296" lon="11.503154701443671"><ele>248.33333333333334</ele><time>2026-05-02T11:55:07.003Z</time></trkpt><trkpt lat="44.203470426246426" lon="11.503155208928371"><ele>245.66666666666669</ele><time>2026-05-02T11:55:08.003Z</time></trkpt><trkpt lat="44.20363595879785" lon="11.50314335202799"><ele>243.0</ele><time>2026-05-02T11:55:08.998Z</time></trkpt><trkpt lat="44.20380657255045" lon="11.50312663492942"><ele>243.0</ele><time>2026-05-02T11:55:09.998Z</time></trkpt><trkpt lat="44.20398104801904" lon="11.503115154525009"><ele>243.0</ele><time>2026-05-02T11:55:10.998Z</time></trkpt><trkpt lat="44.20416365634313" lon="11.503113420758542"><ele>243.0</ele><time>2026-05-02T11:55:11.998Z</time></trkpt><trkpt lat="44.2043421703488" lon="11.503123802776333"><ele>243.0</ele><time>2026-05-02T11:55:12.999Z</time></trkpt><trkpt lat="44.20452240665184" lon="11.50315429795835"><ele>243.0</ele><time>2026-05-02T11:55:13.999Z</time></trkpt><trkpt lat="44.20470154654498" lon="11.503196928165927"><ele>243.0</ele><time>2026-05-02T11:55:14.999Z</time></trkpt><trkpt lat="44.20487806065642" lon="11.503236931363759"><ele>243.0</ele><time>2026-05-02T11:55:15.999Z</time></trkpt><trkpt lat="44.20505244559865" lon="11.503267491436274"><ele>243.0</ele><time>2026-05-02T11:55:16.999Z</time></trkpt><trkpt lat="44.20522173746426" lon="11.503288506748131"><ele>243.0</ele><time>2026-05-02T11:55:17.999Z</time></trkpt><trkpt lat="44.20539328037482" lon="11.503306469035165"><ele>243.0</ele><time>2026-05-02T11:55:18.999Z</time></trkpt><trkpt lat="44.20556781143865" lon="11.50332671899085"><ele>243.0</ele><time>2026-05-02T11:55:19.999Z</time></trkpt><trkpt lat="44.20574091232212" lon="11.503347151433925"><ele>243.0</ele><time>2026-05-02T11:55:20.999Z</time></trkpt><trkpt lat="44.205915701512176" lon="11.503370509743702"><ele>242.33333333333331</ele><time>2026-05-02T11:55:21.999Z</time></trkpt><trkpt lat="44.20608992117728" lon="11.503391365725323"><ele>241.66666666666666</ele><time>2026-05-02T11:55:22.999Z</time></trkpt><trkpt lat="44.20626845361449" lon="11.503409587002308"><ele>241.0</ele><time>2026-05-02T11:55:23.999Z</time></trkpt><trkpt lat="44.20645216329278" lon="11.503429209115716"><ele>241.66666666666666</ele><time>2026-05-02T11:55:24.999Z</time></trkpt><trkpt lat="44.20663193451007" lon="11.503451821843507"><ele>242.33333333333331</ele><time>2026-05-02T11:55:25.999Z</time></trkpt><trkpt lat="44.206815656038195" lon="11.503471248788145"><ele>243.0</ele><time>2026-05-02T11:55:26.999Z</time></trkpt><trkpt lat="44.20700066926015" lon="11.503492370874396"><ele>243.0</ele><time>2026-05-02T11:55:28Z</time></trkpt><trkpt lat="44.207188569851155" lon="11.503512160085846"><ele>243.0</ele><time>2026-05-02T11:55:29Z</time></trkpt><trkpt lat="44.20737147741843" lon="11.50353346680295"><ele>243.0</ele><time>2026-05-02T11:55:30Z</time></trkpt><trkpt lat="44.20754475908153" lon="11.503556000789107"><ele>242.75</ele><time>2026-05-02T11:55:31Z</time></trkpt><trkpt lat="44.20769453709689" lon="11.503588763086837"><ele>242.5</ele><time>2026-05-02T11:55:32Z</time></trkpt><trkpt lat="44.20782577503482" lon="11.50364108552456"><ele>242.25</ele><time>2026-05-02T11:55:33Z</time></trkpt><trkpt lat="44.207935030840524" lon="11.503703231999154"><ele>242.0</ele><time>2026-05-02T11:55:34Z</time></trkpt><trkpt lat="44.20804999919857" lon="11.503745361128763"><ele>241.2</ele><time>2026-05-02T11:55:35Z</time></trkpt><trkpt lat="44.2081554388376" lon="11.503749830568736"><ele>240.39999999999998</ele><time>2026-05-02T11:55:36Z</time></trkpt><trkpt lat="44.20826092822641" lon="11.503711367885094"><ele>239.60000000000002</ele><time>2026-05-02T11:55:37Z</time></trkpt><trkpt lat="44.208342656711" lon="11.503613710374992"><ele>238.8</ele><time>2026-05-02T11:55:38Z</time></trkpt><trkpt lat="44.208411993079814" lon="11.503512359738991"><ele>238.0</ele><time>2026-05-02T11:55:39Z</time></trkpt><trkpt lat="44.20849331787594" lon="11.503442275791983"><ele>238.0</ele><time>2026-05-02T11:55:40Z</time></trkpt><trkpt lat="44.20859011136608" lon="11.503409273531634"><ele>238.0</ele><time>2026-05-02T11:55:41Z</time></trkpt><trkpt lat="44.20868904409276" lon="11.503432742435965"><ele>238.0</ele><time>2026-05-02T11:55:42Z</time></trkpt><trkpt lat="44.20879633275384" lon="11.503492442325099"><ele>238.0</ele><time>2026-05-02T11:55:43Z</time></trkpt><trkpt lat="44.208913513901194" lon="11.50355271123844"><ele>238.0</ele><time>2026-05-02T11:55:44Z</time></trkpt><trkpt lat="44.20904384027257" lon="11.503610666332447"><ele>235.5</ele><time>2026-05-02T11:55:45Z</time></trkpt><trkpt lat="44.209179349710155" lon="11.503673343357358"><ele>233.0</ele><time>2026-05-02T11:55:46.001Z</time></trkpt><trkpt lat="44.20931503948631" lon="11.503732584693148"><ele>230.5</ele><time>2026-05-02T11:55:47.001Z</time></trkpt><trkpt lat="44.20945450671724" lon="11.503798444185017"><ele>228.0</ele><time>2026-05-02T11:55:48.001Z</time></trkpt><trkpt lat="44.2095926079281" lon="11.503865097627722"><ele>228.0</ele><time>2026-05-02T11:55:49.001Z</time></trkpt><trkpt lat="44.20972659699357" lon="11.503929607270608"><ele>228.0</ele><time>2026-05-02T11:55:50.001Z</time></trkpt><trkpt lat="44.209859831994024" lon="11.50399100597774"><ele>228.0</ele><time>2026-05-02T11:55:51.001Z</time></trkpt><trkpt lat="44.209991095089556" lon="11.50405275302041"><ele>228.0</ele><time>2026-05-02T11:55:52.001Z</time></trkpt><trkpt lat="44.210122428724056" lon="11.504111703584067"><ele>228.0</ele><time>2026-05-02T11:55:53.001Z</time></trkpt><trkpt lat="44.21025511753349" lon="11.504166268641042"><ele>228.0</ele><time>2026-05-02T11:55:54.001Z</time></trkpt><trkpt lat="44.21038906447159" lon="11.504224581744566"><ele>228.0</ele><time>2026-05-02T11:55:55.001Z</time></trkpt><trkpt lat="44.21052310260826" lon="11.504285639864433"><ele>228.0</ele><time>2026-05-02T11:55:56.001Z</time></trkpt><trkpt lat="44.21065735240768" lon="11.504349348131187"><ele>227.25</ele><time>2026-05-02T11:55:57.001Z</time></trkpt><trkpt lat="44.210792262716495" lon="11.504409034637066"><ele>226.5</ele><time>2026-05-02T11:55:58.001Z</time></trkpt><trkpt lat="44.21092530709198" lon="11.504466186286527"><ele>225.75</ele><time>2026-05-02T11:55:59.001Z</time></trkpt><trkpt lat="44.21105377228201" lon="11.504525125333119"><ele>225.0</ele><time>2026-05-02T11:56:00.001Z</time></trkpt><trkpt lat="44.211180943739386" lon="11.504585538657457"><ele>224.75</ele><time>2026-05-02T11:56:01.001Z</time></trkpt><trkpt lat="44.21130556043792" lon="11.50464343989079"><ele>224.5</ele><time>2026-05-02T11:56:02.001Z</time></trkpt><trkpt lat="44.21142691446652" lon="11.504700263371452"><ele>224.25</ele><time>2026-05-02T11:56:03.001Z</time></trkpt><trkpt lat="44.211548146433095" lon="11.504752272174166"><ele>224.0</ele><time>2026-05-02T11:56:04.001Z</time></trkpt><trkpt lat="44.21167129824697" lon="11.504795781788157"><ele>223.0</ele><time>2026-05-02T11:56:05.001Z</time></trkpt><trkpt lat="44.21179368902655" lon="11.504826909288493"><ele>222.0</ele><time>2026-05-02T11:56:06.001Z</time></trkpt><trkpt lat="44.21191824358204" lon="11.5048390048475"><ele>221.0</ele><time>2026-05-02T11:56:07.001Z</time></trkpt><trkpt lat="44.21204704264364" lon="11.504839562057336"><ele>220.0</ele><time>2026-05-02T11:56:08.001Z</time></trkpt><trkpt lat="44.2121751077004" lon="11.504821069561316"><ele>220.0</ele><time>2026-05-02T11:56:09.001Z</time></trkpt><trkpt lat="44.21229825898434" lon="11.504785709079528"><ele>220.0</ele><time>2026-05-02T11:56:10.001Z</time></trkpt><trkpt lat="44.2124217484115" lon="11.504743033621526"><ele>220.0</ele><time>2026-05-02T11:56:11.001Z</time></trkpt><trkpt lat="44.21254912637073" lon="11.504714592118916"><ele>220.0</ele><time>2026-05-02T11:56:12.001Z</time></trkpt><trkpt lat="44.21267945071385" lon="11.504720055969614"><ele>218.75</ele><time>2026-05-02T11:56:13.001Z</time></trkpt><trkpt lat="44.21281128727007" lon="11.504730947850506"><ele>217.5</ele><time>2026-05-02T11:56:14.002Z</time></trkpt><trkpt lat="44.212946688552336" lon="11.504735459645614"><ele>216.25</ele><time>2026-05-02T11:56:15.002Z</time></trkpt><trkpt lat="44.213084553359415" lon="11.504735526010041"><ele>215.0</ele><time>2026-05-02T11:56:16.002Z</time></trkpt><trkpt lat="44.213228172822504" lon="11.504742413026362"><ele>214.5</ele><time>2026-05-02T11:56:17.002Z</time></trkpt><trkpt lat="44.213366801275235" lon="11.504737156956663"><ele>214.0</ele><time>2026-05-02T11:56:18.002Z</time></trkpt><trkpt lat="44.21350598491625" lon="11.504703189708177"><ele>213.5</ele><time>2026-05-02T11:56:19.002Z</time></trkpt><trkpt lat="44.21364364153235" lon="11.50464831582069"><ele>213.0</ele><time>2026-05-02T11:56:20.002Z</time></trkpt><trkpt lat="44.21378355065663" lon="11.50459667487832"><ele>214.0</ele><time>2026-05-02T11:56:21.002Z</time></trkpt><trkpt lat="44.213927652106605" lon="11.50453764460406"><ele>215.0</ele><time>2026-05-02T11:56:22.002Z</time></trkpt><trkpt lat="44.21407175299801" lon="11.50447318475832"><ele>216.0</ele><time>2026-05-02T11:56:23.002Z</time></trkpt><trkpt lat="44.214213455905714" lon="11.504404533297205"><ele>216.0</ele><time>2026-05-02T11:56:24.002Z</time></trkpt><trkpt lat="44.21434703703937" lon="11.504342268845559"><ele>216.0</ele><time>2026-05-02T11:56:25.002Z</time></trkpt><trkpt lat="44.214483470073816" lon="11.504304132277483"><ele>216.0</ele><time>2026-05-02T11:56:26.002Z</time></trkpt><trkpt lat="44.21463374488178" lon="11.504295002730673"><ele>216.0</ele><time>2026-05-02T11:56:27.002Z</time></trkpt><trkpt lat="44.214783641413256" lon="11.504296289358257"><ele>216.0</ele><time>2026-05-02T11:56:28.002Z</time></trkpt><trkpt lat="44.21493490678926" lon="11.5042961911574"><ele>216.0</ele><time>2026-05-02T11:56:29.002Z</time></trkpt><trkpt lat="44.215086136494" lon="11.50429349554057"><ele>216.0</ele><time>2026-05-02T11:56:30.002Z</time></trkpt><trkpt lat="44.21523305264673" lon="11.504289911716237"><ele>216.0</ele><time>2026-05-02T11:56:31.002Z</time></trkpt><trkpt lat="44.215381041201475" lon="11.504298246908528"><ele>216.0</ele><time>2026-05-02T11:56:32.002Z</time></trkpt><trkpt lat="44.21553038217473" lon="11.504321639427571"><ele>216.0</ele><time>2026-05-02T11:56:33.002Z</time></trkpt><trkpt lat="44.21567695467489" lon="11.50435893924678"><ele>216.0</ele><time>2026-05-02T11:56:34.002Z</time></trkpt><trkpt lat="44.21582043717435" lon="11.504407983885134"><ele>216.0</ele><time>2026-05-02T11:56:35.002Z</time></trkpt><trkpt lat="44.21594472844159" lon="11.504471167988656"><ele>215.0</ele><time>2026-05-02T11:56:36.002Z</time></trkpt><trkpt lat="44.21606378224475" lon="11.504536536248091"><ele>214.0</ele><time>2026-05-02T11:56:37.002Z</time></trkpt><trkpt lat="44.21618240315509" lon="11.504591726583872"><ele>213.0</ele><time>2026-05-02T11:56:38.002Z</time></trkpt><trkpt lat="44.21629422520289" lon="11.504649080966848"><ele>212.0</ele><time>2026-05-02T11:56:39.002Z</time></trkpt><trkpt lat="44.216397613594204" lon="11.50470394508319"><ele>210.50000000000003</ele><time>2026-05-02T11:56:40.002Z</time></trkpt><trkpt lat="44.21649399690555" lon="11.504732724595744"><ele>209.0</ele><time>2026-05-02T11:56:41.002Z</time></trkpt><trkpt lat="44.21657637690976" lon="11.504719163573975"><ele>207.5</ele><time>2026-05-02T11:56:42.002Z</time></trkpt><trkpt lat="44.21664234857745" lon="11.504656538715135"><ele>206.0</ele><time>2026-05-02T11:56:43.002Z</time></trkpt><trkpt lat="44.21669183633176" lon="11.504566965061947"><ele>204.50000000000003</ele><time>2026-05-02T11:56:44.002Z</time></trkpt><trkpt lat="44.216705999278204" lon="11.504451345470526"><ele>203.0</ele><time>2026-05-02T11:56:45.002Z</time></trkpt><trkpt lat="44.216685584116405" lon="11.504312650980232"><ele>203.0</ele><time>2026-05-02T11:56:46.003Z</time></trkpt><trkpt lat="44.216653834208245" lon="11.504157095293085"><ele>203.0</ele><time>2026-05-02T11:56:47.003Z</time></trkpt><trkpt lat="44.216631907742496" lon="11.503985799989985"><ele>203.0</ele><time>2026-05-02T11:56:48.003Z</time></trkpt><trkpt lat="44.21661997947474" lon="11.503823683017618"><ele>203.0</ele><time>2026-05-02T11:56:49.003Z</time></trkpt><trkpt lat="44.216616824377866" lon="11.503674442593688"><ele>202.60000000000002</ele><time>2026-05-02T11:56:50.003Z</time></trkpt><trkpt lat="44.21662663766793" lon="11.503526310226386"><ele>202.20000000000002</ele><time>2026-05-02T11:56:51.003Z</time></trkpt><trkpt lat="44.216664291464916" lon="11.503378253144732"><ele>201.8</ele><time>2026-05-02T11:56:52.003Z</time></trkpt><trkpt lat="44.21671331619067" lon="11.503248259119633"><ele>201.4</ele><time>2026-05-02T11:56:53.003Z</time></trkpt><trkpt lat="44.21676165866696" lon="11.503138944483593"><ele>201.0</ele><time>2026-05-02T11:56:54.003Z</time></trkpt><trkpt lat="44.216820101237296" lon="11.503061971636077"><ele>201.0</ele><time>2026-05-02T11:56:55.003Z</time></trkpt><trkpt lat="44.21688161956365" lon="11.5030332105445"><ele>201.0</ele><time>2026-05-02T11:56:56.003Z</time></trkpt><trkpt lat="44.216961589388816" lon="11.503044992785867"><ele>201.0</ele><time>2026-05-02T11:56:57.003Z</time></trkpt><trkpt lat="44.21704494244605" lon="11.503089357050223"><ele>201.0</ele><time>2026-05-02T11:56:58.003Z</time></trkpt><trkpt lat="44.21713102873654" lon="11.50313651210493"><ele>201.0</ele><time>2026-05-02T11:56:59.003Z</time></trkpt><trkpt lat="44.21720712313108" lon="11.503178813336419"><ele>201.0</ele><time>2026-05-02T11:57:00.003Z</time></trkpt><trkpt lat="44.2172681988584" lon="11.50325809123154"><ele>201.0</ele><time>2026-05-02T11:57:01.003Z</time></trkpt><trkpt lat="44.21730037677227" lon="11.503367626664053"><ele>201.0</ele><time>2026-05-02T11:57:02.003Z</time></trkpt><trkpt lat="44.217311659195914" lon="11.50349876460645"><ele>201.0</ele><time>2026-05-02T11:57:03.003Z</time></trkpt><trkpt lat="44.21733008119392" lon="11.503642991505151"><ele>201.0</ele><time>2026-05-02T11:57:04.003Z</time></trkpt><trkpt lat="44.21735528504575" lon="11.503802127238336"><ele>201.0</ele><time>2026-05-02T11:57:05.003Z</time></trkpt><trkpt lat="44.21737953152326" lon="11.503970911820542"><ele>201.0</ele><time>2026-05-02T11:57:06.003Z</time></trkpt><trkpt lat="44.21740429567262" lon="11.50415168930948"><ele>201.0</ele><time>2026-05-02T11:57:07.003Z</time></trkpt><trkpt lat="44.21742495327527" lon="11.504327635014738"><ele>201.0</ele><time>2026-05-02T11:57:08.003Z</time></trkpt><trkpt lat="44.21744833909139" lon="11.504494653111403"><ele>201.0</ele><time>2026-05-02T11:57:09.003Z</time></trkpt><trkpt lat="44.21747243038957" lon="11.504651213742068"><ele>198.33333333333331</ele><time>2026-05-02T11:57:10.003Z</time></trkpt><trkpt lat="44.2176448333115" lon="11.505001678227355"><ele>195.66666666666666</ele><time>2026-05-02T11:57:13.003Z</time></trkpt><trkpt lat="44.21775061131816" lon="11.505052389972715"><ele>193.0</ele><time>2026-05-02T11:57:14.003Z</time></trkpt><trkpt lat="44.217875559005414" lon="11.505074667744923"><ele>193.0</ele><time>2026-05-02T11:57:14.998Z</time></trkpt><trkpt lat="44.21801276699893" lon="11.505103704993664"><ele>193.0</ele><time>2026-05-02T11:57:15.998Z</time></trkpt><trkpt lat="44.21815904549319" lon="11.50514876137056"><ele>193.0</ele><time>2026-05-02T11:57:16.998Z</time></trkpt><trkpt lat="44.21830821181622" lon="11.505198575703835"><ele>193.0</ele><time>2026-05-02T11:57:17.998Z</time></trkpt><trkpt lat="44.21845125935364" lon="11.505249112383792"><ele>193.25</ele><time>2026-05-02T11:57:18.998Z</time></trkpt><trkpt lat="44.21858586971224" lon="11.505294469058438"><ele>193.5</ele><time>2026-05-02T11:57:19.999Z</time></trkpt><trkpt lat="44.21871625985693" lon="11.505317934649401"><ele>193.75</ele><time>2026-05-02T11:57:20.999Z</time></trkpt><trkpt lat="44.21885237545337" lon="11.505304315806928"><ele>194.0</ele><time>2026-05-02T11:57:21.999Z</time></trkpt><trkpt lat="44.21899626993394" lon="11.505245190582343"><ele>192.66666666666669</ele><time>2026-05-02T11:57:22.999Z</time></trkpt><trkpt lat="44.21914135702087" lon="11.505162970427227"><ele>191.33333333333334</ele><time>2026-05-02T11:57:23.999Z</time></trkpt><trkpt lat="44.21929636198767" lon="11.505073408004462"><ele>190.0</ele><time>2026-05-02T11:57:24.999Z</time></trkpt><trkpt lat="44.21945138278402" lon="11.504991958854365"><ele>190.0</ele><time>2026-05-02T11:57:25.999Z</time></trkpt><trkpt lat="44.21961086704593" lon="11.504904822284"><ele>190.0</ele><time>2026-05-02T11:57:26.999Z</time></trkpt><trkpt lat="44.21977204081212" lon="11.504809326146503"><ele>190.0</ele><time>2026-05-02T11:57:27.999Z</time></trkpt><trkpt lat="44.21993602984654" lon="11.504709584866202"><ele>188.0</ele><time>2026-05-02T11:57:28.999Z</time></trkpt><trkpt lat="44.220105463086" lon="11.504609251152244"><ele>186.0</ele><time>2026-05-02T11:57:29.999Z</time></trkpt><trkpt lat="44.22027723212705" lon="11.504513431658767"><ele>184.0</ele><time>2026-05-02T11:57:30.999Z</time></trkpt><trkpt lat="44.22043648005" lon="11.504421192274366"><ele>184.0</ele><time>2026-05-02T11:57:31.999Z</time></trkpt><trkpt lat="44.22058743997053" lon="11.504329019447256"><ele>184.0</ele><time>2026-05-02T11:57:32.999Z</time></trkpt><trkpt lat="44.22073042297356" lon="11.504240535109565"><ele>184.0</ele><time>2026-05-02T11:57:33.999Z</time></trkpt><trkpt lat="44.22086958664532" lon="11.504155081593264"><ele>182.75</ele><time>2026-05-02T11:57:35Z</time></trkpt><trkpt lat="44.221006502638936" lon="11.504074315939638"><ele>181.5</ele><time>2026-05-02T11:57:36Z</time></trkpt><trkpt lat="44.22113513220006" lon="11.503996652668173"><ele>180.25</ele><time>2026-05-02T11:57:37Z</time></trkpt><trkpt lat="44.22125860237098" lon="11.503922583011116"><ele>179.0</ele><time>2026-05-02T11:57:38Z</time></trkpt><trkpt lat="44.22137155507927" lon="11.503858296636194"><ele>179.0</ele><time>2026-05-02T11:57:39Z</time></trkpt><trkpt lat="44.22147807361962" lon="11.503825250728596"><ele>179.0</ele><time>2026-05-02T11:57:40Z</time></trkpt><trkpt lat="44.22157696077789" lon="11.503845787136708"><ele>179.0</ele><time>2026-05-02T11:57:41Z</time></trkpt><trkpt lat="44.22167199962593" lon="11.503909517223297"><ele>179.0</ele><time>2026-05-02T11:57:42Z</time></trkpt><trkpt lat="44.22177119491078" lon="11.50400580047424"><ele>179.0</ele><time>2026-05-02T11:57:43Z</time></trkpt><trkpt lat="44.22188341562107" lon="11.50410889939308"><ele>177.25</ele><time>2026-05-02T11:57:44Z</time></trkpt><trkpt lat="44.22200699282193" lon="11.504212726783726"><ele>175.5</ele><time>2026-05-02T11:57:45Z</time></trkpt><trkpt lat="44.22212502652526" lon="11.50431678258568"><ele>173.75</ele><time>2026-05-02T11:57:46Z</time></trkpt><trkpt lat="44.222231197709576" lon="11.50441292728132"><ele>172.0</ele><time>2026-05-02T11:57:47Z</time></trkpt><trkpt lat="44.222577319163236" lon="11.504535711764186"><ele>171.66666666666669</ele><time>2026-05-02T11:57:50Z</time></trkpt><trkpt lat="44.22271761943945" lon="11.504493571829633"><ele>171.33333333333334</ele><time>2026-05-02T11:57:51Z</time></trkpt><trkpt lat="44.22286635219902" lon="11.504422012156041"><ele>171.0</ele><time>2026-05-02T11:57:52Z</time></trkpt><trkpt lat="44.223025597537664" lon="11.504369427510092"><ele>172.66666666666666</ele><time>2026-05-02T11:57:53.001Z</time></trkpt><trkpt lat="44.223193051149714" lon="11.504344135528813"><ele>174.33333333333331</ele><time>2026-05-02T11:57:54.001Z</time></trkpt><trkpt lat="44.22336886435474" lon="11.504358556706903"><ele>176.0</ele><time>2026-05-02T11:57:55.001Z</time></trkpt><trkpt lat="44.223555058984154" lon="11.504405957340442"><ele>176.0</ele><time>2026-05-02T11:57:56.001Z</time></trkpt><trkpt lat="44.22373349386431" lon="11.504455852681719"><ele>176.0</ele><time>2026-05-02T11:57:57.001Z</time></trkpt><trkpt lat="44.22390781936985" lon="11.504506072708246"><ele>176.0</ele><time>2026-05-02T11:57:58.001Z</time></trkpt><trkpt lat="44.22408431047604" lon="11.504572030380487"><ele>184.5</ele><time>2026-05-02T11:57:59.001Z</time></trkpt><trkpt lat="44.224259816612424" lon="11.504626228090926"><ele>193.0</ele><time>2026-05-02T11:58:00.001Z</time></trkpt><trkpt lat="44.2246196866211" lon="11.504730483397326"><ele>193.0</ele><time>2026-05-02T11:58:02.001Z</time></trkpt><trkpt lat="44.224799473580994" lon="11.50478461909318"><ele>193.0</ele><time>2026-05-02T11:58:03.001Z</time></trkpt><trkpt lat="44.22497996476504" lon="11.504835002604414"><ele>193.0</ele><time>2026-05-02T11:58:04.001Z</time></trkpt><trkpt lat="44.22515710993251" lon="11.504887004676158"><ele>190.33333333333331</ele><time>2026-05-02T11:58:05.001Z</time></trkpt><trkpt lat="44.225333696365944" lon="11.504939899831635"><ele>187.66666666666666</ele><time>2026-05-02T11:58:06.001Z</time></trkpt><trkpt lat="44.225519483436216" lon="11.504995686816716"><ele>185.0</ele><time>2026-05-02T11:58:07.001Z</time></trkpt><trkpt lat="44.22570180179867" lon="11.505051217238638"><ele>181.33333333333331</ele><time>2026-05-02T11:58:08.001Z</time></trkpt><trkpt lat="44.2258886726124" lon="11.505107211276254"><ele>177.66666666666666</ele><time>2026-05-02T11:58:09.001Z</time></trkpt><trkpt lat="44.226070994386696" lon="11.505162846340315"><ele>174.0</ele><time>2026-05-02T11:58:10.001Z</time></trkpt><trkpt lat="44.22625398075909" lon="11.505217659221072"><ele>174.0</ele><time>2026-05-02T11:58:11.001Z</time></trkpt><trkpt lat="44.226434127252645" lon="11.505269715818946"><ele>174.0</ele><time>2026-05-02T11:58:12.001Z</time></trkpt><trkpt lat="44.226609285539446" lon="11.505322069259574"><ele>174.0</ele><time>2026-05-02T11:58:13.001Z</time></trkpt><trkpt lat="44.2267780627171" lon="11.505376691574403"><ele>177.33333333333334</ele><time>2026-05-02T11:58:14.001Z</time></trkpt><trkpt lat="44.226945171160246" lon="11.505442553821258"><ele>180.66666666666669</ele><time>2026-05-02T11:58:15.001Z</time></trkpt><trkpt lat="44.22710085197168" lon="11.505516115875372"><ele>184.0</ele><time>2026-05-02T11:58:16.001Z</time></trkpt><trkpt lat="44.227244942041956" lon="11.505602715308038"><ele>180.75</ele><time>2026-05-02T11:58:17.001Z</time></trkpt><trkpt lat="44.22737990852472" lon="11.505697530632284"><ele>177.5</ele><time>2026-05-02T11:58:18.001Z</time></trkpt><trkpt lat="44.22750456386029" lon="11.505807715424073"><ele>174.25</ele><time>2026-05-02T11:58:19.001Z</time></trkpt><trkpt lat="44.227600287843075" lon="11.50594911073464"><ele>171.0</ele><time>2026-05-02T11:58:20.001Z</time></trkpt><trkpt lat="44.22767602512912" lon="11.50611024097539"><ele>174.33333333333334</ele><time>2026-05-02T11:58:21.002Z</time></trkpt><trkpt lat="44.22773657595921" lon="11.506298499198904"><ele>177.66666666666669</ele><time>2026-05-02T11:58:22.002Z</time></trkpt><trkpt lat="44.227780115232235" lon="11.50650791168891"><ele>181.0</ele><time>2026-05-02T11:58:23.002Z</time></trkpt><trkpt lat="44.22784796154848" lon="11.506938172866446"><ele>181.75</ele><time>2026-05-02T11:58:25.002Z</time></trkpt><trkpt lat="44.22787159680007" lon="11.50714480436404"><ele>182.5</ele><time>2026-05-02T11:58:26.002Z</time></trkpt><trkpt lat="44.22789968460609" lon="11.50733921825804"><ele>183.25</ele><time>2026-05-02T11:58:27.002Z</time></trkpt><trkpt lat="44.227953016017125" lon="11.507526782740563"><ele>184.0</ele><time>2026-05-02T11:58:28.002Z</time></trkpt><trkpt lat="44.22803881501638" lon="11.507705469234933"><ele>180.66666666666669</ele><time>2026-05-02T11:58:29.002Z</time></trkpt><trkpt lat="44.22816547737788" lon="11.507861726157456"><ele>177.33333333333334</ele><time>2026-05-02T11:58:30.002Z</time></trkpt><trkpt lat="44.22831358282695" lon="11.508011459296796"><ele>174.0</ele><time>2026-05-02T11:58:31.002Z</time></trkpt><trkpt lat="44.228466605913646" lon="11.50816632148949"><ele>174.0</ele><time>2026-05-02T11:58:32.002Z</time></trkpt><trkpt lat="44.22862244198092" lon="11.508336480627689"><ele>174.0</ele><time>2026-05-02T11:58:33.002Z</time></trkpt><trkpt lat="44.228758926894415" lon="11.50849842468179"><ele>174.0</ele><time>2026-05-02T11:58:34.002Z</time></trkpt><trkpt lat="44.22888800834384" lon="11.508642391755961"><ele>173.33333333333334</ele><time>2026-05-02T11:58:35.002Z</time></trkpt><trkpt lat="44.22903159468012" lon="11.508784295402783"><ele>172.66666666666669</ele><time>2026-05-02T11:58:36.002Z</time></trkpt><trkpt lat="44.22918128624273" lon="11.508929910902248"><ele>172.0</ele><time>2026-05-02T11:58:37.002Z</time></trkpt><trkpt lat="44.229344673070344" lon="11.509085776562893"><ele>172.0</ele><time>2026-05-02T11:58:38.002Z</time></trkpt><trkpt lat="44.22951686637446" lon="11.509250521114083"><ele>172.0</ele><time>2026-05-02T11:58:39.002Z</time></trkpt><trkpt lat="44.229696898211856" lon="11.509432622431778"><ele>172.0</ele><time>2026-05-02T11:58:40.002Z</time></trkpt><trkpt lat="44.22987666679015" lon="11.509611471281053"><ele>170.5</ele><time>2026-05-02T11:58:41.002Z</time></trkpt><trkpt lat="44.23006500515404" lon="11.509791619075362"><ele>169.0</ele><time>2026-05-02T11:58:42.002Z</time></trkpt><trkpt lat="44.230252658039376" lon="11.509967077247412"><ele>169.0</ele><time>2026-05-02T11:58:43.002Z</time></trkpt><trkpt lat="44.23043555850209" lon="11.510145041831722"><ele>169.0</ele><time>2026-05-02T11:58:44.002Z</time></trkpt><trkpt lat="44.230614344407044" lon="11.510312142420302"><ele>169.0</ele><time>2026-05-02T11:58:45.002Z</time></trkpt><trkpt lat="44.23078882361429" lon="11.510476304262772"><ele>169.66666666666669</ele><time>2026-05-02T11:58:46.002Z</time></trkpt><trkpt lat="44.23096790256475" lon="11.510638289667309"><ele>170.33333333333334</ele><time>2026-05-02T11:58:47.002Z</time></trkpt><trkpt lat="44.23114524449931" lon="11.510800532753406"><ele>171.0</ele><time>2026-05-02T11:58:48.002Z</time></trkpt><trkpt lat="44.23131947361582" lon="11.510961106856822"><ele>169.66666666666666</ele><time>2026-05-02T11:58:49.002Z</time></trkpt><trkpt lat="44.23149255870193" lon="11.51112559942735"><ele>168.33333333333331</ele><time>2026-05-02T11:58:50.002Z</time></trkpt><trkpt lat="44.23166621391622" lon="11.511290313218696"><ele>167.0</ele><time>2026-05-02T11:58:51.002Z</time></trkpt><trkpt lat="44.23183853791609" lon="11.511450435873105"><ele>167.0</ele><time>2026-05-02T11:58:52.002Z</time></trkpt><trkpt lat="44.23201384787812" lon="11.51160818925108"><ele>167.0</ele><time>2026-05-02T11:58:53.003Z</time></trkpt><trkpt lat="44.2321893799266" lon="11.511764529696212"><ele>167.0</ele><time>2026-05-02T11:58:54.003Z</time></trkpt><trkpt lat="44.23236275099392" lon="11.511922692665065"><ele>168.0</ele><time>2026-05-02T11:58:55.003Z</time></trkpt><trkpt lat="44.2325331612572" lon="11.512086120359443"><ele>169.0</ele><time>2026-05-02T11:58:56.003Z</time></trkpt><trkpt lat="44.23270349225518" lon="11.512251377805358"><ele>170.0</ele><time>2026-05-02T11:58:57.003Z</time></trkpt><trkpt lat="44.232872324670666" lon="11.512411690969648"><ele>170.0</ele><time>2026-05-02T11:58:58.003Z</time></trkpt><trkpt lat="44.23303930859008" lon="11.512566089639616"><ele>170.0</ele><time>2026-05-02T11:58:59.003Z</time></trkpt><trkpt lat="44.233193297138854" lon="11.512710262452153"><ele>170.0</ele><time>2026-05-02T11:59:00.003Z</time></trkpt><trkpt lat="44.23333910104134" lon="11.512841708466514"><ele>171.66666666666666</ele><time>2026-05-02T11:59:01.003Z</time></trkpt><trkpt lat="44.23347936311536" lon="11.512970114652271"><ele>173.33333333333334</ele><time>2026-05-02T11:59:02.003Z</time></trkpt><trkpt lat="44.23360872832395" lon="11.513087877805393"><ele>175.0</ele><time>2026-05-02T11:59:03.003Z</time></trkpt><trkpt lat="44.23373302014086" lon="11.513201148559"><ele>175.0</ele><time>2026-05-02T11:59:04.003Z</time></trkpt><trkpt lat="44.233848087177485" lon="11.51331775237131"><ele>175.0</ele><time>2026-05-02T11:59:05.003Z</time></trkpt><trkpt lat="44.23394633150087" lon="11.513447165875613"><ele>175.0</ele><time>2026-05-02T11:59:06.003Z</time></trkpt><trkpt lat="44.23402533849187" lon="11.513592133029087"><ele>175.0</ele><time>2026-05-02T11:59:07.003Z</time></trkpt><trkpt lat="44.234079320310265" lon="11.513751698068575"><ele>173.75</ele><time>2026-05-02T11:59:08.003Z</time></trkpt><trkpt lat="44.23410683454403" lon="11.513928973109765"><ele>172.5</ele><time>2026-05-02T11:59:09.003Z</time></trkpt><trkpt lat="44.234115396299536" lon="11.514122921937489"><ele>171.25</ele><time>2026-05-02T11:59:10.003Z</time></trkpt><trkpt lat="44.23412904228234" lon="11.514337745143623"><ele>170.0</ele><time>2026-05-02T11:59:11.003Z</time></trkpt><trkpt lat="44.23415223322051" lon="11.514555261793618"><ele>172.33333333333331</ele><time>2026-05-02T11:59:12.003Z</time></trkpt><trkpt lat="44.23423373174998" lon="11.514961017058543"><ele>174.66666666666666</ele><time>2026-05-02T11:59:14.003Z</time></trkpt><trkpt lat="44.234284900483395" lon="11.515147769277617"><ele>177.0</ele><time>2026-05-02T11:59:15.003Z</time></trkpt><trkpt lat="44.23433676340467" lon="11.515326112669511"><ele>177.75</ele><time>2026-05-02T11:59:16.003Z</time></trkpt><trkpt lat="44.234391310904996" lon="11.515495868233675"><ele>178.5</ele><time>2026-05-02T11:59:17.003Z</time></trkpt><trkpt lat="44.234422664564526" lon="11.515682598537156"><ele>179.25</ele><time>2026-05-02T11:59:18.003Z</time></trkpt><trkpt lat="44.23444135617685" lon="11.51589176745624"><ele>180.0</ele><time>2026-05-02T11:59:19.003Z</time></trkpt><trkpt lat="44.234456736386235" lon="11.51610380551593"><ele>181.33333333333334</ele><time>2026-05-02T11:59:20.003Z</time></trkpt><trkpt lat="44.23448651611785" lon="11.516326884879101"><ele>182.66666666666669</ele><time>2026-05-02T11:59:20.998Z</time></trkpt><trkpt lat="44.234509259349494" lon="11.516535963165754"><ele>184.0</ele><time>2026-05-02T11:59:21.998Z</time></trkpt><trkpt lat="44.23454137059688" lon="11.516727433868246"><ele>184.0</ele><time>2026-05-02T11:59:22.998Z</time></trkpt><trkpt lat="44.23458508279371" lon="11.516913740168308"><ele>184.0</ele><time>2026-05-02T11:59:23.998Z</time></trkpt><trkpt lat="44.23464233484291" lon="11.517099843519485"><ele>184.0</ele><time>2026-05-02T11:59:24.998Z</time></trkpt><trkpt lat="44.23472620281707" lon="11.517273882083467"><ele>184.0</ele><time>2026-05-02T11:59:25.998Z</time></trkpt><trkpt lat="44.23482740278792" lon="11.51742422262812"><ele>178.33333333333334</ele><time>2026-05-02T11:59:26.998Z</time></trkpt><trkpt lat="44.23494409384306" lon="11.517550450052516"><ele>172.66666666666666</ele><time>2026-05-02T11:59:27.998Z</time></trkpt><trkpt lat="44.235067634178435" lon="11.517681153635493"><ele>167.0</ele><time>2026-05-02T11:59:28.998Z</time></trkpt><trkpt lat="44.2351897255738" lon="11.517810062547722"><ele>169.5</ele><time>2026-05-02T11:59:29.998Z</time></trkpt><trkpt lat="44.23530171638554" lon="11.517933735042659"><ele>172.0</ele><time>2026-05-02T11:59:30.998Z</time></trkpt><trkpt lat="44.23540184382884" lon="11.518041582350977"><ele>174.5</ele><time>2026-05-02T11:59:31.999Z</time></trkpt><trkpt lat="44.23549097239545" lon="11.51813660419822"><ele>177.0</ele><time>2026-05-02T11:59:32.999Z</time></trkpt><trkpt lat="44.23557452535172" lon="11.518227173118746"><ele>174.0</ele><time>2026-05-02T11:59:33.999Z</time></trkpt><trkpt lat="44.23565665926045" lon="11.518316769207205"><ele>171.0</ele><time>2026-05-02T11:59:34.999Z</time></trkpt><trkpt lat="44.235739746019185" lon="11.518403281511889"><ele>168.0</ele><time>2026-05-02T11:59:35.999Z</time></trkpt><trkpt lat="44.23582573158872" lon="11.518497938298959"><ele>165.0</ele><time>2026-05-02T11:59:36.999Z</time></trkpt><trkpt lat="44.23591445925581" lon="11.518600737734003"><ele>162.0</ele><time>2026-05-02T11:59:37.999Z</time></trkpt><trkpt lat="44.23600896334378" lon="11.518707893966505"><ele>163.75</ele><time>2026-05-02T11:59:38.999Z</time></trkpt><trkpt lat="44.236107908593404" lon="11.518820942773633"><ele>165.5</ele><time>2026-05-02T11:59:39.999Z</time></trkpt><trkpt lat="44.23621124215301" lon="11.518939577326188"><ele>167.25</ele><time>2026-05-02T11:59:40.999Z</time></trkpt><trkpt lat="44.236316769023595" lon="11.519062748244803"><ele>169.0</ele><time>2026-05-02T11:59:41.999Z</time></trkpt><trkpt lat="44.2364237024149" lon="11.519188641953766"><ele>168.5</ele><time>2026-05-02T11:59:43Z</time></trkpt><trkpt lat="44.23652305849393" lon="11.5193051603196"><ele>168.0</ele><time>2026-05-02T11:59:44Z</time></trkpt><trkpt lat="44.23661825930214" lon="11.519413245167884"><ele>167.5</ele><time>2026-05-02T11:59:45Z</time></trkpt><trkpt lat="44.23671950455156" lon="11.519521877122594"><ele>167.0</ele><time>2026-05-02T11:59:46Z</time></trkpt><trkpt lat="44.236825729791725" lon="11.519631688999425"><ele>168.0</ele><time>2026-05-02T11:59:47Z</time></trkpt><trkpt lat="44.236947035345786" lon="11.519711541124774"><ele>169.0</ele><time>2026-05-02T11:59:48Z</time></trkpt><trkpt lat="44.23707573935565" lon="11.519741857904304"><ele>170.0</ele><time>2026-05-02T11:59:49Z</time></trkpt><trkpt lat="44.23720661151883" lon="11.519753846162523"><ele>171.0</ele><time>2026-05-02T11:59:50Z</time></trkpt><trkpt lat="44.23732605762955" lon="11.519793282335712"><ele>171.0</ele><time>2026-05-02T11:59:51Z</time></trkpt><trkpt lat="44.23742576188457" lon="11.519858959193419"><ele>171.0</ele><time>2026-05-02T11:59:52Z</time></trkpt><trkpt lat="44.237509457447" lon="11.519962626815316"><ele>171.0</ele><time>2026-05-02T11:59:53Z</time></trkpt><trkpt lat="44.23757109502984" lon="11.520092043962574"><ele>171.0</ele><time>2026-05-02T11:59:54Z</time></trkpt><trkpt lat="44.23762438569245" lon="11.52023819022907"><ele>171.0</ele><time>2026-05-02T11:59:55Z</time></trkpt><trkpt lat="44.237694269946445" lon="11.52037985835458"><ele>171.0</ele><time>2026-05-02T11:59:56Z</time></trkpt><trkpt lat="44.23778157355091" lon="11.520495589514368"><ele>171.0</ele><time>2026-05-02T11:59:57Z</time></trkpt><trkpt lat="44.2378735748469" lon="11.520583917092234"><ele>171.0</ele><time>2026-05-02T11:59:58.001Z</time></trkpt><trkpt lat="44.23796761021665" lon="11.520664429861272"><ele>171.60000000000002</ele><time>2026-05-02T11:59:59.001Z</time></trkpt><trkpt lat="44.23806272634869" lon="11.520738244561958"><ele>172.2</ele><time>2026-05-02T12:00:00.001Z</time></trkpt><trkpt lat="44.23815777784595" lon="11.52080582273425"><ele>172.8</ele><time>2026-05-02T12:00:01.001Z</time></trkpt><trkpt lat="44.2382463451536" lon="11.520863264946918"><ele>173.39999999999998</ele><time>2026-05-02T12:00:02.001Z</time></trkpt><trkpt lat="44.23832757845456" lon="11.520928264409687"><ele>174.0</ele><time>2026-05-02T12:00:03.001Z</time></trkpt><trkpt lat="44.23840630949424" lon="11.521008007820024"><ele>174.0</ele><time>2026-05-02T12:00:04.001Z</time></trkpt><trkpt lat="44.238471858105925" lon="11.521121410120903"><ele>174.0</ele><time>2026-05-02T12:00:05.001Z</time></trkpt><trkpt lat="44.238527324995445" lon="11.521245160920596"><ele>174.0</ele><time>2026-05-02T12:00:06.001Z</time></trkpt><trkpt lat="44.238658201342055" lon="11.52149048283042"><ele>174.0</ele><time>2026-05-02T12:00:08.001Z</time></trkpt><trkpt lat="44.23873945301556" lon="11.521599372446076"><ele>174.25</ele><time>2026-05-02T12:00:09.001Z</time></trkpt><trkpt lat="44.23882824606771" lon="11.52170765647292"><ele>174.5</ele><time>2026-05-02T12:00:10.001Z</time></trkpt><trkpt lat="44.23891292799553" lon="11.521810686899148"><ele>174.75</ele><time>2026-05-02T12:00:11.001Z</time></trkpt><trkpt lat="44.23898952043647" lon="11.521916574581796"><ele>175.0</ele><time>2026-05-02T12:00:12.001Z</time></trkpt><trkpt lat="44.23906767888098" lon="11.522041482595677"><ele>177.75</ele><time>2026-05-02T12:00:13.001Z</time></trkpt><trkpt lat="44.2391338823839" lon="11.522176402832255"><ele>180.5</ele><time>2026-05-02T12:00:14.001Z</time></trkpt><trkpt lat="44.2391909437792" lon="11.522325820705552"><ele>183.25</ele><time>2026-05-02T12:00:15.001Z</time></trkpt><trkpt lat="44.2392442738774" lon="11.522477994747687"><ele>186.0</ele><time>2026-05-02T12:00:16.001Z</time></trkpt><trkpt lat="44.23930963411508" lon="11.522619058048036"><ele>186.0</ele><time>2026-05-02T12:00:17.001Z</time></trkpt><trkpt lat="44.239393326596876" lon="11.522743221445658"><ele>186.0</ele><time>2026-05-02T12:00:18.001Z</time></trkpt><trkpt lat="44.23947758769504" lon="11.522863704862457"><ele>186.0</ele><time>2026-05-02T12:00:19.001Z</time></trkpt><trkpt lat="44.23955250910553" lon="11.522981165487515"><ele>186.0</ele><time>2026-05-02T12:00:20.001Z</time></trkpt><trkpt lat="44.23963088349955" lon="11.523089852847152"><ele>187.0</ele><time>2026-05-02T12:00:21.001Z</time></trkpt><trkpt lat="44.23970366137787" lon="11.523187547641223"><ele>188.0</ele><time>2026-05-02T12:00:22.001Z</time></trkpt><trkpt lat="44.239779222111984" lon="11.523281814108445"><ele>189.0</ele><time>2026-05-02T12:00:23.001Z</time></trkpt><trkpt lat="44.23987108846859" lon="11.523352294417492"><ele>190.0</ele><time>2026-05-02T12:00:24.002Z</time></trkpt><trkpt lat="44.23998885380521" lon="11.523355825618358"><ele>191.0</ele><time>2026-05-02T12:00:25.002Z</time></trkpt><trkpt lat="44.24009929183997" lon="11.523328928183346"><ele>191.0</ele><time>2026-05-02T12:00:26.002Z</time></trkpt><trkpt lat="44.24021454559654" lon="11.523272975609435"><ele>191.0</ele><time>2026-05-02T12:00:27.002Z</time></trkpt><trkpt lat="44.2403232110635" lon="11.523205234373922"><ele>191.0</ele><time>2026-05-02T12:00:28.002Z</time></trkpt><trkpt lat="44.240432559369836" lon="11.523145925693925"><ele>191.0</ele><time>2026-05-02T12:00:29.002Z</time></trkpt><trkpt lat="44.240544459330366" lon="11.523093170335557"><ele>191.0</ele><time>2026-05-02T12:00:30.002Z</time></trkpt><trkpt lat="44.240657604287044" lon="11.523052949992332"><ele>191.0</ele><time>2026-05-02T12:00:31.002Z</time></trkpt><trkpt lat="44.24077386909812" lon="11.523044495960322"><ele>191.0</ele><time>2026-05-02T12:00:32.002Z</time></trkpt><trkpt lat="44.240890712190314" lon="11.523059596633985"><ele>191.0</ele><time>2026-05-02T12:00:33.002Z</time></trkpt><trkpt lat="44.240998741409626" lon="11.523101397818118"><ele>191.0</ele><time>2026-05-02T12:00:34.002Z</time></trkpt><trkpt lat="44.24109663860686" lon="11.523191976768056"><ele>191.0</ele><time>2026-05-02T12:00:35.002Z</time></trkpt><trkpt lat="44.24117814342974" lon="11.52330757034563"><ele>191.0</ele><time>2026-05-02T12:00:36.002Z</time></trkpt><trkpt lat="44.2412534941829" lon="11.523435800292317"><ele>191.0</ele><time>2026-05-02T12:00:37.002Z</time></trkpt><trkpt lat="44.24133003999864" lon="11.52355830415802"><ele>191.0</ele><time>2026-05-02T12:00:38.002Z</time></trkpt><trkpt lat="44.24141545164869" lon="11.523669594945938"><ele>191.0</ele><time>2026-05-02T12:00:39.002Z</time></trkpt><trkpt lat="44.24150696920756" lon="11.523782886326956"><ele>191.0</ele><time>2026-05-02T12:00:40.002Z</time></trkpt><trkpt lat="44.241600221905635" lon="11.523905171785612"><ele>191.0</ele><time>2026-05-02T12:00:41.002Z</time></trkpt><trkpt lat="44.241694013229505" lon="11.52403501604194"><ele>192.0</ele><time>2026-05-02T12:00:42.002Z</time></trkpt><trkpt lat="44.241788448020124" lon="11.524164791114575"><ele>193.0</ele><time>2026-05-02T12:00:43.002Z</time></trkpt><trkpt lat="44.241887365792024" lon="11.524292586065185"><ele>194.0</ele><time>2026-05-02T12:00:44.002Z</time></trkpt><trkpt lat="44.241989958124975" lon="11.52441361349289"><ele>195.0</ele><time>2026-05-02T12:00:45.002Z</time></trkpt><trkpt lat="44.242102779039094" lon="11.524517148788005"><ele>195.25</ele><time>2026-05-02T12:00:46.002Z</time></trkpt><trkpt lat="44.24222174208292" lon="11.52460345235366"><ele>195.5</ele><time>2026-05-02T12:00:47.002Z</time></trkpt><trkpt lat="44.24233763304337" lon="11.524672081258752"><ele>195.75</ele><time>2026-05-02T12:00:48.002Z</time></trkpt><trkpt lat="44.242452070736796" lon="11.524743123571675"><ele>196.0</ele><time>2026-05-02T12:00:49.002Z</time></trkpt><trkpt lat="44.242563848273825" lon="11.524813912146211"><ele>196.0</ele><time>2026-05-02T12:00:50.002Z</time></trkpt><trkpt lat="44.24267332670641" lon="11.524893928366204"><ele>196.0</ele><time>2026-05-02T12:00:51.002Z</time></trkpt><trkpt lat="44.24277475072885" lon="11.524992558534151"><ele>196.0</ele><time>2026-05-02T12:00:52.002Z</time></trkpt><trkpt lat="44.24286466218899" lon="11.525108332349395"><ele>196.0</ele><time>2026-05-02T12:00:53.002Z</time></trkpt><trkpt lat="44.242939424702726" lon="11.525243497266949"><ele>196.0</ele><time>2026-05-02T12:00:54.002Z</time></trkpt><trkpt lat="44.24299738858432" lon="11.525382608183511"><ele>196.0</ele><time>2026-05-02T12:00:55.002Z</time></trkpt><trkpt lat="44.24304399552295" lon="11.525536714539331"><ele>196.0</ele><time>2026-05-02T12:00:56.003Z</time></trkpt><trkpt lat="44.243080587942266" lon="11.525699432369866"><ele>196.0</ele><time>2026-05-02T12:00:57.003Z</time></trkpt><trkpt lat="44.24310797329782" lon="11.525865215045632"><ele>196.5</ele><time>2026-05-02T12:00:58.003Z</time></trkpt><trkpt lat="44.243118323784316" lon="11.526035622028166"><ele>197.0</ele><time>2026-05-02T12:00:59.003Z</time></trkpt><trkpt lat="44.2431112806449" lon="11.526208698186727"><ele>197.5</ele><time>2026-05-02T12:01:00.003Z</time></trkpt><trkpt lat="44.24309023677093" lon="11.526385894168579"><ele>198.0</ele><time>2026-05-02T12:01:01.003Z</time></trkpt><trkpt lat="44.243064789949365" lon="11.526546751132676"><ele>196.75</ele><time>2026-05-02T12:01:02.003Z</time></trkpt><trkpt lat="44.243037091444876" lon="11.5267061097054"><ele>195.5</ele><time>2026-05-02T12:01:03.003Z</time></trkpt><trkpt lat="44.243004848337186" lon="11.526859634092682"><ele>194.25</ele><time>2026-05-02T12:01:04.003Z</time></trkpt><trkpt lat="44.242975612520205" lon="11.527011439686305"><ele>193.0</ele><time>2026-05-02T12:01:05.003Z</time></trkpt><trkpt lat="44.24294793780694" lon="11.527165400112098"><ele>189.75</ele><time>2026-05-02T12:01:06.003Z</time></trkpt><trkpt lat="44.242922656612045" lon="11.527318778468663"><ele>186.5</ele><time>2026-05-02T12:01:07.003Z</time></trkpt><trkpt lat="44.242892806794345" lon="11.527469071400438"><ele>183.25</ele><time>2026-05-02T12:01:08.003Z</time></trkpt><trkpt lat="44.24286085299841" lon="11.527622591039416"><ele>180.0</ele><time>2026-05-02T12:01:09.003Z</time></trkpt><trkpt lat="44.242831873200856" lon="11.52777563722194"><ele>182.0</ele><time>2026-05-02T12:01:10.003Z</time></trkpt><trkpt lat="44.2428036707977" lon="11.52792949278786"><ele>184.0</ele><time>2026-05-02T12:01:11.003Z</time></trkpt><trkpt lat="44.24277530757258" lon="11.528086561567045"><ele>186.0</ele><time>2026-05-02T12:01:12.003Z</time></trkpt><trkpt lat="44.24274632173119" lon="11.528241356421692"><ele>188.0</ele><time>2026-05-02T12:01:13.003Z</time></trkpt><trkpt lat="44.24272630119625" lon="11.528399056453152"><ele>188.0</ele><time>2026-05-02T12:01:14.003Z</time></trkpt><trkpt lat="44.24272848187076" lon="11.528559543102709"><ele>188.0</ele><time>2026-05-02T12:01:15.003Z</time></trkpt><trkpt lat="44.24277273759866" lon="11.528711896737537"><ele>188.0</ele><time>2026-05-02T12:01:16.003Z</time></trkpt><trkpt lat="44.24285117926109" lon="11.528859021852718"><ele>188.0</ele><time>2026-05-02T12:01:17.003Z</time></trkpt><trkpt lat="44.24294005257205" lon="11.529006825635431"><ele>190.75</ele><time>2026-05-02T12:01:18.003Z</time></trkpt><trkpt lat="44.2430292820536" lon="11.52914775494226"><ele>193.5</ele><time>2026-05-02T12:01:19.003Z</time></trkpt><trkpt lat="44.243110905606" lon="11.529287954652336"><ele>196.25</ele><time>2026-05-02T12:01:20.003Z</time></trkpt><trkpt lat="44.24318740206689" lon="11.529425477617883"><ele>199.0</ele><time>2026-05-02T12:01:21.003Z</time></trkpt><trkpt lat="44.24326175736658" lon="11.529553528168707"><ele>200.5</ele><time>2026-05-02T12:01:22.003Z</time></trkpt><trkpt lat="44.243336070958414" lon="11.529679476643134"><ele>202.0</ele><time>2026-05-02T12:01:23.003Z</time></trkpt><trkpt lat="44.24341198323689" lon="11.52980607372656"><ele>203.5</ele><time>2026-05-02T12:01:24.003Z</time></trkpt><trkpt lat="44.2434888401455" lon="11.529936174460651"><ele>205.0</ele><time>2026-05-02T12:01:25.003Z</time></trkpt><trkpt lat="44.24356430191575" lon="11.530070613548657"><ele>205.0</ele><time>2026-05-02T12:01:26.003Z</time></trkpt><trkpt lat="44.24364261072043" lon="11.530207483476193"><ele>205.0</ele><time>2026-05-02T12:01:26.998Z</time></trkpt><trkpt lat="44.24372657392369" lon="11.530345952913912"><ele>205.0</ele><time>2026-05-02T12:01:27.998Z</time></trkpt><trkpt lat="44.24381272990836" lon="11.530487127747282"><ele>205.0</ele><time>2026-05-02T12:01:28.998Z</time></trkpt><trkpt lat="44.243900081377575" lon="11.530631313194228"><ele>203.75</ele><time>2026-05-02T12:01:29.998Z</time></trkpt><trkpt lat="44.24398337443949" lon="11.530772964858327"><ele>202.5</ele><time>2026-05-02T12:01:30.998Z</time></trkpt><trkpt lat="44.24406340703249" lon="11.530910416999154"><ele>201.25</ele><time>2026-05-02T12:01:31.999Z</time></trkpt><trkpt lat="44.244144234666855" lon="11.531049382191746"><ele>200.0</ele><time>2026-05-02T12:01:32.999Z</time></trkpt><trkpt lat="44.24422462033618" lon="11.531189211851695"><ele>201.5</ele><time>2026-05-02T12:01:33.999Z</time></trkpt><trkpt lat="44.24430382404187" lon="11.53132852863342"><ele>203.0</ele><time>2026-05-02T12:01:34.999Z</time></trkpt><trkpt lat="44.2443812883088" lon="11.531462768419743"><ele>204.5</ele><time>2026-05-02T12:01:35.999Z</time></trkpt><trkpt lat="44.2444610709244" lon="11.531598056199526"><ele>206.0</ele><time>2026-05-02T12:01:36.999Z</time></trkpt><trkpt lat="44.2445402354281" lon="11.531735705396299"><ele>206.0</ele><time>2026-05-02T12:01:37.999Z</time></trkpt><trkpt lat="44.24462141111815" lon="11.531873167194698"><ele>206.0</ele><time>2026-05-02T12:01:38.999Z</time></trkpt><trkpt lat="44.24470466288159" lon="11.53201221735388"><ele>206.0</ele><time>2026-05-02T12:01:39.999Z</time></trkpt><trkpt lat="44.244783371531824" lon="11.532146143579531"><ele>206.0</ele><time>2026-05-02T12:01:40.999Z</time></trkpt><trkpt lat="44.24485192635358" lon="11.532271716562855"><ele>205.0</ele><time>2026-05-02T12:01:41.999Z</time></trkpt><trkpt lat="44.24491789353922" lon="11.532400384141106"><ele>204.0</ele><time>2026-05-02T12:01:42.999Z</time></trkpt><trkpt lat="44.244984024829364" lon="11.532533074413728"><ele>203.0</ele><time>2026-05-02T12:01:43.999Z</time></trkpt><trkpt lat="44.245051764809645" lon="11.532672106888796"><ele>202.0</ele><time>2026-05-02T12:01:44.999Z</time></trkpt><trkpt lat="44.245117816563365" lon="11.532816823450176"><ele>203.5</ele><time>2026-05-02T12:01:45.999Z</time></trkpt><trkpt lat="44.24518880576117" lon="11.53296777367517"><ele>205.0</ele><time>2026-05-02T12:01:47Z</time></trkpt><trkpt lat="44.24526711943245" lon="11.533124484434193"><ele>206.5</ele><time>2026-05-02T12:01:48Z</time></trkpt><trkpt lat="44.245345609121514" lon="11.533287578502657"><ele>208.0</ele><time>2026-05-02T12:01:49Z</time></trkpt><trkpt lat="44.24542130650546" lon="11.533448790165584"><ele>208.0</ele><time>2026-05-02T12:01:50Z</time></trkpt><trkpt lat="44.24550146163489" lon="11.533608784786066"><ele>208.0</ele><time>2026-05-02T12:01:51Z</time></trkpt><trkpt lat="44.24558133256807" lon="11.533779083541061"><ele>208.0</ele><time>2026-05-02T12:01:52Z</time></trkpt><trkpt lat="44.245660215198946" lon="11.533956345022327"><ele>208.0</ele><time>2026-05-02T12:01:53Z</time></trkpt><trkpt lat="44.2457389262137" lon="11.534138663310454"><ele>206.0</ele><time>2026-05-02T12:01:54Z</time></trkpt><trkpt lat="44.245820559713344" lon="11.534325597091371"><ele>204.0</ele><time>2026-05-02T12:01:55Z</time></trkpt><trkpt lat="44.245903558078254" lon="11.534516909335471"><ele>202.0</ele><time>2026-05-02T12:01:56Z</time></trkpt><trkpt lat="44.24599305153328" lon="11.534709482334348"><ele>202.0</ele><time>2026-05-02T12:01:57Z</time></trkpt><trkpt lat="44.24608921078943" lon="11.534904436760026"><ele>202.0</ele><time>2026-05-02T12:01:58Z</time></trkpt><trkpt lat="44.24619537016079" lon="11.535089899299335"><ele>202.0</ele><time>2026-05-02T12:01:59Z</time></trkpt><trkpt lat="44.246296815713954" lon="11.535270749982983"><ele>205.0</ele><time>2026-05-02T12:02:00Z</time></trkpt><trkpt lat="44.24639478003985" lon="11.535464718957487"><ele>208.0</ele><time>2026-05-02T12:02:01Z</time></trkpt><trkpt lat="44.2464899772965" lon="11.535665216468992"><ele>211.0</ele><time>2026-05-02T12:02:02Z</time></trkpt><trkpt lat="44.246580619293304" lon="11.535863152314299"><ele>206.0</ele><time>2026-05-02T12:02:03Z</time></trkpt><trkpt lat="44.24666615961803" lon="11.536058933864728"><ele>201.0</ele><time>2026-05-02T12:02:04Z</time></trkpt><trkpt lat="44.24675040391488" lon="11.536253013850034"><ele>196.0</ele><time>2026-05-02T12:02:05.001Z</time></trkpt><trkpt lat="44.24683265338117" lon="11.536438487275474"><ele>196.0</ele><time>2026-05-02T12:02:06.001Z</time></trkpt><trkpt lat="44.24691446513301" lon="11.53662542163863"><ele>196.0</ele><time>2026-05-02T12:02:07.001Z</time></trkpt><trkpt lat="44.246996785442875" lon="11.53680604631901"><ele>196.0</ele><time>2026-05-02T12:02:08.001Z</time></trkpt><trkpt lat="44.24707530167817" lon="11.536981851492024"><ele>198.75</ele><time>2026-05-02T12:02:09.001Z</time></trkpt><trkpt lat="44.24715032460036" lon="11.537155231937072"><ele>201.5</ele><time>2026-05-02T12:02:10.001Z</time></trkpt><trkpt lat="44.2472236094493" lon="11.537324627710214"><ele>204.25</ele><time>2026-05-02T12:02:11.001Z</time></trkpt><trkpt lat="44.24729644409312" lon="11.537493836724892"><ele>207.0</ele><time>2026-05-02T12:02:12.001Z</time></trkpt><trkpt lat="44.24736439988374" lon="11.537668062984766"><ele>202.0</ele><time>2026-05-02T12:02:13.001Z</time></trkpt><trkpt lat="44.247423814239106" lon="11.537852396575934"><ele>197.0</ele><time>2026-05-02T12:02:14.001Z</time></trkpt><trkpt lat="44.2474757550468" lon="11.538047684942468"><ele>192.0</ele><time>2026-05-02T12:02:15.001Z</time></trkpt><trkpt lat="44.24752242145068" lon="11.538249994589428"><ele>187.0</ele><time>2026-05-02T12:02:16.001Z</time></trkpt><trkpt lat="44.24757452603301" lon="11.538456022972243"><ele>187.0</ele><time>2026-05-02T12:02:17.001Z</time></trkpt><trkpt lat="44.24763308555975" lon="11.53867069288043"><ele>187.0</ele><time>2026-05-02T12:02:18.001Z</time></trkpt><trkpt lat="44.247694043976864" lon="11.53889098405608"><ele>187.0</ele><time>2026-05-02T12:02:19.001Z</time></trkpt><trkpt lat="44.2477593894356" lon="11.539112382200553"><ele>189.0</ele><time>2026-05-02T12:02:20.001Z</time></trkpt><trkpt lat="44.24782899445688" lon="11.539335957797174"><ele>191.0</ele><time>2026-05-02T12:02:21.001Z</time></trkpt><trkpt lat="44.247895763812025" lon="11.539554243123549"><ele>193.0</ele><time>2026-05-02T12:02:22.001Z</time></trkpt><trkpt lat="44.24795509939207" lon="11.539760811834718"><ele>190.75</ele><time>2026-05-02T12:02:23.001Z</time></trkpt><trkpt lat="44.24801086599161" lon="11.5399581639044"><ele>188.5</ele><time>2026-05-02T12:02:24.001Z</time></trkpt><trkpt lat="44.24806438292227" lon="11.540149980317745"><ele>186.25</ele><time>2026-05-02T12:02:25.001Z</time></trkpt><trkpt lat="44.24812023280468" lon="11.540332788971787"><ele>184.0</ele><time>2026-05-02T12:02:26.001Z</time></trkpt><trkpt lat="44.24817546959696" lon="11.54050959786172"><ele>184.0</ele><time>2026-05-02T12:02:27.001Z</time></trkpt><trkpt lat="44.24822744553104" lon="11.540683209544742"><ele>184.0</ele><time>2026-05-02T12:02:28.001Z</time></trkpt><trkpt lat="44.248278559541426" lon="11.540858183555029"><ele>184.0</ele><time>2026-05-02T12:02:29.001Z</time></trkpt><trkpt lat="44.24833037352222" lon="11.541037398619109"><ele>184.0</ele><time>2026-05-02T12:02:30.001Z</time></trkpt><trkpt lat="44.248384147687425" lon="11.541221816588747"><ele>186.0</ele><time>2026-05-02T12:02:31.001Z</time></trkpt><trkpt lat="44.24844321181697" lon="11.54140850099659"><ele>188.0</ele><time>2026-05-02T12:02:32.001Z</time></trkpt><trkpt lat="44.24850487922795" lon="11.54159182219281"><ele>190.0</ele><time>2026-05-02T12:02:33.002Z</time></trkpt><trkpt lat="44.24857043731964" lon="11.541773189227026"><ele>192.0</ele><time>2026-05-02T12:02:34.002Z</time></trkpt><trkpt lat="44.24864443602734" lon="11.541941782456906"><ele>190.0</ele><time>2026-05-02T12:02:35.002Z</time></trkpt><trkpt lat="44.24873619611297" lon="11.542092448698014"><ele>188.0</ele><time>2026-05-02T12:02:36.002Z</time></trkpt><trkpt lat="44.2488456386039" lon="11.542224545378048"><ele>186.0</ele><time>2026-05-02T12:02:37.002Z</time></trkpt><trkpt lat="44.24896255700568" lon="11.542341708393842"><ele>184.0</ele><time>2026-05-02T12:02:38.002Z</time></trkpt><trkpt lat="44.24908219830195" lon="11.54246088238584"><ele>184.0</ele><time>2026-05-02T12:02:39.002Z</time></trkpt><trkpt lat="44.24919405919274" lon="11.542599174629641"><ele>184.0</ele><time>2026-05-02T12:02:40.002Z</time></trkpt><trkpt lat="44.24929829179274" lon="11.542750813359964"><ele>184.0</ele><time>2026-05-02T12:02:41.002Z</time></trkpt><trkpt lat="44.249397072993666" lon="11.542915083265626"><ele>188.0</ele><time>2026-05-02T12:02:42.002Z</time></trkpt><trkpt lat="44.24949654860326" lon="11.543076945372952"><ele>192.0</ele><time>2026-05-02T12:02:43.002Z</time></trkpt><trkpt lat="44.24960230726305" lon="11.543236922999023"><ele>196.0</ele><time>2026-05-02T12:02:44.002Z</time></trkpt><trkpt lat="44.2497075284989" lon="11.543398939914661"><ele>190.66666666666666</ele><time>2026-05-02T12:02:45.002Z</time></trkpt><trkpt lat="44.24981888649047" lon="11.543560416326262"><ele>185.33333333333331</ele><time>2026-05-02T12:02:46.002Z</time></trkpt><trkpt lat="44.24992786223131" lon="11.543708999752214"><ele>180.0</ele><time>2026-05-02T12:02:47.002Z</time></trkpt><trkpt lat="44.25003827636627" lon="11.543838851890051"><ele>180.0</ele><time>2026-05-02T12:02:48.002Z</time></trkpt><trkpt lat="44.25015051518974" lon="11.543953603237648"><ele>180.0</ele><time>2026-05-02T12:02:49.002Z</time></trkpt><trkpt lat="44.25025848579064" lon="11.544069635042126"><ele>180.0</ele><time>2026-05-02T12:02:50.002Z</time></trkpt><trkpt lat="44.25036463638042" lon="11.544186956572249"><ele>180.0</ele><time>2026-05-02T12:02:51.002Z</time></trkpt><trkpt lat="44.25047005887364" lon="11.544303276785955"><ele>180.0</ele><time>2026-05-02T12:02:52.002Z</time></trkpt><trkpt lat="44.25057252082462" lon="11.544420863785547"><ele>180.0</ele><time>2026-05-02T12:02:53.002Z</time></trkpt><trkpt lat="44.25067534085017" lon="11.544535001250768"><ele>180.0</ele><time>2026-05-02T12:02:54.002Z</time></trkpt><trkpt lat="44.25078283068663" lon="11.544644874759356"><ele>180.0</ele><time>2026-05-02T12:02:55.002Z</time></trkpt><trkpt lat="44.25088612773638" lon="11.544759269766805"><ele>179.0</ele><time>2026-05-02T12:02:56.002Z</time></trkpt><trkpt lat="44.250988461642535" lon="11.544877041953129"><ele>178.0</ele><time>2026-05-02T12:02:57.002Z</time></trkpt><trkpt lat="44.25108730734635" lon="11.544993789479593"><ele>177.0</ele><time>2026-05-02T12:02:58.002Z</time></trkpt><trkpt lat="44.251185077807406" lon="11.545105579616195"><ele>176.0</ele><time>2026-05-02T12:02:59.002Z</time></trkpt><trkpt lat="44.25128020191182" lon="11.545214687006926"><ele>176.0</ele><time>2026-05-02T12:03:00.002Z</time></trkpt><trkpt lat="44.25137695004956" lon="11.545322927785348"><ele>176.0</ele><time>2026-05-02T12:03:01.002Z</time></trkpt><trkpt lat="44.25147687449052" lon="11.54543538525364"><ele>176.0</ele><time>2026-05-02T12:03:02.002Z</time></trkpt><trkpt lat="44.25157820921771" lon="11.545553463788215"><ele>176.0</ele><time>2026-05-02T12:03:03.002Z</time></trkpt><trkpt lat="44.25167961741244" lon="11.545676364467905"><ele>176.0</ele><time>2026-05-02T12:03:04.002Z</time></trkpt><trkpt lat="44.251780217735025" lon="11.545804893753836"><ele>176.0</ele><time>2026-05-02T12:03:05.003Z</time></trkpt><trkpt lat="44.251876527243475" lon="11.545940644170184"><ele>176.0</ele><time>2026-05-02T12:03:06.003Z</time></trkpt><trkpt lat="44.25197066749198" lon="11.546091276910689"><ele>176.0</ele><time>2026-05-02T12:03:07.003Z</time></trkpt><trkpt lat="44.25205273494317" lon="11.546255026246575"><ele>175.75</ele><time>2026-05-02T12:03:08.003Z</time></trkpt><trkpt lat="44.25212438811433" lon="11.546427048599645"><ele>175.5</ele><time>2026-05-02T12:03:09.003Z</time></trkpt><trkpt lat="44.25218376419309" lon="11.546613685124319"><ele>175.25</ele><time>2026-05-02T12:03:10.003Z</time></trkpt><trkpt lat="44.252234879986474" lon="11.546807606493553"><ele>175.0</ele><time>2026-05-02T12:03:11.003Z</time></trkpt><trkpt lat="44.25227890552497" lon="11.54700661978664"><ele>174.0</ele><time>2026-05-02T12:03:12.003Z</time></trkpt><trkpt lat="44.25231706427362" lon="11.547209474766344"><ele>173.0</ele><time>2026-05-02T12:03:13.003Z</time></trkpt><trkpt lat="44.252354177881465" lon="11.547418070158132"><ele>172.0</ele><time>2026-05-02T12:03:14.003Z</time></trkpt><trkpt lat="44.25239228538554" lon="11.547631448710556"><ele>172.0</ele><time>2026-05-02T12:03:15.003Z</time></trkpt><trkpt lat="44.252432505870296" lon="11.547848142638262"><ele>172.0</ele><time>2026-05-02T12:03:16.003Z</time></trkpt><trkpt lat="44.25247080304895" lon="11.548069412641972"><ele>172.0</ele><time>2026-05-02T12:03:17.003Z</time></trkpt><trkpt lat="44.252505998396565" lon="11.548292998410039"><ele>172.75</ele><time>2026-05-02T12:03:18.003Z</time></trkpt><trkpt lat="44.2525353220376" lon="11.548507572112275"><ele>173.5</ele><time>2026-05-02T12:03:19.003Z</time></trkpt><trkpt lat="44.25256217792701" lon="11.548710566904797"><ele>174.25</ele><time>2026-05-02T12:03:20.003Z</time></trkpt><trkpt lat="44.252593755907085" lon="11.548904413884761"><ele>175.0</ele><time>2026-05-02T12:03:21.003Z</time></trkpt><trkpt lat="44.252629427169154" lon="11.549095905550308"><ele>175.0</ele><time>2026-05-02T12:03:22.003Z</time></trkpt><trkpt lat="44.252659839767134" lon="11.549280854549066"><ele>175.0</ele><time>2026-05-02T12:03:23.003Z</time></trkpt><trkpt lat="44.25269111079715" lon="11.549460520009314"><ele>175.0</ele><time>2026-05-02T12:03:24.003Z</time></trkpt><trkpt lat="44.25272754585384" lon="11.549638204677118"><ele>175.0</ele><time>2026-05-02T12:03:25.003Z</time></trkpt><trkpt lat="44.252785472974665" lon="11.549811553732452"><ele>174.75</ele><time>2026-05-02T12:03:26.003Z</time></trkpt><trkpt lat="44.2528622783276" lon="11.549977841588891"><ele>174.5</ele><time>2026-05-02T12:03:27.003Z</time></trkpt><trkpt lat="44.25295475234428" lon="11.550134836907992"><ele>174.25</ele><time>2026-05-02T12:03:28.003Z</time></trkpt><trkpt lat="44.25306030547197" lon="11.550277395509715"><ele>174.0</ele><time>2026-05-02T12:03:29.003Z</time></trkpt><trkpt lat="44.25317930299131" lon="11.550406897213119"><ele>174.0</ele><time>2026-05-02T12:03:30.003Z</time></trkpt><trkpt lat="44.253308287699724" lon="11.55052770535676"><ele>174.0</ele><time>2026-05-02T12:03:31.003Z</time></trkpt><trkpt lat="44.25344091876814" lon="11.550641769933875"><ele>174.0</ele><time>2026-05-02T12:03:32.003Z</time></trkpt><trkpt lat="44.253569152411664" lon="11.550756533880804"><ele>174.0</ele><time>2026-05-02T12:03:32.998Z</time></trkpt><trkpt lat="44.2536919284906" lon="11.550866593371902"><ele>174.0</ele><time>2026-05-02T12:03:33.998Z</time></trkpt><trkpt lat="44.25381069232166" lon="11.550976718711372"><ele>174.0</ele><time>2026-05-02T12:03:34.998Z</time></trkpt><trkpt lat="44.25392442917001" lon="11.551078981719064"><ele>174.0</ele><time>2026-05-02T12:03:35.998Z</time></trkpt><trkpt lat="44.254044657388015" lon="11.551181364261094"><ele>172.5</ele><time>2026-05-02T12:03:36.998Z</time></trkpt><trkpt lat="44.254163178350375" lon="11.551288431663744"><ele>171.0</ele><time>2026-05-02T12:03:37.998Z</time></trkpt><trkpt lat="44.254275884503784" lon="11.551406116253782"><ele>169.5</ele><time>2026-05-02T12:03:38.998Z</time></trkpt><trkpt lat="44.25438333117397" lon="11.551535732128627"><ele>168.0</ele><time>2026-05-02T12:03:39.998Z</time></trkpt><trkpt lat="44.254481479424825" lon="11.551674112772092"><ele>168.0</ele><time>2026-05-02T12:03:40.998Z</time></trkpt><trkpt lat="44.25457156791606" lon="11.551819512025114"><ele>168.0</ele><time>2026-05-02T12:03:41.999Z</time></trkpt><trkpt lat="44.25465253950597" lon="11.551971991951286"><ele>168.0</ele><time>2026-05-02T12:03:42.999Z</time></trkpt><trkpt lat="44.25471766562969" lon="11.552120692515276"><ele>168.0</ele><time>2026-05-02T12:03:43.999Z</time></trkpt><trkpt lat="44.25477395803672" lon="11.552259894228616"><ele>168.0</ele><time>2026-05-02T12:03:44.999Z</time></trkpt><trkpt lat="44.25482702253227" lon="11.552389833902645"><ele>168.0</ele><time>2026-05-02T12:03:45.999Z</time></trkpt><trkpt lat="44.2548794458198" lon="11.552513873179201"><ele>168.0</ele><time>2026-05-02T12:03:46.999Z</time></trkpt><trkpt lat="44.254932395032306" lon="11.552637339618633"><ele>168.0</ele><time>2026-05-02T12:03:47.999Z</time></trkpt><trkpt lat="44.254985294939004" lon="11.552762933019853"><ele>168.0</ele><time>2026-05-02T12:03:48.999Z</time></trkpt><trkpt lat="44.25503688264311" lon="11.552895024101153"><ele>168.5</ele><time>2026-05-02T12:03:49.999Z</time></trkpt><trkpt lat="44.2550891880311" lon="11.55303297941897"><ele>169.0</ele><time>2026-05-02T12:03:50.999Z</time></trkpt><trkpt lat="44.25514540741159" lon="11.55317654799433"><ele>169.5</ele><time>2026-05-02T12:03:51.999Z</time></trkpt><trkpt lat="44.25520508194377" lon="11.553326026249024"><ele>170.0</ele><time>2026-05-02T12:03:52.999Z</time></trkpt><trkpt lat="44.255265626446665" lon="11.553483183139758"><ele>170.0</ele><time>2026-05-02T12:03:54Z</time></trkpt><trkpt lat="44.25532945259318" lon="11.553645447984211"><ele>170.0</ele><time>2026-05-02T12:03:55Z</time></trkpt><trkpt lat="44.255396726138535" lon="11.553810440969352"><ele>170.0</ele><time>2026-05-02T12:03:56Z</time></trkpt><trkpt lat="44.255471237488855" lon="11.553972726662364"><ele>170.0</ele><time>2026-05-02T12:03:57Z</time></trkpt><trkpt lat="44.255551680699625" lon="11.554118704688653"><ele>170.2</ele><time>2026-05-02T12:03:58Z</time></trkpt><trkpt lat="44.25563138838513" lon="11.554247659530262"><ele>170.4</ele><time>2026-05-02T12:03:59Z</time></trkpt><trkpt lat="44.2557063170973" lon="11.554369091490113"><ele>170.60000000000002</ele><time>2026-05-02T12:04:00Z</time></trkpt><trkpt lat="44.25577640794982" lon="11.554483484557974"><ele>170.8</ele><time>2026-05-02T12:04:01Z</time></trkpt><trkpt lat="44.255845496819624" lon="11.554593144574795"><ele>171.0</ele><time>2026-05-02T12:04:02Z</time></trkpt><trkpt lat="44.255914200786144" lon="11.554700175461662"><ele>171.60000000000002</ele><time>2026-05-02T12:04:03Z</time></trkpt><trkpt lat="44.255984449459014" lon="11.554807642274758"><ele>172.2</ele><time>2026-05-02T12:04:04Z</time></trkpt><trkpt lat="44.256054899305724" lon="11.554919316765357"><ele>172.8</ele><time>2026-05-02T12:04:05Z</time></trkpt><trkpt lat="44.25612864988725" lon="11.555029930952866"><ele>173.39999999999998</ele><time>2026-05-02T12:04:06Z</time></trkpt><trkpt lat="44.256204461418804" lon="11.555149095689288"><ele>174.0</ele><time>2026-05-02T12:04:07Z</time></trkpt><trkpt lat="44.25628573971579" lon="11.555266932461292"><ele>174.0</ele><time>2026-05-02T12:04:08Z</time></trkpt><trkpt lat="44.2563660123552" lon="11.555389290989895"><ele>174.0</ele><time>2026-05-02T12:04:09Z</time></trkpt><trkpt lat="44.25645434187339" lon="11.555513492706853"><ele>174.0</ele><time>2026-05-02T12:04:10Z</time></trkpt><trkpt lat="44.25654271112636" lon="11.555642478926229"><ele>174.0</ele><time>2026-05-02T12:04:11.001Z</time></trkpt><trkpt lat="44.25663242608449" lon="11.55577463118573"><ele>174.0</ele><time>2026-05-02T12:04:12.001Z</time></trkpt><trkpt lat="44.25672065592768" lon="11.555903850543986"><ele>174.0</ele><time>2026-05-02T12:04:13.001Z</time></trkpt><trkpt lat="44.25681017570839" lon="11.556032048924616"><ele>174.0</ele><time>2026-05-02T12:04:14.001Z</time></trkpt><trkpt lat="44.25689531424124" lon="11.556160377086176"><ele>174.0</ele><time>2026-05-02T12:04:15.001Z</time></trkpt><trkpt lat="44.25697820354592" lon="11.556285182703867"><ele>174.0</ele><time>2026-05-02T12:04:16.001Z</time></trkpt><trkpt lat="44.25706185277439" lon="11.556402606538278"><ele>174.0</ele><time>2026-05-02T12:04:17.001Z</time></trkpt><trkpt lat="44.25713939509965" lon="11.556518995685964"><ele>174.0</ele><time>2026-05-02T12:04:18.001Z</time></trkpt><trkpt lat="44.257213626182505" lon="11.556636974288198"><ele>174.0</ele><time>2026-05-02T12:04:19.001Z</time></trkpt><trkpt lat="44.2572877532149" lon="11.556750726354638"><ele>173.79999999999998</ele><time>2026-05-02T12:04:20.001Z</time></trkpt><trkpt lat="44.25736127070768" lon="11.556858333408899"><ele>173.6</ele><time>2026-05-02T12:04:21.001Z</time></trkpt><trkpt lat="44.257428086279056" lon="11.55696431608148"><ele>173.4</ele><time>2026-05-02T12:04:22.001Z</time></trkpt><trkpt lat="44.2574926559689" lon="11.557066539335239"><ele>173.2</ele><time>2026-05-02T12:04:23.001Z</time></trkpt><trkpt lat="44.257555210288224" lon="11.557162330033387"><ele>173.0</ele><time>2026-05-02T12:04:24.001Z</time></trkpt><trkpt lat="44.25761656671197" lon="11.557257570535402"><ele>173.0</ele><time>2026-05-02T12:04:25.001Z</time></trkpt><trkpt lat="44.257675913817884" lon="11.557345362113706"><ele>173.0</ele><time>2026-05-02T12:04:26.001Z</time></trkpt><trkpt lat="44.25773472874689" lon="11.55742470303841"><ele>173.0</ele><time>2026-05-02T12:04:27.001Z</time></trkpt><trkpt lat="44.25779706433144" lon="11.557508324553348"><ele>173.0</ele><time>2026-05-02T12:04:28.001Z</time></trkpt><trkpt lat="44.257853848566434" lon="11.557590316689602"><ele>173.0</ele><time>2026-05-02T12:04:29.001Z</time></trkpt><trkpt lat="44.25790210912414" lon="11.557661775755703"><ele>173.0</ele><time>2026-05-02T12:04:30.001Z</time></trkpt><trkpt lat="44.258012468723834" lon="11.557708187024982"><ele>173.0</ele><time>2026-05-02T12:04:32.001Z</time></trkpt><trkpt lat="44.258069241044055" lon="11.557660052404014"><ele>173.0</ele><time>2026-05-02T12:04:33.001Z</time></trkpt><trkpt lat="44.25811499135522" lon="11.557583468390668"><ele>173.0</ele><time>2026-05-02T12:04:34.001Z</time></trkpt><trkpt lat="44.25815701335727" lon="11.557472141881783"><ele>173.0</ele><time>2026-05-02T12:04:35.001Z</time></trkpt><trkpt lat="44.25820893244231" lon="11.557355329834522"><ele>173.0</ele><time>2026-05-02T12:04:36.001Z</time></trkpt><trkpt lat="44.25826466656791" lon="11.557230817285644"><ele>173.0</ele><time>2026-05-02T12:04:37.002Z</time></trkpt><trkpt lat="44.25833511029196" lon="11.557091805396793"><ele>171.75</ele><time>2026-05-02T12:04:38.002Z</time></trkpt><trkpt lat="44.258415494886805" lon="11.556949041614027"><ele>170.5</ele><time>2026-05-02T12:04:39.002Z</time></trkpt><trkpt lat="44.25850303473949" lon="11.556805678984455"><ele>169.25</ele><time>2026-05-02T12:04:40.002Z</time></trkpt><trkpt lat="44.25858387525354" lon="11.556660062090971"><ele>168.0</ele><time>2026-05-02T12:04:41.002Z</time></trkpt><trkpt lat="44.258657445955244" lon="11.55652272195504"><ele>168.0</ele><time>2026-05-02T12:04:42.002Z</time></trkpt><trkpt lat="44.25873276394896" lon="11.556383017484885"><ele>168.0</ele><time>2026-05-02T12:04:43.002Z</time></trkpt><trkpt lat="44.258814735496316" lon="11.556245657160789"><ele>168.0</ele><time>2026-05-02T12:04:44.002Z</time></trkpt><trkpt lat="44.25890195025659" lon="11.556106829258642"><ele>168.0</ele><time>2026-05-02T12:04:45.002Z</time></trkpt><trkpt lat="44.25899236146832" lon="11.555984429383452"><ele>167.5</ele><time>2026-05-02T12:04:46.002Z</time></trkpt><trkpt lat="44.25908760588276" lon="11.555874472766988"><ele>167.0</ele><time>2026-05-02T12:04:47.002Z</time></trkpt><trkpt lat="44.259188938481245" lon="11.555770979976744"><ele>166.5</ele><time>2026-05-02T12:04:48.002Z</time></trkpt><trkpt lat="44.25929245773555" lon="11.55567156009271"><ele>166.0</ele><time>2026-05-02T12:04:49.002Z</time></trkpt><trkpt lat="44.25939745817479" lon="11.555576003657421"><ele>166.0</ele><time>2026-05-02T12:04:50.002Z</time></trkpt><trkpt lat="44.25949894454758" lon="11.555471470715014"><ele>166.0</ele><time>2026-05-02T12:04:51.002Z</time></trkpt><trkpt lat="44.25960330701765" lon="11.555374399458993"><ele>166.0</ele><time>2026-05-02T12:04:52.002Z</time></trkpt><trkpt lat="44.25971402820195" lon="11.555275500373254"><ele>166.0</ele><time>2026-05-02T12:04:53.002Z</time></trkpt><trkpt lat="44.25982634183973" lon="11.555167749502028"><ele>164.0</ele><time>2026-05-02T12:04:54.002Z</time></trkpt><trkpt lat="44.25993650607736" lon="11.555054168398462"><ele>162.0</ele><time>2026-05-02T12:04:55.002Z</time></trkpt><trkpt lat="44.26004557247139" lon="11.554944196899477"><ele>160.0</ele><time>2026-05-02T12:04:56.002Z</time></trkpt><trkpt lat="44.26014217238151" lon="11.554822253324085"><ele>158.0</ele><time>2026-05-02T12:04:57.002Z</time></trkpt><trkpt lat="44.2602342249572" lon="11.554696924871767"><ele>158.0</ele><time>2026-05-02T12:04:58.002Z</time></trkpt><trkpt lat="44.26031896502185" lon="11.554576522407448"><ele>158.0</ele><time>2026-05-02T12:04:59.002Z</time></trkpt><trkpt lat="44.2603964372341" lon="11.55447161653859"><ele>158.0</ele><time>2026-05-02T12:05:00.002Z</time></trkpt><trkpt lat="44.26046674240067" lon="11.554366353381692"><ele>158.0</ele><time>2026-05-02T12:05:01.002Z</time></trkpt><trkpt lat="44.26053335291544" lon="11.554276506298507"><ele>158.0</ele><time>2026-05-02T12:05:02.002Z</time></trkpt><trkpt lat="44.26059800427669" lon="11.554200764474047"><ele>156.0</ele><time>2026-05-02T12:05:03.002Z</time></trkpt><trkpt lat="44.260673242823806" lon="11.554148320454336"><ele>154.0</ele><time>2026-05-02T12:05:04.002Z</time></trkpt><trkpt lat="44.26075577562418" lon="11.55413530129796"><ele>152.0</ele><time>2026-05-02T12:05:05.002Z</time></trkpt><trkpt lat="44.2608447648661" lon="11.554171755911959"><ele>150.0</ele><time>2026-05-02T12:05:06.002Z</time></trkpt><trkpt lat="44.260933934495554" lon="11.55424148861222"><ele>148.0</ele><time>2026-05-02T12:05:07.002Z</time></trkpt><trkpt lat="44.26101531449039" lon="11.554335249502538"><ele>148.0</ele><time>2026-05-02T12:05:08.002Z</time></trkpt><trkpt lat="44.2611077252715" lon="11.554419603682039"><ele>148.0</ele><time>2026-05-02T12:05:09.003Z</time></trkpt><trkpt lat="44.26120619254063" lon="11.5544706824313"><ele>148.0</ele><time>2026-05-02T12:05:10.003Z</time></trkpt><trkpt lat="44.26131636736089" lon="11.55447836252177"><ele>148.0</ele><time>2026-05-02T12:05:11.003Z</time></trkpt><trkpt lat="44.2614245406715" lon="11.554435342282131"><ele>148.0</ele><time>2026-05-02T12:05:12.003Z</time></trkpt><trkpt lat="44.26153755364365" lon="11.554353976638287"><ele>146.0</ele><time>2026-05-02T12:05:13.003Z</time></trkpt><trkpt lat="44.26165635831775" lon="11.554272182246681"><ele>144.0</ele><time>2026-05-02T12:05:14.003Z</time></trkpt><trkpt lat="44.261782469574186" lon="11.55419728814211"><ele>142.0</ele><time>2026-05-02T12:05:15.003Z</time></trkpt><trkpt lat="44.26191162125216" lon="11.554124933635842"><ele>140.0</ele><time>2026-05-02T12:05:16.003Z</time></trkpt><trkpt lat="44.262033017783516" lon="11.554048995952183"><ele>140.0</ele><time>2026-05-02T12:05:17.003Z</time></trkpt><trkpt lat="44.26213974596056" lon="11.55397357117143"><ele>140.0</ele><time>2026-05-02T12:05:18.003Z</time></trkpt><trkpt lat="44.26224076249795" lon="11.553908696088131"><ele>140.0</ele><time>2026-05-02T12:05:19.003Z</time></trkpt><trkpt lat="44.26233509142048" lon="11.553863349174094"><ele>140.0</ele><time>2026-05-02T12:05:20.003Z</time></trkpt><trkpt lat="44.26243030949329" lon="11.55384780030316"><ele>140.0</ele><time>2026-05-02T12:05:21.003Z</time></trkpt><trkpt lat="44.262529473989076" lon="11.553870456188578"><ele>138.6</ele><time>2026-05-02T12:05:22.003Z</time></trkpt><trkpt lat="44.26262162306693" lon="11.553932832288629"><ele>137.2</ele><time>2026-05-02T12:05:23.003Z</time></trkpt><trkpt lat="44.262704362677525" lon="11.554018607015548"><ele>135.8</ele><time>2026-05-02T12:05:24.003Z</time></trkpt><trkpt lat="44.26277192859312" lon="11.554125242382801"><ele>134.4</ele><time>2026-05-02T12:05:25.003Z</time></trkpt><trkpt lat="44.26280792399686" lon="11.55426063200992"><ele>133.0</ele><time>2026-05-02T12:05:26.003Z</time></trkpt><trkpt lat="44.26281689367399" lon="11.554411084032973"><ele>132.75</ele><time>2026-05-02T12:05:27.003Z</time></trkpt><trkpt lat="44.2628143729364" lon="11.554577204434635"><ele>132.5</ele><time>2026-05-02T12:05:28.003Z</time></trkpt><trkpt lat="44.26280996156189" lon="11.55475599448073"><ele>132.25</ele><time>2026-05-02T12:05:29.003Z</time></trkpt><trkpt lat="44.26281933695872" lon="11.554945886090442"><ele>132.0</ele><time>2026-05-02T12:05:30.003Z</time></trkpt><trkpt lat="44.262829263917915" lon="11.55513874037975"><ele>132.0</ele><time>2026-05-02T12:05:31.003Z</time></trkpt><trkpt lat="44.262830872994805" lon="11.555329561877251"><ele>132.0</ele><time>2026-05-02T12:05:32.003Z</time></trkpt><trkpt lat="44.26283429659942" lon="11.555512081744785"><ele>132.0</ele><time>2026-05-02T12:05:33.003Z</time></trkpt><trkpt lat="44.262841043093474" lon="11.555688075397436"><ele>132.0</ele><time>2026-05-02T12:05:34.003Z</time></trkpt><trkpt lat="44.26284562028615" lon="11.55585187545982"><ele>131.4</ele><time>2026-05-02T12:05:35.003Z</time></trkpt><trkpt lat="44.26285129549364" lon="11.556011470761398"><ele>130.79999999999998</ele><time>2026-05-02T12:05:36.003Z</time></trkpt><trkpt lat="44.26285959104681" lon="11.556166680001803"><ele>130.2</ele><time>2026-05-02T12:05:37.003Z</time></trkpt><trkpt lat="44.2628722715988" lon="11.55631826104726"><ele>129.6</ele><time>2026-05-02T12:05:38.003Z</time></trkpt><trkpt lat="44.26288853939706" lon="11.556457466052901"><ele>129.0</ele><time>2026-05-02T12:05:38.998Z</time></trkpt><trkpt lat="44.26291128593348" lon="11.556580809607048"><ele>130.33333333333334</ele><time>2026-05-02T12:05:39.998Z</time></trkpt><trkpt lat="44.26294000466129" lon="11.556693142181171"><ele>131.66666666666666</ele><time>2026-05-02T12:05:40.998Z</time></trkpt><trkpt lat="44.26296974311981" lon="11.556787508179495"><ele>133.0</ele><time>2026-05-02T12:05:41.998Z</time></trkpt><trkpt lat="44.263012959593226" lon="11.556861508530567"><ele>134.33333333333331</ele><time>2026-05-02T12:05:42.998Z</time></trkpt><trkpt lat="44.26311282563993" lon="11.556919816675792"><ele>135.66666666666666</ele><time>2026-05-02T12:05:44.998Z</time></trkpt><trkpt lat="44.26318116298973" lon="11.556897672463617"><ele>137.0</ele><time>2026-05-02T12:05:45.998Z</time></trkpt><trkpt lat="44.2632456730969" lon="11.55685780116829"><ele>134.33333333333331</ele><time>2026-05-02T12:05:46.998Z</time></trkpt><trkpt lat="44.26332128199414" lon="11.556811148936156"><ele>131.66666666666666</ele><time>2026-05-02T12:05:47.998Z</time></trkpt><trkpt lat="44.2633939132705" lon="11.556768658796585"><ele>129.0</ele><time>2026-05-02T12:05:48.999Z</time></trkpt><trkpt lat="44.26347170857758" lon="11.556727555104436"><ele>126.33333333333334</ele><time>2026-05-02T12:05:49.999Z</time></trkpt><trkpt lat="44.26355108793274" lon="11.556685152589809"><ele>123.66666666666667</ele><time>2026-05-02T12:05:50.999Z</time></trkpt><trkpt lat="44.26363485645632" lon="11.556634711040644"><ele>121.0</ele><time>2026-05-02T12:05:51.999Z</time></trkpt><trkpt lat="44.26371771390557" lon="11.556588590586168"><ele>121.0</ele><time>2026-05-02T12:05:52.999Z</time></trkpt><trkpt lat="44.26380993491465" lon="11.556538963534745"><ele>121.0</ele><time>2026-05-02T12:05:53.999Z</time></trkpt><trkpt lat="44.263913782042685" lon="11.556489222107883"><ele>121.0</ele><time>2026-05-02T12:05:54.999Z</time></trkpt><trkpt lat="44.264028712753806" lon="11.556428210978082"><ele>121.0</ele><time>2026-05-02T12:05:55.999Z</time></trkpt><trkpt lat="44.264150710811506" lon="11.556370318863001"><ele>120.5</ele><time>2026-05-02T12:05:56.999Z</time></trkpt><trkpt lat="44.26428064378203" lon="11.556298961905734"><ele>120.0</ele><time>2026-05-02T12:05:57.999Z</time></trkpt><trkpt lat="44.26440714834358" lon="11.556230930304956"><ele>119.5</ele><time>2026-05-02T12:05:58.999Z</time></trkpt><trkpt lat="44.26454225555456" lon="11.556166278888073"><ele>119.0</ele><time>2026-05-02T12:05:59.999Z</time></trkpt><trkpt lat="44.264678512673385" lon="11.556096563989534"><ele>119.75</ele><time>2026-05-02T12:06:01Z</time></trkpt><trkpt lat="44.264816655708756" lon="11.556028592680624"><ele>120.5</ele><time>2026-05-02T12:06:02Z</time></trkpt><trkpt lat="44.2649493257628" lon="11.555960227708457"><ele>121.25</ele><time>2026-05-02T12:06:03Z</time></trkpt><trkpt lat="44.26507693741179" lon="11.555893719306198"><ele>122.0</ele><time>2026-05-02T12:06:04Z</time></trkpt><trkpt lat="44.26519299820461" lon="11.555826918076939"><ele>122.0</ele><time>2026-05-02T12:06:05Z</time></trkpt><trkpt lat="44.26530152970947" lon="11.555774809179985"><ele>121.99999999999999</ele><time>2026-05-02T12:06:06Z</time></trkpt><trkpt lat="44.26540658885911" lon="11.55574206509855"><ele>121.99999999999999</ele><time>2026-05-02T12:06:07Z</time></trkpt><trkpt lat="44.26550637197863" lon="11.555739034664736"><ele>122.0</ele><time>2026-05-02T12:06:08Z</time></trkpt><trkpt lat="44.26560688114475" lon="11.555765186804903"><ele>122.0</ele><time>2026-05-02T12:06:09Z</time></trkpt><trkpt lat="44.26570871230425" lon="11.5558070981696"><ele>124.75</ele><time>2026-05-02T12:06:10Z</time></trkpt><trkpt lat="44.26581101781307" lon="11.555879111840845"><ele>127.5</ele><time>2026-05-02T12:06:11Z</time></trkpt><trkpt lat="44.265915139521766" lon="11.555967519527837"><ele>130.25</ele><time>2026-05-02T12:06:12Z</time></trkpt><trkpt lat="44.26602849966213" lon="11.556060740774594"><ele>133.0</ele><time>2026-05-02T12:06:13Z</time></trkpt><trkpt lat="44.26614773267101" lon="11.556149387704657"><ele>132.5</ele><time>2026-05-02T12:06:14Z</time></trkpt><trkpt lat="44.26627006342041" lon="11.556237313019581"><ele>132.0</ele><time>2026-05-02T12:06:15Z</time></trkpt><trkpt lat="44.26639739790285" lon="11.556324167533669"><ele>131.5</ele><time>2026-05-02T12:06:16Z</time></trkpt><trkpt lat="44.26652499652846" lon="11.55640447979052"><ele>131.0</ele><time>2026-05-02T12:06:17Z</time></trkpt><trkpt lat="44.26665609539745" lon="11.556478304174915"><ele>131.0</ele><time>2026-05-02T12:06:18.001Z</time></trkpt><trkpt lat="44.266787621346666" lon="11.556539665944298"><ele>131.0</ele><time>2026-05-02T12:06:19.001Z</time></trkpt><trkpt lat="44.2669221317126" lon="11.556589060961455"><ele>131.0</ele><time>2026-05-02T12:06:20.001Z</time></trkpt><trkpt lat="44.267064662801" lon="11.556617073788548"><ele>131.0</ele><time>2026-05-02T12:06:21.001Z</time></trkpt><trkpt lat="44.26721180699951" lon="11.556634917065407"><ele>132.5</ele><time>2026-05-02T12:06:22.001Z</time></trkpt><trkpt lat="44.26735835296606" lon="11.556667584619593"><ele>134.0</ele><time>2026-05-02T12:06:23.001Z</time></trkpt><trkpt lat="44.26750209337374" lon="11.556696712691371"><ele>135.5</ele><time>2026-05-02T12:06:24.001Z</time></trkpt><trkpt lat="44.26764157437138" lon="11.556725548878116"><ele>137.0</ele><time>2026-05-02T12:06:25.001Z</time></trkpt><trkpt lat="44.26789269611341" lon="11.556785337638502"><ele>137.0</ele><time>2026-05-02T12:06:27.001Z</time></trkpt><trkpt lat="44.268006998942646" lon="11.556795217757433"><ele>137.0</ele><time>2026-05-02T12:06:28.001Z</time></trkpt><trkpt lat="44.26811929282463" lon="11.556780150199414"><ele>137.0</ele><time>2026-05-02T12:06:29.001Z</time></trkpt><trkpt lat="44.268234048584894" lon="11.556739292693536"><ele>137.0</ele><time>2026-05-02T12:06:30.001Z</time></trkpt><trkpt lat="44.26834699660449" lon="11.556667378608951"><ele>138.25</ele><time>2026-05-02T12:06:31.001Z</time></trkpt><trkpt lat="44.268444081180625" lon="11.556564925227502"><ele>139.5</ele><time>2026-05-02T12:06:32.001Z</time></trkpt><trkpt lat="44.26852380862282" lon="11.556441074972268"><ele>140.75</ele><time>2026-05-02T12:06:33.001Z</time></trkpt><trkpt lat="44.2685788727039" lon="11.556288778185742"><ele>142.0</ele><time>2026-05-02T12:06:34.001Z</time></trkpt><trkpt lat="44.268618222869634" lon="11.556129233225642"><ele>144.5</ele><time>2026-05-02T12:06:35.001Z</time></trkpt><trkpt lat="44.26863700189823" lon="11.55595744342832"><ele>147.0</ele><time>2026-05-02T12:06:36.001Z</time></trkpt><trkpt lat="44.26863309902923" lon="11.555775376565656"><ele>149.5</ele><time>2026-05-02T12:06:37.001Z</time></trkpt><trkpt lat="44.26861045030778" lon="11.555608911736734"><ele>152.0</ele><time>2026-05-02T12:06:38.001Z</time></trkpt><trkpt lat="44.26856400353126" lon="11.555460492180648"><ele>152.5</ele><time>2026-05-02T12:06:39.001Z</time></trkpt><trkpt lat="44.268488795305764" lon="11.55532558577854"><ele>153.0</ele><time>2026-05-02T12:06:40.001Z</time></trkpt><trkpt lat="44.268397303793" lon="11.555199983420664"><ele>153.5</ele><time>2026-05-02T12:06:41.001Z</time></trkpt><trkpt lat="44.268312314948886" lon="11.555082343736887"><ele>154.0</ele><time>2026-05-02T12:06:42.001Z</time></trkpt><trkpt lat="44.268259557726296" lon="11.55494964363829"><ele>154.0</ele><time>2026-05-02T12:06:43.001Z</time></trkpt><trkpt lat="44.26824635726815" lon="11.554821259150742"><ele>154.0</ele><time>2026-05-02T12:06:44.001Z</time></trkpt><trkpt lat="44.268258665697466" lon="11.554688031549652"><ele>154.0</ele><time>2026-05-02T12:06:45.002Z</time></trkpt><trkpt lat="44.26830163465341" lon="11.554559091794976"><ele>154.0</ele><time>2026-05-02T12:06:46.002Z</time></trkpt><trkpt lat="44.268370736318246" lon="11.554442374154458"><ele>154.0</ele><time>2026-05-02T12:06:47.002Z</time></trkpt><trkpt lat="44.26845832905454" lon="11.554342952910602"><ele>154.4</ele><time>2026-05-02T12:06:48.002Z</time></trkpt><trkpt lat="44.26856119403182" lon="11.554277597491701"><ele>154.8</ele><time>2026-05-02T12:06:49.002Z</time></trkpt><trkpt lat="44.26866788356289" lon="11.554241996504505"><ele>155.2</ele><time>2026-05-02T12:06:50.002Z</time></trkpt><trkpt lat="44.26877265091647" lon="11.554198600783794"><ele>155.6</ele><time>2026-05-02T12:06:51.002Z</time></trkpt><trkpt lat="44.26886626272343" lon="11.554116165888317"><ele>156.0</ele><time>2026-05-02T12:06:52.002Z</time></trkpt><trkpt lat="44.268944603100024" lon="11.553995034347873"><ele>156.0</ele><time>2026-05-02T12:06:53.002Z</time></trkpt><trkpt lat="44.26900702595838" lon="11.553847387978387"><ele>156.0</ele><time>2026-05-02T12:06:54.002Z</time></trkpt><trkpt lat="44.26905162463143" lon="11.553691093512194"><ele>156.0</ele><time>2026-05-02T12:06:55.002Z</time></trkpt><trkpt lat="44.269099024376665" lon="11.553546317064004"><ele>156.0</ele><time>2026-05-02T12:06:56.002Z</time></trkpt><trkpt lat="44.26914288554935" lon="11.553400642787999"><ele>158.2</ele><time>2026-05-02T12:06:57.002Z</time></trkpt><trkpt lat="44.269191422011254" lon="11.553243786819356"><ele>160.39999999999998</ele><time>2026-05-02T12:06:58.002Z</time></trkpt><trkpt lat="44.26923957595606" lon="11.553084393742402"><ele>162.6</ele><time>2026-05-02T12:06:59.002Z</time></trkpt><trkpt lat="44.26927442563092" lon="11.552943502410569"><ele>164.79999999999998</ele><time>2026-05-02T12:07:00.002Z</time></trkpt><trkpt lat="44.26928932367828" lon="11.552816725942083"><ele>167.0</ele><time>2026-05-02T12:07:01.002Z</time></trkpt><trkpt lat="44.26928124498706" lon="11.552689013233595"><ele>167.8</ele><time>2026-05-02T12:07:02.002Z</time></trkpt><trkpt lat="44.26924865084128" lon="11.55256838203875"><ele>168.6</ele><time>2026-05-02T12:07:03.002Z</time></trkpt><trkpt lat="44.269191285292024" lon="11.552453341361364"><ele>169.4</ele><time>2026-05-02T12:07:04.002Z</time></trkpt><trkpt lat="44.26910406840005" lon="11.552364083679663"><ele>170.20000000000002</ele><time>2026-05-02T12:07:05.002Z</time></trkpt><trkpt lat="44.26900598220895" lon="11.552298427764775"><ele>171.0</ele><time>2026-05-02T12:07:06.002Z</time></trkpt><trkpt lat="44.26889678440909" lon="11.552274880479175"><ele>173.75</ele><time>2026-05-02T12:07:07.002Z</time></trkpt><trkpt lat="44.268783929753475" lon="11.552268954387456"><ele>176.5</ele><time>2026-05-02T12:07:08.002Z</time></trkpt><trkpt lat="44.26866663368134" lon="11.55227232054361"><ele>179.25</ele><time>2026-05-02T12:07:09.002Z</time></trkpt><trkpt lat="44.268554526771595" lon="11.55225523802023"><ele>182.0</ele><time>2026-05-02T12:07:10.002Z</time></trkpt><trkpt lat="44.26844639623236" lon="11.552214087130952"><ele>182.0</ele><time>2026-05-02T12:07:11.002Z</time></trkpt><trkpt lat="44.26834350883951" lon="11.552147836269148"><ele>182.0</ele><time>2026-05-02T12:07:12.002Z</time></trkpt><trkpt lat="44.26825760898101" lon="11.55205449355163"><ele>182.0</ele><time>2026-05-02T12:07:13.002Z</time></trkpt><trkpt lat="44.268190915114374" lon="11.551935026752961"><ele>182.0</ele><time>2026-05-02T12:07:14.002Z</time></trkpt><trkpt lat="44.268141606398245" lon="11.55179655038867"><ele>182.0</ele><time>2026-05-02T12:07:15.002Z</time></trkpt><trkpt lat="44.26810779544279" lon="11.55164172896399"><ele>182.25</ele><time>2026-05-02T12:07:16.002Z</time></trkpt><trkpt lat="44.26808919303681" lon="11.551476580722209"><ele>182.5</ele><time>2026-05-02T12:07:17.002Z</time></trkpt><trkpt lat="44.268089507776295" lon="11.551304053500962"><ele>182.75</ele><time>2026-05-02T12:07:18.003Z</time></trkpt><trkpt lat="44.26810087303753" lon="11.551123330831123"><ele>183.0</ele><time>2026-05-02T12:07:19.003Z</time></trkpt><trkpt lat="44.268112842506866" lon="11.550938559108447"><ele>183.0</ele><time>2026-05-02T12:07:20.003Z</time></trkpt><trkpt lat="44.26812791329151" lon="11.550752101538324"><ele>183.0</ele><time>2026-05-02T12:07:21.003Z</time></trkpt><trkpt lat="44.268147583291885" lon="11.550564715629031"><ele>183.0</ele><time>2026-05-02T12:07:22.003Z</time></trkpt><trkpt lat="44.26817064700498" lon="11.550378064947877"><ele>183.0</ele><time>2026-05-02T12:07:23.003Z</time></trkpt><trkpt lat="44.26819238605569" lon="11.550191311009666"><ele>185.0</ele><time>2026-05-02T12:07:24.003Z</time></trkpt><trkpt lat="44.268216267654715" lon="11.55000490792566"><ele>187.0</ele><time>2026-05-02T12:07:25.003Z</time></trkpt><trkpt lat="44.26823922280533" lon="11.549820566386533"><ele>189.0</ele><time>2026-05-02T12:07:26.003Z</time></trkpt><trkpt lat="44.26825999004819" lon="11.549633549491935"><ele>191.0</ele><time>2026-05-02T12:07:27.003Z</time></trkpt><trkpt lat="44.268278371880044" lon="11.54945212609406"><ele>192.0</ele><time>2026-05-02T12:07:28.003Z</time></trkpt><trkpt lat="44.26829189830437" lon="11.549279963847964"><ele>193.0</ele><time>2026-05-02T12:07:29.003Z</time></trkpt><trkpt lat="44.268305232835836" lon="11.549118903687642"><ele>194.0</ele><time>2026-05-02T12:07:30.003Z</time></trkpt><trkpt lat="44.26833074251543" lon="11.548984773583449"><ele>195.0</ele><time>2026-05-02T12:07:31.003Z</time></trkpt><trkpt lat="44.26837583821997" lon="11.548858624813992"><ele>196.0</ele><time>2026-05-02T12:07:32.003Z</time></trkpt><trkpt lat="44.26843946645819" lon="11.54874309705658"><ele>198.4</ele><time>2026-05-02T12:07:33.003Z</time></trkpt><trkpt lat="44.268514179229854" lon="11.548637255066264"><ele>200.8</ele><time>2026-05-02T12:07:34.003Z</time></trkpt><trkpt lat="44.26860588783881" lon="11.548545529905141"><ele>203.20000000000002</ele><time>2026-05-02T12:07:35.003Z</time></trkpt><trkpt lat="44.268705792367655" lon="11.548475535494779"><ele>205.60000000000002</ele><time>2026-05-02T12:07:36.003Z</time></trkpt><trkpt lat="44.26880557638142" lon="11.54842158365874"><ele>208.0</ele><time>2026-05-02T12:07:37.003Z</time></trkpt><trkpt lat="44.26890586463245" lon="11.548383035792714"><ele>207.0</ele><time>2026-05-02T12:07:38.003Z</time></trkpt><trkpt lat="44.26900758259302" lon="11.548365418920778"><ele>206.0</ele><time>2026-05-02T12:07:39.003Z</time></trkpt><trkpt lat="44.26910401867261" lon="11.548370530533921"><ele>205.0</ele><time>2026-05-02T12:07:40.003Z</time></trkpt><trkpt lat="44.269203611326354" lon="11.548374155587036"><ele>204.0</ele><time>2026-05-02T12:07:41.003Z</time></trkpt><trkpt lat="44.26930955169428" lon="11.548359897065186"><ele>203.0</ele><time>2026-05-02T12:07:42.003Z</time></trkpt><trkpt lat="44.26941103278233" lon="11.548321893563578"><ele>203.0</ele><time>2026-05-02T12:07:43.003Z</time></trkpt><trkpt lat="44.269492917045994" lon="11.548253775760807"><ele>203.0</ele><time>2026-05-02T12:07:44.003Z</time></trkpt><trkpt lat="44.26956962894036" lon="11.548167179797758"><ele>203.0</ele><time>2026-05-02T12:07:44.998Z</time></trkpt><trkpt lat="44.26963822525835" lon="11.548061413657468"><ele>203.0</ele><time>2026-05-02T12:07:45.998Z</time></trkpt><trkpt lat="44.26969501030251" lon="11.547941405200378"><ele>203.0</ele><time>2026-05-02T12:07:46.998Z</time></trkpt><trkpt lat="44.269739620616555" lon="11.547812938507224"><ele>207.25</ele><time>2026-05-02T12:07:47.998Z</time></trkpt><trkpt lat="44.269764226459806" lon="11.547671434869665"><ele>211.5</ele><time>2026-05-02T12:07:48.998Z</time></trkpt><trkpt lat="44.269762389676565" lon="11.547515193248884"><ele>215.75</ele><time>2026-05-02T12:07:49.998Z</time></trkpt><trkpt lat="44.26974085546157" lon="11.547356261592608"><ele>220.0</ele><time>2026-05-02T12:07:50.999Z</time></trkpt><trkpt lat="44.26970127713702" lon="11.547200697860989"><ele>220.0</ele><time>2026-05-02T12:07:51.999Z</time></trkpt><trkpt lat="44.26964399162617" lon="11.547052539075121"><ele>220.0</ele><time>2026-05-02T12:07:52.999Z</time></trkpt><trkpt lat="44.2695815616381" lon="11.546912864414915"><ele>220.0</ele><time>2026-05-02T12:07:53.999Z</time></trkpt><trkpt lat="44.2695474414204" lon="11.546769257605153"><ele>220.0</ele><time>2026-05-02T12:07:54.999Z</time></trkpt><trkpt lat="44.2695447303643" lon="11.54663266486725"><ele>220.0</ele><time>2026-05-02T12:07:55.999Z</time></trkpt><trkpt lat="44.269573248485656" lon="11.546509805978545"><ele>220.0</ele><time>2026-05-02T12:07:56.999Z</time></trkpt><trkpt lat="44.269621280373414" lon="11.546406630927647"><ele>220.0</ele><time>2026-05-02T12:07:57.999Z</time></trkpt><trkpt lat="44.26968995699995" lon="11.546311314164791"><ele>220.0</ele><time>2026-05-02T12:07:58.999Z</time></trkpt><trkpt lat="44.269770687972624" lon="11.546222655130128"><ele>220.0</ele><time>2026-05-02T12:07:59.999Z</time></trkpt><trkpt lat="44.269865644669785" lon="11.546145685319953"><ele>220.0</ele><time>2026-05-02T12:08:00.999Z</time></trkpt><trkpt lat="44.26995962743409" lon="11.546079640046468"><ele>219.99999999999997</ele><time>2026-05-02T12:08:01.999Z</time></trkpt><trkpt lat="44.27003443121125" lon="11.546004755021094"><ele>220.0</ele><time>2026-05-02T12:08:02.999Z</time></trkpt><trkpt lat="44.27007545955088" lon="11.545905941470872"><ele>220.0</ele><time>2026-05-02T12:08:04Z</time></trkpt><trkpt lat="44.270081481933815" lon="11.545786390193603"><ele>220.0</ele><time>2026-05-02T12:08:05Z</time></trkpt><trkpt lat="44.27004597044134" lon="11.545668541455514"><ele>219.99999999999997</ele><time>2026-05-02T12:08:06Z</time></trkpt><trkpt lat="44.269974509506376" lon="11.545582470597644"><ele>220.0</ele><time>2026-05-02T12:08:07Z</time></trkpt><trkpt lat="44.269880706375616" lon="11.545548465852617"><ele>220.0</ele><time>2026-05-02T12:08:08Z</time></trkpt><trkpt lat="44.26978294787615" lon="11.5455667972121"><ele>220.0</ele><time>2026-05-02T12:08:09Z</time></trkpt><trkpt lat="44.26968769306299" lon="11.545634069712717"><ele>220.0</ele><time>2026-05-02T12:08:10Z</time></trkpt><trkpt lat="44.269596394913265" lon="11.545730914427832"><ele>220.0</ele><time>2026-05-02T12:08:11Z</time></trkpt><trkpt lat="44.26950150988684" lon="11.54581561405853"><ele>220.0</ele><time>2026-05-02T12:08:12Z</time></trkpt><trkpt lat="44.269397697948804" lon="11.545854490531385"><ele>222.25</ele><time>2026-05-02T12:08:13Z</time></trkpt><trkpt lat="44.26929017475489" lon="11.545852162671878"><ele>224.5</ele><time>2026-05-02T12:08:14Z</time></trkpt><trkpt lat="44.269182688014915" lon="11.545812236712461"><ele>226.75</ele><time>2026-05-02T12:08:15Z</time></trkpt><trkpt lat="44.269077280461985" lon="11.545746495220193"><ele>229.0</ele><time>2026-05-02T12:08:16Z</time></trkpt><trkpt lat="44.268968026202444" lon="11.545677227450602"><ele>232.0</ele><time>2026-05-02T12:08:17Z</time></trkpt><trkpt lat="44.268853069707255" lon="11.54561918259052"><ele>235.0</ele><time>2026-05-02T12:08:18Z</time></trkpt><trkpt lat="44.26873602679553" lon="11.545585478106153"><ele>238.0</ele><time>2026-05-02T12:08:19Z</time></trkpt><trkpt lat="44.268620994779354" lon="11.545595813316998"><ele>241.0</ele><time>2026-05-02T12:08:20Z</time></trkpt><trkpt lat="44.26850786482159" lon="11.545651815501673"><ele>241.0</ele><time>2026-05-02T12:08:21Z</time></trkpt><trkpt lat="44.26840541286245" lon="11.545750589655023"><ele>241.0</ele><time>2026-05-02T12:08:22.001Z</time></trkpt><trkpt lat="44.26832027636456" lon="11.545875262850526"><ele>241.0</ele><time>2026-05-02T12:08:23.001Z</time></trkpt><trkpt lat="44.268262025021755" lon="11.546028074694105"><ele>241.0</ele><time>2026-05-02T12:08:24.001Z</time></trkpt><trkpt lat="44.26820009762534" lon="11.546177947140922"><ele>240.5</ele><time>2026-05-02T12:08:25.001Z</time></trkpt><trkpt lat="44.26812834582103" lon="11.54631253916868"><ele>240.0</ele><time>2026-05-02T12:08:26.001Z</time></trkpt><trkpt lat="44.26804262566512" lon="11.546444002653411"><ele>239.5</ele><time>2026-05-02T12:08:27.001Z</time></trkpt><trkpt lat="44.26794639435955" lon="11.546569321043275"><ele>239.0</ele><time>2026-05-02T12:08:28.001Z</time></trkpt><trkpt lat="44.267846264046035" lon="11.546681816769635"><ele>240.79999999999998</ele><time>2026-05-02T12:08:29.001Z</time></trkpt><trkpt lat="44.26775420226823" lon="11.54678874216318"><ele>242.59999999999997</ele><time>2026-05-02T12:08:30.001Z</time></trkpt><trkpt lat="44.267668671459525" lon="11.54688209474404"><ele>244.4</ele><time>2026-05-02T12:08:31.001Z</time></trkpt><trkpt lat="44.26758014875861" lon="11.546953278080336"><ele>246.2</ele><time>2026-05-02T12:08:32.001Z</time></trkpt><trkpt lat="44.26747889903858" lon="11.546998417876582"><ele>248.0</ele><time>2026-05-02T12:08:33.001Z</time></trkpt><trkpt lat="44.26736799344064" lon="11.547014160729793"><ele>250.5</ele><time>2026-05-02T12:08:34.001Z</time></trkpt><trkpt lat="44.26725326106433" lon="11.546978124091597"><ele>253.0</ele><time>2026-05-02T12:08:35.001Z</time></trkpt><trkpt lat="44.267140353601086" lon="11.546914810558855"><ele>255.5</ele><time>2026-05-02T12:08:36.001Z</time></trkpt><trkpt lat="44.26703092288078" lon="11.546837194742935"><ele>258.0</ele><time>2026-05-02T12:08:37.001Z</time></trkpt><trkpt lat="44.266921993266486" lon="11.546751917005533"><ele>258.0</ele><time>2026-05-02T12:08:38.001Z</time></trkpt><trkpt lat="44.26680963505859" lon="11.546670751633396"><ele>258.0</ele><time>2026-05-02T12:08:39.001Z</time></trkpt><trkpt lat="44.26669461893174" lon="11.546590429403448"><ele>258.0</ele><time>2026-05-02T12:08:40.001Z</time></trkpt><trkpt lat="44.266580420350905" lon="11.546513108604895"><ele>258.0</ele><time>2026-05-02T12:08:41.001Z</time></trkpt><trkpt lat="44.26646964845552" lon="11.546445308201744"><ele>259.1666666666667</ele><time>2026-05-02T12:08:42.001Z</time></trkpt><trkpt lat="44.26637898041788" lon="11.546391921837142"><ele>260.3333333333333</ele><time>2026-05-02T12:08:43.001Z</time></trkpt><trkpt lat="44.26629449034855" lon="11.546353635738951"><ele>261.5</ele><time>2026-05-02T12:08:44.001Z</time></trkpt><trkpt lat="44.266217495872404" lon="11.546335446555224"><ele>262.66666666666663</ele><time>2026-05-02T12:08:45.001Z</time></trkpt><trkpt lat="44.26614880534926" lon="11.546332089882883"><ele>263.8333333333333</ele><time>2026-05-02T12:08:46.001Z</time></trkpt><trkpt lat="44.26608120227077" lon="11.546337780138371"><ele>265.0</ele><time>2026-05-02T12:08:47.001Z</time></trkpt><trkpt lat="44.26601433684573" lon="11.546362870413281"><ele>265.0</ele><time>2026-05-02T12:08:48.001Z</time></trkpt><trkpt lat="44.265953341666666" lon="11.546401580555706"><ele>265.0</ele><time>2026-05-02T12:08:49.001Z</time></trkpt><trkpt lat="44.26589200258408" lon="11.546463567067196"><ele>265.0</ele><time>2026-05-02T12:08:50.002Z</time></trkpt><trkpt lat="44.265833196788705" lon="11.54653552962485"><ele>265.0</ele><time>2026-05-02T12:08:51.002Z</time></trkpt><trkpt lat="44.26578088953234" lon="11.546630020561505"><ele>265.0</ele><time>2026-05-02T12:08:52.002Z</time></trkpt><trkpt lat="44.2657358892421" lon="11.546755764271472"><ele>265.0</ele><time>2026-05-02T12:08:53.002Z</time></trkpt><trkpt lat="44.265697319948956" lon="11.54690333105407"><ele>262.75</ele><time>2026-05-02T12:08:54.002Z</time></trkpt><trkpt lat="44.26565915940115" lon="11.547059050260582"><ele>260.5</ele><time>2026-05-02T12:08:55.002Z</time></trkpt><trkpt lat="44.26561640878747" lon="11.54721705073767"><ele>258.25</ele><time>2026-05-02T12:08:56.002Z</time></trkpt><trkpt lat="44.265568401127666" lon="11.547370030040288"><ele>256.0</ele><time>2026-05-02T12:08:57.002Z</time></trkpt><trkpt lat="44.265517464118545" lon="11.547527778551647"><ele>261.0</ele><time>2026-05-02T12:08:58.002Z</time></trkpt><trkpt lat="44.26546720997404" lon="11.547680684561996"><ele>266.0</ele><time>2026-05-02T12:08:59.002Z</time></trkpt><trkpt lat="44.26541753152299" lon="11.547832858626668"><ele>271.0</ele><time>2026-05-02T12:09:00.002Z</time></trkpt><trkpt lat="44.265370485841785" lon="11.547983224086682"><ele>276.0</ele><time>2026-05-02T12:09:01.002Z</time></trkpt><trkpt lat="44.26532664013741" lon="11.548142240239601"><ele>276.0</ele><time>2026-05-02T12:09:02.002Z</time></trkpt><trkpt lat="44.26528403565995" lon="11.548305113337003"><ele>276.0</ele><time>2026-05-02T12:09:03.002Z</time></trkpt><trkpt lat="44.26523245870514" lon="11.548470796551687"><ele>276.0</ele><time>2026-05-02T12:09:04.002Z</time></trkpt><trkpt lat="44.26517634864534" lon="11.548631397449805"><ele>276.0</ele><time>2026-05-02T12:09:05.002Z</time></trkpt><trkpt lat="44.265117235013136" lon="11.548780770700523"><ele>275.0</ele><time>2026-05-02T12:09:06.002Z</time></trkpt><trkpt lat="44.265053300062114" lon="11.548907289736514"><ele>274.0</ele><time>2026-05-02T12:09:07.002Z</time></trkpt><trkpt lat="44.26498085757832" lon="11.549007654127502"><ele>273.0</ele><time>2026-05-02T12:09:08.002Z</time></trkpt><trkpt lat="44.264898345427845" lon="11.549057643027481"><ele>272.0</ele><time>2026-05-02T12:09:09.002Z</time></trkpt><trkpt lat="44.2648119567788" lon="11.549067409151867"><ele>271.0</ele><time>2026-05-02T12:09:10.002Z</time></trkpt><trkpt lat="44.264726795422504" lon="11.549036098537755"><ele>272.40000000000003</ele><time>2026-05-02T12:09:11.002Z</time></trkpt><trkpt lat="44.26465376995039" lon="11.548967326323552"><ele>273.8</ele><time>2026-05-02T12:09:12.002Z</time></trkpt><trkpt lat="44.26460055904468" lon="11.54886744562926"><ele>275.20000000000005</ele><time>2026-05-02T12:09:13.002Z</time></trkpt><trkpt lat="44.26457326632622" lon="11.548738185384273"><ele>276.6</ele><time>2026-05-02T12:09:14.002Z</time></trkpt><trkpt lat="44.264550590667184" lon="11.548598887689321"><ele>278.0</ele><time>2026-05-02T12:09:15.002Z</time></trkpt><trkpt lat="44.26450654876374" lon="11.54847326414429"><ele>278.0</ele><time>2026-05-02T12:09:16.002Z</time></trkpt><trkpt lat="44.26443184801882" lon="11.54837002282926"><ele>278.0</ele><time>2026-05-02T12:09:17.002Z</time></trkpt><trkpt lat="44.26433312711824" lon="11.548296724823388"><ele>278.0</ele><time>2026-05-02T12:09:18.002Z</time></trkpt><trkpt lat="44.264228202839824" lon="11.548253293644692"><ele>278.0</ele><time>2026-05-02T12:09:19.002Z</time></trkpt><trkpt lat="44.26412869314324" lon="11.548219912694337"><ele>278.0</ele><time>2026-05-02T12:09:20.002Z</time></trkpt><trkpt lat="44.26404735630406" lon="11.548164594628457"><ele>278.0</ele><time>2026-05-02T12:09:21.002Z</time></trkpt><trkpt lat="44.26399202841093" lon="11.548068011344753"><ele>278.0</ele><time>2026-05-02T12:09:22.003Z</time></trkpt><trkpt lat="44.263975571164195" lon="11.54794424453278"><ele>278.0</ele><time>2026-05-02T12:09:23.003Z</time></trkpt><trkpt lat="44.263986643746684" lon="11.547811774647696"><ele>278.0</ele><time>2026-05-02T12:09:24.003Z</time></trkpt><trkpt lat="44.26402378031138" lon="11.547671484653721"><ele>278.0</ele><time>2026-05-02T12:09:25.003Z</time></trkpt><trkpt lat="44.264082831989136" lon="11.547534037485802"><ele>280.75</ele><time>2026-05-02T12:09:26.003Z</time></trkpt><trkpt lat="44.26412889792813" lon="11.547381054417427"><ele>283.5</ele><time>2026-05-02T12:09:27.003Z</time></trkpt><trkpt lat="44.26415625260181" lon="11.547210775069564"><ele>286.25</ele><time>2026-05-02T12:09:28.003Z</time></trkpt><trkpt lat="44.26415476564666" lon="11.54702517530604"><ele>289.0</ele><time>2026-05-02T12:09:29.003Z</time></trkpt><trkpt lat="44.26413127172514" lon="11.546837651116395"><ele>289.5</ele><time>2026-05-02T12:09:30.003Z</time></trkpt><trkpt lat="44.26409245118778" lon="11.546645916328536"><ele>290.0</ele><time>2026-05-02T12:09:31.003Z</time></trkpt><trkpt lat="44.26405269036003" lon="11.546447404311117"><ele>290.5</ele><time>2026-05-02T12:09:32.003Z</time></trkpt><trkpt lat="44.26401557350485" lon="11.54624527771907"><ele>291.0</ele><time>2026-05-02T12:09:33.003Z</time></trkpt><trkpt lat="44.2639775071486" lon="11.546038746489954"><ele>292.75</ele><time>2026-05-02T12:09:34.003Z</time></trkpt><trkpt lat="44.2639435611557" lon="11.545840691835673"><ele>294.5</ele><time>2026-05-02T12:09:35.003Z</time></trkpt><trkpt lat="44.2639360036498" lon="11.545666763646484"><ele>296.25</ele><time>2026-05-02T12:09:36.003Z</time></trkpt><trkpt lat="44.26394843531577" lon="11.54550259955146"><ele>298.0</ele><time>2026-05-02T12:09:37.003Z</time></trkpt><trkpt lat="44.263976287498494" lon="11.545334979255134"><ele>299.5</ele><time>2026-05-02T12:09:38.003Z</time></trkpt><trkpt lat="44.26401214592119" lon="11.54515737562922"><ele>301.0</ele><time>2026-05-02T12:09:39.003Z</time></trkpt><trkpt lat="44.264053383893604" lon="11.544965605977978"><ele>302.5</ele><time>2026-05-02T12:09:40.003Z</time></trkpt><trkpt lat="44.264094230675475" lon="11.54477328638339"><ele>304.0</ele><time>2026-05-02T12:09:41.003Z</time></trkpt><trkpt lat="44.26413140132557" lon="11.544582029298871"><ele>306.0</ele><time>2026-05-02T12:09:42.003Z</time></trkpt><trkpt lat="44.26416841872174" lon="11.544407762684774"><ele>308.0</ele><time>2026-05-02T12:09:43.003Z</time></trkpt><trkpt lat="44.264195461744244" lon="11.544251668041836"><ele>310.0</ele><time>2026-05-02T12:09:44.003Z</time></trkpt><trkpt lat="44.264190627970095" lon="11.544098468130406"><ele>312.0</ele><time>2026-05-02T12:09:45.003Z</time></trkpt><trkpt lat="44.264148167322325" lon="11.54394949955633"><ele>312.0</ele><time>2026-05-02T12:09:46.003Z</time></trkpt><trkpt lat="44.2640732038178" lon="11.543823444172387"><ele>312.0</ele><time>2026-05-02T12:09:47.003Z</time></trkpt><trkpt lat="44.2639805714093" lon="11.543732384617806"><ele>312.0</ele><time>2026-05-02T12:09:48.003Z</time></trkpt><trkpt lat="44.26387791446491" lon="11.54368290120092"><ele>312.0</ele><time>2026-05-02T12:09:49.003Z</time></trkpt><trkpt lat="44.26377789926294" lon="11.543658427011833"><ele>312.0</ele><time>2026-05-02T12:09:50.003Z</time></trkpt><trkpt lat="44.26368914523794" lon="11.543662232694695"><ele>312.3333333333333</ele><time>2026-05-02T12:09:50.999Z</time></trkpt><trkpt lat="44.26360562426374" lon="11.543693610210985"><ele>312.6666666666667</ele><time>2026-05-02T12:09:51.999Z</time></trkpt><trkpt lat="44.2635216548974" lon="11.543726884117913"><ele>313.0</ele><time>2026-05-02T12:09:52.999Z</time></trkpt><trkpt lat="44.263431806686164" lon="11.54373133581619"><ele>313.33333333333337</ele><time>2026-05-02T12:09:53.999Z</time></trkpt><trkpt lat="44.26335641566523" lon="11.543687304137304"><ele>313.6666666666667</ele><time>2026-05-02T12:09:54.999Z</time></trkpt><trkpt lat="44.26330374385373" lon="11.543604488774497"><ele>314.0</ele><time>2026-05-02T12:09:55.999Z</time></trkpt><trkpt lat="44.26328745263707" lon="11.543504237295146"><ele>314.0</ele><time>2026-05-02T12:09:56.999Z</time></trkpt><trkpt lat="44.26330937942423" lon="11.543402638364835"><ele>314.0</ele><time>2026-05-02T12:09:57.999Z</time></trkpt><trkpt lat="44.26336380371017" lon="11.543315977015554"><ele>314.0</ele><time>2026-05-02T12:09:58.999Z</time></trkpt><trkpt lat="44.263445385372265" lon="11.543264034135028"><ele>314.0</ele><time>2026-05-02T12:09:59.999Z</time></trkpt><trkpt lat="44.263543990735855" lon="11.543246327505717"><ele>314.0</ele><time>2026-05-02T12:10:00.999Z</time></trkpt><trkpt lat="44.26365067682595" lon="11.543248903276572"><ele>314.0</ele><time>2026-05-02T12:10:02Z</time></trkpt><trkpt lat="44.263756783751184" lon="11.543265140653387"><ele>314.0</ele><time>2026-05-02T12:10:03Z</time></trkpt><trkpt lat="44.26387158684161" lon="11.54327258997547"><ele>314.0</ele><time>2026-05-02T12:10:04Z</time></trkpt><trkpt lat="44.263986485817036" lon="11.543265557390884"><ele>314.0</ele><time>2026-05-02T12:10:05Z</time></trkpt><trkpt lat="44.264102006884414" lon="11.54326637147029"><ele>313.59999999999997</ele><time>2026-05-02T12:10:06Z</time></trkpt><trkpt lat="44.264214876790575" lon="11.543303230945519"><ele>313.2</ele><time>2026-05-02T12:10:07Z</time></trkpt><trkpt lat="44.26431129623846" lon="11.54337290699355"><ele>312.79999999999995</ele><time>2026-05-02T12:10:08Z</time></trkpt><trkpt lat="44.26438297507563" lon="11.543476985539922"><ele>312.4</ele><time>2026-05-02T12:10:09Z</time></trkpt><trkpt lat="44.264444638585935" lon="11.54359641802401"><ele>312.0</ele><time>2026-05-02T12:10:10Z</time></trkpt><trkpt lat="44.26448384094611" lon="11.543727447732381"><ele>312.0</ele><time>2026-05-02T12:10:11Z</time></trkpt><trkpt lat="44.26451483006574" lon="11.54384649021471"><ele>312.0</ele><time>2026-05-02T12:10:12Z</time></trkpt><trkpt lat="44.26454642540252" lon="11.543943421313038"><ele>312.0</ele><time>2026-05-02T12:10:13Z</time></trkpt><trkpt lat="44.26460788641868" lon="11.544015751838925"><ele>312.0</ele><time>2026-05-02T12:10:14Z</time></trkpt><trkpt lat="44.26468305484911" lon="11.544043283157928"><ele>312.0</ele><time>2026-05-02T12:10:15Z</time></trkpt><trkpt lat="44.264764075176515" lon="11.544036563042853"><ele>312.0</ele><time>2026-05-02T12:10:16Z</time></trkpt><trkpt lat="44.26483530172778" lon="11.543975844788037"><ele>313.0</ele><time>2026-05-02T12:10:17Z</time></trkpt><trkpt lat="44.26487472741569" lon="11.54387394608615"><ele>314.0</ele><time>2026-05-02T12:10:18Z</time></trkpt><trkpt lat="44.26488472536673" lon="11.543755741667606"><ele>315.0</ele><time>2026-05-02T12:10:19Z</time></trkpt><trkpt lat="44.26485568985837" lon="11.54362997060999"><ele>316.0</ele><time>2026-05-02T12:10:20Z</time></trkpt><trkpt lat="44.26480512185321" lon="11.54351144632236"><ele>317.0</ele><time>2026-05-02T12:10:21Z</time></trkpt><trkpt lat="44.26473583088267" lon="11.54339997939073"><ele>318.5</ele><time>2026-05-02T12:10:22Z</time></trkpt><trkpt lat="44.26464857064296" lon="11.543284436030861"><ele>320.0</ele><time>2026-05-02T12:10:23Z</time></trkpt><trkpt lat="44.26455600457468" lon="11.54315751889692"><ele>321.5</ele><time>2026-05-02T12:10:24.001Z</time></trkpt><trkpt lat="44.26446264250703" lon="11.54301571742012"><ele>323.0</ele><time>2026-05-02T12:10:25.001Z</time></trkpt><trkpt lat="44.26437118812118" lon="11.542881553359424"><ele>327.5</ele><time>2026-05-02T12:10:26.001Z</time></trkpt><trkpt lat="44.26427969914953" lon="11.542750122949897"><ele>332.0</ele><time>2026-05-02T12:10:27.001Z</time></trkpt><trkpt lat="44.2641646888345" lon="11.542610945009534"><ele>336.5</ele><time>2026-05-02T12:10:28.001Z</time></trkpt><trkpt lat="44.26405121905212" lon="11.542492845808432"><ele>341.0</ele><time>2026-05-02T12:10:29.001Z</time></trkpt><trkpt lat="44.26393472297118" lon="11.542385091857168"><ele>341.0</ele><time>2026-05-02T12:10:30.001Z</time></trkpt><trkpt lat="44.26380987476244" lon="11.542292891878656"><ele>341.0</ele><time>2026-05-02T12:10:31.001Z</time></trkpt><trkpt lat="44.26367845226991" lon="11.542210227891244"><ele>341.0</ele><time>2026-05-02T12:10:32.001Z</time></trkpt><trkpt lat="44.26354689194978" lon="11.54213779543827"><ele>341.0</ele><time>2026-05-02T12:10:33.001Z</time></trkpt><trkpt lat="44.263405928849785" lon="11.542078742667897"><ele>346.25</ele><time>2026-05-02T12:10:34.001Z</time></trkpt><trkpt lat="44.26326572673991" lon="11.542030626542354"><ele>351.5</ele><time>2026-05-02T12:10:35.001Z</time></trkpt><trkpt lat="44.26312474309357" lon="11.541982062034625"><ele>356.75</ele><time>2026-05-02T12:10:36.001Z</time></trkpt><trkpt lat="44.262982231660956" lon="11.541926367980995"><ele>362.0</ele><time>2026-05-02T12:10:37.001Z</time></trkpt><trkpt lat="44.262841980151855" lon="11.541861788357503"><ele>362.0</ele><time>2026-05-02T12:10:38.001Z</time></trkpt><trkpt lat="44.26270391561872" lon="11.541801093935046"><ele>362.0</ele><time>2026-05-02T12:10:39.001Z</time></trkpt><trkpt lat="44.262589394180495" lon="11.54174745709848"><ele>362.0</ele><time>2026-05-02T12:10:40.001Z</time></trkpt><trkpt lat="44.26247416088266" lon="11.541699826813085"><ele>362.0</ele><time>2026-05-02T12:10:41.001Z</time></trkpt><trkpt lat="44.26236721261919" lon="11.54163583820114"><ele>360.20000000000005</ele><time>2026-05-02T12:10:42.001Z</time></trkpt><trkpt lat="44.2622751211428" lon="11.541559745872584"><ele>358.4</ele><time>2026-05-02T12:10:43.001Z</time></trkpt><trkpt lat="44.2622025676324" lon="11.54147294813513"><ele>356.6</ele><time>2026-05-02T12:10:44.001Z</time></trkpt><trkpt lat="44.26214763986955" lon="11.5413628060749"><ele>354.79999999999995</ele><time>2026-05-02T12:10:45.001Z</time></trkpt><trkpt lat="44.262110482051206" lon="11.541227302713432"><ele>353.0</ele><time>2026-05-02T12:10:46.001Z</time></trkpt><trkpt lat="44.262084516350335" lon="11.541075382543568"><ele>353.0</ele><time>2026-05-02T12:10:47.001Z</time></trkpt><trkpt lat="44.262075188750956" lon="11.540915430277273"><ele>353.0</ele><time>2026-05-02T12:10:48.001Z</time></trkpt><trkpt lat="44.262089835893605" lon="11.540761734755726"><ele>353.0</ele><time>2026-05-02T12:10:49.001Z</time></trkpt><trkpt lat="44.26213190172444" lon="11.540624430977555"><ele>353.0</ele><time>2026-05-02T12:10:50.001Z</time></trkpt><trkpt lat="44.262190903194906" lon="11.540505605499536"><ele>353.0</ele><time>2026-05-02T12:10:51.001Z</time></trkpt><trkpt lat="44.262264254955745" lon="11.540411753321383"><ele>353.4</ele><time>2026-05-02T12:10:52.001Z</time></trkpt><trkpt lat="44.262343941502714" lon="11.54032694265678"><ele>353.79999999999995</ele><time>2026-05-02T12:10:53.001Z</time></trkpt><trkpt lat="44.26243979260005" lon="11.540271173092865"><ele>354.2</ele><time>2026-05-02T12:10:54.002Z</time></trkpt><trkpt lat="44.26254449304162" lon="11.540239277931457"><ele>354.6</ele><time>2026-05-02T12:10:55.002Z</time></trkpt><trkpt lat="44.26264868673829" lon="11.540236389458427"><ele>355.0</ele><time>2026-05-02T12:10:56.002Z</time></trkpt><trkpt lat="44.262762594136866" lon="11.540271637803821"><ele>355.0</ele><time>2026-05-02T12:10:57.002Z</time></trkpt><trkpt lat="44.262881474239435" lon="11.540313692228418"><ele>355.0</ele><time>2026-05-02T12:10:58.002Z</time></trkpt><trkpt lat="44.26301284574858" lon="11.540362623814621"><ele>355.0</ele><time>2026-05-02T12:10:59.002Z</time></trkpt><trkpt lat="44.26315309532209" lon="11.5404101568451"><ele>355.0</ele><time>2026-05-02T12:11:00.002Z</time></trkpt><trkpt lat="44.26330181212624" lon="11.540448980715281"><ele>362.0</ele><time>2026-05-02T12:11:01.002Z</time></trkpt><trkpt lat="44.263459833107106" lon="11.540476973726859"><ele>369.0</ele><time>2026-05-02T12:11:02.002Z</time></trkpt><trkpt lat="44.263616473429394" lon="11.540505326197959"><ele>376.0</ele><time>2026-05-02T12:11:03.002Z</time></trkpt><trkpt lat="44.26377467160806" lon="11.540536225052419"><ele>376.0</ele><time>2026-05-02T12:11:04.002Z</time></trkpt><trkpt lat="44.26392462704402" lon="11.540564663423783"><ele>376.0</ele><time>2026-05-02T12:11:05.002Z</time></trkpt><trkpt lat="44.26406181884701" lon="11.540583504144744"><ele>376.0</ele><time>2026-05-02T12:11:06.002Z</time></trkpt><trkpt lat="44.26419115222411" lon="11.540587465584462"><ele>376.0</ele><time>2026-05-02T12:11:07.002Z</time></trkpt><trkpt lat="44.26430690342764" lon="11.540553929483945"><ele>375.5</ele><time>2026-05-02T12:11:08.002Z</time></trkpt><trkpt lat="44.264414226998355" lon="11.540501722036263"><ele>375.0</ele><time>2026-05-02T12:11:09.002Z</time></trkpt><trkpt lat="44.26451475307473" lon="11.540429748086977"><ele>374.5</ele><time>2026-05-02T12:11:10.002Z</time></trkpt><trkpt lat="44.264620653048866" lon="11.540344703590709"><ele>374.0</ele><time>2026-05-02T12:11:11.002Z</time></trkpt><trkpt lat="44.264722990593405" lon="11.54023795990056"><ele>373.5</ele><time>2026-05-02T12:11:12.002Z</time></trkpt><trkpt lat="44.264825376641966" lon="11.540121516528941"><ele>373.0</ele><time>2026-05-02T12:11:13.002Z</time></trkpt><trkpt lat="44.2649302409627" lon="11.540002642433409"><ele>372.5</ele><time>2026-05-02T12:11:14.002Z</time></trkpt><trkpt lat="44.26504086559452" lon="11.539887339267224"><ele>372.0</ele><time>2026-05-02T12:11:15.002Z</time></trkpt><trkpt lat="44.26515629501947" lon="11.539772854669694"><ele>372.0</ele><time>2026-05-02T12:11:16.002Z</time></trkpt><trkpt lat="44.26527514908601" lon="11.539649959356126"><ele>372.0</ele><time>2026-05-02T12:11:17.002Z</time></trkpt><trkpt lat="44.26539680846319" lon="11.539529197345647"><ele>372.0</ele><time>2026-05-02T12:11:18.002Z</time></trkpt><trkpt lat="44.26552039483666" lon="11.539415417215766"><ele>372.0</ele><time>2026-05-02T12:11:19.002Z</time></trkpt><trkpt lat="44.26563157480444" lon="11.539308994184246"><ele>374.25</ele><time>2026-05-02T12:11:20.002Z</time></trkpt><trkpt lat="44.26572899835021" lon="11.539203779270538"><ele>376.5</ele><time>2026-05-02T12:11:21.002Z</time></trkpt><trkpt lat="44.26580029071599" lon="11.539062093982862"><ele>378.75</ele><time>2026-05-02T12:11:22.002Z</time></trkpt><trkpt lat="44.26584637075816" lon="11.538887139954744"><ele>381.0</ele><time>2026-05-02T12:11:23.002Z</time></trkpt><trkpt lat="44.26587900027349" lon="11.538693204404215"><ele>383.33333333333337</ele><time>2026-05-02T12:11:24.002Z</time></trkpt><trkpt lat="44.26591185390081" lon="11.538493230465876"><ele>385.6666666666667</ele><time>2026-05-02T12:11:25.002Z</time></trkpt><trkpt lat="44.26595696065727" lon="11.53829130108723"><ele>388.0</ele><time>2026-05-02T12:11:26.002Z</time></trkpt><trkpt lat="44.2660058472277" lon="11.538080462543627"><ele>391.33333333333337</ele><time>2026-05-02T12:11:27.003Z</time></trkpt><trkpt lat="44.26605453902006" lon="11.537864021091815"><ele>394.66666666666663</ele><time>2026-05-02T12:11:28.003Z</time></trkpt><trkpt lat="44.26610046695244" lon="11.53763968485265"><ele>398.0</ele><time>2026-05-02T12:11:29.003Z</time></trkpt><trkpt lat="44.2661457673086" lon="11.537411639796519"><ele>398.0</ele><time>2026-05-02T12:11:30.003Z</time></trkpt><trkpt lat="44.26619063269021" lon="11.537202156286162"><ele>398.0</ele><time>2026-05-02T12:11:31.003Z</time></trkpt><trkpt lat="44.26623269321095" lon="11.537025439687215"><ele>398.0</ele><time>2026-05-02T12:11:32.003Z</time></trkpt><trkpt lat="44.26629584658829" lon="11.536876330812058"><ele>398.0</ele><time>2026-05-02T12:11:33.003Z</time></trkpt><trkpt lat="44.266379938441055" lon="11.536776173387052"><ele>397.5</ele><time>2026-05-02T12:11:34.003Z</time></trkpt><trkpt lat="44.266477114636736" lon="11.536710019968718"><ele>397.0</ele><time>2026-05-02T12:11:35.003Z</time></trkpt><trkpt lat="44.266587031530875" lon="11.536657073208525"><ele>396.5</ele><time>2026-05-02T12:11:36.003Z</time></trkpt><trkpt lat="44.26671066724428" lon="11.536610435284802"><ele>396.0</ele><time>2026-05-02T12:11:37.003Z</time></trkpt><trkpt lat="44.26684284604149" lon="11.536569662832925"><ele>396.0</ele><time>2026-05-02T12:11:38.003Z</time></trkpt><trkpt lat="44.26698156536894" lon="11.536528534758013"><ele>396.0</ele><time>2026-05-02T12:11:39.003Z</time></trkpt><trkpt lat="44.26712772932098" lon="11.53648743639892"><ele>396.0</ele><time>2026-05-02T12:11:40.003Z</time></trkpt><trkpt lat="44.267281971499685" lon="11.536441024808045"><ele>396.0</ele><time>2026-05-02T12:11:41.003Z</time></trkpt><trkpt lat="44.26744184929963" lon="11.536389710287763"><ele>398.0</ele><time>2026-05-02T12:11:42.003Z</time></trkpt><trkpt lat="44.267597809446045" lon="11.536337495987073"><ele>400.0</ele><time>2026-05-02T12:11:43.003Z</time></trkpt><trkpt lat="44.2677593800636" lon="11.536288405640187"><ele>402.0</ele><time>2026-05-02T12:11:44.003Z</time></trkpt><trkpt lat="44.26792266188033" lon="11.536237289437162"><ele>402.0</ele><time>2026-05-02T12:11:45.003Z</time></trkpt><trkpt lat="44.26808509762497" lon="11.536188607269592"><ele>402.0</ele><time>2026-05-02T12:11:46.003Z</time></trkpt><trkpt lat="44.26824543245738" lon="11.53613081974359"><ele>402.0</ele><time>2026-05-02T12:11:47.003Z</time></trkpt><trkpt lat="44.268397021115064" lon="11.536070301444335"><ele>402.0</ele><time>2026-05-02T12:11:48.003Z</time></trkpt><trkpt lat="44.26853837451172" lon="11.535993385835422"><ele>402.0</ele><time>2026-05-02T12:11:49.003Z</time></trkpt><trkpt lat="44.26867307653993" lon="11.53590176014791"><ele>402.0</ele><time>2026-05-02T12:11:50.003Z</time></trkpt><trkpt lat="44.26879517643874" lon="11.5357920621684"><ele>402.0</ele><time>2026-05-02T12:11:51.003Z</time></trkpt><trkpt lat="44.268917094321836" lon="11.535650029320164"><ele>405.66666666666663</ele><time>2026-05-02T12:11:52.003Z</time></trkpt><trkpt lat="44.26903168645021" lon="11.535486710114084"><ele>409.3333333333333</ele><time>2026-05-02T12:11:53.003Z</time></trkpt><trkpt lat="44.269139194088375" lon="11.535316641119405"><ele>413.0</ele><time>2026-05-02T12:11:54.003Z</time></trkpt><trkpt lat="44.2692445316399" lon="11.535150174512014"><ele>413.0</ele><time>2026-05-02T12:11:55.003Z</time></trkpt><trkpt lat="44.269343315767664" lon="11.535004603188733"><ele>413.0</ele><time>2026-05-02T12:11:56.003Z</time></trkpt><trkpt lat="44.269426400638054" lon="11.534860515337337"><ele>413.0</ele><time>2026-05-02T12:11:56.999Z</time></trkpt><trkpt lat="44.26948426534327" lon="11.534713735044678"><ele>413.0</ele><time>2026-05-02T12:11:57.999Z</time></trkpt><trkpt lat="44.26950895783205" lon="11.534552036588536"><ele>413.5</ele><time>2026-05-02T12:11:58.999Z</time></trkpt><trkpt lat="44.26950759007672" lon="11.534374695968827"><ele>414.0</ele><time>2026-05-02T12:11:59.999Z</time></trkpt><trkpt lat="44.26948471884992" lon="11.53420376811374"><ele>414.5</ele><time>2026-05-02T12:12:00.999Z</time></trkpt><trkpt lat="44.26943826256564" lon="11.534036371220305"><ele>415.0</ele><time>2026-05-02T12:12:01.999Z</time></trkpt><trkpt lat="44.26937114104359" lon="11.53388292628784"><ele>415.0</ele><time>2026-05-02T12:12:02.999Z</time></trkpt><trkpt lat="44.2692872862266" lon="11.533745412851761"><ele>415.0</ele><time>2026-05-02T12:12:03.999Z</time></trkpt><trkpt lat="44.269186524593636" lon="11.533635709039999"><ele>415.0</ele><time>2026-05-02T12:12:05Z</time></trkpt><trkpt lat="44.26909298453969" lon="11.533539548699084"><ele>415.0</ele><time>2026-05-02T12:12:06Z</time></trkpt><trkpt lat="44.26903325797029" lon="11.533432957017302"><ele>417.6</ele><time>2026-05-02T12:12:07Z</time></trkpt><trkpt lat="44.26899843702999" lon="11.533301209470165"><ele>420.2</ele><time>2026-05-02T12:12:08Z</time></trkpt><trkpt lat="44.26898477963286" lon="11.533158272893688"><ele>422.79999999999995</ele><time>2026-05-02T12:12:09Z</time></trkpt><trkpt lat="44.26899529721116" lon="11.533015904915143"><ele>425.4</ele><time>2026-05-02T12:12:10Z</time></trkpt><trkpt lat="44.26903889524587" lon="11.53288102484186"><ele>428.0</ele><time>2026-05-02T12:12:11Z</time></trkpt><trkpt lat="44.269109963468544" lon="11.532760311360871"><ele>428.75</ele><time>2026-05-02T12:12:12Z</time></trkpt><trkpt lat="44.26920273401743" lon="11.532651540362751"><ele>429.5</ele><time>2026-05-02T12:12:13Z</time></trkpt><trkpt lat="44.26930314237846" lon="11.532553102178618"><ele>430.25</ele><time>2026-05-02T12:12:14Z</time></trkpt><trkpt lat="44.269403005077365" lon="11.532463202915968"><ele>431.0</ele><time>2026-05-02T12:12:15Z</time></trkpt><trkpt lat="44.26948684269183" lon="11.532352683338098"><ele>431.0</ele><time>2026-05-02T12:12:16Z</time></trkpt><trkpt lat="44.269540326927405" lon="11.532203443985628"><ele>431.0</ele><time>2026-05-02T12:12:17Z</time></trkpt><trkpt lat="44.26956695727851" lon="11.532038342347164"><ele>431.0</ele><time>2026-05-02T12:12:18Z</time></trkpt><trkpt lat="44.26955283491844" lon="11.531862338208692"><ele>431.0</ele><time>2026-05-02T12:12:19Z</time></trkpt><trkpt lat="44.26951462840365" lon="11.531691695737909"><ele>430.4</ele><time>2026-05-02T12:12:20Z</time></trkpt><trkpt lat="44.269467611359076" lon="11.531542774252188"><ele>429.8</ele><time>2026-05-02T12:12:21Z</time></trkpt><trkpt lat="44.269429812489335" lon="11.531421321822934"><ele>429.19999999999993</ele><time>2026-05-02T12:12:22Z</time></trkpt><trkpt lat="44.26940599583331" lon="11.531312875872404"><ele>428.59999999999997</ele><time>2026-05-02T12:12:23Z</time></trkpt><trkpt lat="44.26940362535578" lon="11.531222382041314"><ele>428.0</ele><time>2026-05-02T12:12:24Z</time></trkpt><trkpt lat="44.26947979370599" lon="11.531089146665344"><ele>427.2</ele><time>2026-05-02T12:12:26Z</time></trkpt><trkpt lat="44.269551705751965" lon="11.531073799402341"><ele>426.4</ele><time>2026-05-02T12:12:27Z</time></trkpt><trkpt lat="44.269626854379396" lon="11.531098040070388"><ele>425.59999999999997</ele><time>2026-05-02T12:12:28Z</time></trkpt><trkpt lat="44.26970789231971" lon="11.531158063738369"><ele>424.79999999999995</ele><time>2026-05-02T12:12:29Z</time></trkpt><trkpt lat="44.26979277542205" lon="11.531232894444017"><ele>424.0</ele><time>2026-05-02T12:12:30.001Z</time></trkpt><trkpt lat="44.26989236882905" lon="11.531301151446735"><ele>430.25</ele><time>2026-05-02T12:12:31.001Z</time></trkpt><trkpt lat="44.27000736718207" lon="11.531338080617282"><ele>436.5</ele><time>2026-05-02T12:12:32.001Z</time></trkpt><trkpt lat="44.27013408916688" lon="11.531326267780157"><ele>442.75</ele><time>2026-05-02T12:12:33.001Z</time></trkpt><trkpt lat="44.2702643927812" lon="11.531315839090768"><ele>449.0</ele><time>2026-05-02T12:12:34.001Z</time></trkpt><trkpt lat="44.27040313027942" lon="11.531305863766207"><ele>449.0</ele><time>2026-05-02T12:12:35.001Z</time></trkpt><trkpt lat="44.27053594597428" lon="11.5313121432809"><ele>449.0</ele><time>2026-05-02T12:12:36.001Z</time></trkpt><trkpt lat="44.27066147826604" lon="11.531336069789765"><ele>449.0</ele><time>2026-05-02T12:12:37.001Z</time></trkpt><trkpt lat="44.27078176468763" lon="11.531378135270375"><ele>449.0</ele><time>2026-05-02T12:12:38.001Z</time></trkpt><trkpt lat="44.27089465018281" lon="11.53144530775143"><ele>449.25</ele><time>2026-05-02T12:12:39.001Z</time></trkpt><trkpt lat="44.270999038437424" lon="11.531532190954902"><ele>449.5</ele><time>2026-05-02T12:12:40.001Z</time></trkpt><trkpt lat="44.2711044366957" lon="11.531626567493138"><ele>449.75</ele><time>2026-05-02T12:12:41.001Z</time></trkpt><trkpt lat="44.27119247225386" lon="11.531718181850778"><ele>450.0</ele><time>2026-05-02T12:12:42.001Z</time></trkpt><trkpt lat="44.27128476002058" lon="11.53180763587031"><ele>450.0</ele><time>2026-05-02T12:12:43.001Z</time></trkpt><trkpt lat="44.271377843098925" lon="11.531902321900324"><ele>450.0</ele><time>2026-05-02T12:12:44.001Z</time></trkpt><trkpt lat="44.271466856791065" lon="11.532001534740875"><ele>450.0</ele><time>2026-05-02T12:12:45.001Z</time></trkpt><trkpt lat="44.27155737142494" lon="11.532095585075803"><ele>450.0</ele><time>2026-05-02T12:12:46.001Z</time></trkpt><trkpt lat="44.27164668920758" lon="11.532186894026877"><ele>448.0</ele><time>2026-05-02T12:12:47.001Z</time></trkpt><trkpt lat="44.27173433184118" lon="11.532277385357991"><ele>446.0</ele><time>2026-05-02T12:12:48.001Z</time></trkpt><trkpt lat="44.271828241343535" lon="11.532349729593275"><ele>444.0</ele><time>2026-05-02T12:12:49.001Z</time></trkpt><trkpt lat="44.271928460955856" lon="11.532407605985474"><ele>442.0</ele><time>2026-05-02T12:12:50.001Z</time></trkpt><trkpt lat="44.2720376118215" lon="11.532440545642425"><ele>440.0</ele><time>2026-05-02T12:12:51.001Z</time></trkpt><trkpt lat="44.27215626398347" lon="11.532458199093293"><ele>438.5</ele><time>2026-05-02T12:12:52.001Z</time></trkpt><trkpt lat="44.27227813816626" lon="11.532456473756413"><ele>437.0</ele><time>2026-05-02T12:12:53.001Z</time></trkpt><trkpt lat="44.27239950392204" lon="11.532415054264865"><ele>435.5</ele><time>2026-05-02T12:12:54.001Z</time></trkpt><trkpt lat="44.27252781720827" lon="11.532321403054771"><ele>434.0</ele><time>2026-05-02T12:12:55.001Z</time></trkpt><trkpt lat="44.27265034031841" lon="11.53221249480205"><ele>434.0</ele><time>2026-05-02T12:12:56.001Z</time></trkpt><trkpt lat="44.272767883661466" lon="11.532093433157321"><ele>434.0</ele><time>2026-05-02T12:12:57.001Z</time></trkpt><trkpt lat="44.27288711457954" lon="11.531964532603878"><ele>434.0</ele><time>2026-05-02T12:12:58.001Z</time></trkpt><trkpt lat="44.27300971068787" lon="11.531833651614706"><ele>432.3333333333333</ele><time>2026-05-02T12:12:59.001Z</time></trkpt><trkpt lat="44.27312882490885" lon="11.531699669276783"><ele>430.66666666666663</ele><time>2026-05-02T12:13:00.002Z</time></trkpt><trkpt lat="44.273248352307945" lon="11.531564536727592"><ele>429.0</ele><time>2026-05-02T12:13:01.002Z</time></trkpt><trkpt lat="44.2733735284846" lon="11.531439897393446"><ele>429.0</ele><time>2026-05-02T12:13:02.002Z</time></trkpt><trkpt lat="44.27350978531504" lon="11.531327234323802"><ele>429.0</ele><time>2026-05-02T12:13:03.002Z</time></trkpt><trkpt lat="44.27365139812834" lon="11.53123329408702"><ele>429.0</ele><time>2026-05-02T12:13:04.002Z</time></trkpt><trkpt lat="44.273790618199804" lon="11.531143446466492"><ele>430.66666666666663</ele><time>2026-05-02T12:13:05.002Z</time></trkpt><trkpt lat="44.27392180192472" lon="11.531033128643944"><ele>432.3333333333333</ele><time>2026-05-02T12:13:06.002Z</time></trkpt><trkpt lat="44.2740431968561" lon="11.53087992422002"><ele>434.0</ele><time>2026-05-02T12:13:07.002Z</time></trkpt><trkpt lat="44.274151301965006" lon="11.530698670890295"><ele>434.0</ele><time>2026-05-02T12:13:08.002Z</time></trkpt><trkpt lat="44.27425586853363" lon="11.530495955205373"><ele>434.0</ele><time>2026-05-02T12:13:09.002Z</time></trkpt><trkpt lat="44.27434297927245" lon="11.530317910428163"><ele>434.0</ele><time>2026-05-02T12:13:10.002Z</time></trkpt><trkpt lat="44.274423686352364" lon="11.530155335084245"><ele>433.75</ele><time>2026-05-02T12:13:11.002Z</time></trkpt><trkpt lat="44.27450563815749" lon="11.53002127433815"><ele>433.5</ele><time>2026-05-02T12:13:12.002Z</time></trkpt><trkpt lat="44.274594551475204" lon="11.529913993896722"><ele>433.25</ele><time>2026-05-02T12:13:13.002Z</time></trkpt><trkpt lat="44.274696037883814" lon="11.529829731547048"><ele>433.0</ele><time>2026-05-02T12:13:14.002Z</time></trkpt><trkpt lat="44.27480958053705" lon="11.529764356948876"><ele>435.25</ele><time>2026-05-02T12:13:15.002Z</time></trkpt><trkpt lat="44.27493945329925" lon="11.529739840389267"><ele>437.5</ele><time>2026-05-02T12:13:16.002Z</time></trkpt><trkpt lat="44.275073016523606" lon="11.529732582193546"><ele>439.75</ele><time>2026-05-02T12:13:17.002Z</time></trkpt><trkpt lat="44.275216561377135" lon="11.5297464814336"><ele>442.0</ele><time>2026-05-02T12:13:18.002Z</time></trkpt><trkpt lat="44.27537228961682" lon="11.529774018992676"><ele>442.0</ele><time>2026-05-02T12:13:19.002Z</time></trkpt><trkpt lat="44.27553524240365" lon="11.529792018303908"><ele>442.0</ele><time>2026-05-02T12:13:20.002Z</time></trkpt><trkpt lat="44.27570240981964" lon="11.52981550683182"><ele>442.0</ele><time>2026-05-02T12:13:21.002Z</time></trkpt><trkpt lat="44.275865994835826" lon="11.529841773522177"><ele>441.33333333333337</ele><time>2026-05-02T12:13:22.002Z</time></trkpt><trkpt lat="44.276019203080416" lon="11.52985714988672"><ele>440.66666666666663</ele><time>2026-05-02T12:13:23.002Z</time></trkpt><trkpt lat="44.27617239908262" lon="11.52987607742807"><ele>440.0</ele><time>2026-05-02T12:13:24.002Z</time></trkpt><trkpt lat="44.276320561663056" lon="11.529898289960709"><ele>441.75</ele><time>2026-05-02T12:13:25.002Z</time></trkpt><trkpt lat="44.27646996479992" lon="11.529915722043517"><ele>443.5</ele><time>2026-05-02T12:13:26.002Z</time></trkpt><trkpt lat="44.27661504776289" lon="11.52993667226776"><ele>445.25</ele><time>2026-05-02T12:13:27.002Z</time></trkpt><trkpt lat="44.276753103993" lon="11.529954910059681"><ele>447.0</ele><time>2026-05-02T12:13:28.002Z</time></trkpt><trkpt lat="44.276885975133965" lon="11.529971844524754"><ele>447.0</ele><time>2026-05-02T12:13:29.002Z</time></trkpt><trkpt lat="44.27700565087761" lon="11.529983411629809"><ele>447.00000000000006</ele><time>2026-05-02T12:13:30.002Z</time></trkpt><trkpt lat="44.27711605384212" lon="11.529978882618494"><ele>447.00000000000006</ele><time>2026-05-02T12:13:31.002Z</time></trkpt><trkpt lat="44.27721060331074" lon="11.52993812537156"><ele>447.0</ele><time>2026-05-02T12:13:32.002Z</time></trkpt><trkpt lat="44.27729069246126" lon="11.529863728300233"><ele>447.0</ele><time>2026-05-02T12:13:33.003Z</time></trkpt><trkpt lat="44.27735612859235" lon="11.52974916628473"><ele>448.20000000000005</ele><time>2026-05-02T12:13:34.003Z</time></trkpt><trkpt lat="44.277396916645415" lon="11.529607875156275"><ele>449.40000000000003</ele><time>2026-05-02T12:13:35.003Z</time></trkpt><trkpt lat="44.27742939294657" lon="11.5294732031611"><ele>450.59999999999997</ele><time>2026-05-02T12:13:36.003Z</time></trkpt><trkpt lat="44.27746793834608" lon="11.529344628767683"><ele>451.79999999999995</ele><time>2026-05-02T12:13:37.003Z</time></trkpt><trkpt lat="44.27752439282615" lon="11.529219298059768"><ele>453.0</ele><time>2026-05-02T12:13:38.003Z</time></trkpt><trkpt lat="44.27759787081897" lon="11.529109178154874"><ele>453.0</ele><time>2026-05-02T12:13:39.003Z</time></trkpt><trkpt lat="44.27769069577247" lon="11.529022383336535"><ele>453.0</ele><time>2026-05-02T12:13:40.003Z</time></trkpt><trkpt lat="44.27779940710507" lon="11.528953100727431"><ele>453.0</ele><time>2026-05-02T12:13:41.003Z</time></trkpt><trkpt lat="44.27791302025951" lon="11.528874513649772"><ele>453.0</ele><time>2026-05-02T12:13:42.003Z</time></trkpt><trkpt lat="44.27801245837592" lon="11.528761239422844"><ele>453.75</ele><time>2026-05-02T12:13:43.003Z</time></trkpt><trkpt lat="44.27809234857184" lon="11.528629248370452"><ele>454.5</ele><time>2026-05-02T12:13:44.003Z</time></trkpt><trkpt lat="44.27816808033377" lon="11.528499049650152"><ele>455.25</ele><time>2026-05-02T12:13:45.003Z</time></trkpt><trkpt lat="44.278246962867875" lon="11.528380438736102"><ele>456.0</ele><time>2026-05-02T12:13:46.003Z</time></trkpt><trkpt lat="44.278327537357015" lon="11.528274202775261"><ele>456.0</ele><time>2026-05-02T12:13:47.003Z</time></trkpt><trkpt lat="44.278422381431035" lon="11.528170490452556"><ele>456.0</ele><time>2026-05-02T12:13:48.003Z</time></trkpt><trkpt lat="44.278530969781905" lon="11.52807691301683"><ele>456.0</ele><time>2026-05-02T12:13:49.003Z</time></trkpt><trkpt lat="44.278646031327" lon="11.527999825793172"><ele>456.0</ele><time>2026-05-02T12:13:50.003Z</time></trkpt><trkpt lat="44.27876202954897" lon="11.527941327827337"><ele>453.0</ele><time>2026-05-02T12:13:51.003Z</time></trkpt><trkpt lat="44.27887541709914" lon="11.52788852122054"><ele>450.0</ele><time>2026-05-02T12:13:52.003Z</time></trkpt><trkpt lat="44.27898080550738" lon="11.527836100447484"><ele>447.0</ele><time>2026-05-02T12:13:53.003Z</time></trkpt><trkpt lat="44.27907679190759" lon="11.527776070186869"><ele>444.0</ele><time>2026-05-02T12:13:54.003Z</time></trkpt><trkpt lat="44.27916355595674" lon="11.527707045102607"><ele>441.0</ele><time>2026-05-02T12:13:55.003Z</time></trkpt><trkpt lat="44.27924228611546" lon="11.52762542871928"><ele>441.0</ele><time>2026-05-02T12:13:56.003Z</time></trkpt><trkpt lat="44.27931127670995" lon="11.527522622300863"><ele>441.0</ele><time>2026-05-02T12:13:57.003Z</time></trkpt><trkpt lat="44.279373931868825" lon="11.527412284525232"><ele>441.0</ele><time>2026-05-02T12:13:58.003Z</time></trkpt><trkpt lat="44.27944038793238" lon="11.527308627336136"><ele>441.0</ele><time>2026-05-02T12:13:59.003Z</time></trkpt><trkpt lat="44.27951163413987" lon="11.527214903679598"><ele>441.0</ele><time>2026-05-02T12:14:00.003Z</time></trkpt><trkpt lat="44.27958784249495" lon="11.527125793190866"><ele>439.4</ele><time>2026-05-02T12:14:01.003Z</time></trkpt><trkpt lat="44.279668449995086" lon="11.527044259006162"><ele>437.8</ele><time>2026-05-02T12:14:02.003Z</time></trkpt><trkpt lat="44.279751864638754" lon="11.526967359673833"><ele>436.19999999999993</ele><time>2026-05-02T12:14:02.999Z</time></trkpt><trkpt lat="44.27983504103669" lon="11.526888657353835"><ele>434.59999999999997</ele><time>2026-05-02T12:14:03.999Z</time></trkpt><trkpt lat="44.27991501317268" lon="11.526802682736724"><ele>433.0</ele><time>2026-05-02T12:14:04.999Z</time></trkpt><trkpt lat="44.27998616811772" lon="11.526704186135188"><ele>433.0</ele><time>2026-05-02T12:14:05.999Z</time></trkpt><trkpt lat="44.280046394174" lon="11.526592756580934"><ele>432.99999999999994</ele><time>2026-05-02T12:14:06.999Z</time></trkpt><trkpt lat="44.2800968694886" lon="11.526472067479595"><ele>432.99999999999994</ele><time>2026-05-02T12:14:07.999Z</time></trkpt><trkpt lat="44.280143226532665" lon="11.526351538326711"><ele>433.0</ele><time>2026-05-02T12:14:08.999Z</time></trkpt><trkpt lat="44.28018783900565" lon="11.526228866941299"><ele>433.0</ele><time>2026-05-02T12:14:09.999Z</time></trkpt><trkpt lat="44.280222917470205" lon="11.526119396851211"><ele>431.2</ele><time>2026-05-02T12:14:11Z</time></trkpt><trkpt lat="44.280272368761764" lon="11.526006360822253"><ele>429.4</ele><time>2026-05-02T12:14:13Z</time></trkpt><trkpt lat="44.28032104626593" lon="11.52594985353574"><ele>427.59999999999997</ele><time>2026-05-02T12:14:48.001Z</time></trkpt><trkpt lat="44.28033626640416" lon="11.525809187099334"><ele>425.79999999999995</ele><time>2026-05-02T12:14:51.001Z</time></trkpt><trkpt lat="44.28031165344732" lon="11.525641995242406"><ele>424.0</ele><time>2026-05-02T12:14:53.001Z</time></trkpt><trkpt lat="44.28032500599659" lon="11.525545050480153"><ele>424.1666666666667</ele><time>2026-05-02T12:14:54.001Z</time></trkpt><trkpt lat="44.280353627283276" lon="11.525373566532075"><ele>424.33333333333337</ele><time>2026-05-02T12:14:56.001Z</time></trkpt><trkpt lat="44.2803685402619" lon="11.525281011271344"><ele>424.5</ele><time>2026-05-02T12:14:57.001Z</time></trkpt><trkpt lat="44.28038706012859" lon="11.525184799043373"><ele>424.66666666666663</ele><time>2026-05-02T12:14:58.001Z</time></trkpt><trkpt lat="44.280410372011545" lon="11.52507776773254"><ele>424.8333333333333</ele><time>2026-05-02T12:14:59.001Z</time></trkpt><trkpt lat="44.28044030441143" lon="11.524955317927168"><ele>425.0</ele><time>2026-05-02T12:15:00.001Z</time></trkpt><trkpt lat="44.280478017895156" lon="11.524828033580635"><ele>425.0</ele><time>2026-05-02T12:15:01.001Z</time></trkpt><trkpt lat="44.28052817814264" lon="11.524692122253112"><ele>425.0</ele><time>2026-05-02T12:15:02.001Z</time></trkpt><trkpt lat="44.28058833689316" lon="11.524550050314549"><ele>425.0</ele><time>2026-05-02T12:15:03.001Z</time></trkpt><trkpt lat="44.2806495371769" lon="11.524414073967696"><ele>425.0</ele><time>2026-05-02T12:15:04.001Z</time></trkpt><trkpt lat="44.28071037459487" lon="11.524267782519793"><ele>427.25</ele><time>2026-05-02T12:15:05.001Z</time></trkpt><trkpt lat="44.28077590018206" lon="11.524119124419869"><ele>429.5</ele><time>2026-05-02T12:15:06.002Z</time></trkpt><trkpt lat="44.28084670912453" lon="11.523974336610017"><ele>431.75</ele><time>2026-05-02T12:15:07.002Z</time></trkpt><trkpt lat="44.28091739595234" lon="11.523834126633961"><ele>434.0</ele><time>2026-05-02T12:15:08.002Z</time></trkpt><trkpt lat="44.280983189908575" lon="11.523691591544711"><ele>436.0</ele><time>2026-05-02T12:15:09.002Z</time></trkpt><trkpt lat="44.28104462910476" lon="11.523544118972175"><ele>438.0</ele><time>2026-05-02T12:15:10.002Z</time></trkpt><trkpt lat="44.281102175783154" lon="11.523395042436789"><ele>440.0</ele><time>2026-05-02T12:15:11.002Z</time></trkpt><trkpt lat="44.281153720288096" lon="11.523237896702497"><ele>442.0</ele><time>2026-05-02T12:15:12.002Z</time></trkpt><trkpt lat="44.28119886819745" lon="11.523068697738827"><ele>443.75</ele><time>2026-05-02T12:15:13.002Z</time></trkpt><trkpt lat="44.28123256014475" lon="11.522888057529348"><ele>445.5</ele><time>2026-05-02T12:15:14.002Z</time></trkpt><trkpt lat="44.281262446695365" lon="11.522700116850608"><ele>447.25</ele><time>2026-05-02T12:15:15.002Z</time></trkpt><trkpt lat="44.28129567977465" lon="11.522506840695465"><ele>449.0</ele><time>2026-05-02T12:15:16.002Z</time></trkpt><trkpt lat="44.28133498501933" lon="11.522316405714633"><ele>449.0</ele><time>2026-05-02T12:15:17.002Z</time></trkpt><trkpt lat="44.28137214871878" lon="11.522128784818387"><ele>449.0</ele><time>2026-05-02T12:15:18.002Z</time></trkpt><trkpt lat="44.28140869049243" lon="11.521943707646223"><ele>449.0</ele><time>2026-05-02T12:15:19.002Z</time></trkpt><trkpt lat="44.281443698820276" lon="11.521758455026314"><ele>449.0</ele><time>2026-05-02T12:15:20.002Z</time></trkpt><trkpt lat="44.28147548189069" lon="11.521577524079952"><ele>445.5</ele><time>2026-05-02T12:15:21.002Z</time></trkpt><trkpt lat="44.281510180589144" lon="11.521394074602147"><ele>442.0</ele><time>2026-05-02T12:15:22.002Z</time></trkpt><trkpt lat="44.28154057039226" lon="11.521212930489451"><ele>438.5</ele><time>2026-05-02T12:15:23.002Z</time></trkpt><trkpt lat="44.281567033901545" lon="11.52103230555728"><ele>435.0</ele><time>2026-05-02T12:15:24.002Z</time></trkpt><trkpt lat="44.281591537639045" lon="11.520852197387098"><ele>435.0</ele><time>2026-05-02T12:15:25.002Z</time></trkpt><trkpt lat="44.28160499161066" lon="11.520666662827825"><ele>435.0</ele><time>2026-05-02T12:15:26.002Z</time></trkpt><trkpt lat="44.28160710095277" lon="11.520472936016821"><ele>435.0</ele><time>2026-05-02T12:15:27.002Z</time></trkpt><trkpt lat="44.281602387113296" lon="11.520277421470484"><ele>435.0</ele><time>2026-05-02T12:15:28.002Z</time></trkpt><trkpt lat="44.28159045645076" lon="11.520085387836543"><ele>434.75</ele><time>2026-05-02T12:15:29.002Z</time></trkpt><trkpt lat="44.28156680927727" lon="11.519900833177337"><ele>434.5</ele><time>2026-05-02T12:15:30.002Z</time></trkpt><trkpt lat="44.28154305038608" lon="11.519711435716099"><ele>434.25</ele><time>2026-05-02T12:15:31.002Z</time></trkpt><trkpt lat="44.28152120060545" lon="11.519518236231784"><ele>434.0</ele><time>2026-05-02T12:15:32.002Z</time></trkpt><trkpt lat="44.281502482043045" lon="11.51932486459924"><ele>434.75</ele><time>2026-05-02T12:15:33.002Z</time></trkpt><trkpt lat="44.28148345070752" lon="11.519126942499458"><ele>435.5</ele><time>2026-05-02T12:15:34.002Z</time></trkpt><trkpt lat="44.28146456293077" lon="11.518938644704944"><ele>436.25</ele><time>2026-05-02T12:15:35.002Z</time></trkpt><trkpt lat="44.28144749175624" lon="11.518758445662172"><ele>437.0</ele><time>2026-05-02T12:15:36.002Z</time></trkpt><trkpt lat="44.28143142066951" lon="11.518582436484515"><ele>438.5</ele><time>2026-05-02T12:15:37.002Z</time></trkpt><trkpt lat="44.28141566337704" lon="11.51841579655884"><ele>440.0</ele><time>2026-05-02T12:15:38.002Z</time></trkpt><trkpt lat="44.2813981792545" lon="11.518259972791958"><ele>441.5</ele><time>2026-05-02T12:15:39.002Z</time></trkpt><trkpt lat="44.28138551159991" lon="11.518105070923172"><ele>443.0</ele><time>2026-05-02T12:15:40.003Z</time></trkpt><trkpt lat="44.28137132010381" lon="11.517958532125418"><ele>442.2</ele><time>2026-05-02T12:15:41.003Z</time></trkpt><trkpt lat="44.281347589837296" lon="11.517822103414364"><ele>441.4</ele><time>2026-05-02T12:15:42.003Z</time></trkpt><trkpt lat="44.28131220798784" lon="11.51768623696111"><ele>440.59999999999997</ele><time>2026-05-02T12:15:43.003Z</time></trkpt><trkpt lat="44.281258910218284" lon="11.517553356450538"><ele>439.79999999999995</ele><time>2026-05-02T12:15:44.003Z</time></trkpt><trkpt lat="44.28118680688815" lon="11.517440135890139"><ele>439.0</ele><time>2026-05-02T12:15:45.003Z</time></trkpt><trkpt lat="44.2810925837122" lon="11.517338789426208"><ele>439.0</ele><time>2026-05-02T12:15:46.003Z</time></trkpt><trkpt lat="44.280977622106896" lon="11.51725515918273"><ele>439.0</ele><time>2026-05-02T12:15:47.003Z</time></trkpt><trkpt lat="44.280859836636154" lon="11.517167987781411"><ele>439.0</ele><time>2026-05-02T12:15:48.003Z</time></trkpt><trkpt lat="44.28073442223597" lon="11.517072926382163"><ele>439.0</ele><time>2026-05-02T12:15:49.003Z</time></trkpt><trkpt lat="44.280613500743186" lon="11.516976013323886"><ele>436.25</ele><time>2026-05-02T12:15:50.003Z</time></trkpt><trkpt lat="44.28050157903206" lon="11.516880335973992"><ele>433.5</ele><time>2026-05-02T12:15:51.003Z</time></trkpt><trkpt lat="44.28039307221708" lon="11.51679186731257"><ele>430.75</ele><time>2026-05-02T12:15:52.003Z</time></trkpt><trkpt lat="44.28028632918269" lon="11.516707073690803"><ele>428.0</ele><time>2026-05-02T12:15:53.003Z</time></trkpt><trkpt lat="44.28018622919098" lon="11.516626149228355"><ele>428.0</ele><time>2026-05-02T12:15:54.003Z</time></trkpt><trkpt lat="44.28008745529306" lon="11.51654557784771"><ele>428.0</ele><time>2026-05-02T12:15:55.003Z</time></trkpt><trkpt lat="44.279982074159236" lon="11.516471503730656"><ele>428.0</ele><time>2026-05-02T12:15:56.003Z</time></trkpt><trkpt lat="44.279859514225244" lon="11.516428321442447"><ele>428.0</ele><time>2026-05-02T12:15:57.003Z</time></trkpt><trkpt lat="44.279725323146856" lon="11.516421122526081"><ele>426.25</ele><time>2026-05-02T12:15:58.003Z</time></trkpt><trkpt lat="44.27958892306843" lon="11.516434403263425"><ele>424.5</ele><time>2026-05-02T12:15:59.003Z</time></trkpt><trkpt lat="44.27944458137722" lon="11.516452473917019"><ele>422.75</ele><time>2026-05-02T12:16:00.003Z</time></trkpt><trkpt lat="44.279305622679765" lon="11.516466675053747"><ele>421.0</ele><time>2026-05-02T12:16:01.003Z</time></trkpt><trkpt lat="44.27916551288357" lon="11.516475227779479"><ele>421.0</ele><time>2026-05-02T12:16:02.003Z</time></trkpt><trkpt lat="44.27902442509054" lon="11.516482233985998"><ele>421.0</ele><time>2026-05-02T12:16:03.003Z</time></trkpt><trkpt lat="44.27888444528973" lon="11.516488166859189"><ele>421.0</ele><time>2026-05-02T12:16:04.003Z</time></trkpt><trkpt lat="44.27874278775721" lon="11.51648850951577"><ele>421.0</ele><time>2026-05-02T12:16:05.003Z</time></trkpt><trkpt lat="44.278600512614645" lon="11.516478439159956"><ele>421.25</ele><time>2026-05-02T12:16:06.003Z</time></trkpt><trkpt lat="44.27845690466839" lon="11.51645371341911"><ele>421.5</ele><time>2026-05-02T12:16:07.003Z</time></trkpt><trkpt lat="44.27831079468611" lon="11.516403477498367"><ele>421.75</ele><time>2026-05-02T12:16:08.003Z</time></trkpt><trkpt lat="44.278167303904475" lon="11.516332896284776"><ele>422.0</ele><time>2026-05-02T12:16:08.999Z</time></trkpt><trkpt lat="44.27802366586304" lon="11.516254352049184"><ele>425.5</ele><time>2026-05-02T12:16:09.999Z</time></trkpt><trkpt lat="44.27789233389862" lon="11.51617134607725"><ele>429.0</ele><time>2026-05-02T12:16:10.999Z</time></trkpt><trkpt lat="44.277765462744746" lon="11.516071557796304"><ele>432.5</ele><time>2026-05-02T12:16:11.999Z</time></trkpt><trkpt lat="44.277649696151364" lon="11.515955003790534"><ele>436.0</ele><time>2026-05-02T12:16:12.999Z</time></trkpt><trkpt lat="44.27753971643354" lon="11.515844424875926"><ele>436.0</ele><time>2026-05-02T12:16:13.999Z</time></trkpt><trkpt lat="44.27742640842885" lon="11.51574453301397"><ele>436.0</ele><time>2026-05-02T12:16:14.999Z</time></trkpt><trkpt lat="44.27731605418036" lon="11.515650465143835"><ele>436.0</ele><time>2026-05-02T12:16:15.999Z</time></trkpt><trkpt lat="44.27721486094481" lon="11.515568581676709"><ele>436.0</ele><time>2026-05-02T12:16:16.999Z</time></trkpt><trkpt lat="44.277129529672735" lon="11.51551258928232"><ele>435.8</ele><time>2026-05-02T12:16:17.999Z</time></trkpt><trkpt lat="44.277044724030915" lon="11.515463370109888"><ele>435.6</ele><time>2026-05-02T12:16:18.999Z</time></trkpt><trkpt lat="44.27694613688997" lon="11.515399826624996"><ele>435.4</ele><time>2026-05-02T12:16:19.999Z</time></trkpt><trkpt lat="44.27686172813313" lon="11.515307301853861"><ele>435.2</ele><time>2026-05-02T12:16:20.999Z</time></trkpt><trkpt lat="44.276778809229086" lon="11.51519724514515"><ele>435.0</ele><time>2026-05-02T12:16:21.999Z</time></trkpt><trkpt lat="44.276699702125924" lon="11.515072777855178"><ele>437.25</ele><time>2026-05-02T12:16:22.999Z</time></trkpt><trkpt lat="44.27661862762707" lon="11.51493189597832"><ele>439.5</ele><time>2026-05-02T12:16:24Z</time></trkpt><trkpt lat="44.276533398854134" lon="11.5147718769565"><ele>441.75</ele><time>2026-05-02T12:16:25Z</time></trkpt><trkpt lat="44.27644505820461" lon="11.514593635846689"><ele>444.0</ele><time>2026-05-02T12:16:26Z</time></trkpt><trkpt lat="44.27636398158523" lon="11.514398119653235"><ele>444.66666666666663</ele><time>2026-05-02T12:16:27Z</time></trkpt><trkpt lat="44.276297687581895" lon="11.514193606339273"><ele>445.3333333333333</ele><time>2026-05-02T12:16:28Z</time></trkpt><trkpt lat="44.27624268416769" lon="11.513984732330911"><ele>446.0</ele><time>2026-05-02T12:16:29Z</time></trkpt><trkpt lat="44.27618472134161" lon="11.513779674493875"><ele>450.0</ele><time>2026-05-02T12:16:30Z</time></trkpt><trkpt lat="44.27612444072248" lon="11.513586272126743"><ele>454.0</ele><time>2026-05-02T12:16:31Z</time></trkpt><trkpt lat="44.276064923308724" lon="11.513390719520533"><ele>458.0</ele><time>2026-05-02T12:16:32Z</time></trkpt><trkpt lat="44.27600375041369" lon="11.51322085770414"><ele>462.0</ele><time>2026-05-02T12:16:33Z</time></trkpt><trkpt lat="44.27594349015719" lon="11.513073361614836"><ele>462.0</ele><time>2026-05-02T12:16:34Z</time></trkpt><trkpt lat="44.27589391703304" lon="11.512961074423913"><ele>462.0</ele><time>2026-05-02T12:16:35Z</time></trkpt><trkpt lat="44.275838014161515" lon="11.51287131923057"><ele>462.0</ele><time>2026-05-02T12:16:37Z</time></trkpt><trkpt lat="44.27579608094407" lon="11.512801853378408"><ele>462.0</ele><time>2026-05-02T12:17:05.001Z</time></trkpt><trkpt lat="44.27572895924995" lon="11.512798538440297"><ele>462.0</ele><time>2026-05-02T12:17:07.001Z</time></trkpt><trkpt lat="44.27564171877613" lon="11.512760035523394"><ele>462.0</ele><time>2026-05-02T12:17:09.001Z</time></trkpt><trkpt lat="44.27559176437015" lon="11.512703950646145"><ele>461.40000000000003</ele><time>2026-05-02T12:17:10.001Z</time></trkpt><trkpt lat="44.275542776787994" lon="11.512623933427715"><ele>460.80000000000007</ele><time>2026-05-02T12:17:11.001Z</time></trkpt><trkpt lat="44.27548550159022" lon="11.512526015327454"><ele>460.2</ele><time>2026-05-02T12:17:12.001Z</time></trkpt><trkpt lat="44.275419668018294" lon="11.512403753313652"><ele>459.6</ele><time>2026-05-02T12:17:13.002Z</time></trkpt><trkpt lat="44.275353501969136" lon="11.512274767970633"><ele>459.0</ele><time>2026-05-02T12:17:14.002Z</time></trkpt><trkpt lat="44.27528309684765" lon="11.512134130370113"><ele>459.5</ele><time>2026-05-02T12:17:15.002Z</time></trkpt><trkpt lat="44.275209352938006" lon="11.511996863778743"><ele>460.0</ele><time>2026-05-02T12:17:16.002Z</time></trkpt><trkpt lat="44.27513401155108" lon="11.511859917227794"><ele>460.5</ele><time>2026-05-02T12:17:17.002Z</time></trkpt><trkpt lat="44.27506042832734" lon="11.511724011934358"><ele>461.0</ele><time>2026-05-02T12:17:18.002Z</time></trkpt><trkpt lat="44.274986936374574" lon="11.511585999553553"><ele>461.0</ele><time>2026-05-02T12:17:19.002Z</time></trkpt><trkpt lat="44.27490864096772" lon="11.51144580548819"><ele>461.0</ele><time>2026-05-02T12:17:20.002Z</time></trkpt><trkpt lat="44.274828276880164" lon="11.511299859819118"><ele>461.0</ele><time>2026-05-02T12:17:21.002Z</time></trkpt><trkpt lat="44.274746308407316" lon="11.511148744532512"><ele>461.0</ele><time>2026-05-02T12:17:22.002Z</time></trkpt><trkpt lat="44.27466149866856" lon="11.510993216224895"><ele>462.5</ele><time>2026-05-02T12:17:23.002Z</time></trkpt><trkpt lat="44.27457468463877" lon="11.510833803696935"><ele>464.0</ele><time>2026-05-02T12:17:24.002Z</time></trkpt><trkpt lat="44.274486685915306" lon="11.510674242224967"><ele>465.5</ele><time>2026-05-02T12:17:25.002Z</time></trkpt><trkpt lat="44.274399169031774" lon="11.510522218633595"><ele>467.0</ele><time>2026-05-02T12:17:26.002Z</time></trkpt><trkpt lat="44.274315806123994" lon="11.51037578767971"><ele>467.75</ele><time>2026-05-02T12:17:27.002Z</time></trkpt><trkpt lat="44.27424091854219" lon="11.510232394956265"><ele>468.5</ele><time>2026-05-02T12:17:28.002Z</time></trkpt><trkpt lat="44.27417441455361" lon="11.510091501227231"><ele>469.25</ele><time>2026-05-02T12:17:29.002Z</time></trkpt><trkpt lat="44.27411517796653" lon="11.509947589438044"><ele>470.0</ele><time>2026-05-02T12:17:30.002Z</time></trkpt><trkpt lat="44.274060990370195" lon="11.509804514922239"><ele>470.0</ele><time>2026-05-02T12:17:31.002Z</time></trkpt><trkpt lat="44.27401064433887" lon="11.50966865259338"><ele>470.0</ele><time>2026-05-02T12:17:32.002Z</time></trkpt><trkpt lat="44.27396100166359" lon="11.509537026595432"><ele>470.0</ele><time>2026-05-02T12:17:33.002Z</time></trkpt><trkpt lat="44.27391381691908" lon="11.509408168308457"><ele>470.0</ele><time>2026-05-02T12:17:34.002Z</time></trkpt><trkpt lat="44.2738743306632" lon="11.509276548874238"><ele>470.0</ele><time>2026-05-02T12:17:35.002Z</time></trkpt><trkpt lat="44.27384128663125" lon="11.509140440626373"><ele>471.0</ele><time>2026-05-02T12:17:36.002Z</time></trkpt><trkpt lat="44.273808215713856" lon="11.509001494069526"><ele>472.0</ele><time>2026-05-02T12:17:37.002Z</time></trkpt><trkpt lat="44.27376827606205" lon="11.50886887700176"><ele>473.0</ele><time>2026-05-02T12:17:38.002Z</time></trkpt><trkpt lat="44.273713859869886" lon="11.508753389118239"><ele>474.0</ele><time>2026-05-02T12:17:39.002Z</time></trkpt><trkpt lat="44.273645488402124" lon="11.508661672407909"><ele>475.0</ele><time>2026-05-02T12:17:40.002Z</time></trkpt><trkpt lat="44.27357929694" lon="11.508562574569435"><ele>477.6</ele><time>2026-05-02T12:17:41.002Z</time></trkpt><trkpt lat="44.273531278713264" lon="11.508446980626783"><ele>480.2</ele><time>2026-05-02T12:17:42.002Z</time></trkpt><trkpt lat="44.27348978597959" lon="11.508321000260212"><ele>482.79999999999995</ele><time>2026-05-02T12:17:43.002Z</time></trkpt><trkpt lat="44.27344366076282" lon="11.508194516087613"><ele>485.4</ele><time>2026-05-02T12:17:44.002Z</time></trkpt><trkpt lat="44.27339082788343" lon="11.508067143305858"><ele>488.0</ele><time>2026-05-02T12:17:45.003Z</time></trkpt><trkpt lat="44.27334203944499" lon="11.507943637507802"><ele>487.8571428571428</ele><time>2026-05-02T12:17:46.003Z</time></trkpt><trkpt lat="44.27331243640595" lon="11.507831717009921"><ele>487.71428571428567</ele><time>2026-05-02T12:17:47.003Z</time></trkpt><trkpt lat="44.27328670440584" lon="11.507735436004298"><ele>487.57142857142856</ele><time>2026-05-02T12:17:48.003Z</time></trkpt><trkpt lat="44.27325017796689" lon="11.507660231396741"><ele>487.4285714285714</ele><time>2026-05-02T12:17:49.003Z</time></trkpt><trkpt lat="44.273196411216446" lon="11.507613131367172"><ele>487.2857142857142</ele><time>2026-05-02T12:17:50.003Z</time></trkpt><trkpt lat="44.27312821259248" lon="11.507603844155467"><ele>487.14285714285717</ele><time>2026-05-02T12:17:51.003Z</time></trkpt><trkpt lat="44.27304829390568" lon="11.50761781370404"><ele>487.0</ele><time>2026-05-02T12:17:52.003Z</time></trkpt><trkpt lat="44.27297125246723" lon="11.5076443995695"><ele>487.6</ele><time>2026-05-02T12:17:53.003Z</time></trkpt><trkpt lat="44.27288880847745" lon="11.507652647872566"><ele>488.20000000000005</ele><time>2026-05-02T12:17:54.003Z</time></trkpt><trkpt lat="44.272805575833345" lon="11.507623689600388"><ele>488.8</ele><time>2026-05-02T12:17:55.003Z</time></trkpt><trkpt lat="44.27272699257422" lon="11.507553997922502"><ele>489.4</ele><time>2026-05-02T12:17:56.003Z</time></trkpt><trkpt lat="44.27265896909676" lon="11.507460320768264"><ele>490.0</ele><time>2026-05-02T12:17:57.003Z</time></trkpt><trkpt lat="44.27260991084791" lon="11.507336064167824"><ele>490.0</ele><time>2026-05-02T12:17:58.003Z</time></trkpt><trkpt lat="44.2725667568523" lon="11.50719909210319"><ele>490.0</ele><time>2026-05-02T12:17:59.003Z</time></trkpt><trkpt lat="44.27252742389396" lon="11.507056876326127"><ele>490.0</ele><time>2026-05-02T12:18:00.003Z</time></trkpt><trkpt lat="44.272491528042686" lon="11.506913231017096"><ele>490.0</ele><time>2026-05-02T12:18:01.003Z</time></trkpt><trkpt lat="44.272456694687165" lon="11.506781624409918"><ele>490.0</ele><time>2026-05-02T12:18:02.003Z</time></trkpt><trkpt lat="44.27241416624727" lon="11.506660347270207"><ele>489.1666666666667</ele><time>2026-05-02T12:18:03.003Z</time></trkpt><trkpt lat="44.272364619605476" lon="11.506549599896088"><ele>488.33333333333337</ele><time>2026-05-02T12:18:04.003Z</time></trkpt><trkpt lat="44.2723138765661" lon="11.50644980302623"><ele>487.5</ele><time>2026-05-02T12:18:05.003Z</time></trkpt><trkpt lat="44.27226455229986" lon="11.506365194213563"><ele>486.66666666666663</ele><time>2026-05-02T12:18:06.003Z</time></trkpt><trkpt lat="44.27222099124177" lon="11.506288699799812"><ele>485.8333333333333</ele><time>2026-05-02T12:18:07.003Z</time></trkpt><trkpt lat="44.272178449021126" lon="11.506216916448555"><ele>485.0</ele><time>2026-05-02T12:18:08.003Z</time></trkpt><trkpt lat="44.272130386162885" lon="11.506159620215897"><ele>482.8333333333333</ele><time>2026-05-02T12:18:09.003Z</time></trkpt><trkpt lat="44.27207959811394" lon="11.506106618470978"><ele>480.66666666666663</ele><time>2026-05-02T12:18:10.003Z</time></trkpt><trkpt lat="44.27200769839574" lon="11.50607459566738"><ele>478.5</ele><time>2026-05-02T12:18:11.003Z</time></trkpt><trkpt lat="44.27192499260048" lon="11.506076526348116"><ele>476.33333333333337</ele><time>2026-05-02T12:18:12.003Z</time></trkpt><trkpt lat="44.271840033375504" lon="11.506104935002416"><ele>474.1666666666667</ele><time>2026-05-02T12:18:13.003Z</time></trkpt><trkpt lat="44.27175261645716" lon="11.506148521619323"><ele>472.0</ele><time>2026-05-02T12:18:14.003Z</time></trkpt><trkpt lat="44.27165473745291" lon="11.50619238348189"><ele>472.0</ele><time>2026-05-02T12:18:15Z</time></trkpt><trkpt lat="44.27155507115158" lon="11.506224964815797"><ele>472.00000000000006</ele><time>2026-05-02T12:18:16Z</time></trkpt><trkpt lat="44.271456749663415" lon="11.506240833407139"><ele>472.00000000000006</ele><time>2026-05-02T12:18:17Z</time></trkpt><trkpt lat="44.271367780581556" lon="11.50624842587348"><ele>472.0</ele><time>2026-05-02T12:18:18Z</time></trkpt><trkpt lat="44.271282138223576" lon="11.50625674893599"><ele>472.0</ele><time>2026-05-02T12:18:19Z</time></trkpt><trkpt lat="44.271202064094126" lon="11.506268491623084"><ele>471.83333333333337</ele><time>2026-05-02T12:18:20Z</time></trkpt><trkpt lat="44.27113282287756" lon="11.506279057521683"><ele>471.6666666666667</ele><time>2026-05-02T12:18:21Z</time></trkpt><trkpt lat="44.27101992103211" lon="11.50623020915325"><ele>471.5</ele><time>2026-05-02T12:18:23Z</time></trkpt><trkpt lat="44.27098239177656" lon="11.506153141534524"><ele>471.33333333333337</ele><time>2026-05-02T12:18:24Z</time></trkpt><trkpt lat="44.270965530934355" lon="11.506052101279176"><ele>471.1666666666667</ele><time>2026-05-02T12:18:25Z</time></trkpt><trkpt lat="44.27095452059121" lon="11.505950702755824"><ele>471.0</ele><time>2026-05-02T12:18:26Z</time></trkpt><trkpt lat="44.27093966420953" lon="11.505856388859996"><ele>471.0</ele><time>2026-05-02T12:18:27Z</time></trkpt><trkpt lat="44.27091387552347" lon="11.505762913161867"><ele>471.0</ele><time>2026-05-02T12:18:28Z</time></trkpt><trkpt lat="44.27087280282882" lon="11.50568101462703"><ele>471.0</ele><time>2026-05-02T12:18:29Z</time></trkpt><trkpt lat="44.27081562965732" lon="11.505618269935246"><ele>471.0</ele><time>2026-05-02T12:18:30Z</time></trkpt><trkpt lat="44.27074038434754" lon="11.505580410008932"><ele>471.0</ele><time>2026-05-02T12:18:31Z</time></trkpt><trkpt lat="44.270648681516164" lon="11.50555699285808"><ele>471.0</ele><time>2026-05-02T12:18:32Z</time></trkpt><trkpt lat="44.27055219718231" lon="11.505542669721185"><ele>470.20000000000005</ele><time>2026-05-02T12:18:33Z</time></trkpt><trkpt lat="44.270454655960265" lon="11.505517236254553"><ele>469.40000000000003</ele><time>2026-05-02T12:18:34Z</time></trkpt><trkpt lat="44.27035590231052" lon="11.5054793445689"><ele>468.6</ele><time>2026-05-02T12:18:35Z</time></trkpt><trkpt lat="44.270256354201415" lon="11.505426154677295"><ele>467.8</ele><time>2026-05-02T12:18:36Z</time></trkpt><trkpt lat="44.27015606596018" lon="11.505356452461788"><ele>467.0</ele><time>2026-05-02T12:18:37Z</time></trkpt><trkpt lat="44.27006305650988" lon="11.505276356727421"><ele>467.0</ele><time>2026-05-02T12:18:38Z</time></trkpt><trkpt lat="44.26997107933143" lon="11.505181532866466"><ele>467.0</ele><time>2026-05-02T12:18:39Z</time></trkpt><trkpt lat="44.26988477752247" lon="11.505070159026173"><ele>467.0</ele><time>2026-05-02T12:18:40Z</time></trkpt><trkpt lat="44.26980561325956" lon="11.50494800907058"><ele>467.0</ele><time>2026-05-02T12:18:41Z</time></trkpt><trkpt lat="44.269728671503145" lon="11.504828128872132"><ele>466.8333333333333</ele><time>2026-05-02T12:18:42Z</time></trkpt><trkpt lat="44.26965356073031" lon="11.504720121635193"><ele>466.66666666666663</ele><time>2026-05-02T12:18:43Z</time></trkpt><trkpt lat="44.26958087633223" lon="11.504624057064449"><ele>466.5</ele><time>2026-05-02T12:18:44Z</time></trkpt><trkpt lat="44.269523014042164" lon="11.504545229656399"><ele>466.33333333333337</ele><time>2026-05-02T12:18:45Z</time></trkpt><trkpt lat="44.269464359144735" lon="11.504484396871769"><ele>466.1666666666667</ele><time>2026-05-02T12:18:46Z</time></trkpt><trkpt lat="44.26939183370224" lon="11.504446616084865"><ele>466.0</ele><time>2026-05-02T12:18:47Z</time></trkpt><trkpt lat="44.26930790382786" lon="11.50443287421716"><ele>466.0</ele><time>2026-05-02T12:18:48.001Z</time></trkpt><trkpt lat="44.26921932985865" lon="11.504459153952235"><ele>466.0</ele><time>2026-05-02T12:18:49.001Z</time></trkpt><trkpt lat="44.269130708111454" lon="11.504502465477835"><ele>466.0</ele><time>2026-05-02T12:18:50.001Z</time></trkpt><trkpt lat="44.26904271309164" lon="11.504553839579144"><ele>466.0</ele><time>2026-05-02T12:18:51.001Z</time></trkpt><trkpt lat="44.26894797455088" lon="11.50459029762705"><ele>466.0</ele><time>2026-05-02T12:18:52.001Z</time></trkpt><trkpt lat="44.268846737661384" lon="11.504611727291724"><ele>465.6</ele><time>2026-05-02T12:18:53.001Z</time></trkpt><trkpt lat="44.26874384688798" lon="11.50461697539598"><ele>465.20000000000005</ele><time>2026-05-02T12:18:54.001Z</time></trkpt><trkpt lat="44.26864145931293" lon="11.504596778652173"><ele>464.79999999999995</ele><time>2026-05-02T12:18:55.001Z</time></trkpt><trkpt lat="44.268538993051166" lon="11.504543176970008"><ele>464.4</ele><time>2026-05-02T12:18:56.001Z</time></trkpt><trkpt lat="44.26844847061831" lon="11.504466199404678"><ele>464.0</ele><time>2026-05-02T12:18:57.001Z</time></trkpt><trkpt lat="44.26836368824063" lon="11.504374595181334"><ele>464.0</ele><time>2026-05-02T12:18:58.001Z</time></trkpt><trkpt lat="44.268284006274286" lon="11.504270405739385"><ele>464.0</ele><time>2026-05-02T12:18:59.001Z</time></trkpt><trkpt lat="44.2682139619518" lon="11.504152741631902"><ele>464.0</ele><time>2026-05-02T12:19:00.001Z</time></trkpt><trkpt lat="44.26814888058111" lon="11.5040290662691"><ele>464.0</ele><time>2026-05-02T12:19:01.001Z</time></trkpt><trkpt lat="44.268086974599484" lon="11.50390493579552"><ele>464.0</ele><time>2026-05-02T12:19:02.001Z</time></trkpt><trkpt lat="44.26802244352301" lon="11.503796109085854"><ele>463.2</ele><time>2026-05-02T12:19:03.001Z</time></trkpt><trkpt lat="44.267952652382576" lon="11.503704150906588"><ele>462.4</ele><time>2026-05-02T12:19:04.001Z</time></trkpt><trkpt lat="44.26787274222446" lon="11.503617790658467"><ele>461.6</ele><time>2026-05-02T12:19:05.001Z</time></trkpt><trkpt lat="44.26778741786233" lon="11.503544070509305"><ele>460.8</ele><time>2026-05-02T12:19:06.001Z</time></trkpt><trkpt lat="44.26770277092344" lon="11.503473396657506"><ele>460.0</ele><time>2026-05-02T12:19:07.001Z</time></trkpt><trkpt lat="44.26761816343764" lon="11.50340235374982"><ele>460.0</ele><time>2026-05-02T12:19:08.001Z</time></trkpt><trkpt lat="44.26753787265925" lon="11.503330559054389"><ele>460.0</ele><time>2026-05-02T12:19:09.001Z</time></trkpt><trkpt lat="44.26746035959001" lon="11.50326233786458"><ele>460.0</ele><time>2026-05-02T12:19:10.001Z</time></trkpt><trkpt lat="44.267386795129944" lon="11.503200193295196"><ele>460.0</ele><time>2026-05-02T12:19:11.001Z</time></trkpt><trkpt lat="44.26731006949932" lon="11.503140444776502"><ele>460.0</ele><time>2026-05-02T12:19:12.001Z</time></trkpt><trkpt lat="44.26722738177004" lon="11.503078512839652"><ele>459.83333333333337</ele><time>2026-05-02T12:19:13.001Z</time></trkpt><trkpt lat="44.26715391900894" lon="11.50301290518596"><ele>459.6666666666667</ele><time>2026-05-02T12:19:14.001Z</time></trkpt><trkpt lat="44.26709117958545" lon="11.502949292525068"><ele>459.5</ele><time>2026-05-02T12:19:15.001Z</time></trkpt><trkpt lat="44.267039182874235" lon="11.502820554449025"><ele>459.33333333333337</ele><time>2026-05-02T12:19:17.001Z</time></trkpt><trkpt lat="44.26706986394582" lon="11.502679125062604"><ele>459.1666666666667</ele><time>2026-05-02T12:19:19.001Z</time></trkpt><trkpt lat="44.26710850070334" lon="11.50260772088175"><ele>459.0</ele><time>2026-05-02T12:19:20.002Z</time></trkpt><trkpt lat="44.267154378614286" lon="11.502537986087098"><ele>459.0</ele><time>2026-05-02T12:19:21.002Z</time></trkpt><trkpt lat="44.26720372438677" lon="11.50246343758092"><ele>459.0</ele><time>2026-05-02T12:19:22.002Z</time></trkpt><trkpt lat="44.267263176702976" lon="11.502383003426669"><ele>459.0</ele><time>2026-05-02T12:19:23.002Z</time></trkpt><trkpt lat="44.26733314543999" lon="11.502302820813435"><ele>459.0</ele><time>2026-05-02T12:19:24.002Z</time></trkpt><trkpt lat="44.26741349630689" lon="11.502226575985135"><ele>459.0</ele><time>2026-05-02T12:19:25.002Z</time></trkpt><trkpt lat="44.26750302051146" lon="11.502157146570436"><ele>459.0</ele><time>2026-05-02T12:19:26.002Z</time></trkpt><trkpt lat="44.26758939903236" lon="11.502080517213773"><ele>456.5</ele><time>2026-05-02T12:19:27.002Z</time></trkpt><trkpt lat="44.267663125645406" lon="11.501999708469699"><ele>454.0</ele><time>2026-05-02T12:19:28.002Z</time></trkpt><trkpt lat="44.26772217304569" lon="11.501913011544872"><ele>451.5</ele><time>2026-05-02T12:19:29.002Z</time></trkpt><trkpt lat="44.26776725604002" lon="11.501826854614153"><ele>449.0</ele><time>2026-05-02T12:19:30.002Z</time></trkpt><trkpt lat="44.267812961030664" lon="11.501740109206182"><ele>446.5</ele><time>2026-05-02T12:19:31.002Z</time></trkpt><trkpt lat="44.26786084686593" lon="11.50166140496056"><ele>444.0</ele><time>2026-05-02T12:19:32.002Z</time></trkpt><trkpt lat="44.267907078182326" lon="11.501599232548465"><ele>444.0</ele><time>2026-05-02T12:19:33.003Z</time></trkpt><trkpt lat="44.267962164386745" lon="11.501553752871821"><ele>444.0</ele><time>2026-05-02T12:19:34.002Z</time></trkpt><trkpt lat="44.268068432503284" lon="11.501510177422412"><ele>444.0</ele><time>2026-05-02T12:19:36.002Z</time></trkpt><trkpt lat="44.268194362964266" lon="11.501534254395724"><ele>444.0</ele><time>2026-05-02T12:19:38.002Z</time></trkpt><trkpt lat="44.26826598432296" lon="11.501554316301302"><ele>444.0</ele><time>2026-05-02T12:19:39.002Z</time></trkpt><trkpt lat="44.26834028503061" lon="11.50155530631943"><ele>444.0</ele><time>2026-05-02T12:19:40.002Z</time></trkpt><trkpt lat="44.268409360837694" lon="11.501530055407072"><ele>443.2857142857143</ele><time>2026-05-02T12:19:41.002Z</time></trkpt><trkpt lat="44.26846429686722" lon="11.501480054178558"><ele>442.5714285714286</ele><time>2026-05-02T12:19:42.002Z</time></trkpt><trkpt lat="44.26850163975705" lon="11.501405804544396"><ele>441.8571428571429</ele><time>2026-05-02T12:19:43.002Z</time></trkpt><trkpt lat="44.26851493282264" lon="11.5013121689841"><ele>441.1428571428571</ele><time>2026-05-02T12:19:44.002Z</time></trkpt><trkpt lat="44.268498370086306" lon="11.501208571041438"><ele>440.42857142857144</ele><time>2026-05-02T12:19:45.002Z</time></trkpt><trkpt lat="44.268462741310294" lon="11.501118521062295"><ele>439.7142857142857</ele><time>2026-05-02T12:19:46.002Z</time></trkpt><trkpt lat="44.26842883166923" lon="11.501021326527603"><ele>439.0</ele><time>2026-05-02T12:19:47.002Z</time></trkpt><trkpt lat="44.26839308397651" lon="11.500922546176277"><ele>437.33333333333337</ele><time>2026-05-02T12:19:48.002Z</time></trkpt><trkpt lat="44.26836053762673" lon="11.500818520031565"><ele>435.6666666666667</ele><time>2026-05-02T12:19:49.002Z</time></trkpt><trkpt lat="44.26833434195621" lon="11.50071471100999"><ele>434.0</ele><time>2026-05-02T12:19:50.002Z</time></trkpt><trkpt lat="44.26831130455317" lon="11.500613122309531"><ele>432.33333333333337</ele><time>2026-05-02T12:19:51.002Z</time></trkpt><trkpt lat="44.268294366248476" lon="11.500507465052033"><ele>430.6666666666667</ele><time>2026-05-02T12:19:52.002Z</time></trkpt><trkpt lat="44.2682915706682" lon="11.500398654033434"><ele>429.0</ele><time>2026-05-02T12:19:53.003Z</time></trkpt><trkpt lat="44.26830689644349" lon="11.500296402583821"><ele>427.6666666666667</ele><time>2026-05-02T12:19:54.003Z</time></trkpt><trkpt lat="44.26832603635503" lon="11.500187904329138"><ele>426.33333333333337</ele><time>2026-05-02T12:19:55.003Z</time></trkpt><trkpt lat="44.26834959736115" lon="11.500076757720217"><ele>425.0</ele><time>2026-05-02T12:19:56.003Z</time></trkpt><trkpt lat="44.268372963012276" lon="11.499963180940295"><ele>423.6666666666667</ele><time>2026-05-02T12:19:57.003Z</time></trkpt><trkpt lat="44.26839878117685" lon="11.49985228158506"><ele>422.33333333333337</ele><time>2026-05-02T12:19:58.003Z</time></trkpt><trkpt lat="44.26842135254326" lon="11.499748248218326"><ele>421.0</ele><time>2026-05-02T12:19:59.003Z</time></trkpt><trkpt lat="44.26844164377983" lon="11.499652738222736"><ele>420.1666666666667</ele><time>2026-05-02T12:20:00.003Z</time></trkpt><trkpt lat="44.26847190316709" lon="11.499500480839421"><ele>419.33333333333337</ele><time>2026-05-02T12:20:02.003Z</time></trkpt><trkpt lat="44.268488622162174" lon="11.499364181078988"><ele>418.5</ele><time>2026-05-02T12:20:04.003Z</time></trkpt><trkpt lat="44.268496636412586" lon="11.499266358843583"><ele>417.66666666666663</ele><time>2026-05-02T12:20:06.003Z</time></trkpt><trkpt lat="44.26848777190344" lon="11.499151497281668"><ele>416.8333333333333</ele><time>2026-05-02T12:20:08.003Z</time></trkpt><trkpt lat="44.26843118934746" lon="11.499070180755586"><ele>416.0</ele><time>2026-05-02T12:20:10.003Z</time></trkpt><trkpt lat="44.26839309183173" lon="11.49899084549602"><ele>416.0</ele><time>2026-05-02T12:20:13.003Z</time></trkpt><trkpt lat="44.26843997258342" lon="11.498926026461788"><ele>416.0</ele><time>2026-05-02T12:20:16.003Z</time></trkpt><trkpt lat="44.26852273305018" lon="11.498978520739493"><ele>416.0</ele><time>2026-05-02T12:20:19.003Z</time></trkpt><trkpt lat="44.268609044507706" lon="11.499015050628678"><ele>416.0</ele><time>2026-05-02T12:20:21Z</time></trkpt><trkpt lat="44.26873078049523" lon="11.49906571583235"><ele>416.0</ele><time>2026-05-02T12:20:23Z</time></trkpt><trkpt lat="44.26880218447251" lon="11.499106757407912"><ele>415.99999999999994</ele><time>2026-05-02T12:20:24Z</time></trkpt><trkpt lat="44.26887554045012" lon="11.499139048761142"><ele>416.0</ele><time>2026-05-02T12:20:25Z</time></trkpt><trkpt lat="44.26895051043624" lon="11.499165060525177"><ele>416.0</ele><time>2026-05-02T12:20:26Z</time></trkpt><trkpt lat="44.26900587969793" lon="11.499210151729677"><ele>416.0</ele><time>2026-05-02T12:20:27Z</time></trkpt><trkpt lat="44.26907046634388" lon="11.499286026901986"><ele>415.99999999999994</ele><time>2026-05-02T12:20:28Z</time></trkpt><trkpt lat="44.26913389994569" lon="11.499374311613401"><ele>416.0</ele><time>2026-05-02T12:20:29Z</time></trkpt><trkpt lat="44.269192224007156" lon="11.499476630816522"><ele>415.99999999999994</ele><time>2026-05-02T12:20:30Z</time></trkpt><trkpt lat="44.26924868195712" lon="11.499570483754178"><ele>416.0</ele><time>2026-05-02T12:20:31Z</time></trkpt><trkpt lat="44.26931020777015" lon="11.499652920447444"><ele>416.0</ele><time>2026-05-02T12:20:32Z</time></trkpt><trkpt lat="44.26937787062371" lon="11.499720324100245"><ele>416.0</ele><time>2026-05-02T12:20:33Z</time></trkpt><trkpt lat="44.26944407756578" lon="11.499786226294596"><ele>415.99999999999994</ele><time>2026-05-02T12:20:34Z</time></trkpt><trkpt lat="44.26950947582985" lon="11.499831927841205"><ele>416.0</ele><time>2026-05-02T12:20:35Z</time></trkpt><trkpt lat="44.26957125102807" lon="11.499877656296253"><ele>416.0</ele><time>2026-05-02T12:20:36Z</time></trkpt><trkpt lat="44.26967650601463" lon="11.499927329425365"><ele>416.0</ele><time>2026-05-02T12:20:38Z</time></trkpt><trkpt lat="44.26974336323831" lon="11.499867720269814"><ele>416.0</ele><time>2026-05-02T12:20:40Z</time></trkpt><trkpt lat="44.2697476166284" lon="11.499741602514742"><ele>416.0</ele><time>2026-05-02T12:20:42Z</time></trkpt><trkpt lat="44.269698859063894" lon="11.499598844924101"><ele>416.0</ele><time>2026-05-02T12:20:44Z</time></trkpt><trkpt lat="44.26967263321175" lon="11.499496134714954"><ele>414.20000000000005</ele><time>2026-05-02T12:20:45Z</time></trkpt><trkpt lat="44.269644486099956" lon="11.499382414729578"><ele>412.40000000000003</ele><time>2026-05-02T12:20:46Z</time></trkpt><trkpt lat="44.26961121222159" lon="11.499259199460825"><ele>410.6</ele><time>2026-05-02T12:20:47Z</time></trkpt><trkpt lat="44.26956434192947" lon="11.499139666981192"><ele>408.8</ele><time>2026-05-02T12:20:48Z</time></trkpt><trkpt lat="44.26950315118939" lon="11.499025621933459"><ele>407.0</ele><time>2026-05-02T12:20:49Z</time></trkpt><trkpt lat="44.26942401356409" lon="11.49892340750465"><ele>407.0</ele><time>2026-05-02T12:20:50Z</time></trkpt><trkpt lat="44.26933496209058" lon="11.498822160713729"><ele>407.0</ele><time>2026-05-02T12:20:51Z</time></trkpt><trkpt lat="44.26925072029201" lon="11.498713650807568"><ele>407.0</ele><time>2026-05-02T12:20:52.001Z</time></trkpt><trkpt lat="44.269160979518425" lon="11.498600820255916"><ele>407.0</ele><time>2026-05-02T12:20:53.001Z</time></trkpt><trkpt lat="44.2690695465321" lon="11.49849874906984"><ele>406.25</ele><time>2026-05-02T12:20:54.001Z</time></trkpt><trkpt lat="44.26897684776017" lon="11.498382953058265"><ele>405.5</ele><time>2026-05-02T12:20:55.001Z</time></trkpt><trkpt lat="44.26888797964407" lon="11.49827351244654"><ele>404.75</ele><time>2026-05-02T12:20:56.001Z</time></trkpt><trkpt lat="44.268795321781795" lon="11.498161501092307"><ele>404.0</ele><time>2026-05-02T12:20:57.001Z</time></trkpt><trkpt lat="44.26869557206491" lon="11.498049473505947"><ele>404.0</ele><time>2026-05-02T12:20:58.001Z</time></trkpt><trkpt lat="44.26859307091539" lon="11.49793237654952"><ele>404.0</ele><time>2026-05-02T12:20:59.001Z</time></trkpt><trkpt lat="44.268487103966955" lon="11.49780963366679"><ele>404.0</ele><time>2026-05-02T12:21:00.001Z</time></trkpt><trkpt lat="44.26838010638429" lon="11.497683921368507"><ele>404.0</ele><time>2026-05-02T12:21:01.001Z</time></trkpt><trkpt lat="44.26826786667659" lon="11.497555719201712"><ele>400.0</ele><time>2026-05-02T12:21:02.001Z</time></trkpt><trkpt lat="44.26815559177622" lon="11.497428022540038"><ele>396.0</ele><time>2026-05-02T12:21:03.001Z</time></trkpt><trkpt lat="44.26804422153757" lon="11.497303398282908"><ele>392.0</ele><time>2026-05-02T12:21:04.001Z</time></trkpt><trkpt lat="44.267940355598114" lon="11.497172117537703"><ele>388.0</ele><time>2026-05-02T12:21:05.001Z</time></trkpt><trkpt lat="44.26783947142066" lon="11.49704107434023"><ele>385.5</ele><time>2026-05-02T12:21:06.001Z</time></trkpt><trkpt lat="44.267739047775635" lon="11.496915159347692"><ele>383.0</ele><time>2026-05-02T12:21:07.001Z</time></trkpt><trkpt lat="44.26763964439134" lon="11.496791561718021"><ele>380.5</ele><time>2026-05-02T12:21:08.001Z</time></trkpt><trkpt lat="44.2675435355655" lon="11.496668384351143"><ele>378.0</ele><time>2026-05-02T12:21:09.001Z</time></trkpt><trkpt lat="44.267445728188164" lon="11.496553450108292"><ele>378.0</ele><time>2026-05-02T12:21:10.001Z</time></trkpt><trkpt lat="44.26734190739457" lon="11.496454814658202"><ele>378.0</ele><time>2026-05-02T12:21:11.001Z</time></trkpt><trkpt lat="44.26723490822627" lon="11.496378297788597"><ele>378.0</ele><time>2026-05-02T12:21:12.001Z</time></trkpt><trkpt lat="44.26712266757114" lon="11.496330693086707"><ele>378.0</ele><time>2026-05-02T12:21:13.001Z</time></trkpt><trkpt lat="44.26701145077952" lon="11.496312539442958"><ele>378.79999999999995</ele><time>2026-05-02T12:21:14.001Z</time></trkpt><trkpt lat="44.26689784627575" lon="11.496334341949238"><ele>379.6</ele><time>2026-05-02T12:21:15.001Z</time></trkpt><trkpt lat="44.26678829025081" lon="11.496369005731358"><ele>380.4</ele><time>2026-05-02T12:21:16.001Z</time></trkpt><trkpt lat="44.26668027415514" lon="11.496397936630014"><ele>381.20000000000005</ele><time>2026-05-02T12:21:17.001Z</time></trkpt><trkpt lat="44.26657701744984" lon="11.496405324529738"><ele>382.0</ele><time>2026-05-02T12:21:18.001Z</time></trkpt><trkpt lat="44.26648358126104" lon="11.496388768063863"><ele>382.8333333333333</ele><time>2026-05-02T12:21:19.001Z</time></trkpt><trkpt lat="44.26640048827075" lon="11.496342994350051"><ele>383.66666666666663</ele><time>2026-05-02T12:21:20.001Z</time></trkpt><trkpt lat="44.266335928701075" lon="11.496273847436878"><ele>384.5</ele><time>2026-05-02T12:21:21.001Z</time></trkpt><trkpt lat="44.266295606326835" lon="11.49617874884031"><ele>385.3333333333333</ele><time>2026-05-02T12:21:22.001Z</time></trkpt><trkpt lat="44.26628007787773" lon="11.49606657463277"><ele>386.1666666666667</ele><time>2026-05-02T12:21:23.001Z</time></trkpt><trkpt lat="44.26628253930515" lon="11.495954436118783"><ele>387.0</ele><time>2026-05-02T12:21:24.002Z</time></trkpt><trkpt lat="44.26631850805335" lon="11.495848858648479"><ele>384.0</ele><time>2026-05-02T12:21:25.002Z</time></trkpt><trkpt lat="44.26637627239459" lon="11.495752064075713"><ele>381.0</ele><time>2026-05-02T12:21:26.002Z</time></trkpt><trkpt lat="44.266457433727034" lon="11.495664774898275"><ele>378.0</ele><time>2026-05-02T12:21:27.002Z</time></trkpt><trkpt lat="44.266562937575486" lon="11.495582280087977"><ele>375.0</ele><time>2026-05-02T12:21:28.002Z</time></trkpt><trkpt lat="44.2666768216556" lon="11.495499213490763"><ele>372.0</ele><time>2026-05-02T12:21:29.002Z</time></trkpt><trkpt lat="44.26679255278398" lon="11.495410381756118"><ele>368.0</ele><time>2026-05-02T12:21:30.002Z</time></trkpt><trkpt lat="44.26690001387882" lon="11.495314420844634"><ele>364.0</ele><time>2026-05-02T12:21:31.002Z</time></trkpt><trkpt lat="44.26700216244283" lon="11.495216699088141"><ele>360.0</ele><time>2026-05-02T12:21:32.002Z</time></trkpt><trkpt lat="44.267106305708865" lon="11.495120363263743"><ele>356.0</ele><time>2026-05-02T12:21:33.002Z</time></trkpt><trkpt lat="44.26721276752204" lon="11.495026893981029"><ele>357.5</ele><time>2026-05-02T12:21:34.002Z</time></trkpt><trkpt lat="44.26732646543753" lon="11.49493266772894"><ele>359.0</ele><time>2026-05-02T12:21:35.002Z</time></trkpt><trkpt lat="44.267438214947504" lon="11.49483322841192"><ele>360.5</ele><time>2026-05-02T12:21:36.002Z</time></trkpt><trkpt lat="44.26754997086291" lon="11.494727542360408"><ele>362.0</ele><time>2026-05-02T12:21:37.002Z</time></trkpt><trkpt lat="44.26766208452535" lon="11.494628603247136"><ele>360.5</ele><time>2026-05-02T12:21:38.002Z</time></trkpt><trkpt lat="44.26777613037122" lon="11.494528742204784"><ele>359.0</ele><time>2026-05-02T12:21:39.002Z</time></trkpt><trkpt lat="44.26789341738477" lon="11.494424007842"><ele>357.5</ele><time>2026-05-02T12:21:40.002Z</time></trkpt><trkpt lat="44.26800492248545" lon="11.494319956207725"><ele>356.0</ele><time>2026-05-02T12:21:41.002Z</time></trkpt><trkpt lat="44.268114173232824" lon="11.494214540544363"><ele>356.0</ele><time>2026-05-02T12:21:42.002Z</time></trkpt><trkpt lat="44.26821841051642" lon="11.494115756539237"><ele>356.0</ele><time>2026-05-02T12:21:43.002Z</time></trkpt><trkpt lat="44.26832115759873" lon="11.494019292391878"><ele>356.0</ele><time>2026-05-02T12:21:44.002Z</time></trkpt><trkpt lat="44.26842719205682" lon="11.493921660934642"><ele>356.0</ele><time>2026-05-02T12:21:45.002Z</time></trkpt><trkpt lat="44.268531735466546" lon="11.493828738230778"><ele>357.25</ele><time>2026-05-02T12:21:46.002Z</time></trkpt><trkpt lat="44.26863230201546" lon="11.493736290709364"><ele>358.5</ele><time>2026-05-02T12:21:47.002Z</time></trkpt><trkpt lat="44.26873427205306" lon="11.493639553556838"><ele>359.75</ele><time>2026-05-02T12:21:48.002Z</time></trkpt><trkpt lat="44.268836360751465" lon="11.493548839994814"><ele>361.0</ele><time>2026-05-02T12:21:49.002Z</time></trkpt><trkpt lat="44.268949711998324" lon="11.493472592261007"><ele>361.75</ele><time>2026-05-02T12:21:50.002Z</time></trkpt><trkpt lat="44.26906506525189" lon="11.49342721508878"><ele>362.5</ele><time>2026-05-02T12:21:51.002Z</time></trkpt><trkpt lat="44.26918932966356" lon="11.493427123630733"><ele>363.25</ele><time>2026-05-02T12:21:52.002Z</time></trkpt><trkpt lat="44.269313126587875" lon="11.49345940328796"><ele>364.0</ele><time>2026-05-02T12:21:53.002Z</time></trkpt><trkpt lat="44.269431585539124" lon="11.493510954168922"><ele>364.0</ele><time>2026-05-02T12:21:54.002Z</time></trkpt><trkpt lat="44.269543142217685" lon="11.493583911669868"><ele>364.0</ele><time>2026-05-02T12:21:55.002Z</time></trkpt><trkpt lat="44.269645856145814" lon="11.493671935079513"><ele>364.0</ele><time>2026-05-02T12:21:56.002Z</time></trkpt><trkpt lat="44.26974037585623" lon="11.493746581803089"><ele>364.0</ele><time>2026-05-02T12:21:57.003Z</time></trkpt><trkpt lat="44.269829832996905" lon="11.493788253678813"><ele>364.0</ele><time>2026-05-02T12:21:58.003Z</time></trkpt><trkpt lat="44.26991194699385" lon="11.49378105961558"><ele>365.79999999999995</ele><time>2026-05-02T12:21:59.003Z</time></trkpt><trkpt lat="44.26999005758849" lon="11.493731717978564"><ele>367.59999999999997</ele><time>2026-05-02T12:22:00.003Z</time></trkpt><trkpt lat="44.270047520196016" lon="11.493636749510934"><ele>369.4</ele><time>2026-05-02T12:22:01.003Z</time></trkpt><trkpt lat="44.27007595003394" lon="11.493516578718083"><ele>371.2</ele><time>2026-05-02T12:22:02.003Z</time></trkpt><trkpt lat="44.27006866299187" lon="11.493388672460796"><ele>373.0</ele><time>2026-05-02T12:22:03.003Z</time></trkpt><trkpt lat="44.27002780995675" lon="11.493264020338856"><ele>373.0</ele><time>2026-05-02T12:22:04.003Z</time></trkpt><trkpt lat="44.269959458456356" lon="11.49315234162137"><ele>373.0</ele><time>2026-05-02T12:22:05.003Z</time></trkpt><trkpt lat="44.269880151630005" lon="11.493047180057145"><ele>373.0</ele><time>2026-05-02T12:22:06.003Z</time></trkpt><trkpt lat="44.269794583111164" lon="11.492929771411166"><ele>373.0</ele><time>2026-05-02T12:22:07.003Z</time></trkpt><trkpt lat="44.26970669688983" lon="11.492806687966366"><ele>374.75</ele><time>2026-05-02T12:22:08.003Z</time></trkpt><trkpt lat="44.26961620310624" lon="11.492679268046828"><ele>376.5</ele><time>2026-05-02T12:22:09.003Z</time></trkpt><trkpt lat="44.26952001958238" lon="11.492553593420297"><ele>378.25</ele><time>2026-05-02T12:22:10.003Z</time></trkpt><trkpt lat="44.26941881180105" lon="11.49243570760391"><ele>380.0</ele><time>2026-05-02T12:22:11.003Z</time></trkpt><trkpt lat="44.26930745924384" lon="11.492340806874271"><ele>380.0</ele><time>2026-05-02T12:22:12.003Z</time></trkpt><trkpt lat="44.26918171436656" lon="11.49227709662234"><ele>380.0</ele><time>2026-05-02T12:22:13.003Z</time></trkpt><trkpt lat="44.26904835323761" lon="11.49223797688418"><ele>380.0</ele><time>2026-05-02T12:22:14.003Z</time></trkpt><trkpt lat="44.268909311777705" lon="11.492210588235354"><ele>380.0</ele><time>2026-05-02T12:22:15.003Z</time></trkpt><trkpt lat="44.26876854419841" lon="11.492188073263447"><ele>379.0</ele><time>2026-05-02T12:22:16.003Z</time></trkpt><trkpt lat="44.26863566235767" lon="11.492158606827077"><ele>378.0</ele><time>2026-05-02T12:22:17.003Z</time></trkpt><trkpt lat="44.26852289251501" lon="11.492098572910056"><ele>377.0</ele><time>2026-05-02T12:22:18.003Z</time></trkpt><trkpt lat="44.26842514216413" lon="11.492008650760663"><ele>376.0</ele><time>2026-05-02T12:22:19.003Z</time></trkpt><trkpt lat="44.26834668223932" lon="11.491881165652645"><ele>380.0</ele><time>2026-05-02T12:22:20.003Z</time></trkpt><trkpt lat="44.26827543053243" lon="11.491736102100838"><ele>384.0</ele><time>2026-05-02T12:22:21.003Z</time></trkpt><trkpt lat="44.26819829676268" lon="11.491594624922438"><ele>388.0</ele><time>2026-05-02T12:22:22.003Z</time></trkpt><trkpt lat="44.26809739355084" lon="11.491484059846172"><ele>392.0</ele><time>2026-05-02T12:22:23.003Z</time></trkpt><trkpt lat="44.26797265412288" lon="11.491429074099742"><ele>392.0</ele><time>2026-05-02T12:22:24.003Z</time></trkpt><trkpt lat="44.26784241455264" lon="11.491421473115143"><ele>392.0</ele><time>2026-05-02T12:22:25.003Z</time></trkpt><trkpt lat="44.26771102871144" lon="11.49144391720336"><ele>392.0</ele><time>2026-05-02T12:22:26.003Z</time></trkpt><trkpt lat="44.26757767503893" lon="11.491475863344432"><ele>392.0</ele><time>2026-05-02T12:22:27Z</time></trkpt><trkpt lat="44.26745883589058" lon="11.491485069182088"><ele>392.0</ele><time>2026-05-02T12:22:28Z</time></trkpt><trkpt lat="44.26733937713438" lon="11.491460516799918"><ele>392.0</ele><time>2026-05-02T12:22:29Z</time></trkpt><trkpt lat="44.267219079029715" lon="11.491406386835903"><ele>392.0</ele><time>2026-05-02T12:22:30Z</time></trkpt><trkpt lat="44.267097870379025" lon="11.491335965139546"><ele>392.0</ele><time>2026-05-02T12:22:31Z</time></trkpt><trkpt lat="44.26697362477966" lon="11.49126379055509"><ele>395.5</ele><time>2026-05-02T12:22:32Z</time></trkpt><trkpt lat="44.26684543738629" lon="11.491190570995407"><ele>399.0</ele><time>2026-05-02T12:22:33Z</time></trkpt><trkpt lat="44.2667163499049" lon="11.491117035168628"><ele>402.5</ele><time>2026-05-02T12:22:34Z</time></trkpt><trkpt lat="44.26658760033257" lon="11.49103976089062"><ele>406.0</ele><time>2026-05-02T12:22:35Z</time></trkpt><trkpt lat="44.2664724260963" lon="11.490953548868479"><ele>401.5</ele><time>2026-05-02T12:22:36Z</time></trkpt><trkpt lat="44.26637675272514" lon="11.490847673140504"><ele>397.0</ele><time>2026-05-02T12:22:37Z</time></trkpt><trkpt lat="44.266299136536084" lon="11.490718771125819"><ele>392.5</ele><time>2026-05-02T12:22:38Z</time></trkpt><trkpt lat="44.266240812976676" lon="11.490578505720782"><ele>388.0</ele><time>2026-05-02T12:22:39Z</time></trkpt><trkpt lat="44.26620384223184" lon="11.490424836744888"><ele>390.25</ele><time>2026-05-02T12:22:40Z</time></trkpt><trkpt lat="44.26618627390944" lon="11.490246820251436"><ele>392.5</ele><time>2026-05-02T12:22:41Z</time></trkpt><trkpt lat="44.26618120834474" lon="11.49005362241166"><ele>394.75</ele><time>2026-05-02T12:22:42Z</time></trkpt><trkpt lat="44.2661747034111" lon="11.489851651032476"><ele>397.0</ele><time>2026-05-02T12:22:43Z</time></trkpt><trkpt lat="44.26616297590987" lon="11.489645451915543"><ele>399.0</ele><time>2026-05-02T12:22:44Z</time></trkpt><trkpt lat="44.26614049313224" lon="11.489438478594177"><ele>401.0</ele><time>2026-05-02T12:22:45Z</time></trkpt><trkpt lat="44.266114106754465" lon="11.489239012439754"><ele>403.0</ele><time>2026-05-02T12:22:46Z</time></trkpt><trkpt lat="44.26608329780968" lon="11.489046334721506"><ele>405.0</ele><time>2026-05-02T12:22:47Z</time></trkpt><trkpt lat="44.26604274481625" lon="11.488862577630854"><ele>408.75</ele><time>2026-05-02T12:22:48Z</time></trkpt><trkpt lat="44.2659806653749" lon="11.48868800094082"><ele>412.5</ele><time>2026-05-02T12:22:49Z</time></trkpt><trkpt lat="44.265905010432235" lon="11.488521809149121"><ele>416.25</ele><time>2026-05-02T12:22:50Z</time></trkpt><trkpt lat="44.26581455822283" lon="11.488365352242303"><ele>420.0</ele><time>2026-05-02T12:22:51Z</time></trkpt><trkpt lat="44.265712488488106" lon="11.488214282975818"><ele>420.5</ele><time>2026-05-02T12:22:52Z</time></trkpt><trkpt lat="44.265608472954675" lon="11.48806336549499"><ele>421.0</ele><time>2026-05-02T12:22:53Z</time></trkpt><trkpt lat="44.26549723447658" lon="11.487922550514678"><ele>421.5</ele><time>2026-05-02T12:22:54Z</time></trkpt><trkpt lat="44.26537899611179" lon="11.487797290903949"><ele>422.0</ele><time>2026-05-02T12:22:55Z</time></trkpt><trkpt lat="44.26526478418803" lon="11.48766903091403"><ele>422.0</ele><time>2026-05-02T12:22:56.001Z</time></trkpt><trkpt lat="44.26515734345556" lon="11.487547555399741"><ele>422.0</ele><time>2026-05-02T12:22:57.001Z</time></trkpt><trkpt lat="44.26505479066478" lon="11.487427222971068"><ele>422.0</ele><time>2026-05-02T12:22:58.001Z</time></trkpt><trkpt lat="44.264957413943726" lon="11.487305758654507"><ele>422.0</ele><time>2026-05-02T12:22:59.001Z</time></trkpt><trkpt lat="44.26486248160788" lon="11.487184301906048"><ele>422.25</ele><time>2026-05-02T12:23:00.001Z</time></trkpt><trkpt lat="44.264764899205865" lon="11.487066788864137"><ele>422.5</ele><time>2026-05-02T12:23:01.001Z</time></trkpt><trkpt lat="44.26466993618969" lon="11.486943655452222"><ele>422.75</ele><time>2026-05-02T12:23:02.001Z</time></trkpt><trkpt lat="44.26457880914095" lon="11.486824420891887"><ele>423.0</ele><time>2026-05-02T12:23:03.001Z</time></trkpt><trkpt lat="44.264489974962736" lon="11.486706366627462"><ele>423.0</ele><time>2026-05-02T12:23:04.001Z</time></trkpt><trkpt lat="44.264403539332505" lon="11.486584919643596"><ele>423.0</ele><time>2026-05-02T12:23:05.001Z</time></trkpt><trkpt lat="44.26433406310029" lon="11.486451410447534"><ele>423.0</ele><time>2026-05-02T12:23:06.001Z</time></trkpt><trkpt lat="44.264282906097044" lon="11.486305220723633"><ele>423.0</ele><time>2026-05-02T12:23:07.001Z</time></trkpt><trkpt lat="44.26424306290428" lon="11.486151070041476"><ele>420.75</ele><time>2026-05-02T12:23:08.001Z</time></trkpt><trkpt lat="44.26421131296751" lon="11.485992484125447"><ele>418.5</ele><time>2026-05-02T12:23:09.001Z</time></trkpt><trkpt lat="44.26419472387053" lon="11.485835137285402"><ele>416.25</ele><time>2026-05-02T12:23:10.001Z</time></trkpt><trkpt lat="44.26416890158827" lon="11.485674269979247"><ele>414.0</ele><time>2026-05-02T12:23:11.001Z</time></trkpt><trkpt lat="44.26413305194088" lon="11.485506253030593"><ele>412.5</ele><time>2026-05-02T12:23:12.001Z</time></trkpt><trkpt lat="44.26409572234034" lon="11.485334478418661"><ele>411.0</ele><time>2026-05-02T12:23:13.001Z</time></trkpt><trkpt lat="44.26406254322579" lon="11.485157534334412"><ele>409.5</ele><time>2026-05-02T12:23:14.001Z</time></trkpt><trkpt lat="44.264035710043665" lon="11.484973683591594"><ele>408.0</ele><time>2026-05-02T12:23:15.001Z</time></trkpt><trkpt lat="44.26401520444159" lon="11.484792360427774"><ele>408.0</ele><time>2026-05-02T12:23:16.001Z</time></trkpt><trkpt lat="44.2639951305144" lon="11.484611155142241"><ele>408.0</ele><time>2026-05-02T12:23:17.001Z</time></trkpt><trkpt lat="44.263969195909006" lon="11.484430265290797"><ele>408.0</ele><time>2026-05-02T12:23:18.001Z</time></trkpt><trkpt lat="44.263935190985215" lon="11.484247540668806"><ele>408.0</ele><time>2026-05-02T12:23:19.001Z</time></trkpt><trkpt lat="44.26390322624943" lon="11.484060228530039"><ele>410.25</ele><time>2026-05-02T12:23:20.001Z</time></trkpt><trkpt lat="44.26385942073363" lon="11.483869807350874"><ele>412.5</ele><time>2026-05-02T12:23:21.001Z</time></trkpt><trkpt lat="44.26380795385303" lon="11.483674397184041"><ele>414.75</ele><time>2026-05-02T12:23:22.001Z</time></trkpt><trkpt lat="44.26375583716759" lon="11.483485721407629"><ele>417.0</ele><time>2026-05-02T12:23:23.001Z</time></trkpt><trkpt lat="44.26370872978489" lon="11.483302537737144"><ele>417.0</ele><time>2026-05-02T12:23:24.001Z</time></trkpt><trkpt lat="44.2636625809025" lon="11.483124361689747"><ele>417.0</ele><time>2026-05-02T12:23:25.001Z</time></trkpt><trkpt lat="44.26362345564577" lon="11.48295023235392"><ele>417.0</ele><time>2026-05-02T12:23:26.001Z</time></trkpt><trkpt lat="44.26358222888385" lon="11.48278172884444"><ele>417.0</ele><time>2026-05-02T12:23:27.001Z</time></trkpt><trkpt lat="44.26352954263976" lon="11.482627571119503"><ele>413.5</ele><time>2026-05-02T12:23:28.001Z</time></trkpt><trkpt lat="44.26347053543376" lon="11.482481421747233"><ele>410.0</ele><time>2026-05-02T12:23:29.002Z</time></trkpt><trkpt lat="44.26338586361752" lon="11.482350593620353"><ele>406.5</ele><time>2026-05-02T12:23:30.002Z</time></trkpt><trkpt lat="44.26329087135473" lon="11.48223282867188"><ele>403.0</ele><time>2026-05-02T12:23:31.002Z</time></trkpt><trkpt lat="44.263201568847606" lon="11.482118856613882"><ele>405.0</ele><time>2026-05-02T12:23:32.002Z</time></trkpt><trkpt lat="44.26312447641776" lon="11.48199571583376"><ele>407.0</ele><time>2026-05-02T12:23:33.002Z</time></trkpt><trkpt lat="44.26306992957068" lon="11.481858103595592"><ele>409.0</ele><time>2026-05-02T12:23:34.002Z</time></trkpt><trkpt lat="44.26303980088135" lon="11.481707384720211"><ele>411.0</ele><time>2026-05-02T12:23:35.002Z</time></trkpt><trkpt lat="44.2630184959365" lon="11.481559333363423"><ele>411.0</ele><time>2026-05-02T12:23:36.002Z</time></trkpt><trkpt lat="44.26297825235089" lon="11.48142992718834"><ele>411.0</ele><time>2026-05-02T12:23:37.002Z</time></trkpt><trkpt lat="44.262903764780994" lon="11.481326361871654"><ele>411.0</ele><time>2026-05-02T12:23:38.002Z</time></trkpt><trkpt lat="44.26280144520422" lon="11.481229538522799"><ele>411.0</ele><time>2026-05-02T12:23:39.002Z</time></trkpt><trkpt lat="44.26268896491977" lon="11.481136955692616"><ele>408.75</ele><time>2026-05-02T12:23:40.002Z</time></trkpt><trkpt lat="44.26257326539038" lon="11.481066346242798"><ele>406.5</ele><time>2026-05-02T12:23:41.002Z</time></trkpt><trkpt lat="44.26247994564637" lon="11.480959866737201"><ele>404.25</ele><time>2026-05-02T12:23:42.002Z</time></trkpt><trkpt lat="44.26240295227467" lon="11.48082550536769"><ele>402.0</ele><time>2026-05-02T12:23:43.002Z</time></trkpt><trkpt lat="44.26235132627576" lon="11.480668716344322"><ele>402.0</ele><time>2026-05-02T12:23:44.002Z</time></trkpt><trkpt lat="44.26231504346481" lon="11.480504162939077"><ele>402.0</ele><time>2026-05-02T12:23:45.002Z</time></trkpt><trkpt lat="44.26228659069035" lon="11.480328751696726"><ele>402.0</ele><time>2026-05-02T12:23:46.002Z</time></trkpt><trkpt lat="44.262277952190985" lon="11.48014300632244"><ele>402.0</ele><time>2026-05-02T12:23:47.002Z</time></trkpt><trkpt lat="44.26226200109388" lon="11.47996357653219"><ele>399.0</ele><time>2026-05-02T12:23:48.002Z</time></trkpt><trkpt lat="44.26227286296812" lon="11.479781924753514"><ele>396.0</ele><time>2026-05-02T12:23:49.002Z</time></trkpt><trkpt lat="44.26229633354468" lon="11.479599290988542"><ele>393.0</ele><time>2026-05-02T12:23:50.002Z</time></trkpt><trkpt lat="44.26233483308754" lon="11.479421395628721"><ele>390.0</ele><time>2026-05-02T12:23:51.002Z</time></trkpt><trkpt lat="44.26238046166488" lon="11.479243563152277"><ele>390.0</ele><time>2026-05-02T12:23:52.002Z</time></trkpt><trkpt lat="44.26243169532454" lon="11.479066054924528"><ele>390.0</ele><time>2026-05-02T12:23:53.002Z</time></trkpt><trkpt lat="44.262482057656214" lon="11.478892631515059"><ele>390.0</ele><time>2026-05-02T12:23:54.002Z</time></trkpt><trkpt lat="44.262525933029565" lon="11.478719477845303"><ele>390.0</ele><time>2026-05-02T12:23:55.002Z</time></trkpt><trkpt lat="44.26256785049721" lon="11.47855039730618"><ele>389.0</ele><time>2026-05-02T12:23:56.002Z</time></trkpt><trkpt lat="44.262607449280196" lon="11.478390341172853"><ele>388.0</ele><time>2026-05-02T12:23:57.002Z</time></trkpt><trkpt lat="44.26263889910322" lon="11.478238904535555"><ele>387.0</ele><time>2026-05-02T12:23:58.002Z</time></trkpt><trkpt lat="44.26265726399161" lon="11.478095478476266"><ele>386.0</ele><time>2026-05-02T12:23:59.002Z</time></trkpt><trkpt lat="44.26265801185862" lon="11.477956743017854"><ele>385.0</ele><time>2026-05-02T12:24:00.002Z</time></trkpt><trkpt lat="44.26264152176502" lon="11.47782141883066"><ele>384.0</ele><time>2026-05-02T12:24:01.002Z</time></trkpt><trkpt lat="44.262588725020606" lon="11.47770148580533"><ele>383.0</ele><time>2026-05-02T12:24:02.003Z</time></trkpt><trkpt lat="44.26251801652658" lon="11.477608393842775"><ele>382.0</ele><time>2026-05-02T12:24:03.003Z</time></trkpt><trkpt lat="44.262419303620995" lon="11.477545432189112"><ele>381.0</ele><time>2026-05-02T12:24:04.003Z</time></trkpt><trkpt lat="44.262300571004445" lon="11.47752298092325"><ele>380.0</ele><time>2026-05-02T12:24:05.003Z</time></trkpt><trkpt lat="44.26217624240244" lon="11.477514495787728"><ele>380.0</ele><time>2026-05-02T12:24:06.003Z</time></trkpt><trkpt lat="44.26205437728808" lon="11.477546536216332"><ele>380.0</ele><time>2026-05-02T12:24:07.003Z</time></trkpt><trkpt lat="44.261937671803544" lon="11.47760295795693"><ele>380.0</ele><time>2026-05-02T12:24:08.003Z</time></trkpt><trkpt lat="44.261829482367645" lon="11.47766679225684"><ele>380.0</ele><time>2026-05-02T12:24:09.003Z</time></trkpt><trkpt lat="44.261722585642" lon="11.477703030575563"><ele>380.0</ele><time>2026-05-02T12:24:10.003Z</time></trkpt><trkpt lat="44.26162406521696" lon="11.477719523473873"><ele>380.0</ele><time>2026-05-02T12:24:11.003Z</time></trkpt><trkpt lat="44.26152746939009" lon="11.477688811429575"><ele>380.0</ele><time>2026-05-02T12:24:12.003Z</time></trkpt><trkpt lat="44.26143632525014" lon="11.477611507878317"><ele>380.0</ele><time>2026-05-02T12:24:13.003Z</time></trkpt><trkpt lat="44.261348779242425" lon="11.477501945768912"><ele>380.0</ele><time>2026-05-02T12:24:14.003Z</time></trkpt><trkpt lat="44.261255087003725" lon="11.477380879975362"><ele>379.5</ele><time>2026-05-02T12:24:15.003Z</time></trkpt><trkpt lat="44.26114908015138" lon="11.47727644761151"><ele>379.0</ele><time>2026-05-02T12:24:16.003Z</time></trkpt><trkpt lat="44.261024906867355" lon="11.477197432793234"><ele>378.5</ele><time>2026-05-02T12:24:17.003Z</time></trkpt><trkpt lat="44.26090124714767" lon="11.477132698871936"><ele>378.0</ele><time>2026-05-02T12:24:18.003Z</time></trkpt><trkpt lat="44.26076387106595" lon="11.477081929169016"><ele>374.75</ele><time>2026-05-02T12:24:19.003Z</time></trkpt><trkpt lat="44.260632854573714" lon="11.477021304687087"><ele>371.5</ele><time>2026-05-02T12:24:20.003Z</time></trkpt><trkpt lat="44.26050085001812" lon="11.476948737042612"><ele>368.25</ele><time>2026-05-02T12:24:21.003Z</time></trkpt><trkpt lat="44.260378189704326" lon="11.476859337391362"><ele>365.0</ele><time>2026-05-02T12:24:22.003Z</time></trkpt><trkpt lat="44.26026293927771" lon="11.476759268208063"><ele>365.0</ele><time>2026-05-02T12:24:23.003Z</time></trkpt><trkpt lat="44.260158245583646" lon="11.476643061232238"><ele>365.0</ele><time>2026-05-02T12:24:24.003Z</time></trkpt><trkpt lat="44.26006819690469" lon="11.47650925887316"><ele>365.0</ele><time>2026-05-02T12:24:25.003Z</time></trkpt><trkpt lat="44.259989724788504" lon="11.476354851342846"><ele>365.0</ele><time>2026-05-02T12:24:26.003Z</time></trkpt><trkpt lat="44.259916337682974" lon="11.476197764532506"><ele>363.75</ele><time>2026-05-02T12:24:27.003Z</time></trkpt><trkpt lat="44.25983647839552" lon="11.476057906060996"><ele>362.5</ele><time>2026-05-02T12:24:28.003Z</time></trkpt><trkpt lat="44.25974742703518" lon="11.475931794594091"><ele>361.25</ele><time>2026-05-02T12:24:29.003Z</time></trkpt><trkpt lat="44.25964903119552" lon="11.47583093519605"><ele>360.0</ele><time>2026-05-02T12:24:30.003Z</time></trkpt><trkpt lat="44.25954406656463" lon="11.475756403533307"><ele>360.0</ele><time>2026-05-02T12:24:31.003Z</time></trkpt><trkpt lat="44.259436995942615" lon="11.475695027689818"><ele>360.0</ele><time>2026-05-02T12:24:32.003Z</time></trkpt><trkpt lat="44.259322313384814" lon="11.475651690686023"><ele>360.0</ele><time>2026-05-02T12:24:33Z</time></trkpt><trkpt lat="44.25920896638155" lon="11.475635671815235"><ele>360.0</ele><time>2026-05-02T12:24:34Z</time></trkpt><trkpt lat="44.259094325846185" lon="11.47563860025848"><ele>360.0</ele><time>2026-05-02T12:24:35Z</time></trkpt><trkpt lat="44.258985414346995" lon="11.475647009143529"><ele>360.0</ele><time>2026-05-02T12:24:36Z</time></trkpt><trkpt lat="44.25888631444668" lon="11.475652298522784"><ele>360.0</ele><time>2026-05-02T12:24:37Z</time></trkpt><trkpt lat="44.258792957960345" lon="11.475625855132154"><ele>360.0</ele><time>2026-05-02T12:24:38Z</time></trkpt><trkpt lat="44.2587122224283" lon="11.475564211429703"><ele>360.0</ele><time>2026-05-02T12:24:39Z</time></trkpt><trkpt lat="44.25865781851059" lon="11.475461292976098"><ele>358.4</ele><time>2026-05-02T12:24:40Z</time></trkpt><trkpt lat="44.25862882427444" lon="11.475334610282813"><ele>356.8</ele><time>2026-05-02T12:24:41Z</time></trkpt><trkpt lat="44.258629511163385" lon="11.475206472922883"><ele>355.20000000000005</ele><time>2026-05-02T12:24:42Z</time></trkpt><trkpt lat="44.25867331567247" lon="11.47508365187583"><ele>353.6</ele><time>2026-05-02T12:24:43Z</time></trkpt><trkpt lat="44.258743314923194" lon="11.474993642668746"><ele>352.0</ele><time>2026-05-02T12:24:44Z</time></trkpt><trkpt lat="44.258838340755084" lon="11.474942174499036"><ele>352.0</ele><time>2026-05-02T12:24:45Z</time></trkpt><trkpt lat="44.25894920381445" lon="11.474931155315948"><ele>352.0</ele><time>2026-05-02T12:24:46Z</time></trkpt><trkpt lat="44.25906198889454" lon="11.47495659419996"><ele>352.0</ele><time>2026-05-02T12:24:47Z</time></trkpt><trkpt lat="44.259176220707054" lon="11.475014300580279"><ele>352.0</ele><time>2026-05-02T12:24:48Z</time></trkpt><trkpt lat="44.259288936088346" lon="11.475067880555086"><ele>351.0</ele><time>2026-05-02T12:24:49Z</time></trkpt><trkpt lat="44.25940340100199" lon="11.475113679448341"><ele>350.0</ele><time>2026-05-02T12:24:50Z</time></trkpt><trkpt lat="44.25951626659674" lon="11.475147283167912"><ele>349.0</ele><time>2026-05-02T12:24:51Z</time></trkpt><trkpt lat="44.25963006633216" lon="11.475166686049182"><ele>348.0</ele><time>2026-05-02T12:24:52Z</time></trkpt><trkpt lat="44.259742491239415" lon="11.4751656433873"><ele>346.75</ele><time>2026-05-02T12:24:53Z</time></trkpt><trkpt lat="44.25986173655029" lon="11.475147991582155"><ele>345.5</ele><time>2026-05-02T12:24:54Z</time></trkpt><trkpt lat="44.25997747461125" lon="11.475111403868766"><ele>344.25</ele><time>2026-05-02T12:24:55Z</time></trkpt><trkpt lat="44.260085512164345" lon="11.47506349259945"><ele>343.0</ele><time>2026-05-02T12:24:56Z</time></trkpt><trkpt lat="44.26019960299145" lon="11.47503993434677"><ele>343.0</ele><time>2026-05-02T12:24:57Z</time></trkpt><trkpt lat="44.260319649986684" lon="11.475044364460283"><ele>343.0</ele><time>2026-05-02T12:24:58Z</time></trkpt><trkpt lat="44.260444528735384" lon="11.475071667017616"><ele>343.0</ele><time>2026-05-02T12:24:59Z</time></trkpt><trkpt lat="44.26057068856804" lon="11.47510171533475"><ele>343.0</ele><time>2026-05-02T12:25:00Z</time></trkpt><trkpt lat="44.260697739782465" lon="11.475131355474604"><ele>342.25</ele><time>2026-05-02T12:25:01.001Z</time></trkpt><trkpt lat="44.260818185635735" lon="11.47516062413652"><ele>341.5</ele><time>2026-05-02T12:25:02.001Z</time></trkpt><trkpt lat="44.26093360356774" lon="11.475187598676364"><ele>340.75</ele><time>2026-05-02T12:25:03.001Z</time></trkpt><trkpt lat="44.26104555211481" lon="11.475195832259432"><ele>340.0</ele><time>2026-05-02T12:25:04.001Z</time></trkpt><trkpt lat="44.26115400181933" lon="11.475158383613543"><ele>340.0</ele><time>2026-05-02T12:25:05.001Z</time></trkpt><trkpt lat="44.26125313335113" lon="11.475078270577956"><ele>340.0</ele><time>2026-05-02T12:25:06.001Z</time></trkpt><trkpt lat="44.26134511971826" lon="11.47496958204975"><ele>340.0</ele><time>2026-05-02T12:25:07.001Z</time></trkpt><trkpt lat="44.261417040399145" lon="11.474821057816602"><ele>340.0</ele><time>2026-05-02T12:25:08.001Z</time></trkpt><trkpt lat="44.26148446437635" lon="11.474691910182589"><ele>337.8</ele><time>2026-05-02T12:25:09.001Z</time></trkpt><trkpt lat="44.261565659464075" lon="11.474583237440969"><ele>335.6</ele><time>2026-05-02T12:25:10.001Z</time></trkpt><trkpt lat="44.261661958912335" lon="11.474508882274135"><ele>333.4</ele><time>2026-05-02T12:25:11.001Z</time></trkpt><trkpt lat="44.26176070304998" lon="11.47446178607926"><ele>331.2</ele><time>2026-05-02T12:25:12.001Z</time></trkpt><trkpt lat="44.2618704367662" lon="11.474455584458147"><ele>329.0</ele><time>2026-05-02T12:25:13.001Z</time></trkpt><trkpt lat="44.26197201446361" lon="11.474452954284137"><ele>329.0</ele><time>2026-05-02T12:25:14.001Z</time></trkpt><trkpt lat="44.26207250630741" lon="11.474510707237178"><ele>329.0</ele><time>2026-05-02T12:25:15.001Z</time></trkpt><trkpt lat="44.26216428799912" lon="11.474593464943068"><ele>329.0</ele><time>2026-05-02T12:25:16.001Z</time></trkpt><trkpt lat="44.26225303294199" lon="11.474684854726373"><ele>329.0</ele><time>2026-05-02T12:25:17.001Z</time></trkpt><trkpt lat="44.26234766247704" lon="11.474775515666872"><ele>329.0</ele><time>2026-05-02T12:25:18.001Z</time></trkpt><trkpt lat="44.26245339314334" lon="11.47484806707561"><ele>331.5</ele><time>2026-05-02T12:25:19.001Z</time></trkpt><trkpt lat="44.26257506298576" lon="11.474875330365002"><ele>334.0</ele><time>2026-05-02T12:25:20.001Z</time></trkpt><trkpt lat="44.26270471311122" lon="11.47486688081874"><ele>336.5</ele><time>2026-05-02T12:25:21.001Z</time></trkpt><trkpt lat="44.26283877203021" lon="11.474840031333587"><ele>339.0</ele><time>2026-05-02T12:25:22.001Z</time></trkpt><trkpt lat="44.26296520707488" lon="11.474839727195368"><ele>339.0</ele><time>2026-05-02T12:25:23.001Z</time></trkpt><trkpt lat="44.26307084087333" lon="11.47486123123001"><ele>339.0</ele><time>2026-05-02T12:25:24.001Z</time></trkpt><trkpt lat="44.263168817625406" lon="11.474902374692508"><ele>339.0</ele><time>2026-05-02T12:25:25.001Z</time></trkpt><trkpt lat="44.26326854554897" lon="11.474944545805748"><ele>339.0</ele><time>2026-05-02T12:25:26.001Z</time></trkpt><trkpt lat="44.26337430821469" lon="11.474993225613753"><ele>339.0</ele><time>2026-05-02T12:25:27.001Z</time></trkpt><trkpt lat="44.26347961826398" lon="11.475050701530005"><ele>337.25</ele><time>2026-05-02T12:25:28.001Z</time></trkpt><trkpt lat="44.263577875753256" lon="11.4751181770363"><ele>335.5</ele><time>2026-05-02T12:25:29.001Z</time></trkpt><trkpt lat="44.26367391039282" lon="11.475204205722617"><ele>333.75</ele><time>2026-05-02T12:25:30.001Z</time></trkpt><trkpt lat="44.26377406915396" lon="11.475295240901623"><ele>332.0</ele><time>2026-05-02T12:25:31.001Z</time></trkpt><trkpt lat="44.263868947195824" lon="11.475402367580061"><ele>329.75</ele><time>2026-05-02T12:25:32.001Z</time></trkpt><trkpt lat="44.26395779849186" lon="11.475519239078377"><ele>327.5</ele><time>2026-05-02T12:25:33.001Z</time></trkpt><trkpt lat="44.26404459591493" lon="11.475640107414137"><ele>325.25</ele><time>2026-05-02T12:25:34.001Z</time></trkpt><trkpt lat="44.26412807021928" lon="11.475763060261478"><ele>323.0</ele><time>2026-05-02T12:25:35.001Z</time></trkpt><trkpt lat="44.264203802907474" lon="11.475884935328395"><ele>323.0</ele><time>2026-05-02T12:25:36.002Z</time></trkpt><trkpt lat="44.2642712993417" lon="11.47602057489773"><ele>323.0</ele><time>2026-05-02T12:25:37.002Z</time></trkpt><trkpt lat="44.26432299956599" lon="11.476159950236978"><ele>323.0</ele><time>2026-05-02T12:25:38.002Z</time></trkpt><trkpt lat="44.26437159692093" lon="11.476293750521226"><ele>323.0</ele><time>2026-05-02T12:25:39.002Z</time></trkpt><trkpt lat="44.264428973884634" lon="11.476407628954165"><ele>323.0</ele><time>2026-05-02T12:25:40.002Z</time></trkpt><trkpt lat="44.2645157296696" lon="11.476483756224038"><ele>322.4</ele><time>2026-05-02T12:25:41.002Z</time></trkpt><trkpt lat="44.26461755715798" lon="11.476521963883421"><ele>321.79999999999995</ele><time>2026-05-02T12:25:42.002Z</time></trkpt><trkpt lat="44.26471718037178" lon="11.476536325883476"><ele>321.2</ele><time>2026-05-02T12:25:43.002Z</time></trkpt><trkpt lat="44.26481335329243" lon="11.476548298080278"><ele>320.6</ele><time>2026-05-02T12:25:44.002Z</time></trkpt><trkpt lat="44.264906114053225" lon="11.47653270153304"><ele>320.0</ele><time>2026-05-02T12:25:45.002Z</time></trkpt><trkpt lat="44.264994360569666" lon="11.476462714973401"><ele>320.0</ele><time>2026-05-02T12:25:46.002Z</time></trkpt><trkpt lat="44.26507072691131" lon="11.476347523736077"><ele>320.0</ele><time>2026-05-02T12:25:47.002Z</time></trkpt><trkpt lat="44.265137483305075" lon="11.476205713748232"><ele>320.0</ele><time>2026-05-02T12:25:48.002Z</time></trkpt><trkpt lat="44.26520429323646" lon="11.47605401167229"><ele>320.0</ele><time>2026-05-02T12:25:49.002Z</time></trkpt><trkpt lat="44.26527857552545" lon="11.47589283308733"><ele>318.0</ele><time>2026-05-02T12:25:50.002Z</time></trkpt><trkpt lat="44.26535955074406" lon="11.47573844955575"><ele>316.0</ele><time>2026-05-02T12:25:51.002Z</time></trkpt><trkpt lat="44.265432459468094" lon="11.475588399806709"><ele>314.0</ele><time>2026-05-02T12:25:52.002Z</time></trkpt><trkpt lat="44.265500158187315" lon="11.475452806424936"><ele>312.0</ele><time>2026-05-02T12:25:53.002Z</time></trkpt><trkpt lat="44.265541399467146" lon="11.475305905425126"><ele>310.5</ele><time>2026-05-02T12:25:54.002Z</time></trkpt><trkpt lat="44.26552397401662" lon="11.475135486516402"><ele>309.0</ele><time>2026-05-02T12:25:55.002Z</time></trkpt><trkpt lat="44.26549611538281" lon="11.474997127491974"><ele>307.5</ele><time>2026-05-02T12:25:56.002Z</time></trkpt><trkpt lat="44.265428114440326" lon="11.474871107986038"><ele>306.0</ele><time>2026-05-02T12:25:57.002Z</time></trkpt><trkpt lat="44.26533835295746" lon="11.474754482710013"><ele>306.0</ele><time>2026-05-02T12:25:58.002Z</time></trkpt><trkpt lat="44.265244366020355" lon="11.474628234563957"><ele>306.0</ele><time>2026-05-02T12:25:59.002Z</time></trkpt><trkpt lat="44.265156665662566" lon="11.474484776729208"><ele>306.0</ele><time>2026-05-02T12:26:00.002Z</time></trkpt><trkpt lat="44.265078327427375" lon="11.474319946664036"><ele>306.0</ele><time>2026-05-02T12:26:01.002Z</time></trkpt><trkpt lat="44.26499733815257" lon="11.474153206478203"><ele>307.25</ele><time>2026-05-02T12:26:02.002Z</time></trkpt><trkpt lat="44.2649318760793" lon="11.474000508235491"><ele>308.5</ele><time>2026-05-02T12:26:03.002Z</time></trkpt><trkpt lat="44.26487047245359" lon="11.473855756416583"><ele>309.75</ele><time>2026-05-02T12:26:04.002Z</time></trkpt><trkpt lat="44.26482059031884" lon="11.473713688215401"><ele>311.0</ele><time>2026-05-02T12:26:05.002Z</time></trkpt><trkpt lat="44.264796130581885" lon="11.47356261818234"><ele>311.0</ele><time>2026-05-02T12:26:06.002Z</time></trkpt><trkpt lat="44.264797605788914" lon="11.473410676652701"><ele>311.0</ele><time>2026-05-02T12:26:07.002Z</time></trkpt><trkpt lat="44.26482773062195" lon="11.473271417394638"><ele>311.0</ele><time>2026-05-02T12:26:08.002Z</time></trkpt><trkpt lat="44.264896620541144" lon="11.473146716795023"><ele>311.0</ele><time>2026-05-02T12:26:09.002Z</time></trkpt><trkpt lat="44.26498063575463" lon="11.4730274353575"><ele>311.0</ele><time>2026-05-02T12:26:10.003Z</time></trkpt><trkpt lat="44.26507063603791" lon="11.472917007830867"><ele>309.0</ele><time>2026-05-02T12:26:11.003Z</time></trkpt><trkpt lat="44.265174139168195" lon="11.472818986150955"><ele>307.0</ele><time>2026-05-02T12:26:12.003Z</time></trkpt><trkpt lat="44.26528816868772" lon="11.472716448519122"><ele>305.0</ele><time>2026-05-02T12:26:13.003Z</time></trkpt><trkpt lat="44.265403379570245" lon="11.472615386877944"><ele>303.0</ele><time>2026-05-02T12:26:14.003Z</time></trkpt><trkpt lat="44.26551935850378" lon="11.472531011840607"><ele>304.25</ele><time>2026-05-02T12:26:15.003Z</time></trkpt><trkpt lat="44.26565280173216" lon="11.47244526706947"><ele>305.5</ele><time>2026-05-02T12:26:16.003Z</time></trkpt><trkpt lat="44.265789153410374" lon="11.472376849067384"><ele>306.75</ele><time>2026-05-02T12:26:17.003Z</time></trkpt><trkpt lat="44.2659274367005" lon="11.472314664126221"><ele>308.0</ele><time>2026-05-02T12:26:18.003Z</time></trkpt><trkpt lat="44.266061233373854" lon="11.472254837982364"><ele>308.0</ele><time>2026-05-02T12:26:19.003Z</time></trkpt><trkpt lat="44.26618596834284" lon="11.472195765837833"><ele>308.0</ele><time>2026-05-02T12:26:20.003Z</time></trkpt><trkpt lat="44.266306604286164" lon="11.47213501941197"><ele>308.0</ele><time>2026-05-02T12:26:21.003Z</time></trkpt><trkpt lat="44.26642430559257" lon="11.472074228329152"><ele>308.0</ele><time>2026-05-02T12:26:22.003Z</time></trkpt><trkpt lat="44.266535846763915" lon="11.47200921015762"><ele>305.75</ele><time>2026-05-02T12:26:23.003Z</time></trkpt><trkpt lat="44.26664610842461" lon="11.471927001568954"><ele>303.5</ele><time>2026-05-02T12:26:24.003Z</time></trkpt><trkpt lat="44.26675272522159" lon="11.471817929339075"><ele>301.25</ele><time>2026-05-02T12:26:25.003Z</time></trkpt><trkpt lat="44.26685742440061" lon="11.47168479278159"><ele>299.0</ele><time>2026-05-02T12:26:26.003Z</time></trkpt><trkpt lat="44.26696089605179" lon="11.471542704509712"><ele>299.0</ele><time>2026-05-02T12:26:27.003Z</time></trkpt><trkpt lat="44.26706939444813" lon="11.471392631037837"><ele>299.0</ele><time>2026-05-02T12:26:28.003Z</time></trkpt><trkpt lat="44.267179353935" lon="11.471233724239942"><ele>299.0</ele><time>2026-05-02T12:26:29.003Z</time></trkpt><trkpt lat="44.26728843420906" lon="11.471072385674026"><ele>298.33333333333337</ele><time>2026-05-02T12:26:30.003Z</time></trkpt><trkpt lat="44.26739681036307" lon="11.470914776781106"><ele>297.6666666666667</ele><time>2026-05-02T12:26:31.003Z</time></trkpt><trkpt lat="44.267500164912136" lon="11.470759461371085"><ele>297.0</ele><time>2026-05-02T12:26:32.003Z</time></trkpt><trkpt lat="44.26760159442428" lon="11.470607838218877"><ele>297.0</ele><time>2026-05-02T12:26:33.003Z</time></trkpt><trkpt lat="44.26769829322914" lon="11.470457659105746"><ele>297.0</ele><time>2026-05-02T12:26:34.003Z</time></trkpt><trkpt lat="44.267783897161905" lon="11.470309362803652"><ele>297.0</ele><time>2026-05-02T12:26:35.003Z</time></trkpt><trkpt lat="44.267855993333065" lon="11.470147006187416"><ele>297.0</ele><time>2026-05-02T12:26:36.003Z</time></trkpt><trkpt lat="44.26792216572548" lon="11.469971917240333"><ele>297.25</ele><time>2026-05-02T12:26:37.003Z</time></trkpt><trkpt lat="44.26798811569871" lon="11.469788895245914"><ele>297.5</ele><time>2026-05-02T12:26:38.003Z</time></trkpt><trkpt lat="44.26805028113054" lon="11.46960574781207"><ele>297.75</ele><time>2026-05-02T12:26:39Z</time></trkpt><trkpt lat="44.26811406664264" lon="11.469428809719856"><ele>298.0</ele><time>2026-05-02T12:26:40Z</time></trkpt><trkpt lat="44.26817809137246" lon="11.469256902440025"><ele>298.0</ele><time>2026-05-02T12:26:41Z</time></trkpt><trkpt lat="44.26824691550506" lon="11.469094524190027"><ele>298.0</ele><time>2026-05-02T12:26:42Z</time></trkpt><trkpt lat="44.26831750910425" lon="11.4689369094842"><ele>298.0</ele><time>2026-05-02T12:26:43Z</time></trkpt><trkpt lat="44.2683799405676" lon="11.468775280584858"><ele>298.0</ele><time>2026-05-02T12:26:44Z</time></trkpt><trkpt lat="44.268439736987844" lon="11.46860891637477"><ele>296.25</ele><time>2026-05-02T12:26:45Z</time></trkpt><trkpt lat="44.26850211709924" lon="11.468442683782484"><ele>294.5</ele><time>2026-05-02T12:26:46Z</time></trkpt><trkpt lat="44.26856734499491" lon="11.468269209577942"><ele>292.75</ele><time>2026-05-02T12:26:47Z</time></trkpt><trkpt lat="44.26862903448615" lon="11.468086972916305"><ele>291.0</ele><time>2026-05-02T12:26:48Z</time></trkpt><trkpt lat="44.268673789947776" lon="11.467890989218285"><ele>290.0</ele><time>2026-05-02T12:26:49Z</time></trkpt><trkpt lat="44.26870096250243" lon="11.467702798551548"><ele>289.0</ele><time>2026-05-02T12:26:50Z</time></trkpt><trkpt lat="44.268709548490484" lon="11.467525640641126"><ele>288.0</ele><time>2026-05-02T12:26:51Z</time></trkpt><trkpt lat="44.26872421201697" lon="11.467360975061382"><ele>287.0</ele><time>2026-05-02T12:26:52Z</time></trkpt><trkpt lat="44.26874239547844" lon="11.467203334286394"><ele>286.25</ele><time>2026-05-02T12:26:53Z</time></trkpt><trkpt lat="44.268775755772516" lon="11.467047864198076"><ele>285.5</ele><time>2026-05-02T12:26:54Z</time></trkpt><trkpt lat="44.26883563715241" lon="11.466918272314887"><ele>284.75</ele><time>2026-05-02T12:26:55Z</time></trkpt><trkpt lat="44.26892362284022" lon="11.466808751389479"><ele>284.0</ele><time>2026-05-02T12:26:56Z</time></trkpt><trkpt lat="44.26902154682143" lon="11.466700027382451"><ele>284.5</ele><time>2026-05-02T12:26:57Z</time></trkpt><trkpt lat="44.26910741288573" lon="11.466557144755436"><ele>285.0</ele><time>2026-05-02T12:26:58Z</time></trkpt><trkpt lat="44.269179656008774" lon="11.466378785691992"><ele>285.5</ele><time>2026-05-02T12:26:59Z</time></trkpt><trkpt lat="44.269253172247495" lon="11.466222973722141"><ele>286.0</ele><time>2026-05-02T12:27:00Z</time></trkpt><trkpt lat="44.26933592974302" lon="11.46607048934949"><ele>286.0</ele><time>2026-05-02T12:27:01Z</time></trkpt><trkpt lat="44.26941466695207" lon="11.465914503449785"><ele>286.0</ele><time>2026-05-02T12:27:02Z</time></trkpt><trkpt lat="44.269494701249364" lon="11.46575824032688"><ele>286.0</ele><time>2026-05-02T12:27:03Z</time></trkpt><trkpt lat="44.26957768271488" lon="11.465613570373097"><ele>286.0</ele><time>2026-05-02T12:27:04Z</time></trkpt><trkpt lat="44.26965133004541" lon="11.465461774730088"><ele>286.0</ele><time>2026-05-02T12:27:05Z</time></trkpt><trkpt lat="44.269718524300835" lon="11.465320355957497"><ele>286.0</ele><time>2026-05-02T12:27:06Z</time></trkpt><trkpt lat="44.269772154468804" lon="11.465179693782947"><ele>286.0</ele><time>2026-05-02T12:27:07Z</time></trkpt><trkpt lat="44.269808164094556" lon="11.465029756721034"><ele>286.0</ele><time>2026-05-02T12:27:08.001Z</time></trkpt><trkpt lat="44.269817670960755" lon="11.464864678838788"><ele>286.0</ele><time>2026-05-02T12:27:09.001Z</time></trkpt><trkpt lat="44.26980526256173" lon="11.464687712522176"><ele>286.0</ele><time>2026-05-02T12:27:10.001Z</time></trkpt><trkpt lat="44.26977647193406" lon="11.464513023565637"><ele>286.0</ele><time>2026-05-02T12:27:11.001Z</time></trkpt><trkpt lat="44.26976172253418" lon="11.464357917156017"><ele>286.0</ele><time>2026-05-02T12:27:12.001Z</time></trkpt><trkpt lat="44.269764651743735" lon="11.464202150063235"><ele>286.75</ele><time>2026-05-02T12:27:13.001Z</time></trkpt><trkpt lat="44.26980181819027" lon="11.464064538434624"><ele>287.5</ele><time>2026-05-02T12:27:14.001Z</time></trkpt><trkpt lat="44.26986513127392" lon="11.463929874398591"><ele>288.25</ele><time>2026-05-02T12:27:15.001Z</time></trkpt><trkpt lat="44.26994649707623" lon="11.463812578663457"><ele>289.0</ele><time>2026-05-02T12:27:16.001Z</time></trkpt><trkpt lat="44.270021129739966" lon="11.463694642599469"><ele>289.0</ele><time>2026-05-02T12:27:17.001Z</time></trkpt><trkpt lat="44.27007516159329" lon="11.463541497434313"><ele>289.0</ele><time>2026-05-02T12:27:18.001Z</time></trkpt><trkpt lat="44.27012035382005" lon="11.463376994573633"><ele>289.0</ele><time>2026-05-02T12:27:19.001Z</time></trkpt><trkpt lat="44.27016737510227" lon="11.463209169322576"><ele>289.0</ele><time>2026-05-02T12:27:20.001Z</time></trkpt><trkpt lat="44.27018789536674" lon="11.463031830909635"><ele>290.0</ele><time>2026-05-02T12:27:21.001Z</time></trkpt><trkpt lat="44.27017233872263" lon="11.46285971656777"><ele>291.0</ele><time>2026-05-02T12:27:22.001Z</time></trkpt><trkpt lat="44.27012590679166" lon="11.462698704069503"><ele>292.0</ele><time>2026-05-02T12:27:23.001Z</time></trkpt><trkpt lat="44.27006514372243" lon="11.462567909919722"><ele>293.0</ele><time>2026-05-02T12:27:24.001Z</time></trkpt><trkpt lat="44.27003250407092" lon="11.462440167038952"><ele>293.0</ele><time>2026-05-02T12:27:25.001Z</time></trkpt><trkpt lat="44.270038201040194" lon="11.462308017879158"><ele>293.0</ele><time>2026-05-02T12:27:26.001Z</time></trkpt><trkpt lat="44.27007556484114" lon="11.462166388980389"><ele>293.0</ele><time>2026-05-02T12:27:27.001Z</time></trkpt><trkpt lat="44.270129584544534" lon="11.462028165429023"><ele>293.0</ele><time>2026-05-02T12:27:28.001Z</time></trkpt><trkpt lat="44.270199764015096" lon="11.461887781430308"><ele>293.0</ele><time>2026-05-02T12:27:29.001Z</time></trkpt><trkpt lat="44.2702858128338" lon="11.461753258881297"><ele>292.5</ele><time>2026-05-02T12:27:30.001Z</time></trkpt><trkpt lat="44.27037885888183" lon="11.461612866155745"><ele>292.0</ele><time>2026-05-02T12:27:31.001Z</time></trkpt><trkpt lat="44.27047596930331" lon="11.461460615679906"><ele>291.5</ele><time>2026-05-02T12:27:32.001Z</time></trkpt><trkpt lat="44.27057115911561" lon="11.4612970223562"><ele>291.0</ele><time>2026-05-02T12:27:33.001Z</time></trkpt><trkpt lat="44.27066590117584" lon="11.461128111259343"><ele>291.0</ele><time>2026-05-02T12:27:34.001Z</time></trkpt><trkpt lat="44.27076565098753" lon="11.460957571254172"><ele>291.0</ele><time>2026-05-02T12:27:35.001Z</time></trkpt><trkpt lat="44.27086179698936" lon="11.460790024956637"><ele>291.0</ele><time>2026-05-02T12:27:36.001Z</time></trkpt><trkpt lat="44.27095594808047" lon="11.460626897879026"><ele>291.0</ele><time>2026-05-02T12:27:37.001Z</time></trkpt><trkpt lat="44.27104967796018" lon="11.46046486383605"><ele>291.0</ele><time>2026-05-02T12:27:38.001Z</time></trkpt><trkpt lat="44.27114590256071" lon="11.46031184447338"><ele>291.0</ele><time>2026-05-02T12:27:39.001Z</time></trkpt><trkpt lat="44.271244992692196" lon="11.46016012042313"><ele>291.0</ele><time>2026-05-02T12:27:40.001Z</time></trkpt><trkpt lat="44.27133594838017" lon="11.46001279486781"><ele>289.5</ele><time>2026-05-02T12:27:41.002Z</time></trkpt><trkpt lat="44.27141340029574" lon="11.459861314682913"><ele>288.0</ele><time>2026-05-02T12:27:42.002Z</time></trkpt><trkpt lat="44.27147630602602" lon="11.459693752924453"><ele>286.5</ele><time>2026-05-02T12:27:43.002Z</time></trkpt><trkpt lat="44.27152864517665" lon="11.459515348262167"><ele>285.0</ele><time>2026-05-02T12:27:44.002Z</time></trkpt><trkpt lat="44.271570974270226" lon="11.45933449884162"><ele>285.0</ele><time>2026-05-02T12:27:45.002Z</time></trkpt><trkpt lat="44.271608221718445" lon="11.459151141581417"><ele>285.0</ele><time>2026-05-02T12:27:46.002Z</time></trkpt><trkpt lat="44.27165587727101" lon="11.458970302785835"><ele>285.0</ele><time>2026-05-02T12:27:47.002Z</time></trkpt><trkpt lat="44.27171404012924" lon="11.458794090698596"><ele>285.0</ele><time>2026-05-02T12:27:48.002Z</time></trkpt><trkpt lat="44.27177666417874" lon="11.45863199553846"><ele>286.25</ele><time>2026-05-02T12:27:49.002Z</time></trkpt><trkpt lat="44.27184443890533" lon="11.458491076278884"><ele>287.5</ele><time>2026-05-02T12:27:50.002Z</time></trkpt><trkpt lat="44.27193245850697" lon="11.45838210672364"><ele>288.75</ele><time>2026-05-02T12:27:51.002Z</time></trkpt><trkpt lat="44.2720345525632" lon="11.458286451577731"><ele>290.0</ele><time>2026-05-02T12:27:52.002Z</time></trkpt><trkpt lat="44.27215638401197" lon="11.458208132688956"><ele>290.5</ele><time>2026-05-02T12:27:53.002Z</time></trkpt><trkpt lat="44.27228273615583" lon="11.458139226321828"><ele>291.0</ele><time>2026-05-02T12:27:54.002Z</time></trkpt><trkpt lat="44.27240929904944" lon="11.45807631630095"><ele>291.5</ele><time>2026-05-02T12:27:55.002Z</time></trkpt><trkpt lat="44.272519055842295" lon="11.457994875108415"><ele>292.0</ele><time>2026-05-02T12:27:56.002Z</time></trkpt><trkpt lat="44.272601347614064" lon="11.457881146309306"><ele>292.0</ele><time>2026-05-02T12:27:57.002Z</time></trkpt><trkpt lat="44.27268279482926" lon="11.457754994331536"><ele>292.0</ele><time>2026-05-02T12:27:58.002Z</time></trkpt><trkpt lat="44.27275764216791" lon="11.457637888379123"><ele>292.0</ele><time>2026-05-02T12:27:59.002Z</time></trkpt><trkpt lat="44.27282978797345" lon="11.457525343590147"><ele>292.0</ele><time>2026-05-02T12:28:00.002Z</time></trkpt><trkpt lat="44.2729071044991" lon="11.457432630332702"><ele>292.0</ele><time>2026-05-02T12:28:01.002Z</time></trkpt><trkpt lat="44.27298004959954" lon="11.457366770754584"><ele>292.0</ele><time>2026-05-02T12:28:02.002Z</time></trkpt><trkpt lat="44.273064569191774" lon="11.457341806809238"><ele>292.0</ele><time>2026-05-02T12:28:03.002Z</time></trkpt><trkpt lat="44.273152381046735" lon="11.457337453034297"><ele>292.0</ele><time>2026-05-02T12:28:04.002Z</time></trkpt><trkpt lat="44.27325196681203" lon="11.45737384783672"><ele>292.0</ele><time>2026-05-02T12:28:05.002Z</time></trkpt><trkpt lat="44.27335759814931" lon="11.457445002111768"><ele>292.0</ele><time>2026-05-02T12:28:06.002Z</time></trkpt><trkpt lat="44.273474198208206" lon="11.457508740482359"><ele>290.75</ele><time>2026-05-02T12:28:07.002Z</time></trkpt><trkpt lat="44.27359767027974" lon="11.457568808791747"><ele>289.5</ele><time>2026-05-02T12:28:08.002Z</time></trkpt><trkpt lat="44.27373170899214" lon="11.457618321587649"><ele>288.25</ele><time>2026-05-02T12:28:09.002Z</time></trkpt><trkpt lat="44.273871653531266" lon="11.457662851124965"><ele>287.0</ele><time>2026-05-02T12:28:10.002Z</time></trkpt><trkpt lat="44.27401201496685" lon="11.457703847773383"><ele>287.0</ele><time>2026-05-02T12:28:11.002Z</time></trkpt><trkpt lat="44.27414849327" lon="11.457740856601268"><ele>287.0</ele><time>2026-05-02T12:28:12.002Z</time></trkpt><trkpt lat="44.27427459591662" lon="11.457786889334841"><ele>287.0</ele><time>2026-05-02T12:28:13.002Z</time></trkpt><trkpt lat="44.274393664292" lon="11.457838728243056"><ele>287.0</ele><time>2026-05-02T12:28:14.003Z</time></trkpt><trkpt lat="44.27450831090205" lon="11.457898899164787"><ele>284.75</ele><time>2026-05-02T12:28:15.003Z</time></trkpt><trkpt lat="44.27461729933942" lon="11.457978372446648"><ele>282.5</ele><time>2026-05-02T12:28:16.003Z</time></trkpt><trkpt lat="44.27471781268279" lon="11.458084326873685"><ele>280.25</ele><time>2026-05-02T12:28:17.003Z</time></trkpt><trkpt lat="44.2748221341112" lon="11.458201931075891"><ele>278.0</ele><time>2026-05-02T12:28:18.003Z</time></trkpt><trkpt lat="44.27492256450995" lon="11.458319350140794"><ele>278.0</ele><time>2026-05-02T12:28:19.003Z</time></trkpt><trkpt lat="44.275030905015946" lon="11.458429174001608"><ele>278.0</ele><time>2026-05-02T12:28:20.003Z</time></trkpt><trkpt lat="44.275137067820864" lon="11.458529960737083"><ele>278.0</ele><time>2026-05-02T12:28:21.003Z</time></trkpt><trkpt lat="44.27524501894097" lon="11.458613062009494"><ele>278.0</ele><time>2026-05-02T12:28:22.003Z</time></trkpt><trkpt lat="44.275355140264516" lon="11.458677122762847"><ele>278.0</ele><time>2026-05-02T12:28:23.003Z</time></trkpt><trkpt lat="44.275466870127765" lon="11.458721536130453"><ele>278.0</ele><time>2026-05-02T12:28:24.003Z</time></trkpt><trkpt lat="44.27558364588384" lon="11.458760538966013"><ele>278.0</ele><time>2026-05-02T12:28:25.003Z</time></trkpt><trkpt lat="44.275707264686446" lon="11.458793709695142"><ele>278.0</ele><time>2026-05-02T12:28:26.003Z</time></trkpt><trkpt lat="44.275836194096385" lon="11.458819005675053"><ele>277.0</ele><time>2026-05-02T12:28:27.003Z</time></trkpt><trkpt lat="44.275969419314784" lon="11.458842866028627"><ele>276.0</ele><time>2026-05-02T12:28:28.003Z</time></trkpt><trkpt lat="44.276106114525774" lon="11.458876222378345"><ele>275.0</ele><time>2026-05-02T12:28:29.003Z</time></trkpt><trkpt lat="44.27623552744723" lon="11.458908911200194"><ele>274.0</ele><time>2026-05-02T12:28:30.003Z</time></trkpt><trkpt lat="44.27636595408827" lon="11.458925871319083"><ele>273.0</ele><time>2026-05-02T12:28:31.003Z</time></trkpt><trkpt lat="44.276493044924905" lon="11.458925550798975"><ele>272.0</ele><time>2026-05-02T12:28:32.003Z</time></trkpt><trkpt lat="44.27661693614654" lon="11.458904457992833"><ele>271.0</ele><time>2026-05-02T12:28:33.003Z</time></trkpt><trkpt lat="44.27673702202727" lon="11.458868992276802"><ele>270.0</ele><time>2026-05-02T12:28:34.003Z</time></trkpt><trkpt lat="44.276846804189326" lon="11.458802048138935"><ele>270.4</ele><time>2026-05-02T12:28:35.003Z</time></trkpt><trkpt lat="44.276950936925665" lon="11.458703798758451"><ele>270.8</ele><time>2026-05-02T12:28:36.003Z</time></trkpt><trkpt lat="44.277037898565915" lon="11.458609808150774"><ele>271.2</ele><time>2026-05-02T12:28:37.003Z</time></trkpt><trkpt lat="44.277130037692636" lon="11.458534373647518"><ele>271.6</ele><time>2026-05-02T12:28:38.003Z</time></trkpt><trkpt lat="44.27723255798134" lon="11.458498083206303"><ele>272.0</ele><time>2026-05-02T12:28:39.003Z</time></trkpt><trkpt lat="44.277331397612485" lon="11.458513078584728"><ele>272.0</ele><time>2026-05-02T12:28:40.003Z</time></trkpt><trkpt lat="44.27742933241825" lon="11.45857048406585"><ele>272.0</ele><time>2026-05-02T12:28:41.003Z</time></trkpt><trkpt lat="44.27752335879075" lon="11.458645526917232"><ele>272.0</ele><time>2026-05-02T12:28:42.003Z</time></trkpt><trkpt lat="44.27762312640596" lon="11.45872735374734"><ele>272.0</ele><time>2026-05-02T12:28:43.003Z</time></trkpt><trkpt lat="44.27773030621042" lon="11.458807708553914"><ele>271.4</ele><time>2026-05-02T12:28:44.003Z</time></trkpt><trkpt lat="44.27782280265073" lon="11.458877442361269"><ele>270.79999999999995</ele><time>2026-05-02T12:28:45Z</time></trkpt><trkpt lat="44.27791322443485" lon="11.458946178434852"><ele>270.2</ele><time>2026-05-02T12:28:46Z</time></trkpt><trkpt lat="44.27800287842325" lon="11.45899246674177"><ele>269.59999999999997</ele><time>2026-05-02T12:28:47Z</time></trkpt><trkpt lat="44.278092771755986" lon="11.45899378917351"><ele>269.0</ele><time>2026-05-02T12:28:48Z</time></trkpt><trkpt lat="44.27818174631014" lon="11.458930826745148"><ele>269.5</ele><time>2026-05-02T12:28:49Z</time></trkpt><trkpt lat="44.27826220603607" lon="11.458837487736435"><ele>270.0</ele><time>2026-05-02T12:28:50Z</time></trkpt><trkpt lat="44.27833361684982" lon="11.458706525582476"><ele>270.5</ele><time>2026-05-02T12:28:51Z</time></trkpt><trkpt lat="44.27840201671627" lon="11.458571750000557"><ele>271.0</ele><time>2026-05-02T12:28:52Z</time></trkpt><trkpt lat="44.27848289886903" lon="11.458438826432948"><ele>271.0</ele><time>2026-05-02T12:28:53Z</time></trkpt><trkpt lat="44.27857357233429" lon="11.458313379895415"><ele>271.0</ele><time>2026-05-02T12:28:54Z</time></trkpt><trkpt lat="44.27867307826978" lon="11.458202878482512"><ele>271.0</ele><time>2026-05-02T12:28:55Z</time></trkpt><trkpt lat="44.278781697930114" lon="11.45810344008488"><ele>271.0</ele><time>2026-05-02T12:28:56Z</time></trkpt><trkpt lat="44.27889644985913" lon="11.458026597287818"><ele>271.0</ele><time>2026-05-02T12:28:57Z</time></trkpt><trkpt lat="44.27901941089343" lon="11.457973042201038"><ele>271.0</ele><time>2026-05-02T12:28:58Z</time></trkpt><trkpt lat="44.279147611674084" lon="11.45794891725683"><ele>271.0</ele><time>2026-05-02T12:28:59Z</time></trkpt><trkpt lat="44.279271821412216" lon="11.457945699729015"><ele>271.0</ele><time>2026-05-02T12:29:00Z</time></trkpt><trkpt lat="44.27938237574512" lon="11.4579760920598"><ele>271.0</ele><time>2026-05-02T12:29:01Z</time></trkpt><trkpt lat="44.2794839828007" lon="11.458003590710957"><ele>271.0</ele><time>2026-05-02T12:29:02Z</time></trkpt><trkpt lat="44.279575493652" lon="11.45800499905107"><ele>271.0</ele><time>2026-05-02T12:29:03Z</time></trkpt><trkpt lat="44.279654115982794" lon="11.457923677634774"><ele>271.0</ele><time>2026-05-02T12:29:04Z</time></trkpt><trkpt lat="44.27970134873938" lon="11.457801609160509"><ele>271.0</ele><time>2026-05-02T12:29:05Z</time></trkpt><trkpt lat="44.279714423709834" lon="11.457664017508685"><ele>271.0</ele><time>2026-05-02T12:29:06Z</time></trkpt><trkpt lat="44.27971322205379" lon="11.457505637235759"><ele>271.0</ele><time>2026-05-02T12:29:07Z</time></trkpt><trkpt lat="44.27971300181998" lon="11.457337967493594"><ele>271.0</ele><time>2026-05-02T12:29:08Z</time></trkpt><trkpt lat="44.27973494944889" lon="11.457157164390312"><ele>271.0</ele><time>2026-05-02T12:29:09Z</time></trkpt><trkpt lat="44.279779125070235" lon="11.456972191848084"><ele>271.75</ele><time>2026-05-02T12:29:10Z</time></trkpt><trkpt lat="44.27982761885114" lon="11.456783466015123"><ele>272.5</ele><time>2026-05-02T12:29:11Z</time></trkpt><trkpt lat="44.279891181320046" lon="11.456598802848939"><ele>273.25</ele><time>2026-05-02T12:29:12Z</time></trkpt><trkpt lat="44.2799595103797" lon="11.45642297467957"><ele>274.0</ele><time>2026-05-02T12:29:13Z</time></trkpt><trkpt lat="44.280031921484124" lon="11.45624637905066"><ele>271.75</ele><time>2026-05-02T12:29:14Z</time></trkpt><trkpt lat="44.28009844309484" lon="11.456066620179511"><ele>269.5</ele><time>2026-05-02T12:29:15.001Z</time></trkpt><trkpt lat="44.28016031669537" lon="11.45589062045579"><ele>267.25</ele><time>2026-05-02T12:29:16.001Z</time></trkpt><trkpt lat="44.280220463994794" lon="11.455722556876465"><ele>265.0</ele><time>2026-05-02T12:29:17.001Z</time></trkpt><trkpt lat="44.280289528776116" lon="11.455562560110621"><ele>264.5</ele><time>2026-05-02T12:29:18.001Z</time></trkpt><trkpt lat="44.280371014233516" lon="11.4554180886719"><ele>264.0</ele><time>2026-05-02T12:29:19.001Z</time></trkpt><trkpt lat="44.28046858065501" lon="11.455290796554149"><ele>263.5</ele><time>2026-05-02T12:29:20.001Z</time></trkpt><trkpt lat="44.28057127644695" lon="11.455171905107653"><ele>263.0</ele><time>2026-05-02T12:29:21.001Z</time></trkpt><trkpt lat="44.28067527051363" lon="11.455046435257804"><ele>263.0</ele><time>2026-05-02T12:29:22.001Z</time></trkpt><trkpt lat="44.28077594793998" lon="11.454931319047235"><ele>263.0</ele><time>2026-05-02T12:29:23.001Z</time></trkpt><trkpt lat="44.28087949823575" lon="11.454830707885005"><ele>263.0</ele><time>2026-05-02T12:29:24.001Z</time></trkpt><trkpt lat="44.28098753980342" lon="11.45473713751769"><ele>263.0</ele><time>2026-05-02T12:29:25.001Z</time></trkpt><trkpt lat="44.28109645817514" lon="11.454645573605239"><ele>262.5</ele><time>2026-05-02T12:29:26.001Z</time></trkpt><trkpt lat="44.281211069673155" lon="11.45456096983736"><ele>262.0</ele><time>2026-05-02T12:29:27.001Z</time></trkpt><trkpt lat="44.28132647022385" lon="11.454473132665303"><ele>261.5</ele><time>2026-05-02T12:29:28.001Z</time></trkpt><trkpt lat="44.28143001970849" lon="11.454373320374975"><ele>261.0</ele><time>2026-05-02T12:29:29.001Z</time></trkpt><trkpt lat="44.28151963404615" lon="11.454258209221353"><ele>261.0</ele><time>2026-05-02T12:29:30.001Z</time></trkpt><trkpt lat="44.28159233335519" lon="11.454125062338585"><ele>261.0</ele><time>2026-05-02T12:29:31.001Z</time></trkpt><trkpt lat="44.28164672666024" lon="11.453982945899936"><ele>261.0</ele><time>2026-05-02T12:29:32.001Z</time></trkpt><trkpt lat="44.2816973940474" lon="11.453852585081354"><ele>261.0</ele><time>2026-05-02T12:29:33.001Z</time></trkpt><trkpt lat="44.281772161638784" lon="11.453752132443109"><ele>261.0</ele><time>2026-05-02T12:29:34.001Z</time></trkpt><trkpt lat="44.28186918250519" lon="11.453697296613957"><ele>260.40000000000003</ele><time>2026-05-02T12:29:35.001Z</time></trkpt><trkpt lat="44.28198353099917" lon="11.453675298753343"><ele>259.8</ele><time>2026-05-02T12:29:36.001Z</time></trkpt><trkpt lat="44.28209436314872" lon="11.453664377914217"><ele>259.20000000000005</ele><time>2026-05-02T12:29:37.001Z</time></trkpt><trkpt lat="44.28219519227598" lon="11.453639255670131"><ele>258.6</ele><time>2026-05-02T12:29:38.001Z</time></trkpt><trkpt lat="44.28229185857429" lon="11.453589090032036"><ele>258.0</ele><time>2026-05-02T12:29:39.001Z</time></trkpt><trkpt lat="44.282382617698374" lon="11.453520565310484"><ele>258.0</ele><time>2026-05-02T12:29:40.001Z</time></trkpt><trkpt lat="44.282455316570136" lon="11.453419726722066"><ele>258.0</ele><time>2026-05-02T12:29:41.001Z</time></trkpt><trkpt lat="44.28249834878758" lon="11.453286341264961"><ele>258.0</ele><time>2026-05-02T12:29:42.001Z</time></trkpt><trkpt lat="44.282527590630906" lon="11.453136528272838"><ele>258.0</ele><time>2026-05-02T12:29:43.001Z</time></trkpt><trkpt lat="44.28256547558502" lon="11.4530053528955"><ele>258.0</ele><time>2026-05-02T12:29:44.001Z</time></trkpt><trkpt lat="44.28261919210788" lon="11.45288874382049"><ele>256.8</ele><time>2026-05-02T12:29:45.001Z</time></trkpt><trkpt lat="44.28271327011208" lon="11.452807568104593"><ele>255.60000000000002</ele><time>2026-05-02T12:29:46.001Z</time></trkpt><trkpt lat="44.282818013237105" lon="11.452770874200377"><ele>254.39999999999998</ele><time>2026-05-02T12:29:47.001Z</time></trkpt><trkpt lat="44.28292878693271" lon="11.45276826282015"><ele>253.2</ele><time>2026-05-02T12:29:48.002Z</time></trkpt><trkpt lat="44.28303930225488" lon="11.45277560955221"><ele>252.0</ele><time>2026-05-02T12:29:49.002Z</time></trkpt><trkpt lat="44.28314917699213" lon="11.452789642530524"><ele>252.0</ele><time>2026-05-02T12:29:50.002Z</time></trkpt><trkpt lat="44.28325463646401" lon="11.452808577681216"><ele>252.0</ele><time>2026-05-02T12:29:51.002Z</time></trkpt><trkpt lat="44.2833534029999" lon="11.452859325144797"><ele>252.0</ele><time>2026-05-02T12:29:52.002Z</time></trkpt><trkpt lat="44.28344073359703" lon="11.452940699751675"><ele>252.0</ele><time>2026-05-02T12:29:53.002Z</time></trkpt><trkpt lat="44.28352725744817" lon="11.453015748652357"><ele>252.0</ele><time>2026-05-02T12:29:54.002Z</time></trkpt><trkpt lat="44.283630331211235" lon="11.453062036347454"><ele>252.6</ele><time>2026-05-02T12:29:55.002Z</time></trkpt><trkpt lat="44.283738172682966" lon="11.45305642427396"><ele>253.2</ele><time>2026-05-02T12:29:56.002Z</time></trkpt><trkpt lat="44.283846503601126" lon="11.45300715698201"><ele>253.8</ele><time>2026-05-02T12:29:57.002Z</time></trkpt><trkpt lat="44.28395565817069" lon="11.45293240638548"><ele>254.4</ele><time>2026-05-02T12:29:58.002Z</time></trkpt><trkpt lat="44.28404048580289" lon="11.452855442294261"><ele>255.0</ele><time>2026-05-02T12:29:59.002Z</time></trkpt><trkpt lat="44.28410814474153" lon="11.45277191130711"><ele>255.0</ele><time>2026-05-02T12:30:00.002Z</time></trkpt><trkpt lat="44.28414155043499" lon="11.452666882158196"><ele>255.0</ele><time>2026-05-02T12:30:01.002Z</time></trkpt><trkpt lat="44.28414367642494" lon="11.45254326295485"><ele>255.0</ele><time>2026-05-02T12:30:02.002Z</time></trkpt><trkpt lat="44.284117207448496" lon="11.452412474660298"><ele>255.0</ele><time>2026-05-02T12:30:03.002Z</time></trkpt><trkpt lat="44.284084556646135" lon="11.45227412126765"><ele>255.0</ele><time>2026-05-02T12:30:04.002Z</time></trkpt><trkpt lat="44.28406931873746" lon="11.4521168427995"><ele>254.2</ele><time>2026-05-02T12:30:05.002Z</time></trkpt><trkpt lat="44.2840803065068" lon="11.45195411262618"><ele>253.4</ele><time>2026-05-02T12:30:06.002Z</time></trkpt><trkpt lat="44.28411421697885" lon="11.451804829163217"><ele>252.60000000000002</ele><time>2026-05-02T12:30:07.002Z</time></trkpt><trkpt lat="44.28417238215431" lon="11.451684380873814"><ele>251.8</ele><time>2026-05-02T12:30:08.002Z</time></trkpt><trkpt lat="44.28425112848471" lon="11.451592837539886"><ele>251.0</ele><time>2026-05-02T12:30:09.002Z</time></trkpt><trkpt lat="44.28434343860685" lon="11.45152925616219"><ele>251.0</ele><time>2026-05-02T12:30:10.002Z</time></trkpt><trkpt lat="44.28444185360529" lon="11.451475049795858"><ele>251.0</ele><time>2026-05-02T12:30:11.002Z</time></trkpt><trkpt lat="44.28455138382833" lon="11.451431590564093"><ele>251.0</ele><time>2026-05-02T12:30:12.002Z</time></trkpt><trkpt lat="44.284675924715316" lon="11.451411821389875"><ele>251.0</ele><time>2026-05-02T12:30:13.002Z</time></trkpt><trkpt lat="44.284809115581666" lon="11.451399506374722"><ele>252.0</ele><time>2026-05-02T12:30:14.002Z</time></trkpt><trkpt lat="44.284942726158555" lon="11.45140165366592"><ele>253.0</ele><time>2026-05-02T12:30:15.002Z</time></trkpt><trkpt lat="44.28507553902399" lon="11.45141616367981"><ele>254.0</ele><time>2026-05-02T12:30:16.002Z</time></trkpt><trkpt lat="44.28520951867526" lon="11.45143573210679"><ele>255.0</ele><time>2026-05-02T12:30:17.002Z</time></trkpt><trkpt lat="44.285336483703624" lon="11.451458663122876"><ele>255.0</ele><time>2026-05-02T12:30:18.002Z</time></trkpt><trkpt lat="44.285453096283895" lon="11.451488375499705"><ele>255.0</ele><time>2026-05-02T12:30:19.002Z</time></trkpt><trkpt lat="44.28556571859217" lon="11.451533785982559"><ele>255.0</ele><time>2026-05-02T12:30:20.002Z</time></trkpt><trkpt lat="44.28566544722736" lon="11.45160367894048"><ele>255.0</ele><time>2026-05-02T12:30:21.002Z</time></trkpt><trkpt lat="44.2857464883064" lon="11.451708442138733"><ele>255.8</ele><time>2026-05-02T12:30:22.003Z</time></trkpt><trkpt lat="44.285804897044855" lon="11.451845571740485"><ele>256.6</ele><time>2026-05-02T12:30:23.003Z</time></trkpt><trkpt lat="44.28583948150158" lon="11.452003322512798"><ele>257.4</ele><time>2026-05-02T12:30:24.003Z</time></trkpt><trkpt lat="44.285892968291805" lon="11.452115366133233"><ele>258.2</ele><time>2026-05-02T12:30:25.003Z</time></trkpt><trkpt lat="44.28597056362903" lon="11.452190377557757"><ele>259.0</ele><time>2026-05-02T12:30:26.003Z</time></trkpt><trkpt lat="44.28606439053996" lon="11.452221030119146"><ele>259.0</ele><time>2026-05-02T12:30:27.003Z</time></trkpt><trkpt lat="44.28617126361305" lon="11.452209506860592"><ele>259.0</ele><time>2026-05-02T12:30:28.003Z</time></trkpt><trkpt lat="44.28627492141521" lon="11.45216997743688"><ele>259.0</ele><time>2026-05-02T12:30:29.003Z</time></trkpt><trkpt lat="44.286363350587955" lon="11.45210422554005"><ele>259.0</ele><time>2026-05-02T12:30:30.003Z</time></trkpt><trkpt lat="44.28643032345286" lon="11.45200271562668"><ele>259.0</ele><time>2026-05-02T12:30:31.003Z</time></trkpt><trkpt lat="44.286470681683134" lon="11.451868794918235"><ele>256.59999999999997</ele><time>2026-05-02T12:30:32.003Z</time></trkpt><trkpt lat="44.286505107615326" lon="11.451745164344345"><ele>254.2</ele><time>2026-05-02T12:30:33.003Z</time></trkpt><trkpt lat="44.28653959699797" lon="11.45162463754491"><ele>251.79999999999998</ele><time>2026-05-02T12:30:34.003Z</time></trkpt><trkpt lat="44.28659541890151" lon="11.451530764586048"><ele>249.39999999999998</ele><time>2026-05-02T12:30:35.003Z</time></trkpt><trkpt lat="44.28667716842498" lon="11.45145472972516"><ele>247.0</ele><time>2026-05-02T12:30:36.003Z</time></trkpt><trkpt lat="44.286775082755575" lon="11.451413428297124"><ele>247.0</ele><time>2026-05-02T12:30:37.003Z</time></trkpt><trkpt lat="44.28687342391012" lon="11.451378877373866"><ele>247.0</ele><time>2026-05-02T12:30:38.003Z</time></trkpt><trkpt lat="44.28696983854113" lon="11.451340697533999"><ele>247.0</ele><time>2026-05-02T12:30:39.003Z</time></trkpt><trkpt lat="44.28705969136143" lon="11.451266942195158"><ele>247.0</ele><time>2026-05-02T12:30:40.003Z</time></trkpt><trkpt lat="44.2871386402846" lon="11.451161159709002"><ele>247.0</ele><time>2026-05-02T12:30:41.003Z</time></trkpt><trkpt lat="44.28720583908221" lon="11.451018491497798"><ele>246.5</ele><time>2026-05-02T12:30:42.003Z</time></trkpt><trkpt lat="44.28726953912282" lon="11.450857514617233"><ele>246.0</ele><time>2026-05-02T12:30:43.003Z</time></trkpt><trkpt lat="44.287334876423024" lon="11.450693429898164"><ele>245.5</ele><time>2026-05-02T12:30:44.003Z</time></trkpt><trkpt lat="44.28739867834417" lon="11.450528553352878"><ele>245.0</ele><time>2026-05-02T12:30:45.003Z</time></trkpt><trkpt lat="44.28745678011921" lon="11.450379663555752"><ele>243.4</ele><time>2026-05-02T12:30:46.003Z</time></trkpt><trkpt lat="44.28751225825384" lon="11.45023202271908"><ele>241.8</ele><time>2026-05-02T12:30:47.003Z</time></trkpt><trkpt lat="44.287561188153724" lon="11.45009973479106"><ele>240.2</ele><time>2026-05-02T12:30:48.003Z</time></trkpt><trkpt lat="44.28761254823648" lon="11.449990712913113"><ele>238.6</ele><time>2026-05-02T12:30:49.003Z</time></trkpt><trkpt lat="44.28768125911473" lon="11.44990154293903"><ele>237.0</ele><time>2026-05-02T12:30:50.003Z</time></trkpt><trkpt lat="44.28778337478126" lon="11.449833662549562"><ele>237.0</ele><time>2026-05-02T12:30:51Z</time></trkpt><trkpt lat="44.28788508791495" lon="11.449776887515155"><ele>237.0</ele><time>2026-05-02T12:30:52Z</time></trkpt><trkpt lat="44.287990811629484" lon="11.449716696879465"><ele>237.0</ele><time>2026-05-02T12:30:53Z</time></trkpt><trkpt lat="44.28810573072549" lon="11.449664997269156"><ele>237.0</ele><time>2026-05-02T12:30:54Z</time></trkpt><trkpt lat="44.28822466939299" lon="11.449594778352708"><ele>236.5</ele><time>2026-05-02T12:30:55Z</time></trkpt><trkpt lat="44.28834052364465" lon="11.44953249938165"><ele>236.0</ele><time>2026-05-02T12:30:56Z</time></trkpt><trkpt lat="44.288454906040855" lon="11.449474531393877"><ele>235.5</ele><time>2026-05-02T12:30:57Z</time></trkpt><trkpt lat="44.28857431897696" lon="11.449422921238853"><ele>235.0</ele><time>2026-05-02T12:30:58Z</time></trkpt><trkpt lat="44.288691629439356" lon="11.449378522266244"><ele>235.0</ele><time>2026-05-02T12:30:59Z</time></trkpt><trkpt lat="44.28881259412103" lon="11.449351681008167"><ele>235.0</ele><time>2026-05-02T12:31:00Z</time></trkpt><trkpt lat="44.288939561929205" lon="11.449342523096632"><ele>235.0</ele><time>2026-05-02T12:31:01Z</time></trkpt><trkpt lat="44.289068930164795" lon="11.44933661576354"><ele>235.0</ele><time>2026-05-02T12:31:02Z</time></trkpt><trkpt lat="44.28919938797993" lon="11.44932689994445"><ele>235.0</ele><time>2026-05-02T12:31:03Z</time></trkpt><trkpt lat="44.28933486195546" lon="11.449321592544363"><ele>235.0</ele><time>2026-05-02T12:31:04Z</time></trkpt><trkpt lat="44.289476464142105" lon="11.449304284168088"><ele>235.0</ele><time>2026-05-02T12:31:05Z</time></trkpt><trkpt lat="44.289610415766866" lon="11.449278275939431"><ele>235.0</ele><time>2026-05-02T12:31:06Z</time></trkpt><trkpt lat="44.28973671635735" lon="11.449252883831075"><ele>235.5</ele><time>2026-05-02T12:31:07Z</time></trkpt><trkpt lat="44.28986346998062" lon="11.44922191141419"><ele>236.0</ele><time>2026-05-02T12:31:08Z</time></trkpt><trkpt lat="44.28998561446848" lon="11.449166436283228"><ele>236.5</ele><time>2026-05-02T12:31:09Z</time></trkpt><trkpt lat="44.290095641628845" lon="11.449071143272759"><ele>237.0</ele><time>2026-05-02T12:31:10Z</time></trkpt><trkpt lat="44.29020567250356" lon="11.448964208709445"><ele>237.0</ele><time>2026-05-02T12:31:11Z</time></trkpt><trkpt lat="44.290310121255175" lon="11.448845469395462"><ele>237.0</ele><time>2026-05-02T12:31:12Z</time></trkpt><trkpt lat="44.29041621512279" lon="11.448731521573018"><ele>237.0</ele><time>2026-05-02T12:31:13Z</time></trkpt><trkpt lat="44.2905187634479" lon="11.448633862285623"><ele>237.0</ele><time>2026-05-02T12:31:14Z</time></trkpt><trkpt lat="44.290619853640095" lon="11.448555247905707"><ele>235.75</ele><time>2026-05-02T12:31:15Z</time></trkpt><trkpt lat="44.29072199256621" lon="11.448496454692146"><ele>234.5</ele><time>2026-05-02T12:31:16Z</time></trkpt><trkpt lat="44.29083339570331" lon="11.448457739071628"><ele>233.25</ele><time>2026-05-02T12:31:17Z</time></trkpt><trkpt lat="44.29095246128449" lon="11.44842140407612"><ele>232.0</ele><time>2026-05-02T12:31:18Z</time></trkpt><trkpt lat="44.29107200481241" lon="11.448394385709811"><ele>232.0</ele><time>2026-05-02T12:31:19Z</time></trkpt><trkpt lat="44.29119968210678" lon="11.448378268061768"><ele>232.0</ele><time>2026-05-02T12:31:20Z</time></trkpt><trkpt lat="44.29132956874186" lon="11.448371445168444"><ele>232.0</ele><time>2026-05-02T12:31:21.001Z</time></trkpt><trkpt lat="44.29145958814841" lon="11.448368418366151"><ele>232.0</ele><time>2026-05-02T12:31:22.001Z</time></trkpt><trkpt lat="44.29158665681937" lon="11.448367465491339"><ele>232.25</ele><time>2026-05-02T12:31:23.001Z</time></trkpt><trkpt lat="44.291712317040535" lon="11.448374631786868"><ele>232.5</ele><time>2026-05-02T12:31:24.001Z</time></trkpt><trkpt lat="44.291833363104786" lon="11.448400748723879"><ele>232.75</ele><time>2026-05-02T12:31:25.001Z</time></trkpt><trkpt lat="44.29195388396891" lon="11.448447607589122"><ele>233.0</ele><time>2026-05-02T12:31:26.001Z</time></trkpt><trkpt lat="44.292073252255726" lon="11.448504426397399"><ele>233.0</ele><time>2026-05-02T12:31:27.001Z</time></trkpt><trkpt lat="44.292182089137974" lon="11.448563008624127"><ele>233.0</ele><time>2026-05-02T12:31:28.001Z</time></trkpt><trkpt lat="44.29228800903849" lon="11.448611984537905"><ele>233.0</ele><time>2026-05-02T12:31:29.001Z</time></trkpt><trkpt lat="44.292386195654615" lon="11.448650312498197"><ele>233.0</ele><time>2026-05-02T12:31:30.001Z</time></trkpt><trkpt lat="44.29248116312327" lon="11.44867113970171"><ele>233.0</ele><time>2026-05-02T12:31:31.001Z</time></trkpt><trkpt lat="44.29257320415241" lon="11.448648220950401"><ele>231.75</ele><time>2026-05-02T12:31:32.001Z</time></trkpt><trkpt lat="44.29265680832843" lon="11.448569504216186"><ele>230.5</ele><time>2026-05-02T12:31:33.001Z</time></trkpt><trkpt lat="44.292730176317654" lon="11.4484503346089"><ele>229.25</ele><time>2026-05-02T12:31:34.001Z</time></trkpt><trkpt lat="44.29280309533369" lon="11.44831723361452"><ele>228.0</ele><time>2026-05-02T12:31:35.001Z</time></trkpt><trkpt lat="44.29288418162808" lon="11.448185862211128"><ele>228.0</ele><time>2026-05-02T12:31:36.001Z</time></trkpt><trkpt lat="44.292967738539986" lon="11.448064565188252"><ele>228.0</ele><time>2026-05-02T12:31:37.001Z</time></trkpt><trkpt lat="44.29304917285513" lon="11.447964218313347"><ele>228.0</ele><time>2026-05-02T12:31:38.001Z</time></trkpt><trkpt lat="44.29313846912367" lon="11.447895363973961"><ele>228.0</ele><time>2026-05-02T12:31:39.001Z</time></trkpt><trkpt lat="44.29322808335919" lon="11.447863018976625"><ele>228.0</ele><time>2026-05-02T12:31:40.001Z</time></trkpt><trkpt lat="44.2933160985822" lon="11.447863114790904"><ele>228.4</ele><time>2026-05-02T12:31:41.001Z</time></trkpt><trkpt lat="44.293401115672005" lon="11.447894228090824"><ele>228.8</ele><time>2026-05-02T12:31:42.001Z</time></trkpt><trkpt lat="44.29348528004543" lon="11.447959600600832"><ele>229.2</ele><time>2026-05-02T12:31:43.001Z</time></trkpt><trkpt lat="44.29355962441678" lon="11.448052101434225"><ele>229.6</ele><time>2026-05-02T12:31:44.001Z</time></trkpt><trkpt lat="44.29363116572927" lon="11.448154733065396"><ele>230.0</ele><time>2026-05-02T12:31:45.001Z</time></trkpt><trkpt lat="44.2937284735" lon="11.448226585557089"><ele>230.0</ele><time>2026-05-02T12:31:46.001Z</time></trkpt><trkpt lat="44.293839561107966" lon="11.448262040863296"><ele>230.0</ele><time>2026-05-02T12:31:47.001Z</time></trkpt><trkpt lat="44.293962293297625" lon="11.448254122493907"><ele>230.0</ele><time>2026-05-02T12:31:48.001Z</time></trkpt><trkpt lat="44.29407753775594" lon="11.448213223913092"><ele>230.0</ele><time>2026-05-02T12:31:49.001Z</time></trkpt><trkpt lat="44.29418803404468" lon="11.448168478408888"><ele>230.0</ele><time>2026-05-02T12:31:50.001Z</time></trkpt><trkpt lat="44.2942904671341" lon="11.448113504622064"><ele>230.0</ele><time>2026-05-02T12:31:51.001Z</time></trkpt><trkpt lat="44.29439343358928" lon="11.448041079768117"><ele>230.0</ele><time>2026-05-02T12:31:52.001Z</time></trkpt><trkpt lat="44.29448772564936" lon="11.447943277609678"><ele>230.0</ele><time>2026-05-02T12:31:53.001Z</time></trkpt><trkpt lat="44.2945767832809" lon="11.447832436992035"><ele>229.25</ele><time>2026-05-02T12:31:54.001Z</time></trkpt><trkpt lat="44.294664275487996" lon="11.447717960698029"><ele>228.5</ele><time>2026-05-02T12:31:55.002Z</time></trkpt><trkpt lat="44.29475445101448" lon="11.447604330975155"><ele>227.75</ele><time>2026-05-02T12:31:56.002Z</time></trkpt><trkpt lat="44.29484984557062" lon="11.447494612092942"><ele>227.0</ele><time>2026-05-02T12:31:57.002Z</time></trkpt><trkpt lat="44.294946567975224" lon="11.447382454595386"><ele>227.0</ele><time>2026-05-02T12:31:58.002Z</time></trkpt><trkpt lat="44.29504351840443" lon="11.447266975212681"><ele>227.0</ele><time>2026-05-02T12:31:59.002Z</time></trkpt><trkpt lat="44.29513402792655" lon="11.44715987426248"><ele>227.0</ele><time>2026-05-02T12:32:00.002Z</time></trkpt><trkpt lat="44.29521987508046" lon="11.447064050080243"><ele>227.0</ele><time>2026-05-02T12:32:01.002Z</time></trkpt><trkpt lat="44.29530323684599" lon="11.446990596379765"><ele>225.39999999999998</ele><time>2026-05-02T12:32:02.002Z</time></trkpt><trkpt lat="44.29539566178082" lon="11.446949165507155"><ele>223.79999999999998</ele><time>2026-05-02T12:32:03.002Z</time></trkpt><trkpt lat="44.29549180012144" lon="11.446931788827412"><ele>222.2</ele><time>2026-05-02T12:32:04.002Z</time></trkpt><trkpt lat="44.29558878887282" lon="11.446932674578758"><ele>220.6</ele><time>2026-05-02T12:32:05.002Z</time></trkpt><trkpt lat="44.29568829464679" lon="11.446956738189387"><ele>219.0</ele><time>2026-05-02T12:32:06.002Z</time></trkpt><trkpt lat="44.295788510327206" lon="11.446998305837523"><ele>218.5</ele><time>2026-05-02T12:32:07.002Z</time></trkpt><trkpt lat="44.29589272106361" lon="11.447057172159596"><ele>218.0</ele><time>2026-05-02T12:32:08.002Z</time></trkpt><trkpt lat="44.29600272055054" lon="11.447127624109045"><ele>217.5</ele><time>2026-05-02T12:32:09.002Z</time></trkpt><trkpt lat="44.296115138527625" lon="11.44721206696978"><ele>217.0</ele><time>2026-05-02T12:32:10.002Z</time></trkpt><trkpt lat="44.296221208910026" lon="11.447294486337528"><ele>219.25</ele><time>2026-05-02T12:32:11.002Z</time></trkpt><trkpt lat="44.29634616297467" lon="11.447339443500097"><ele>221.5</ele><time>2026-05-02T12:32:12.002Z</time></trkpt><trkpt lat="44.29646662596063" lon="11.447349274722447"><ele>223.75</ele><time>2026-05-02T12:32:13.002Z</time></trkpt><trkpt lat="44.2965862207018" lon="11.447339396788697"><ele>226.0</ele><time>2026-05-02T12:32:14.002Z</time></trkpt><trkpt lat="44.296699861535856" lon="11.44732311830215"><ele>226.0</ele><time>2026-05-02T12:32:15.002Z</time></trkpt><trkpt lat="44.29680967575835" lon="11.447288259585306"><ele>226.00000000000003</ele><time>2026-05-02T12:32:16.002Z</time></trkpt><trkpt lat="44.29691305816077" lon="11.447221131104758"><ele>226.00000000000003</ele><time>2026-05-02T12:32:17.002Z</time></trkpt><trkpt lat="44.296990712281136" lon="11.447106795531019"><ele>226.0</ele><time>2026-05-02T12:32:18.002Z</time></trkpt><trkpt lat="44.29705262512398" lon="11.446984531927578"><ele>226.0</ele><time>2026-05-02T12:32:19.002Z</time></trkpt><trkpt lat="44.29712109829898" lon="11.446886481663446"><ele>223.60000000000002</ele><time>2026-05-02T12:32:20.002Z</time></trkpt><trkpt lat="44.297214510060414" lon="11.44683451486488"><ele>221.20000000000002</ele><time>2026-05-02T12:32:21.002Z</time></trkpt><trkpt lat="44.29732004089906" lon="11.446822625979886"><ele>218.79999999999998</ele><time>2026-05-02T12:32:22.002Z</time></trkpt><trkpt lat="44.297430985978544" lon="11.446850876543776"><ele>216.39999999999998</ele><time>2026-05-02T12:32:23.002Z</time></trkpt><trkpt lat="44.297546671056395" lon="11.446886272278721"><ele>214.0</ele><time>2026-05-02T12:32:24.002Z</time></trkpt><trkpt lat="44.297661610749195" lon="11.446891805174676"><ele>213.75</ele><time>2026-05-02T12:32:25.002Z</time></trkpt><trkpt lat="44.297809680575256" lon="11.446879940572856"><ele>213.5</ele><time>2026-05-02T12:32:26.002Z</time></trkpt><trkpt lat="44.297941419771995" lon="11.446818792488653"><ele>213.25</ele><time>2026-05-02T12:32:27.002Z</time></trkpt><trkpt lat="44.29806738148167" lon="11.44674604703907"><ele>213.0</ele><time>2026-05-02T12:32:28.002Z</time></trkpt><trkpt lat="44.298183211608624" lon="11.446679406816372"><ele>213.0</ele><time>2026-05-02T12:32:29.003Z</time></trkpt><trkpt lat="44.29829464945872" lon="11.446627070597831"><ele>213.0</ele><time>2026-05-02T12:32:30.003Z</time></trkpt><trkpt lat="44.29840960156296" lon="11.446582226113838"><ele>213.0</ele><time>2026-05-02T12:32:31.003Z</time></trkpt><trkpt lat="44.298524830346565" lon="11.446563878674834"><ele>213.0</ele><time>2026-05-02T12:32:32.003Z</time></trkpt><trkpt lat="44.29863456967428" lon="11.446569561548724"><ele>213.0</ele><time>2026-05-02T12:32:33.003Z</time></trkpt><trkpt lat="44.29874716897611" lon="11.446607800899569"><ele>213.0</ele><time>2026-05-02T12:32:34.003Z</time></trkpt><trkpt lat="44.29886120670259" lon="11.44667464249172"><ele>213.0</ele><time>2026-05-02T12:32:35.003Z</time></trkpt><trkpt lat="44.29897094738063" lon="11.446763920954204"><ele>213.0</ele><time>2026-05-02T12:32:36.003Z</time></trkpt><trkpt lat="44.29908820626822" lon="11.446848426866678"><ele>212.75</ele><time>2026-05-02T12:32:37.003Z</time></trkpt><trkpt lat="44.29921184347018" lon="11.446897431163647"><ele>212.5</ele><time>2026-05-02T12:32:38.003Z</time></trkpt><trkpt lat="44.299344694245754" lon="11.446913650497274"><ele>212.25</ele><time>2026-05-02T12:32:39.003Z</time></trkpt><trkpt lat="44.299476416408" lon="11.446918618817818"><ele>212.0</ele><time>2026-05-02T12:32:40.003Z</time></trkpt><trkpt lat="44.29960400897966" lon="11.446933527714323"><ele>212.0</ele><time>2026-05-02T12:32:41.003Z</time></trkpt><trkpt lat="44.299735683656415" lon="11.446972609094395"><ele>212.0</ele><time>2026-05-02T12:32:42.003Z</time></trkpt><trkpt lat="44.29986302276898" lon="11.447029778350828"><ele>212.0</ele><time>2026-05-02T12:32:43.003Z</time></trkpt><trkpt lat="44.299983566290244" lon="11.447100409419669"><ele>212.0</ele><time>2026-05-02T12:32:44.003Z</time></trkpt><trkpt lat="44.300109733060104" lon="11.447165654078983"><ele>211.75</ele><time>2026-05-02T12:32:45.003Z</time></trkpt><trkpt lat="44.30023993345029" lon="11.447219701539513"><ele>211.5</ele><time>2026-05-02T12:32:46.003Z</time></trkpt><trkpt lat="44.3003696789196" lon="11.4472746529685"><ele>211.25</ele><time>2026-05-02T12:32:47.003Z</time></trkpt><trkpt lat="44.30049643949704" lon="11.447333760311247"><ele>211.0</ele><time>2026-05-02T12:32:48.003Z</time></trkpt><trkpt lat="44.300624250013826" lon="11.447404153487833"><ele>211.0</ele><time>2026-05-02T12:32:49.003Z</time></trkpt><trkpt lat="44.30074842290373" lon="11.447493278836141"><ele>211.0</ele><time>2026-05-02T12:32:50.003Z</time></trkpt><trkpt lat="44.30086789628952" lon="11.447596644335778"><ele>211.0</ele><time>2026-05-02T12:32:51.003Z</time></trkpt><trkpt lat="44.30099498196659" lon="11.447710292152435"><ele>211.0</ele><time>2026-05-02T12:32:52.003Z</time></trkpt><trkpt lat="44.30111764543048" lon="11.447814749499909"><ele>211.0</ele><time>2026-05-02T12:32:53.003Z</time></trkpt><trkpt lat="44.30123052504996" lon="11.44793204689881"><ele>211.0</ele><time>2026-05-02T12:32:54.003Z</time></trkpt><trkpt lat="44.30134243545457" lon="11.44805867694731"><ele>211.0</ele><time>2026-05-02T12:32:55.003Z</time></trkpt><trkpt lat="44.30145065792835" lon="11.44819096882465"><ele>211.0</ele><time>2026-05-02T12:32:56.003Z</time></trkpt><trkpt lat="44.30154691064097" lon="11.448322030497636"><ele>211.0</ele><time>2026-05-02T12:32:57Z</time></trkpt><trkpt lat="44.301637180995904" lon="11.448449524087842"><ele>211.0</ele><time>2026-05-02T12:32:58Z</time></trkpt><trkpt lat="44.30171096432504" lon="11.448571074438552"><ele>211.0</ele><time>2026-05-02T12:32:59Z</time></trkpt><trkpt lat="44.30177780042915" lon="11.448681333382485"><ele>211.0</ele><time>2026-05-02T12:33:00Z</time></trkpt><trkpt lat="44.30185198277019" lon="11.448771388294722"><ele>211.0</ele><time>2026-05-02T12:33:01Z</time></trkpt><trkpt lat="44.301935843908815" lon="11.448826839724264"><ele>211.0</ele><time>2026-05-02T12:33:02Z</time></trkpt><trkpt lat="44.302032768208655" lon="11.448832603000342"><ele>211.0</ele><time>2026-05-02T12:33:03Z</time></trkpt><trkpt lat="44.302132539987035" lon="11.448784493888333"><ele>211.0</ele><time>2026-05-02T12:33:04Z</time></trkpt><trkpt lat="44.302232582923466" lon="11.448716347601536"><ele>211.0</ele><time>2026-05-02T12:33:05Z</time></trkpt><trkpt lat="44.302344615184914" lon="11.4486616161008"><ele>211.0</ele><time>2026-05-02T12:33:06Z</time></trkpt><trkpt lat="44.30246278208979" lon="11.448610519512052"><ele>210.5</ele><time>2026-05-02T12:33:07Z</time></trkpt><trkpt lat="44.30257802594502" lon="11.448555955898463"><ele>210.0</ele><time>2026-05-02T12:33:08Z</time></trkpt><trkpt lat="44.30268966619606" lon="11.44852776938471"><ele>209.5</ele><time>2026-05-02T12:33:09Z</time></trkpt><trkpt lat="44.302804294174194" lon="11.448540152703131"><ele>209.0</ele><time>2026-05-02T12:33:10Z</time></trkpt><trkpt lat="44.302921466764495" lon="11.448582922013692"><ele>209.0</ele><time>2026-05-02T12:33:11Z</time></trkpt><trkpt lat="44.30303841374875" lon="11.44865310047578"><ele>209.0</ele><time>2026-05-02T12:33:12Z</time></trkpt><trkpt lat="44.30315117478976" lon="11.4487609118931"><ele>209.0</ele><time>2026-05-02T12:33:13Z</time></trkpt><trkpt lat="44.30325524055364" lon="11.448897255065269"><ele>209.0</ele><time>2026-05-02T12:33:14Z</time></trkpt><trkpt lat="44.303353965873775" lon="11.449050696949053"><ele>209.25</ele><time>2026-05-02T12:33:15Z</time></trkpt><trkpt lat="44.30345405376491" lon="11.449205830526125"><ele>209.5</ele><time>2026-05-02T12:33:16Z</time></trkpt><trkpt lat="44.30356376702036" lon="11.449341838074202"><ele>209.75</ele><time>2026-05-02T12:33:17Z</time></trkpt><trkpt lat="44.30368787695114" lon="11.449452736620728"><ele>210.0</ele><time>2026-05-02T12:33:18Z</time></trkpt><trkpt lat="44.30382131420196" lon="11.449565311006943"><ele>209.75</ele><time>2026-05-02T12:33:19Z</time></trkpt><trkpt lat="44.30394775377082" lon="11.44967943978295"><ele>209.5</ele><time>2026-05-02T12:33:20Z</time></trkpt><trkpt lat="44.304070852811975" lon="11.449796155494505"><ele>209.25</ele><time>2026-05-02T12:33:21Z</time></trkpt><trkpt lat="44.30419043506116" lon="11.44990970763796"><ele>209.0</ele><time>2026-05-02T12:33:22Z</time></trkpt><trkpt lat="44.30430970377332" lon="11.450024933773737"><ele>209.0</ele><time>2026-05-02T12:33:23Z</time></trkpt><trkpt lat="44.304426429793075" lon="11.450142752958953"><ele>209.0</ele><time>2026-05-02T12:33:24Z</time></trkpt><trkpt lat="44.30453826789296" lon="11.450265449760483"><ele>209.0</ele><time>2026-05-02T12:33:25Z</time></trkpt><trkpt lat="44.30465219267902" lon="11.450385595618352"><ele>209.0</ele><time>2026-05-02T12:33:26Z</time></trkpt><trkpt lat="44.304777814397035" lon="11.450495530353187"><ele>207.0</ele><time>2026-05-02T12:33:27Z</time></trkpt><trkpt lat="44.30491265347904" lon="11.450592628541047"><ele>205.0</ele><time>2026-05-02T12:33:28.001Z</time></trkpt><trkpt lat="44.305057518246" lon="11.450677738761584"><ele>203.0</ele><time>2026-05-02T12:33:29.001Z</time></trkpt><trkpt lat="44.305207075432655" lon="11.45075322350836"><ele>203.0</ele><time>2026-05-02T12:33:30.001Z</time></trkpt><trkpt lat="44.3053537140261" lon="11.450837859818778"><ele>203.0</ele><time>2026-05-02T12:33:31.001Z</time></trkpt><trkpt lat="44.30548841263669" lon="11.450951812168983"><ele>203.0</ele><time>2026-05-02T12:33:32.001Z</time></trkpt><trkpt lat="44.305607801444985" lon="11.451069475481185"><ele>203.0</ele><time>2026-05-02T12:33:33.001Z</time></trkpt><trkpt lat="44.30571453124528" lon="11.451188735210456"><ele>203.0</ele><time>2026-05-02T12:33:34.001Z</time></trkpt><trkpt lat="44.305812493653356" lon="11.45132641198458"><ele>203.0</ele><time>2026-05-02T12:33:35.001Z</time></trkpt><trkpt lat="44.30590137476334" lon="11.451489737041502"><ele>203.0</ele><time>2026-05-02T12:33:36.001Z</time></trkpt><trkpt lat="44.30597640184397" lon="11.451664683856897"><ele>203.0</ele><time>2026-05-02T12:33:37.001Z</time></trkpt><trkpt lat="44.30603296004233" lon="11.451857077404863"><ele>203.0</ele><time>2026-05-02T12:33:38.001Z</time></trkpt><trkpt lat="44.306079015282194" lon="11.452053372096302"><ele>203.0</ele><time>2026-05-02T12:33:39.001Z</time></trkpt><trkpt lat="44.30613345584309" lon="11.452240686440637"><ele>203.0</ele><time>2026-05-02T12:33:40.001Z</time></trkpt><trkpt lat="44.30621713125012" lon="11.452404870497961"><ele>201.33333333333334</ele><time>2026-05-02T12:33:41.001Z</time></trkpt><trkpt lat="44.30631994523249" lon="11.452559927859575"><ele>199.66666666666669</ele><time>2026-05-02T12:33:42.001Z</time></trkpt><trkpt lat="44.306439557805284" lon="11.452697266395798"><ele>198.0</ele><time>2026-05-02T12:33:43.001Z</time></trkpt><trkpt lat="44.30657260158738" lon="11.452806317158489"><ele>198.0</ele><time>2026-05-02T12:33:44.001Z</time></trkpt><trkpt lat="44.30670405168943" lon="11.45290292035496"><ele>198.0</ele><time>2026-05-02T12:33:45.001Z</time></trkpt><trkpt lat="44.30682557444735" lon="11.453018245984087"><ele>198.0</ele><time>2026-05-02T12:33:46.001Z</time></trkpt><trkpt lat="44.30693677065959" lon="11.453164774371812"><ele>198.0</ele><time>2026-05-02T12:33:47.001Z</time></trkpt><trkpt lat="44.30703039500476" lon="11.453337478049809"><ele>198.0</ele><time>2026-05-02T12:33:48.001Z</time></trkpt><trkpt lat="44.30711132831871" lon="11.453528968948895"><ele>198.0</ele><time>2026-05-02T12:33:49.001Z</time></trkpt><trkpt lat="44.30719303721117" lon="11.453730726578888"><ele>198.0</ele><time>2026-05-02T12:33:50.001Z</time></trkpt><trkpt lat="44.30727784152129" lon="11.453932147602279"><ele>200.0</ele><time>2026-05-02T12:33:51.001Z</time></trkpt><trkpt lat="44.30736947199749" lon="11.454135178523504"><ele>202.0</ele><time>2026-05-02T12:33:52.001Z</time></trkpt><trkpt lat="44.30745953361771" lon="11.454346081187982"><ele>204.0</ele><time>2026-05-02T12:33:53.001Z</time></trkpt><trkpt lat="44.307546716934176" lon="11.454565226922067"><ele>201.66666666666669</ele><time>2026-05-02T12:33:54.001Z</time></trkpt><trkpt lat="44.30762921810275" lon="11.454793518521292"><ele>199.33333333333334</ele><time>2026-05-02T12:33:55.001Z</time></trkpt><trkpt lat="44.30770830452896" lon="11.45502444499357"><ele>197.0</ele><time>2026-05-02T12:33:56.001Z</time></trkpt><trkpt lat="44.307786962833866" lon="11.455258083949236"><ele>195.66666666666669</ele><time>2026-05-02T12:33:57.001Z</time></trkpt><trkpt lat="44.307861922864575" lon="11.455475077177702"><ele>194.33333333333331</ele><time>2026-05-02T12:33:58.001Z</time></trkpt><trkpt lat="44.30793664547035" lon="11.4556801374034"><ele>193.0</ele><time>2026-05-02T12:33:59.001Z</time></trkpt><trkpt lat="44.30800016452956" lon="11.455876917350261"><ele>193.0</ele><time>2026-05-02T12:34:00.001Z</time></trkpt><trkpt lat="44.30806169239876" lon="11.456070549136351"><ele>193.0</ele><time>2026-05-02T12:34:01.002Z</time></trkpt><trkpt lat="44.30811834596109" lon="11.456268892116112"><ele>193.0</ele><time>2026-05-02T12:34:02.002Z</time></trkpt><trkpt lat="44.308173434773984" lon="11.456470193137175"><ele>193.33333333333331</ele><time>2026-05-02T12:34:03.002Z</time></trkpt><trkpt lat="44.30822331252642" lon="11.456671326614853"><ele>193.66666666666669</ele><time>2026-05-02T12:34:04.002Z</time></trkpt><trkpt lat="44.30827682328412" lon="11.456870563660962"><ele>194.0</ele><time>2026-05-02T12:34:05.002Z</time></trkpt><trkpt lat="44.30834081116393" lon="11.457064210558027"><ele>193.25</ele><time>2026-05-02T12:34:06.002Z</time></trkpt><trkpt lat="44.30842101992409" lon="11.45723686356434"><ele>192.5</ele><time>2026-05-02T12:34:07.002Z</time></trkpt><trkpt lat="44.30852681947255" lon="11.457378467941169"><ele>191.75</ele><time>2026-05-02T12:34:08.002Z</time></trkpt><trkpt lat="44.3086556233908" lon="11.45746494303048"><ele>191.0</ele><time>2026-05-02T12:34:09.002Z</time></trkpt><trkpt lat="44.30880030380459" lon="11.457539005558415"><ele>191.66666666666666</ele><time>2026-05-02T12:34:10.002Z</time></trkpt><trkpt lat="44.30895302850013" lon="11.457628165779337"><ele>192.33333333333331</ele><time>2026-05-02T12:34:11.002Z</time></trkpt><trkpt lat="44.309104181264914" lon="11.457729779517493"><ele>193.0</ele><time>2026-05-02T12:34:12.002Z</time></trkpt><trkpt lat="44.30925888799312" lon="11.457831006267076"><ele>193.0</ele><time>2026-05-02T12:34:13.002Z</time></trkpt><trkpt lat="44.30942156598478" lon="11.457928687459294"><ele>193.0</ele><time>2026-05-02T12:34:14.002Z</time></trkpt><trkpt lat="44.30957787132007" lon="11.45802288149241"><ele>193.0</ele><time>2026-05-02T12:34:15.002Z</time></trkpt><trkpt lat="44.309725943311854" lon="11.458134214848307"><ele>192.66666666666666</ele><time>2026-05-02T12:34:16.002Z</time></trkpt><trkpt lat="44.309866875627534" lon="11.458265926009261"><ele>192.33333333333331</ele><time>2026-05-02T12:34:17.002Z</time></trkpt><trkpt lat="44.30999258313076" lon="11.458414681724351"><ele>192.0</ele><time>2026-05-02T12:34:18.002Z</time></trkpt><trkpt lat="44.31010652545048" lon="11.458569702946889"><ele>192.0</ele><time>2026-05-02T12:34:19.002Z</time></trkpt><trkpt lat="44.31020839610388" lon="11.45872640784747"><ele>192.0</ele><time>2026-05-02T12:34:20.002Z</time></trkpt><trkpt lat="44.31030153645426" lon="11.458878167684114"><ele>192.0</ele><time>2026-05-02T12:34:21.002Z</time></trkpt><trkpt lat="44.31038119673001" lon="11.459016949005814"><ele>192.0</ele><time>2026-05-02T12:34:22.002Z</time></trkpt><trkpt lat="44.31045067653675" lon="11.459140376732924"><ele>191.83333333333334</ele><time>2026-05-02T12:34:23.002Z</time></trkpt><trkpt lat="44.310510739962865" lon="11.459252541292715"><ele>191.66666666666666</ele><time>2026-05-02T12:34:24.002Z</time></trkpt><trkpt lat="44.310558823394395" lon="11.45935373953424"><ele>191.5</ele><time>2026-05-02T12:34:25.002Z</time></trkpt><trkpt lat="44.31059933257046" lon="11.459442807179911"><ele>191.33333333333331</ele><time>2026-05-02T12:34:26.002Z</time></trkpt><trkpt lat="44.31063564900999" lon="11.459536615954953"><ele>191.16666666666666</ele><time>2026-05-02T12:34:27.002Z</time></trkpt><trkpt lat="44.31067403152844" lon="11.459641896005747"><ele>191.0</ele><time>2026-05-02T12:34:28.002Z</time></trkpt><trkpt lat="44.31071708707209" lon="11.459766055056717"><ele>191.5</ele><time>2026-05-02T12:34:29.002Z</time></trkpt><trkpt lat="44.310750387574906" lon="11.45991689758163"><ele>192.0</ele><time>2026-05-02T12:34:30.002Z</time></trkpt><trkpt lat="44.310770184458455" lon="11.46009279131487"><ele>192.5</ele><time>2026-05-02T12:34:31.002Z</time></trkpt><trkpt lat="44.31077867005825" lon="11.460286872510634"><ele>193.0</ele><time>2026-05-02T12:34:32.002Z</time></trkpt><trkpt lat="44.310781795191765" lon="11.460498514260323"><ele>191.66666666666666</ele><time>2026-05-02T12:34:33.002Z</time></trkpt><trkpt lat="44.310789648630646" lon="11.460721811578834"><ele>190.33333333333331</ele><time>2026-05-02T12:34:34.003Z</time></trkpt><trkpt lat="44.31079670110633" lon="11.46094998043632"><ele>189.0</ele><time>2026-05-02T12:34:35.003Z</time></trkpt><trkpt lat="44.31080307466396" lon="11.461170647309343"><ele>188.0</ele><time>2026-05-02T12:34:36.003Z</time></trkpt><trkpt lat="44.31081116515154" lon="11.461375183622419"><ele>187.0</ele><time>2026-05-02T12:34:37.003Z</time></trkpt><trkpt lat="44.31083780649369" lon="11.461558689210893"><ele>186.0</ele><time>2026-05-02T12:34:38.003Z</time></trkpt><trkpt lat="44.310900009353524" lon="11.461723057920125"><ele>185.0</ele><time>2026-05-02T12:34:39.003Z</time></trkpt><trkpt lat="44.31099481693888" lon="11.461874659555525"><ele>185.0</ele><time>2026-05-02T12:34:40.003Z</time></trkpt><trkpt lat="44.311116616138854" lon="11.462008177453173"><ele>185.0</ele><time>2026-05-02T12:34:41.003Z</time></trkpt><trkpt lat="44.31125907861494" lon="11.462138813547286"><ele>185.0</ele><time>2026-05-02T12:34:42.003Z</time></trkpt><trkpt lat="44.31140155495381" lon="11.462283704435748"><ele>185.0</ele><time>2026-05-02T12:34:43.003Z</time></trkpt><trkpt lat="44.31155017458196" lon="11.462440139793298"><ele>185.0</ele><time>2026-05-02T12:34:44.003Z</time></trkpt><trkpt lat="44.311705346454566" lon="11.462602399615287"><ele>185.0</ele><time>2026-05-02T12:34:45.003Z</time></trkpt><trkpt lat="44.31186785481624" lon="11.46275602501504"><ele>185.0</ele><time>2026-05-02T12:34:46.003Z</time></trkpt><trkpt lat="44.31202489547519" lon="11.462898310484578"><ele>185.0</ele><time>2026-05-02T12:34:47.003Z</time></trkpt><trkpt lat="44.3121854711841" lon="11.46304120684707"><ele>185.0</ele><time>2026-05-02T12:34:48.003Z</time></trkpt><trkpt lat="44.31234896646933" lon="11.463180151402343"><ele>185.33333333333331</ele><time>2026-05-02T12:34:49.003Z</time></trkpt><trkpt lat="44.31251546329706" lon="11.46331324263824"><ele>185.66666666666666</ele><time>2026-05-02T12:34:50.003Z</time></trkpt><trkpt lat="44.312676854197804" lon="11.463436140194043"><ele>186.0</ele><time>2026-05-02T12:34:51.003Z</time></trkpt><trkpt lat="44.31283492818639" lon="11.463554330197622"><ele>186.0</ele><time>2026-05-02T12:34:52.003Z</time></trkpt><trkpt lat="44.31299425163144" lon="11.463669564945912"><ele>186.0</ele><time>2026-05-02T12:34:53.003Z</time></trkpt><trkpt lat="44.31315291892922" lon="11.463782024498364"><ele>186.0</ele><time>2026-05-02T12:34:54.003Z</time></trkpt><trkpt lat="44.31330793334525" lon="11.463893941210467"><ele>187.0</ele><time>2026-05-02T12:34:55.003Z</time></trkpt><trkpt lat="44.3134622702977" lon="11.464010410460707"><ele>188.0</ele><time>2026-05-02T12:34:56.003Z</time></trkpt><trkpt lat="44.31361329202871" lon="11.464125893841038"><ele>189.0</ele><time>2026-05-02T12:34:57.003Z</time></trkpt><trkpt lat="44.31376597019644" lon="11.464242489694714"><ele>189.66666666666666</ele><time>2026-05-02T12:34:58.003Z</time></trkpt><trkpt lat="44.31391978347868" lon="11.464360728814622"><ele>190.33333333333331</ele><time>2026-05-02T12:34:59.003Z</time></trkpt><trkpt lat="44.31407506045429" lon="11.464483225304237"><ele>191.0</ele><time>2026-05-02T12:35:00.003Z</time></trkpt><trkpt lat="44.314227114933566" lon="11.464606527511968"><ele>189.0</ele><time>2026-05-02T12:35:01.003Z</time></trkpt><trkpt lat="44.31438059742982" lon="11.464726341139091"><ele>187.0</ele><time>2026-05-02T12:35:02.003Z</time></trkpt><trkpt lat="44.314535250432385" lon="11.464843933064238"><ele>185.0</ele><time>2026-05-02T12:35:03Z</time></trkpt><trkpt lat="44.314686032313126" lon="11.464965643637314"><ele>187.0</ele><time>2026-05-02T12:35:04Z</time></trkpt><trkpt lat="44.314829513277985" lon="11.465102544893917"><ele>189.0</ele><time>2026-05-02T12:35:05Z</time></trkpt><trkpt lat="44.31496243104795" lon="11.465267851486479"><ele>191.0</ele><time>2026-05-02T12:35:06Z</time></trkpt><trkpt lat="44.31509068992846" lon="11.465435875760969"><ele>189.0</ele><time>2026-05-02T12:35:07Z</time></trkpt><trkpt lat="44.31520876873494" lon="11.465605967634565"><ele>187.0</ele><time>2026-05-02T12:35:08Z</time></trkpt><trkpt lat="44.31531489039094" lon="11.465766182611441"><ele>185.0</ele><time>2026-05-02T12:35:09Z</time></trkpt><trkpt lat="44.31539686523773" lon="11.465926322803263"><ele>185.0</ele><time>2026-05-02T12:35:10Z</time></trkpt><trkpt lat="44.3154561885661" lon="11.466097957496464"><ele>185.0</ele><time>2026-05-02T12:35:11Z</time></trkpt><trkpt lat="44.31548295507876" lon="11.466280910771292"><ele>185.0</ele><time>2026-05-02T12:35:12Z</time></trkpt><trkpt lat="44.31548317347605" lon="11.466481808151693"><ele>185.0</ele><time>2026-05-02T12:35:13Z</time></trkpt><trkpt lat="44.31546673352323" lon="11.466688167697768"><ele>184.5</ele><time>2026-05-02T12:35:14Z</time></trkpt><trkpt lat="44.31545211723206" lon="11.466881405538599"><ele>184.0</ele><time>2026-05-02T12:35:15Z</time></trkpt><trkpt lat="44.31545055681529" lon="11.467059725287612"><ele>183.5</ele><time>2026-05-02T12:35:16Z</time></trkpt><trkpt lat="44.31547974487204" lon="11.467228576828486"><ele>183.0</ele><time>2026-05-02T12:35:17Z</time></trkpt><trkpt lat="44.315537620708305" lon="11.467393845265063"><ele>183.75</ele><time>2026-05-02T12:35:18Z</time></trkpt><trkpt lat="44.315599787976566" lon="11.467563208585851"><ele>184.5</ele><time>2026-05-02T12:35:19Z</time></trkpt><trkpt lat="44.31564728650639" lon="11.467745909886268"><ele>185.25</ele><time>2026-05-02T12:35:20Z</time></trkpt><trkpt lat="44.31567329687198" lon="11.467928573169432"><ele>186.0</ele><time>2026-05-02T12:35:21Z</time></trkpt><trkpt lat="44.31566565093384" lon="11.468109009330608"><ele>185.25</ele><time>2026-05-02T12:35:22Z</time></trkpt><trkpt lat="44.315620561746016" lon="11.468283907537584"><ele>184.5</ele><time>2026-05-02T12:35:23Z</time></trkpt><trkpt lat="44.31555130344685" lon="11.468465832780241"><ele>183.75</ele><time>2026-05-02T12:35:24Z</time></trkpt><trkpt lat="44.31548625072801" lon="11.468662138903674"><ele>183.0</ele><time>2026-05-02T12:35:25Z</time></trkpt><trkpt lat="44.31541738735695" lon="11.468872262348409"><ele>183.0</ele><time>2026-05-02T12:35:26Z</time></trkpt><trkpt lat="44.31534846709941" lon="11.469092481611428"><ele>183.0</ele><time>2026-05-02T12:35:27Z</time></trkpt><trkpt lat="44.315285640154755" lon="11.469324208798199"><ele>183.0</ele><time>2026-05-02T12:35:28Z</time></trkpt><trkpt lat="44.315225252176035" lon="11.469559192418457"><ele>184.0</ele><time>2026-05-02T12:35:29Z</time></trkpt><trkpt lat="44.3151647389361" lon="11.469798857529948"><ele>185.0</ele><time>2026-05-02T12:35:30Z</time></trkpt><trkpt lat="44.31510623714896" lon="11.47003899102014"><ele>186.0</ele><time>2026-05-02T12:35:31Z</time></trkpt><trkpt lat="44.31505022632226" lon="11.47027519569167"><ele>187.0</ele><time>2026-05-02T12:35:32Z</time></trkpt><trkpt lat="44.314995904220304" lon="11.470501939054241"><ele>188.0</ele><time>2026-05-02T12:35:33Z</time></trkpt><trkpt lat="44.3149443676531" lon="11.470724250127242"><ele>189.0</ele><time>2026-05-02T12:35:34Z</time></trkpt><trkpt lat="44.314889630154376" lon="11.47093944074975"><ele>189.0</ele><time>2026-05-02T12:35:35.001Z</time></trkpt><trkpt lat="44.314833995682754" lon="11.471148982724067"><ele>189.0</ele><time>2026-05-02T12:35:36.001Z</time></trkpt><trkpt lat="44.314780407877564" lon="11.471348958691223"><ele>189.0</ele><time>2026-05-02T12:35:37.001Z</time></trkpt><trkpt lat="44.31473767412895" lon="11.471545635848376"><ele>185.75</ele><time>2026-05-02T12:35:38.001Z</time></trkpt><trkpt lat="44.3146996628264" lon="11.471739935642802"><ele>182.5</ele><time>2026-05-02T12:35:39.001Z</time></trkpt><trkpt lat="44.31466716155827" lon="11.471928902528331"><ele>179.25</ele><time>2026-05-02T12:35:40.001Z</time></trkpt><trkpt lat="44.31465433532486" lon="11.472116656154748"><ele>176.0</ele><time>2026-05-02T12:35:41.001Z</time></trkpt><trkpt lat="44.31466780757444" lon="11.472296483883664"><ele>176.0</ele><time>2026-05-02T12:35:42.001Z</time></trkpt><trkpt lat="44.314714285384056" lon="11.47247068749701"><ele>176.0</ele><time>2026-05-02T12:35:43.001Z</time></trkpt><trkpt lat="44.31479007365948" lon="11.472641135353912"><ele>176.0</ele><time>2026-05-02T12:35:44.001Z</time></trkpt><trkpt lat="44.31486907008664" lon="11.472811587385108"><ele>176.0</ele><time>2026-05-02T12:35:45.001Z</time></trkpt><trkpt lat="44.314929313433744" lon="11.47299952796132"><ele>179.66666666666666</ele><time>2026-05-02T12:35:46.001Z</time></trkpt><trkpt lat="44.31495587501334" lon="11.473211314730289"><ele>183.33333333333334</ele><time>2026-05-02T12:35:47.001Z</time></trkpt><trkpt lat="44.314966512111646" lon="11.47343548486005"><ele>187.0</ele><time>2026-05-02T12:35:48.001Z</time></trkpt><trkpt lat="44.31498781742113" lon="11.473661716721718"><ele>185.66666666666669</ele><time>2026-05-02T12:35:49.001Z</time></trkpt><trkpt lat="44.31501313866306" lon="11.473888971661559"><ele>184.33333333333334</ele><time>2026-05-02T12:35:50.001Z</time></trkpt><trkpt lat="44.31504874383275" lon="11.474110496435644"><ele>183.0</ele><time>2026-05-02T12:35:51.001Z</time></trkpt><trkpt lat="44.315089425072784" lon="11.474319528835075"><ele>183.0</ele><time>2026-05-02T12:35:52.001Z</time></trkpt><trkpt lat="44.315137967724176" lon="11.474521895921244"><ele>183.0</ele><time>2026-05-02T12:35:53.001Z</time></trkpt><trkpt lat="44.31518976625308" lon="11.474723411586151"><ele>183.0</ele><time>2026-05-02T12:35:54.001Z</time></trkpt><trkpt lat="44.31524256224411" lon="11.474928749386772"><ele>181.0</ele><time>2026-05-02T12:35:55.001Z</time></trkpt><trkpt lat="44.31529979873418" lon="11.47514186879071"><ele>179.0</ele><time>2026-05-02T12:35:56.001Z</time></trkpt><trkpt lat="44.31535982891078" lon="11.475356774131987"><ele>177.0</ele><time>2026-05-02T12:35:57.001Z</time></trkpt><trkpt lat="44.315425454425345" lon="11.475563217112978"><ele>177.75</ele><time>2026-05-02T12:35:58.001Z</time></trkpt><trkpt lat="44.31549613064585" lon="11.475761105776511"><ele>178.5</ele><time>2026-05-02T12:35:59.001Z</time></trkpt><trkpt lat="44.31556750368224" lon="11.475942422722431"><ele>179.25</ele><time>2026-05-02T12:36:00.001Z</time></trkpt><trkpt lat="44.31563699344491" lon="11.476116652435952"><ele>180.0</ele><time>2026-05-02T12:36:01.001Z</time></trkpt><trkpt lat="44.31569709749233" lon="11.476285233269975"><ele>180.0</ele><time>2026-05-02T12:36:02.001Z</time></trkpt><trkpt lat="44.315761916867" lon="11.476455879128087"><ele>180.0</ele><time>2026-05-02T12:36:03.001Z</time></trkpt><trkpt lat="44.31582731016597" lon="11.476621381976178"><ele>180.0</ele><time>2026-05-02T12:36:04.001Z</time></trkpt><trkpt lat="44.315902751832176" lon="11.47678961574462"><ele>180.0</ele><time>2026-05-02T12:36:05.001Z</time></trkpt><trkpt lat="44.31596802225318" lon="11.476939094798757"><ele>180.0</ele><time>2026-05-02T12:36:06.001Z</time></trkpt><trkpt lat="44.31606556191551" lon="11.477070684229169"><ele>180.0</ele><time>2026-05-02T12:36:07.002Z</time></trkpt><trkpt lat="44.316185204300396" lon="11.477181856686189"><ele>180.0</ele><time>2026-05-02T12:36:08.002Z</time></trkpt><trkpt lat="44.31631710042835" lon="11.47728057525258"><ele>180.0</ele><time>2026-05-02T12:36:09.002Z</time></trkpt><trkpt lat="44.31644878072444" lon="11.477377608023673"><ele>180.25</ele><time>2026-05-02T12:36:10.002Z</time></trkpt><trkpt lat="44.31657483284276" lon="11.47748915962481"><ele>180.5</ele><time>2026-05-02T12:36:11.002Z</time></trkpt><trkpt lat="44.316680803885255" lon="11.477623387499172"><ele>180.75</ele><time>2026-05-02T12:36:12.002Z</time></trkpt><trkpt lat="44.31676929954235" lon="11.477786719980351"><ele>181.0</ele><time>2026-05-02T12:36:13.002Z</time></trkpt><trkpt lat="44.31683353319685" lon="11.477967367066869"><ele>179.33333333333334</ele><time>2026-05-02T12:36:14.002Z</time></trkpt><trkpt lat="44.31689258687409" lon="11.478157031188516"><ele>177.66666666666666</ele><time>2026-05-02T12:36:15.002Z</time></trkpt><trkpt lat="44.31696705076642" lon="11.478335510358056"><ele>176.0</ele><time>2026-05-02T12:36:16.002Z</time></trkpt><trkpt lat="44.31706798806313" lon="11.478501185709899"><ele>176.0</ele><time>2026-05-02T12:36:17.002Z</time></trkpt><trkpt lat="44.31719066529123" lon="11.478645442379937"><ele>176.0</ele><time>2026-05-02T12:36:18.002Z</time></trkpt><trkpt lat="44.31732610173382" lon="11.478776349792387"><ele>176.0</ele><time>2026-05-02T12:36:19.002Z</time></trkpt><trkpt lat="44.31746322049574" lon="11.478902838943853"><ele>175.66666666666666</ele><time>2026-05-02T12:36:20.002Z</time></trkpt><trkpt lat="44.317593362196725" lon="11.479024465636034"><ele>175.33333333333334</ele><time>2026-05-02T12:36:21.002Z</time></trkpt><trkpt lat="44.317713089802005" lon="11.47916191035382"><ele>175.0</ele><time>2026-05-02T12:36:22.002Z</time></trkpt><trkpt lat="44.317814731365395" lon="11.479321980429168"><ele>175.0</ele><time>2026-05-02T12:36:23.002Z</time></trkpt><trkpt lat="44.31788880044631" lon="11.479505925940417"><ele>175.0</ele><time>2026-05-02T12:36:24.002Z</time></trkpt><trkpt lat="44.317950824157045" lon="11.479689660618263"><ele>175.0</ele><time>2026-05-02T12:36:25.002Z</time></trkpt><trkpt lat="44.31803345786993" lon="11.479838368139422"><ele>175.0</ele><time>2026-05-02T12:36:26.002Z</time></trkpt><trkpt lat="44.318150848627965" lon="11.479963481822082"><ele>176.66666666666669</ele><time>2026-05-02T12:36:27.002Z</time></trkpt><trkpt lat="44.318287618151224" lon="11.480063798714427"><ele>178.33333333333334</ele><time>2026-05-02T12:36:28.002Z</time></trkpt><trkpt lat="44.31843132482542" lon="11.480161042312455"><ele>180.0</ele><time>2026-05-02T12:36:29.002Z</time></trkpt><trkpt lat="44.31856581375392" lon="11.480278559192184"><ele>180.0</ele><time>2026-05-02T12:36:30.002Z</time></trkpt><trkpt lat="44.31869168094702" lon="11.480412107621614"><ele>180.0</ele><time>2026-05-02T12:36:31.002Z</time></trkpt><trkpt lat="44.318811287559164" lon="11.4805698055332"><ele>180.0</ele><time>2026-05-02T12:36:32.002Z</time></trkpt><trkpt lat="44.31892238190735" lon="11.480740902606604"><ele>180.0</ele><time>2026-05-02T12:36:33.002Z</time></trkpt><trkpt lat="44.31902271818755" lon="11.48092514249604"><ele>180.0</ele><time>2026-05-02T12:36:34.002Z</time></trkpt><trkpt lat="44.31912168511448" lon="11.481117303692487"><ele>180.0</ele><time>2026-05-02T12:36:35.002Z</time></trkpt><trkpt lat="44.31922138001963" lon="11.481309835472922"><ele>178.33333333333334</ele><time>2026-05-02T12:36:36.002Z</time></trkpt><trkpt lat="44.31932245844953" lon="11.481505872091251"><ele>176.66666666666669</ele><time>2026-05-02T12:36:37.002Z</time></trkpt><trkpt lat="44.3194282520697" lon="11.481704847150576"><ele>175.0</ele><time>2026-05-02T12:36:38.002Z</time></trkpt><trkpt lat="44.31952958681369" lon="11.481920638881375"><ele>174.0</ele><time>2026-05-02T12:36:39.002Z</time></trkpt><trkpt lat="44.31963098287287" lon="11.48213669695084"><ele>173.0</ele><time>2026-05-02T12:36:40.002Z</time></trkpt><trkpt lat="44.319735531829686" lon="11.482356974347775"><ele>172.0</ele><time>2026-05-02T12:36:41.003Z</time></trkpt><trkpt lat="44.31983393486076" lon="11.482573036560186"><ele>173.33333333333334</ele><time>2026-05-02T12:36:42.003Z</time></trkpt><trkpt lat="44.31992377690285" lon="11.48278103608902"><ele>174.66666666666666</ele><time>2026-05-02T12:36:43.003Z</time></trkpt><trkpt lat="44.32000111165407" lon="11.48297541784251"><ele>176.0</ele><time>2026-05-02T12:36:44.003Z</time></trkpt><trkpt lat="44.32007209725089" lon="11.483159409329323"><ele>176.0</ele><time>2026-05-02T12:36:45.003Z</time></trkpt><trkpt lat="44.32012668971642" lon="11.483334205064644"><ele>176.0</ele><time>2026-05-02T12:36:46.003Z</time></trkpt><trkpt lat="44.32016611415392" lon="11.483496312245979"><ele>176.0</ele><time>2026-05-02T12:36:47.003Z</time></trkpt><trkpt lat="44.320190532655445" lon="11.483649911449794"><ele>176.0</ele><time>2026-05-02T12:36:48.003Z</time></trkpt><trkpt lat="44.32020461282397" lon="11.483796783261269"><ele>175.20000000000002</ele><time>2026-05-02T12:36:49.003Z</time></trkpt><trkpt lat="44.32021621981483" lon="11.48394570622018"><ele>174.4</ele><time>2026-05-02T12:36:50.003Z</time></trkpt><trkpt lat="44.320222896970286" lon="11.484093333859633"><ele>173.6</ele><time>2026-05-02T12:36:51.003Z</time></trkpt><trkpt lat="44.32022610633296" lon="11.484247961497843"><ele>172.8</ele><time>2026-05-02T12:36:52.003Z</time></trkpt><trkpt lat="44.320226936291554" lon="11.484406673468074"><ele>172.0</ele><time>2026-05-02T12:36:53.003Z</time></trkpt><trkpt lat="44.32023049184159" lon="11.484569225820493"><ele>172.25</ele><time>2026-05-02T12:36:54.003Z</time></trkpt><trkpt lat="44.320231543559196" lon="11.48473017983856"><ele>172.5</ele><time>2026-05-02T12:36:55.003Z</time></trkpt><trkpt lat="44.32023350353015" lon="11.484899507340876"><ele>172.75</ele><time>2026-05-02T12:36:56.003Z</time></trkpt><trkpt lat="44.32023250699458" lon="11.485076730788414"><ele>173.0</ele><time>2026-05-02T12:36:57.003Z</time></trkpt><trkpt lat="44.320229766555435" lon="11.485254514253088"><ele>173.25</ele><time>2026-05-02T12:36:58.003Z</time></trkpt><trkpt lat="44.320226588422166" lon="11.485442799150308"><ele>173.5</ele><time>2026-05-02T12:36:59.003Z</time></trkpt><trkpt lat="44.32022695790479" lon="11.485633451094223"><ele>173.75</ele><time>2026-05-02T12:37:00.003Z</time></trkpt><trkpt lat="44.32022663578651" lon="11.485812242537472"><ele>174.0</ele><time>2026-05-02T12:37:01.003Z</time></trkpt><trkpt lat="44.32021856493247" lon="11.485984798826873"><ele>174.0</ele><time>2026-05-02T12:37:02.003Z</time></trkpt><trkpt lat="44.32018509486869" lon="11.4861526433709"><ele>174.0</ele><time>2026-05-02T12:37:03.003Z</time></trkpt><trkpt lat="44.32012136881946" lon="11.486307717021226"><ele>174.0</ele><time>2026-05-02T12:37:04.003Z</time></trkpt><trkpt lat="44.3200404755367" lon="11.486452667367336"><ele>174.0</ele><time>2026-05-02T12:37:05.003Z</time></trkpt><trkpt lat="44.319944669637756" lon="11.4865851600063"><ele>174.75</ele><time>2026-05-02T12:37:06.003Z</time></trkpt><trkpt lat="44.31985018128708" lon="11.486719374276886"><ele>175.5</ele><time>2026-05-02T12:37:07.003Z</time></trkpt><trkpt lat="44.319785137349044" lon="11.486880234039651"><ele>176.25</ele><time>2026-05-02T12:37:08.003Z</time></trkpt><trkpt lat="44.31973933420194" lon="11.48705893731554"><ele>177.0</ele><time>2026-05-02T12:37:09Z</time></trkpt><trkpt lat="44.319719416165256" lon="11.48725097586625"><ele>178.0</ele><time>2026-05-02T12:37:10Z</time></trkpt><trkpt lat="44.31973106746564" lon="11.487460697943584"><ele>179.0</ele><time>2026-05-02T12:37:11Z</time></trkpt><trkpt lat="44.319746982498565" lon="11.48768920024108"><ele>180.0</ele><time>2026-05-02T12:37:12Z</time></trkpt><trkpt lat="44.31975488170244" lon="11.487917705024302"><ele>179.33333333333334</ele><time>2026-05-02T12:37:13Z</time></trkpt><trkpt lat="44.319754456818835" lon="11.488148651005961"><ele>178.66666666666669</ele><time>2026-05-02T12:37:14Z</time></trkpt><trkpt lat="44.319743459516204" lon="11.488372484790538"><ele>178.0</ele><time>2026-05-02T12:37:15Z</time></trkpt><trkpt lat="44.31970515355617" lon="11.488580995737815"><ele>174.66666666666669</ele><time>2026-05-02T12:37:16Z</time></trkpt><trkpt lat="44.319646596796616" lon="11.488780143285476"><ele>171.33333333333334</ele><time>2026-05-02T12:37:17Z</time></trkpt><trkpt lat="44.319583848045895" lon="11.488983970595893"><ele>168.0</ele><time>2026-05-02T12:37:18Z</time></trkpt><trkpt lat="44.319534419779785" lon="11.489187364388512"><ele>168.0</ele><time>2026-05-02T12:37:19Z</time></trkpt><trkpt lat="44.31950747089963" lon="11.489400115890126"><ele>168.0</ele><time>2026-05-02T12:37:20Z</time></trkpt><trkpt lat="44.31950260716374" lon="11.489625195508406"><ele>168.0</ele><time>2026-05-02T12:37:21Z</time></trkpt><trkpt lat="44.31950826161683" lon="11.489859558231299"><ele>167.33333333333334</ele><time>2026-05-02T12:37:22Z</time></trkpt><trkpt lat="44.31951062085157" lon="11.490094807632632"><ele>166.66666666666669</ele><time>2026-05-02T12:37:23Z</time></trkpt><trkpt lat="44.31950375107523" lon="11.490333116416757"><ele>166.0</ele><time>2026-05-02T12:37:24Z</time></trkpt><trkpt lat="44.31948794424654" lon="11.490567600225788"><ele>166.0</ele><time>2026-05-02T12:37:25Z</time></trkpt><trkpt lat="44.319455263319874" lon="11.490790462656147"><ele>166.0</ele><time>2026-05-02T12:37:26Z</time></trkpt><trkpt lat="44.31941443404977" lon="11.491008108341658"><ele>166.0</ele><time>2026-05-02T12:37:27Z</time></trkpt><trkpt lat="44.31937880881845" lon="11.491220065460562"><ele>167.66666666666669</ele><time>2026-05-02T12:37:28Z</time></trkpt><trkpt lat="44.319356580518935" lon="11.491433481637685"><ele>169.33333333333334</ele><time>2026-05-02T12:37:29Z</time></trkpt><trkpt lat="44.31934751072411" lon="11.49164768361458"><ele>171.0</ele><time>2026-05-02T12:37:30Z</time></trkpt><trkpt lat="44.319349965245046" lon="11.49186232336799"><ele>171.0</ele><time>2026-05-02T12:37:31Z</time></trkpt><trkpt lat="44.31936138262744" lon="11.492077917623302"><ele>171.0</ele><time>2026-05-02T12:37:32Z</time></trkpt><trkpt lat="44.31938651929595" lon="11.492293824368641"><ele>171.0</ele><time>2026-05-02T12:37:33Z</time></trkpt><trkpt lat="44.31942770124372" lon="11.492510730040758"><ele>172.0</ele><time>2026-05-02T12:37:34Z</time></trkpt><trkpt lat="44.31948275031477" lon="11.492731074322792"><ele>173.0</ele><time>2026-05-02T12:37:35Z</time></trkpt><trkpt lat="44.31954232454815" lon="11.49294238185996"><ele>174.0</ele><time>2026-05-02T12:37:36Z</time></trkpt><trkpt lat="44.319622340823685" lon="11.493130542715418"><ele>174.0</ele><time>2026-05-02T12:37:37Z</time></trkpt><trkpt lat="44.31969979086257" lon="11.4932975663687"><ele>174.0</ele><time>2026-05-02T12:37:38Z</time></trkpt><trkpt lat="44.31975564049328" lon="11.493463282971737"><ele>174.0</ele><time>2026-05-02T12:37:39.001Z</time></trkpt><trkpt lat="44.31979161937921" lon="11.493639795430205"><ele>174.0</ele><time>2026-05-02T12:37:40.001Z</time></trkpt><trkpt lat="44.31981092831687" lon="11.493831968940482"><ele>172.33333333333334</ele><time>2026-05-02T12:37:41.001Z</time></trkpt><trkpt lat="44.31981081626881" lon="11.494033278509907"><ele>170.66666666666669</ele><time>2026-05-02T12:37:42.001Z</time></trkpt><trkpt lat="44.31978699831969" lon="11.494243276730751"><ele>169.0</ele><time>2026-05-02T12:37:43.001Z</time></trkpt><trkpt lat="44.319733193147265" lon="11.494455344351346"><ele>166.33333333333334</ele><time>2026-05-02T12:37:44.001Z</time></trkpt><trkpt lat="44.319669199841" lon="11.494665572956873"><ele>163.66666666666666</ele><time>2026-05-02T12:37:45.001Z</time></trkpt><trkpt lat="44.31961160598385" lon="11.494886342215544"><ele>161.0</ele><time>2026-05-02T12:37:46.001Z</time></trkpt><trkpt lat="44.31956808004804" lon="11.495108305490243"><ele>161.0</ele><time>2026-05-02T12:37:47.001Z</time></trkpt><trkpt lat="44.3195398487886" lon="11.495322016272572"><ele>161.0</ele><time>2026-05-02T12:37:48.001Z</time></trkpt><trkpt lat="44.319528664969354" lon="11.495536819536245"><ele>161.0</ele><time>2026-05-02T12:37:49.001Z</time></trkpt><trkpt lat="44.3195416735247" lon="11.495761954291892"><ele>160.66666666666666</ele><time>2026-05-02T12:37:50.001Z</time></trkpt><trkpt lat="44.31956473814621" lon="11.49599055794935"><ele>160.33333333333334</ele><time>2026-05-02T12:37:51.001Z</time></trkpt><trkpt lat="44.31956503916299" lon="11.496231782614391"><ele>160.0</ele><time>2026-05-02T12:37:52.001Z</time></trkpt><trkpt lat="44.31954401399293" lon="11.496469494641774"><ele>159.66666666666669</ele><time>2026-05-02T12:37:53.001Z</time></trkpt><trkpt lat="44.319494683310104" lon="11.496707946909655"><ele>159.33333333333334</ele><time>2026-05-02T12:37:54.001Z</time></trkpt><trkpt lat="44.31943475597742" lon="11.49694560095892"><ele>159.0</ele><time>2026-05-02T12:37:55.001Z</time></trkpt><trkpt lat="44.31937462451795" lon="11.497187205594157"><ele>159.0</ele><time>2026-05-02T12:37:56.001Z</time></trkpt><trkpt lat="44.31932402527534" lon="11.497424730163239"><ele>159.0</ele><time>2026-05-02T12:37:57.001Z</time></trkpt><trkpt lat="44.31928856922228" lon="11.497662283864134"><ele>159.0</ele><time>2026-05-02T12:37:58.001Z</time></trkpt><trkpt lat="44.31926242750781" lon="11.49789766413191"><ele>159.33333333333334</ele><time>2026-05-02T12:37:59.001Z</time></trkpt><trkpt lat="44.31925028478334" lon="11.498128801374326"><ele>159.66666666666669</ele><time>2026-05-02T12:38:00.001Z</time></trkpt><trkpt lat="44.31925686268752" lon="11.49834631228928"><ele>160.0</ele><time>2026-05-02T12:38:01.001Z</time></trkpt><trkpt lat="44.31927602515197" lon="11.498544575004676"><ele>160.0</ele><time>2026-05-02T12:38:02.001Z</time></trkpt><trkpt lat="44.319326873673866" lon="11.498723279770607"><ele>160.0</ele><time>2026-05-02T12:38:03.001Z</time></trkpt><trkpt lat="44.31940390114386" lon="11.498882158396233"><ele>160.0</ele><time>2026-05-02T12:38:04.001Z</time></trkpt><trkpt lat="44.319492726637" lon="11.499039039711274"><ele>160.0</ele><time>2026-05-02T12:38:05.001Z</time></trkpt><trkpt lat="44.31957223875031" lon="11.499212452799284"><ele>159.33333333333334</ele><time>2026-05-02T12:38:06.001Z</time></trkpt><trkpt lat="44.31963747595916" lon="11.499403526086793"><ele>158.66666666666666</ele><time>2026-05-02T12:38:07.001Z</time></trkpt><trkpt lat="44.31968560040354" lon="11.49961272114308"><ele>158.0</ele><time>2026-05-02T12:38:08.001Z</time></trkpt><trkpt lat="44.31971028783653" lon="11.499829167593072"><ele>158.0</ele><time>2026-05-02T12:38:09.001Z</time></trkpt><trkpt lat="44.31972796566044" lon="11.500036633820532"><ele>158.0</ele><time>2026-05-02T12:38:10.001Z</time></trkpt><trkpt lat="44.31975084888626" lon="11.500228211064714"><ele>158.0</ele><time>2026-05-02T12:38:11.002Z</time></trkpt><trkpt lat="44.319780697307884" lon="11.500415076130674"><ele>158.0</ele><time>2026-05-02T12:38:12.002Z</time></trkpt><trkpt lat="44.31980006083577" lon="11.5005849785179"><ele>158.4</ele><time>2026-05-02T12:38:13.002Z</time></trkpt><trkpt lat="44.31980850651009" lon="11.500750822068591"><ele>158.8</ele><time>2026-05-02T12:38:14.002Z</time></trkpt><trkpt lat="44.31980063796041" lon="11.500905294647586"><ele>159.2</ele><time>2026-05-02T12:38:15.002Z</time></trkpt><trkpt lat="44.31978148457756" lon="11.501049479244001"><ele>159.6</ele><time>2026-05-02T12:38:16.002Z</time></trkpt><trkpt lat="44.31976902035612" lon="11.501183777496555"><ele>160.0</ele><time>2026-05-02T12:38:17.002Z</time></trkpt><trkpt lat="44.31977356731112" lon="11.501322597272898"><ele>160.0</ele><time>2026-05-02T12:38:18.002Z</time></trkpt><trkpt lat="44.319784552416614" lon="11.501457555278847"><ele>160.0</ele><time>2026-05-02T12:38:19.002Z</time></trkpt><trkpt lat="44.31979614181302" lon="11.501584395290354"><ele>160.0</ele><time>2026-05-02T12:38:20.002Z</time></trkpt><trkpt lat="44.31980456784965" lon="11.501700399757004"><ele>160.0</ele><time>2026-05-02T12:38:21.002Z</time></trkpt><trkpt lat="44.31980953292598" lon="11.501803338507631"><ele>160.0</ele><time>2026-05-02T12:38:22.002Z</time></trkpt><trkpt lat="44.31978778539708" lon="11.501975572602115"><ele>160.16666666666669</ele><time>2026-05-02T12:38:24.002Z</time></trkpt><trkpt lat="44.31976604965841" lon="11.502094438545058"><ele>160.33333333333334</ele><time>2026-05-02T12:38:26.002Z</time></trkpt><trkpt lat="44.31975571420823" lon="11.502192541644986"><ele>160.5</ele><time>2026-05-02T12:38:35.002Z</time></trkpt><trkpt lat="44.3197373556159" lon="11.502311988683612"><ele>160.66666666666666</ele><time>2026-05-02T12:38:37.002Z</time></trkpt><trkpt lat="44.319705926621275" lon="11.50239744553289"><ele>160.83333333333331</ele><time>2026-05-02T12:38:38.002Z</time></trkpt><trkpt lat="44.31966789720484" lon="11.502480511576666"><ele>161.0</ele><time>2026-05-02T12:38:39.002Z</time></trkpt><trkpt lat="44.31962123175136" lon="11.502583287030525"><ele>159.75</ele><time>2026-05-02T12:38:40.002Z</time></trkpt><trkpt lat="44.31957199349934" lon="11.502708207024623"><ele>158.5</ele><time>2026-05-02T12:38:41.002Z</time></trkpt><trkpt lat="44.31952012698491" lon="11.50285674954033"><ele>157.25</ele><time>2026-05-02T12:38:42.002Z</time></trkpt><trkpt lat="44.31946538422247" lon="11.503003881791361"><ele>156.0</ele><time>2026-05-02T12:38:43.002Z</time></trkpt><trkpt lat="44.31941309508889" lon="11.503167459451571"><ele>156.0</ele><time>2026-05-02T12:38:44.002Z</time></trkpt><trkpt lat="44.31937124861746" lon="11.50334907093042"><ele>156.0</ele><time>2026-05-02T12:38:45.003Z</time></trkpt><trkpt lat="44.31934829038918" lon="11.503533248115268"><ele>156.0</ele><time>2026-05-02T12:38:46.003Z</time></trkpt><trkpt lat="44.31933750781509" lon="11.503724598036182"><ele>156.0</ele><time>2026-05-02T12:38:47.003Z</time></trkpt><trkpt lat="44.31933634885639" lon="11.503923382284553"><ele>155.0</ele><time>2026-05-02T12:38:48.003Z</time></trkpt><trkpt lat="44.31934706532986" lon="11.504119874782953"><ele>154.0</ele><time>2026-05-02T12:38:49.003Z</time></trkpt><trkpt lat="44.319367828622795" lon="11.504324709925879"><ele>153.0</ele><time>2026-05-02T12:38:50.003Z</time></trkpt><trkpt lat="44.319392280076386" lon="11.504534437981329"><ele>152.0</ele><time>2026-05-02T12:38:51.003Z</time></trkpt><trkpt lat="44.31941994951618" lon="11.504748956488502"><ele>151.66666666666666</ele><time>2026-05-02T12:38:52.003Z</time></trkpt><trkpt lat="44.31945231955676" lon="11.504967323523868"><ele>151.33333333333334</ele><time>2026-05-02T12:38:53.003Z</time></trkpt><trkpt lat="44.319486963008075" lon="11.505191126935769"><ele>151.0</ele><time>2026-05-02T12:38:54.003Z</time></trkpt><trkpt lat="44.31952465967241" lon="11.505412173211656"><ele>150.66666666666669</ele><time>2026-05-02T12:38:55.003Z</time></trkpt><trkpt lat="44.3195663097218" lon="11.50564450695217"><ele>150.33333333333334</ele><time>2026-05-02T12:38:56.003Z</time></trkpt><trkpt lat="44.31960660315519" lon="11.505884019170542"><ele>150.0</ele><time>2026-05-02T12:38:57.003Z</time></trkpt><trkpt lat="44.31964595355642" lon="11.506126340837673"><ele>149.33333333333334</ele><time>2026-05-02T12:38:58.003Z</time></trkpt><trkpt lat="44.319687818393895" lon="11.506376883602776"><ele>148.66666666666669</ele><time>2026-05-02T12:38:59.003Z</time></trkpt><trkpt lat="44.319730587918336" lon="11.506633467513696"><ele>148.0</ele><time>2026-05-02T12:39:00.003Z</time></trkpt><trkpt lat="44.31977479321156" lon="11.506883267258326"><ele>151.0</ele><time>2026-05-02T12:39:01.003Z</time></trkpt><trkpt lat="44.319814960022235" lon="11.50712941532462"><ele>154.0</ele><time>2026-05-02T12:39:02.003Z</time></trkpt><trkpt lat="44.31985521722543" lon="11.507377685683005"><ele>157.0</ele><time>2026-05-02T12:39:03.003Z</time></trkpt><trkpt lat="44.31989477822688" lon="11.507619345130513"><ele>157.0</ele><time>2026-05-02T12:39:04.003Z</time></trkpt><trkpt lat="44.31993582365721" lon="11.507851147221762"><ele>157.0</ele><time>2026-05-02T12:39:05.003Z</time></trkpt><trkpt lat="44.31997400621651" lon="11.508074821106755"><ele>157.0</ele><time>2026-05-02T12:39:06.003Z</time></trkpt><trkpt lat="44.32001011254842" lon="11.508287014455176"><ele>156.25</ele><time>2026-05-02T12:39:07.003Z</time></trkpt><trkpt lat="44.32004640261037" lon="11.508491671849528"><ele>155.5</ele><time>2026-05-02T12:39:08.003Z</time></trkpt><trkpt lat="44.320077112802544" lon="11.508687142677562"><ele>154.75</ele><time>2026-05-02T12:39:09.003Z</time></trkpt><trkpt lat="44.32009206503814" lon="11.508854653917368"><ele>154.0</ele><time>2026-05-02T12:39:10.003Z</time></trkpt><trkpt lat="44.320082947555846" lon="11.509012858368605"><ele>154.0</ele><time>2026-05-02T12:39:11.003Z</time></trkpt><trkpt lat="44.320044223444604" lon="11.509165429696058"><ele>154.0</ele><time>2026-05-02T12:39:12.003Z</time></trkpt><trkpt lat="44.32000059417954" lon="11.509322054157085"><ele>154.0</ele><time>2026-05-02T12:39:13.003Z</time></trkpt><trkpt lat="44.31997318116683" lon="11.50948123362712"><ele>154.0</ele><time>2026-05-02T12:39:14.003Z</time></trkpt><trkpt lat="44.31998157448074" lon="11.509633593081007"><ele>153.25</ele><time>2026-05-02T12:39:15Z</time></trkpt><trkpt lat="44.32001882450585" lon="11.5097898779662"><ele>152.5</ele><time>2026-05-02T12:39:16Z</time></trkpt><trkpt lat="44.32008830579018" lon="11.50993658913119"><ele>151.75</ele><time>2026-05-02T12:39:17Z</time></trkpt><trkpt lat="44.320190879704704" lon="11.510066240124932"><ele>151.0</ele><time>2026-05-02T12:39:18Z</time></trkpt><trkpt lat="44.32030692979954" lon="11.510177936416696"><ele>151.0</ele><time>2026-05-02T12:39:19Z</time></trkpt><trkpt lat="44.3204375812211" lon="11.51030734880995"><ele>151.0</ele><time>2026-05-02T12:39:20Z</time></trkpt><trkpt lat="44.3205653912517" lon="11.510455558688482"><ele>151.0</ele><time>2026-05-02T12:39:21Z</time></trkpt><trkpt lat="44.32067110297359" lon="11.51062585437281"><ele>152.33333333333334</ele><time>2026-05-02T12:39:22Z</time></trkpt><trkpt lat="44.32077766629012" lon="11.51079408527921"><ele>153.66666666666666</ele><time>2026-05-02T12:39:23Z</time></trkpt><trkpt lat="44.32090528752687" lon="11.510941097863475"><ele>155.0</ele><time>2026-05-02T12:39:24Z</time></trkpt><trkpt lat="44.32104458422471" lon="11.511059143612892"><ele>155.0</ele><time>2026-05-02T12:39:25Z</time></trkpt><trkpt lat="44.32117783583852" lon="11.511171540378557"><ele>155.0</ele><time>2026-05-02T12:39:26Z</time></trkpt><trkpt lat="44.321304710569535" lon="11.511297599582301"><ele>155.0</ele><time>2026-05-02T12:39:27Z</time></trkpt><trkpt lat="44.32141339293261" lon="11.511430450019613"><ele>156.25</ele><time>2026-05-02T12:39:28Z</time></trkpt><trkpt lat="44.321514485331846" lon="11.511556054143416"><ele>157.5</ele><time>2026-05-02T12:39:29Z</time></trkpt><trkpt lat="44.321604105041395" lon="11.511670931722472"><ele>158.75</ele><time>2026-05-02T12:39:30Z</time></trkpt><trkpt lat="44.32168432670504" lon="11.511782357003552"><ele>160.0</ele><time>2026-05-02T12:39:31Z</time></trkpt><trkpt lat="44.3217472965282" lon="11.511900086600939"><ele>160.0</ele><time>2026-05-02T12:39:32Z</time></trkpt><trkpt lat="44.321802800074295" lon="11.512035877326829"><ele>160.0</ele><time>2026-05-02T12:39:33Z</time></trkpt><trkpt lat="44.32183055448669" lon="11.512191972577776"><ele>160.0</ele><time>2026-05-02T12:39:34Z</time></trkpt><trkpt lat="44.32183366608163" lon="11.512353920804067"><ele>160.0</ele><time>2026-05-02T12:39:35Z</time></trkpt><trkpt lat="44.32180614263547" lon="11.512520956463554"><ele>159.75</ele><time>2026-05-02T12:39:36Z</time></trkpt><trkpt lat="44.32176286304453" lon="11.512694777311289"><ele>159.5</ele><time>2026-05-02T12:39:37Z</time></trkpt><trkpt lat="44.321708463005784" lon="11.512872647854277"><ele>159.25</ele><time>2026-05-02T12:39:38Z</time></trkpt><trkpt lat="44.321649277464694" lon="11.51305222657303"><ele>159.0</ele><time>2026-05-02T12:39:39Z</time></trkpt><trkpt lat="44.32158896601746" lon="11.513220294229255"><ele>159.0</ele><time>2026-05-02T12:39:40Z</time></trkpt><trkpt lat="44.321545771439126" lon="11.513394176263265"><ele>159.0</ele><time>2026-05-02T12:39:41Z</time></trkpt><trkpt lat="44.32153488579578" lon="11.51359068686118"><ele>159.0</ele><time>2026-05-02T12:39:42Z</time></trkpt><trkpt lat="44.32154651985438" lon="11.51379264658"><ele>159.0</ele><time>2026-05-02T12:39:43Z</time></trkpt><trkpt lat="44.32154995658543" lon="11.51398622960245"><ele>159.5</ele><time>2026-05-02T12:39:44Z</time></trkpt><trkpt lat="44.32154308517927" lon="11.51418207181632"><ele>160.0</ele><time>2026-05-02T12:39:45Z</time></trkpt><trkpt lat="44.32152417748763" lon="11.514377951839586"><ele>160.5</ele><time>2026-05-02T12:39:46Z</time></trkpt><trkpt lat="44.32150419221264" lon="11.514567931792852"><ele>161.0</ele><time>2026-05-02T12:39:47Z</time></trkpt><trkpt lat="44.32148505278864" lon="11.51476911809598"><ele>161.5</ele><time>2026-05-02T12:39:48.001Z</time></trkpt><trkpt lat="44.321468733462815" lon="11.514964810271104"><ele>162.0</ele><time>2026-05-02T12:39:49.001Z</time></trkpt><trkpt lat="44.32145148260277" lon="11.515163472773708"><ele>162.5</ele><time>2026-05-02T12:39:50.001Z</time></trkpt><trkpt lat="44.321438934968256" lon="11.515361175368092"><ele>163.0</ele><time>2026-05-02T12:39:51.001Z</time></trkpt><trkpt lat="44.321442571252064" lon="11.515559219695433"><ele>163.25</ele><time>2026-05-02T12:39:52.001Z</time></trkpt><trkpt lat="44.32144925618361" lon="11.515749477601727"><ele>163.5</ele><time>2026-05-02T12:39:53.001Z</time></trkpt><trkpt lat="44.321459723083656" lon="11.515941261274811"><ele>163.75</ele><time>2026-05-02T12:39:54.001Z</time></trkpt><trkpt lat="44.321477065458495" lon="11.516127664776604"><ele>164.0</ele><time>2026-05-02T12:39:55.001Z</time></trkpt><trkpt lat="44.32150239942832" lon="11.51630945716221"><ele>163.5</ele><time>2026-05-02T12:39:56.001Z</time></trkpt><trkpt lat="44.3215285831747" lon="11.51648529486598"><ele>163.0</ele><time>2026-05-02T12:39:57.001Z</time></trkpt><trkpt lat="44.32155516928281" lon="11.516647765730408"><ele>162.5</ele><time>2026-05-02T12:39:58.001Z</time></trkpt><trkpt lat="44.32158502326738" lon="11.51679945963353"><ele>162.0</ele><time>2026-05-02T12:39:59.001Z</time></trkpt><trkpt lat="44.32162590857717" lon="11.516939738900232"><ele>161.0</ele><time>2026-05-02T12:40:00.001Z</time></trkpt><trkpt lat="44.321685600536185" lon="11.51707373308871"><ele>160.0</ele><time>2026-05-02T12:40:01.001Z</time></trkpt><trkpt lat="44.32175669289838" lon="11.51720759854919"><ele>159.0</ele><time>2026-05-02T12:40:02.001Z</time></trkpt><trkpt lat="44.32182406201546" lon="11.51734932806362"><ele>158.0</ele><time>2026-05-02T12:40:03.001Z</time></trkpt><trkpt lat="44.32188750054336" lon="11.517502864702742"><ele>158.0</ele><time>2026-05-02T12:40:04.001Z</time></trkpt><trkpt lat="44.32194725569471" lon="11.517659672805317"><ele>158.0</ele><time>2026-05-02T12:40:05.001Z</time></trkpt><trkpt lat="44.322008199202955" lon="11.517812219944705"><ele>158.0</ele><time>2026-05-02T12:40:06.001Z</time></trkpt><trkpt lat="44.322065515275" lon="11.517955927462381"><ele>158.0</ele><time>2026-05-02T12:40:07.001Z</time></trkpt><trkpt lat="44.32212320962788" lon="11.518082521908111"><ele>158.20000000000002</ele><time>2026-05-02T12:40:08.001Z</time></trkpt><trkpt lat="44.32219036970612" lon="11.51817544777752"><ele>158.4</ele><time>2026-05-02T12:40:09.001Z</time></trkpt><trkpt lat="44.32227854528683" lon="11.518232298381745"><ele>158.60000000000002</ele><time>2026-05-02T12:40:10.001Z</time></trkpt><trkpt lat="44.322372219576046" lon="11.51825621272566"><ele>158.8</ele><time>2026-05-02T12:40:11.001Z</time></trkpt><trkpt lat="44.322468821913" lon="11.518254612779671"><ele>159.0</ele><time>2026-05-02T12:40:12.001Z</time></trkpt><trkpt lat="44.322561200174526" lon="11.518243547282504"><ele>159.0</ele><time>2026-05-02T12:40:13.001Z</time></trkpt><trkpt lat="44.322658059316225" lon="11.518225487540334"><ele>159.0</ele><time>2026-05-02T12:40:14.001Z</time></trkpt><trkpt lat="44.32275800668562" lon="11.518219457535464"><ele>159.0</ele><time>2026-05-02T12:40:15.001Z</time></trkpt><trkpt lat="44.32285782623843" lon="11.5182407567853"><ele>159.0</ele><time>2026-05-02T12:40:16.001Z</time></trkpt><trkpt lat="44.322948067331" lon="11.51829648473283"><ele>159.0</ele><time>2026-05-02T12:40:17.001Z</time></trkpt><trkpt lat="44.32303811921694" lon="11.518369185340383"><ele>159.0</ele><time>2026-05-02T12:40:18.001Z</time></trkpt><trkpt lat="44.32313165162168" lon="11.518447670699175"><ele>159.0</ele><time>2026-05-02T12:40:19.001Z</time></trkpt><trkpt lat="44.32322726196878" lon="11.51851752218364"><ele>159.0</ele><time>2026-05-02T12:40:20.002Z</time></trkpt><trkpt lat="44.32332739897196" lon="11.518563797498999"><ele>159.0</ele><time>2026-05-02T12:40:21.002Z</time></trkpt><trkpt lat="44.323425217812016" lon="11.51856989399706"><ele>159.0</ele><time>2026-05-02T12:40:22.002Z</time></trkpt><trkpt lat="44.323540750805336" lon="11.518548399557579"><ele>159.0</ele><time>2026-05-02T12:40:23.002Z</time></trkpt><trkpt lat="44.323661080092954" lon="11.518526211667018"><ele>159.0</ele><time>2026-05-02T12:40:24.002Z</time></trkpt><trkpt lat="44.32377887352987" lon="11.518511324883757"><ele>159.0</ele><time>2026-05-02T12:40:25.002Z</time></trkpt><trkpt lat="44.32388829342285" lon="11.518522153307588"><ele>159.0</ele><time>2026-05-02T12:40:26.002Z</time></trkpt><trkpt lat="44.32400442347173" lon="11.518554948401563"><ele>158.0</ele><time>2026-05-02T12:40:27.002Z</time></trkpt><trkpt lat="44.324116132179" lon="11.518617327721332"><ele>157.0</ele><time>2026-05-02T12:40:28.002Z</time></trkpt><trkpt lat="44.324228234783725" lon="11.518682260977151"><ele>156.0</ele><time>2026-05-02T12:40:29.002Z</time></trkpt><trkpt lat="44.32434068447621" lon="11.518759110525677"><ele>155.0</ele><time>2026-05-02T12:40:30.002Z</time></trkpt><trkpt lat="44.32445320652552" lon="11.518845020982338"><ele>153.75</ele><time>2026-05-02T12:40:31.002Z</time></trkpt><trkpt lat="44.32456168039096" lon="11.518938305599292"><ele>152.5</ele><time>2026-05-02T12:40:32.002Z</time></trkpt><trkpt lat="44.32466563494429" lon="11.519028385635131"><ele>151.25</ele><time>2026-05-02T12:40:33.002Z</time></trkpt><trkpt lat="44.32477157932678" lon="11.519110967783053"><ele>150.0</ele><time>2026-05-02T12:40:34.002Z</time></trkpt><trkpt lat="44.324872521815735" lon="11.5191789853955"><ele>150.0</ele><time>2026-05-02T12:40:35.002Z</time></trkpt><trkpt lat="44.32496092593593" lon="11.51926840003279"><ele>150.0</ele><time>2026-05-02T12:40:36.002Z</time></trkpt><trkpt lat="44.32504219686321" lon="11.519377979238861"><ele>150.0</ele><time>2026-05-02T12:40:37.002Z</time></trkpt><trkpt lat="44.325115681457774" lon="11.519497286743565"><ele>150.0</ele><time>2026-05-02T12:40:38.002Z</time></trkpt><trkpt lat="44.3251769369308" lon="11.519636840447355"><ele>149.0</ele><time>2026-05-02T12:40:39.002Z</time></trkpt><trkpt lat="44.32522273620422" lon="11.519787565447535"><ele>148.0</ele><time>2026-05-02T12:40:40.002Z</time></trkpt><trkpt lat="44.32526089834054" lon="11.519948622683955"><ele>147.0</ele><time>2026-05-02T12:40:41.002Z</time></trkpt><trkpt lat="44.325288484690546" lon="11.520111817638037"><ele>146.0</ele><time>2026-05-02T12:40:42.002Z</time></trkpt><trkpt lat="44.32532186060506" lon="11.520269209368852"><ele>145.25</ele><time>2026-05-02T12:40:43.002Z</time></trkpt><trkpt lat="44.32536163367259" lon="11.52042883339584"><ele>144.5</ele><time>2026-05-02T12:40:44.002Z</time></trkpt><trkpt lat="44.32541264339297" lon="11.520578743665544"><ele>143.75</ele><time>2026-05-02T12:40:45.002Z</time></trkpt><trkpt lat="44.32547007309268" lon="11.520713536489023"><ele>143.0</ele><time>2026-05-02T12:40:46.002Z</time></trkpt><trkpt lat="44.32553540104145" lon="11.52084117132411"><ele>143.5</ele><time>2026-05-02T12:40:47.002Z</time></trkpt><trkpt lat="44.32560087737118" lon="11.520975577747276"><ele>144.0</ele><time>2026-05-02T12:40:48.002Z</time></trkpt><trkpt lat="44.325669698449865" lon="11.52111554324796"><ele>144.5</ele><time>2026-05-02T12:40:49.002Z</time></trkpt><trkpt lat="44.32573640398283" lon="11.52125196864787"><ele>145.0</ele><time>2026-05-02T12:40:50.002Z</time></trkpt><trkpt lat="44.32580217251112" lon="11.521379916923717"><ele>145.0</ele><time>2026-05-02T12:40:51.002Z</time></trkpt><trkpt lat="44.32586939918063" lon="11.52148979168002"><ele>145.0</ele><time>2026-05-02T12:40:52.002Z</time></trkpt><trkpt lat="44.32594601123536" lon="11.521598619489293"><ele>145.0</ele><time>2026-05-02T12:40:53.003Z</time></trkpt><trkpt lat="44.32602993426422" lon="11.521684503742724"><ele>145.0</ele><time>2026-05-02T12:40:54.003Z</time></trkpt><trkpt lat="44.32611239937773" lon="11.521775209329874"><ele>145.0</ele><time>2026-05-02T12:40:55.003Z</time></trkpt><trkpt lat="44.32619029550517" lon="11.52186557945067"><ele>145.0</ele><time>2026-05-02T12:40:56.003Z</time></trkpt><trkpt lat="44.3262586981942" lon="11.521958405937287"><ele>145.0</ele><time>2026-05-02T12:40:57.003Z</time></trkpt><trkpt lat="44.32631710874596" lon="11.522049922279873"><ele>145.0</ele><time>2026-05-02T12:40:58.003Z</time></trkpt><trkpt lat="44.326364927791595" lon="11.522150645234952"><ele>145.0</ele><time>2026-05-02T12:40:59.003Z</time></trkpt><trkpt lat="44.32641105090199" lon="11.522252614297713"><ele>145.0</ele><time>2026-05-02T12:41:00.003Z</time></trkpt><trkpt lat="44.32645849355413" lon="11.522367226140785"><ele>146.8</ele><time>2026-05-02T12:41:01.003Z</time></trkpt><trkpt lat="44.32650201611449" lon="11.522493687541546"><ele>148.6</ele><time>2026-05-02T12:41:02.003Z</time></trkpt><trkpt lat="44.32651964417216" lon="11.522624936556333"><ele>150.4</ele><time>2026-05-02T12:41:03.003Z</time></trkpt><trkpt lat="44.32652057717215" lon="11.522754978954268"><ele>152.2</ele><time>2026-05-02T12:41:04.003Z</time></trkpt><trkpt lat="44.32649892593927" lon="11.52288413840404"><ele>154.0</ele><time>2026-05-02T12:41:05.003Z</time></trkpt><trkpt lat="44.32645537817887" lon="11.52300608060485"><ele>151.4</ele><time>2026-05-02T12:41:06.003Z</time></trkpt><trkpt lat="44.32639204580734" lon="11.5231131671479"><ele>148.8</ele><time>2026-05-02T12:41:07.003Z</time></trkpt><trkpt lat="44.32631394400856" lon="11.523204741509492"><ele>146.2</ele><time>2026-05-02T12:41:08.003Z</time></trkpt><trkpt lat="44.32623333476068" lon="11.523296854119321"><ele>143.6</ele><time>2026-05-02T12:41:09.003Z</time></trkpt><trkpt lat="44.32615914347918" lon="11.523395775562069"><ele>141.0</ele><time>2026-05-02T12:41:10.003Z</time></trkpt><trkpt lat="44.32609252981903" lon="11.523497746844686"><ele>141.0</ele><time>2026-05-02T12:41:11.003Z</time></trkpt><trkpt lat="44.326025075115524" lon="11.52359905546336"><ele>141.0</ele><time>2026-05-02T12:41:12.003Z</time></trkpt><trkpt lat="44.32596241965499" lon="11.523698995205512"><ele>141.0</ele><time>2026-05-02T12:41:13.003Z</time></trkpt><trkpt lat="44.3259043104831" lon="11.523801875353259"><ele>141.0</ele><time>2026-05-02T12:41:14.003Z</time></trkpt><trkpt lat="44.325849299484794" lon="11.523898305843897"><ele>141.0</ele><time>2026-05-02T12:41:15.003Z</time></trkpt><trkpt lat="44.32580685104354" lon="11.523999049898535"><ele>141.5</ele><time>2026-05-02T12:41:16.003Z</time></trkpt><trkpt lat="44.32578739271712" lon="11.524107856128266"><ele>142.0</ele><time>2026-05-02T12:41:17.003Z</time></trkpt><trkpt lat="44.32579408434668" lon="11.524221293075477"><ele>142.5</ele><time>2026-05-02T12:41:18.003Z</time></trkpt><trkpt lat="44.325826505221336" lon="11.524321728369571"><ele>143.0</ele><time>2026-05-02T12:41:19.003Z</time></trkpt><trkpt lat="44.325883346810784" lon="11.524409336504553"><ele>143.5</ele><time>2026-05-02T12:41:20.003Z</time></trkpt><trkpt lat="44.325964983963395" lon="11.524461862808991"><ele>144.0</ele><time>2026-05-02T12:41:21Z</time></trkpt><trkpt lat="44.32606235019154" lon="11.524481962792791"><ele>144.0</ele><time>2026-05-02T12:41:22Z</time></trkpt><trkpt lat="44.32616609924508" lon="11.524461709879455"><ele>144.0</ele><time>2026-05-02T12:41:23Z</time></trkpt><trkpt lat="44.32627960854065" lon="11.52442820456053"><ele>144.0</ele><time>2026-05-02T12:41:24Z</time></trkpt><trkpt lat="44.32640529578906" lon="11.52440203914814"><ele>144.0</ele><time>2026-05-02T12:41:25Z</time></trkpt><trkpt lat="44.3265369875946" lon="11.524381938829979"><ele>145.25</ele><time>2026-05-02T12:41:26Z</time></trkpt><trkpt lat="44.32667301176797" lon="11.52436362405501"><ele>146.5</ele><time>2026-05-02T12:41:27Z</time></trkpt><trkpt lat="44.326812017947255" lon="11.524349429121244"><ele>147.75</ele><time>2026-05-02T12:41:28Z</time></trkpt><trkpt lat="44.32694671303982" lon="11.524349574146466"><ele>149.0</ele><time>2026-05-02T12:41:29Z</time></trkpt><trkpt lat="44.3270771842366" lon="11.524364758304404"><ele>149.0</ele><time>2026-05-02T12:41:30Z</time></trkpt><trkpt lat="44.32720535364157" lon="11.524377135920524"><ele>149.0</ele><time>2026-05-02T12:41:31Z</time></trkpt><trkpt lat="44.327340920806684" lon="11.524386110997565"><ele>149.0</ele><time>2026-05-02T12:41:32Z</time></trkpt><trkpt lat="44.32747801812953" lon="11.52439826756519"><ele>149.0</ele><time>2026-05-02T12:41:33Z</time></trkpt><trkpt lat="44.32760910226731" lon="11.524416213848454"><ele>149.0</ele><time>2026-05-02T12:41:34Z</time></trkpt><trkpt lat="44.32773402760442" lon="11.524436881234386"><ele>149.0</ele><time>2026-05-02T12:41:35Z</time></trkpt><trkpt lat="44.3278534975957" lon="11.52446774932423"><ele>149.0</ele><time>2026-05-02T12:41:36Z</time></trkpt><trkpt lat="44.32796587854547" lon="11.52451341469597"><ele>149.0</ele><time>2026-05-02T12:41:37Z</time></trkpt><trkpt lat="44.328071058717256" lon="11.524573962304025"><ele>146.25</ele><time>2026-05-02T12:41:38Z</time></trkpt><trkpt lat="44.32816998134615" lon="11.524640781782427"><ele>143.5</ele><time>2026-05-02T12:41:39Z</time></trkpt><trkpt lat="44.32827096727863" lon="11.524706837278332"><ele>140.75</ele><time>2026-05-02T12:41:40Z</time></trkpt><trkpt lat="44.328381511153246" lon="11.524754033643411"><ele>138.0</ele><time>2026-05-02T12:41:41Z</time></trkpt><trkpt lat="44.32850646450259" lon="11.52477708230106"><ele>138.0</ele><time>2026-05-02T12:41:42Z</time></trkpt><trkpt lat="44.32863464703711" lon="11.524778424942545"><ele>138.0</ele><time>2026-05-02T12:41:43Z</time></trkpt><trkpt lat="44.32876103289221" lon="11.524778624394276"><ele>138.0</ele><time>2026-05-02T12:41:44Z</time></trkpt><trkpt lat="44.328882211957236" lon="11.524799115453883"><ele>138.0</ele><time>2026-05-02T12:41:45Z</time></trkpt><trkpt lat="44.328992781676924" lon="11.524837346600666"><ele>137.4</ele><time>2026-05-02T12:41:46Z</time></trkpt><trkpt lat="44.3291007032789" lon="11.524876081341795"><ele>136.8</ele><time>2026-05-02T12:41:47Z</time></trkpt><trkpt lat="44.32920272829301" lon="11.524918881320009"><ele>136.2</ele><time>2026-05-02T12:41:48Z</time></trkpt><trkpt lat="44.32929887256947" lon="11.52496245385085"><ele>135.6</ele><time>2026-05-02T12:41:49Z</time></trkpt><trkpt lat="44.32938508599125" lon="11.525010456262612"><ele>135.0</ele><time>2026-05-02T12:41:50Z</time></trkpt><trkpt lat="44.32945813791713" lon="11.525085204969646"><ele>135.0</ele><time>2026-05-02T12:41:51Z</time></trkpt><trkpt lat="44.3295153255764" lon="11.525191303627507"><ele>135.0</ele><time>2026-05-02T12:41:52.001Z</time></trkpt><trkpt lat="44.329560947357045" lon="11.52531829884076"><ele>135.0</ele><time>2026-05-02T12:41:53.001Z</time></trkpt><trkpt lat="44.329599861249555" lon="11.525456083444686"><ele>135.0</ele><time>2026-05-02T12:41:54.001Z</time></trkpt><trkpt lat="44.329640712265" lon="11.525597065820376"><ele>135.0</ele><time>2026-05-02T12:41:55.001Z</time></trkpt><trkpt lat="44.32968427912676" lon="11.525736412585148"><ele>133.75</ele><time>2026-05-02T12:41:56.001Z</time></trkpt><trkpt lat="44.329732861748795" lon="11.525874962622975"><ele>132.5</ele><time>2026-05-02T12:41:57.001Z</time></trkpt><trkpt lat="44.329789572809325" lon="11.526013069233372"><ele>131.25</ele><time>2026-05-02T12:41:58.001Z</time></trkpt><trkpt lat="44.32985746517336" lon="11.526148485879451"><ele>130.0</ele><time>2026-05-02T12:41:59.001Z</time></trkpt><trkpt lat="44.3299417373568" lon="11.526277413900472"><ele>130.0</ele><time>2026-05-02T12:42:00.001Z</time></trkpt><trkpt lat="44.330038824869334" lon="11.526402171976502"><ele>130.0</ele><time>2026-05-02T12:42:01.001Z</time></trkpt><trkpt lat="44.330144317949" lon="11.526527647697844"><ele>130.0</ele><time>2026-05-02T12:42:02.001Z</time></trkpt><trkpt lat="44.33025410137182" lon="11.526660283574591"><ele>130.0</ele><time>2026-05-02T12:42:03.001Z</time></trkpt><trkpt lat="44.330360619375526" lon="11.526788186171316"><ele>130.0</ele><time>2026-05-02T12:42:04.001Z</time></trkpt><trkpt lat="44.330460492524864" lon="11.52690415672095"><ele>130.0</ele><time>2026-05-02T12:42:05.001Z</time></trkpt><trkpt lat="44.33055947902516" lon="11.527021447811673"><ele>130.0</ele><time>2026-05-02T12:42:06.001Z</time></trkpt><trkpt lat="44.33065605003318" lon="11.527135449448144"><ele>130.0</ele><time>2026-05-02T12:42:07.001Z</time></trkpt><trkpt lat="44.33074994860387" lon="11.527248816484127"><ele>130.0</ele><time>2026-05-02T12:42:08.001Z</time></trkpt><trkpt lat="44.330840608218274" lon="11.527365258888606"><ele>130.0</ele><time>2026-05-02T12:42:09.001Z</time></trkpt><trkpt lat="44.33093037406483" lon="11.527488832839623"><ele>130.0</ele><time>2026-05-02T12:42:10.001Z</time></trkpt><trkpt lat="44.331019916465465" lon="11.52762087642636"><ele>130.0</ele><time>2026-05-02T12:42:11.001Z</time></trkpt><trkpt lat="44.33110527930945" lon="11.527762849520093"><ele>129.0</ele><time>2026-05-02T12:42:12.001Z</time></trkpt><trkpt lat="44.331185317612174" lon="11.527913579572093"><ele>128.0</ele><time>2026-05-02T12:42:13.001Z</time></trkpt><trkpt lat="44.331262231042665" lon="11.528070201567223"><ele>127.0</ele><time>2026-05-02T12:42:14.001Z</time></trkpt><trkpt lat="44.33132905599671" lon="11.52823565097336"><ele>126.0</ele><time>2026-05-02T12:42:15.001Z</time></trkpt><trkpt lat="44.33138550167206" lon="11.528410866850601"><ele>127.75</ele><time>2026-05-02T12:42:16.001Z</time></trkpt><trkpt lat="44.331428814453105" lon="11.528586849432244"><ele>129.5</ele><time>2026-05-02T12:42:17.001Z</time></trkpt><trkpt lat="44.33146446652693" lon="11.528749851697398"><ele>131.25</ele><time>2026-05-02T12:42:18.001Z</time></trkpt><trkpt lat="44.33149504551692" lon="11.528914720137463"><ele>133.0</ele><time>2026-05-02T12:42:19.001Z</time></trkpt><trkpt lat="44.33151968904973" lon="11.52908580133019"><ele>133.0</ele><time>2026-05-02T12:42:20.001Z</time></trkpt><trkpt lat="44.33153225363879" lon="11.529266440655928"><ele>133.0</ele><time>2026-05-02T12:42:21.001Z</time></trkpt><trkpt lat="44.33153426572049" lon="11.529444416814632"><ele>133.0</ele><time>2026-05-02T12:42:22.001Z</time></trkpt><trkpt lat="44.331533446967924" lon="11.529614459326709"><ele>133.0</ele><time>2026-05-02T12:42:23.002Z</time></trkpt><trkpt lat="44.331533359762865" lon="11.529782329018914"><ele>132.75</ele><time>2026-05-02T12:42:24.002Z</time></trkpt><trkpt lat="44.331532722894586" lon="11.529946527429818"><ele>132.5</ele><time>2026-05-02T12:42:25.002Z</time></trkpt><trkpt lat="44.33152923391446" lon="11.530113635632052"><ele>132.25</ele><time>2026-05-02T12:42:26.002Z</time></trkpt><trkpt lat="44.33152583521508" lon="11.530282017186456"><ele>132.0</ele><time>2026-05-02T12:42:27.002Z</time></trkpt><trkpt lat="44.33152314360035" lon="11.53045593153181"><ele>132.0</ele><time>2026-05-02T12:42:28.002Z</time></trkpt><trkpt lat="44.33152060221254" lon="11.53062449008473"><ele>132.0</ele><time>2026-05-02T12:42:29.002Z</time></trkpt><trkpt lat="44.331519603894684" lon="11.530790752970592"><ele>132.0</ele><time>2026-05-02T12:42:30.002Z</time></trkpt><trkpt lat="44.331522109698945" lon="11.530952771511176"><ele>132.0</ele><time>2026-05-02T12:42:31.002Z</time></trkpt><trkpt lat="44.33152306540764" lon="11.531110452184386"><ele>131.79999999999998</ele><time>2026-05-02T12:42:32.002Z</time></trkpt><trkpt lat="44.331520270838396" lon="11.531264966398494"><ele>131.6</ele><time>2026-05-02T12:42:33.002Z</time></trkpt><trkpt lat="44.331515745580106" lon="11.53141335800304"><ele>131.39999999999998</ele><time>2026-05-02T12:42:34.002Z</time></trkpt><trkpt lat="44.33151336336225" lon="11.531557764576453"><ele>131.2</ele><time>2026-05-02T12:42:35.002Z</time></trkpt><trkpt lat="44.33151734449283" lon="11.531699387055681"><ele>131.0</ele><time>2026-05-02T12:42:36.002Z</time></trkpt><trkpt lat="44.33151998182675" lon="11.531830215207684"><ele>131.0</ele><time>2026-05-02T12:42:37.002Z</time></trkpt><trkpt lat="44.33154063432198" lon="11.531950918234843"><ele>131.0</ele><time>2026-05-02T12:42:38.002Z</time></trkpt><trkpt lat="44.33157110812595" lon="11.532054287978472"><ele>131.0</ele><time>2026-05-02T12:42:39.002Z</time></trkpt><trkpt lat="44.331620636714206" lon="11.532154684618918"><ele>131.0</ele><time>2026-05-02T12:42:40.002Z</time></trkpt><trkpt lat="44.33168457814552" lon="11.532241578409069"><ele>131.0</ele><time>2026-05-02T12:42:41.002Z</time></trkpt><trkpt lat="44.3317531906665" lon="11.532327805663215"><ele>131.0</ele><time>2026-05-02T12:42:42.002Z</time></trkpt><trkpt lat="44.33182958134551" lon="11.532419538825433"><ele>130.5</ele><time>2026-05-02T12:42:43.002Z</time></trkpt><trkpt lat="44.33190861251633" lon="11.532518990287853"><ele>130.0</ele><time>2026-05-02T12:42:44.002Z</time></trkpt><trkpt lat="44.3319968884697" lon="11.53262267045736"><ele>129.5</ele><time>2026-05-02T12:42:45.002Z</time></trkpt><trkpt lat="44.33208314928434" lon="11.532725963675372"><ele>129.0</ele><time>2026-05-02T12:42:46.002Z</time></trkpt><trkpt lat="44.3321757811794" lon="11.532820807201194"><ele>129.0</ele><time>2026-05-02T12:42:47.002Z</time></trkpt><trkpt lat="44.33226763546158" lon="11.532912187165492"><ele>129.0</ele><time>2026-05-02T12:42:48.002Z</time></trkpt><trkpt lat="44.3323688429478" lon="11.532990663392232"><ele>129.0</ele><time>2026-05-02T12:42:49.002Z</time></trkpt><trkpt lat="44.33247082658129" lon="11.533060528621608"><ele>129.0</ele><time>2026-05-02T12:42:50.002Z</time></trkpt><trkpt lat="44.33258400481255" lon="11.533109947506329"><ele>129.0</ele><time>2026-05-02T12:42:51.002Z</time></trkpt><trkpt lat="44.33269810501255" lon="11.53314386152224"><ele>129.0</ele><time>2026-05-02T12:42:52.002Z</time></trkpt><trkpt lat="44.33281259295222" lon="11.533153613009626"><ele>129.0</ele><time>2026-05-02T12:42:53.002Z</time></trkpt><trkpt lat="44.33292851114315" lon="11.533139346457556"><ele>129.0</ele><time>2026-05-02T12:42:54.002Z</time></trkpt><trkpt lat="44.33304290558191" lon="11.533114029277542"><ele>128.6</ele><time>2026-05-02T12:42:55.002Z</time></trkpt><trkpt lat="44.33315225385629" lon="11.533089077066677"><ele>128.2</ele><time>2026-05-02T12:42:56.003Z</time></trkpt><trkpt lat="44.333257223548564" lon="11.533080047874043"><ele>127.79999999999998</ele><time>2026-05-02T12:42:57.003Z</time></trkpt><trkpt lat="44.33335528971049" lon="11.533101300887317"><ele>127.39999999999999</ele><time>2026-05-02T12:42:58.003Z</time></trkpt><trkpt lat="44.33345641337267" lon="11.533140609202688"><ele>127.0</ele><time>2026-05-02T12:42:59.003Z</time></trkpt><trkpt lat="44.33356271385668" lon="11.533186791634252"><ele>127.0</ele><time>2026-05-02T12:43:00.003Z</time></trkpt><trkpt lat="44.333669509062915" lon="11.533233761424643"><ele>127.0</ele><time>2026-05-02T12:43:01.003Z</time></trkpt><trkpt lat="44.33377581121827" lon="11.533276599945413"><ele>127.0</ele><time>2026-05-02T12:43:02.003Z</time></trkpt><trkpt lat="44.333885002052874" lon="11.533324107201086"><ele>127.0</ele><time>2026-05-02T12:43:03.003Z</time></trkpt><trkpt lat="44.33399559547172" lon="11.533380177240048"><ele>127.0</ele><time>2026-05-02T12:43:04.003Z</time></trkpt><trkpt lat="44.33410150069322" lon="11.533451608168996"><ele>127.0</ele><time>2026-05-02T12:43:05.003Z</time></trkpt><trkpt lat="44.334205849187775" lon="11.53353672114552"><ele>127.0</ele><time>2026-05-02T12:43:06.003Z</time></trkpt><trkpt lat="44.33430695486516" lon="11.533631612309323"><ele>127.0</ele><time>2026-05-02T12:43:07.003Z</time></trkpt><trkpt lat="44.33440690469658" lon="11.533729271302011"><ele>127.0</ele><time>2026-05-02T12:43:08.003Z</time></trkpt><trkpt lat="44.33450732612558" lon="11.533825552412662"><ele>127.0</ele><time>2026-05-02T12:43:09.003Z</time></trkpt><trkpt lat="44.334611867663234" lon="11.53392669012969"><ele>127.0</ele><time>2026-05-02T12:43:10.003Z</time></trkpt><trkpt lat="44.33471920782538" lon="11.5340303456174"><ele>127.0</ele><time>2026-05-02T12:43:11.003Z</time></trkpt><trkpt lat="44.33482624210377" lon="11.53413749232874"><ele>127.0</ele><time>2026-05-02T12:43:12.003Z</time></trkpt><trkpt lat="44.33493300332267" lon="11.534243166214043"><ele>127.0</ele><time>2026-05-02T12:43:13.003Z</time></trkpt><trkpt lat="44.33504121460812" lon="11.534351749863655"><ele>127.0</ele><time>2026-05-02T12:43:14.003Z</time></trkpt><trkpt lat="44.33514914709726" lon="11.534459207968899"><ele>127.0</ele><time>2026-05-02T12:43:15.003Z</time></trkpt><trkpt lat="44.335266801438095" lon="11.534568488684089"><ele>127.0</ele><time>2026-05-02T12:43:16.003Z</time></trkpt><trkpt lat="44.33537617719852" lon="11.534685352507662"><ele>127.0</ele><time>2026-05-02T12:43:17.003Z</time></trkpt><trkpt lat="44.33548420479534" lon="11.534808791105805"><ele>127.0</ele><time>2026-05-02T12:43:18.003Z</time></trkpt><trkpt lat="44.335594309810794" lon="11.534935129518294"><ele>127.0</ele><time>2026-05-02T12:43:19.003Z</time></trkpt><trkpt lat="44.335709466909265" lon="11.535060730220886"><ele>127.5</ele><time>2026-05-02T12:43:20.003Z</time></trkpt><trkpt lat="44.33582010399578" lon="11.535186009000915"><ele>128.0</ele><time>2026-05-02T12:43:21.003Z</time></trkpt><trkpt lat="44.33592789975609" lon="11.535308475840335"><ele>128.5</ele><time>2026-05-02T12:43:22.003Z</time></trkpt><trkpt lat="44.3360276126995" lon="11.535428632115346"><ele>129.0</ele><time>2026-05-02T12:43:23.003Z</time></trkpt><trkpt lat="44.33611618910965" lon="11.535546274788294"><ele>129.0</ele><time>2026-05-02T12:43:24.003Z</time></trkpt><trkpt lat="44.33619943571596" lon="11.535661776751608"><ele>129.0</ele><time>2026-05-02T12:43:25.003Z</time></trkpt><trkpt lat="44.33627780601768" lon="11.535783286013835"><ele>129.0</ele><time>2026-05-02T12:43:26.003Z</time></trkpt><trkpt lat="44.3363440290298" lon="11.535920412305348"><ele>129.0</ele><time>2026-05-02T12:43:27Z</time></trkpt><trkpt lat="44.33639179653673" lon="11.536067568758673"><ele>131.0</ele><time>2026-05-02T12:43:28Z</time></trkpt><trkpt lat="44.33642783337021" lon="11.536229849803808"><ele>133.0</ele><time>2026-05-02T12:43:29Z</time></trkpt><trkpt lat="44.33645363783691" lon="11.536401662893462"><ele>135.0</ele><time>2026-05-02T12:43:30Z</time></trkpt><trkpt lat="44.3364683615067" lon="11.536580140408546"><ele>137.0</ele><time>2026-05-02T12:43:31Z</time></trkpt><trkpt lat="44.336469286968324" lon="11.536770426232938"><ele>137.0</ele><time>2026-05-02T12:43:32Z</time></trkpt><trkpt lat="44.336469919504644" lon="11.53696964254741"><ele>137.0</ele><time>2026-05-02T12:43:33Z</time></trkpt><trkpt lat="44.336468722707906" lon="11.537173364544484"><ele>137.0</ele><time>2026-05-02T12:43:34Z</time></trkpt><trkpt lat="44.336462680955165" lon="11.53736649579582"><ele>137.0</ele><time>2026-05-02T12:43:35Z</time></trkpt><trkpt lat="44.336457412352544" lon="11.537548191575448"><ele>136.5</ele><time>2026-05-02T12:43:36Z</time></trkpt><trkpt lat="44.33645735794011" lon="11.537734617531846"><ele>136.0</ele><time>2026-05-02T12:43:37Z</time></trkpt><trkpt lat="44.336452480407054" lon="11.53791608449423"><ele>135.5</ele><time>2026-05-02T12:43:38Z</time></trkpt><trkpt lat="44.33644775876049" lon="11.538091362816346"><ele>135.0</ele><time>2026-05-02T12:43:39Z</time></trkpt><trkpt lat="44.33644110180068" lon="11.538268585995239"><ele>135.0</ele><time>2026-05-02T12:43:40Z</time></trkpt><trkpt lat="44.33643421174861" lon="11.538442570396803"><ele>135.0</ele><time>2026-05-02T12:43:41Z</time></trkpt><trkpt lat="44.33643014935788" lon="11.538613835903888"><ele>135.0</ele><time>2026-05-02T12:43:42Z</time></trkpt><trkpt lat="44.3364309148253" lon="11.53877802207112"><ele>135.0</ele><time>2026-05-02T12:43:43Z</time></trkpt><trkpt lat="44.336435482152325" lon="11.538935963559211"><ele>135.2</ele><time>2026-05-02T12:43:44Z</time></trkpt><trkpt lat="44.3364480075024" lon="11.539087296611306"><ele>135.4</ele><time>2026-05-02T12:43:45Z</time></trkpt><trkpt lat="44.336478823835975" lon="11.53923222272908"><ele>135.6</ele><time>2026-05-02T12:43:46Z</time></trkpt><trkpt lat="44.33653134270305" lon="11.539368873453801"><ele>135.8</ele><time>2026-05-02T12:43:47Z</time></trkpt><trkpt lat="44.33660331135452" lon="11.5394982557915"><ele>136.0</ele><time>2026-05-02T12:43:48Z</time></trkpt><trkpt lat="44.33669151793984" lon="11.539618988407293"><ele>134.75</ele><time>2026-05-02T12:43:49Z</time></trkpt><trkpt lat="44.3367945275772" lon="11.539726924407326"><ele>133.5</ele><time>2026-05-02T12:43:50Z</time></trkpt><trkpt lat="44.33690588824764" lon="11.53982491045634"><ele>132.25</ele><time>2026-05-02T12:43:51Z</time></trkpt><trkpt lat="44.33702191234205" lon="11.539917001476367"><ele>131.0</ele><time>2026-05-02T12:43:52Z</time></trkpt><trkpt lat="44.33713801354034" lon="11.540015053857895"><ele>134.5</ele><time>2026-05-02T12:43:53Z</time></trkpt><trkpt lat="44.337253577534376" lon="11.540112853588196"><ele>138.0</ele><time>2026-05-02T12:43:54Z</time></trkpt><trkpt lat="44.33737251601981" lon="11.540202086031774"><ele>141.5</ele><time>2026-05-02T12:43:55Z</time></trkpt><trkpt lat="44.3374933632832" lon="11.540281660785714"><ele>145.0</ele><time>2026-05-02T12:43:56Z</time></trkpt><trkpt lat="44.33761553195645" lon="11.540355375963188"><ele>144.75</ele><time>2026-05-02T12:43:57Z</time></trkpt><trkpt lat="44.337735918453156" lon="11.540422789875207"><ele>144.5</ele><time>2026-05-02T12:43:58.001Z</time></trkpt><trkpt lat="44.337854555359954" lon="11.540488196501125"><ele>144.25</ele><time>2026-05-02T12:43:59.001Z</time></trkpt><trkpt lat="44.33797450279391" lon="11.54055640426073"><ele>144.0</ele><time>2026-05-02T12:44:00.001Z</time></trkpt><trkpt lat="44.3380976414728" lon="11.540626032501512"><ele>144.0</ele><time>2026-05-02T12:44:01.001Z</time></trkpt><trkpt lat="44.33820974879904" lon="11.540687451153735"><ele>144.0</ele><time>2026-05-02T12:44:02.001Z</time></trkpt><trkpt lat="44.33832591488976" lon="11.540733546192962"><ele>144.0</ele><time>2026-05-02T12:44:03.001Z</time></trkpt><trkpt lat="44.33844039401744" lon="11.540755291668944"><ele>144.0</ele><time>2026-05-02T12:44:04.001Z</time></trkpt><trkpt lat="44.33855984896301" lon="11.540751367235234"><ele>144.0</ele><time>2026-05-02T12:44:05.001Z</time></trkpt><trkpt lat="44.338682049603584" lon="11.540733873660862"><ele>144.0</ele><time>2026-05-02T12:44:06.001Z</time></trkpt><trkpt lat="44.33880178224993" lon="11.540705023882914"><ele>144.0</ele><time>2026-05-02T12:44:07.001Z</time></trkpt><trkpt lat="44.338923018588915" lon="11.54066736963118"><ele>144.0</ele><time>2026-05-02T12:44:08.001Z</time></trkpt><trkpt lat="44.33904067964778" lon="11.540637677524513"><ele>144.0</ele><time>2026-05-02T12:44:09.001Z</time></trkpt><trkpt lat="44.33914752759566" lon="11.540621373225267"><ele>144.0</ele><time>2026-05-02T12:44:10.001Z</time></trkpt><trkpt lat="44.33925331831964" lon="11.540616251042046"><ele>144.0</ele><time>2026-05-02T12:44:11.001Z</time></trkpt><trkpt lat="44.339346657312596" lon="11.540642741395079"><ele>144.0</ele><time>2026-05-02T12:44:12.001Z</time></trkpt><trkpt lat="44.33945213050363" lon="11.540697780327834"><ele>144.0</ele><time>2026-05-02T12:44:13.001Z</time></trkpt><trkpt lat="44.339555494763616" lon="11.540775967893103"><ele>144.0</ele><time>2026-05-02T12:44:14.001Z</time></trkpt><trkpt lat="44.3396686071194" lon="11.540885464178405"><ele>144.0</ele><time>2026-05-02T12:44:15.001Z</time></trkpt><trkpt lat="44.33980958535285" lon="11.541010834068798"><ele>144.0</ele><time>2026-05-02T12:44:16.001Z</time></trkpt><trkpt lat="44.339955830318665" lon="11.54114017303992"><ele>142.33333333333334</ele><time>2026-05-02T12:44:17.001Z</time></trkpt><trkpt lat="44.34011409716869" lon="11.541286389284629"><ele>140.66666666666669</ele><time>2026-05-02T12:44:18.001Z</time></trkpt><trkpt lat="44.34027914092157" lon="11.541442028097693"><ele>139.0</ele><time>2026-05-02T12:44:19.001Z</time></trkpt><trkpt lat="44.3404423669359" lon="11.541605335440714"><ele>137.33333333333334</ele><time>2026-05-02T12:44:20.001Z</time></trkpt><trkpt lat="44.34060350193387" lon="11.541769388949533"><ele>135.66666666666666</ele><time>2026-05-02T12:44:21.001Z</time></trkpt><trkpt lat="44.3407645210489" lon="11.541933963306173"><ele>134.0</ele><time>2026-05-02T12:44:22.001Z</time></trkpt><trkpt lat="44.34092334559355" lon="11.542099865471501"><ele>134.0</ele><time>2026-05-02T12:44:23.001Z</time></trkpt><trkpt lat="44.34107012208696" lon="11.542262855229852"><ele>134.0</ele><time>2026-05-02T12:44:24.001Z</time></trkpt><trkpt lat="44.341212691767375" lon="11.5424328672929"><ele>134.0</ele><time>2026-05-02T12:44:25.001Z</time></trkpt><trkpt lat="44.341346774653886" lon="11.542600112742027"><ele>134.33333333333331</ele><time>2026-05-02T12:44:26.001Z</time></trkpt><trkpt lat="44.341479084663725" lon="11.54275947326055"><ele>134.66666666666666</ele><time>2026-05-02T12:44:27.001Z</time></trkpt><trkpt lat="44.34161132888258" lon="11.542914401495445"><ele>135.0</ele><time>2026-05-02T12:44:28.001Z</time></trkpt><trkpt lat="44.34174171504201" lon="11.543070897177055"><ele>135.0</ele><time>2026-05-02T12:44:29.002Z</time></trkpt><trkpt lat="44.34186237412266" lon="11.543219888475834"><ele>135.0</ele><time>2026-05-02T12:44:30.002Z</time></trkpt><trkpt lat="44.34198117799133" lon="11.543370507761137"><ele>135.0</ele><time>2026-05-02T12:44:31.002Z</time></trkpt><trkpt lat="44.3420967796787" lon="11.543506383725688"><ele>135.0</ele><time>2026-05-02T12:44:32.002Z</time></trkpt><trkpt lat="44.34221460219103" lon="11.54364645545495"><ele>135.0</ele><time>2026-05-02T12:44:33.002Z</time></trkpt><trkpt lat="44.342335709903494" lon="11.543793320539725"><ele>135.0</ele><time>2026-05-02T12:44:34.002Z</time></trkpt><trkpt lat="44.34245651470316" lon="11.543936124273694"><ele>135.0</ele><time>2026-05-02T12:44:35.002Z</time></trkpt><trkpt lat="44.34258064414291" lon="11.544074562781555"><ele>135.0</ele><time>2026-05-02T12:44:36.002Z</time></trkpt><trkpt lat="44.34269870869105" lon="11.544222181605809"><ele>135.0</ele><time>2026-05-02T12:44:37.002Z</time></trkpt><trkpt lat="44.34281630904375" lon="11.54435779938633"><ele>135.0</ele><time>2026-05-02T12:44:38.002Z</time></trkpt><trkpt lat="44.34292707011287" lon="11.544495837687826"><ele>135.0</ele><time>2026-05-02T12:44:39.002Z</time></trkpt><trkpt lat="44.34303516608122" lon="11.54462869309011"><ele>135.0</ele><time>2026-05-02T12:44:40.002Z</time></trkpt><trkpt lat="44.343145043599016" lon="11.544750878523272"><ele>135.0</ele><time>2026-05-02T12:44:41.002Z</time></trkpt><trkpt lat="44.34326150523336" lon="11.544864971651261"><ele>132.5</ele><time>2026-05-02T12:44:42.002Z</time></trkpt><trkpt lat="44.3433822909391" lon="11.544969913274407"><ele>130.0</ele><time>2026-05-02T12:44:43.002Z</time></trkpt><trkpt lat="44.34351104115477" lon="11.54505645029799"><ele>127.5</ele><time>2026-05-02T12:44:44.002Z</time></trkpt><trkpt lat="44.343637663933094" lon="11.545133756972099"><ele>125.0</ele><time>2026-05-02T12:44:45.002Z</time></trkpt><trkpt lat="44.343758911005466" lon="11.545196603019669"><ele>125.0</ele><time>2026-05-02T12:44:46.002Z</time></trkpt><trkpt lat="44.343866915252384" lon="11.545263394322523"><ele>125.0</ele><time>2026-05-02T12:44:47.002Z</time></trkpt><trkpt lat="44.34396965306755" lon="11.545333225109825"><ele>125.0</ele><time>2026-05-02T12:44:48.002Z</time></trkpt><trkpt lat="44.34405449391792" lon="11.54542115591113"><ele>125.0</ele><time>2026-05-02T12:44:49.002Z</time></trkpt><trkpt lat="44.344135334934506" lon="11.545527996275693"><ele>125.0</ele><time>2026-05-02T12:44:50.002Z</time></trkpt><trkpt lat="44.34418254531353" lon="11.545670357156911"><ele>125.5</ele><time>2026-05-02T12:44:51.002Z</time></trkpt><trkpt lat="44.34420521892504" lon="11.545824137322153"><ele>126.0</ele><time>2026-05-02T12:44:52.002Z</time></trkpt><trkpt lat="44.34420554544859" lon="11.545992335643826"><ele>126.5</ele><time>2026-05-02T12:44:53.002Z</time></trkpt><trkpt lat="44.34416301405383" lon="11.546150907438076"><ele>127.0</ele><time>2026-05-02T12:44:54.002Z</time></trkpt><trkpt lat="44.34410816064474" lon="11.546295545421962"><ele>127.0</ele><time>2026-05-02T12:44:55.002Z</time></trkpt><trkpt lat="44.34404271406428" lon="11.54642468598808"><ele>127.0</ele><time>2026-05-02T12:44:56.002Z</time></trkpt><trkpt lat="44.34398474223832" lon="11.546565411823456"><ele>127.0</ele><time>2026-05-02T12:44:57.002Z</time></trkpt><trkpt lat="44.343942650413766" lon="11.546723815724336"><ele>127.0</ele><time>2026-05-02T12:44:58.002Z</time></trkpt><trkpt lat="44.343915673735" lon="11.54689507756958"><ele>125.0</ele><time>2026-05-02T12:44:59.002Z</time></trkpt><trkpt lat="44.343903415643894" lon="11.547080462628392"><ele>123.0</ele><time>2026-05-02T12:45:00.002Z</time></trkpt><trkpt lat="44.34390928920855" lon="11.547276832252804"><ele>121.0</ele><time>2026-05-02T12:45:01.002Z</time></trkpt><trkpt lat="44.34392934294032" lon="11.547480014245133"><ele>119.0</ele><time>2026-05-02T12:45:02.003Z</time></trkpt><trkpt lat="44.34393561889422" lon="11.547673743838994"><ele>119.0</ele><time>2026-05-02T12:45:03.003Z</time></trkpt><trkpt lat="44.3439409125046" lon="11.547869824541872"><ele>119.0</ele><time>2026-05-02T12:45:04.003Z</time></trkpt><trkpt lat="44.343947585969765" lon="11.54805951015759"><ele>119.0</ele><time>2026-05-02T12:45:05.003Z</time></trkpt><trkpt lat="44.34395478458862" lon="11.548249824856416"><ele>119.0</ele><time>2026-05-02T12:45:06.003Z</time></trkpt><trkpt lat="44.34395494693654" lon="11.54845232920201"><ele>119.0</ele><time>2026-05-02T12:45:07.003Z</time></trkpt><trkpt lat="44.34394517933005" lon="11.548658151033743"><ele>119.0</ele><time>2026-05-02T12:45:08.003Z</time></trkpt><trkpt lat="44.343920856939505" lon="11.548868138073695"><ele>119.0</ele><time>2026-05-02T12:45:09.003Z</time></trkpt><trkpt lat="44.343880585503875" lon="11.549075684736433"><ele>117.75</ele><time>2026-05-02T12:45:10.003Z</time></trkpt><trkpt lat="44.34383979016907" lon="11.549275018346025"><ele>116.5</ele><time>2026-05-02T12:45:11.003Z</time></trkpt><trkpt lat="44.343804184454875" lon="11.549472555723291"><ele>115.25</ele><time>2026-05-02T12:45:12.003Z</time></trkpt><trkpt lat="44.34377323398754" lon="11.549672109990281"><ele>114.0</ele><time>2026-05-02T12:45:13.003Z</time></trkpt><trkpt lat="44.343746761472126" lon="11.549876493520257"><ele>114.0</ele><time>2026-05-02T12:45:14.003Z</time></trkpt><trkpt lat="44.34372257084192" lon="11.550088676083185"><ele>114.0</ele><time>2026-05-02T12:45:15.003Z</time></trkpt><trkpt lat="44.34370258583957" lon="11.55029901463138"><ele>114.0</ele><time>2026-05-02T12:45:16.003Z</time></trkpt><trkpt lat="44.34368842122512" lon="11.550511710923837"><ele>113.0</ele><time>2026-05-02T12:45:17.003Z</time></trkpt><trkpt lat="44.34367434689626" lon="11.550725974943193"><ele>112.0</ele><time>2026-05-02T12:45:18.003Z</time></trkpt><trkpt lat="44.34366892951158" lon="11.5509411777827"><ele>111.0</ele><time>2026-05-02T12:45:19.003Z</time></trkpt><trkpt lat="44.34366873992418" lon="11.55115501525526"><ele>111.25</ele><time>2026-05-02T12:45:20.003Z</time></trkpt><trkpt lat="44.343672935318466" lon="11.551365986710959"><ele>111.5</ele><time>2026-05-02T12:45:21.003Z</time></trkpt><trkpt lat="44.34368072406423" lon="11.551573129280294"><ele>111.75</ele><time>2026-05-02T12:45:22.003Z</time></trkpt><trkpt lat="44.3436917547492" lon="11.551781628088635"><ele>112.0</ele><time>2026-05-02T12:45:23.003Z</time></trkpt><trkpt lat="44.34370641479661" lon="11.55198792673608"><ele>111.25</ele><time>2026-05-02T12:45:24.003Z</time></trkpt><trkpt lat="44.34372947193346" lon="11.552190772489272"><ele>110.5</ele><time>2026-05-02T12:45:25.003Z</time></trkpt><trkpt lat="44.343767008588166" lon="11.552384812427631"><ele>109.75</ele><time>2026-05-02T12:45:26.003Z</time></trkpt><trkpt lat="44.34382522514305" lon="11.552572464936762"><ele>109.0</ele><time>2026-05-02T12:45:27.003Z</time></trkpt><trkpt lat="44.34390543862242" lon="11.552748142182281"><ele>108.66666666666667</ele><time>2026-05-02T12:45:28.003Z</time></trkpt><trkpt lat="44.344009273636296" lon="11.552913552724348"><ele>108.33333333333334</ele><time>2026-05-02T12:45:29.003Z</time></trkpt><trkpt lat="44.34413514484641" lon="11.553068965696923"><ele>108.0</ele><time>2026-05-02T12:45:30.003Z</time></trkpt><trkpt lat="44.34426815038951" lon="11.55322966946353"><ele>108.0</ele><time>2026-05-02T12:45:31.003Z</time></trkpt><trkpt lat="44.344405837917314" lon="11.55340911271041"><ele>108.0</ele><time>2026-05-02T12:45:32.003Z</time></trkpt><trkpt lat="44.34454721874497" lon="11.55360081853044"><ele>108.0</ele><time>2026-05-02T12:45:33Z</time></trkpt><trkpt lat="44.344692139952166" lon="11.553804866862036"><ele>107.66666666666666</ele><time>2026-05-02T12:45:34Z</time></trkpt><trkpt lat="44.34483389340831" lon="11.554008432460407"><ele>107.33333333333333</ele><time>2026-05-02T12:45:35Z</time></trkpt><trkpt lat="44.344973712193294" lon="11.554216267080385"><ele>107.0</ele><time>2026-05-02T12:45:36Z</time></trkpt><trkpt lat="44.3451186428608" lon="11.554424122409298"><ele>106.0</ele><time>2026-05-02T12:45:37Z</time></trkpt><trkpt lat="44.345265210719994" lon="11.554624116626238"><ele>105.0</ele><time>2026-05-02T12:45:38Z</time></trkpt><trkpt lat="44.345412194769075" lon="11.55482157326211"><ele>104.0</ele><time>2026-05-02T12:45:39Z</time></trkpt><trkpt lat="44.345559150264805" lon="11.555018033986205"><ele>104.0</ele><time>2026-05-02T12:45:40Z</time></trkpt><trkpt lat="44.345707906171725" lon="11.555214630275817"><ele>104.0</ele><time>2026-05-02T12:45:41Z</time></trkpt><trkpt lat="44.345853505305136" lon="11.555411228616073"><ele>104.0</ele><time>2026-05-02T12:45:42Z</time></trkpt><trkpt lat="44.34599883912375" lon="11.555607676001138"><ele>104.0</ele><time>2026-05-02T12:45:43Z</time></trkpt><trkpt lat="44.346139577398596" lon="11.555809709032594"><ele>104.0</ele><time>2026-05-02T12:45:44Z</time></trkpt><trkpt lat="44.34627946276988" lon="11.5560081273324"><ele>104.0</ele><time>2026-05-02T12:45:45Z</time></trkpt><trkpt lat="44.346417339727324" lon="11.556198718474011"><ele>104.0</ele><time>2026-05-02T12:45:46Z</time></trkpt><trkpt lat="44.34655117129253" lon="11.556380910006109"><ele>104.0</ele><time>2026-05-02T12:45:47Z</time></trkpt><trkpt lat="44.34668101486469" lon="11.556554699668235"><ele>104.0</ele><time>2026-05-02T12:45:48Z</time></trkpt><trkpt lat="44.34681015155926" lon="11.556710295029541"><ele>104.0</ele><time>2026-05-02T12:45:49Z</time></trkpt><trkpt lat="44.346953374222196" lon="11.556837748276266"><ele>104.0</ele><time>2026-05-02T12:45:50Z</time></trkpt><trkpt lat="44.34711309470705" lon="11.556936331227721"><ele>104.0</ele><time>2026-05-02T12:45:51Z</time></trkpt><trkpt lat="44.34729023447043" lon="11.556997269233246"><ele>103.66666666666666</ele><time>2026-05-02T12:45:52Z</time></trkpt><trkpt lat="44.347474340049" lon="11.557040520365925"><ele>103.33333333333334</ele><time>2026-05-02T12:45:53Z</time></trkpt><trkpt lat="44.34766341374828" lon="11.557093941452766"><ele>103.0</ele><time>2026-05-02T12:45:54Z</time></trkpt><trkpt lat="44.34785241439405" lon="11.557170188569925"><ele>102.66666666666667</ele><time>2026-05-02T12:45:55Z</time></trkpt><trkpt lat="44.348043552012406" lon="11.557267221140398"><ele>102.33333333333334</ele><time>2026-05-02T12:45:56Z</time></trkpt><trkpt lat="44.34822837346786" lon="11.557377790113119"><ele>102.0</ele><time>2026-05-02T12:45:57Z</time></trkpt><trkpt lat="44.34841101267782" lon="11.557509950017742"><ele>102.0</ele><time>2026-05-02T12:45:58Z</time></trkpt><trkpt lat="44.34858656627299" lon="11.55765229904552"><ele>102.0</ele><time>2026-05-02T12:45:59Z</time></trkpt><trkpt lat="44.3487680516895" lon="11.557803172795207"><ele>102.0</ele><time>2026-05-02T12:46:00Z</time></trkpt><trkpt lat="44.34895045047724" lon="11.55794758406584"><ele>101.66666666666666</ele><time>2026-05-02T12:46:01Z</time></trkpt><trkpt lat="44.349134982306445" lon="11.558092834119702"><ele>101.33333333333333</ele><time>2026-05-02T12:46:02Z</time></trkpt><trkpt lat="44.34931851452009" lon="11.55823642071363"><ele>101.0</ele><time>2026-05-02T12:46:03Z</time></trkpt><trkpt lat="44.34950524630597" lon="11.558380611616927"><ele>101.0</ele><time>2026-05-02T12:46:04.001Z</time></trkpt><trkpt lat="44.34968539693229" lon="11.558520121306705"><ele>101.0</ele><time>2026-05-02T12:46:05.001Z</time></trkpt><trkpt lat="44.349861746205114" lon="11.558656248862068"><ele>101.0</ele><time>2026-05-02T12:46:06.001Z</time></trkpt><trkpt lat="44.350028229789345" lon="11.558789044435892"><ele>100.66666666666666</ele><time>2026-05-02T12:46:07.001Z</time></trkpt><trkpt lat="44.350186921682" lon="11.558914968756522"><ele>100.33333333333334</ele><time>2026-05-02T12:46:08.001Z</time></trkpt><trkpt lat="44.35033686149975" lon="11.559035327969344"><ele>100.0</ele><time>2026-05-02T12:46:09.001Z</time></trkpt><trkpt lat="44.35048579439867" lon="11.559153758684403"><ele>99.66666666666667</ele><time>2026-05-02T12:46:10.001Z</time></trkpt><trkpt lat="44.35063460746577" lon="11.55927576573661"><ele>99.33333333333334</ele><time>2026-05-02T12:46:11.001Z</time></trkpt><trkpt lat="44.35078298922346" lon="11.559399329403671"><ele>99.0</ele><time>2026-05-02T12:46:12.001Z</time></trkpt><trkpt lat="44.350928528059534" lon="11.559515430794713"><ele>99.33333333333334</ele><time>2026-05-02T12:46:13.001Z</time></trkpt><trkpt lat="44.35107149575856" lon="11.559626606790312"><ele>99.66666666666667</ele><time>2026-05-02T12:46:14.001Z</time></trkpt><trkpt lat="44.351214362489586" lon="11.559736545018156"><ele>100.0</ele><time>2026-05-02T12:46:15.001Z</time></trkpt><trkpt lat="44.3513550370765" lon="11.55984780329075"><ele>100.66666666666667</ele><time>2026-05-02T12:46:16.001Z</time></trkpt><trkpt lat="44.351493511936305" lon="11.559960850632022"><ele>101.33333333333334</ele><time>2026-05-02T12:46:17.001Z</time></trkpt><trkpt lat="44.35163249357623" lon="11.560069653373265"><ele>102.0</ele><time>2026-05-02T12:46:18.001Z</time></trkpt><trkpt lat="44.3517678354309" lon="11.560180177779865"><ele>102.0</ele><time>2026-05-02T12:46:19.001Z</time></trkpt><trkpt lat="44.3518920342698" lon="11.560278726030186"><ele>102.0</ele><time>2026-05-02T12:46:20.001Z</time></trkpt><trkpt lat="44.35199091842491" lon="11.560402677876734"><ele>102.0</ele><time>2026-05-02T12:46:21.001Z</time></trkpt><trkpt lat="44.352078167643334" lon="11.560540575733032"><ele>102.0</ele><time>2026-05-02T12:46:22.001Z</time></trkpt><trkpt lat="44.35214666948695" lon="11.560673847775119"><ele>102.5</ele><time>2026-05-02T12:46:23.001Z</time></trkpt><trkpt lat="44.352214058165536" lon="11.560805612748695"><ele>103.0</ele><time>2026-05-02T12:46:24.001Z</time></trkpt><trkpt lat="44.35228373291275" lon="11.560939832971771"><ele>103.5</ele><time>2026-05-02T12:46:25.001Z</time></trkpt><trkpt lat="44.35236028523511" lon="11.561078099728308"><ele>104.0</ele><time>2026-05-02T12:46:26.001Z</time></trkpt><trkpt lat="44.35243776887405" lon="11.561223440900045"><ele>104.0</ele><time>2026-05-02T12:46:27.001Z</time></trkpt><trkpt lat="44.35252135117167" lon="11.561375273863154"><ele>104.0</ele><time>2026-05-02T12:46:28.001Z</time></trkpt><trkpt lat="44.35260714925576" lon="11.56153616663573"><ele>104.0</ele><time>2026-05-02T12:46:29.001Z</time></trkpt><trkpt lat="44.352698821849785" lon="11.561707549167815"><ele>104.0</ele><time>2026-05-02T12:46:30.001Z</time></trkpt><trkpt lat="44.35278946617792" lon="11.561881892199294"><ele>104.33333333333333</ele><time>2026-05-02T12:46:31.001Z</time></trkpt><trkpt lat="44.35288372499381" lon="11.562056563928728"><ele>104.66666666666666</ele><time>2026-05-02T12:46:32.001Z</time></trkpt><trkpt lat="44.35298183815213" lon="11.562227345233655"><ele>105.0</ele><time>2026-05-02T12:46:33.001Z</time></trkpt><trkpt lat="44.35308242688107" lon="11.562400572636827"><ele>105.0</ele><time>2026-05-02T12:46:34.001Z</time></trkpt><trkpt lat="44.35317590684173" lon="11.562572583516214"><ele>105.0</ele><time>2026-05-02T12:46:35.002Z</time></trkpt><trkpt lat="44.35326955122261" lon="11.56274613949824"><ele>105.0</ele><time>2026-05-02T12:46:36.002Z</time></trkpt><trkpt lat="44.35336524794643" lon="11.562921677634199"><ele>104.0</ele><time>2026-05-02T12:46:37.002Z</time></trkpt><trkpt lat="44.35346814233495" lon="11.56309823075341"><ele>103.0</ele><time>2026-05-02T12:46:38.002Z</time></trkpt><trkpt lat="44.35358239136306" lon="11.563283128758158"><ele>102.0</ele><time>2026-05-02T12:46:39.002Z</time></trkpt><trkpt lat="44.35370360649535" lon="11.563437141190382"><ele>102.0</ele><time>2026-05-02T12:46:40.002Z</time></trkpt><trkpt lat="44.35383681247246" lon="11.563558186000497"><ele>102.0</ele><time>2026-05-02T12:46:41.002Z</time></trkpt><trkpt lat="44.353978254357784" lon="11.563637033017576"><ele>102.0</ele><time>2026-05-02T12:46:42.002Z</time></trkpt><trkpt lat="44.35412273606426" lon="11.563668013485117"><ele>100.66666666666666</ele><time>2026-05-02T12:46:43.002Z</time></trkpt><trkpt lat="44.354278193538974" lon="11.563675772199185"><ele>99.33333333333333</ele><time>2026-05-02T12:46:44.002Z</time></trkpt><trkpt lat="44.35444032794841" lon="11.56369919242132"><ele>98.0</ele><time>2026-05-02T12:46:45.002Z</time></trkpt><trkpt lat="44.35460653872951" lon="11.563737178259231"><ele>97.66666666666666</ele><time>2026-05-02T12:46:46.002Z</time></trkpt><trkpt lat="44.35477104727843" lon="11.563774039922526"><ele>97.33333333333334</ele><time>2026-05-02T12:46:47.002Z</time></trkpt><trkpt lat="44.354933429305" lon="11.563797063787057"><ele>97.0</ele><time>2026-05-02T12:46:48.002Z</time></trkpt><trkpt lat="44.355090265041646" lon="11.563808036792325"><ele>97.0</ele><time>2026-05-02T12:46:49.002Z</time></trkpt><trkpt lat="44.355241051411895" lon="11.56383474191166"><ele>97.0</ele><time>2026-05-02T12:46:50.002Z</time></trkpt><trkpt lat="44.355380477702006" lon="11.563892268107233"><ele>97.0</ele><time>2026-05-02T12:46:51.002Z</time></trkpt><trkpt lat="44.355508448114044" lon="11.563999456737378"><ele>97.0</ele><time>2026-05-02T12:46:52.002Z</time></trkpt><trkpt lat="44.355630061750524" lon="11.56414821924071"><ele>96.66666666666667</ele><time>2026-05-02T12:46:53.002Z</time></trkpt><trkpt lat="44.355747035034994" lon="11.564318462702158"><ele>96.33333333333334</ele><time>2026-05-02T12:46:54.002Z</time></trkpt><trkpt lat="44.355861711758294" lon="11.56450123537654"><ele>96.0</ele><time>2026-05-02T12:46:55.002Z</time></trkpt><trkpt lat="44.35597445557409" lon="11.564688715016544"><ele>96.0</ele><time>2026-05-02T12:46:56.002Z</time></trkpt><trkpt lat="44.35609614632093" lon="11.56487708779579"><ele>96.0</ele><time>2026-05-02T12:46:57.002Z</time></trkpt><trkpt lat="44.356228954895194" lon="11.56504878451977"><ele>96.0</ele><time>2026-05-02T12:46:58.002Z</time></trkpt><trkpt lat="44.35636504144802" lon="11.565213135574787"><ele>95.66666666666667</ele><time>2026-05-02T12:46:59.002Z</time></trkpt><trkpt lat="44.35650669464444" lon="11.565364390726037"><ele>95.33333333333334</ele><time>2026-05-02T12:47:00.002Z</time></trkpt><trkpt lat="44.35663837599823" lon="11.565513010730445"><ele>95.0</ele><time>2026-05-02T12:47:01.002Z</time></trkpt><trkpt lat="44.35677850612187" lon="11.565662490515338"><ele>95.0</ele><time>2026-05-02T12:47:02.002Z</time></trkpt><trkpt lat="44.35691768545256" lon="11.565823148962103"><ele>95.0</ele><time>2026-05-02T12:47:03.002Z</time></trkpt><trkpt lat="44.35704154099424" lon="11.565972612886636"><ele>95.0</ele><time>2026-05-02T12:47:04.002Z</time></trkpt><trkpt lat="44.35716487981481" lon="11.56611906947709"><ele>95.66666666666667</ele><time>2026-05-02T12:47:05.002Z</time></trkpt><trkpt lat="44.35728875104368" lon="11.566264820373146"><ele>96.33333333333334</ele><time>2026-05-02T12:47:06.002Z</time></trkpt><trkpt lat="44.35741286031302" lon="11.566410760565418"><ele>97.0</ele><time>2026-05-02T12:47:07.002Z</time></trkpt><trkpt lat="44.35753476595957" lon="11.566555506756782"><ele>97.0</ele><time>2026-05-02T12:47:08.003Z</time></trkpt><trkpt lat="44.35765752359476" lon="11.56669405156855"><ele>97.0</ele><time>2026-05-02T12:47:09.003Z</time></trkpt><trkpt lat="44.357795803336096" lon="11.566802313884837"><ele>97.0</ele><time>2026-05-02T12:47:10.003Z</time></trkpt><trkpt lat="44.357949532475956" lon="11.566872918641687"><ele>96.66666666666667</ele><time>2026-05-02T12:47:11.003Z</time></trkpt><trkpt lat="44.35811478063367" lon="11.56691471111681"><ele>96.33333333333334</ele><time>2026-05-02T12:47:12.003Z</time></trkpt><trkpt lat="44.35829402676712" lon="11.56692453040309"><ele>96.0</ele><time>2026-05-02T12:47:13.003Z</time></trkpt><trkpt lat="44.358475567351576" lon="11.566910192739774"><ele>96.0</ele><time>2026-05-02T12:47:14.003Z</time></trkpt><trkpt lat="44.358661408931354" lon="11.566894571775808"><ele>96.0</ele><time>2026-05-02T12:47:15.003Z</time></trkpt><trkpt lat="44.3588549934554" lon="11.566891236303755"><ele>96.0</ele><time>2026-05-02T12:47:16.003Z</time></trkpt><trkpt lat="44.359048755860066" lon="11.566893466730908"><ele>95.66666666666667</ele><time>2026-05-02T12:47:17.003Z</time></trkpt><trkpt lat="44.35923674098502" lon="11.566920173419387"><ele>95.33333333333334</ele><time>2026-05-02T12:47:18.003Z</time></trkpt><trkpt lat="44.359424504982854" lon="11.566973928117127"><ele>95.0</ele><time>2026-05-02T12:47:19.003Z</time></trkpt><trkpt lat="44.35960739945049" lon="11.567043498245518"><ele>95.66666666666667</ele><time>2026-05-02T12:47:20.003Z</time></trkpt><trkpt lat="44.35979501901216" lon="11.567105723184405"><ele>96.33333333333334</ele><time>2026-05-02T12:47:21.003Z</time></trkpt><trkpt lat="44.359971660570004" lon="11.567164778663631"><ele>97.0</ele><time>2026-05-02T12:47:22.003Z</time></trkpt><trkpt lat="44.360128711088144" lon="11.567219022197575"><ele>97.0</ele><time>2026-05-02T12:47:23.003Z</time></trkpt><trkpt lat="44.36027177393744" lon="11.567286166065086"><ele>97.0</ele><time>2026-05-02T12:47:24.003Z</time></trkpt><trkpt lat="44.36039719896011" lon="11.567377589488558"><ele>97.0</ele><time>2026-05-02T12:47:25.003Z</time></trkpt><trkpt lat="44.36051056120174" lon="11.567492890300336"><ele>97.0</ele><time>2026-05-02T12:47:26.003Z</time></trkpt><trkpt lat="44.36061894194884" lon="11.56763071225423"><ele>98.0</ele><time>2026-05-02T12:47:27.003Z</time></trkpt><trkpt lat="44.36071792202877" lon="11.56777459945693"><ele>99.0</ele><time>2026-05-02T12:47:28.003Z</time></trkpt><trkpt lat="44.360810062729634" lon="11.567925032061638"><ele>100.0</ele><time>2026-05-02T12:47:29.003Z</time></trkpt><trkpt lat="44.3609048931945" lon="11.56807120747751"><ele>101.0</ele><time>2026-05-02T12:47:30.003Z</time></trkpt><trkpt lat="44.360996299831434" lon="11.568212851890468"><ele>101.25</ele><time>2026-05-02T12:47:31.003Z</time></trkpt><trkpt lat="44.36107853699331" lon="11.568340422505619"><ele>101.5</ele><time>2026-05-02T12:47:32.003Z</time></trkpt><trkpt lat="44.361156149889084" lon="11.56845263427306"><ele>101.75</ele><time>2026-05-02T12:47:33.003Z</time></trkpt><trkpt lat="44.36122774440543" lon="11.568573934626702"><ele>102.0</ele><time>2026-05-02T12:47:34.003Z</time></trkpt><trkpt lat="44.361290892304616" lon="11.568712678666841"><ele>100.6</ele><time>2026-05-02T12:47:35.003Z</time></trkpt><trkpt lat="44.3613419016384" lon="11.568862221055085"><ele>99.19999999999999</ele><time>2026-05-02T12:47:36.003Z</time></trkpt><trkpt lat="44.36138003310094" lon="11.569003743712742"><ele>97.8</ele><time>2026-05-02T12:47:37.003Z</time></trkpt><trkpt lat="44.361411723067796" lon="11.569131004694697"><ele>96.4</ele><time>2026-05-02T12:47:38.003Z</time></trkpt><trkpt lat="44.361445988310635" lon="11.569262558828337"><ele>95.0</ele><time>2026-05-02T12:47:39Z</time></trkpt><trkpt lat="44.36146919769941" lon="11.569378542829467"><ele>96.66666666666667</ele><time>2026-05-02T12:47:40Z</time></trkpt><trkpt lat="44.36151052615312" lon="11.569480030253768"><ele>98.33333333333334</ele><time>2026-05-02T12:47:41Z</time></trkpt><trkpt lat="44.361547811534145" lon="11.569583895433317"><ele>100.0</ele><time>2026-05-02T12:47:42Z</time></trkpt><trkpt lat="44.36159014252372" lon="11.569691933279877"><ele>101.66666666666667</ele><time>2026-05-02T12:47:43Z</time></trkpt><trkpt lat="44.361638688042554" lon="11.569786390050284"><ele>103.33333333333333</ele><time>2026-05-02T12:47:44Z</time></trkpt><trkpt lat="44.36170799003271" lon="11.569873749125769"><ele>105.0</ele><time>2026-05-02T12:47:45Z</time></trkpt><trkpt lat="44.36178576226273" lon="11.56995670465313"><ele>105.0</ele><time>2026-05-02T12:47:46Z</time></trkpt><trkpt lat="44.36187103260434" lon="11.570033968866339"><ele>105.0</ele><time>2026-05-02T12:47:47Z</time></trkpt><trkpt lat="44.361959407956775" lon="11.570107567687634"><ele>105.0</ele><time>2026-05-02T12:47:48Z</time></trkpt><trkpt lat="44.362059909307476" lon="11.570179010469785"><ele>105.0</ele><time>2026-05-02T12:47:49Z</time></trkpt><trkpt lat="44.362161285952766" lon="11.570247747439906"><ele>105.0</ele><time>2026-05-02T12:47:50Z</time></trkpt><trkpt lat="44.36226039093908" lon="11.570327171509867"><ele>105.4</ele><time>2026-05-02T12:47:51Z</time></trkpt><trkpt lat="44.36235185744717" lon="11.57041790114462"><ele>105.8</ele><time>2026-05-02T12:47:52Z</time></trkpt><trkpt lat="44.36243771186994" lon="11.570517449297382"><ele>106.19999999999999</ele><time>2026-05-02T12:47:53Z</time></trkpt><trkpt lat="44.36251337017867" lon="11.570626578612854"><ele>106.6</ele><time>2026-05-02T12:47:54Z</time></trkpt><trkpt lat="44.36257961809412" lon="11.57074221228826"><ele>107.0</ele><time>2026-05-02T12:47:55Z</time></trkpt><trkpt lat="44.3626326000873" lon="11.57087876990446"><ele>107.0</ele><time>2026-05-02T12:47:56Z</time></trkpt><trkpt lat="44.36267939699421" lon="11.571029021302575"><ele>107.0</ele><time>2026-05-02T12:47:57Z</time></trkpt><trkpt lat="44.36272888384402" lon="11.571180806484895"><ele>107.0</ele><time>2026-05-02T12:47:58Z</time></trkpt><trkpt lat="44.36277608355447" lon="11.571322606383697"><ele>107.0</ele><time>2026-05-02T12:47:59Z</time></trkpt><trkpt lat="44.36282511027436" lon="11.57147458248902"><ele>105.0</ele><time>2026-05-02T12:48:00Z</time></trkpt><trkpt lat="44.36287277780721" lon="11.571626029283177"><ele>103.0</ele><time>2026-05-02T12:48:01Z</time></trkpt><trkpt lat="44.36292043831273" lon="11.571781615956587"><ele>101.0</ele><time>2026-05-02T12:48:02Z</time></trkpt><trkpt lat="44.362971651939084" lon="11.571942105335742"><ele>99.0</ele><time>2026-05-02T12:48:03Z</time></trkpt><trkpt lat="44.36302436657072" lon="11.572109159297248"><ele>101.0</ele><time>2026-05-02T12:48:04Z</time></trkpt><trkpt lat="44.363073916999966" lon="11.572279377903136"><ele>103.0</ele><time>2026-05-02T12:48:05Z</time></trkpt><trkpt lat="44.36312367727644" lon="11.572446176065592"><ele>105.0</ele><time>2026-05-02T12:48:06Z</time></trkpt><trkpt lat="44.36317401240746" lon="11.572610677920098"><ele>107.0</ele><time>2026-05-02T12:48:07Z</time></trkpt><trkpt lat="44.36322362489499" lon="11.572774904879797"><ele>105.75</ele><time>2026-05-02T12:48:08.001Z</time></trkpt><trkpt lat="44.36327711388748" lon="11.572926801627963"><ele>104.5</ele><time>2026-05-02T12:48:09.001Z</time></trkpt><trkpt lat="44.3633441366612" lon="11.57305553878169"><ele>103.25</ele><time>2026-05-02T12:48:10.001Z</time></trkpt><trkpt lat="44.36343113991967" lon="11.573153711811207"><ele>102.0</ele><time>2026-05-02T12:48:11.001Z</time></trkpt><trkpt lat="44.363531487577156" lon="11.573223240677606"><ele>102.0</ele><time>2026-05-02T12:48:12.001Z</time></trkpt><trkpt lat="44.36363602444882" lon="11.573271591187781"><ele>102.0</ele><time>2026-05-02T12:48:13.001Z</time></trkpt><trkpt lat="44.36375270055243" lon="11.573280441735804"><ele>102.0</ele><time>2026-05-02T12:48:14.001Z</time></trkpt><trkpt lat="44.36387495302311" lon="11.57327234042956"><ele>102.0</ele><time>2026-05-02T12:48:15.001Z</time></trkpt><trkpt lat="44.363995844886915" lon="11.573269934546365"><ele>103.5</ele><time>2026-05-02T12:48:16.001Z</time></trkpt><trkpt lat="44.3641167305288" lon="11.573273065454766"><ele>105.0</ele><time>2026-05-02T12:48:17.001Z</time></trkpt><trkpt lat="44.364241859307405" lon="11.57328495620621"><ele>106.5</ele><time>2026-05-02T12:48:18.001Z</time></trkpt><trkpt lat="44.364366090997166" lon="11.573306461619879"><ele>108.0</ele><time>2026-05-02T12:48:19.001Z</time></trkpt><trkpt lat="44.364496333638144" lon="11.57333219097731"><ele>108.0</ele><time>2026-05-02T12:48:20.001Z</time></trkpt><trkpt lat="44.3646262717075" lon="11.573361051628565"><ele>108.0</ele><time>2026-05-02T12:48:21.001Z</time></trkpt><trkpt lat="44.36476074494857" lon="11.573385970624978"><ele>108.0</ele><time>2026-05-02T12:48:22.001Z</time></trkpt><trkpt lat="44.364896416437986" lon="11.573413108528353"><ele>108.0</ele><time>2026-05-02T12:48:23.001Z</time></trkpt><trkpt lat="44.36503845194979" lon="11.573435661299097"><ele>107.75</ele><time>2026-05-02T12:48:24.001Z</time></trkpt><trkpt lat="44.36518268130987" lon="11.573454076665355"><ele>107.5</ele><time>2026-05-02T12:48:25.001Z</time></trkpt><trkpt lat="44.36532930924935" lon="11.573473910937997"><ele>107.25</ele><time>2026-05-02T12:48:26.001Z</time></trkpt><trkpt lat="44.36547838563918" lon="11.573493923100363"><ele>107.0</ele><time>2026-05-02T12:48:27.001Z</time></trkpt><trkpt lat="44.3656250000058" lon="11.573513222228357"><ele>106.5</ele><time>2026-05-02T12:48:28.001Z</time></trkpt><trkpt lat="44.36577194280218" lon="11.573539655529853"><ele>106.0</ele><time>2026-05-02T12:48:29.001Z</time></trkpt><trkpt lat="44.365918665174014" lon="11.573582566016169"><ele>105.5</ele><time>2026-05-02T12:48:30.001Z</time></trkpt><trkpt lat="44.36605480214956" lon="11.573650255226303"><ele>105.0</ele><time>2026-05-02T12:48:31.001Z</time></trkpt><trkpt lat="44.36618288500063" lon="11.573742256094686"><ele>104.25</ele><time>2026-05-02T12:48:32.001Z</time></trkpt><trkpt lat="44.366302833362596" lon="11.573851328691454"><ele>103.5</ele><time>2026-05-02T12:48:33.001Z</time></trkpt><trkpt lat="44.36642185983056" lon="11.573972779465263"><ele>102.75</ele><time>2026-05-02T12:48:34.001Z</time></trkpt><trkpt lat="44.366539055948586" lon="11.574106566790103"><ele>102.0</ele><time>2026-05-02T12:48:35.001Z</time></trkpt><trkpt lat="44.36665557070616" lon="11.574236682170781"><ele>101.75</ele><time>2026-05-02T12:48:36.001Z</time></trkpt><trkpt lat="44.36676962632268" lon="11.574356165556384"><ele>101.5</ele><time>2026-05-02T12:48:37.001Z</time></trkpt><trkpt lat="44.366882047849245" lon="11.57447896240888"><ele>101.25</ele><time>2026-05-02T12:48:38.001Z</time></trkpt><trkpt lat="44.36699496312397" lon="11.57460720833092"><ele>101.0</ele><time>2026-05-02T12:48:39.001Z</time></trkpt><trkpt lat="44.3671099064734" lon="11.574730747948625"><ele>100.25</ele><time>2026-05-02T12:48:40.001Z</time></trkpt><trkpt lat="44.36722878803399" lon="11.574833318604423"><ele>99.5</ele><time>2026-05-02T12:48:41.002Z</time></trkpt><trkpt lat="44.36735357071922" lon="11.574920548085023"><ele>98.75</ele><time>2026-05-02T12:48:42.002Z</time></trkpt><trkpt lat="44.36748028806767" lon="11.574982070847172"><ele>98.0</ele><time>2026-05-02T12:48:43.002Z</time></trkpt><trkpt lat="44.36761732881512" lon="11.575032150701617"><ele>98.0</ele><time>2026-05-02T12:48:44.002Z</time></trkpt><trkpt lat="44.367754683456205" lon="11.575064484977455"><ele>98.0</ele><time>2026-05-02T12:48:45.002Z</time></trkpt><trkpt lat="44.36788647463162" lon="11.575095934241784"><ele>98.0</ele><time>2026-05-02T12:48:46.002Z</time></trkpt><trkpt lat="44.36801790882595" lon="11.57515516330023"><ele>98.0</ele><time>2026-05-02T12:48:47.002Z</time></trkpt><trkpt lat="44.36815347741633" lon="11.575236157134906"><ele>98.33333333333333</ele><time>2026-05-02T12:48:48.002Z</time></trkpt><trkpt lat="44.36829058182716" lon="11.575327537898172"><ele>98.66666666666666</ele><time>2026-05-02T12:48:49.002Z</time></trkpt><trkpt lat="44.368439161503225" lon="11.575432349488816"><ele>99.0</ele><time>2026-05-02T12:48:50.002Z</time></trkpt><trkpt lat="44.368597823990264" lon="11.57555009884223"><ele>98.33333333333334</ele><time>2026-05-02T12:48:51.002Z</time></trkpt><trkpt lat="44.36875956194921" lon="11.57567910033767"><ele>97.66666666666667</ele><time>2026-05-02T12:48:52.002Z</time></trkpt><trkpt lat="44.36892304177401" lon="11.575816920798685"><ele>97.0</ele><time>2026-05-02T12:48:53.002Z</time></trkpt><trkpt lat="44.36908858674508" lon="11.575956995291078"><ele>95.33333333333334</ele><time>2026-05-02T12:48:54.002Z</time></trkpt><trkpt lat="44.36925019084034" lon="11.576088410509664"><ele>93.66666666666667</ele><time>2026-05-02T12:48:55.002Z</time></trkpt><trkpt lat="44.36941167961027" lon="11.576197820300415"><ele>92.0</ele><time>2026-05-02T12:48:56.002Z</time></trkpt><trkpt lat="44.36956009415066" lon="11.576295285151073"><ele>93.33333333333334</ele><time>2026-05-02T12:48:57.002Z</time></trkpt><trkpt lat="44.36970935206247" lon="11.576380272713283"><ele>94.66666666666667</ele><time>2026-05-02T12:48:58.002Z</time></trkpt><trkpt lat="44.36986736934953" lon="11.576422018251053"><ele>96.0</ele><time>2026-05-02T12:48:59.002Z</time></trkpt><trkpt lat="44.3700308058196" lon="11.576432865606682"><ele>96.0</ele><time>2026-05-02T12:49:00.002Z</time></trkpt><trkpt lat="44.370194630556746" lon="11.576423642073841"><ele>96.0</ele><time>2026-05-02T12:49:01.002Z</time></trkpt><trkpt lat="44.370363802318245" lon="11.576408054362206"><ele>96.0</ele><time>2026-05-02T12:49:02.002Z</time></trkpt><trkpt lat="44.370537519498065" lon="11.576414397343044"><ele>96.66666666666666</ele><time>2026-05-02T12:49:03.002Z</time></trkpt><trkpt lat="44.37071537329324" lon="11.576435837337867"><ele>97.33333333333333</ele><time>2026-05-02T12:49:04.002Z</time></trkpt><trkpt lat="44.37089630889341" lon="11.576459478555721"><ele>98.0</ele><time>2026-05-02T12:49:05.002Z</time></trkpt><trkpt lat="44.37107953257647" lon="11.576488171025106"><ele>98.0</ele><time>2026-05-02T12:49:06.002Z</time></trkpt><trkpt lat="44.37126512403423" lon="11.576529299062218"><ele>98.0</ele><time>2026-05-02T12:49:07.002Z</time></trkpt><trkpt lat="44.37145190267675" lon="11.57656995211706"><ele>98.0</ele><time>2026-05-02T12:49:08.002Z</time></trkpt><trkpt lat="44.37164158625385" lon="11.576610216575657"><ele>97.66666666666666</ele><time>2026-05-02T12:49:09.002Z</time></trkpt><trkpt lat="44.37183128059191" lon="11.5766482006729"><ele>97.33333333333334</ele><time>2026-05-02T12:49:10.002Z</time></trkpt><trkpt lat="44.37201884453839" lon="11.576679495919992"><ele>97.0</ele><time>2026-05-02T12:49:11.002Z</time></trkpt><trkpt lat="44.37219891176695" lon="11.576708334813212"><ele>97.0</ele><time>2026-05-02T12:49:12.002Z</time></trkpt><trkpt lat="44.37237229753371" lon="11.576734621605578"><ele>97.0</ele><time>2026-05-02T12:49:13.002Z</time></trkpt><trkpt lat="44.3725367621148" lon="11.576757681012952"><ele>97.0</ele><time>2026-05-02T12:49:14.003Z</time></trkpt><trkpt lat="44.37269542927296" lon="11.576791849093272"><ele>97.0</ele><time>2026-05-02T12:49:15.003Z</time></trkpt><trkpt lat="44.37284630325366" lon="11.576841378554759"><ele>97.0</ele><time>2026-05-02T12:49:16.003Z</time></trkpt><trkpt lat="44.372995689609" lon="11.576907029862019"><ele>97.0</ele><time>2026-05-02T12:49:17.003Z</time></trkpt><trkpt lat="44.37314407572379" lon="11.57699543465946"><ele>95.33333333333334</ele><time>2026-05-02T12:49:18.003Z</time></trkpt><trkpt lat="44.373294126395265" lon="11.577100911859404"><ele>93.66666666666667</ele><time>2026-05-02T12:49:19.003Z</time></trkpt><trkpt lat="44.37345031540778" lon="11.577202816307903"><ele>92.0</ele><time>2026-05-02T12:49:20.003Z</time></trkpt><trkpt lat="44.373617160433106" lon="11.577303929952144"><ele>92.0</ele><time>2026-05-02T12:49:21.003Z</time></trkpt><trkpt lat="44.373787551256555" lon="11.577403186370091"><ele>92.0</ele><time>2026-05-02T12:49:22.003Z</time></trkpt><trkpt lat="44.37396744781049" lon="11.577500479827957"><ele>92.0</ele><time>2026-05-02T12:49:23.003Z</time></trkpt><trkpt lat="44.37415016574465" lon="11.577597110439182"><ele>93.33333333333334</ele><time>2026-05-02T12:49:24.003Z</time></trkpt><trkpt lat="44.37433547525194" lon="11.57769947345162"><ele>94.66666666666667</ele><time>2026-05-02T12:49:25.003Z</time></trkpt><trkpt lat="44.374519163163725" lon="11.577802427830896"><ele>96.0</ele><time>2026-05-02T12:49:26.003Z</time></trkpt><trkpt lat="44.37470701324278" lon="11.57790781755334"><ele>96.0</ele><time>2026-05-02T12:49:27.003Z</time></trkpt><trkpt lat="44.37489312616528" lon="11.578015690897082"><ele>96.0</ele><time>2026-05-02T12:49:28.003Z</time></trkpt><trkpt lat="44.375073921799235" lon="11.57812189805321"><ele>96.0</ele><time>2026-05-02T12:49:29.003Z</time></trkpt><trkpt lat="44.37524750826946" lon="11.578225663358399"><ele>96.0</ele><time>2026-05-02T12:49:30.003Z</time></trkpt><trkpt lat="44.37541995208909" lon="11.578322570409883"><ele>96.0</ele><time>2026-05-02T12:49:31.003Z</time></trkpt><trkpt lat="44.375600438395615" lon="11.578407531956564"><ele>96.0</ele><time>2026-05-02T12:49:32.003Z</time></trkpt><trkpt lat="44.375790389372646" lon="11.578478522992327"><ele>95.66666666666667</ele><time>2026-05-02T12:49:33.003Z</time></trkpt><trkpt lat="44.37598255486299" lon="11.578546499532088"><ele>95.33333333333334</ele><time>2026-05-02T12:49:34.003Z</time></trkpt><trkpt lat="44.37617839586413" lon="11.578613962744184"><ele>95.0</ele><time>2026-05-02T12:49:35.003Z</time></trkpt><trkpt lat="44.37637403102239" lon="11.578678310663676"><ele>93.33333333333334</ele><time>2026-05-02T12:49:36.003Z</time></trkpt><trkpt lat="44.37657192082947" lon="11.578741687352643"><ele>91.66666666666667</ele><time>2026-05-02T12:49:37.003Z</time></trkpt><trkpt lat="44.37677383757174" lon="11.578808073436283"><ele>90.0</ele><time>2026-05-02T12:49:38.003Z</time></trkpt><trkpt lat="44.376977924402375" lon="11.578872891869867"><ele>90.0</ele><time>2026-05-02T12:49:39.003Z</time></trkpt><trkpt lat="44.377183081474975" lon="11.578936803842238"><ele>90.0</ele><time>2026-05-02T12:49:40.003Z</time></trkpt><trkpt lat="44.37739105142357" lon="11.57900574473602"><ele>90.0</ele><time>2026-05-02T12:49:41.003Z</time></trkpt><trkpt lat="44.37759919108786" lon="11.57907453524526"><ele>89.66666666666667</ele><time>2026-05-02T12:49:42.003Z</time></trkpt><trkpt lat="44.377807206986596" lon="11.579143993057446"><ele>89.33333333333334</ele><time>2026-05-02T12:49:43.003Z</time></trkpt><trkpt lat="44.37801840395642" lon="11.579211378668184"><ele>89.0</ele><time>2026-05-02T12:49:44.003Z</time></trkpt><trkpt lat="44.37822733394303" lon="11.579277115421878"><ele>89.0</ele><time>2026-05-02T12:49:45Z</time></trkpt><trkpt lat="44.37843352746374" lon="11.579341333057785"><ele>89.0</ele><time>2026-05-02T12:49:46Z</time></trkpt><trkpt lat="44.37863661953384" lon="11.57941297976797"><ele>89.0</ele><time>2026-05-02T12:49:47Z</time></trkpt><trkpt lat="44.378838713664216" lon="11.579492275488906"><ele>88.66666666666667</ele><time>2026-05-02T12:49:48Z</time></trkpt><trkpt lat="44.37902963715797" lon="11.57956901434007"><ele>88.33333333333333</ele><time>2026-05-02T12:49:49Z</time></trkpt><trkpt lat="44.37921424974413" lon="11.579640828237983"><ele>88.0</ele><time>2026-05-02T12:49:50Z</time></trkpt><trkpt lat="44.37939402961587" lon="11.579699777408157"><ele>88.0</ele><time>2026-05-02T12:49:51Z</time></trkpt><trkpt lat="44.37957318766254" lon="11.57975491120295"><ele>88.0</ele><time>2026-05-02T12:49:52Z</time></trkpt><trkpt lat="44.37974001663135" lon="11.579811566372115"><ele>88.0</ele><time>2026-05-02T12:49:53Z</time></trkpt><trkpt lat="44.37990411845888" lon="11.579869701346304"><ele>87.66666666666666</ele><time>2026-05-02T12:49:54Z</time></trkpt><trkpt lat="44.380066016606904" lon="11.579918777010503"><ele>87.33333333333333</ele><time>2026-05-02T12:49:55Z</time></trkpt><trkpt lat="44.38022196908887" lon="11.579962783936834"><ele>87.0</ele><time>2026-05-02T12:49:56Z</time></trkpt><trkpt lat="44.38037034806688" lon="11.580006328701263"><ele>87.0</ele><time>2026-05-02T12:49:57Z</time></trkpt><trkpt lat="44.38051027179057" lon="11.580048927266404"><ele>87.0</ele><time>2026-05-02T12:49:58Z</time></trkpt><trkpt lat="44.38064378169672" lon="11.580090977717617"><ele>87.0</ele><time>2026-05-02T12:49:59Z</time></trkpt><trkpt lat="44.38077612176736" lon="11.580132498084168"><ele>87.0</ele><time>2026-05-02T12:50:00Z</time></trkpt><trkpt lat="44.38089866697866" lon="11.580171405939875"><ele>87.0</ele><time>2026-05-02T12:50:01Z</time></trkpt><trkpt lat="44.38100354968624" lon="11.580207320143952"><ele>87.0</ele><time>2026-05-02T12:50:02Z</time></trkpt><trkpt lat="44.38109797810548" lon="11.580260674469574"><ele>87.0</ele><time>2026-05-02T12:50:03Z</time></trkpt><trkpt lat="44.38117276856101" lon="11.58033764490024"><ele>87.0</ele><time>2026-05-02T12:50:04Z</time></trkpt><trkpt lat="44.3812247809755" lon="11.580446374955448"><ele>87.0</ele><time>2026-05-02T12:50:05Z</time></trkpt><trkpt lat="44.381248162694746" lon="11.580572987561618"><ele>86.5</ele><time>2026-05-02T12:50:06Z</time></trkpt><trkpt lat="44.38124663486936" lon="11.580715411545558"><ele>86.0</ele><time>2026-05-02T12:50:07Z</time></trkpt><trkpt lat="44.38122342318743" lon="11.580872647007874"><ele>85.5</ele><time>2026-05-02T12:50:08Z</time></trkpt><trkpt lat="44.38118479067156" lon="11.581042999286291"><ele>85.0</ele><time>2026-05-02T12:50:09Z</time></trkpt><trkpt lat="44.38113801296606" lon="11.581232221737627"><ele>84.66666666666666</ele><time>2026-05-02T12:50:10Z</time></trkpt><trkpt lat="44.381090067872336" lon="11.581435713303552"><ele>84.33333333333333</ele><time>2026-05-02T12:50:11Z</time></trkpt><trkpt lat="44.38104389981126" lon="11.58165328984659"><ele>84.0</ele><time>2026-05-02T12:50:12Z</time></trkpt><trkpt lat="44.38099762515445" lon="11.581894735114101"><ele>82.66666666666667</ele><time>2026-05-02T12:50:13Z</time></trkpt><trkpt lat="44.38094892561834" lon="11.58214925627836"><ele>81.33333333333334</ele><time>2026-05-02T12:50:14Z</time></trkpt><trkpt lat="44.38089473165324" lon="11.582414965948853"><ele>80.0</ele><time>2026-05-02T12:50:15Z</time></trkpt><trkpt lat="44.38083734915495" lon="11.58268787021588"><ele>79.33333333333334</ele><time>2026-05-02T12:50:16Z</time></trkpt><trkpt lat="44.38077948756058" lon="11.582948246286207"><ele>78.66666666666667</ele><time>2026-05-02T12:50:17.001Z</time></trkpt><trkpt lat="44.38072927407464" lon="11.5831967631431"><ele>78.0</ele><time>2026-05-02T12:50:18.001Z</time></trkpt><trkpt lat="44.38067812574636" lon="11.583430860360233"><ele>78.0</ele><time>2026-05-02T12:50:19.001Z</time></trkpt><trkpt lat="44.38063225345801" lon="11.583653401411903"><ele>78.0</ele><time>2026-05-02T12:50:20.001Z</time></trkpt><trkpt lat="44.380586351838694" lon="11.583875561588552"><ele>78.0</ele><time>2026-05-02T12:50:21.001Z</time></trkpt><trkpt lat="44.380543407949666" lon="11.584090611646092"><ele>77.66666666666667</ele><time>2026-05-02T12:50:22.001Z</time></trkpt><trkpt lat="44.380498649019394" lon="11.584296279802182"><ele>77.33333333333334</ele><time>2026-05-02T12:50:23.001Z</time></trkpt><trkpt lat="44.380453602189974" lon="11.584503279025782"><ele>77.0</ele><time>2026-05-02T12:50:24.001Z</time></trkpt><trkpt lat="44.38041160225365" lon="11.584710281906665"><ele>77.0</ele><time>2026-05-02T12:50:25.001Z</time></trkpt><trkpt lat="44.38036456985299" lon="11.584914596491572"><ele>77.0</ele><time>2026-05-02T12:50:26.001Z</time></trkpt><trkpt lat="44.38031814255368" lon="11.58512722878607"><ele>77.0</ele><time>2026-05-02T12:50:27.001Z</time></trkpt><trkpt lat="44.38027089701268" lon="11.585342417097666"><ele>76.33333333333334</ele><time>2026-05-02T12:50:28.001Z</time></trkpt><trkpt lat="44.3802267089254" lon="11.585557971301567"><ele>75.66666666666667</ele><time>2026-05-02T12:50:29.001Z</time></trkpt><trkpt lat="44.38018342761519" lon="11.585759584624624"><ele>75.0</ele><time>2026-05-02T12:50:30.001Z</time></trkpt><trkpt lat="44.380140244885816" lon="11.585952110931371"><ele>75.0</ele><time>2026-05-02T12:50:31.001Z</time></trkpt><trkpt lat="44.38010720698585" lon="11.586147745995646"><ele>75.0</ele><time>2026-05-02T12:50:32.001Z</time></trkpt><trkpt lat="44.3800849791282" lon="11.586326506367655"><ele>75.0</ele><time>2026-05-02T12:50:33.001Z</time></trkpt><trkpt lat="44.380089912535354" lon="11.586495226862347"><ele>75.0</ele><time>2026-05-02T12:50:34.001Z</time></trkpt><trkpt lat="44.380116818801305" lon="11.586657031791525"><ele>75.2</ele><time>2026-05-02T12:50:35.001Z</time></trkpt><trkpt lat="44.380159099700506" lon="11.586800306404408"><ele>75.4</ele><time>2026-05-02T12:50:36.001Z</time></trkpt><trkpt lat="44.38021305866319" lon="11.586919497319505"><ele>75.6</ele><time>2026-05-02T12:50:37.001Z</time></trkpt><trkpt lat="44.38026960370688" lon="11.58701155124559"><ele>75.8</ele><time>2026-05-02T12:50:38.001Z</time></trkpt><trkpt lat="44.38032840921854" lon="11.587087561676107"><ele>76.0</ele><time>2026-05-02T12:50:39.001Z</time></trkpt><trkpt lat="44.38038743506427" lon="11.587149698195104"><ele>75.66666666666666</ele><time>2026-05-02T12:50:40.001Z</time></trkpt><trkpt lat="44.38044213752193" lon="11.587207401187365"><ele>75.33333333333333</ele><time>2026-05-02T12:50:41.001Z</time></trkpt><trkpt lat="44.3804968589822" lon="11.587260509520645"><ele>75.0</ele><time>2026-05-02T12:50:42.001Z</time></trkpt><trkpt lat="44.38055012694772" lon="11.587315471597595"><ele>74.66666666666667</ele><time>2026-05-02T12:50:43.001Z</time></trkpt><trkpt lat="44.38064740283811" lon="11.58741613951143"><ele>74.33333333333334</ele><time>2026-05-02T12:50:45.001Z</time></trkpt><trkpt lat="44.38075023285516" lon="11.58751699665454"><ele>74.0</ele><time>2026-05-02T12:50:47.001Z</time></trkpt><trkpt lat="44.38080819918122" lon="11.58760459406142"><ele>74.0</ele><time>2026-05-02T12:50:49.001Z</time></trkpt><trkpt lat="44.38082489359677" lon="11.587706590733564"><ele>74.0</ele><time>2026-05-02T12:50:52.002Z</time></trkpt><trkpt lat="44.38090192521476" lon="11.587727231730753"><ele>74.0</ele><time>2026-05-02T12:53:53.003Z</time></trkpt><trkpt lat="44.381000520361454" lon="11.5877225750304"><ele>74.0</ele><time>2026-05-02T12:53:55.003Z</time></trkpt><trkpt lat="44.381084227072876" lon="11.587794624243381"><ele>74.0</ele><time>2026-05-02T12:53:56.999Z</time></trkpt><trkpt lat="44.38115920054722" lon="11.587893708073617"><ele>73.66666666666667</ele><time>2026-05-02T12:53:58.999Z</time></trkpt><trkpt lat="44.38125570341731" lon="11.587974326569135"><ele>73.33333333333334</ele><time>2026-05-02T12:54:00.999Z</time></trkpt><trkpt lat="44.381365270326896" lon="11.588047398722413"><ele>73.0</ele><time>2026-05-02T12:54:02.999Z</time></trkpt><trkpt lat="44.38142773804145" lon="11.588076794830194"><ele>72.66666666666667</ele><time>2026-05-02T12:54:03.999Z</time></trkpt><trkpt lat="44.38149881528924" lon="11.588104338199912"><ele>72.33333333333333</ele><time>2026-05-02T12:54:04.999Z</time></trkpt><trkpt lat="44.38156991511365" lon="11.58813304425067"><ele>72.0</ele><time>2026-05-02T12:54:05.999Z</time></trkpt><trkpt lat="44.38164774746437" lon="11.588158640801522"><ele>72.0</ele><time>2026-05-02T12:54:06.999Z</time></trkpt><trkpt lat="44.38173170155507" lon="11.588178594696004"><ele>72.0</ele><time>2026-05-02T12:54:08Z</time></trkpt><trkpt lat="44.38181426563698" lon="11.58819592915736"><ele>72.0</ele><time>2026-05-02T12:54:09Z</time></trkpt><trkpt lat="44.3818930756363" lon="11.588211901832171"><ele>72.0</ele><time>2026-05-02T12:54:10Z</time></trkpt><trkpt lat="44.38197468087434" lon="11.58822923882104"><ele>72.0</ele><time>2026-05-02T12:54:11Z</time></trkpt><trkpt lat="44.3820661974418" lon="11.588246166095448"><ele>72.0</ele><time>2026-05-02T12:54:12Z</time></trkpt><trkpt lat="44.382159508297924" lon="11.588252678696275"><ele>71.6</ele><time>2026-05-02T12:54:13Z</time></trkpt><trkpt lat="44.38225654914642" lon="11.588258317536479"><ele>71.2</ele><time>2026-05-02T12:54:14Z</time></trkpt><trkpt lat="44.382358476573344" lon="11.588262592477367"><ele>70.8</ele><time>2026-05-02T12:54:15Z</time></trkpt><trkpt lat="44.382466911461336" lon="11.588270223491946"><ele>70.4</ele><time>2026-05-02T12:54:16Z</time></trkpt><trkpt lat="44.382577061788886" lon="11.58828143209692"><ele>70.0</ele><time>2026-05-02T12:54:17Z</time></trkpt><trkpt lat="44.38268757573629" lon="11.588291180323747"><ele>70.0</ele><time>2026-05-02T12:54:18Z</time></trkpt><trkpt lat="44.382800512022946" lon="11.588293850252201"><ele>70.0</ele><time>2026-05-02T12:54:19Z</time></trkpt><trkpt lat="44.382913102041535" lon="11.588300223387911"><ele>70.0</ele><time>2026-05-02T12:54:20Z</time></trkpt><trkpt lat="44.38302228026431" lon="11.588306149419237"><ele>70.0</ele><time>2026-05-02T12:54:21Z</time></trkpt><trkpt lat="44.38312954058496" lon="11.588311511782106"><ele>70.0</ele><time>2026-05-02T12:54:22Z</time></trkpt><trkpt lat="44.38323268102849" lon="11.588316104423424"><ele>70.25</ele><time>2026-05-02T12:54:23Z</time></trkpt><trkpt lat="44.38334105752285" lon="11.588321178394086"><ele>70.5</ele><time>2026-05-02T12:54:24Z</time></trkpt><trkpt lat="44.38345220019944" lon="11.588328456257944"><ele>70.75</ele><time>2026-05-02T12:54:25Z</time></trkpt><trkpt lat="44.383564847018704" lon="11.588334843457819"><ele>71.0</ele><time>2026-05-02T12:54:26Z</time></trkpt><trkpt lat="44.38368440830627" lon="11.588340159290135"><ele>71.0</ele><time>2026-05-02T12:54:27Z</time></trkpt><trkpt lat="44.383792699697196" lon="11.588349120922778"><ele>71.0</ele><time>2026-05-02T12:54:28Z</time></trkpt><trkpt lat="44.383893862915855" lon="11.588359175816263"><ele>71.0</ele><time>2026-05-02T12:54:29Z</time></trkpt><trkpt lat="44.38399405838945" lon="11.588367407259987"><ele>71.0</ele><time>2026-05-02T12:54:30Z</time></trkpt><trkpt lat="44.38409732797162" lon="11.588365945113706"><ele>71.0</ele><time>2026-05-02T12:54:31.001Z</time></trkpt><trkpt lat="44.384198677874494" lon="11.588374898414285"><ele>71.39999999999999</ele><time>2026-05-02T12:54:32.001Z</time></trkpt><trkpt lat="44.38430753829672" lon="11.588382372373623"><ele>71.8</ele><time>2026-05-02T12:54:33.001Z</time></trkpt><trkpt lat="44.38441405125277" lon="11.58838806068525"><ele>72.19999999999999</ele><time>2026-05-02T12:54:34.001Z</time></trkpt><trkpt lat="44.38452436827543" lon="11.588393835280142"><ele>72.6</ele><time>2026-05-02T12:54:35.001Z</time></trkpt><trkpt lat="44.384637254492375" lon="11.588400861081611"><ele>73.0</ele><time>2026-05-02T12:54:36.001Z</time></trkpt><trkpt lat="44.38475101669805" lon="11.588406703630824"><ele>73.0</ele><time>2026-05-02T12:54:37.001Z</time></trkpt><trkpt lat="44.384867632610984" lon="11.588417431915067"><ele>73.0</ele><time>2026-05-02T12:54:38.001Z</time></trkpt><trkpt lat="44.384985185141154" lon="11.588425474956953"><ele>73.0</ele><time>2026-05-02T12:54:39.001Z</time></trkpt><trkpt lat="44.3851017517123" lon="11.588437324967357"><ele>73.0</ele><time>2026-05-02T12:54:40.001Z</time></trkpt><trkpt lat="44.38522312572817" lon="11.5884436566405"><ele>73.0</ele><time>2026-05-02T12:54:41.001Z</time></trkpt><trkpt lat="44.38535340725066" lon="11.5884480356745"><ele>73.0</ele><time>2026-05-02T12:54:42.001Z</time></trkpt><trkpt lat="44.3854751641539" lon="11.588453112364736"><ele>73.0</ele><time>2026-05-02T12:54:43.001Z</time></trkpt><trkpt lat="44.385598574135024" lon="11.588459706995543"><ele>73.0</ele><time>2026-05-02T12:54:44.001Z</time></trkpt><trkpt lat="44.38572607274411" lon="11.58846645714695"><ele>73.0</ele><time>2026-05-02T12:54:45.001Z</time></trkpt><trkpt lat="44.38585378669713" lon="11.588470723221127"><ele>73.0</ele><time>2026-05-02T12:54:46.001Z</time></trkpt><trkpt lat="44.38598851011599" lon="11.588481182040747"><ele>73.0</ele><time>2026-05-02T12:54:47.001Z</time></trkpt><trkpt lat="44.38611589812012" lon="11.588491465612712"><ele>73.0</ele><time>2026-05-02T12:54:48.001Z</time></trkpt><trkpt lat="44.38624962810644" lon="11.588502068620297"><ele>72.5</ele><time>2026-05-02T12:54:49.001Z</time></trkpt><trkpt lat="44.38637376644949" lon="11.588510766688433"><ele>72.0</ele><time>2026-05-02T12:54:50.001Z</time></trkpt><trkpt lat="44.38650309636812" lon="11.588521646084475"><ele>71.5</ele><time>2026-05-02T12:54:51.001Z</time></trkpt><trkpt lat="44.386630608829165" lon="11.588530975131986"><ele>71.0</ele><time>2026-05-02T12:54:52.001Z</time></trkpt><trkpt lat="44.38675897273725" lon="11.588545198048145"><ele>71.0</ele><time>2026-05-02T12:54:53.001Z</time></trkpt><trkpt lat="44.3868909242887" lon="11.58855103571894"><ele>71.0</ele><time>2026-05-02T12:54:54.001Z</time></trkpt><trkpt lat="44.387025401118905" lon="11.588548430944133"><ele>71.0</ele><time>2026-05-02T12:54:55.001Z</time></trkpt><trkpt lat="44.38715247832851" lon="11.588541191395446"><ele>71.0</ele><time>2026-05-02T12:54:56.001Z</time></trkpt><trkpt lat="44.38728053548135" lon="11.588524952130927"><ele>70.75</ele><time>2026-05-02T12:54:57.001Z</time></trkpt><trkpt lat="44.387413747602544" lon="11.588509169797367"><ele>70.5</ele><time>2026-05-02T12:54:58.001Z</time></trkpt><trkpt lat="44.387546245803705" lon="11.588493597527203"><ele>70.25</ele><time>2026-05-02T12:54:59.001Z</time></trkpt><trkpt lat="44.38768774947907" lon="11.58848541854248"><ele>70.0</ele><time>2026-05-02T12:55:00.001Z</time></trkpt><trkpt lat="44.38782424055521" lon="11.588465866982459"><ele>70.0</ele><time>2026-05-02T12:55:01.002Z</time></trkpt><trkpt lat="44.38796482786736" lon="11.58845007301706"><ele>70.0</ele><time>2026-05-02T12:55:02.002Z</time></trkpt><trkpt lat="44.38810864933241" lon="11.588433297854133"><ele>70.0</ele><time>2026-05-02T12:55:03.002Z</time></trkpt><trkpt lat="44.38825454891665" lon="11.588412728061774"><ele>70.0</ele><time>2026-05-02T12:55:04.002Z</time></trkpt><trkpt lat="44.38839159916373" lon="11.588397812021542"><ele>70.0</ele><time>2026-05-02T12:55:05.002Z</time></trkpt><trkpt lat="44.38853399546105" lon="11.588387200952596"><ele>70.0</ele><time>2026-05-02T12:55:06.002Z</time></trkpt><trkpt lat="44.388672334733805" lon="11.588377024238603"><ele>70.0</ele><time>2026-05-02T12:55:07.002Z</time></trkpt><trkpt lat="44.38882099630492" lon="11.588357039140282"><ele>70.0</ele><time>2026-05-02T12:55:08.002Z</time></trkpt><trkpt lat="44.38895839641248" lon="11.588340276861505"><ele>70.0</ele><time>2026-05-02T12:55:09.002Z</time></trkpt><trkpt lat="44.38909304262971" lon="11.588321295037415"><ele>70.0</ele><time>2026-05-02T12:55:10.002Z</time></trkpt><trkpt lat="44.38921924886214" lon="11.588308390863096"><ele>70.0</ele><time>2026-05-02T12:55:11.002Z</time></trkpt><trkpt lat="44.38934691319082" lon="11.588307741936767"><ele>70.0</ele><time>2026-05-02T12:55:12.002Z</time></trkpt><trkpt lat="44.38948086040246" lon="11.58833091746135"><ele>70.0</ele><time>2026-05-02T12:55:13.002Z</time></trkpt><trkpt lat="44.38960440766669" lon="11.58837692083734"><ele>70.0</ele><time>2026-05-02T12:55:14.002Z</time></trkpt><trkpt lat="44.38972380068827" lon="11.588427853101681"><ele>70.0</ele><time>2026-05-02T12:55:15.002Z</time></trkpt><trkpt lat="44.389832077808464" lon="11.588479228879114"><ele>70.0</ele><time>2026-05-02T12:55:16.002Z</time></trkpt><trkpt lat="44.38994482462623" lon="11.588521683142842"><ele>70.6</ele><time>2026-05-02T12:55:17.002Z</time></trkpt><trkpt lat="44.39004698292677" lon="11.58856730953222"><ele>71.2</ele><time>2026-05-02T12:55:18.002Z</time></trkpt><trkpt lat="44.39014367689945" lon="11.588600401019004"><ele>71.8</ele><time>2026-05-02T12:55:19.002Z</time></trkpt><trkpt lat="44.39023814408157" lon="11.588616184667753"><ele>72.4</ele><time>2026-05-02T12:55:20.002Z</time></trkpt><trkpt lat="44.390328215017" lon="11.588619907205855"><ele>73.0</ele><time>2026-05-02T12:55:21.002Z</time></trkpt><trkpt lat="44.39042033995959" lon="11.588623664015907"><ele>72.4</ele><time>2026-05-02T12:55:22.002Z</time></trkpt><trkpt lat="44.39052014430867" lon="11.588622558398068"><ele>71.8</ele><time>2026-05-02T12:55:23.002Z</time></trkpt><trkpt lat="44.39061313988495" lon="11.588618640416696"><ele>71.2</ele><time>2026-05-02T12:55:24.002Z</time></trkpt><trkpt lat="44.3906983762791" lon="11.588608535099384"><ele>70.6</ele><time>2026-05-02T12:55:25.002Z</time></trkpt><trkpt lat="44.39078864345932" lon="11.58860428287951"><ele>70.0</ele><time>2026-05-02T12:55:26.002Z</time></trkpt><trkpt lat="44.3908820616422" lon="11.58860806722127"><ele>70.0</ele><time>2026-05-02T12:55:27.002Z</time></trkpt><trkpt lat="44.39097712128408" lon="11.588597221056382"><ele>70.0</ele><time>2026-05-02T12:55:28.002Z</time></trkpt><trkpt lat="44.3910708984856" lon="11.58858906841166"><ele>70.0</ele><time>2026-05-02T12:55:29.002Z</time></trkpt><trkpt lat="44.391164519520714" lon="11.588582055281437"><ele>70.0</ele><time>2026-05-02T12:55:30.002Z</time></trkpt><trkpt lat="44.39125687831842" lon="11.58857581541662"><ele>70.0</ele><time>2026-05-02T12:55:31.002Z</time></trkpt><trkpt lat="44.391351178420315" lon="11.588564319618765"><ele>70.6</ele><time>2026-05-02T12:55:32.002Z</time></trkpt><trkpt lat="44.39144904970131" lon="11.588557016441587"><ele>71.2</ele><time>2026-05-02T12:55:33.003Z</time></trkpt><trkpt lat="44.39154893745233" lon="11.588552902157575"><ele>71.8</ele><time>2026-05-02T12:55:34.003Z</time></trkpt><trkpt lat="44.39164573903487" lon="11.588548183767177"><ele>72.4</ele><time>2026-05-02T12:55:35.003Z</time></trkpt><trkpt lat="44.39174356697237" lon="11.588543919240083"><ele>73.0</ele><time>2026-05-02T12:55:36.003Z</time></trkpt><trkpt lat="44.39183956051687" lon="11.588552650302384"><ele>73.0</ele><time>2026-05-02T12:55:37.003Z</time></trkpt><trkpt lat="44.39193756688465" lon="11.58858450282481"><ele>73.0</ele><time>2026-05-02T12:55:38.003Z</time></trkpt><trkpt lat="44.39202697437477" lon="11.58863185232934"><ele>73.0</ele><time>2026-05-02T12:55:39.003Z</time></trkpt><trkpt lat="44.392112898692254" lon="11.588668407915776"><ele>73.0</ele><time>2026-05-02T12:55:40.003Z</time></trkpt><trkpt lat="44.39219749981647" lon="11.588705190703548"><ele>73.0</ele><time>2026-05-02T12:55:41.003Z</time></trkpt><trkpt lat="44.392279895633884" lon="11.58874376212976"><ele>72.2</ele><time>2026-05-02T12:55:42.003Z</time></trkpt><trkpt lat="44.39237014519264" lon="11.588783983294022"><ele>71.4</ele><time>2026-05-02T12:55:43.003Z</time></trkpt><trkpt lat="44.39245804427148" lon="11.588825207453324"><ele>70.60000000000001</ele><time>2026-05-02T12:55:44.003Z</time></trkpt><trkpt lat="44.392552634209274" lon="11.588858330433983"><ele>69.8</ele><time>2026-05-02T12:55:45.003Z</time></trkpt><trkpt lat="44.39264742792776" lon="11.588882450848185"><ele>69.0</ele><time>2026-05-02T12:55:46.003Z</time></trkpt><trkpt lat="44.39274964091045" lon="11.58889381331346"><ele>69.0</ele><time>2026-05-02T12:55:47.003Z</time></trkpt><trkpt lat="44.39284658187332" lon="11.58890299059425"><ele>69.0</ele><time>2026-05-02T12:55:48.003Z</time></trkpt><trkpt lat="44.392943621636334" lon="11.588912330774347"><ele>69.0</ele><time>2026-05-02T12:55:49.003Z</time></trkpt><trkpt lat="44.393041822672664" lon="11.588916981953885"><ele>69.0</ele><time>2026-05-02T12:55:50.003Z</time></trkpt><trkpt lat="44.393132742562386" lon="11.588920157019105"><ele>69.0</ele><time>2026-05-02T12:55:51.003Z</time></trkpt><trkpt lat="44.393216874277655" lon="11.588903349942832"><ele>69.5</ele><time>2026-05-02T12:55:52.003Z</time></trkpt><trkpt lat="44.393305175729395" lon="11.588886032021684"><ele>70.0</ele><time>2026-05-02T12:55:53.003Z</time></trkpt><trkpt lat="44.393379283044496" lon="11.588852857591448"><ele>70.5</ele><time>2026-05-02T12:55:54.003Z</time></trkpt><trkpt lat="44.393467423863" lon="11.588828048355078"><ele>71.0</ele><time>2026-05-02T12:55:55.003Z</time></trkpt><trkpt lat="44.39354762915156" lon="11.588799932135709"><ele>71.5</ele><time>2026-05-02T12:55:56.003Z</time></trkpt><trkpt lat="44.3936300634768" lon="11.58877576130182"><ele>72.0</ele><time>2026-05-02T12:55:57.003Z</time></trkpt><trkpt lat="44.39371616575648" lon="11.588758790627018"><ele>72.0</ele><time>2026-05-02T12:55:58.003Z</time></trkpt><trkpt lat="44.393808974007264" lon="11.58875710174433"><ele>72.0</ele><time>2026-05-02T12:55:59.003Z</time></trkpt><trkpt lat="44.39390450656811" lon="11.588781876163972"><ele>72.0</ele><time>2026-05-02T12:56:00.003Z</time></trkpt><trkpt lat="44.39399040227776" lon="11.588818116329696"><ele>72.0</ele><time>2026-05-02T12:56:01.003Z</time></trkpt><trkpt lat="44.39407834022527" lon="11.588855808130099"><ele>72.0</ele><time>2026-05-02T12:56:02.003Z</time></trkpt><trkpt lat="44.39416709127624" lon="11.58890008881735"><ele>73.2</ele><time>2026-05-02T12:56:02.999Z</time></trkpt><trkpt lat="44.394263007410906" lon="11.588959040901848"><ele>74.4</ele><time>2026-05-02T12:56:03.999Z</time></trkpt><trkpt lat="44.3943632034965" lon="11.58899801816185"><ele>75.6</ele><time>2026-05-02T12:56:04.999Z</time></trkpt><trkpt lat="44.39446035730484" lon="11.589058641052874"><ele>76.8</ele><time>2026-05-02T12:56:05.999Z</time></trkpt><trkpt lat="44.394555454537695" lon="11.58912664645966"><ele>78.0</ele><time>2026-05-02T12:56:06.999Z</time></trkpt><trkpt lat="44.39465617441157" lon="11.58919679852098"><ele>78.66666666666667</ele><time>2026-05-02T12:56:07.999Z</time></trkpt><trkpt lat="44.394743060229494" lon="11.589257275580197"><ele>79.33333333333333</ele><time>2026-05-02T12:56:08.999Z</time></trkpt><trkpt lat="44.39482583463541" lon="11.589311470116634"><ele>80.0</ele><time>2026-05-02T12:56:09.999Z</time></trkpt><trkpt lat="44.394902307236876" lon="11.58935450626263"><ele>80.66666666666666</ele><time>2026-05-02T12:56:11Z</time></trkpt><trkpt lat="44.39497764261983" lon="11.5893816725581"><ele>81.33333333333333</ele><time>2026-05-02T12:56:12Z</time></trkpt><trkpt lat="44.39505346128472" lon="11.589420971300473"><ele>82.0</ele><time>2026-05-02T12:56:13Z</time></trkpt><trkpt lat="44.395122932068766" lon="11.589454072390257"><ele>82.0</ele><time>2026-05-02T12:56:14Z</time></trkpt><trkpt lat="44.39519771580765" lon="11.589462161146756"><ele>82.0</ele><time>2026-05-02T12:56:15Z</time></trkpt><trkpt lat="44.39526727542769" lon="11.589480392255446"><ele>82.0</ele><time>2026-05-02T12:56:16Z</time></trkpt><trkpt lat="44.395396894013196" lon="11.589516498570228"><ele>82.0</ele><time>2026-05-02T12:56:18Z</time></trkpt><trkpt lat="44.395502945957354" lon="11.58956869851741"><ele>82.0</ele><time>2026-05-02T12:56:20Z</time></trkpt><trkpt lat="44.39559701581085" lon="11.58961073497907"><ele>82.0</ele><time>2026-05-02T12:56:22Z</time></trkpt><trkpt lat="44.395654392400964" lon="11.58955497890997"><ele>82.0</ele><time>2026-05-02T12:56:24Z</time></trkpt><trkpt lat="44.395660941101255" lon="11.589434666688899"><ele>82.0</ele><time>2026-05-02T12:56:26Z</time></trkpt><trkpt lat="44.39570061103447" lon="11.589296051778618"><ele>82.0</ele><time>2026-05-02T12:56:28Z</time></trkpt><trkpt lat="44.39579510390853" lon="11.589200003730651"><ele>82.0</ele><time>2026-05-02T12:56:30Z</time></trkpt><trkpt lat="44.39591085448951" lon="11.58911458847316"><ele>82.28571428571428</ele><time>2026-05-02T12:56:32Z</time></trkpt><trkpt lat="44.395967548534756" lon="11.589060351526987"><ele>82.57142857142857</ele><time>2026-05-02T12:56:33Z</time></trkpt><trkpt lat="44.39602389294255" lon="11.589009564665607"><ele>82.85714285714286</ele><time>2026-05-02T12:56:34Z</time></trkpt><trkpt lat="44.396083662778246" lon="11.588959901483008"><ele>83.14285714285714</ele><time>2026-05-02T12:56:35.001Z</time></trkpt><trkpt lat="44.39614510251381" lon="11.588905729936798"><ele>83.42857142857143</ele><time>2026-05-02T12:56:36.001Z</time></trkpt><trkpt lat="44.39620102862325" lon="11.588842135106852"><ele>83.71428571428571</ele><time>2026-05-02T12:56:37.001Z</time></trkpt><trkpt lat="44.396249886316" lon="11.588775821418697"><ele>84.0</ele><time>2026-05-02T12:56:38.001Z</time></trkpt><trkpt lat="44.39628727292229" lon="11.588704312826149"><ele>84.4</ele><time>2026-05-02T12:56:39.001Z</time></trkpt><trkpt lat="44.39635530620341" lon="11.588557656552018"><ele>84.80000000000001</ele><time>2026-05-02T12:56:41.001Z</time></trkpt><trkpt lat="44.39638632637958" lon="11.588477753756026"><ele>85.19999999999999</ele><time>2026-05-02T12:56:42.001Z</time></trkpt><trkpt lat="44.39642106481301" lon="11.588318810361137"><ele>85.6</ele><time>2026-05-02T12:56:44.001Z</time></trkpt><trkpt lat="44.39641204446766" lon="11.588154443380464"><ele>86.0</ele><time>2026-05-02T12:56:46.001Z</time></trkpt><trkpt lat="44.396405400605424" lon="11.587986220881396"><ele>85.83333333333334</ele><time>2026-05-02T12:56:48.001Z</time></trkpt><trkpt lat="44.396441664306366" lon="11.587817605074942"><ele>85.66666666666667</ele><time>2026-05-02T12:56:50.001Z</time></trkpt><trkpt lat="44.3964864949033" lon="11.58774532027675"><ele>85.5</ele><time>2026-05-02T12:56:51.001Z</time></trkpt><trkpt lat="44.396535545657756" lon="11.587678856783748"><ele>85.33333333333333</ele><time>2026-05-02T12:56:52.001Z</time></trkpt><trkpt lat="44.396597405340614" lon="11.58762869917091"><ele>85.16666666666666</ele><time>2026-05-02T12:56:53.001Z</time></trkpt><trkpt lat="44.39666031067937" lon="11.58759044674572"><ele>85.0</ele><time>2026-05-02T12:56:54.001Z</time></trkpt><trkpt lat="44.39672697647778" lon="11.587560581844333"><ele>85.0</ele><time>2026-05-02T12:56:55.001Z</time></trkpt><trkpt lat="44.39679662331422" lon="11.587554201270903"><ele>85.0</ele><time>2026-05-02T12:56:56.001Z</time></trkpt><trkpt lat="44.396867164466045" lon="11.587561846703442"><ele>85.0</ele><time>2026-05-02T12:56:57.001Z</time></trkpt><trkpt lat="44.3969343098185" lon="11.587582870445221"><ele>85.0</ele><time>2026-05-02T12:56:58.001Z</time></trkpt><trkpt lat="44.39700633954701" lon="11.587605958145483"><ele>85.0</ele><time>2026-05-02T12:56:59.001Z</time></trkpt><trkpt lat="44.39707584654023" lon="11.587633296852097"><ele>85.0</ele><time>2026-05-02T12:57:00.001Z</time></trkpt><trkpt lat="44.39715196021275" lon="11.587670620529474"><ele>85.0</ele><time>2026-05-02T12:57:01.001Z</time></trkpt><trkpt lat="44.3972229182662" lon="11.587710882498198"><ele>84.5</ele><time>2026-05-02T12:57:02.001Z</time></trkpt><trkpt lat="44.39730253145509" lon="11.587753361751073"><ele>84.0</ele><time>2026-05-02T12:57:03.001Z</time></trkpt><trkpt lat="44.397377550940256" lon="11.587805554872093"><ele>83.5</ele><time>2026-05-02T12:57:04.001Z</time></trkpt><trkpt lat="44.39745680413355" lon="11.587853684689502"><ele>83.0</ele><time>2026-05-02T12:57:05.001Z</time></trkpt><trkpt lat="44.397524281126614" lon="11.587904675395338"><ele>82.5</ele><time>2026-05-02T12:57:06.001Z</time></trkpt><trkpt lat="44.39759527334068" lon="11.58794775263121"><ele>82.0</ele><time>2026-05-02T12:57:07.001Z</time></trkpt><trkpt lat="44.397666396458504" lon="11.58798165995466"><ele>82.0</ele><time>2026-05-02T12:57:08.002Z</time></trkpt><trkpt lat="44.3977278515477" lon="11.588015658184846"><ele>82.0</ele><time>2026-05-02T12:57:09.002Z</time></trkpt><trkpt lat="44.39782015565464" lon="11.588076094693259"><ele>82.0</ele><time>2026-05-02T12:57:11.002Z</time></trkpt><trkpt lat="44.39790879491029" lon="11.588135359377684"><ele>82.0</ele><time>2026-05-02T12:57:29.002Z</time></trkpt><trkpt lat="44.39802338567589" lon="11.588204912308631"><ele>82.0</ele><time>2026-05-02T12:57:31.002Z</time></trkpt><trkpt lat="44.39813924167817" lon="11.588285398167912"><ele>81.33333333333333</ele><time>2026-05-02T12:57:33.002Z</time></trkpt><trkpt lat="44.3982104953026" lon="11.588333219270993"><ele>80.66666666666666</ele><time>2026-05-02T12:57:34.002Z</time></trkpt><trkpt lat="44.39827560706853" lon="11.588385340670943"><ele>80.0</ele><time>2026-05-02T12:57:35.002Z</time></trkpt><trkpt lat="44.3983556718527" lon="11.588442153935295"><ele>79.33333333333333</ele><time>2026-05-02T12:57:36.002Z</time></trkpt><trkpt lat="44.39844118371315" lon="11.588496607078946"><ele>78.66666666666667</ele><time>2026-05-02T12:57:37.002Z</time></trkpt><trkpt lat="44.398521418702" lon="11.588557769735559"><ele>78.0</ele><time>2026-05-02T12:57:38.002Z</time></trkpt><trkpt lat="44.39860411906871" lon="11.588612809551725"><ele>78.0</ele><time>2026-05-02T12:57:39.002Z</time></trkpt><trkpt lat="44.39868869024731" lon="11.588664937134636"><ele>78.0</ele><time>2026-05-02T12:57:40.002Z</time></trkpt><trkpt lat="44.39877462788574" lon="11.588721466455532"><ele>78.0</ele><time>2026-05-02T12:57:41.002Z</time></trkpt><trkpt lat="44.398860993121744" lon="11.588768090515115"><ele>78.0</ele><time>2026-05-02T12:57:42.002Z</time></trkpt><trkpt lat="44.39895351890284" lon="11.58882266373642"><ele>78.0</ele><time>2026-05-02T12:57:43.002Z</time></trkpt><trkpt lat="44.39904576254192" lon="11.588872179823758"><ele>77.83333333333333</ele><time>2026-05-02T12:57:44.002Z</time></trkpt><trkpt lat="44.39912837499217" lon="11.588927157726543"><ele>77.66666666666667</ele><time>2026-05-02T12:57:45.003Z</time></trkpt><trkpt lat="44.39921294714574" lon="11.58897408090871"><ele>77.5</ele><time>2026-05-02T12:57:46.003Z</time></trkpt><trkpt lat="44.39928595073744" lon="11.589024284037274"><ele>77.33333333333334</ele><time>2026-05-02T12:57:47.003Z</time></trkpt><trkpt lat="44.399354679595604" lon="11.589074231699348"><ele>77.16666666666667</ele><time>2026-05-02T12:57:48.003Z</time></trkpt><trkpt lat="44.399416171964006" lon="11.589122946216188"><ele>77.0</ele><time>2026-05-02T12:57:49.003Z</time></trkpt><trkpt lat="44.39951269787533" lon="11.589189412558264"><ele>77.0</ele><time>2026-05-02T12:57:51.003Z</time></trkpt><trkpt lat="44.39958455804855" lon="11.589206275524692"><ele>77.0</ele><time>2026-05-02T12:57:53.003Z</time></trkpt><trkpt lat="44.39965880138671" lon="11.589183317777415"><ele>77.0</ele><time>2026-05-02T12:57:55.003Z</time></trkpt><trkpt lat="44.39973136084528" lon="11.589063804889763"><ele>77.0</ele><time>2026-05-02T12:57:57.003Z</time></trkpt><trkpt lat="44.39976443883118" lon="11.5889866429373"><ele>77.0</ele><time>2026-05-02T12:57:58.003Z</time></trkpt><trkpt lat="44.399798521942266" lon="11.588896557640583"><ele>77.0</ele><time>2026-05-02T12:57:59.003Z</time></trkpt><trkpt lat="44.39983480535567" lon="11.588794358144057"><ele>77.0</ele><time>2026-05-02T12:58:00.003Z</time></trkpt><trkpt lat="44.39987588377692" lon="11.588685176811769"><ele>77.0</ele><time>2026-05-02T12:58:01.003Z</time></trkpt><trkpt lat="44.39992821695968" lon="11.588574626023025"><ele>77.0</ele><time>2026-05-02T12:58:02.003Z</time></trkpt><trkpt lat="44.39998642144499" lon="11.588468298477101"><ele>77.0</ele><time>2026-05-02T12:58:03.003Z</time></trkpt><trkpt lat="44.40005142585415" lon="11.588381982333221"><ele>77.0</ele><time>2026-05-02T12:58:04.003Z</time></trkpt><trkpt lat="44.400119883415265" lon="11.588306985208908"><ele>76.8</ele><time>2026-05-02T12:58:05.003Z</time></trkpt><trkpt lat="44.40018486229994" lon="11.588229265507415"><ele>76.6</ele><time>2026-05-02T12:58:06.003Z</time></trkpt><trkpt lat="44.40025090503293" lon="11.58814382343198"><ele>76.39999999999999</ele><time>2026-05-02T12:58:07.003Z</time></trkpt><trkpt lat="44.40032413471186" lon="11.588061100523692"><ele>76.2</ele><time>2026-05-02T12:58:08.003Z</time></trkpt><trkpt lat="44.40039887352951" lon="11.587987542897691"><ele>76.0</ele><time>2026-05-02T12:58:08.999Z</time></trkpt><trkpt lat="44.40048511566902" lon="11.587930558957105"><ele>75.6</ele><time>2026-05-02T12:58:09.999Z</time></trkpt><trkpt lat="44.40057186028783" lon="11.587880975586758"><ele>75.19999999999999</ele><time>2026-05-02T12:58:10.999Z</time></trkpt><trkpt lat="44.400652780039415" lon="11.5878330440158"><ele>74.80000000000001</ele><time>2026-05-02T12:58:11.999Z</time></trkpt><trkpt lat="44.40073575882149" lon="11.587780746841643"><ele>74.4</ele><time>2026-05-02T12:58:12.999Z</time></trkpt><trkpt lat="44.400818100176494" lon="11.587732694912349"><ele>74.0</ele><time>2026-05-02T12:58:13.999Z</time></trkpt><trkpt lat="44.40090651265144" lon="11.587687399213047"><ele>74.0</ele><time>2026-05-02T12:58:14.999Z</time></trkpt><trkpt lat="44.40098458156473" lon="11.58764172553222"><ele>74.0</ele><time>2026-05-02T12:58:15.999Z</time></trkpt><trkpt lat="44.40107137461589" lon="11.58759692017737"><ele>74.0</ele><time>2026-05-02T12:58:16.999Z</time></trkpt><trkpt lat="44.401170273431944" lon="11.587550508567181"><ele>74.0</ele><time>2026-05-02T12:58:17.999Z</time></trkpt><trkpt lat="44.401264967796976" lon="11.587504856654077"><ele>74.0</ele><time>2026-05-02T12:58:18.999Z</time></trkpt><trkpt lat="44.40136120093436" lon="11.587450512419682"><ele>73.8</ele><time>2026-05-02T12:58:20Z</time></trkpt><trkpt lat="44.40145980999791" lon="11.587398776569255"><ele>73.60000000000001</ele><time>2026-05-02T12:58:21Z</time></trkpt><trkpt lat="44.40156107492384" lon="11.587344718466792"><ele>73.4</ele><time>2026-05-02T12:58:22Z</time></trkpt><trkpt lat="44.40165658668517" lon="11.587287824193918"><ele>73.2</ele><time>2026-05-02T12:58:23Z</time></trkpt><trkpt lat="44.40175924337496" lon="11.58723669087265"><ele>73.0</ele><time>2026-05-02T12:58:24Z</time></trkpt><trkpt lat="44.40185645776329" lon="11.58718091469663"><ele>73.0</ele><time>2026-05-02T12:58:25Z</time></trkpt><trkpt lat="44.40194986159225" lon="11.587136341609671"><ele>73.0</ele><time>2026-05-02T12:58:26Z</time></trkpt><trkpt lat="44.402043289941005" lon="11.58709175859173"><ele>73.0</ele><time>2026-05-02T12:58:27Z</time></trkpt><trkpt lat="44.402132233895614" lon="11.587054483974258"><ele>73.0</ele><time>2026-05-02T12:58:28Z</time></trkpt><trkpt lat="44.402214677164274" lon="11.58700982606795"><ele>73.0</ele><time>2026-05-02T12:58:29Z</time></trkpt><trkpt lat="44.40229572780139" lon="11.586970345767131"><ele>72.5</ele><time>2026-05-02T12:58:30Z</time></trkpt><trkpt lat="44.40237107423776" lon="11.586938362231617"><ele>72.0</ele><time>2026-05-02T12:58:31Z</time></trkpt><trkpt lat="44.40243808957064" lon="11.586916390425337"><ele>71.5</ele><time>2026-05-02T12:58:32Z</time></trkpt><trkpt lat="44.40250254077251" lon="11.586908874495672"><ele>71.0</ele><time>2026-05-02T12:58:33Z</time></trkpt><trkpt lat="44.402614649723674" lon="11.586931403981556"><ele>70.5</ele><time>2026-05-02T12:58:35Z</time></trkpt><trkpt lat="44.40271134125454" lon="11.587025535678555"><ele>70.0</ele><time>2026-05-02T12:58:37Z</time></trkpt><trkpt lat="44.40275260630281" lon="11.587098519190747"><ele>69.83333333333333</ele><time>2026-05-02T12:58:38Z</time></trkpt><trkpt lat="44.40279674331201" lon="11.58716988225621"><ele>69.66666666666666</ele><time>2026-05-02T12:58:39Z</time></trkpt><trkpt lat="44.402853628672126" lon="11.587229133215462"><ele>69.5</ele><time>2026-05-02T12:58:40Z</time></trkpt><trkpt lat="44.402920123098944" lon="11.587263253568041"><ele>69.33333333333333</ele><time>2026-05-02T12:58:41Z</time></trkpt><trkpt lat="44.40305107610288" lon="11.58726386162487"><ele>69.16666666666667</ele><time>2026-05-02T12:58:43.001Z</time></trkpt><trkpt lat="44.4031249753069" lon="11.587231024843316"><ele>69.0</ele><time>2026-05-02T12:58:44.001Z</time></trkpt><trkpt lat="44.40320361905336" lon="11.587193723136707"><ele>68.5</ele><time>2026-05-02T12:58:45.001Z</time></trkpt><trkpt lat="44.403289785367704" lon="11.587165684079148"><ele>68.0</ele><time>2026-05-02T12:58:46.001Z</time></trkpt><trkpt lat="44.4033710859364" lon="11.587155116884574"><ele>67.5</ele><time>2026-05-02T12:58:47.001Z</time></trkpt><trkpt lat="44.403456039197756" lon="11.587157909207894"><ele>67.0</ele><time>2026-05-02T12:58:48.001Z</time></trkpt><trkpt lat="44.403548044403756" lon="11.587165034561828"><ele>66.5</ele><time>2026-05-02T12:58:49.001Z</time></trkpt><trkpt lat="44.40364703018123" lon="11.587182655673814"><ele>66.0</ele><time>2026-05-02T12:58:50.001Z</time></trkpt><trkpt lat="44.40375265601229" lon="11.587214774668473"><ele>65.25</ele><time>2026-05-02T12:58:51.001Z</time></trkpt><trkpt lat="44.40385976992337" lon="11.58725004070479"><ele>64.5</ele><time>2026-05-02T12:58:52.001Z</time></trkpt><trkpt lat="44.40397129024321" lon="11.587284472285628"><ele>63.75</ele><time>2026-05-02T12:58:53.001Z</time></trkpt><trkpt lat="44.40408834394619" lon="11.587314332471989"><ele>63.0</ele><time>2026-05-02T12:58:54.001Z</time></trkpt><trkpt lat="44.404202141403395" lon="11.587346857943578"><ele>63.0</ele><time>2026-05-02T12:58:55.001Z</time></trkpt><trkpt lat="44.404313657113384" lon="11.587387906057709"><ele>63.0</ele><time>2026-05-02T12:58:56.001Z</time></trkpt><trkpt lat="44.40442853500885" lon="11.587439442544222"><ele>63.0</ele><time>2026-05-02T12:58:57.001Z</time></trkpt><trkpt lat="44.40454696504183" lon="11.587492524872017"><ele>63.0</ele><time>2026-05-02T12:58:58.001Z</time></trkpt><trkpt lat="44.40467129567764" lon="11.587542740578828"><ele>62.75</ele><time>2026-05-02T12:58:59.001Z</time></trkpt><trkpt lat="44.40480291387749" lon="11.587590569154768"><ele>62.5</ele><time>2026-05-02T12:59:00.001Z</time></trkpt><trkpt lat="44.40493414586777" lon="11.587638607471165"><ele>62.25</ele><time>2026-05-02T12:59:01.001Z</time></trkpt><trkpt lat="44.40505776061402" lon="11.587685367605507"><ele>62.0</ele><time>2026-05-02T12:59:02.001Z</time></trkpt><trkpt lat="44.40519327755713" lon="11.587737510267374"><ele>62.0</ele><time>2026-05-02T12:59:03.001Z</time></trkpt><trkpt lat="44.405329894081845" lon="11.587788302268846"><ele>62.0</ele><time>2026-05-02T12:59:04.001Z</time></trkpt><trkpt lat="44.4054660508353" lon="11.587837754490566"><ele>62.0</ele><time>2026-05-02T12:59:05.001Z</time></trkpt><trkpt lat="44.405600223225775" lon="11.587883196392944"><ele>62.0</ele><time>2026-05-02T12:59:06.001Z</time></trkpt><trkpt lat="44.405732172381256" lon="11.58792544102463"><ele>61.5</ele><time>2026-05-02T12:59:07.001Z</time></trkpt><trkpt lat="44.405863129228486" lon="11.587962577643152"><ele>61.0</ele><time>2026-05-02T12:59:08.001Z</time></trkpt><trkpt lat="44.40599212155066" lon="11.587992845467065"><ele>60.5</ele><time>2026-05-02T12:59:09.001Z</time></trkpt><trkpt lat="44.40612326961398" lon="11.588020885316947"><ele>60.0</ele><time>2026-05-02T12:59:10.001Z</time></trkpt><trkpt lat="44.40625485120812" lon="11.588051589549933"><ele>59.75</ele><time>2026-05-02T12:59:11.001Z</time></trkpt><trkpt lat="44.406387008791555" lon="11.588081919805623"><ele>59.5</ele><time>2026-05-02T12:59:12.002Z</time></trkpt><trkpt lat="44.40651491845801" lon="11.588109011879657"><ele>59.25</ele><time>2026-05-02T12:59:13.002Z</time></trkpt><trkpt lat="44.40663492753701" lon="11.588130352938055"><ele>59.0</ele><time>2026-05-02T12:59:14.002Z</time></trkpt><trkpt lat="44.40674670551823" lon="11.58814398921324"><ele>59.0</ele><time>2026-05-02T12:59:15.002Z</time></trkpt><trkpt lat="44.40685745597332" lon="11.588155727467788"><ele>59.0</ele><time>2026-05-02T12:59:16.002Z</time></trkpt><trkpt lat="44.406975790118615" lon="11.58817493335683"><ele>59.0</ele><time>2026-05-02T12:59:17.002Z</time></trkpt><trkpt lat="44.40709422630766" lon="11.58820959045204"><ele>59.0</ele><time>2026-05-02T12:59:18.002Z</time></trkpt><trkpt lat="44.40721245580307" lon="11.588245412280838"><ele>59.0</ele><time>2026-05-02T12:59:19.002Z</time></trkpt><trkpt lat="44.40733032181292" lon="11.588281818182171"><ele>59.0</ele><time>2026-05-02T12:59:20.002Z</time></trkpt><trkpt lat="44.407454906519845" lon="11.588318571620533"><ele>59.0</ele><time>2026-05-02T12:59:21.002Z</time></trkpt><trkpt lat="44.40758547069231" lon="11.588357223320607"><ele>59.0</ele><time>2026-05-02T12:59:22.002Z</time></trkpt><trkpt lat="44.407717291946206" lon="11.588397955122312"><ele>59.0</ele><time>2026-05-02T12:59:23.002Z</time></trkpt><trkpt lat="44.40784828622863" lon="11.588441610843363"><ele>59.0</ele><time>2026-05-02T12:59:24.002Z</time></trkpt><trkpt lat="44.40797787145226" lon="11.588495034443305"><ele>59.0</ele><time>2026-05-02T12:59:25.002Z</time></trkpt><trkpt lat="44.408110537168426" lon="11.588553455547865"><ele>59.0</ele><time>2026-05-02T12:59:26.002Z</time></trkpt><trkpt lat="44.40824843646672" lon="11.588606182027137"><ele>59.25</ele><time>2026-05-02T12:59:27.002Z</time></trkpt><trkpt lat="44.40838949535045" lon="11.588650161695895"><ele>59.5</ele><time>2026-05-02T12:59:28.002Z</time></trkpt><trkpt lat="44.408524710619574" lon="11.588688316658986"><ele>59.75</ele><time>2026-05-02T12:59:29.002Z</time></trkpt><trkpt lat="44.40865657395151" lon="11.588728143168707"><ele>60.0</ele><time>2026-05-02T12:59:30.002Z</time></trkpt><trkpt lat="44.40878865936386" lon="11.588772990068165"><ele>59.25</ele><time>2026-05-02T12:59:31.002Z</time></trkpt><trkpt lat="44.40891952279028" lon="11.588818946189832"><ele>58.5</ele><time>2026-05-02T12:59:32.002Z</time></trkpt><trkpt lat="44.40905024808229" lon="11.588868765912595"><ele>57.75</ele><time>2026-05-02T12:59:33.002Z</time></trkpt><trkpt lat="44.409179745647386" lon="11.588927947369417"><ele>57.0</ele><time>2026-05-02T12:59:34.002Z</time></trkpt><trkpt lat="44.40930934510685" lon="11.58898876656415"><ele>57.0</ele><time>2026-05-02T12:59:35.002Z</time></trkpt><trkpt lat="44.409435869436685" lon="11.58905133514519"><ele>57.0</ele><time>2026-05-02T12:59:36.002Z</time></trkpt><trkpt lat="44.40956332375482" lon="11.589121789022428"><ele>57.0</ele><time>2026-05-02T12:59:37.002Z</time></trkpt><trkpt lat="44.40969309585211" lon="11.589190548231956"><ele>57.0</ele><time>2026-05-02T12:59:38.002Z</time></trkpt><trkpt lat="44.40981491176002" lon="11.58927314331284"><ele>57.25</ele><time>2026-05-02T12:59:39.002Z</time></trkpt><trkpt lat="44.4099427079427" lon="11.589363781328803"><ele>57.5</ele><time>2026-05-02T12:59:40.002Z</time></trkpt><trkpt lat="44.41007368252115" lon="11.58945962356738"><ele>57.75</ele><time>2026-05-02T12:59:41.002Z</time></trkpt><trkpt lat="44.41020032711508" lon="11.589549082671727"><ele>58.0</ele><time>2026-05-02T12:59:42.002Z</time></trkpt><trkpt lat="44.410320820413" lon="11.589647801652703"><ele>58.0</ele><time>2026-05-02T12:59:43.002Z</time></trkpt><trkpt lat="44.41044101827247" lon="11.589743577565242"><ele>58.0</ele><time>2026-05-02T12:59:44.002Z</time></trkpt><trkpt lat="44.41056823300263" lon="11.58984480564967"><ele>58.0</ele><time>2026-05-02T12:59:45.003Z</time></trkpt><trkpt lat="44.41070066568782" lon="11.5899493780429"><ele>58.0</ele><time>2026-05-02T12:59:46.003Z</time></trkpt><trkpt lat="44.41083312144821" lon="11.59004495524039"><ele>58.0</ele><time>2026-05-02T12:59:47.003Z</time></trkpt><trkpt lat="44.410960285485274" lon="11.590134587677772"><ele>58.0</ele><time>2026-05-02T12:59:48.003Z</time></trkpt><trkpt lat="44.41108581088413" lon="11.590229474570116"><ele>58.0</ele><time>2026-05-02T12:59:49.003Z</time></trkpt><trkpt lat="44.41121587760004" lon="11.590320545592313"><ele>58.0</ele><time>2026-05-02T12:59:50.003Z</time></trkpt><trkpt lat="44.41135741682155" lon="11.590425717335446"><ele>58.33333333333333</ele><time>2026-05-02T12:59:51.003Z</time></trkpt><trkpt lat="44.41150488803174" lon="11.590545575500627"><ele>58.66666666666667</ele><time>2026-05-02T12:59:52.003Z</time></trkpt><trkpt lat="44.41165251429163" lon="11.59068188569625"><ele>59.0</ele><time>2026-05-02T12:59:53.003Z</time></trkpt><trkpt lat="44.41179878572368" lon="11.59084935948327"><ele>59.0</ele><time>2026-05-02T12:59:54.003Z</time></trkpt><trkpt lat="44.41194573367499" lon="11.591039633356445"><ele>59.0</ele><time>2026-05-02T12:59:55.003Z</time></trkpt><trkpt lat="44.41207393324072" lon="11.591226404283999"><ele>59.0</ele><time>2026-05-02T12:59:56.003Z</time></trkpt><trkpt lat="44.41220691285826" lon="11.59142577552362"><ele>58.66666666666667</ele><time>2026-05-02T12:59:57.003Z</time></trkpt><trkpt lat="44.41234670605377" lon="11.591621032349659"><ele>58.33333333333333</ele><time>2026-05-02T12:59:58.003Z</time></trkpt><trkpt lat="44.41248919494287" lon="11.59182371531665"><ele>58.0</ele><time>2026-05-02T12:59:59.003Z</time></trkpt><trkpt lat="44.41262920337113" lon="11.592032917674333"><ele>58.0</ele><time>2026-05-02T13:00:00.003Z</time></trkpt><trkpt lat="44.412770833530935" lon="11.592244355509967"><ele>58.0</ele><time>2026-05-02T13:00:01.003Z</time></trkpt><trkpt lat="44.412916120835106" lon="11.592452194654838"><ele>58.0</ele><time>2026-05-02T13:00:02.003Z</time></trkpt><trkpt lat="44.413065545868044" lon="11.592662052961986"><ele>57.33333333333333</ele><time>2026-05-02T13:00:03.003Z</time></trkpt><trkpt lat="44.41320476316894" lon="11.592860836559678"><ele>56.66666666666667</ele><time>2026-05-02T13:00:04.003Z</time></trkpt><trkpt lat="44.41334800860961" lon="11.593064206772155"><ele>56.0</ele><time>2026-05-02T13:00:05.003Z</time></trkpt><trkpt lat="44.41349116888413" lon="11.593270718039813"><ele>56.0</ele><time>2026-05-02T13:00:06.003Z</time></trkpt><trkpt lat="44.41363188420012" lon="11.593475986781128"><ele>56.0</ele><time>2026-05-02T13:00:07.003Z</time></trkpt><trkpt lat="44.41377510448824" lon="11.593688972905065"><ele>56.0</ele><time>2026-05-02T13:00:08.003Z</time></trkpt><trkpt lat="44.41391836178849" lon="11.593900694919565"><ele>56.66666666666667</ele><time>2026-05-02T13:00:09.003Z</time></trkpt><trkpt lat="44.4140651793551" lon="11.594113152352238"><ele>57.33333333333333</ele><time>2026-05-02T13:00:10.003Z</time></trkpt><trkpt lat="44.414213680933635" lon="11.594322930590646"><ele>58.0</ele><time>2026-05-02T13:00:11.003Z</time></trkpt><trkpt lat="44.414361994455334" lon="11.594530036463244"><ele>58.0</ele><time>2026-05-02T13:00:12.003Z</time></trkpt><trkpt lat="44.414512672318246" lon="11.594742207887432"><ele>58.0</ele><time>2026-05-02T13:00:13.003Z</time></trkpt><trkpt lat="44.41465637870818" lon="11.594948944214087"><ele>58.0</ele><time>2026-05-02T13:00:14.003Z</time></trkpt><trkpt lat="44.414802025830504" lon="11.595166204163874"><ele>57.0</ele><time>2026-05-02T13:00:14.999Z</time></trkpt><trkpt lat="44.414946003061836" lon="11.595376302579051"><ele>56.0</ele><time>2026-05-02T13:00:15.999Z</time></trkpt><trkpt lat="44.415088400574696" lon="11.595594935204273"><ele>55.0</ele><time>2026-05-02T13:00:16.999Z</time></trkpt><trkpt lat="44.41521770276088" lon="11.595821845054488"><ele>55.0</ele><time>2026-05-02T13:00:17.999Z</time></trkpt><trkpt lat="44.41534009139136" lon="11.596065573423019"><ele>55.0</ele><time>2026-05-02T13:00:18.999Z</time></trkpt><trkpt lat="44.41545887436218" lon="11.596312427928636"><ele>55.0</ele><time>2026-05-02T13:00:19.999Z</time></trkpt><trkpt lat="44.41557616016288" lon="11.596559057188575"><ele>55.33333333333333</ele><time>2026-05-02T13:00:20.999Z</time></trkpt><trkpt lat="44.41569028099763" lon="11.59680916590453"><ele>55.66666666666667</ele><time>2026-05-02T13:00:21.999Z</time></trkpt><trkpt lat="44.41580656045637" lon="11.597057284933747"><ele>56.0</ele><time>2026-05-02T13:00:22.999Z</time></trkpt><trkpt lat="44.41592793450129" lon="11.597306623049311"><ele>56.333333333333336</ele><time>2026-05-02T13:00:23.999Z</time></trkpt><trkpt lat="44.41605648210138" lon="11.597548143978772"><ele>56.66666666666667</ele><time>2026-05-02T13:00:24.999Z</time></trkpt><trkpt lat="44.41619257037647" lon="11.59778038952044"><ele>57.0</ele><time>2026-05-02T13:00:26Z</time></trkpt><trkpt lat="44.41634370964843" lon="11.598002387906856"><ele>57.0</ele><time>2026-05-02T13:00:27Z</time></trkpt><trkpt lat="44.41651054755609" lon="11.598196852553"><ele>57.0</ele><time>2026-05-02T13:00:28Z</time></trkpt><trkpt lat="44.416693040667376" lon="11.598372751737426"><ele>57.0</ele><time>2026-05-02T13:00:29Z</time></trkpt><trkpt lat="44.41688342655992" lon="11.598522260650078"><ele>57.0</ele><time>2026-05-02T13:00:30Z</time></trkpt><trkpt lat="44.41708568066614" lon="11.5986505584507"><ele>57.0</ele><time>2026-05-02T13:00:31Z</time></trkpt><trkpt lat="44.41729754215977" lon="11.5987505122492"><ele>57.0</ele><time>2026-05-02T13:00:32Z</time></trkpt><trkpt lat="44.41751387846044" lon="11.598833452566232"><ele>57.0</ele><time>2026-05-02T13:00:33Z</time></trkpt><trkpt lat="44.417735812857586" lon="11.59890149859134"><ele>57.0</ele><time>2026-05-02T13:00:34Z</time></trkpt><trkpt lat="44.41795850529562" lon="11.598967561740245"><ele>56.0</ele><time>2026-05-02T13:00:35Z</time></trkpt><trkpt lat="44.41818267700919" lon="11.599038206339387"><ele>55.0</ele><time>2026-05-02T13:00:36Z</time></trkpt><trkpt lat="44.418401508574334" lon="11.59911532202939"><ele>55.0</ele><time>2026-05-02T13:00:37Z</time></trkpt><trkpt lat="44.41861875349389" lon="11.599194758929995"><ele>55.0</ele><time>2026-05-02T13:00:38Z</time></trkpt><trkpt lat="44.41883745924671" lon="11.599280265458844"><ele>54.0</ele><time>2026-05-02T13:00:39Z</time></trkpt><trkpt lat="44.41905161515836" lon="11.599379730226055"><ele>53.0</ele><time>2026-05-02T13:00:40Z</time></trkpt><trkpt lat="44.41926438751713" lon="11.599499038662428"><ele>53.0</ele><time>2026-05-02T13:00:41Z</time></trkpt><trkpt lat="44.419469389063885" lon="11.59962978666595"><ele>53.0</ele><time>2026-05-02T13:00:42Z</time></trkpt><trkpt lat="44.41966711591837" lon="11.599778930057365"><ele>53.0</ele><time>2026-05-02T13:00:43Z</time></trkpt><trkpt lat="44.41986605241772" lon="11.59993465718696"><ele>53.0</ele><time>2026-05-02T13:00:44Z</time></trkpt><trkpt lat="44.42006166806213" lon="11.600091853987509"><ele>53.0</ele><time>2026-05-02T13:00:45Z</time></trkpt><trkpt lat="44.42025718099756" lon="11.600247652206447"><ele>53.0</ele><time>2026-05-02T13:00:46Z</time></trkpt><trkpt lat="44.42046058139862" lon="11.60039037784212"><ele>54.0</ele><time>2026-05-02T13:00:47Z</time></trkpt><trkpt lat="44.420665434346674" lon="11.600517721849057"><ele>55.0</ele><time>2026-05-02T13:00:48.001Z</time></trkpt><trkpt lat="44.4208767377878" lon="11.600639631946255"><ele>55.0</ele><time>2026-05-02T13:00:49.001Z</time></trkpt><trkpt lat="44.421089497764505" lon="11.600752056185218"><ele>55.0</ele><time>2026-05-02T13:00:50.001Z</time></trkpt><trkpt lat="44.421305904323994" lon="11.600856045435393"><ele>53.5</ele><time>2026-05-02T13:00:51.001Z</time></trkpt><trkpt lat="44.421524431301336" lon="11.600954725191258"><ele>52.0</ele><time>2026-05-02T13:00:52.001Z</time></trkpt><trkpt lat="44.42174178430088" lon="11.601045342793633"><ele>52.0</ele><time>2026-05-02T13:00:53.001Z</time></trkpt><trkpt lat="44.42195710816259" lon="11.601135452159797"><ele>52.0</ele><time>2026-05-02T13:00:54.001Z</time></trkpt><trkpt lat="44.422174398832034" lon="11.60123133006971"><ele>52.0</ele><time>2026-05-02T13:00:55.001Z</time></trkpt><trkpt lat="44.422381441607754" lon="11.601324778903267"><ele>52.0</ele><time>2026-05-02T13:00:56.001Z</time></trkpt><trkpt lat="44.42257809997927" lon="11.601417029134078"><ele>52.0</ele><time>2026-05-02T13:00:57.001Z</time></trkpt><trkpt lat="44.4227633691354" lon="11.601507170561819"><ele>52.0</ele><time>2026-05-02T13:00:58.001Z</time></trkpt><trkpt lat="44.42294626039862" lon="11.601600520399337"><ele>52.0</ele><time>2026-05-02T13:00:59.001Z</time></trkpt><trkpt lat="44.42312538304438" lon="11.601698934011752"><ele>52.0</ele><time>2026-05-02T13:01:00.001Z</time></trkpt><trkpt lat="44.423298410982014" lon="11.601794401240586"><ele>51.666666666666664</ele><time>2026-05-02T13:01:01.001Z</time></trkpt><trkpt lat="44.42346557957366" lon="11.601886871194242"><ele>51.33333333333333</ele><time>2026-05-02T13:01:02.001Z</time></trkpt><trkpt lat="44.42362637440367" lon="11.601975752716905"><ele>51.0</ele><time>2026-05-02T13:01:03.001Z</time></trkpt><trkpt lat="44.423782522056975" lon="11.602066022209618"><ele>52.0</ele><time>2026-05-02T13:01:04.001Z</time></trkpt><trkpt lat="44.42392593556937" lon="11.602149292469374"><ele>53.0</ele><time>2026-05-02T13:01:05.001Z</time></trkpt><trkpt lat="44.42406714647875" lon="11.602228752825297"><ele>54.0</ele><time>2026-05-02T13:01:06.001Z</time></trkpt><trkpt lat="44.42420737895816" lon="11.602310023301712"><ele>54.0</ele><time>2026-05-02T13:01:07.001Z</time></trkpt><trkpt lat="44.42435293217992" lon="11.602396301934828"><ele>54.0</ele><time>2026-05-02T13:01:08.001Z</time></trkpt><trkpt lat="44.42450543386229" lon="11.602484268167053"><ele>54.0</ele><time>2026-05-02T13:01:09.001Z</time></trkpt><trkpt lat="44.424658643027" lon="11.602574122731525"><ele>53.66666666666667</ele><time>2026-05-02T13:01:10.001Z</time></trkpt><trkpt lat="44.4248200833019" lon="11.602667479921951"><ele>53.333333333333336</ele><time>2026-05-02T13:01:11.001Z</time></trkpt><trkpt lat="44.42498343047929" lon="11.60276001535548"><ele>53.0</ele><time>2026-05-02T13:01:12.001Z</time></trkpt><trkpt lat="44.425146175208866" lon="11.602857711146477"><ele>52.333333333333336</ele><time>2026-05-02T13:01:13.001Z</time></trkpt><trkpt lat="44.42531289743658" lon="11.602951416117673"><ele>51.66666666666667</ele><time>2026-05-02T13:01:14.001Z</time></trkpt><trkpt lat="44.42547978189329" lon="11.603048341951567"><ele>51.0</ele><time>2026-05-02T13:01:15.001Z</time></trkpt><trkpt lat="44.42564522039542" lon="11.603145541855646"><ele>51.0</ele><time>2026-05-02T13:01:16.001Z</time></trkpt><trkpt lat="44.42580860826504" lon="11.603236983159594"><ele>51.0</ele><time>2026-05-02T13:01:17.002Z</time></trkpt><trkpt lat="44.425968749316596" lon="11.603324428533442"><ele>51.0</ele><time>2026-05-02T13:01:18.002Z</time></trkpt><trkpt lat="44.426130736781566" lon="11.603410025783568"><ele>51.0</ele><time>2026-05-02T13:01:19.002Z</time></trkpt><trkpt lat="44.426283950047036" lon="11.60349591656343"><ele>51.0</ele><time>2026-05-02T13:01:20.002Z</time></trkpt><trkpt lat="44.42643707845599" lon="11.603585932212171"><ele>51.0</ele><time>2026-05-02T13:01:21.002Z</time></trkpt><trkpt lat="44.42658873956099" lon="11.60367297021841"><ele>51.33333333333333</ele><time>2026-05-02T13:01:22.002Z</time></trkpt><trkpt lat="44.42674067488706" lon="11.603761984986503"><ele>51.666666666666664</ele><time>2026-05-02T13:01:23.002Z</time></trkpt><trkpt lat="44.426893240141766" lon="11.60384378367271"><ele>52.0</ele><time>2026-05-02T13:01:24.002Z</time></trkpt><trkpt lat="44.42704945604364" lon="11.60392180208561"><ele>52.33333333333333</ele><time>2026-05-02T13:01:25.002Z</time></trkpt><trkpt lat="44.42720431161846" lon="11.60400290963088"><ele>52.66666666666667</ele><time>2026-05-02T13:01:26.002Z</time></trkpt><trkpt lat="44.427368796066496" lon="11.604088037556801"><ele>53.0</ele><time>2026-05-02T13:01:27.002Z</time></trkpt><trkpt lat="44.427533881179954" lon="11.604171891737547"><ele>53.0</ele><time>2026-05-02T13:01:28.002Z</time></trkpt><trkpt lat="44.42771230137359" lon="11.604245267218458"><ele>53.0</ele><time>2026-05-02T13:01:29.002Z</time></trkpt><trkpt lat="44.42789211722584" lon="11.60430115297128"><ele>53.0</ele><time>2026-05-02T13:01:30.002Z</time></trkpt><trkpt lat="44.42807950482741" lon="11.60434561029805"><ele>51.66666666666667</ele><time>2026-05-02T13:01:31.002Z</time></trkpt><trkpt lat="44.428269784121575" lon="11.604377517392223"><ele>50.33333333333333</ele><time>2026-05-02T13:01:32.002Z</time></trkpt><trkpt lat="44.42846442529273" lon="11.604406097848344"><ele>49.0</ele><time>2026-05-02T13:01:33.002Z</time></trkpt><trkpt lat="44.42866364663274" lon="11.604439947248915"><ele>48.33333333333333</ele><time>2026-05-02T13:01:34.002Z</time></trkpt><trkpt lat="44.42886974256829" lon="11.604479432117584"><ele>47.666666666666664</ele><time>2026-05-02T13:01:35.002Z</time></trkpt><trkpt lat="44.429082675057096" lon="11.60451943406114"><ele>47.0</ele><time>2026-05-02T13:01:36.002Z</time></trkpt><trkpt lat="44.42929687475857" lon="11.60455883451726"><ele>47.0</ele><time>2026-05-02T13:01:37.002Z</time></trkpt><trkpt lat="44.429512793925404" lon="11.604596117841876"><ele>47.0</ele><time>2026-05-02T13:01:38.002Z</time></trkpt><trkpt lat="44.42973112364497" lon="11.604628867559443"><ele>47.0</ele><time>2026-05-02T13:01:39.002Z</time></trkpt><trkpt lat="44.429949503117825" lon="11.604660763289889"><ele>46.666666666666664</ele><time>2026-05-02T13:01:40.002Z</time></trkpt><trkpt lat="44.43016928554703" lon="11.604699012555757"><ele>46.333333333333336</ele><time>2026-05-02T13:01:41.002Z</time></trkpt><trkpt lat="44.43038867526807" lon="11.604736415401574"><ele>46.0</ele><time>2026-05-02T13:01:42.002Z</time></trkpt><trkpt lat="44.430601896761445" lon="11.60477207058281"><ele>46.0</ele><time>2026-05-02T13:01:43.002Z</time></trkpt><trkpt lat="44.43081619767272" lon="11.60481314114207"><ele>46.0</ele><time>2026-05-02T13:01:44.002Z</time></trkpt><trkpt lat="44.431032812182785" lon="11.604850334177453"><ele>46.0</ele><time>2026-05-02T13:01:45.002Z</time></trkpt><trkpt lat="44.43125383717256" lon="11.604886299825921"><ele>45.333333333333336</ele><time>2026-05-02T13:01:46.002Z</time></trkpt><trkpt lat="44.43146514445436" lon="11.604926900008639"><ele>44.666666666666664</ele><time>2026-05-02T13:01:47.002Z</time></trkpt><trkpt lat="44.431686074801185" lon="11.604968544488344"><ele>44.0</ele><time>2026-05-02T13:01:48.002Z</time></trkpt><trkpt lat="44.43190499883847" lon="11.605006226206147"><ele>44.0</ele><time>2026-05-02T13:01:49.002Z</time></trkpt><trkpt lat="44.43212690671435" lon="11.605042053862242"><ele>44.0</ele><time>2026-05-02T13:01:50.003Z</time></trkpt><trkpt lat="44.4323513060032" lon="11.60507821134505"><ele>44.0</ele><time>2026-05-02T13:01:51.003Z</time></trkpt><trkpt lat="44.432579398579634" lon="11.60511735028787"><ele>44.5</ele><time>2026-05-02T13:01:52.003Z</time></trkpt><trkpt lat="44.432812655535564" lon="11.605160008991833"><ele>45.0</ele><time>2026-05-02T13:01:53.003Z</time></trkpt><trkpt lat="44.43304823302569" lon="11.605202216396885"><ele>46.5</ele><time>2026-05-02T13:01:54.003Z</time></trkpt><trkpt lat="44.433284487534834" lon="11.605244489039249"><ele>48.0</ele><time>2026-05-02T13:01:55.003Z</time></trkpt><trkpt lat="44.433522485397056" lon="11.60529520192818"><ele>47.5</ele><time>2026-05-02T13:01:56.003Z</time></trkpt><trkpt lat="44.43375708565326" lon="11.605359869183744"><ele>47.0</ele><time>2026-05-02T13:01:57.003Z</time></trkpt><trkpt lat="44.43398949074632" lon="11.605446708770646"><ele>46.5</ele><time>2026-05-02T13:01:58.003Z</time></trkpt><trkpt lat="44.43421295063815" lon="11.605560347749392"><ele>46.0</ele><time>2026-05-02T13:01:59.003Z</time></trkpt><trkpt lat="44.434432310572255" lon="11.605686165197303"><ele>44.5</ele><time>2026-05-02T13:02:00.003Z</time></trkpt><trkpt lat="44.434653369400266" lon="11.605820718441011"><ele>43.0</ele><time>2026-05-02T13:02:01.003Z</time></trkpt><trkpt lat="44.43486962175948" lon="11.605954950483492"><ele>43.0</ele><time>2026-05-02T13:02:02.003Z</time></trkpt><trkpt lat="44.43508939344529" lon="11.606085881004862"><ele>43.0</ele><time>2026-05-02T13:02:03.003Z</time></trkpt><trkpt lat="44.435307238868326" lon="11.606212964640822"><ele>44.0</ele><time>2026-05-02T13:02:04.003Z</time></trkpt><trkpt lat="44.43552676999673" lon="11.60633060346622"><ele>45.0</ele><time>2026-05-02T13:02:05.003Z</time></trkpt><trkpt lat="44.43575190447522" lon="11.606438313602228"><ele>45.0</ele><time>2026-05-02T13:02:06.003Z</time></trkpt><trkpt lat="44.43597392719366" lon="11.606525895523454"><ele>45.0</ele><time>2026-05-02T13:02:07.003Z</time></trkpt><trkpt lat="44.43619715554614" lon="11.606586548504959"><ele>45.0</ele><time>2026-05-02T13:02:08.003Z</time></trkpt><trkpt lat="44.436420132808735" lon="11.606622652975966"><ele>45.0</ele><time>2026-05-02T13:02:09.003Z</time></trkpt><trkpt lat="44.43664255402352" lon="11.606612006584834"><ele>45.0</ele><time>2026-05-02T13:02:10.003Z</time></trkpt><trkpt lat="44.43686728792031" lon="11.606590063647444"><ele>45.0</ele><time>2026-05-02T13:02:11.003Z</time></trkpt><trkpt lat="44.43709151979299" lon="11.60655949865363"><ele>45.0</ele><time>2026-05-02T13:02:12.003Z</time></trkpt><trkpt lat="44.43731623928571" lon="11.60653793913559"><ele>44.5</ele><time>2026-05-02T13:02:13.003Z</time></trkpt><trkpt lat="44.43754221781977" lon="11.606515804846792"><ele>44.0</ele><time>2026-05-02T13:02:14.003Z</time></trkpt><trkpt lat="44.43776895419705" lon="11.606491158150297"><ele>44.0</ele><time>2026-05-02T13:02:15.003Z</time></trkpt><trkpt lat="44.43799172730804" lon="11.60646808975158"><ele>44.0</ele><time>2026-05-02T13:02:16.003Z</time></trkpt><trkpt lat="44.438216744384825" lon="11.606447458984972"><ele>44.0</ele><time>2026-05-02T13:02:17.003Z</time></trkpt><trkpt lat="44.43843494502778" lon="11.606434935129085"><ele>44.0</ele><time>2026-05-02T13:02:18.003Z</time></trkpt><trkpt lat="44.438650768877466" lon="11.606424061595886"><ele>44.0</ele><time>2026-05-02T13:02:19.003Z</time></trkpt><trkpt lat="44.4388625260768" lon="11.606408870290776"><ele>44.0</ele><time>2026-05-02T13:02:20.003Z</time></trkpt><trkpt lat="44.43907784957097" lon="11.606387696007808"><ele>43.33333333333333</ele><time>2026-05-02T13:02:20.999Z</time></trkpt><trkpt lat="44.43928647397341" lon="11.606366192498017"><ele>42.666666666666664</ele><time>2026-05-02T13:02:21.999Z</time></trkpt><trkpt lat="44.43948893433609" lon="11.606348725297952"><ele>42.0</ele><time>2026-05-02T13:02:22.999Z</time></trkpt><trkpt lat="44.439690589295964" lon="11.606337732725644"><ele>42.0</ele><time>2026-05-02T13:02:23.999Z</time></trkpt><trkpt lat="44.43987982671962" lon="11.606332794432577"><ele>42.0</ele><time>2026-05-02T13:02:24.999Z</time></trkpt><trkpt lat="44.44006688121571" lon="11.606343827186079"><ele>42.0</ele><time>2026-05-02T13:02:25.999Z</time></trkpt><trkpt lat="44.4402481322881" lon="11.606377107823384"><ele>42.0</ele><time>2026-05-02T13:02:26.999Z</time></trkpt><trkpt lat="44.44042241735965" lon="11.606426912993069"><ele>42.0</ele><time>2026-05-02T13:02:27.999Z</time></trkpt><trkpt lat="44.44058815839263" lon="11.606490693416843"><ele>42.0</ele><time>2026-05-02T13:02:29Z</time></trkpt><trkpt lat="44.44074480043715" lon="11.606565952335297"><ele>41.666666666666664</ele><time>2026-05-02T13:02:30Z</time></trkpt><trkpt lat="44.44089208002984" lon="11.606647590496282"><ele>41.33333333333333</ele><time>2026-05-02T13:02:31Z</time></trkpt><trkpt lat="44.441031378499375" lon="11.606741549598555"><ele>41.0</ele><time>2026-05-02T13:02:32Z</time></trkpt><trkpt lat="44.44116803389662" lon="11.606832964257324"><ele>41.0</ele><time>2026-05-02T13:02:33Z</time></trkpt><trkpt lat="44.44129799295551" lon="11.6069226504403"><ele>41.0</ele><time>2026-05-02T13:02:34Z</time></trkpt><trkpt lat="44.441421649785866" lon="11.607014040947686"><ele>41.0</ele><time>2026-05-02T13:02:35Z</time></trkpt><trkpt lat="44.441546699426524" lon="11.607107929335744"><ele>41.0</ele><time>2026-05-02T13:02:36Z</time></trkpt><trkpt lat="44.44166883958164" lon="11.607207338844844"><ele>41.0</ele><time>2026-05-02T13:02:37Z</time></trkpt><trkpt lat="44.441781552431294" lon="11.607304708706257"><ele>41.0</ele><time>2026-05-02T13:02:38Z</time></trkpt><trkpt lat="44.441900483652404" lon="11.607394754795813"><ele>41.0</ele><time>2026-05-02T13:02:39Z</time></trkpt><trkpt lat="44.44200487752352" lon="11.607474711744903"><ele>41.0</ele><time>2026-05-02T13:02:40Z</time></trkpt><trkpt lat="44.442097788217495" lon="11.60755409178705"><ele>41.0</ele><time>2026-05-02T13:02:41Z</time></trkpt><trkpt lat="44.442165394767734" lon="11.607638120285367"><ele>41.0</ele><time>2026-05-02T13:02:42Z</time></trkpt><trkpt lat="44.44219432696007" lon="11.607749118671848"><ele>41.0</ele><time>2026-05-02T13:02:43Z</time></trkpt><trkpt lat="44.442204012939065" lon="11.607867305466456"><ele>41.0</ele><time>2026-05-02T13:02:44Z</time></trkpt><trkpt lat="44.442188788856164" lon="11.607989488191569"><ele>41.0</ele><time>2026-05-02T13:02:45Z</time></trkpt><trkpt lat="44.44216070557757" lon="11.608107482012437"><ele>41.0</ele><time>2026-05-02T13:02:46Z</time></trkpt><trkpt lat="44.44210720334297" lon="11.60821025793241"><ele>40.599999999999994</ele><time>2026-05-02T13:02:47Z</time></trkpt><trkpt lat="44.44203253632817" lon="11.608290123162718"><ele>40.199999999999996</ele><time>2026-05-02T13:02:48Z</time></trkpt><trkpt lat="44.44194517246773" lon="11.608343001239962"><ele>39.8</ele><time>2026-05-02T13:02:49Z</time></trkpt><trkpt lat="44.441843801334166" lon="11.608374680017807"><ele>39.4</ele><time>2026-05-02T13:02:50Z</time></trkpt><trkpt lat="44.44173565703583" lon="11.60838498165027"><ele>39.0</ele><time>2026-05-02T13:02:51Z</time></trkpt><trkpt lat="44.44162857343959" lon="11.608390528819694"><ele>39.0</ele><time>2026-05-02T13:02:52Z</time></trkpt><trkpt lat="44.44152486850726" lon="11.608417149658477"><ele>39.0</ele><time>2026-05-02T13:02:53Z</time></trkpt><trkpt lat="44.44143020657379" lon="11.608473561168575"><ele>39.0</ele><time>2026-05-02T13:02:54Z</time></trkpt><trkpt lat="44.44135621930665" lon="11.608559250409568"><ele>39.0</ele><time>2026-05-02T13:02:55.001Z</time></trkpt><trkpt lat="44.44130869945841" lon="11.608672150034359"><ele>39.0</ele><time>2026-05-02T13:02:56.001Z</time></trkpt><trkpt lat="44.44128213867981" lon="11.608812667923575"><ele>39.5</ele><time>2026-05-02T13:02:57.001Z</time></trkpt><trkpt lat="44.44127547361354" lon="11.608973174324191"><ele>40.0</ele><time>2026-05-02T13:02:58.001Z</time></trkpt><trkpt lat="44.441271085126914" lon="11.609143488235354"><ele>40.5</ele><time>2026-05-02T13:02:59.001Z</time></trkpt><trkpt lat="44.441253162208874" lon="11.609327880025058"><ele>41.0</ele><time>2026-05-02T13:03:00.001Z</time></trkpt><trkpt lat="44.44121701990553" lon="11.60951854663372"><ele>41.0</ele><time>2026-05-02T13:03:01.001Z</time></trkpt><trkpt lat="44.441176594933886" lon="11.609721044777004"><ele>41.0</ele><time>2026-05-02T13:03:02.001Z</time></trkpt><trkpt lat="44.44113968478749" lon="11.609937595190795"><ele>41.0</ele><time>2026-05-02T13:03:03.001Z</time></trkpt><trkpt lat="44.44110051069275" lon="11.610166139687452"><ele>41.0</ele><time>2026-05-02T13:03:04.001Z</time></trkpt><trkpt lat="44.441054373441666" lon="11.610404997274852"><ele>41.0</ele><time>2026-05-02T13:03:05.001Z</time></trkpt><trkpt lat="44.44100676339952" lon="11.610653820625416"><ele>41.0</ele><time>2026-05-02T13:03:06.001Z</time></trkpt><trkpt lat="44.440959360186945" lon="11.61089373927381"><ele>41.0</ele><time>2026-05-02T13:03:07.001Z</time></trkpt><trkpt lat="44.44091273145295" lon="11.61113565726464"><ele>41.0</ele><time>2026-05-02T13:03:08.001Z</time></trkpt><trkpt lat="44.44086277393362" lon="11.611389626555496"><ele>41.0</ele><time>2026-05-02T13:03:09.001Z</time></trkpt><trkpt lat="44.44081038225061" lon="11.611647660498866"><ele>41.0</ele><time>2026-05-02T13:03:10.001Z</time></trkpt><trkpt lat="44.44074834659253" lon="11.611908983202472"><ele>41.0</ele><time>2026-05-02T13:03:11.001Z</time></trkpt><trkpt lat="44.44067760106213" lon="11.612169805510165"><ele>41.0</ele><time>2026-05-02T13:03:12.001Z</time></trkpt><trkpt lat="44.44060217912107" lon="11.612431136103883"><ele>41.0</ele><time>2026-05-02T13:03:13.001Z</time></trkpt><trkpt lat="44.44051799078441" lon="11.612680922787346"><ele>41.0</ele><time>2026-05-02T13:03:14.001Z</time></trkpt><trkpt lat="44.44043256121868" lon="11.612931547155643"><ele>41.0</ele><time>2026-05-02T13:03:15.001Z</time></trkpt><trkpt lat="44.44035574982042" lon="11.613184419436568"><ele>41.0</ele><time>2026-05-02T13:03:16.001Z</time></trkpt><trkpt lat="44.44029149554001" lon="11.613450074590517"><ele>41.0</ele><time>2026-05-02T13:03:17.001Z</time></trkpt><trkpt lat="44.440245127502166" lon="11.613721025185002"><ele>41.0</ele><time>2026-05-02T13:03:18.001Z</time></trkpt><trkpt lat="44.44021438733113" lon="11.614000388944145"><ele>41.33333333333333</ele><time>2026-05-02T13:03:19.001Z</time></trkpt><trkpt lat="44.440197329166544" lon="11.614281668924106"><ele>41.666666666666664</ele><time>2026-05-02T13:03:20.001Z</time></trkpt><trkpt lat="44.440192240779076" lon="11.614563319152387"><ele>42.0</ele><time>2026-05-02T13:03:21.001Z</time></trkpt><trkpt lat="44.440193973643474" lon="11.614847294839675"><ele>42.333333333333336</ele><time>2026-05-02T13:03:22.001Z</time></trkpt><trkpt lat="44.44019601467734" lon="11.615132205191303"><ele>42.66666666666667</ele><time>2026-05-02T13:03:23.001Z</time></trkpt><trkpt lat="44.44019565883158" lon="11.615422697119"><ele>43.0</ele><time>2026-05-02T13:03:24.001Z</time></trkpt><trkpt lat="44.44019580405343" lon="11.615711733638907"><ele>43.0</ele><time>2026-05-02T13:03:25.001Z</time></trkpt><trkpt lat="44.440198080796634" lon="11.615999612503673"><ele>43.0</ele><time>2026-05-02T13:03:26.002Z</time></trkpt><trkpt lat="44.44020067200303" lon="11.616292141947103"><ele>43.0</ele><time>2026-05-02T13:03:27.002Z</time></trkpt><trkpt lat="44.44020310457536" lon="11.616590747350681"><ele>42.66666666666667</ele><time>2026-05-02T13:03:28.002Z</time></trkpt><trkpt lat="44.44020089729342" lon="11.616890006869445"><ele>42.333333333333336</ele><time>2026-05-02T13:03:29.002Z</time></trkpt><trkpt lat="44.44019502436038" lon="11.617185554048254"><ele>42.0</ele><time>2026-05-02T13:03:30.002Z</time></trkpt><trkpt lat="44.44018689726426" lon="11.617459142174573"><ele>42.0</ele><time>2026-05-02T13:03:31.002Z</time></trkpt><trkpt lat="44.44018132102556" lon="11.617720128849765"><ele>42.0</ele><time>2026-05-02T13:03:32.002Z</time></trkpt><trkpt lat="44.44018128163903" lon="11.617967923339503"><ele>42.0</ele><time>2026-05-02T13:03:33.002Z</time></trkpt><trkpt lat="44.440181238582014" lon="11.618204723112788"><ele>42.25</ele><time>2026-05-02T13:03:34.002Z</time></trkpt><trkpt lat="44.4401794858106" lon="11.618428562329601"><ele>42.5</ele><time>2026-05-02T13:03:35.002Z</time></trkpt><trkpt lat="44.440178487121514" lon="11.618633847317927"><ele>42.75</ele><time>2026-05-02T13:03:36.002Z</time></trkpt><trkpt lat="44.44017586443731" lon="11.618824071742969"><ele>43.0</ele><time>2026-05-02T13:03:37.002Z</time></trkpt><trkpt lat="44.44016986782189" lon="11.618999269646693"><ele>43.0</ele><time>2026-05-02T13:03:38.002Z</time></trkpt><trkpt lat="44.44015777577549" lon="11.61916089106016"><ele>43.0</ele><time>2026-05-02T13:03:39.002Z</time></trkpt><trkpt lat="44.44013018369538" lon="11.619305766604162"><ele>43.0</ele><time>2026-05-02T13:03:40.002Z</time></trkpt><trkpt lat="44.440079892654566" lon="11.61943142903726"><ele>43.0</ele><time>2026-05-02T13:03:41.002Z</time></trkpt><trkpt lat="44.44001698802575" lon="11.61954010798542"><ele>43.0</ele><time>2026-05-02T13:03:42.002Z</time></trkpt><trkpt lat="44.43996175151036" lon="11.619658135425178"><ele>43.0</ele><time>2026-05-02T13:03:43.002Z</time></trkpt><trkpt lat="44.439943582390995" lon="11.619789369604378"><ele>43.0</ele><time>2026-05-02T13:03:44.002Z</time></trkpt><trkpt lat="44.43995245150278" lon="11.619928429780604"><ele>43.0</ele><time>2026-05-02T13:03:45.002Z</time></trkpt><trkpt lat="44.439957034221244" lon="11.620072626234272"><ele>43.0</ele><time>2026-05-02T13:03:46.002Z</time></trkpt><trkpt lat="44.43993157997579" lon="11.620230845431752"><ele>43.0</ele><time>2026-05-02T13:03:47.002Z</time></trkpt><trkpt lat="44.43987539362544" lon="11.620392024399628"><ele>43.0</ele><time>2026-05-02T13:03:48.002Z</time></trkpt><trkpt lat="44.43980120148576" lon="11.620563891434811"><ele>43.0</ele><time>2026-05-02T13:03:49.002Z</time></trkpt><trkpt lat="44.439723483152584" lon="11.620752959334387"><ele>43.0</ele><time>2026-05-02T13:03:50.002Z</time></trkpt><trkpt lat="44.439653083225934" lon="11.620969081617945"><ele>42.0</ele><time>2026-05-02T13:03:51.002Z</time></trkpt><trkpt lat="44.43958266094259" lon="11.621198412327967"><ele>41.0</ele><time>2026-05-02T13:03:52.002Z</time></trkpt><trkpt lat="44.439500933265236" lon="11.621431755933079"><ele>40.0</ele><time>2026-05-02T13:03:53.002Z</time></trkpt><trkpt lat="44.43941411116733" lon="11.621664234626087"><ele>40.0</ele><time>2026-05-02T13:03:54.002Z</time></trkpt><trkpt lat="44.439323981645984" lon="11.621900641204734"><ele>40.0</ele><time>2026-05-02T13:03:55.002Z</time></trkpt><trkpt lat="44.43922699937878" lon="11.622153650517266"><ele>40.0</ele><time>2026-05-02T13:03:56.002Z</time></trkpt><trkpt lat="44.439123481762564" lon="11.622415293676335"><ele>40.0</ele><time>2026-05-02T13:03:57.002Z</time></trkpt><trkpt lat="44.439010772814136" lon="11.622672934309445"><ele>40.0</ele><time>2026-05-02T13:03:58.002Z</time></trkpt><trkpt lat="44.43888470152803" lon="11.622925975670299"><ele>40.0</ele><time>2026-05-02T13:03:59.003Z</time></trkpt><trkpt lat="44.438753941097495" lon="11.623159988000188"><ele>40.0</ele><time>2026-05-02T13:04:00.003Z</time></trkpt><trkpt lat="44.43862508484611" lon="11.623398602504418"><ele>40.0</ele><time>2026-05-02T13:04:01.003Z</time></trkpt><trkpt lat="44.43850496225286" lon="11.623633194409361"><ele>40.0</ele><time>2026-05-02T13:04:02.003Z</time></trkpt><trkpt lat="44.43839705055877" lon="11.623881511230614"><ele>40.0</ele><time>2026-05-02T13:04:03.003Z</time></trkpt><trkpt lat="44.43830736037088" lon="11.624147927384001"><ele>40.0</ele><time>2026-05-02T13:04:04.003Z</time></trkpt><trkpt lat="44.43823765289504" lon="11.624426623826363"><ele>40.0</ele><time>2026-05-02T13:04:05.003Z</time></trkpt><trkpt lat="44.43817269600532" lon="11.62471651957331"><ele>40.0</ele><time>2026-05-02T13:04:06.003Z</time></trkpt><trkpt lat="44.43810433185294" lon="11.625001832148795"><ele>40.0</ele><time>2026-05-02T13:04:07.003Z</time></trkpt><trkpt lat="44.43803561009103" lon="11.625279813441766"><ele>40.0</ele><time>2026-05-02T13:04:08.003Z</time></trkpt><trkpt lat="44.43796633299096" lon="11.62555638962474"><ele>40.0</ele><time>2026-05-02T13:04:09.003Z</time></trkpt><trkpt lat="44.43789159337876" lon="11.625832005701913"><ele>40.0</ele><time>2026-05-02T13:04:10.003Z</time></trkpt><trkpt lat="44.437813703838295" lon="11.626099636175145"><ele>40.0</ele><time>2026-05-02T13:04:11.003Z</time></trkpt><trkpt lat="44.437729307022224" lon="11.626360480562019"><ele>40.333333333333336</ele><time>2026-05-02T13:04:12.003Z</time></trkpt><trkpt lat="44.43764378295391" lon="11.626615034164638"><ele>40.666666666666664</ele><time>2026-05-02T13:04:13.003Z</time></trkpt><trkpt lat="44.437555015439436" lon="11.626857799957568"><ele>41.0</ele><time>2026-05-02T13:04:14.003Z</time></trkpt><trkpt lat="44.43747188166194" lon="11.627095215614577"><ele>40.33333333333333</ele><time>2026-05-02T13:04:15.003Z</time></trkpt><trkpt lat="44.43739391281668" lon="11.62731195046782"><ele>39.666666666666664</ele><time>2026-05-02T13:04:16.003Z</time></trkpt><trkpt lat="44.43731599806225" lon="11.627519664118045"><ele>39.0</ele><time>2026-05-02T13:04:17.003Z</time></trkpt><trkpt lat="44.43724614602153" lon="11.627707417785972"><ele>38.75</ele><time>2026-05-02T13:04:18.003Z</time></trkpt><trkpt lat="44.43718555359728" lon="11.627874366387429"><ele>38.5</ele><time>2026-05-02T13:04:19.003Z</time></trkpt><trkpt lat="44.437129496147456" lon="11.628026398502012"><ele>38.25</ele><time>2026-05-02T13:04:20.003Z</time></trkpt><trkpt lat="44.43708240782778" lon="11.628155035074535"><ele>38.0</ele><time>2026-05-02T13:04:21.003Z</time></trkpt><trkpt lat="44.437050276482175" lon="11.62829140069753"><ele>38.0</ele><time>2026-05-02T13:04:22.003Z</time></trkpt><trkpt lat="44.437058111503454" lon="11.628432854842385"><ele>38.0</ele><time>2026-05-02T13:04:23.003Z</time></trkpt><trkpt lat="44.43710294257544" lon="11.628568898419973"><ele>38.0</ele><time>2026-05-02T13:04:24.003Z</time></trkpt><trkpt lat="44.437178649838295" lon="11.628682735893634"><ele>38.0</ele><time>2026-05-02T13:04:25.003Z</time></trkpt><trkpt lat="44.4372743427522" lon="11.628777453585073"><ele>38.0</ele><time>2026-05-02T13:04:26.003Z</time></trkpt><trkpt lat="44.43738032752035" lon="11.628870145909021"><ele>38.0</ele><time>2026-05-02T13:04:26.999Z</time></trkpt><trkpt lat="44.43749211582566" lon="11.628968476254379"><ele>38.0</ele><time>2026-05-02T13:04:27.999Z</time></trkpt><trkpt lat="44.4376092861833" lon="11.62907719641829"><ele>38.0</ele><time>2026-05-02T13:04:28.999Z</time></trkpt><trkpt lat="44.437732648789144" lon="11.629189768926997"><ele>38.0</ele><time>2026-05-02T13:04:29.999Z</time></trkpt><trkpt lat="44.43786008939425" lon="11.629306611524965"><ele>37.666666666666664</ele><time>2026-05-02T13:04:30.999Z</time></trkpt><trkpt lat="44.43798546916759" lon="11.629418848816961"><ele>37.333333333333336</ele><time>2026-05-02T13:04:31.999Z</time></trkpt><trkpt lat="44.4381164955717" lon="11.629536723930855"><ele>37.0</ele><time>2026-05-02T13:04:32.999Z</time></trkpt><trkpt lat="44.43825245475649" lon="11.62966373803839"><ele>37.0</ele><time>2026-05-02T13:04:33.999Z</time></trkpt><trkpt lat="44.43839569399757" lon="11.629795372778213"><ele>37.0</ele><time>2026-05-02T13:04:34.999Z</time></trkpt><trkpt lat="44.438545859941705" lon="11.629932258578343"><ele>37.0</ele><time>2026-05-02T13:04:35.999Z</time></trkpt><trkpt lat="44.43870235417407" lon="11.63007138196158"><ele>37.333333333333336</ele><time>2026-05-02T13:04:36.999Z</time></trkpt><trkpt lat="44.43886838242083" lon="11.630219019524334"><ele>37.666666666666664</ele><time>2026-05-02T13:04:37.999Z</time></trkpt><trkpt lat="44.4390408593799" lon="11.630369433288534"><ele>38.0</ele><time>2026-05-02T13:04:38.999Z</time></trkpt><trkpt lat="44.4392122134429" lon="11.63051979529816"><ele>38.0</ele><time>2026-05-02T13:04:39.999Z</time></trkpt><trkpt lat="44.43938318555661" lon="11.630665065453899"><ele>38.0</ele><time>2026-05-02T13:04:41Z</time></trkpt><trkpt lat="44.43955784650816" lon="11.630813330425703"><ele>38.0</ele><time>2026-05-02T13:04:42Z</time></trkpt><trkpt lat="44.439734082419626" lon="11.630962965991205"><ele>38.33333333333333</ele><time>2026-05-02T13:04:43Z</time></trkpt><trkpt lat="44.439912709483345" lon="11.631113169493695"><ele>38.666666666666664</ele><time>2026-05-02T13:04:44Z</time></trkpt><trkpt lat="44.44009359670782" lon="11.631265599742342"><ele>39.0</ele><time>2026-05-02T13:04:45Z</time></trkpt><trkpt lat="44.440277072634395" lon="11.63141798900633"><ele>38.666666666666664</ele><time>2026-05-02T13:04:46Z</time></trkpt><trkpt lat="44.44046535873185" lon="11.631570115375196"><ele>38.33333333333333</ele><time>2026-05-02T13:04:47Z</time></trkpt><trkpt lat="44.44065226798264" lon="11.631723274365031"><ele>38.0</ele><time>2026-05-02T13:04:48Z</time></trkpt><trkpt lat="44.440840893605454" lon="11.63188413475364"><ele>38.0</ele><time>2026-05-02T13:04:49Z</time></trkpt><trkpt lat="44.441020185365176" lon="11.632051686037439"><ele>38.0</ele><time>2026-05-02T13:04:50Z</time></trkpt><trkpt lat="44.44120299722685" lon="11.632231108409036"><ele>38.0</ele><time>2026-05-02T13:04:51Z</time></trkpt><trkpt lat="44.44138611826217" lon="11.632408015730032"><ele>38.0</ele><time>2026-05-02T13:04:52Z</time></trkpt><trkpt lat="44.44157051981535" lon="11.632586661219538"><ele>38.0</ele><time>2026-05-02T13:04:53Z</time></trkpt><trkpt lat="44.441755580169335" lon="11.632763239282284"><ele>38.0</ele><time>2026-05-02T13:04:54Z</time></trkpt><trkpt lat="44.441933222619745" lon="11.632932038939975"><ele>37.666666666666664</ele><time>2026-05-02T13:04:55Z</time></trkpt><trkpt lat="44.442091817520236" lon="11.63308813339092"><ele>37.333333333333336</ele><time>2026-05-02T13:04:56Z</time></trkpt><trkpt lat="44.44224597227383" lon="11.633237919158843"><ele>37.0</ele><time>2026-05-02T13:04:57Z</time></trkpt><trkpt lat="44.44238964015551" lon="11.633379943162671"><ele>37.0</ele><time>2026-05-02T13:04:58Z</time></trkpt><trkpt lat="44.44251845622223" lon="11.633504353956901"><ele>37.0</ele><time>2026-05-02T13:04:59Z</time></trkpt><trkpt lat="44.44263704992795" lon="11.633620797566808"><ele>37.0</ele><time>2026-05-02T13:05:00Z</time></trkpt><trkpt lat="44.44274209563498" lon="11.633726230853014"><ele>37.0</ele><time>2026-05-02T13:05:01.001Z</time></trkpt><trkpt lat="44.44282561338093" lon="11.633846351874505"><ele>36.800000000000004</ele><time>2026-05-02T13:05:02.001Z</time></trkpt><trkpt lat="44.4428835010547" lon="11.633991661295806"><ele>36.6</ele><time>2026-05-02T13:05:03.001Z</time></trkpt><trkpt lat="44.442906071880216" lon="11.634149914863036"><ele>36.400000000000006</ele><time>2026-05-02T13:05:04.001Z</time></trkpt><trkpt lat="44.44289666442919" lon="11.634297706129212"><ele>36.2</ele><time>2026-05-02T13:05:05.001Z</time></trkpt><trkpt lat="44.4428524413946" lon="11.634437862103848"><ele>36.0</ele><time>2026-05-02T13:05:06.001Z</time></trkpt><trkpt lat="44.44279036122654" lon="11.634587926678781"><ele>36.0</ele><time>2026-05-02T13:05:07.001Z</time></trkpt><trkpt lat="44.442723047393834" lon="11.634759410893546"><ele>36.0</ele><time>2026-05-02T13:05:08.001Z</time></trkpt><trkpt lat="44.44264963327016" lon="11.634954983863107"><ele>36.0</ele><time>2026-05-02T13:05:09.001Z</time></trkpt><trkpt lat="44.442571387551546" lon="11.63516698437504"><ele>35.333333333333336</ele><time>2026-05-02T13:05:10.001Z</time></trkpt><trkpt lat="44.44248303322098" lon="11.635395414106846"><ele>34.66666666666667</ele><time>2026-05-02T13:05:11.001Z</time></trkpt><trkpt lat="44.44238689177939" lon="11.635616688802378"><ele>34.0</ele><time>2026-05-02T13:05:12.001Z</time></trkpt><trkpt lat="44.442288068468855" lon="11.635838503507275"><ele>34.0</ele><time>2026-05-02T13:05:13.001Z</time></trkpt><trkpt lat="44.442184031814726" lon="11.636071732466892"><ele>34.0</ele><time>2026-05-02T13:05:14.001Z</time></trkpt><trkpt lat="44.44208135107909" lon="11.636311491974535"><ele>34.0</ele><time>2026-05-02T13:05:15.001Z</time></trkpt><trkpt lat="44.44198307798934" lon="11.636544471747321"><ele>34.333333333333336</ele><time>2026-05-02T13:05:16.001Z</time></trkpt><trkpt lat="44.44188266586376" lon="11.636778410984181"><ele>34.666666666666664</ele><time>2026-05-02T13:05:17.001Z</time></trkpt><trkpt lat="44.44178184476778" lon="11.637022085482513"><ele>35.0</ele><time>2026-05-02T13:05:18.001Z</time></trkpt><trkpt lat="44.44168270001465" lon="11.637265931878972"><ele>34.666666666666664</ele><time>2026-05-02T13:05:19.001Z</time></trkpt><trkpt lat="44.44158577948355" lon="11.637514703001136"><ele>34.333333333333336</ele><time>2026-05-02T13:05:20.001Z</time></trkpt><trkpt lat="44.44149330748592" lon="11.637765689341943"><ele>34.0</ele><time>2026-05-02T13:05:21.001Z</time></trkpt><trkpt lat="44.4414045286434" lon="11.63802538960912"><ele>34.0</ele><time>2026-05-02T13:05:22.001Z</time></trkpt><trkpt lat="44.44131501983277" lon="11.638285523372279"><ele>34.0</ele><time>2026-05-02T13:05:23.001Z</time></trkpt><trkpt lat="44.44122226075247" lon="11.638540191340617"><ele>34.0</ele><time>2026-05-02T13:05:24.001Z</time></trkpt><trkpt lat="44.44112585858148" lon="11.638795300824738"><ele>34.0</ele><time>2026-05-02T13:05:25.001Z</time></trkpt><trkpt lat="44.44102097951888" lon="11.63904746066239"><ele>34.0</ele><time>2026-05-02T13:05:26.001Z</time></trkpt><trkpt lat="44.44090389225312" lon="11.639285193890856"><ele>34.0</ele><time>2026-05-02T13:05:27.001Z</time></trkpt><trkpt lat="44.440784543913274" lon="11.639521948579652"><ele>34.0</ele><time>2026-05-02T13:05:28.001Z</time></trkpt><trkpt lat="44.44066227306747" lon="11.639756123436857"><ele>34.0</ele><time>2026-05-02T13:05:29.001Z</time></trkpt><trkpt lat="44.440542243865565" lon="11.639988611798769"><ele>34.0</ele><time>2026-05-02T13:05:30.002Z</time></trkpt><trkpt lat="44.440422587991" lon="11.640222864438432"><ele>33.333333333333336</ele><time>2026-05-02T13:05:31.002Z</time></trkpt><trkpt lat="44.440302762902775" lon="11.640457234663172"><ele>32.666666666666664</ele><time>2026-05-02T13:05:32.002Z</time></trkpt><trkpt lat="44.44018425105451" lon="11.6406904546409"><ele>32.0</ele><time>2026-05-02T13:05:33.002Z</time></trkpt><trkpt lat="44.440066760898986" lon="11.640922847298837"><ele>32.33333333333333</ele><time>2026-05-02T13:05:34.002Z</time></trkpt><trkpt lat="44.43994978240524" lon="11.641153431693493"><ele>32.666666666666664</ele><time>2026-05-02T13:05:35.002Z</time></trkpt><trkpt lat="44.4398332731089" lon="11.641384555448287"><ele>33.0</ele><time>2026-05-02T13:05:36.002Z</time></trkpt><trkpt lat="44.43971901198826" lon="11.641612332443806"><ele>33.333333333333336</ele><time>2026-05-02T13:05:37.002Z</time></trkpt><trkpt lat="44.43959455774901" lon="11.641845006731298"><ele>33.66666666666667</ele><time>2026-05-02T13:05:38.002Z</time></trkpt><trkpt lat="44.43948153081213" lon="11.642069872487335"><ele>34.0</ele><time>2026-05-02T13:05:39.002Z</time></trkpt><trkpt lat="44.43936429301315" lon="11.642297584147844"><ele>34.0</ele><time>2026-05-02T13:05:40.002Z</time></trkpt><trkpt lat="44.43924758442295" lon="11.642525204881442"><ele>34.0</ele><time>2026-05-02T13:05:41.002Z</time></trkpt><trkpt lat="44.4391318454629" lon="11.64275492350413"><ele>34.0</ele><time>2026-05-02T13:05:42.002Z</time></trkpt><trkpt lat="44.439016062202185" lon="11.642984512151047"><ele>33.66666666666667</ele><time>2026-05-02T13:05:43.002Z</time></trkpt><trkpt lat="44.4388993954028" lon="11.643213302677019"><ele>33.333333333333336</ele><time>2026-05-02T13:05:44.002Z</time></trkpt><trkpt lat="44.43878704935376" lon="11.643436990430857"><ele>33.0</ele><time>2026-05-02T13:05:45.002Z</time></trkpt><trkpt lat="44.43867815701247" lon="11.643656527455075"><ele>33.0</ele><time>2026-05-02T13:05:46.002Z</time></trkpt><trkpt lat="44.43857138858016" lon="11.643875896343912"><ele>33.0</ele><time>2026-05-02T13:05:47.002Z</time></trkpt><trkpt lat="44.438471851132206" lon="11.64409406874129"><ele>33.0</ele><time>2026-05-02T13:05:48.002Z</time></trkpt><trkpt lat="44.43837722819676" lon="11.644311865042546"><ele>33.333333333333336</ele><time>2026-05-02T13:05:49.002Z</time></trkpt><trkpt lat="44.4382853233902" lon="11.644534955692407"><ele>33.66666666666667</ele><time>2026-05-02T13:05:50.002Z</time></trkpt><trkpt lat="44.43819923481989" lon="11.64476721493831"><ele>34.0</ele><time>2026-05-02T13:05:51.002Z</time></trkpt><trkpt lat="44.43811942933653" lon="11.645015825541375"><ele>34.0</ele><time>2026-05-02T13:05:52.002Z</time></trkpt><trkpt lat="44.4380435476413" lon="11.645282342946048"><ele>34.0</ele><time>2026-05-02T13:05:53.002Z</time></trkpt><trkpt lat="44.43796784695434" lon="11.645570244681647"><ele>34.0</ele><time>2026-05-02T13:05:54.002Z</time></trkpt><trkpt lat="44.43789331433004" lon="11.645863402388747"><ele>33.5</ele><time>2026-05-02T13:05:55.002Z</time></trkpt><trkpt lat="44.43781410597461" lon="11.646177685998984"><ele>33.0</ele><time>2026-05-02T13:05:56.002Z</time></trkpt><trkpt lat="44.4377277011778" lon="11.64649468075892"><ele>33.0</ele><time>2026-05-02T13:05:57.002Z</time></trkpt><trkpt lat="44.437639111678244" lon="11.646812654880767"><ele>33.0</ele><time>2026-05-02T13:05:58.002Z</time></trkpt><trkpt lat="44.43754563316877" lon="11.647133311216418"><ele>32.5</ele><time>2026-05-02T13:05:59.002Z</time></trkpt><trkpt lat="44.437452075587935" lon="11.647458612539424"><ele>32.0</ele><time>2026-05-02T13:06:00.002Z</time></trkpt><trkpt lat="44.43735796928133" lon="11.647787689262959"><ele>33.0</ele><time>2026-05-02T13:06:01.002Z</time></trkpt><trkpt lat="44.437266591706866" lon="11.648110769076691"><ele>34.0</ele><time>2026-05-02T13:06:02.002Z</time></trkpt><trkpt lat="44.437178343682405" lon="11.648427490384487"><ele>33.5</ele><time>2026-05-02T13:06:03.003Z</time></trkpt><trkpt lat="44.43709157306953" lon="11.648738250447588"><ele>33.0</ele><time>2026-05-02T13:06:04.003Z</time></trkpt><trkpt lat="44.437005162827184" lon="11.649041410695157"><ele>33.0</ele><time>2026-05-02T13:06:05.003Z</time></trkpt><trkpt lat="44.4369222726582" lon="11.649342544132903"><ele>33.0</ele><time>2026-05-02T13:06:06.003Z</time></trkpt><trkpt lat="44.43684272111718" lon="11.649642161695036"><ele>32.5</ele><time>2026-05-02T13:06:07.003Z</time></trkpt><trkpt lat="44.43676391997101" lon="11.649940873096677"><ele>32.0</ele><time>2026-05-02T13:06:08.003Z</time></trkpt><trkpt lat="44.43668684467977" lon="11.650235009388803"><ele>33.0</ele><time>2026-05-02T13:06:09.003Z</time></trkpt><trkpt lat="44.436612632298946" lon="11.650526528184825"><ele>34.0</ele><time>2026-05-02T13:06:10.003Z</time></trkpt><trkpt lat="44.43653815832369" lon="11.650818766666912"><ele>35.0</ele><time>2026-05-02T13:06:11.003Z</time></trkpt><trkpt lat="44.43646194925496" lon="11.651107836253804"><ele>35.33333333333333</ele><time>2026-05-02T13:06:12.003Z</time></trkpt><trkpt lat="44.436383157598726" lon="11.651395610470496"><ele>35.666666666666664</ele><time>2026-05-02T13:06:13.003Z</time></trkpt><trkpt lat="44.43630311470348" lon="11.651680925504985"><ele>36.0</ele><time>2026-05-02T13:06:14.003Z</time></trkpt><trkpt lat="44.4362244032749" lon="11.651962759563418"><ele>35.333333333333336</ele><time>2026-05-02T13:06:15.003Z</time></trkpt><trkpt lat="44.436148165796084" lon="11.652236881840718"><ele>34.66666666666667</ele><time>2026-05-02T13:06:16.003Z</time></trkpt><trkpt lat="44.43607416362361" lon="11.652490937408349"><ele>34.0</ele><time>2026-05-02T13:06:17.003Z</time></trkpt><trkpt lat="44.43600256700261" lon="11.65273184617246"><ele>34.0</ele><time>2026-05-02T13:06:18.003Z</time></trkpt><trkpt lat="44.43593739698726" lon="11.652955655790421"><ele>34.0</ele><time>2026-05-02T13:06:19.003Z</time></trkpt><trkpt lat="44.4358772964353" lon="11.653163627272493"><ele>34.0</ele><time>2026-05-02T13:06:20.003Z</time></trkpt><trkpt lat="44.43582249456822" lon="11.653353048237449"><ele>34.0</ele><time>2026-05-02T13:06:21.003Z</time></trkpt><trkpt lat="44.43577153754006" lon="11.653526489030154"><ele>34.0</ele><time>2026-05-02T13:06:22.003Z</time></trkpt><trkpt lat="44.435732840346404" lon="11.653691550581188"><ele>34.0</ele><time>2026-05-02T13:06:23.003Z</time></trkpt><trkpt lat="44.43572232855705" lon="11.653850674290346"><ele>34.0</ele><time>2026-05-02T13:06:24.003Z</time></trkpt><trkpt lat="44.43574307570634" lon="11.65400146553512"><ele>34.2</ele><time>2026-05-02T13:06:25.003Z</time></trkpt><trkpt lat="44.43578347911913" lon="11.654140593015628"><ele>34.4</ele><time>2026-05-02T13:06:26.003Z</time></trkpt><trkpt lat="44.43584571494248" lon="11.654265146128562"><ele>34.6</ele><time>2026-05-02T13:06:27.003Z</time></trkpt><trkpt lat="44.435921368509305" lon="11.654378627307572"><ele>34.8</ele><time>2026-05-02T13:06:28.003Z</time></trkpt><trkpt lat="44.43600618675212" lon="11.654484501436798"><ele>35.0</ele><time>2026-05-02T13:06:29.003Z</time></trkpt><trkpt lat="44.43610513145244" lon="11.654571694027132"><ele>35.25</ele><time>2026-05-02T13:06:30.003Z</time></trkpt><trkpt lat="44.436214312137615" lon="11.65465248518124"><ele>35.5</ele><time>2026-05-02T13:06:31.003Z</time></trkpt><trkpt lat="44.43632400608404" lon="11.654741495113225"><ele>35.75</ele><time>2026-05-02T13:06:32.003Z</time></trkpt><trkpt lat="44.436426811738265" lon="11.654853697525438"><ele>36.0</ele><time>2026-05-02T13:06:32.999Z</time></trkpt><trkpt lat="44.436524511003405" lon="11.654995679211488"><ele>36.0</ele><time>2026-05-02T13:06:33.999Z</time></trkpt><trkpt lat="44.43661160944756" lon="11.65515987524776"><ele>36.0</ele><time>2026-05-02T13:06:34.999Z</time></trkpt><trkpt lat="44.43668225201524" lon="11.655344408648613"><ele>36.0</ele><time>2026-05-02T13:06:35.999Z</time></trkpt><trkpt lat="44.43672934279657" lon="11.655537811081336"><ele>36.0</ele><time>2026-05-02T13:06:36.999Z</time></trkpt><trkpt lat="44.43675751193924" lon="11.655745067200911"><ele>36.0</ele><time>2026-05-02T13:06:37.999Z</time></trkpt><trkpt lat="44.436757331920425" lon="11.655957260989423"><ele>36.0</ele><time>2026-05-02T13:06:38.999Z</time></trkpt><trkpt lat="44.436726327010305" lon="11.656174944331877"><ele>36.0</ele><time>2026-05-02T13:06:39.999Z</time></trkpt><trkpt lat="44.436686501959294" lon="11.656399973194768"><ele>36.0</ele><time>2026-05-02T13:06:40.999Z</time></trkpt><trkpt lat="44.43665217262647" lon="11.656632760343207"><ele>36.0</ele><time>2026-05-02T13:06:41.999Z</time></trkpt><trkpt lat="44.43662236548309" lon="11.6568784115434"><ele>36.0</ele><time>2026-05-02T13:06:42.999Z</time></trkpt><trkpt lat="44.43659289435" lon="11.657133201052943"><ele>36.0</ele><time>2026-05-02T13:06:43.999Z</time></trkpt><trkpt lat="44.436559302494324" lon="11.657390548423338"><ele>36.0</ele><time>2026-05-02T13:06:44.999Z</time></trkpt><trkpt lat="44.436525060880314" lon="11.657642432208885"><ele>36.0</ele><time>2026-05-02T13:06:45.999Z</time></trkpt><trkpt lat="44.4364823797449" lon="11.657895504324268"><ele>35.666666666666664</ele><time>2026-05-02T13:06:46.999Z</time></trkpt><trkpt lat="44.4364328343275" lon="11.658150808048733"><ele>35.33333333333333</ele><time>2026-05-02T13:06:48Z</time></trkpt><trkpt lat="44.43638553873117" lon="11.658408282140417"><ele>35.0</ele><time>2026-05-02T13:06:49Z</time></trkpt><trkpt lat="44.4363294942901" lon="11.658666187667531"><ele>35.0</ele><time>2026-05-02T13:06:50Z</time></trkpt><trkpt lat="44.436273397260365" lon="11.658928138640366"><ele>35.0</ele><time>2026-05-02T13:06:51Z</time></trkpt><trkpt lat="44.43621299593711" lon="11.65918947379241"><ele>35.0</ele><time>2026-05-02T13:06:52Z</time></trkpt><trkpt lat="44.43615517589378" lon="11.65945402175814"><ele>35.0</ele><time>2026-05-02T13:06:53Z</time></trkpt><trkpt lat="44.43609681523336" lon="11.659722088247873"><ele>35.0</ele><time>2026-05-02T13:06:54Z</time></trkpt><trkpt lat="44.436037868740456" lon="11.659992229929893"><ele>35.0</ele><time>2026-05-02T13:06:55Z</time></trkpt><trkpt lat="44.435979865718664" lon="11.660259951996707"><ele>35.0</ele><time>2026-05-02T13:06:56Z</time></trkpt><trkpt lat="44.43592341667288" lon="11.660535756919565"><ele>35.0</ele><time>2026-05-02T13:06:57Z</time></trkpt><trkpt lat="44.43586658830463" lon="11.660816614246697"><ele>35.0</ele><time>2026-05-02T13:06:58Z</time></trkpt><trkpt lat="44.435809154737" lon="11.661097216075895"><ele>34.666666666666664</ele><time>2026-05-02T13:06:59Z</time></trkpt><trkpt lat="44.435749365754134" lon="11.661379726128883"><ele>34.333333333333336</ele><time>2026-05-02T13:07:00Z</time></trkpt><trkpt lat="44.43568601832257" lon="11.661660623537047"><ele>34.0</ele><time>2026-05-02T13:07:01Z</time></trkpt><trkpt lat="44.43562619316961" lon="11.661946498811707"><ele>34.333333333333336</ele><time>2026-05-02T13:07:02Z</time></trkpt><trkpt lat="44.43556622947983" lon="11.662231199144198"><ele>34.666666666666664</ele><time>2026-05-02T13:07:03Z</time></trkpt><trkpt lat="44.43550670832058" lon="11.662521176639169"><ele>35.0</ele><time>2026-05-02T13:07:04Z</time></trkpt><trkpt lat="44.43544647981841" lon="11.662811944713775"><ele>34.33333333333333</ele><time>2026-05-02T13:07:05Z</time></trkpt><trkpt lat="44.435385677371045" lon="11.663102875633514"><ele>33.666666666666664</ele><time>2026-05-02T13:07:06Z</time></trkpt><trkpt lat="44.43532305856011" lon="11.663395590965779"><ele>33.0</ele><time>2026-05-02T13:07:07Z</time></trkpt><trkpt lat="44.43525929530556" lon="11.663690347030514"><ele>33.0</ele><time>2026-05-02T13:07:08Z</time></trkpt><trkpt lat="44.43519463052719" lon="11.663986294129767"><ele>33.0</ele><time>2026-05-02T13:07:09.001Z</time></trkpt><trkpt lat="44.43512878936583" lon="11.664286606895145"><ele>33.0</ele><time>2026-05-02T13:07:10.001Z</time></trkpt><trkpt lat="44.43506554438824" lon="11.664583989924184"><ele>33.0</ele><time>2026-05-02T13:07:11.001Z</time></trkpt><trkpt lat="44.43500927078206" lon="11.664858751893336"><ele>33.0</ele><time>2026-05-02T13:07:12.001Z</time></trkpt><trkpt lat="44.434953207624744" lon="11.66512603612733"><ele>33.0</ele><time>2026-05-02T13:07:13.001Z</time></trkpt><trkpt lat="44.434898094954676" lon="11.66538789528224"><ele>33.0</ele><time>2026-05-02T13:07:14.001Z</time></trkpt><trkpt lat="44.43484382210601" lon="11.665648094503977"><ele>33.0</ele><time>2026-05-02T13:07:15.001Z</time></trkpt><trkpt lat="44.43479053007805" lon="11.665906934830874"><ele>33.0</ele><time>2026-05-02T13:07:16.001Z</time></trkpt><trkpt lat="44.43473695956121" lon="11.666161815857953"><ele>32.666666666666664</ele><time>2026-05-02T13:07:17.001Z</time></trkpt><trkpt lat="44.43468182778039" lon="11.666416432685178"><ele>32.33333333333333</ele><time>2026-05-02T13:07:18.001Z</time></trkpt><trkpt lat="44.43462679759563" lon="11.666670582284492"><ele>32.0</ele><time>2026-05-02T13:07:19.001Z</time></trkpt><trkpt lat="44.434571734304605" lon="11.666919583126473"><ele>32.33333333333333</ele><time>2026-05-02T13:07:20.001Z</time></trkpt><trkpt lat="44.43452195902985" lon="11.667155485470317"><ele>32.666666666666664</ele><time>2026-05-02T13:07:21.001Z</time></trkpt><trkpt lat="44.43447158098988" lon="11.667387203430527"><ele>33.0</ele><time>2026-05-02T13:07:22.001Z</time></trkpt><trkpt lat="44.434423504313706" lon="11.667612137308007"><ele>33.333333333333336</ele><time>2026-05-02T13:07:23.001Z</time></trkpt><trkpt lat="44.434377301990956" lon="11.667828136546222"><ele>33.66666666666667</ele><time>2026-05-02T13:07:24.001Z</time></trkpt><trkpt lat="44.43433218054825" lon="11.66803028090468"><ele>34.0</ele><time>2026-05-02T13:07:25.001Z</time></trkpt><trkpt lat="44.43429002488463" lon="11.668227126893207"><ele>34.0</ele><time>2026-05-02T13:07:26.001Z</time></trkpt><trkpt lat="44.43425191489608" lon="11.668411617843303"><ele>34.0</ele><time>2026-05-02T13:07:27.001Z</time></trkpt><trkpt lat="44.434206802042524" lon="11.668584882595463"><ele>34.0</ele><time>2026-05-02T13:07:28.001Z</time></trkpt><trkpt lat="44.434166507053966" lon="11.66876624200113"><ele>34.0</ele><time>2026-05-02T13:07:29.001Z</time></trkpt><trkpt lat="44.434132760732915" lon="11.668954728454406"><ele>34.0</ele><time>2026-05-02T13:07:30.001Z</time></trkpt><trkpt lat="44.4340904768042" lon="11.66914457562953"><ele>34.0</ele><time>2026-05-02T13:07:31.001Z</time></trkpt><trkpt lat="44.43404737198287" lon="11.669339302841518"><ele>34.0</ele><time>2026-05-02T13:07:32.001Z</time></trkpt><trkpt lat="44.43400150292051" lon="11.669533426825181"><ele>34.0</ele><time>2026-05-02T13:07:33.001Z</time></trkpt><trkpt lat="44.43395791980061" lon="11.669734918009764"><ele>34.0</ele><time>2026-05-02T13:07:34.001Z</time></trkpt><trkpt lat="44.43390879652577" lon="11.66993814467308"><ele>34.0</ele><time>2026-05-02T13:07:35.001Z</time></trkpt><trkpt lat="44.43386302846387" lon="11.670145473431702"><ele>34.0</ele><time>2026-05-02T13:07:36.001Z</time></trkpt><trkpt lat="44.4338223340834" lon="11.670355987007586"><ele>34.0</ele><time>2026-05-02T13:07:37.001Z</time></trkpt><trkpt lat="44.433780753899924" lon="11.67057078353121"><ele>34.0</ele><time>2026-05-02T13:07:38.002Z</time></trkpt><trkpt lat="44.433737433733164" lon="11.670782150854066"><ele>34.0</ele><time>2026-05-02T13:07:39.002Z</time></trkpt><trkpt lat="44.433693553255175" lon="11.670986107025648"><ele>34.0</ele><time>2026-05-02T13:07:40.002Z</time></trkpt><trkpt lat="44.43365116964544" lon="11.671193414016278"><ele>34.0</ele><time>2026-05-02T13:07:41.002Z</time></trkpt><trkpt lat="44.43360673701141" lon="11.671400964448335"><ele>34.0</ele><time>2026-05-02T13:07:42.002Z</time></trkpt><trkpt lat="44.4335566538458" lon="11.671607244700956"><ele>34.0</ele><time>2026-05-02T13:07:43.002Z</time></trkpt><trkpt lat="44.43351317235304" lon="11.671813482644668"><ele>34.0</ele><time>2026-05-02T13:07:44.002Z</time></trkpt><trkpt lat="44.433467558630944" lon="11.672014769614403"><ele>34.0</ele><time>2026-05-02T13:07:45.002Z</time></trkpt><trkpt lat="44.433421756368844" lon="11.672216603508387"><ele>33.66666666666667</ele><time>2026-05-02T13:07:46.002Z</time></trkpt><trkpt lat="44.433383406273656" lon="11.67241826882636"><ele>33.333333333333336</ele><time>2026-05-02T13:07:47.002Z</time></trkpt><trkpt lat="44.43334097449011" lon="11.672620601677714"><ele>33.0</ele><time>2026-05-02T13:07:48.002Z</time></trkpt><trkpt lat="44.43329280593009" lon="11.67282549658559"><ele>32.666666666666664</ele><time>2026-05-02T13:07:49.002Z</time></trkpt><trkpt lat="44.43325179742478" lon="11.673029789494487"><ele>32.33333333333333</ele><time>2026-05-02T13:07:50.002Z</time></trkpt><trkpt lat="44.43320953637778" lon="11.673232899910525"><ele>32.0</ele><time>2026-05-02T13:07:51.002Z</time></trkpt><trkpt lat="44.43316863494653" lon="11.673432908014103"><ele>32.25</ele><time>2026-05-02T13:07:52.002Z</time></trkpt><trkpt lat="44.433124220568935" lon="11.67363239229762"><ele>32.5</ele><time>2026-05-02T13:07:53.002Z</time></trkpt><trkpt lat="44.433077351867006" lon="11.673827737557907"><ele>32.75</ele><time>2026-05-02T13:07:54.002Z</time></trkpt><trkpt lat="44.43303408424975" lon="11.674015449224674"><ele>33.0</ele><time>2026-05-02T13:07:55.002Z</time></trkpt><trkpt lat="44.43299492647328" lon="11.67419119211452"><ele>33.25</ele><time>2026-05-02T13:07:56.002Z</time></trkpt><trkpt lat="44.43295792520115" lon="11.674354345893239"><ele>33.5</ele><time>2026-05-02T13:07:57.002Z</time></trkpt><trkpt lat="44.43292423944385" lon="11.674513636729934"><ele>33.75</ele><time>2026-05-02T13:07:58.002Z</time></trkpt><trkpt lat="44.43289189706817" lon="11.674664937762756"><ele>34.0</ele><time>2026-05-02T13:07:59.002Z</time></trkpt><trkpt lat="44.43286593370314" lon="11.674810086828472"><ele>34.2</ele><time>2026-05-02T13:08:00.002Z</time></trkpt><trkpt lat="44.43283378895452" lon="11.674944891190222"><ele>34.4</ele><time>2026-05-02T13:08:01.002Z</time></trkpt><trkpt lat="44.43279176709829" lon="11.67506626122106"><ele>34.6</ele><time>2026-05-02T13:08:02.002Z</time></trkpt><trkpt lat="44.432745137233844" lon="11.675171987904143"><ele>34.8</ele><time>2026-05-02T13:08:03.002Z</time></trkpt><trkpt lat="44.432686758605044" lon="11.675271890995342"><ele>35.0</ele><time>2026-05-02T13:08:04.002Z</time></trkpt><trkpt lat="44.43262739792549" lon="11.675364676540172"><ele>35.285714285714285</ele><time>2026-05-02T13:08:05.002Z</time></trkpt><trkpt lat="44.43257083080323" lon="11.6754470327201"><ele>35.57142857142857</ele><time>2026-05-02T13:08:06.002Z</time></trkpt><trkpt lat="44.43251986012515" lon="11.675525477775434"><ele>35.85714285714286</ele><time>2026-05-02T13:08:07.002Z</time></trkpt><trkpt lat="44.43247314664613" lon="11.675605734545707"><ele>36.14285714285714</ele><time>2026-05-02T13:08:08.002Z</time></trkpt><trkpt lat="44.432417530757725" lon="11.675661980770576"><ele>36.42857142857143</ele><time>2026-05-02T13:08:09.002Z</time></trkpt><trkpt lat="44.432354389257256" lon="11.67569957308081"><ele>36.714285714285715</ele><time>2026-05-02T13:08:10.002Z</time></trkpt><trkpt lat="44.4322887056711" lon="11.675727726344428"><ele>37.0</ele><time>2026-05-02T13:08:11.003Z</time></trkpt><trkpt lat="44.432218964631204" lon="11.675751144349091"><ele>37.0</ele><time>2026-05-02T13:08:12.003Z</time></trkpt><trkpt lat="44.43215148253658" lon="11.675753182300562"><ele>37.0</ele><time>2026-05-02T13:08:13.003Z</time></trkpt><trkpt lat="44.43204424876712" lon="11.67581774158463"><ele>37.0</ele><time>2026-05-02T13:08:15.003Z</time></trkpt><trkpt lat="44.43199661199414" lon="11.675953373726218"><ele>37.0</ele><time>2026-05-02T13:08:17.003Z</time></trkpt><trkpt lat="44.43195765986761" lon="11.67610785322143"><ele>37.0</ele><time>2026-05-02T13:08:19.003Z</time></trkpt><trkpt lat="44.43193100789343" lon="11.676289206443418"><ele>36.4</ele><time>2026-05-02T13:08:21.003Z</time></trkpt><trkpt lat="44.43191455613276" lon="11.676385500370188"><ele>35.800000000000004</ele><time>2026-05-02T13:08:22.003Z</time></trkpt><trkpt lat="44.43189677348499" lon="11.676474074047816"><ele>35.2</ele><time>2026-05-02T13:08:23.003Z</time></trkpt><trkpt lat="44.43185439870048" lon="11.676634519861224"><ele>34.6</ele><time>2026-05-02T13:08:25.003Z</time></trkpt><trkpt lat="44.43182375078699" lon="11.676800900739996"><ele>34.0</ele><time>2026-05-02T13:08:27.003Z</time></trkpt><trkpt lat="44.4318069337222" lon="11.67690232943907"><ele>33.833333333333336</ele><time>2026-05-02T13:08:28.003Z</time></trkpt><trkpt lat="44.43178381382635" lon="11.677006878840833"><ele>33.66666666666667</ele><time>2026-05-02T13:08:29.003Z</time></trkpt><trkpt lat="44.431758734332895" lon="11.677115576278554"><ele>33.5</ele><time>2026-05-02T13:08:30.003Z</time></trkpt><trkpt lat="44.43173266052699" lon="11.677230644581128"><ele>33.333333333333336</ele><time>2026-05-02T13:08:31.003Z</time></trkpt><trkpt lat="44.431704343747825" lon="11.6773534882551"><ele>33.166666666666664</ele><time>2026-05-02T13:08:32.003Z</time></trkpt><trkpt lat="44.43167534520604" lon="11.677479196329086"><ele>33.0</ele><time>2026-05-02T13:08:33.003Z</time></trkpt><trkpt lat="44.43164284162407" lon="11.677606462279652"><ele>33.0</ele><time>2026-05-02T13:08:34.003Z</time></trkpt><trkpt lat="44.43161220708141" lon="11.677739381757235"><ele>33.0</ele><time>2026-05-02T13:08:35.003Z</time></trkpt><trkpt lat="44.43158016588102" lon="11.677873021021862"><ele>33.0</ele><time>2026-05-02T13:08:36.003Z</time></trkpt><trkpt lat="44.431554067600196" lon="11.678004021040286"><ele>33.0</ele><time>2026-05-02T13:08:37.003Z</time></trkpt><trkpt lat="44.43152931482057" lon="11.678124336950425"><ele>33.0</ele><time>2026-05-02T13:08:38.003Z</time></trkpt><trkpt lat="44.431509686081384" lon="11.678238539100354"><ele>33.0</ele><time>2026-05-02T13:08:38.999Z</time></trkpt><trkpt lat="44.43148635119825" lon="11.678343330435423"><ele>33.0</ele><time>2026-05-02T13:08:39.999Z</time></trkpt><trkpt lat="44.431464639033614" lon="11.678444411222717"><ele>33.0</ele><time>2026-05-02T13:08:40.999Z</time></trkpt><trkpt lat="44.43144805333868" lon="11.678541520071988"><ele>33.0</ele><time>2026-05-02T13:08:41.999Z</time></trkpt><trkpt lat="44.431429899453335" lon="11.678635490924616"><ele>33.0</ele><time>2026-05-02T13:08:42.999Z</time></trkpt><trkpt lat="44.43141111254228" lon="11.678732601448807"><ele>33.0</ele><time>2026-05-02T13:08:43.999Z</time></trkpt><trkpt lat="44.4313915316596" lon="11.678829158279688"><ele>33.0</ele><time>2026-05-02T13:08:44.999Z</time></trkpt><trkpt lat="44.4313426621031" lon="11.678986535600266"><ele>33.199999999999996</ele><time>2026-05-02T13:08:46.999Z</time></trkpt><trkpt lat="44.43130319389428" lon="11.67910791023535"><ele>33.4</ele><time>2026-05-02T13:08:48.999Z</time></trkpt><trkpt lat="44.43127046310447" lon="11.679208479715331"><ele>33.599999999999994</ele><time>2026-05-02T13:08:52Z</time></trkpt><trkpt lat="44.431205171270705" lon="11.679246800182426"><ele>33.8</ele><time>2026-05-02T13:08:54Z</time></trkpt><trkpt lat="44.43110027370287" lon="11.679201548153843"><ele>34.0</ele><time>2026-05-02T13:08:56Z</time></trkpt><trkpt lat="44.43099367068532" lon="11.679141263299702"><ele>34.0</ele><time>2026-05-02T13:08:58Z</time></trkpt><trkpt lat="44.43089386980666" lon="11.679096527433112"><ele>34.0</ele><time>2026-05-02T13:09:00Z</time></trkpt><trkpt lat="44.430809773551125" lon="11.679067473460137"><ele>34.0</ele><time>2026-05-02T13:09:02Z</time></trkpt><trkpt lat="44.43072016474286" lon="11.67901847286269"><ele>34.0</ele><time>2026-05-02T13:09:04Z</time></trkpt><trkpt lat="44.430611918175565" lon="11.678967432564068"><ele>34.0</ele><time>2026-05-02T13:09:06Z</time></trkpt><trkpt lat="44.43054581340783" lon="11.678942163733964"><ele>34.0</ele><time>2026-05-02T13:09:07Z</time></trkpt><trkpt lat="44.43047512371232" lon="11.678912545833127"><ele>34.0</ele><time>2026-05-02T13:09:08Z</time></trkpt><trkpt lat="44.4304085919599" lon="11.678884711024775"><ele>34.0</ele><time>2026-05-02T13:09:09Z</time></trkpt><trkpt lat="44.43034660052686" lon="11.678854894524092"><ele>34.0</ele><time>2026-05-02T13:09:10Z</time></trkpt><trkpt lat="44.43024670491461" lon="11.678794984599248"><ele>34.0</ele><time>2026-05-02T13:09:12Z</time></trkpt><trkpt lat="44.43016976221628" lon="11.67875665031257"><ele>34.0</ele><time>2026-05-02T13:09:25.001Z</time></trkpt><trkpt lat="44.43017508144162" lon="11.678659775505354"><ele>33.75</ele><time>2026-05-02T13:09:27.001Z</time></trkpt><trkpt lat="44.430227507218184" lon="11.678468322840372"><ele>33.5</ele><time>2026-05-02T13:09:29.001Z</time></trkpt><trkpt lat="44.4302560603533" lon="11.67832209774263"><ele>33.25</ele><time>2026-05-02T13:09:31.001Z</time></trkpt><trkpt lat="44.43028253720657" lon="11.678190733409634"><ele>33.0</ele><time>2026-05-02T13:09:33.001Z</time></trkpt><trkpt lat="44.430319102732" lon="11.678020586099757"><ele>33.0</ele><time>2026-05-02T13:09:35.001Z</time></trkpt><trkpt lat="44.43033761393755" lon="11.677934194674194"><ele>33.0</ele><time>2026-05-02T13:09:36.001Z</time></trkpt><trkpt lat="44.43037714850537" lon="11.677780384041482"><ele>33.0</ele><time>2026-05-02T13:09:38.001Z</time></trkpt><trkpt lat="44.43040514928949" lon="11.677626383390686"><ele>33.0</ele><time>2026-05-02T13:09:40.001Z</time></trkpt><trkpt lat="44.430440851953215" lon="11.677460534719048"><ele>33.0</ele><time>2026-05-02T13:09:42.002Z</time></trkpt><trkpt lat="44.430464188023294" lon="11.677364476963776"><ele>33.0</ele><time>2026-05-02T13:09:43.002Z</time></trkpt><trkpt lat="44.43048729270643" lon="11.677259028099995"><ele>33.0</ele><time>2026-05-02T13:09:44.002Z</time></trkpt><trkpt lat="44.430514039868555" lon="11.677140620287812"><ele>33.0</ele><time>2026-05-02T13:09:45.002Z</time></trkpt><trkpt lat="44.430543402942234" lon="11.677012251949218"><ele>33.0</ele><time>2026-05-02T13:09:46.002Z</time></trkpt><trkpt lat="44.430571679298794" lon="11.676880427325534"><ele>33.0</ele><time>2026-05-02T13:09:47.002Z</time></trkpt><trkpt lat="44.430599466699796" lon="11.676753800141011"><ele>33.0</ele><time>2026-05-02T13:09:48.002Z</time></trkpt><trkpt lat="44.43062714261512" lon="11.67662718937524"><ele>33.0</ele><time>2026-05-02T13:09:49.002Z</time></trkpt><trkpt lat="44.43065951515975" lon="11.676488240589983"><ele>33.0</ele><time>2026-05-02T13:09:50.002Z</time></trkpt><trkpt lat="44.4306928718665" lon="11.676340108006276"><ele>33.0</ele><time>2026-05-02T13:09:51.002Z</time></trkpt><trkpt lat="44.4307228196275" lon="11.676184004466212"><ele>33.0</ele><time>2026-05-02T13:09:52.002Z</time></trkpt><trkpt lat="44.43075339391159" lon="11.676027011286957"><ele>33.0</ele><time>2026-05-02T13:09:53.002Z</time></trkpt><trkpt lat="44.43078019343432" lon="11.675877178402148"><ele>33.0</ele><time>2026-05-02T13:09:54.002Z</time></trkpt><trkpt lat="44.43080758092942" lon="11.675737824671524"><ele>33.0</ele><time>2026-05-02T13:09:55.002Z</time></trkpt><trkpt lat="44.43083824752033" lon="11.675610746406088"><ele>33.0</ele><time>2026-05-02T13:09:56.002Z</time></trkpt><trkpt lat="44.430870965202075" lon="11.675496026533427"><ele>33.0</ele><time>2026-05-02T13:09:57.002Z</time></trkpt><trkpt lat="44.43091149029988" lon="11.675398092486306"><ele>33.0</ele><time>2026-05-02T13:09:58.002Z</time></trkpt><trkpt lat="44.43096440197319" lon="11.6753261306629"><ele>33.0</ele><time>2026-05-02T13:09:59.002Z</time></trkpt><trkpt lat="44.43102302702727" lon="11.675284897840818"><ele>33.0</ele><time>2026-05-02T13:10:00.002Z</time></trkpt><trkpt lat="44.43109350390528" lon="11.675288543724513"><ele>33.0</ele><time>2026-05-02T13:10:01.002Z</time></trkpt><trkpt lat="44.43116602496838" lon="11.675329048143244"><ele>33.0</ele><time>2026-05-02T13:10:02.002Z</time></trkpt><trkpt lat="44.43124319584192" lon="11.675370614606953"><ele>33.0</ele><time>2026-05-02T13:10:03.002Z</time></trkpt><trkpt lat="44.43133380392389" lon="11.675418677762964"><ele>33.6</ele><time>2026-05-02T13:10:04.002Z</time></trkpt><trkpt lat="44.431423506930756" lon="11.675464971496472"><ele>34.199999999999996</ele><time>2026-05-02T13:10:05.002Z</time></trkpt><trkpt lat="44.43152132865199" lon="11.675506196335784"><ele>34.8</ele><time>2026-05-02T13:10:06.002Z</time></trkpt><trkpt lat="44.43161802688209" lon="11.675544670590453"><ele>35.4</ele><time>2026-05-02T13:10:07.002Z</time></trkpt><trkpt lat="44.4317184952294" lon="11.675591679461602"><ele>36.0</ele><time>2026-05-02T13:10:08.002Z</time></trkpt><trkpt lat="44.4318141591671" lon="11.675648810094271"><ele>36.0</ele><time>2026-05-02T13:10:09.002Z</time></trkpt><trkpt lat="44.43191336743575" lon="11.67570439230347"><ele>36.0</ele><time>2026-05-02T13:10:10.002Z</time></trkpt><trkpt lat="44.43202568960293" lon="11.675747158233001"><ele>36.0</ele><time>2026-05-02T13:10:11.002Z</time></trkpt><trkpt lat="44.432139180426994" lon="11.675779007280944"><ele>36.0</ele><time>2026-05-02T13:10:12.002Z</time></trkpt><trkpt lat="44.432251863117756" lon="11.675797887710178"><ele>36.25</ele><time>2026-05-02T13:10:13.002Z</time></trkpt><trkpt lat="44.43236669409148" lon="11.675808284105875"><ele>36.5</ele><time>2026-05-02T13:10:14.002Z</time></trkpt><trkpt lat="44.432478865399055" lon="11.675823390065847"><ele>36.75</ele><time>2026-05-02T13:10:15.003Z</time></trkpt><trkpt lat="44.4325894104247" lon="11.675843355019897"><ele>37.0</ele><time>2026-05-02T13:10:16.003Z</time></trkpt><trkpt lat="44.43269966518212" lon="11.675861172417997"><ele>37.0</ele><time>2026-05-02T13:10:17.003Z</time></trkpt><trkpt lat="44.43280593668917" lon="11.675878768395473"><ele>37.0</ele><time>2026-05-02T13:10:18.003Z</time></trkpt><trkpt lat="44.43290600003236" lon="11.675905949485522"><ele>37.0</ele><time>2026-05-02T13:10:19.003Z</time></trkpt><trkpt lat="44.433000953045806" lon="11.675943499047126"><ele>37.0</ele><time>2026-05-02T13:10:20.003Z</time></trkpt><trkpt lat="44.43308774710872" lon="11.675984041992699"><ele>37.0</ele><time>2026-05-02T13:10:21.003Z</time></trkpt><trkpt lat="44.433155688668336" lon="11.676027443095698"><ele>36.714285714285715</ele><time>2026-05-02T13:10:22.003Z</time></trkpt><trkpt lat="44.433199806270146" lon="11.676095955424584"><ele>36.42857142857143</ele><time>2026-05-02T13:10:23.003Z</time></trkpt><trkpt lat="44.43321637470062" lon="11.676186327109065"><ele>36.14285714285714</ele><time>2026-05-02T13:10:24.003Z</time></trkpt><trkpt lat="44.433198721983466" lon="11.676290568990048"><ele>35.85714285714286</ele><time>2026-05-02T13:10:25.003Z</time></trkpt><trkpt lat="44.43317827957724" lon="11.676390750568109"><ele>35.57142857142857</ele><time>2026-05-02T13:10:26.003Z</time></trkpt><trkpt lat="44.43315255107392" lon="11.676495376467628"><ele>35.285714285714285</ele><time>2026-05-02T13:10:27.003Z</time></trkpt><trkpt lat="44.433128569013206" lon="11.676608751160456"><ele>35.0</ele><time>2026-05-02T13:10:28.003Z</time></trkpt><trkpt lat="44.433105418152515" lon="11.676734424840028"><ele>35.0</ele><time>2026-05-02T13:10:29.003Z</time></trkpt><trkpt lat="44.43308210679862" lon="11.676865927676735"><ele>35.0</ele><time>2026-05-02T13:10:30.003Z</time></trkpt><trkpt lat="44.433054576054026" lon="11.677006927485868"><ele>35.0</ele><time>2026-05-02T13:10:31.003Z</time></trkpt><trkpt lat="44.43302271712761" lon="11.677153268344005"><ele>35.0</ele><time>2026-05-02T13:10:32.003Z</time></trkpt><trkpt lat="44.432986990870084" lon="11.677299261436882"><ele>35.0</ele><time>2026-05-02T13:10:33.003Z</time></trkpt><trkpt lat="44.43295733580378" lon="11.677441375902774"><ele>35.0</ele><time>2026-05-02T13:10:34.003Z</time></trkpt><trkpt lat="44.43291878102751" lon="11.67757515697403"><ele>35.0</ele><time>2026-05-02T13:10:35.003Z</time></trkpt><trkpt lat="44.43288871535325" lon="11.677713380007823"><ele>35.0</ele><time>2026-05-02T13:10:36.003Z</time></trkpt><trkpt lat="44.432871799714974" lon="11.677841857211671"><ele>35.0</ele><time>2026-05-02T13:10:37.003Z</time></trkpt><trkpt lat="44.43283888113955" lon="11.677971401654895"><ele>35.0</ele><time>2026-05-02T13:10:38.003Z</time></trkpt><trkpt lat="44.432807091792704" lon="11.678102413466403"><ele>34.8</ele><time>2026-05-02T13:10:39.003Z</time></trkpt><trkpt lat="44.432779205879534" lon="11.678233358160652"><ele>34.6</ele><time>2026-05-02T13:10:40.003Z</time></trkpt><trkpt lat="44.43274366810857" lon="11.678365567518952"><ele>34.4</ele><time>2026-05-02T13:10:41.003Z</time></trkpt><trkpt lat="44.43271645880695" lon="11.678489751965708"><ele>34.2</ele><time>2026-05-02T13:10:42.003Z</time></trkpt><trkpt lat="44.43268881217336" lon="11.67861112321302"><ele>34.0</ele><time>2026-05-02T13:10:43.003Z</time></trkpt><trkpt lat="44.43266592476464" lon="11.678725224375357"><ele>33.833333333333336</ele><time>2026-05-02T13:10:44.003Z</time></trkpt><trkpt lat="44.432638396854365" lon="11.67884964609231"><ele>33.66666666666667</ele><time>2026-05-02T13:10:44.999Z</time></trkpt><trkpt lat="44.43261335950401" lon="11.678967021149514"><ele>33.5</ele><time>2026-05-02T13:10:45.999Z</time></trkpt><trkpt lat="44.432584540997816" lon="11.67908197494072"><ele>33.333333333333336</ele><time>2026-05-02T13:10:47Z</time></trkpt><trkpt lat="44.43256397620242" lon="11.679187336283873"><ele>33.166666666666664</ele><time>2026-05-02T13:10:48Z</time></trkpt><trkpt lat="44.4325476750867" lon="11.67928215294642"><ele>33.0</ele><time>2026-05-02T13:10:49Z</time></trkpt><trkpt lat="44.43252185197303" lon="11.679375877188816"><ele>33.166666666666664</ele><time>2026-05-02T13:10:50Z</time></trkpt><trkpt lat="44.432498172119544" lon="11.679484373767762"><ele>33.333333333333336</ele><time>2026-05-02T13:10:51Z</time></trkpt><trkpt lat="44.432476620605215" lon="11.679593390631181"><ele>33.5</ele><time>2026-05-02T13:10:52Z</time></trkpt><trkpt lat="44.43245031446988" lon="11.679697574472657"><ele>33.66666666666667</ele><time>2026-05-02T13:10:53Z</time></trkpt><trkpt lat="44.43242702356934" lon="11.679801048293038"><ele>33.833333333333336</ele><time>2026-05-02T13:10:54Z</time></trkpt><trkpt lat="44.432407092517444" lon="11.679898498121062"><ele>34.0</ele><time>2026-05-02T13:10:55Z</time></trkpt><trkpt lat="44.432391854794645" lon="11.679991104124797"><ele>34.0</ele><time>2026-05-02T13:10:56Z</time></trkpt><trkpt lat="44.432373327741146" lon="11.680082073716369"><ele>34.0</ele><time>2026-05-02T13:10:57Z</time></trkpt><trkpt lat="44.43233860016575" lon="11.680226410927041"><ele>34.0</ele><time>2026-05-02T13:10:59Z</time></trkpt><trkpt lat="44.43235291522998" lon="11.680324498809851"><ele>34.0</ele><time>2026-05-02T13:11:01Z</time></trkpt><trkpt lat="44.43242384524869" lon="11.680358247844248"><ele>34.0</ele><time>2026-05-02T13:11:03Z</time></trkpt><trkpt lat="44.43249967280193" lon="11.680378772702547"><ele>34.0</ele><time>2026-05-02T13:11:05Z</time></trkpt><trkpt lat="44.432570822147525" lon="11.680396858006945"><ele>34.0</ele><time>2026-05-02T13:11:08Z</time></trkpt><trkpt lat="44.432600863085476" lon="11.680292306850712"><ele>34.0</ele><time>2026-05-02T13:13:53.001Z</time></trkpt><trkpt lat="44.43263648676417" lon="11.680196462249949"><ele>34.0</ele><time>2026-05-02T13:14:59Z</time></trkpt><trkpt lat="44.43257507742058" lon="11.680317719433654"><ele>34.0</ele><time>2026-05-02T13:23:30.84Z</time></trkpt><trkpt lat="44.432752886447645" lon="11.680250933015717"><ele>34.0</ele><time>2026-05-02T13:24:00.003Z</time></trkpt><trkpt lat="44.43274526848598" lon="11.680163233990324"><ele>34.0</ele><time>2026-05-02T13:25:17.025Z</time></trkpt><trkpt lat="44.43265496938352" lon="11.680207350047596"><ele>34.0</ele><time>2026-05-02T13:25:32.016Z</time></trkpt><trkpt lat="44.43256403206197" lon="11.680111694573608"><ele>34.0</ele><time>2026-05-02T13:25:44.002Z</time></trkpt><trkpt lat="44.432541692485934" lon="11.679909155444923"><ele>34.0</ele><time>2026-05-02T13:25:45.002Z</time></trkpt><trkpt lat="44.4326298234976" lon="11.680200838849744"><ele>34.0</ele><time>2026-05-02T13:25:49.002Z</time></trkpt><trkpt lat="44.43265319193535" lon="11.680282904891026"><ele>34.0</ele><time>2026-05-02T13:26:48.001Z</time></trkpt><trkpt lat="44.432572726951285" lon="11.680278740272701"><ele>34.0</ele><time>2026-05-02T13:28:09Z</time></trkpt><trkpt lat="44.43263801596162" lon="11.680264872544342"><ele>34.0</ele><time>2026-05-02T13:28:39Z</time></trkpt><trkpt lat="44.43263801596162" lon="11.680264872544342"><ele>34.0</ele><time>2026-05-02T13:28:39Z</time></trkpt></trkseg></trk></gpx>